<?xml version="1.0" encoding="UTF-8" standalone="no" ?>
<gpx xmlns="http://www.topografix.com/GPX/1/1" xmlns:xsi="http://www.w3.org/2001/XMLSchema-instance" xsi:schemaLocation="http://www.topografix.com/GPX/1/1 http://www.topografix.com/GPX/1/1/gpx.xsd" version="1.1" creator="VisuGPX - https://www.visugpx.com">
  <metadata>
    <name>13KM20206</name>
  </metadata>
  <trk>
    <name><![CDATA[13KM20206_1]]></name>
    <desc><![CDATA[]]></desc>
    <trkseg>
      <trkpt lat="45.84633" lon="3.52113">
        <ele>301</ele>
        <time>2026-05-10T09:51:26.000Z</time>
      </trkpt>
      <trkpt lat="45.8463" lon="3.52114">
        <ele>301</ele>
        <time>2026-05-10T07:03:24.000Z</time>
      </trkpt>
      <trkpt lat="45.8463" lon="3.52115">
        <ele>301</ele>
        <time>2026-05-10T07:03:25.000Z</time>
      </trkpt>
      <trkpt lat="45.84629" lon="3.52115">
        <ele>301</ele>
        <time>2026-05-10T07:03:26.000Z</time>
      </trkpt>
      <trkpt lat="45.84629" lon="3.52116">
        <ele>301</ele>
        <time>2026-05-10T07:03:27.000Z</time>
      </trkpt>
      <trkpt lat="45.84627" lon="3.52117">
        <ele>301</ele>
        <time>2026-05-10T07:03:28.000Z</time>
      </trkpt>
      <trkpt lat="45.84626" lon="3.52117">
        <ele>301</ele>
        <time>2026-05-10T07:03:29.000Z</time>
      </trkpt>
      <trkpt lat="45.84625" lon="3.52118">
        <ele>301</ele>
        <time>2026-05-10T07:03:30.000Z</time>
      </trkpt>
      <trkpt lat="45.84624" lon="3.52119">
        <ele>301</ele>
        <time>2026-05-10T07:03:31.000Z</time>
      </trkpt>
      <trkpt lat="45.84624" lon="3.52119">
        <ele>301</ele>
        <time>2026-05-10T07:03:32.000Z</time>
      </trkpt>
      <trkpt lat="45.84623" lon="3.52119">
        <ele>301</ele>
        <time>2026-05-10T07:03:33.000Z</time>
      </trkpt>
      <trkpt lat="45.84622" lon="3.5212">
        <ele>301</ele>
        <time>2026-05-10T07:03:34.000Z</time>
      </trkpt>
      <trkpt lat="45.84621" lon="3.52121">
        <ele>301</ele>
        <time>2026-05-10T07:03:35.000Z</time>
      </trkpt>
      <trkpt lat="45.8462" lon="3.52121">
        <ele>301</ele>
        <time>2026-05-10T07:03:36.000Z</time>
      </trkpt>
      <trkpt lat="45.8462" lon="3.52122">
        <ele>301</ele>
        <time>2026-05-10T07:03:37.000Z</time>
      </trkpt>
      <trkpt lat="45.84619" lon="3.52122">
        <ele>301</ele>
        <time>2026-05-10T07:03:38.000Z</time>
      </trkpt>
      <trkpt lat="45.84618" lon="3.52123">
        <ele>301</ele>
        <time>2026-05-10T07:03:39.000Z</time>
      </trkpt>
      <trkpt lat="45.84616" lon="3.52123">
        <ele>301</ele>
        <time>2026-05-10T07:03:40.000Z</time>
      </trkpt>
      <trkpt lat="45.84615" lon="3.52123">
        <ele>301</ele>
        <time>2026-05-10T07:03:41.000Z</time>
      </trkpt>
      <trkpt lat="45.84614" lon="3.52124">
        <ele>301</ele>
        <time>2026-05-10T07:03:42.000Z</time>
      </trkpt>
      <trkpt lat="45.84613" lon="3.52125">
        <ele>301</ele>
        <time>2026-05-10T07:03:43.000Z</time>
      </trkpt>
      <trkpt lat="45.84612" lon="3.52125">
        <ele>301</ele>
        <time>2026-05-10T07:03:44.000Z</time>
      </trkpt>
      <trkpt lat="45.84611" lon="3.52126">
        <ele>301</ele>
        <time>2026-05-10T07:03:45.000Z</time>
      </trkpt>
      <trkpt lat="45.8461" lon="3.52126">
        <ele>301</ele>
        <time>2026-05-10T07:03:46.000Z</time>
      </trkpt>
      <trkpt lat="45.84609" lon="3.52127">
        <ele>301</ele>
        <time>2026-05-10T07:03:47.000Z</time>
      </trkpt>
      <trkpt lat="45.84609" lon="3.52127">
        <ele>301</ele>
        <time>2026-05-10T07:03:48.000Z</time>
      </trkpt>
      <trkpt lat="45.84608" lon="3.52128">
        <ele>301</ele>
        <time>2026-05-10T07:03:49.000Z</time>
      </trkpt>
      <trkpt lat="45.84607" lon="3.52128">
        <ele>301</ele>
        <time>2026-05-10T07:03:50.000Z</time>
      </trkpt>
      <trkpt lat="45.84606" lon="3.52128">
        <ele>301</ele>
        <time>2026-05-10T07:03:51.000Z</time>
      </trkpt>
      <trkpt lat="45.84606" lon="3.52129">
        <ele>301</ele>
        <time>2026-05-10T07:03:52.000Z</time>
      </trkpt>
      <trkpt lat="45.84605" lon="3.52129">
        <ele>301</ele>
        <time>2026-05-10T07:03:53.000Z</time>
      </trkpt>
      <trkpt lat="45.84604" lon="3.5213">
        <ele>301</ele>
        <time>2026-05-10T07:03:54.000Z</time>
      </trkpt>
      <trkpt lat="45.84603" lon="3.52131">
        <ele>301</ele>
        <time>2026-05-10T07:03:55.000Z</time>
      </trkpt>
      <trkpt lat="45.84602" lon="3.52132">
        <ele>301</ele>
        <time>2026-05-10T07:03:56.000Z</time>
      </trkpt>
      <trkpt lat="45.84601" lon="3.52133">
        <ele>301</ele>
        <time>2026-05-10T07:03:57.000Z</time>
      </trkpt>
      <trkpt lat="45.846" lon="3.52134">
        <ele>301</ele>
        <time>2026-05-10T07:03:58.000Z</time>
      </trkpt>
      <trkpt lat="45.84599" lon="3.52135">
        <ele>301</ele>
        <time>2026-05-10T07:03:59.000Z</time>
      </trkpt>
      <trkpt lat="45.84598" lon="3.52136">
        <ele>301</ele>
        <time>2026-05-10T07:04:00.000Z</time>
      </trkpt>
      <trkpt lat="45.84597" lon="3.52137">
        <ele>301</ele>
        <time>2026-05-10T07:04:01.000Z</time>
      </trkpt>
      <trkpt lat="45.84596" lon="3.52138">
        <ele>301</ele>
        <time>2026-05-10T07:04:02.000Z</time>
      </trkpt>
      <trkpt lat="45.84595" lon="3.52139">
        <ele>301</ele>
        <time>2026-05-10T07:04:03.000Z</time>
      </trkpt>
      <trkpt lat="45.84594" lon="3.5214">
        <ele>301</ele>
        <time>2026-05-10T07:04:04.000Z</time>
      </trkpt>
      <trkpt lat="45.84593" lon="3.5214">
        <ele>301</ele>
        <time>2026-05-10T07:04:05.000Z</time>
      </trkpt>
      <trkpt lat="45.84592" lon="3.52141">
        <ele>301</ele>
        <time>2026-05-10T07:04:06.000Z</time>
      </trkpt>
      <trkpt lat="45.84591" lon="3.52142">
        <ele>301</ele>
        <time>2026-05-10T07:04:07.000Z</time>
      </trkpt>
      <trkpt lat="45.84591" lon="3.52144">
        <ele>301</ele>
        <time>2026-05-10T07:04:08.000Z</time>
      </trkpt>
      <trkpt lat="45.8459" lon="3.52146">
        <ele>301</ele>
        <time>2026-05-10T07:04:09.000Z</time>
      </trkpt>
      <trkpt lat="45.8459" lon="3.52148">
        <ele>301</ele>
        <time>2026-05-10T07:04:10.000Z</time>
      </trkpt>
      <trkpt lat="45.8459" lon="3.52149">
        <ele>301</ele>
        <time>2026-05-10T07:04:11.000Z</time>
      </trkpt>
      <trkpt lat="45.84589" lon="3.52151">
        <ele>301</ele>
        <time>2026-05-10T07:04:12.000Z</time>
      </trkpt>
      <trkpt lat="45.84589" lon="3.52152">
        <ele>301</ele>
        <time>2026-05-10T07:04:13.000Z</time>
      </trkpt>
      <trkpt lat="45.84588" lon="3.52154">
        <ele>301</ele>
        <time>2026-05-10T07:04:14.000Z</time>
      </trkpt>
      <trkpt lat="45.84588" lon="3.52155">
        <ele>301</ele>
        <time>2026-05-10T07:04:15.000Z</time>
      </trkpt>
      <trkpt lat="45.84587" lon="3.52157">
        <ele>301</ele>
        <time>2026-05-10T07:04:16.000Z</time>
      </trkpt>
      <trkpt lat="45.84587" lon="3.52159">
        <ele>301</ele>
        <time>2026-05-10T07:04:17.000Z</time>
      </trkpt>
      <trkpt lat="45.84587" lon="3.5216">
        <ele>301</ele>
        <time>2026-05-10T07:04:18.000Z</time>
      </trkpt>
      <trkpt lat="45.84586" lon="3.52162">
        <ele>301</ele>
        <time>2026-05-10T07:04:19.000Z</time>
      </trkpt>
      <trkpt lat="45.84586" lon="3.52164">
        <ele>301</ele>
        <time>2026-05-10T07:04:20.000Z</time>
      </trkpt>
      <trkpt lat="45.84586" lon="3.52165">
        <ele>301</ele>
        <time>2026-05-10T07:04:21.000Z</time>
      </trkpt>
      <trkpt lat="45.84586" lon="3.52167">
        <ele>301</ele>
        <time>2026-05-10T07:04:22.000Z</time>
      </trkpt>
      <trkpt lat="45.84586" lon="3.52168">
        <ele>301</ele>
        <time>2026-05-10T07:04:23.000Z</time>
      </trkpt>
      <trkpt lat="45.84586" lon="3.5217">
        <ele>301</ele>
        <time>2026-05-10T07:04:24.000Z</time>
      </trkpt>
      <trkpt lat="45.84586" lon="3.52171">
        <ele>301</ele>
        <time>2026-05-10T07:04:25.000Z</time>
      </trkpt>
      <trkpt lat="45.84586" lon="3.52173">
        <ele>301</ele>
        <time>2026-05-10T07:04:26.000Z</time>
      </trkpt>
      <trkpt lat="45.84586" lon="3.52175">
        <ele>301</ele>
        <time>2026-05-10T07:04:27.000Z</time>
      </trkpt>
      <trkpt lat="45.84586" lon="3.52176">
        <ele>301</ele>
        <time>2026-05-10T07:04:28.000Z</time>
      </trkpt>
      <trkpt lat="45.84586" lon="3.52178">
        <ele>301</ele>
        <time>2026-05-10T07:04:29.000Z</time>
      </trkpt>
      <trkpt lat="45.84586" lon="3.52181">
        <ele>301</ele>
        <time>2026-05-10T07:04:30.000Z</time>
      </trkpt>
      <trkpt lat="45.84586" lon="3.52183">
        <ele>301</ele>
        <time>2026-05-10T07:04:31.000Z</time>
      </trkpt>
      <trkpt lat="45.84586" lon="3.52184">
        <ele>301</ele>
        <time>2026-05-10T07:04:32.000Z</time>
      </trkpt>
      <trkpt lat="45.84586" lon="3.52186">
        <ele>301</ele>
        <time>2026-05-10T07:04:33.000Z</time>
      </trkpt>
      <trkpt lat="45.84586" lon="3.52187">
        <ele>301</ele>
        <time>2026-05-10T07:04:34.000Z</time>
      </trkpt>
      <trkpt lat="45.84587" lon="3.52189">
        <ele>301</ele>
        <time>2026-05-10T07:04:35.000Z</time>
      </trkpt>
      <trkpt lat="45.84587" lon="3.52191">
        <ele>301</ele>
        <time>2026-05-10T07:04:36.000Z</time>
      </trkpt>
      <trkpt lat="45.84587" lon="3.52192">
        <ele>301</ele>
        <time>2026-05-10T07:04:37.000Z</time>
      </trkpt>
      <trkpt lat="45.84587" lon="3.52194">
        <ele>301</ele>
        <time>2026-05-10T07:04:38.000Z</time>
      </trkpt>
      <trkpt lat="45.84588" lon="3.52196">
        <ele>301</ele>
        <time>2026-05-10T07:04:39.000Z</time>
      </trkpt>
      <trkpt lat="45.84588" lon="3.52197">
        <ele>301</ele>
        <time>2026-05-10T07:04:40.000Z</time>
      </trkpt>
      <trkpt lat="45.84588" lon="3.52199">
        <ele>301</ele>
        <time>2026-05-10T07:04:41.000Z</time>
      </trkpt>
      <trkpt lat="45.84589" lon="3.52201">
        <ele>301</ele>
        <time>2026-05-10T07:04:42.000Z</time>
      </trkpt>
      <trkpt lat="45.84589" lon="3.52202">
        <ele>301</ele>
        <time>2026-05-10T07:04:43.000Z</time>
      </trkpt>
      <trkpt lat="45.8459" lon="3.52204">
        <ele>301</ele>
        <time>2026-05-10T07:04:44.000Z</time>
      </trkpt>
      <trkpt lat="45.8459" lon="3.52205">
        <ele>301</ele>
        <time>2026-05-10T07:04:45.000Z</time>
      </trkpt>
      <trkpt lat="45.84591" lon="3.52207">
        <ele>301</ele>
        <time>2026-05-10T07:04:46.000Z</time>
      </trkpt>
      <trkpt lat="45.84592" lon="3.52209">
        <ele>301</ele>
        <time>2026-05-10T07:04:47.000Z</time>
      </trkpt>
      <trkpt lat="45.84592" lon="3.52211">
        <ele>301</ele>
        <time>2026-05-10T07:04:48.000Z</time>
      </trkpt>
      <trkpt lat="45.84593" lon="3.52212">
        <ele>301</ele>
        <time>2026-05-10T07:04:49.000Z</time>
      </trkpt>
      <trkpt lat="45.84594" lon="3.52214">
        <ele>301</ele>
        <time>2026-05-10T07:04:50.000Z</time>
      </trkpt>
      <trkpt lat="45.84595" lon="3.52216">
        <ele>301</ele>
        <time>2026-05-10T07:04:51.000Z</time>
      </trkpt>
      <trkpt lat="45.84595" lon="3.52217">
        <ele>301</ele>
        <time>2026-05-10T07:04:52.000Z</time>
      </trkpt>
      <trkpt lat="45.84596" lon="3.52219">
        <ele>301</ele>
        <time>2026-05-10T07:04:53.000Z</time>
      </trkpt>
      <trkpt lat="45.84597" lon="3.5222">
        <ele>301</ele>
        <time>2026-05-10T07:04:54.000Z</time>
      </trkpt>
      <trkpt lat="45.84598" lon="3.52221">
        <ele>301</ele>
        <time>2026-05-10T07:04:55.000Z</time>
      </trkpt>
      <trkpt lat="45.84599" lon="3.52222">
        <ele>301</ele>
        <time>2026-05-10T07:04:56.000Z</time>
      </trkpt>
      <trkpt lat="45.846" lon="3.52223">
        <ele>301</ele>
        <time>2026-05-10T07:04:57.000Z</time>
      </trkpt>
      <trkpt lat="45.84601" lon="3.52224">
        <ele>301</ele>
        <time>2026-05-10T07:04:58.000Z</time>
      </trkpt>
      <trkpt lat="45.84602" lon="3.52226">
        <ele>301</ele>
        <time>2026-05-10T07:04:59.000Z</time>
      </trkpt>
      <trkpt lat="45.84603" lon="3.52227">
        <ele>301</ele>
        <time>2026-05-10T07:05:00.000Z</time>
      </trkpt>
      <trkpt lat="45.84604" lon="3.52228">
        <ele>301.1</ele>
        <time>2026-05-10T07:05:01.000Z</time>
      </trkpt>
      <trkpt lat="45.84605" lon="3.52229">
        <ele>301.1</ele>
        <time>2026-05-10T07:05:02.000Z</time>
      </trkpt>
      <trkpt lat="45.84606" lon="3.5223">
        <ele>301.1</ele>
        <time>2026-05-10T07:05:03.000Z</time>
      </trkpt>
      <trkpt lat="45.84607" lon="3.5223">
        <ele>301</ele>
        <time>2026-05-10T07:05:04.000Z</time>
      </trkpt>
      <trkpt lat="45.84608" lon="3.52231">
        <ele>301</ele>
        <time>2026-05-10T07:05:05.000Z</time>
      </trkpt>
      <trkpt lat="45.84609" lon="3.52232">
        <ele>301</ele>
        <time>2026-05-10T07:05:06.000Z</time>
      </trkpt>
      <trkpt lat="45.8461" lon="3.52232">
        <ele>301</ele>
        <time>2026-05-10T07:05:07.000Z</time>
      </trkpt>
      <trkpt lat="45.84611" lon="3.52233">
        <ele>301</ele>
        <time>2026-05-10T07:05:08.000Z</time>
      </trkpt>
      <trkpt lat="45.84612" lon="3.52234">
        <ele>301</ele>
        <time>2026-05-10T07:05:09.000Z</time>
      </trkpt>
      <trkpt lat="45.84613" lon="3.52234">
        <ele>301</ele>
        <time>2026-05-10T07:05:10.000Z</time>
      </trkpt>
      <trkpt lat="45.84614" lon="3.52235">
        <ele>301</ele>
        <time>2026-05-10T07:05:11.000Z</time>
      </trkpt>
      <trkpt lat="45.84615" lon="3.52235">
        <ele>301</ele>
        <time>2026-05-10T07:05:12.000Z</time>
      </trkpt>
      <trkpt lat="45.84617" lon="3.52235">
        <ele>301</ele>
        <time>2026-05-10T07:05:13.000Z</time>
      </trkpt>
      <trkpt lat="45.84618" lon="3.52236">
        <ele>301</ele>
        <time>2026-05-10T07:05:14.000Z</time>
      </trkpt>
      <trkpt lat="45.84619" lon="3.52236">
        <ele>301</ele>
        <time>2026-05-10T07:05:15.000Z</time>
      </trkpt>
      <trkpt lat="45.8462" lon="3.52235">
        <ele>301</ele>
        <time>2026-05-10T07:05:16.000Z</time>
      </trkpt>
      <trkpt lat="45.84621" lon="3.52236">
        <ele>301</ele>
        <time>2026-05-10T07:05:17.000Z</time>
      </trkpt>
      <trkpt lat="45.84622" lon="3.52236">
        <ele>301</ele>
        <time>2026-05-10T07:05:18.000Z</time>
      </trkpt>
      <trkpt lat="45.84624" lon="3.52236">
        <ele>301</ele>
        <time>2026-05-10T07:05:19.000Z</time>
      </trkpt>
      <trkpt lat="45.84625" lon="3.52236">
        <ele>301</ele>
        <time>2026-05-10T07:05:20.000Z</time>
      </trkpt>
      <trkpt lat="45.84626" lon="3.52235">
        <ele>301</ele>
        <time>2026-05-10T07:05:21.000Z</time>
      </trkpt>
      <trkpt lat="45.84628" lon="3.52235">
        <ele>301</ele>
        <time>2026-05-10T07:05:22.000Z</time>
      </trkpt>
      <trkpt lat="45.84629" lon="3.52235">
        <ele>301</ele>
        <time>2026-05-10T07:05:23.000Z</time>
      </trkpt>
      <trkpt lat="45.8463" lon="3.52234">
        <ele>301</ele>
        <time>2026-05-10T07:05:24.000Z</time>
      </trkpt>
      <trkpt lat="45.84631" lon="3.52234">
        <ele>301</ele>
        <time>2026-05-10T07:05:25.000Z</time>
      </trkpt>
      <trkpt lat="45.84632" lon="3.52233">
        <ele>301</ele>
        <time>2026-05-10T07:05:26.000Z</time>
      </trkpt>
      <trkpt lat="45.84633" lon="3.52233">
        <ele>301</ele>
        <time>2026-05-10T07:05:27.000Z</time>
      </trkpt>
      <trkpt lat="45.84634" lon="3.52232">
        <ele>301</ele>
        <time>2026-05-10T07:05:28.000Z</time>
      </trkpt>
      <trkpt lat="45.84635" lon="3.52232">
        <ele>301</ele>
        <time>2026-05-10T07:05:29.000Z</time>
      </trkpt>
      <trkpt lat="45.84636" lon="3.52231">
        <ele>301</ele>
        <time>2026-05-10T07:05:30.000Z</time>
      </trkpt>
      <trkpt lat="45.84638" lon="3.5223">
        <ele>301</ele>
        <time>2026-05-10T07:05:31.000Z</time>
      </trkpt>
      <trkpt lat="45.84639" lon="3.5223">
        <ele>301</ele>
        <time>2026-05-10T07:05:32.000Z</time>
      </trkpt>
      <trkpt lat="45.8464" lon="3.52229">
        <ele>301</ele>
        <time>2026-05-10T07:05:33.000Z</time>
      </trkpt>
      <trkpt lat="45.84641" lon="3.52229">
        <ele>301</ele>
        <time>2026-05-10T07:05:34.000Z</time>
      </trkpt>
      <trkpt lat="45.84642" lon="3.52228">
        <ele>301</ele>
        <time>2026-05-10T07:05:35.000Z</time>
      </trkpt>
      <trkpt lat="45.84643" lon="3.52228">
        <ele>301</ele>
        <time>2026-05-10T07:05:36.000Z</time>
      </trkpt>
      <trkpt lat="45.84644" lon="3.52227">
        <ele>301</ele>
        <time>2026-05-10T07:05:37.000Z</time>
      </trkpt>
      <trkpt lat="45.84645" lon="3.52227">
        <ele>301</ele>
        <time>2026-05-10T07:05:38.000Z</time>
      </trkpt>
      <trkpt lat="45.84646" lon="3.52226">
        <ele>301</ele>
        <time>2026-05-10T07:05:39.000Z</time>
      </trkpt>
      <trkpt lat="45.84648" lon="3.52226">
        <ele>301</ele>
        <time>2026-05-10T07:05:40.000Z</time>
      </trkpt>
      <trkpt lat="45.84649" lon="3.52225">
        <ele>301</ele>
        <time>2026-05-10T07:05:41.000Z</time>
      </trkpt>
      <trkpt lat="45.8465" lon="3.52225">
        <ele>301</ele>
        <time>2026-05-10T07:05:42.000Z</time>
      </trkpt>
      <trkpt lat="45.84651" lon="3.52224">
        <ele>301</ele>
        <time>2026-05-10T07:05:43.000Z</time>
      </trkpt>
      <trkpt lat="45.84652" lon="3.52224">
        <ele>301</ele>
        <time>2026-05-10T07:05:44.000Z</time>
      </trkpt>
      <trkpt lat="45.84654" lon="3.52223">
        <ele>301</ele>
        <time>2026-05-10T07:05:45.000Z</time>
      </trkpt>
      <trkpt lat="45.84655" lon="3.52223">
        <ele>301</ele>
        <time>2026-05-10T07:05:46.000Z</time>
      </trkpt>
      <trkpt lat="45.84656" lon="3.52222">
        <ele>301</ele>
        <time>2026-05-10T07:05:47.000Z</time>
      </trkpt>
      <trkpt lat="45.84657" lon="3.52222">
        <ele>301</ele>
        <time>2026-05-10T07:05:48.000Z</time>
      </trkpt>
      <trkpt lat="45.84658" lon="3.52221">
        <ele>301</ele>
        <time>2026-05-10T07:05:49.000Z</time>
      </trkpt>
      <trkpt lat="45.84659" lon="3.52221">
        <ele>301</ele>
        <time>2026-05-10T07:05:50.000Z</time>
      </trkpt>
      <trkpt lat="45.8466" lon="3.5222">
        <ele>301</ele>
        <time>2026-05-10T07:05:51.000Z</time>
      </trkpt>
      <trkpt lat="45.84661" lon="3.5222">
        <ele>301</ele>
        <time>2026-05-10T07:05:52.000Z</time>
      </trkpt>
      <trkpt lat="45.84662" lon="3.5222">
        <ele>301</ele>
        <time>2026-05-10T07:05:53.000Z</time>
      </trkpt>
      <trkpt lat="45.84663" lon="3.52219">
        <ele>301</ele>
        <time>2026-05-10T07:05:54.000Z</time>
      </trkpt>
      <trkpt lat="45.84665" lon="3.52219">
        <ele>301</ele>
        <time>2026-05-10T07:05:55.000Z</time>
      </trkpt>
      <trkpt lat="45.84666" lon="3.52218">
        <ele>301</ele>
        <time>2026-05-10T07:05:56.000Z</time>
      </trkpt>
      <trkpt lat="45.84667" lon="3.52218">
        <ele>301</ele>
        <time>2026-05-10T07:05:57.000Z</time>
      </trkpt>
      <trkpt lat="45.84669" lon="3.52217">
        <ele>301</ele>
        <time>2026-05-10T07:05:58.000Z</time>
      </trkpt>
      <trkpt lat="45.8467" lon="3.52216">
        <ele>301</ele>
        <time>2026-05-10T07:05:59.000Z</time>
      </trkpt>
      <trkpt lat="45.84671" lon="3.52215">
        <ele>301</ele>
        <time>2026-05-10T07:06:00.000Z</time>
      </trkpt>
      <trkpt lat="45.84672" lon="3.52215">
        <ele>301</ele>
        <time>2026-05-10T07:06:01.000Z</time>
      </trkpt>
      <trkpt lat="45.84674" lon="3.52215">
        <ele>301</ele>
        <time>2026-05-10T07:06:02.000Z</time>
      </trkpt>
      <trkpt lat="45.84675" lon="3.52214">
        <ele>301</ele>
        <time>2026-05-10T07:06:03.000Z</time>
      </trkpt>
      <trkpt lat="45.84676" lon="3.52214">
        <ele>301</ele>
        <time>2026-05-10T07:06:04.000Z</time>
      </trkpt>
      <trkpt lat="45.84677" lon="3.52213">
        <ele>301</ele>
        <time>2026-05-10T07:06:05.000Z</time>
      </trkpt>
      <trkpt lat="45.84678" lon="3.52212">
        <ele>301</ele>
        <time>2026-05-10T07:06:06.000Z</time>
      </trkpt>
      <trkpt lat="45.8468" lon="3.52212">
        <ele>301</ele>
        <time>2026-05-10T07:06:07.000Z</time>
      </trkpt>
      <trkpt lat="45.84681" lon="3.52211">
        <ele>301</ele>
        <time>2026-05-10T07:06:08.000Z</time>
      </trkpt>
      <trkpt lat="45.84682" lon="3.5221">
        <ele>301</ele>
        <time>2026-05-10T07:06:09.000Z</time>
      </trkpt>
      <trkpt lat="45.84683" lon="3.5221">
        <ele>301</ele>
        <time>2026-05-10T07:06:10.000Z</time>
      </trkpt>
      <trkpt lat="45.84684" lon="3.52209">
        <ele>301</ele>
        <time>2026-05-10T07:06:11.000Z</time>
      </trkpt>
      <trkpt lat="45.84685" lon="3.52208">
        <ele>301</ele>
        <time>2026-05-10T07:06:12.000Z</time>
      </trkpt>
      <trkpt lat="45.84687" lon="3.52208">
        <ele>301</ele>
        <time>2026-05-10T07:06:13.000Z</time>
      </trkpt>
      <trkpt lat="45.84688" lon="3.52207">
        <ele>301</ele>
        <time>2026-05-10T07:06:14.000Z</time>
      </trkpt>
      <trkpt lat="45.84689" lon="3.52206">
        <ele>301</ele>
        <time>2026-05-10T07:06:15.000Z</time>
      </trkpt>
      <trkpt lat="45.8469" lon="3.52206">
        <ele>301</ele>
        <time>2026-05-10T07:06:16.000Z</time>
      </trkpt>
      <trkpt lat="45.84692" lon="3.52205">
        <ele>301</ele>
        <time>2026-05-10T07:06:17.000Z</time>
      </trkpt>
      <trkpt lat="45.84693" lon="3.52205">
        <ele>301</ele>
        <time>2026-05-10T07:06:18.000Z</time>
      </trkpt>
      <trkpt lat="45.84694" lon="3.52204">
        <ele>301</ele>
        <time>2026-05-10T07:06:19.000Z</time>
      </trkpt>
      <trkpt lat="45.84695" lon="3.52203">
        <ele>301</ele>
        <time>2026-05-10T07:06:20.000Z</time>
      </trkpt>
      <trkpt lat="45.84696" lon="3.52203">
        <ele>301</ele>
        <time>2026-05-10T07:06:21.000Z</time>
      </trkpt>
      <trkpt lat="45.84697" lon="3.52202">
        <ele>301</ele>
        <time>2026-05-10T07:06:22.000Z</time>
      </trkpt>
      <trkpt lat="45.84698" lon="3.52202">
        <ele>301</ele>
        <time>2026-05-10T07:06:23.000Z</time>
      </trkpt>
      <trkpt lat="45.847" lon="3.52201">
        <ele>301</ele>
        <time>2026-05-10T07:06:24.000Z</time>
      </trkpt>
      <trkpt lat="45.84701" lon="3.52201">
        <ele>301</ele>
        <time>2026-05-10T07:06:25.000Z</time>
      </trkpt>
      <trkpt lat="45.84702" lon="3.522">
        <ele>301</ele>
        <time>2026-05-10T07:06:26.000Z</time>
      </trkpt>
      <trkpt lat="45.84703" lon="3.522">
        <ele>301</ele>
        <time>2026-05-10T07:06:27.000Z</time>
      </trkpt>
      <trkpt lat="45.84704" lon="3.52199">
        <ele>301</ele>
        <time>2026-05-10T07:06:28.000Z</time>
      </trkpt>
      <trkpt lat="45.84705" lon="3.52198">
        <ele>301</ele>
        <time>2026-05-10T07:06:29.000Z</time>
      </trkpt>
      <trkpt lat="45.84706" lon="3.52197">
        <ele>301</ele>
        <time>2026-05-10T07:06:30.000Z</time>
      </trkpt>
      <trkpt lat="45.84707" lon="3.52197">
        <ele>301</ele>
        <time>2026-05-10T07:06:31.000Z</time>
      </trkpt>
      <trkpt lat="45.84708" lon="3.52196">
        <ele>301</ele>
        <time>2026-05-10T07:06:32.000Z</time>
      </trkpt>
      <trkpt lat="45.84709" lon="3.52195">
        <ele>301</ele>
        <time>2026-05-10T07:06:33.000Z</time>
      </trkpt>
      <trkpt lat="45.8471" lon="3.52194">
        <ele>301</ele>
        <time>2026-05-10T07:06:34.000Z</time>
      </trkpt>
      <trkpt lat="45.84711" lon="3.52193">
        <ele>301</ele>
        <time>2026-05-10T07:06:35.000Z</time>
      </trkpt>
      <trkpt lat="45.84712" lon="3.52192">
        <ele>301</ele>
        <time>2026-05-10T07:06:36.000Z</time>
      </trkpt>
      <trkpt lat="45.84713" lon="3.5219">
        <ele>301</ele>
        <time>2026-05-10T07:06:37.000Z</time>
      </trkpt>
      <trkpt lat="45.84713" lon="3.52189">
        <ele>301</ele>
        <time>2026-05-10T07:06:38.000Z</time>
      </trkpt>
      <trkpt lat="45.84714" lon="3.52187">
        <ele>301</ele>
        <time>2026-05-10T07:06:39.000Z</time>
      </trkpt>
      <trkpt lat="45.84715" lon="3.52186">
        <ele>301</ele>
        <time>2026-05-10T07:06:40.000Z</time>
      </trkpt>
      <trkpt lat="45.84716" lon="3.52184">
        <ele>301</ele>
        <time>2026-05-10T07:06:41.000Z</time>
      </trkpt>
      <trkpt lat="45.84717" lon="3.52183">
        <ele>301</ele>
        <time>2026-05-10T07:06:42.000Z</time>
      </trkpt>
      <trkpt lat="45.84717" lon="3.52181">
        <ele>301</ele>
        <time>2026-05-10T07:06:43.000Z</time>
      </trkpt>
      <trkpt lat="45.84718" lon="3.5218">
        <ele>301</ele>
        <time>2026-05-10T07:06:44.000Z</time>
      </trkpt>
      <trkpt lat="45.84719" lon="3.52178">
        <ele>301</ele>
        <time>2026-05-10T07:06:45.000Z</time>
      </trkpt>
      <trkpt lat="45.84719" lon="3.52176">
        <ele>301</ele>
        <time>2026-05-10T07:06:46.000Z</time>
      </trkpt>
      <trkpt lat="45.8472" lon="3.52175">
        <ele>301</ele>
        <time>2026-05-10T07:06:47.000Z</time>
      </trkpt>
      <trkpt lat="45.8472" lon="3.52174">
        <ele>301</ele>
        <time>2026-05-10T07:06:48.000Z</time>
      </trkpt>
      <trkpt lat="45.84721" lon="3.52173">
        <ele>301</ele>
        <time>2026-05-10T07:06:49.000Z</time>
      </trkpt>
      <trkpt lat="45.84721" lon="3.52171">
        <ele>301</ele>
        <time>2026-05-10T07:06:50.000Z</time>
      </trkpt>
      <trkpt lat="45.84721" lon="3.52169">
        <ele>301</ele>
        <time>2026-05-10T07:06:51.000Z</time>
      </trkpt>
      <trkpt lat="45.84721" lon="3.52168">
        <ele>301</ele>
        <time>2026-05-10T07:06:52.000Z</time>
      </trkpt>
      <trkpt lat="45.84722" lon="3.52166">
        <ele>301</ele>
        <time>2026-05-10T07:06:53.000Z</time>
      </trkpt>
      <trkpt lat="45.84722" lon="3.52164">
        <ele>301</ele>
        <time>2026-05-10T07:06:54.000Z</time>
      </trkpt>
      <trkpt lat="45.84722" lon="3.52162">
        <ele>301</ele>
        <time>2026-05-10T07:06:55.000Z</time>
      </trkpt>
      <trkpt lat="45.84722" lon="3.5216">
        <ele>301</ele>
        <time>2026-05-10T07:06:56.000Z</time>
      </trkpt>
      <trkpt lat="45.84722" lon="3.52159">
        <ele>301</ele>
        <time>2026-05-10T07:06:57.000Z</time>
      </trkpt>
      <trkpt lat="45.84722" lon="3.52157">
        <ele>301</ele>
        <time>2026-05-10T07:06:58.000Z</time>
      </trkpt>
      <trkpt lat="45.84722" lon="3.52155">
        <ele>301</ele>
        <time>2026-05-10T07:06:59.000Z</time>
      </trkpt>
      <trkpt lat="45.84722" lon="3.52153">
        <ele>301</ele>
        <time>2026-05-10T07:07:00.000Z</time>
      </trkpt>
      <trkpt lat="45.84722" lon="3.52152">
        <ele>301</ele>
        <time>2026-05-10T07:07:01.000Z</time>
      </trkpt>
      <trkpt lat="45.84722" lon="3.5215">
        <ele>301</ele>
        <time>2026-05-10T07:07:02.000Z</time>
      </trkpt>
      <trkpt lat="45.84722" lon="3.52149">
        <ele>301</ele>
        <time>2026-05-10T07:07:03.000Z</time>
      </trkpt>
      <trkpt lat="45.84722" lon="3.52147">
        <ele>301</ele>
        <time>2026-05-10T07:07:04.000Z</time>
      </trkpt>
      <trkpt lat="45.84721" lon="3.52145">
        <ele>301</ele>
        <time>2026-05-10T07:07:05.000Z</time>
      </trkpt>
      <trkpt lat="45.84721" lon="3.52144">
        <ele>301</ele>
        <time>2026-05-10T07:07:06.000Z</time>
      </trkpt>
      <trkpt lat="45.84721" lon="3.52142">
        <ele>301</ele>
        <time>2026-05-10T07:07:07.000Z</time>
      </trkpt>
      <trkpt lat="45.84721" lon="3.5214">
        <ele>301</ele>
        <time>2026-05-10T07:07:08.000Z</time>
      </trkpt>
      <trkpt lat="45.8472" lon="3.52138">
        <ele>301</ele>
        <time>2026-05-10T07:07:09.000Z</time>
      </trkpt>
      <trkpt lat="45.8472" lon="3.52137">
        <ele>300.9</ele>
        <time>2026-05-10T07:07:10.000Z</time>
      </trkpt>
      <trkpt lat="45.8472" lon="3.52135">
        <ele>300.9</ele>
        <time>2026-05-10T07:07:11.000Z</time>
      </trkpt>
      <trkpt lat="45.84719" lon="3.52134">
        <ele>300.8</ele>
        <time>2026-05-10T07:07:12.000Z</time>
      </trkpt>
      <trkpt lat="45.84719" lon="3.52132">
        <ele>300.8</ele>
        <time>2026-05-10T07:07:13.000Z</time>
      </trkpt>
      <trkpt lat="45.84719" lon="3.5213">
        <ele>300.7</ele>
        <time>2026-05-10T07:07:14.000Z</time>
      </trkpt>
      <trkpt lat="45.84718" lon="3.52129">
        <ele>300.7</ele>
        <time>2026-05-10T07:07:15.000Z</time>
      </trkpt>
      <trkpt lat="45.84718" lon="3.52127">
        <ele>300.6</ele>
        <time>2026-05-10T07:07:16.000Z</time>
      </trkpt>
      <trkpt lat="45.84717" lon="3.52125">
        <ele>300.6</ele>
        <time>2026-05-10T07:07:17.000Z</time>
      </trkpt>
      <trkpt lat="45.84717" lon="3.52124">
        <ele>300.6</ele>
        <time>2026-05-10T07:07:18.000Z</time>
      </trkpt>
      <trkpt lat="45.84716" lon="3.52122">
        <ele>300.5</ele>
        <time>2026-05-10T07:07:19.000Z</time>
      </trkpt>
      <trkpt lat="45.84716" lon="3.52121">
        <ele>300.5</ele>
        <time>2026-05-10T07:07:20.000Z</time>
      </trkpt>
      <trkpt lat="45.84715" lon="3.52119">
        <ele>300.5</ele>
        <time>2026-05-10T07:07:21.000Z</time>
      </trkpt>
      <trkpt lat="45.84715" lon="3.52118">
        <ele>300.5</ele>
        <time>2026-05-10T07:07:22.000Z</time>
      </trkpt>
      <trkpt lat="45.84714" lon="3.52116">
        <ele>300.4</ele>
        <time>2026-05-10T07:07:23.000Z</time>
      </trkpt>
      <trkpt lat="45.84713" lon="3.52115">
        <ele>300.4</ele>
        <time>2026-05-10T07:07:24.000Z</time>
      </trkpt>
      <trkpt lat="45.84712" lon="3.52113">
        <ele>300.4</ele>
        <time>2026-05-10T07:07:25.000Z</time>
      </trkpt>
      <trkpt lat="45.84712" lon="3.52112">
        <ele>300.4</ele>
        <time>2026-05-10T07:07:26.000Z</time>
      </trkpt>
      <trkpt lat="45.84711" lon="3.52111">
        <ele>300.4</ele>
        <time>2026-05-10T07:07:27.000Z</time>
      </trkpt>
      <trkpt lat="45.8471" lon="3.5211">
        <ele>300.4</ele>
        <time>2026-05-10T07:07:28.000Z</time>
      </trkpt>
      <trkpt lat="45.84709" lon="3.52109">
        <ele>300.4</ele>
        <time>2026-05-10T07:07:29.000Z</time>
      </trkpt>
      <trkpt lat="45.84708" lon="3.52108">
        <ele>300.4</ele>
        <time>2026-05-10T07:07:30.000Z</time>
      </trkpt>
      <trkpt lat="45.84707" lon="3.52106">
        <ele>300.5</ele>
        <time>2026-05-10T07:07:31.000Z</time>
      </trkpt>
      <trkpt lat="45.84706" lon="3.52105">
        <ele>300.5</ele>
        <time>2026-05-10T07:07:32.000Z</time>
      </trkpt>
      <trkpt lat="45.84705" lon="3.52104">
        <ele>300.5</ele>
        <time>2026-05-10T07:07:33.000Z</time>
      </trkpt>
      <trkpt lat="45.84704" lon="3.52103">
        <ele>300.5</ele>
        <time>2026-05-10T07:07:34.000Z</time>
      </trkpt>
      <trkpt lat="45.84703" lon="3.52103">
        <ele>300.6</ele>
        <time>2026-05-10T07:07:35.000Z</time>
      </trkpt>
      <trkpt lat="45.84702" lon="3.52101">
        <ele>300.6</ele>
        <time>2026-05-10T07:07:36.000Z</time>
      </trkpt>
      <trkpt lat="45.84701" lon="3.521">
        <ele>300.7</ele>
        <time>2026-05-10T07:07:37.000Z</time>
      </trkpt>
      <trkpt lat="45.84699" lon="3.521">
        <ele>300.7</ele>
        <time>2026-05-10T07:07:38.000Z</time>
      </trkpt>
      <trkpt lat="45.84698" lon="3.52099">
        <ele>300.8</ele>
        <time>2026-05-10T07:07:39.000Z</time>
      </trkpt>
      <trkpt lat="45.84697" lon="3.52098">
        <ele>300.9</ele>
        <time>2026-05-10T07:07:40.000Z</time>
      </trkpt>
      <trkpt lat="45.84695" lon="3.52097">
        <ele>300.9</ele>
        <time>2026-05-10T07:07:41.000Z</time>
      </trkpt>
      <trkpt lat="45.84694" lon="3.52096">
        <ele>301</ele>
        <time>2026-05-10T07:07:42.000Z</time>
      </trkpt>
      <trkpt lat="45.84693" lon="3.52096">
        <ele>301</ele>
        <time>2026-05-10T07:07:43.000Z</time>
      </trkpt>
      <trkpt lat="45.84692" lon="3.52095">
        <ele>301</ele>
        <time>2026-05-10T07:07:44.000Z</time>
      </trkpt>
      <trkpt lat="45.84691" lon="3.52094">
        <ele>301</ele>
        <time>2026-05-10T07:07:45.000Z</time>
      </trkpt>
      <trkpt lat="45.8469" lon="3.52094">
        <ele>301</ele>
        <time>2026-05-10T07:07:46.000Z</time>
      </trkpt>
      <trkpt lat="45.84689" lon="3.52094">
        <ele>301</ele>
        <time>2026-05-10T07:07:47.000Z</time>
      </trkpt>
      <trkpt lat="45.84687" lon="3.52094">
        <ele>301</ele>
        <time>2026-05-10T07:07:48.000Z</time>
      </trkpt>
      <trkpt lat="45.84686" lon="3.52094">
        <ele>301</ele>
        <time>2026-05-10T07:07:49.000Z</time>
      </trkpt>
      <trkpt lat="45.84685" lon="3.52094">
        <ele>301</ele>
        <time>2026-05-10T07:07:50.000Z</time>
      </trkpt>
      <trkpt lat="45.84684" lon="3.52094">
        <ele>301</ele>
        <time>2026-05-10T07:07:51.000Z</time>
      </trkpt>
      <trkpt lat="45.84683" lon="3.52094">
        <ele>301</ele>
        <time>2026-05-10T07:07:52.000Z</time>
      </trkpt>
      <trkpt lat="45.84682" lon="3.52094">
        <ele>301</ele>
        <time>2026-05-10T07:07:53.000Z</time>
      </trkpt>
      <trkpt lat="45.84681" lon="3.52095">
        <ele>301</ele>
        <time>2026-05-10T07:07:54.000Z</time>
      </trkpt>
      <trkpt lat="45.84679" lon="3.52095">
        <ele>301</ele>
        <time>2026-05-10T07:07:55.000Z</time>
      </trkpt>
      <trkpt lat="45.84678" lon="3.52096">
        <ele>301</ele>
        <time>2026-05-10T07:07:56.000Z</time>
      </trkpt>
      <trkpt lat="45.84677" lon="3.52097">
        <ele>301</ele>
        <time>2026-05-10T07:07:57.000Z</time>
      </trkpt>
      <trkpt lat="45.84676" lon="3.52097">
        <ele>301</ele>
        <time>2026-05-10T07:07:58.000Z</time>
      </trkpt>
      <trkpt lat="45.84674" lon="3.52098">
        <ele>301</ele>
        <time>2026-05-10T07:07:59.000Z</time>
      </trkpt>
      <trkpt lat="45.84673" lon="3.52098">
        <ele>301</ele>
        <time>2026-05-10T07:08:00.000Z</time>
      </trkpt>
      <trkpt lat="45.84672" lon="3.52099">
        <ele>301</ele>
        <time>2026-05-10T07:08:01.000Z</time>
      </trkpt>
      <trkpt lat="45.84671" lon="3.52099">
        <ele>301</ele>
        <time>2026-05-10T07:08:02.000Z</time>
      </trkpt>
      <trkpt lat="45.8467" lon="3.521">
        <ele>301</ele>
        <time>2026-05-10T07:08:03.000Z</time>
      </trkpt>
      <trkpt lat="45.84669" lon="3.521">
        <ele>301</ele>
        <time>2026-05-10T07:08:04.000Z</time>
      </trkpt>
      <trkpt lat="45.84668" lon="3.52101">
        <ele>301</ele>
        <time>2026-05-10T07:08:05.000Z</time>
      </trkpt>
      <trkpt lat="45.84667" lon="3.52101">
        <ele>301</ele>
        <time>2026-05-10T07:08:06.000Z</time>
      </trkpt>
      <trkpt lat="45.84665" lon="3.52102">
        <ele>301</ele>
        <time>2026-05-10T07:08:07.000Z</time>
      </trkpt>
      <trkpt lat="45.84664" lon="3.52102">
        <ele>301</ele>
        <time>2026-05-10T07:08:08.000Z</time>
      </trkpt>
      <trkpt lat="45.84663" lon="3.52103">
        <ele>301</ele>
        <time>2026-05-10T07:08:09.000Z</time>
      </trkpt>
      <trkpt lat="45.84662" lon="3.52103">
        <ele>301</ele>
        <time>2026-05-10T07:08:10.000Z</time>
      </trkpt>
      <trkpt lat="45.84661" lon="3.52104">
        <ele>301</ele>
        <time>2026-05-10T07:08:11.000Z</time>
      </trkpt>
      <trkpt lat="45.8466" lon="3.52104">
        <ele>301</ele>
        <time>2026-05-10T07:08:12.000Z</time>
      </trkpt>
      <trkpt lat="45.84659" lon="3.52105">
        <ele>301</ele>
        <time>2026-05-10T07:08:13.000Z</time>
      </trkpt>
      <trkpt lat="45.84657" lon="3.52106">
        <ele>301</ele>
        <time>2026-05-10T07:08:14.000Z</time>
      </trkpt>
      <trkpt lat="45.84656" lon="3.52106">
        <ele>301</ele>
        <time>2026-05-10T07:08:15.000Z</time>
      </trkpt>
      <trkpt lat="45.84655" lon="3.52107">
        <ele>301</ele>
        <time>2026-05-10T07:08:16.000Z</time>
      </trkpt>
      <trkpt lat="45.84654" lon="3.52107">
        <ele>301</ele>
        <time>2026-05-10T07:08:17.000Z</time>
      </trkpt>
      <trkpt lat="45.84652" lon="3.52108">
        <ele>301</ele>
        <time>2026-05-10T07:08:18.000Z</time>
      </trkpt>
      <trkpt lat="45.84651" lon="3.52108">
        <ele>301</ele>
        <time>2026-05-10T07:08:19.000Z</time>
      </trkpt>
      <trkpt lat="45.8465" lon="3.52109">
        <ele>301</ele>
        <time>2026-05-10T07:08:20.000Z</time>
      </trkpt>
      <trkpt lat="45.84649" lon="3.5211">
        <ele>301</ele>
        <time>2026-05-10T07:08:21.000Z</time>
      </trkpt>
      <trkpt lat="45.84648" lon="3.5211">
        <ele>301</ele>
        <time>2026-05-10T07:08:22.000Z</time>
      </trkpt>
      <trkpt lat="45.84646" lon="3.52111">
        <ele>301</ele>
        <time>2026-05-10T07:08:23.000Z</time>
      </trkpt>
      <trkpt lat="45.84645" lon="3.52111">
        <ele>301</ele>
        <time>2026-05-10T07:08:24.000Z</time>
      </trkpt>
      <trkpt lat="45.84644" lon="3.52112">
        <ele>301</ele>
        <time>2026-05-10T07:08:25.000Z</time>
      </trkpt>
      <trkpt lat="45.84643" lon="3.52112">
        <ele>301</ele>
        <time>2026-05-10T07:08:26.000Z</time>
      </trkpt>
      <trkpt lat="45.84642" lon="3.52113">
        <ele>301</ele>
        <time>2026-05-10T07:08:27.000Z</time>
      </trkpt>
      <trkpt lat="45.84641" lon="3.52113">
        <ele>301</ele>
        <time>2026-05-10T07:08:28.000Z</time>
      </trkpt>
      <trkpt lat="45.84639" lon="3.52114">
        <ele>301</ele>
        <time>2026-05-10T07:08:29.000Z</time>
      </trkpt>
      <trkpt lat="45.84638" lon="3.52114">
        <ele>301</ele>
        <time>2026-05-10T07:08:30.000Z</time>
      </trkpt>
      <trkpt lat="45.84637" lon="3.52115">
        <ele>301</ele>
        <time>2026-05-10T07:08:31.000Z</time>
      </trkpt>
      <trkpt lat="45.84636" lon="3.52115">
        <ele>301</ele>
        <time>2026-05-10T07:08:32.000Z</time>
      </trkpt>
      <trkpt lat="45.84635" lon="3.52116">
        <ele>301</ele>
        <time>2026-05-10T07:08:33.000Z</time>
      </trkpt>
      <trkpt lat="45.84634" lon="3.52116">
        <ele>301</ele>
        <time>2026-05-10T07:08:34.000Z</time>
      </trkpt>
      <trkpt lat="45.84633" lon="3.52117">
        <ele>301</ele>
        <time>2026-05-10T07:08:35.000Z</time>
      </trkpt>
      <trkpt lat="45.84632" lon="3.52117">
        <ele>301</ele>
        <time>2026-05-10T07:08:36.000Z</time>
      </trkpt>
      <trkpt lat="45.84631" lon="3.52118">
        <ele>301</ele>
        <time>2026-05-10T07:08:37.000Z</time>
      </trkpt>
      <trkpt lat="45.8463" lon="3.52119">
        <ele>301</ele>
        <time>2026-05-10T07:08:38.000Z</time>
      </trkpt>
      <trkpt lat="45.84629" lon="3.52119">
        <ele>301</ele>
        <time>2026-05-10T07:08:39.000Z</time>
      </trkpt>
      <trkpt lat="45.84627" lon="3.5212">
        <ele>301</ele>
        <time>2026-05-10T07:08:40.000Z</time>
      </trkpt>
      <trkpt lat="45.84626" lon="3.52121">
        <ele>301</ele>
        <time>2026-05-10T07:08:41.000Z</time>
      </trkpt>
      <trkpt lat="45.84625" lon="3.52121">
        <ele>301</ele>
        <time>2026-05-10T07:08:42.000Z</time>
      </trkpt>
      <trkpt lat="45.84624" lon="3.52122">
        <ele>301</ele>
        <time>2026-05-10T07:08:43.000Z</time>
      </trkpt>
      <trkpt lat="45.84622" lon="3.52122">
        <ele>301</ele>
        <time>2026-05-10T07:08:44.000Z</time>
      </trkpt>
      <trkpt lat="45.84621" lon="3.52123">
        <ele>301</ele>
        <time>2026-05-10T07:08:45.000Z</time>
      </trkpt>
      <trkpt lat="45.8462" lon="3.52124">
        <ele>301</ele>
        <time>2026-05-10T07:08:46.000Z</time>
      </trkpt>
      <trkpt lat="45.84619" lon="3.52124">
        <ele>301</ele>
        <time>2026-05-10T07:08:47.000Z</time>
      </trkpt>
      <trkpt lat="45.84618" lon="3.52125">
        <ele>301</ele>
        <time>2026-05-10T07:08:48.000Z</time>
      </trkpt>
      <trkpt lat="45.84617" lon="3.52126">
        <ele>301</ele>
        <time>2026-05-10T07:08:49.000Z</time>
      </trkpt>
      <trkpt lat="45.84615" lon="3.52127">
        <ele>301</ele>
        <time>2026-05-10T07:08:50.000Z</time>
      </trkpt>
      <trkpt lat="45.84614" lon="3.52127">
        <ele>301</ele>
        <time>2026-05-10T07:08:51.000Z</time>
      </trkpt>
      <trkpt lat="45.84613" lon="3.52128">
        <ele>301</ele>
        <time>2026-05-10T07:08:52.000Z</time>
      </trkpt>
      <trkpt lat="45.84612" lon="3.52128">
        <ele>301</ele>
        <time>2026-05-10T07:08:53.000Z</time>
      </trkpt>
      <trkpt lat="45.84611" lon="3.52129">
        <ele>301</ele>
        <time>2026-05-10T07:08:54.000Z</time>
      </trkpt>
      <trkpt lat="45.8461" lon="3.5213">
        <ele>301</ele>
        <time>2026-05-10T07:08:55.000Z</time>
      </trkpt>
      <trkpt lat="45.84609" lon="3.5213">
        <ele>301</ele>
        <time>2026-05-10T07:08:56.000Z</time>
      </trkpt>
      <trkpt lat="45.84608" lon="3.52131">
        <ele>301</ele>
        <time>2026-05-10T07:08:57.000Z</time>
      </trkpt>
      <trkpt lat="45.84607" lon="3.52132">
        <ele>301</ele>
        <time>2026-05-10T07:08:58.000Z</time>
      </trkpt>
      <trkpt lat="45.84606" lon="3.52132">
        <ele>301</ele>
        <time>2026-05-10T07:08:59.000Z</time>
      </trkpt>
      <trkpt lat="45.84605" lon="3.52133">
        <ele>301</ele>
        <time>2026-05-10T07:09:00.000Z</time>
      </trkpt>
      <trkpt lat="45.84604" lon="3.52133">
        <ele>301</ele>
        <time>2026-05-10T07:09:01.000Z</time>
      </trkpt>
      <trkpt lat="45.84602" lon="3.52134">
        <ele>301</ele>
        <time>2026-05-10T07:09:02.000Z</time>
      </trkpt>
      <trkpt lat="45.84601" lon="3.52135">
        <ele>301</ele>
        <time>2026-05-10T07:09:03.000Z</time>
      </trkpt>
      <trkpt lat="45.846" lon="3.52135">
        <ele>301</ele>
        <time>2026-05-10T07:09:04.000Z</time>
      </trkpt>
      <trkpt lat="45.84599" lon="3.52136">
        <ele>301</ele>
        <time>2026-05-10T07:09:05.000Z</time>
      </trkpt>
      <trkpt lat="45.84598" lon="3.52137">
        <ele>301</ele>
        <time>2026-05-10T07:09:06.000Z</time>
      </trkpt>
      <trkpt lat="45.84597" lon="3.52137">
        <ele>301</ele>
        <time>2026-05-10T07:09:07.000Z</time>
      </trkpt>
      <trkpt lat="45.84596" lon="3.52138">
        <ele>301</ele>
        <time>2026-05-10T07:09:08.000Z</time>
      </trkpt>
      <trkpt lat="45.84595" lon="3.52139">
        <ele>301</ele>
        <time>2026-05-10T07:09:09.000Z</time>
      </trkpt>
      <trkpt lat="45.84594" lon="3.52139">
        <ele>301</ele>
        <time>2026-05-10T07:09:10.000Z</time>
      </trkpt>
      <trkpt lat="45.84593" lon="3.5214">
        <ele>301</ele>
        <time>2026-05-10T07:09:11.000Z</time>
      </trkpt>
      <trkpt lat="45.84592" lon="3.52141">
        <ele>301</ele>
        <time>2026-05-10T07:09:12.000Z</time>
      </trkpt>
      <trkpt lat="45.84591" lon="3.52142">
        <ele>301</ele>
        <time>2026-05-10T07:09:13.000Z</time>
      </trkpt>
      <trkpt lat="45.8459" lon="3.52143">
        <ele>301</ele>
        <time>2026-05-10T07:09:14.000Z</time>
      </trkpt>
      <trkpt lat="45.84589" lon="3.52144">
        <ele>301</ele>
        <time>2026-05-10T07:09:15.000Z</time>
      </trkpt>
      <trkpt lat="45.84588" lon="3.52145">
        <ele>301</ele>
        <time>2026-05-10T07:09:16.000Z</time>
      </trkpt>
      <trkpt lat="45.84587" lon="3.52146">
        <ele>301</ele>
        <time>2026-05-10T07:09:17.000Z</time>
      </trkpt>
      <trkpt lat="45.84586" lon="3.52146">
        <ele>301</ele>
        <time>2026-05-10T07:09:18.000Z</time>
      </trkpt>
      <trkpt lat="45.84585" lon="3.52147">
        <ele>301</ele>
        <time>2026-05-10T07:09:19.000Z</time>
      </trkpt>
      <trkpt lat="45.84584" lon="3.52148">
        <ele>301</ele>
        <time>2026-05-10T07:09:20.000Z</time>
      </trkpt>
      <trkpt lat="45.84583" lon="3.52148">
        <ele>301</ele>
        <time>2026-05-10T07:09:21.000Z</time>
      </trkpt>
      <trkpt lat="45.84581" lon="3.52149">
        <ele>301</ele>
        <time>2026-05-10T07:09:22.000Z</time>
      </trkpt>
      <trkpt lat="45.8458" lon="3.5215">
        <ele>301</ele>
        <time>2026-05-10T07:09:23.000Z</time>
      </trkpt>
      <trkpt lat="45.84579" lon="3.5215">
        <ele>301.1</ele>
        <time>2026-05-10T07:09:24.000Z</time>
      </trkpt>
      <trkpt lat="45.84578" lon="3.52151">
        <ele>301.1</ele>
        <time>2026-05-10T07:09:25.000Z</time>
      </trkpt>
      <trkpt lat="45.84577" lon="3.52151">
        <ele>301.1</ele>
        <time>2026-05-10T07:09:26.000Z</time>
      </trkpt>
      <trkpt lat="45.84576" lon="3.52151">
        <ele>301.1</ele>
        <time>2026-05-10T07:09:27.000Z</time>
      </trkpt>
      <trkpt lat="45.84575" lon="3.52151">
        <ele>301.1</ele>
        <time>2026-05-10T07:09:28.000Z</time>
      </trkpt>
      <trkpt lat="45.84574" lon="3.52152">
        <ele>301.2</ele>
        <time>2026-05-10T07:09:29.000Z</time>
      </trkpt>
      <trkpt lat="45.84573" lon="3.52153">
        <ele>301.2</ele>
        <time>2026-05-10T07:09:30.000Z</time>
      </trkpt>
      <trkpt lat="45.84572" lon="3.52153">
        <ele>301.2</ele>
        <time>2026-05-10T07:09:31.000Z</time>
      </trkpt>
      <trkpt lat="45.84571" lon="3.52153">
        <ele>301.2</ele>
        <time>2026-05-10T07:09:32.000Z</time>
      </trkpt>
      <trkpt lat="45.8457" lon="3.52153">
        <ele>301.2</ele>
        <time>2026-05-10T07:09:33.000Z</time>
      </trkpt>
      <trkpt lat="45.84569" lon="3.52153">
        <ele>301.3</ele>
        <time>2026-05-10T07:09:34.000Z</time>
      </trkpt>
      <trkpt lat="45.84568" lon="3.52153">
        <ele>301.3</ele>
        <time>2026-05-10T07:09:35.000Z</time>
      </trkpt>
      <trkpt lat="45.84567" lon="3.52153">
        <ele>301.3</ele>
        <time>2026-05-10T07:09:36.000Z</time>
      </trkpt>
      <trkpt lat="45.84566" lon="3.52154">
        <ele>301.3</ele>
        <time>2026-05-10T07:09:37.000Z</time>
      </trkpt>
      <trkpt lat="45.84565" lon="3.52155">
        <ele>301.4</ele>
        <time>2026-05-10T07:09:38.000Z</time>
      </trkpt>
      <trkpt lat="45.84564" lon="3.52155">
        <ele>301.4</ele>
        <time>2026-05-10T07:09:39.000Z</time>
      </trkpt>
      <trkpt lat="45.84562" lon="3.52156">
        <ele>301.5</ele>
        <time>2026-05-10T07:09:40.000Z</time>
      </trkpt>
      <trkpt lat="45.84561" lon="3.52157">
        <ele>301.5</ele>
        <time>2026-05-10T07:09:41.000Z</time>
      </trkpt>
      <trkpt lat="45.8456" lon="3.52158">
        <ele>301.6</ele>
        <time>2026-05-10T07:09:42.000Z</time>
      </trkpt>
      <trkpt lat="45.84559" lon="3.5216">
        <ele>301.7</ele>
        <time>2026-05-10T07:09:43.000Z</time>
      </trkpt>
      <trkpt lat="45.84558" lon="3.52161">
        <ele>301.7</ele>
        <time>2026-05-10T07:09:44.000Z</time>
      </trkpt>
      <trkpt lat="45.84556" lon="3.52162">
        <ele>301.8</ele>
        <time>2026-05-10T07:09:45.000Z</time>
      </trkpt>
      <trkpt lat="45.84555" lon="3.52163">
        <ele>301.9</ele>
        <time>2026-05-10T07:09:46.000Z</time>
      </trkpt>
      <trkpt lat="45.84554" lon="3.52164">
        <ele>301.9</ele>
        <time>2026-05-10T07:09:47.000Z</time>
      </trkpt>
      <trkpt lat="45.84553" lon="3.52165">
        <ele>301.9</ele>
        <time>2026-05-10T07:09:48.000Z</time>
      </trkpt>
      <trkpt lat="45.84552" lon="3.52166">
        <ele>302</ele>
        <time>2026-05-10T07:09:49.000Z</time>
      </trkpt>
      <trkpt lat="45.84551" lon="3.52167">
        <ele>302</ele>
        <time>2026-05-10T07:09:50.000Z</time>
      </trkpt>
      <trkpt lat="45.8455" lon="3.52168">
        <ele>302</ele>
        <time>2026-05-10T07:09:51.000Z</time>
      </trkpt>
      <trkpt lat="45.84549" lon="3.52169">
        <ele>302</ele>
        <time>2026-05-10T07:09:52.000Z</time>
      </trkpt>
      <trkpt lat="45.84548" lon="3.5217">
        <ele>302</ele>
        <time>2026-05-10T07:09:53.000Z</time>
      </trkpt>
      <trkpt lat="45.84547" lon="3.52171">
        <ele>302</ele>
        <time>2026-05-10T07:09:54.000Z</time>
      </trkpt>
      <trkpt lat="45.84546" lon="3.52172">
        <ele>302</ele>
        <time>2026-05-10T07:09:55.000Z</time>
      </trkpt>
      <trkpt lat="45.84545" lon="3.52174">
        <ele>302</ele>
        <time>2026-05-10T07:09:56.000Z</time>
      </trkpt>
      <trkpt lat="45.84544" lon="3.52175">
        <ele>302</ele>
        <time>2026-05-10T07:09:57.000Z</time>
      </trkpt>
      <trkpt lat="45.84543" lon="3.52176">
        <ele>302</ele>
        <time>2026-05-10T07:09:58.000Z</time>
      </trkpt>
      <trkpt lat="45.84542" lon="3.52176">
        <ele>302</ele>
        <time>2026-05-10T07:09:59.000Z</time>
      </trkpt>
      <trkpt lat="45.84541" lon="3.52177">
        <ele>302</ele>
        <time>2026-05-10T07:10:00.000Z</time>
      </trkpt>
      <trkpt lat="45.8454" lon="3.52178">
        <ele>302</ele>
        <time>2026-05-10T07:10:01.000Z</time>
      </trkpt>
      <trkpt lat="45.84539" lon="3.52179">
        <ele>302</ele>
        <time>2026-05-10T07:10:02.000Z</time>
      </trkpt>
      <trkpt lat="45.84538" lon="3.5218">
        <ele>302</ele>
        <time>2026-05-10T07:10:03.000Z</time>
      </trkpt>
      <trkpt lat="45.84537" lon="3.52181">
        <ele>302</ele>
        <time>2026-05-10T07:10:04.000Z</time>
      </trkpt>
      <trkpt lat="45.84536" lon="3.52182">
        <ele>302</ele>
        <time>2026-05-10T07:10:05.000Z</time>
      </trkpt>
      <trkpt lat="45.84534" lon="3.52182">
        <ele>302</ele>
        <time>2026-05-10T07:10:06.000Z</time>
      </trkpt>
      <trkpt lat="45.84533" lon="3.52183">
        <ele>302</ele>
        <time>2026-05-10T07:10:07.000Z</time>
      </trkpt>
      <trkpt lat="45.84532" lon="3.52184">
        <ele>302</ele>
        <time>2026-05-10T07:10:08.000Z</time>
      </trkpt>
      <trkpt lat="45.84531" lon="3.52185">
        <ele>302</ele>
        <time>2026-05-10T07:10:09.000Z</time>
      </trkpt>
      <trkpt lat="45.8453" lon="3.52186">
        <ele>302</ele>
        <time>2026-05-10T07:10:10.000Z</time>
      </trkpt>
      <trkpt lat="45.8453" lon="3.52186">
        <ele>302</ele>
        <time>2026-05-10T07:10:11.000Z</time>
      </trkpt>
      <trkpt lat="45.84529" lon="3.52187">
        <ele>302</ele>
        <time>2026-05-10T07:10:12.000Z</time>
      </trkpt>
      <trkpt lat="45.84528" lon="3.52188">
        <ele>302</ele>
        <time>2026-05-10T07:10:13.000Z</time>
      </trkpt>
      <trkpt lat="45.84527" lon="3.52189">
        <ele>302</ele>
        <time>2026-05-10T07:10:14.000Z</time>
      </trkpt>
      <trkpt lat="45.84526" lon="3.5219">
        <ele>302</ele>
        <time>2026-05-10T07:10:15.000Z</time>
      </trkpt>
      <trkpt lat="45.84524" lon="3.52191">
        <ele>302</ele>
        <time>2026-05-10T07:10:16.000Z</time>
      </trkpt>
      <trkpt lat="45.84523" lon="3.52192">
        <ele>302</ele>
        <time>2026-05-10T07:10:17.000Z</time>
      </trkpt>
      <trkpt lat="45.84522" lon="3.52193">
        <ele>302</ele>
        <time>2026-05-10T07:10:18.000Z</time>
      </trkpt>
      <trkpt lat="45.84521" lon="3.52194">
        <ele>302</ele>
        <time>2026-05-10T07:10:19.000Z</time>
      </trkpt>
      <trkpt lat="45.84521" lon="3.52195">
        <ele>302</ele>
        <time>2026-05-10T07:10:20.000Z</time>
      </trkpt>
      <trkpt lat="45.8452" lon="3.52196">
        <ele>302</ele>
        <time>2026-05-10T07:10:21.000Z</time>
      </trkpt>
      <trkpt lat="45.84518" lon="3.52197">
        <ele>302</ele>
        <time>2026-05-10T07:10:22.000Z</time>
      </trkpt>
      <trkpt lat="45.84517" lon="3.52198">
        <ele>302</ele>
        <time>2026-05-10T07:10:23.000Z</time>
      </trkpt>
      <trkpt lat="45.84516" lon="3.52199">
        <ele>302</ele>
        <time>2026-05-10T07:10:24.000Z</time>
      </trkpt>
      <trkpt lat="45.84516" lon="3.522">
        <ele>302</ele>
        <time>2026-05-10T07:10:25.000Z</time>
      </trkpt>
      <trkpt lat="45.84515" lon="3.52201">
        <ele>302</ele>
        <time>2026-05-10T07:10:26.000Z</time>
      </trkpt>
      <trkpt lat="45.84514" lon="3.52202">
        <ele>302</ele>
        <time>2026-05-10T07:10:27.000Z</time>
      </trkpt>
      <trkpt lat="45.84513" lon="3.52204">
        <ele>302</ele>
        <time>2026-05-10T07:10:28.000Z</time>
      </trkpt>
      <trkpt lat="45.84513" lon="3.52205">
        <ele>302</ele>
        <time>2026-05-10T07:10:29.000Z</time>
      </trkpt>
      <trkpt lat="45.84513" lon="3.52207">
        <ele>302</ele>
        <time>2026-05-10T07:10:30.000Z</time>
      </trkpt>
      <trkpt lat="45.84513" lon="3.52209">
        <ele>302</ele>
        <time>2026-05-10T07:10:31.000Z</time>
      </trkpt>
      <trkpt lat="45.84514" lon="3.52211">
        <ele>302</ele>
        <time>2026-05-10T07:10:32.000Z</time>
      </trkpt>
      <trkpt lat="45.84514" lon="3.52212">
        <ele>302</ele>
        <time>2026-05-10T07:10:33.000Z</time>
      </trkpt>
      <trkpt lat="45.84515" lon="3.52214">
        <ele>302</ele>
        <time>2026-05-10T07:10:34.000Z</time>
      </trkpt>
      <trkpt lat="45.84515" lon="3.52215">
        <ele>302</ele>
        <time>2026-05-10T07:10:35.000Z</time>
      </trkpt>
      <trkpt lat="45.84515" lon="3.52217">
        <ele>302</ele>
        <time>2026-05-10T07:10:36.000Z</time>
      </trkpt>
      <trkpt lat="45.84516" lon="3.52218">
        <ele>302</ele>
        <time>2026-05-10T07:10:37.000Z</time>
      </trkpt>
      <trkpt lat="45.84516" lon="3.5222">
        <ele>302</ele>
        <time>2026-05-10T07:10:38.000Z</time>
      </trkpt>
      <trkpt lat="45.84517" lon="3.52221">
        <ele>302</ele>
        <time>2026-05-10T07:10:39.000Z</time>
      </trkpt>
      <trkpt lat="45.84517" lon="3.52222">
        <ele>302</ele>
        <time>2026-05-10T07:10:40.000Z</time>
      </trkpt>
      <trkpt lat="45.84518" lon="3.52224">
        <ele>302</ele>
        <time>2026-05-10T07:10:41.000Z</time>
      </trkpt>
      <trkpt lat="45.84519" lon="3.52226">
        <ele>302</ele>
        <time>2026-05-10T07:10:42.000Z</time>
      </trkpt>
      <trkpt lat="45.84519" lon="3.52227">
        <ele>302.1</ele>
        <time>2026-05-10T07:10:43.000Z</time>
      </trkpt>
      <trkpt lat="45.8452" lon="3.52229">
        <ele>302.1</ele>
        <time>2026-05-10T07:10:44.000Z</time>
      </trkpt>
      <trkpt lat="45.84521" lon="3.5223">
        <ele>302.1</ele>
        <time>2026-05-10T07:10:45.000Z</time>
      </trkpt>
      <trkpt lat="45.84522" lon="3.52231">
        <ele>302.1</ele>
        <time>2026-05-10T07:10:46.000Z</time>
      </trkpt>
      <trkpt lat="45.84522" lon="3.52233">
        <ele>302.1</ele>
        <time>2026-05-10T07:10:47.000Z</time>
      </trkpt>
      <trkpt lat="45.84523" lon="3.52235">
        <ele>302.1</ele>
        <time>2026-05-10T07:10:48.000Z</time>
      </trkpt>
      <trkpt lat="45.84523" lon="3.52236">
        <ele>302.1</ele>
        <time>2026-05-10T07:10:49.000Z</time>
      </trkpt>
      <trkpt lat="45.84524" lon="3.52238">
        <ele>302.1</ele>
        <time>2026-05-10T07:10:50.000Z</time>
      </trkpt>
      <trkpt lat="45.84524" lon="3.52239">
        <ele>302.1</ele>
        <time>2026-05-10T07:10:51.000Z</time>
      </trkpt>
      <trkpt lat="45.84525" lon="3.52241">
        <ele>302.1</ele>
        <time>2026-05-10T07:10:52.000Z</time>
      </trkpt>
      <trkpt lat="45.84525" lon="3.52242">
        <ele>302.1</ele>
        <time>2026-05-10T07:10:53.000Z</time>
      </trkpt>
      <trkpt lat="45.84526" lon="3.52244">
        <ele>302.1</ele>
        <time>2026-05-10T07:10:54.000Z</time>
      </trkpt>
      <trkpt lat="45.84526" lon="3.52245">
        <ele>302.1</ele>
        <time>2026-05-10T07:10:55.000Z</time>
      </trkpt>
      <trkpt lat="45.84526" lon="3.52246">
        <ele>302</ele>
        <time>2026-05-10T07:10:56.000Z</time>
      </trkpt>
      <trkpt lat="45.84527" lon="3.52247">
        <ele>302</ele>
        <time>2026-05-10T07:10:57.000Z</time>
      </trkpt>
      <trkpt lat="45.84527" lon="3.52249">
        <ele>302</ele>
        <time>2026-05-10T07:10:58.000Z</time>
      </trkpt>
      <trkpt lat="45.84528" lon="3.52251">
        <ele>302</ele>
        <time>2026-05-10T07:10:59.000Z</time>
      </trkpt>
      <trkpt lat="45.84529" lon="3.52252">
        <ele>302.1</ele>
        <time>2026-05-10T07:11:00.000Z</time>
      </trkpt>
      <trkpt lat="45.84529" lon="3.52254">
        <ele>302.1</ele>
        <time>2026-05-10T07:11:01.000Z</time>
      </trkpt>
      <trkpt lat="45.8453" lon="3.52255">
        <ele>302.2</ele>
        <time>2026-05-10T07:11:02.000Z</time>
      </trkpt>
      <trkpt lat="45.8453" lon="3.52257">
        <ele>302.2</ele>
        <time>2026-05-10T07:11:03.000Z</time>
      </trkpt>
      <trkpt lat="45.8453" lon="3.52259">
        <ele>302.3</ele>
        <time>2026-05-10T07:11:04.000Z</time>
      </trkpt>
      <trkpt lat="45.84531" lon="3.5226">
        <ele>302.4</ele>
        <time>2026-05-10T07:11:05.000Z</time>
      </trkpt>
      <trkpt lat="45.84531" lon="3.52262">
        <ele>302.4</ele>
        <time>2026-05-10T07:11:06.000Z</time>
      </trkpt>
      <trkpt lat="45.84532" lon="3.52263">
        <ele>302.5</ele>
        <time>2026-05-10T07:11:07.000Z</time>
      </trkpt>
      <trkpt lat="45.84532" lon="3.52265">
        <ele>302.5</ele>
        <time>2026-05-10T07:11:08.000Z</time>
      </trkpt>
      <trkpt lat="45.84533" lon="3.52266">
        <ele>302.6</ele>
        <time>2026-05-10T07:11:09.000Z</time>
      </trkpt>
      <trkpt lat="45.84533" lon="3.52267">
        <ele>302.6</ele>
        <time>2026-05-10T07:11:10.000Z</time>
      </trkpt>
      <trkpt lat="45.84533" lon="3.52269">
        <ele>302.7</ele>
        <time>2026-05-10T07:11:11.000Z</time>
      </trkpt>
      <trkpt lat="45.84534" lon="3.5227">
        <ele>302.7</ele>
        <time>2026-05-10T07:11:12.000Z</time>
      </trkpt>
      <trkpt lat="45.84534" lon="3.52271">
        <ele>302.8</ele>
        <time>2026-05-10T07:11:13.000Z</time>
      </trkpt>
      <trkpt lat="45.84535" lon="3.52272">
        <ele>302.8</ele>
        <time>2026-05-10T07:11:14.000Z</time>
      </trkpt>
      <trkpt lat="45.84536" lon="3.52274">
        <ele>302.8</ele>
        <time>2026-05-10T07:11:15.000Z</time>
      </trkpt>
      <trkpt lat="45.84536" lon="3.52275">
        <ele>302.9</ele>
        <time>2026-05-10T07:11:16.000Z</time>
      </trkpt>
      <trkpt lat="45.84537" lon="3.52277">
        <ele>303</ele>
        <time>2026-05-10T07:11:17.000Z</time>
      </trkpt>
      <trkpt lat="45.84538" lon="3.52279">
        <ele>303</ele>
        <time>2026-05-10T07:11:18.000Z</time>
      </trkpt>
      <trkpt lat="45.84539" lon="3.52281">
        <ele>303</ele>
        <time>2026-05-10T07:11:19.000Z</time>
      </trkpt>
      <trkpt lat="45.84539" lon="3.52282">
        <ele>303</ele>
        <time>2026-05-10T07:11:20.000Z</time>
      </trkpt>
      <trkpt lat="45.8454" lon="3.52283">
        <ele>303</ele>
        <time>2026-05-10T07:11:21.000Z</time>
      </trkpt>
      <trkpt lat="45.8454" lon="3.52285">
        <ele>303</ele>
        <time>2026-05-10T07:11:22.000Z</time>
      </trkpt>
      <trkpt lat="45.8454" lon="3.52287">
        <ele>303</ele>
        <time>2026-05-10T07:11:23.000Z</time>
      </trkpt>
      <trkpt lat="45.84541" lon="3.52289">
        <ele>303</ele>
        <time>2026-05-10T07:11:24.000Z</time>
      </trkpt>
      <trkpt lat="45.84541" lon="3.5229">
        <ele>303</ele>
        <time>2026-05-10T07:11:25.000Z</time>
      </trkpt>
      <trkpt lat="45.84542" lon="3.52292">
        <ele>303</ele>
        <time>2026-05-10T07:11:26.000Z</time>
      </trkpt>
      <trkpt lat="45.84542" lon="3.52293">
        <ele>303</ele>
        <time>2026-05-10T07:11:27.000Z</time>
      </trkpt>
      <trkpt lat="45.84542" lon="3.52295">
        <ele>303</ele>
        <time>2026-05-10T07:11:28.000Z</time>
      </trkpt>
      <trkpt lat="45.84542" lon="3.52296">
        <ele>303</ele>
        <time>2026-05-10T07:11:29.000Z</time>
      </trkpt>
      <trkpt lat="45.84543" lon="3.52297">
        <ele>303</ele>
        <time>2026-05-10T07:11:30.000Z</time>
      </trkpt>
      <trkpt lat="45.84544" lon="3.52299">
        <ele>303</ele>
        <time>2026-05-10T07:11:31.000Z</time>
      </trkpt>
      <trkpt lat="45.84544" lon="3.52301">
        <ele>303</ele>
        <time>2026-05-10T07:11:32.000Z</time>
      </trkpt>
      <trkpt lat="45.84545" lon="3.52302">
        <ele>303</ele>
        <time>2026-05-10T07:11:33.000Z</time>
      </trkpt>
      <trkpt lat="45.84545" lon="3.52303">
        <ele>303</ele>
        <time>2026-05-10T07:11:34.000Z</time>
      </trkpt>
      <trkpt lat="45.84545" lon="3.52305">
        <ele>303</ele>
        <time>2026-05-10T07:11:35.000Z</time>
      </trkpt>
      <trkpt lat="45.84546" lon="3.52306">
        <ele>303</ele>
        <time>2026-05-10T07:11:36.000Z</time>
      </trkpt>
      <trkpt lat="45.84546" lon="3.52307">
        <ele>303</ele>
        <time>2026-05-10T07:11:37.000Z</time>
      </trkpt>
      <trkpt lat="45.84547" lon="3.52309">
        <ele>303</ele>
        <time>2026-05-10T07:11:38.000Z</time>
      </trkpt>
      <trkpt lat="45.84547" lon="3.52311">
        <ele>303</ele>
        <time>2026-05-10T07:11:39.000Z</time>
      </trkpt>
      <trkpt lat="45.84548" lon="3.52312">
        <ele>303</ele>
        <time>2026-05-10T07:11:40.000Z</time>
      </trkpt>
      <trkpt lat="45.84548" lon="3.52314">
        <ele>303</ele>
        <time>2026-05-10T07:11:41.000Z</time>
      </trkpt>
      <trkpt lat="45.84549" lon="3.52316">
        <ele>303</ele>
        <time>2026-05-10T07:11:42.000Z</time>
      </trkpt>
      <trkpt lat="45.84549" lon="3.52318">
        <ele>303</ele>
        <time>2026-05-10T07:11:43.000Z</time>
      </trkpt>
      <trkpt lat="45.84549" lon="3.5232">
        <ele>303</ele>
        <time>2026-05-10T07:11:44.000Z</time>
      </trkpt>
      <trkpt lat="45.84549" lon="3.52321">
        <ele>303</ele>
        <time>2026-05-10T07:11:45.000Z</time>
      </trkpt>
      <trkpt lat="45.8455" lon="3.52323">
        <ele>303</ele>
        <time>2026-05-10T07:11:46.000Z</time>
      </trkpt>
      <trkpt lat="45.8455" lon="3.52325">
        <ele>303</ele>
        <time>2026-05-10T07:11:47.000Z</time>
      </trkpt>
      <trkpt lat="45.84551" lon="3.52326">
        <ele>303</ele>
        <time>2026-05-10T07:11:48.000Z</time>
      </trkpt>
      <trkpt lat="45.84551" lon="3.52327">
        <ele>303</ele>
        <time>2026-05-10T07:11:49.000Z</time>
      </trkpt>
      <trkpt lat="45.84552" lon="3.52329">
        <ele>303</ele>
        <time>2026-05-10T07:11:50.000Z</time>
      </trkpt>
      <trkpt lat="45.84553" lon="3.52331">
        <ele>303</ele>
        <time>2026-05-10T07:11:51.000Z</time>
      </trkpt>
      <trkpt lat="45.84553" lon="3.52333">
        <ele>303</ele>
        <time>2026-05-10T07:11:52.000Z</time>
      </trkpt>
      <trkpt lat="45.84554" lon="3.52334">
        <ele>303</ele>
        <time>2026-05-10T07:11:53.000Z</time>
      </trkpt>
      <trkpt lat="45.84554" lon="3.52336">
        <ele>303</ele>
        <time>2026-05-10T07:11:54.000Z</time>
      </trkpt>
      <trkpt lat="45.84555" lon="3.52338">
        <ele>303</ele>
        <time>2026-05-10T07:11:55.000Z</time>
      </trkpt>
      <trkpt lat="45.84555" lon="3.52339">
        <ele>303</ele>
        <time>2026-05-10T07:11:56.000Z</time>
      </trkpt>
      <trkpt lat="45.84555" lon="3.5234">
        <ele>303</ele>
        <time>2026-05-10T07:11:57.000Z</time>
      </trkpt>
      <trkpt lat="45.84555" lon="3.52341">
        <ele>303</ele>
        <time>2026-05-10T07:11:58.000Z</time>
      </trkpt>
      <trkpt lat="45.84556" lon="3.52343">
        <ele>303</ele>
        <time>2026-05-10T07:11:59.000Z</time>
      </trkpt>
      <trkpt lat="45.84556" lon="3.52344">
        <ele>303</ele>
        <time>2026-05-10T07:12:00.000Z</time>
      </trkpt>
      <trkpt lat="45.84556" lon="3.52345">
        <ele>303</ele>
        <time>2026-05-10T07:12:01.000Z</time>
      </trkpt>
      <trkpt lat="45.84557" lon="3.52347">
        <ele>303</ele>
        <time>2026-05-10T07:12:02.000Z</time>
      </trkpt>
      <trkpt lat="45.84557" lon="3.52348">
        <ele>303</ele>
        <time>2026-05-10T07:12:03.000Z</time>
      </trkpt>
      <trkpt lat="45.84558" lon="3.5235">
        <ele>303</ele>
        <time>2026-05-10T07:12:04.000Z</time>
      </trkpt>
      <trkpt lat="45.84559" lon="3.52352">
        <ele>303</ele>
        <time>2026-05-10T07:12:05.000Z</time>
      </trkpt>
      <trkpt lat="45.84559" lon="3.52353">
        <ele>303</ele>
        <time>2026-05-10T07:12:06.000Z</time>
      </trkpt>
      <trkpt lat="45.8456" lon="3.52354">
        <ele>303</ele>
        <time>2026-05-10T07:12:07.000Z</time>
      </trkpt>
      <trkpt lat="45.8456" lon="3.52356">
        <ele>303</ele>
        <time>2026-05-10T07:12:08.000Z</time>
      </trkpt>
      <trkpt lat="45.84561" lon="3.52357">
        <ele>303</ele>
        <time>2026-05-10T07:12:09.000Z</time>
      </trkpt>
      <trkpt lat="45.84562" lon="3.52359">
        <ele>303</ele>
        <time>2026-05-10T07:12:10.000Z</time>
      </trkpt>
      <trkpt lat="45.84562" lon="3.5236">
        <ele>303</ele>
        <time>2026-05-10T07:12:11.000Z</time>
      </trkpt>
      <trkpt lat="45.84563" lon="3.52362">
        <ele>303</ele>
        <time>2026-05-10T07:12:12.000Z</time>
      </trkpt>
      <trkpt lat="45.84564" lon="3.52363">
        <ele>303</ele>
        <time>2026-05-10T07:12:13.000Z</time>
      </trkpt>
      <trkpt lat="45.84564" lon="3.52365">
        <ele>303</ele>
        <time>2026-05-10T07:12:14.000Z</time>
      </trkpt>
      <trkpt lat="45.84565" lon="3.52366">
        <ele>303.1</ele>
        <time>2026-05-10T07:12:15.000Z</time>
      </trkpt>
      <trkpt lat="45.84565" lon="3.52368">
        <ele>303.1</ele>
        <time>2026-05-10T07:12:16.000Z</time>
      </trkpt>
      <trkpt lat="45.84566" lon="3.52369">
        <ele>303.1</ele>
        <time>2026-05-10T07:12:17.000Z</time>
      </trkpt>
      <trkpt lat="45.84566" lon="3.52371">
        <ele>303.1</ele>
        <time>2026-05-10T07:12:18.000Z</time>
      </trkpt>
      <trkpt lat="45.84566" lon="3.52373">
        <ele>303.2</ele>
        <time>2026-05-10T07:12:19.000Z</time>
      </trkpt>
      <trkpt lat="45.84567" lon="3.52374">
        <ele>303.2</ele>
        <time>2026-05-10T07:12:20.000Z</time>
      </trkpt>
      <trkpt lat="45.84567" lon="3.52376">
        <ele>303.2</ele>
        <time>2026-05-10T07:12:21.000Z</time>
      </trkpt>
      <trkpt lat="45.84568" lon="3.52378">
        <ele>303.3</ele>
        <time>2026-05-10T07:12:22.000Z</time>
      </trkpt>
      <trkpt lat="45.84568" lon="3.52379">
        <ele>303.3</ele>
        <time>2026-05-10T07:12:23.000Z</time>
      </trkpt>
      <trkpt lat="45.84569" lon="3.52381">
        <ele>303.4</ele>
        <time>2026-05-10T07:12:24.000Z</time>
      </trkpt>
      <trkpt lat="45.8457" lon="3.52383">
        <ele>303.4</ele>
        <time>2026-05-10T07:12:25.000Z</time>
      </trkpt>
      <trkpt lat="45.84571" lon="3.52385">
        <ele>303.5</ele>
        <time>2026-05-10T07:12:26.000Z</time>
      </trkpt>
      <trkpt lat="45.84572" lon="3.52387">
        <ele>303.6</ele>
        <time>2026-05-10T07:12:27.000Z</time>
      </trkpt>
      <trkpt lat="45.84573" lon="3.52388">
        <ele>303.6</ele>
        <time>2026-05-10T07:12:28.000Z</time>
      </trkpt>
      <trkpt lat="45.84573" lon="3.5239">
        <ele>303.6</ele>
        <time>2026-05-10T07:12:29.000Z</time>
      </trkpt>
      <trkpt lat="45.84574" lon="3.52391">
        <ele>303.6</ele>
        <time>2026-05-10T07:12:30.000Z</time>
      </trkpt>
      <trkpt lat="45.84574" lon="3.52393">
        <ele>303.6</ele>
        <time>2026-05-10T07:12:31.000Z</time>
      </trkpt>
      <trkpt lat="45.84575" lon="3.52394">
        <ele>303.6</ele>
        <time>2026-05-10T07:12:32.000Z</time>
      </trkpt>
      <trkpt lat="45.84575" lon="3.52396">
        <ele>303.6</ele>
        <time>2026-05-10T07:12:33.000Z</time>
      </trkpt>
      <trkpt lat="45.84576" lon="3.52398">
        <ele>303.6</ele>
        <time>2026-05-10T07:12:34.000Z</time>
      </trkpt>
      <trkpt lat="45.84576" lon="3.524">
        <ele>303.6</ele>
        <time>2026-05-10T07:12:35.000Z</time>
      </trkpt>
      <trkpt lat="45.84577" lon="3.52402">
        <ele>303.5</ele>
        <time>2026-05-10T07:12:36.000Z</time>
      </trkpt>
      <trkpt lat="45.84577" lon="3.52403">
        <ele>303.5</ele>
        <time>2026-05-10T07:12:37.000Z</time>
      </trkpt>
      <trkpt lat="45.84578" lon="3.52405">
        <ele>303.5</ele>
        <time>2026-05-10T07:12:38.000Z</time>
      </trkpt>
      <trkpt lat="45.84578" lon="3.52407">
        <ele>303.4</ele>
        <time>2026-05-10T07:12:39.000Z</time>
      </trkpt>
      <trkpt lat="45.84579" lon="3.52408">
        <ele>303.4</ele>
        <time>2026-05-10T07:12:40.000Z</time>
      </trkpt>
      <trkpt lat="45.84579" lon="3.5241">
        <ele>303.3</ele>
        <time>2026-05-10T07:12:41.000Z</time>
      </trkpt>
      <trkpt lat="45.8458" lon="3.52411">
        <ele>303.3</ele>
        <time>2026-05-10T07:12:42.000Z</time>
      </trkpt>
      <trkpt lat="45.8458" lon="3.52413">
        <ele>303.2</ele>
        <time>2026-05-10T07:12:43.000Z</time>
      </trkpt>
      <trkpt lat="45.84581" lon="3.52415">
        <ele>303.1</ele>
        <time>2026-05-10T07:12:44.000Z</time>
      </trkpt>
      <trkpt lat="45.84581" lon="3.52417">
        <ele>303.1</ele>
        <time>2026-05-10T07:12:45.000Z</time>
      </trkpt>
      <trkpt lat="45.84582" lon="3.52418">
        <ele>303.1</ele>
        <time>2026-05-10T07:12:46.000Z</time>
      </trkpt>
      <trkpt lat="45.84582" lon="3.5242">
        <ele>303</ele>
        <time>2026-05-10T07:12:47.000Z</time>
      </trkpt>
      <trkpt lat="45.84583" lon="3.52421">
        <ele>303</ele>
        <time>2026-05-10T07:12:48.000Z</time>
      </trkpt>
      <trkpt lat="45.84583" lon="3.52423">
        <ele>303</ele>
        <time>2026-05-10T07:12:49.000Z</time>
      </trkpt>
      <trkpt lat="45.84584" lon="3.52425">
        <ele>303</ele>
        <time>2026-05-10T07:12:50.000Z</time>
      </trkpt>
      <trkpt lat="45.84584" lon="3.52427">
        <ele>303</ele>
        <time>2026-05-10T07:12:51.000Z</time>
      </trkpt>
      <trkpt lat="45.84585" lon="3.52428">
        <ele>303</ele>
        <time>2026-05-10T07:12:52.000Z</time>
      </trkpt>
      <trkpt lat="45.84585" lon="3.5243">
        <ele>303</ele>
        <time>2026-05-10T07:12:53.000Z</time>
      </trkpt>
      <trkpt lat="45.84586" lon="3.52432">
        <ele>303</ele>
        <time>2026-05-10T07:12:54.000Z</time>
      </trkpt>
      <trkpt lat="45.84586" lon="3.52433">
        <ele>303</ele>
        <time>2026-05-10T07:12:55.000Z</time>
      </trkpt>
      <trkpt lat="45.84587" lon="3.52435">
        <ele>303</ele>
        <time>2026-05-10T07:12:56.000Z</time>
      </trkpt>
      <trkpt lat="45.84587" lon="3.52436">
        <ele>303</ele>
        <time>2026-05-10T07:12:57.000Z</time>
      </trkpt>
      <trkpt lat="45.84588" lon="3.52437">
        <ele>303</ele>
        <time>2026-05-10T07:12:58.000Z</time>
      </trkpt>
      <trkpt lat="45.84588" lon="3.52439">
        <ele>303</ele>
        <time>2026-05-10T07:12:59.000Z</time>
      </trkpt>
      <trkpt lat="45.84589" lon="3.5244">
        <ele>303</ele>
        <time>2026-05-10T07:13:00.000Z</time>
      </trkpt>
      <trkpt lat="45.84589" lon="3.52442">
        <ele>303</ele>
        <time>2026-05-10T07:13:01.000Z</time>
      </trkpt>
      <trkpt lat="45.8459" lon="3.52444">
        <ele>303</ele>
        <time>2026-05-10T07:13:02.000Z</time>
      </trkpt>
      <trkpt lat="45.84591" lon="3.52446">
        <ele>303</ele>
        <time>2026-05-10T07:13:03.000Z</time>
      </trkpt>
      <trkpt lat="45.84591" lon="3.52447">
        <ele>303</ele>
        <time>2026-05-10T07:13:04.000Z</time>
      </trkpt>
      <trkpt lat="45.84592" lon="3.52449">
        <ele>303</ele>
        <time>2026-05-10T07:13:05.000Z</time>
      </trkpt>
      <trkpt lat="45.84593" lon="3.5245">
        <ele>303</ele>
        <time>2026-05-10T07:13:06.000Z</time>
      </trkpt>
      <trkpt lat="45.84593" lon="3.52452">
        <ele>303</ele>
        <time>2026-05-10T07:13:07.000Z</time>
      </trkpt>
      <trkpt lat="45.84594" lon="3.52454">
        <ele>303</ele>
        <time>2026-05-10T07:13:08.000Z</time>
      </trkpt>
      <trkpt lat="45.84594" lon="3.52456">
        <ele>303</ele>
        <time>2026-05-10T07:13:09.000Z</time>
      </trkpt>
      <trkpt lat="45.84595" lon="3.52457">
        <ele>303</ele>
        <time>2026-05-10T07:13:10.000Z</time>
      </trkpt>
      <trkpt lat="45.84595" lon="3.52459">
        <ele>303</ele>
        <time>2026-05-10T07:13:11.000Z</time>
      </trkpt>
      <trkpt lat="45.84596" lon="3.52461">
        <ele>303</ele>
        <time>2026-05-10T07:13:12.000Z</time>
      </trkpt>
      <trkpt lat="45.84596" lon="3.52463">
        <ele>303</ele>
        <time>2026-05-10T07:13:13.000Z</time>
      </trkpt>
      <trkpt lat="45.84597" lon="3.52464">
        <ele>303</ele>
        <time>2026-05-10T07:13:14.000Z</time>
      </trkpt>
      <trkpt lat="45.84597" lon="3.52466">
        <ele>303</ele>
        <time>2026-05-10T07:13:15.000Z</time>
      </trkpt>
      <trkpt lat="45.84598" lon="3.52467">
        <ele>303</ele>
        <time>2026-05-10T07:13:16.000Z</time>
      </trkpt>
      <trkpt lat="45.84598" lon="3.52469">
        <ele>303</ele>
        <time>2026-05-10T07:13:17.000Z</time>
      </trkpt>
      <trkpt lat="45.84599" lon="3.5247">
        <ele>303</ele>
        <time>2026-05-10T07:13:18.000Z</time>
      </trkpt>
      <trkpt lat="45.84599" lon="3.52472">
        <ele>303</ele>
        <time>2026-05-10T07:13:19.000Z</time>
      </trkpt>
      <trkpt lat="45.846" lon="3.52473">
        <ele>303</ele>
        <time>2026-05-10T07:13:20.000Z</time>
      </trkpt>
      <trkpt lat="45.846" lon="3.52475">
        <ele>303</ele>
        <time>2026-05-10T07:13:21.000Z</time>
      </trkpt>
      <trkpt lat="45.84601" lon="3.52476">
        <ele>303</ele>
        <time>2026-05-10T07:13:22.000Z</time>
      </trkpt>
      <trkpt lat="45.84601" lon="3.52478">
        <ele>303</ele>
        <time>2026-05-10T07:13:23.000Z</time>
      </trkpt>
      <trkpt lat="45.84602" lon="3.52479">
        <ele>303</ele>
        <time>2026-05-10T07:13:24.000Z</time>
      </trkpt>
      <trkpt lat="45.84602" lon="3.52481">
        <ele>303</ele>
        <time>2026-05-10T07:13:25.000Z</time>
      </trkpt>
      <trkpt lat="45.84603" lon="3.52482">
        <ele>303</ele>
        <time>2026-05-10T07:13:26.000Z</time>
      </trkpt>
      <trkpt lat="45.84603" lon="3.52484">
        <ele>303</ele>
        <time>2026-05-10T07:13:27.000Z</time>
      </trkpt>
      <trkpt lat="45.84604" lon="3.52485">
        <ele>303</ele>
        <time>2026-05-10T07:13:28.000Z</time>
      </trkpt>
      <trkpt lat="45.84604" lon="3.52487">
        <ele>303</ele>
        <time>2026-05-10T07:13:29.000Z</time>
      </trkpt>
      <trkpt lat="45.84605" lon="3.52488">
        <ele>303</ele>
        <time>2026-05-10T07:13:30.000Z</time>
      </trkpt>
      <trkpt lat="45.84606" lon="3.5249">
        <ele>303</ele>
        <time>2026-05-10T07:13:31.000Z</time>
      </trkpt>
      <trkpt lat="45.84606" lon="3.52491">
        <ele>303</ele>
        <time>2026-05-10T07:13:32.000Z</time>
      </trkpt>
      <trkpt lat="45.84606" lon="3.52493">
        <ele>303</ele>
        <time>2026-05-10T07:13:33.000Z</time>
      </trkpt>
      <trkpt lat="45.84607" lon="3.52495">
        <ele>303</ele>
        <time>2026-05-10T07:13:34.000Z</time>
      </trkpt>
      <trkpt lat="45.84607" lon="3.52496">
        <ele>303</ele>
        <time>2026-05-10T07:13:35.000Z</time>
      </trkpt>
      <trkpt lat="45.84607" lon="3.52498">
        <ele>303</ele>
        <time>2026-05-10T07:13:36.000Z</time>
      </trkpt>
      <trkpt lat="45.84608" lon="3.52499">
        <ele>303</ele>
        <time>2026-05-10T07:13:37.000Z</time>
      </trkpt>
      <trkpt lat="45.84608" lon="3.52501">
        <ele>303</ele>
        <time>2026-05-10T07:13:38.000Z</time>
      </trkpt>
      <trkpt lat="45.84609" lon="3.52503">
        <ele>303.1</ele>
        <time>2026-05-10T07:13:39.000Z</time>
      </trkpt>
      <trkpt lat="45.8461" lon="3.52505">
        <ele>303.2</ele>
        <time>2026-05-10T07:13:40.000Z</time>
      </trkpt>
      <trkpt lat="45.84611" lon="3.52506">
        <ele>303.2</ele>
        <time>2026-05-10T07:13:41.000Z</time>
      </trkpt>
      <trkpt lat="45.84612" lon="3.52508">
        <ele>303.3</ele>
        <time>2026-05-10T07:13:42.000Z</time>
      </trkpt>
      <trkpt lat="45.84612" lon="3.5251">
        <ele>303.3</ele>
        <time>2026-05-10T07:13:43.000Z</time>
      </trkpt>
      <trkpt lat="45.84613" lon="3.52511">
        <ele>303.4</ele>
        <time>2026-05-10T07:13:44.000Z</time>
      </trkpt>
      <trkpt lat="45.84613" lon="3.52513">
        <ele>303.4</ele>
        <time>2026-05-10T07:13:45.000Z</time>
      </trkpt>
      <trkpt lat="45.84614" lon="3.52515">
        <ele>303.5</ele>
        <time>2026-05-10T07:13:46.000Z</time>
      </trkpt>
      <trkpt lat="45.84614" lon="3.52516">
        <ele>303.5</ele>
        <time>2026-05-10T07:13:47.000Z</time>
      </trkpt>
      <trkpt lat="45.84615" lon="3.52518">
        <ele>303.6</ele>
        <time>2026-05-10T07:13:48.000Z</time>
      </trkpt>
      <trkpt lat="45.84616" lon="3.5252">
        <ele>303.6</ele>
        <time>2026-05-10T07:13:49.000Z</time>
      </trkpt>
      <trkpt lat="45.84616" lon="3.52521">
        <ele>303.6</ele>
        <time>2026-05-10T07:13:50.000Z</time>
      </trkpt>
      <trkpt lat="45.84617" lon="3.52523">
        <ele>303.7</ele>
        <time>2026-05-10T07:13:51.000Z</time>
      </trkpt>
      <trkpt lat="45.84617" lon="3.52525">
        <ele>303.7</ele>
        <time>2026-05-10T07:13:52.000Z</time>
      </trkpt>
      <trkpt lat="45.84618" lon="3.52526">
        <ele>303.7</ele>
        <time>2026-05-10T07:13:53.000Z</time>
      </trkpt>
      <trkpt lat="45.84618" lon="3.52528">
        <ele>303.7</ele>
        <time>2026-05-10T07:13:54.000Z</time>
      </trkpt>
      <trkpt lat="45.84619" lon="3.5253">
        <ele>303.7</ele>
        <time>2026-05-10T07:13:55.000Z</time>
      </trkpt>
      <trkpt lat="45.84619" lon="3.52531">
        <ele>303.7</ele>
        <time>2026-05-10T07:13:56.000Z</time>
      </trkpt>
      <trkpt lat="45.8462" lon="3.52533">
        <ele>303.7</ele>
        <time>2026-05-10T07:13:57.000Z</time>
      </trkpt>
      <trkpt lat="45.8462" lon="3.52534">
        <ele>303.7</ele>
        <time>2026-05-10T07:13:58.000Z</time>
      </trkpt>
      <trkpt lat="45.84621" lon="3.52535">
        <ele>303.7</ele>
        <time>2026-05-10T07:13:59.000Z</time>
      </trkpt>
      <trkpt lat="45.84621" lon="3.52537">
        <ele>303.6</ele>
        <time>2026-05-10T07:14:00.000Z</time>
      </trkpt>
      <trkpt lat="45.84621" lon="3.52538">
        <ele>303.6</ele>
        <time>2026-05-10T07:14:01.000Z</time>
      </trkpt>
      <trkpt lat="45.84622" lon="3.52539">
        <ele>303.6</ele>
        <time>2026-05-10T07:14:02.000Z</time>
      </trkpt>
      <trkpt lat="45.84622" lon="3.5254">
        <ele>303.6</ele>
        <time>2026-05-10T07:14:03.000Z</time>
      </trkpt>
      <trkpt lat="45.84623" lon="3.52541">
        <ele>303.6</ele>
        <time>2026-05-10T07:14:04.000Z</time>
      </trkpt>
      <trkpt lat="45.84623" lon="3.52543">
        <ele>303.6</ele>
        <time>2026-05-10T07:14:05.000Z</time>
      </trkpt>
      <trkpt lat="45.84624" lon="3.52544">
        <ele>303.5</ele>
        <time>2026-05-10T07:14:06.000Z</time>
      </trkpt>
      <trkpt lat="45.84624" lon="3.52545">
        <ele>303.5</ele>
        <time>2026-05-10T07:14:07.000Z</time>
      </trkpt>
      <trkpt lat="45.84624" lon="3.52546">
        <ele>303.5</ele>
        <time>2026-05-10T07:14:08.000Z</time>
      </trkpt>
      <trkpt lat="45.84625" lon="3.52548">
        <ele>303.5</ele>
        <time>2026-05-10T07:14:09.000Z</time>
      </trkpt>
      <trkpt lat="45.84625" lon="3.52551">
        <ele>303.5</ele>
        <time>2026-05-10T07:14:10.000Z</time>
      </trkpt>
      <trkpt lat="45.84625" lon="3.52552">
        <ele>303.5</ele>
        <time>2026-05-10T07:14:11.000Z</time>
      </trkpt>
      <trkpt lat="45.84625" lon="3.52554">
        <ele>303.5</ele>
        <time>2026-05-10T07:14:12.000Z</time>
      </trkpt>
      <trkpt lat="45.84626" lon="3.52556">
        <ele>303.5</ele>
        <time>2026-05-10T07:14:13.000Z</time>
      </trkpt>
      <trkpt lat="45.84626" lon="3.52558">
        <ele>303.5</ele>
        <time>2026-05-10T07:14:14.000Z</time>
      </trkpt>
      <trkpt lat="45.84627" lon="3.5256">
        <ele>303.5</ele>
        <time>2026-05-10T07:14:15.000Z</time>
      </trkpt>
      <trkpt lat="45.84628" lon="3.52561">
        <ele>303.5</ele>
        <time>2026-05-10T07:14:16.000Z</time>
      </trkpt>
      <trkpt lat="45.84628" lon="3.52563">
        <ele>303.5</ele>
        <time>2026-05-10T07:14:17.000Z</time>
      </trkpt>
      <trkpt lat="45.84629" lon="3.52565">
        <ele>303.6</ele>
        <time>2026-05-10T07:14:18.000Z</time>
      </trkpt>
      <trkpt lat="45.84629" lon="3.52566">
        <ele>303.6</ele>
        <time>2026-05-10T07:14:19.000Z</time>
      </trkpt>
      <trkpt lat="45.8463" lon="3.52567">
        <ele>303.6</ele>
        <time>2026-05-10T07:14:20.000Z</time>
      </trkpt>
      <trkpt lat="45.8463" lon="3.52569">
        <ele>303.6</ele>
        <time>2026-05-10T07:14:21.000Z</time>
      </trkpt>
      <trkpt lat="45.84631" lon="3.5257">
        <ele>303.7</ele>
        <time>2026-05-10T07:14:22.000Z</time>
      </trkpt>
      <trkpt lat="45.84631" lon="3.52572">
        <ele>303.7</ele>
        <time>2026-05-10T07:14:23.000Z</time>
      </trkpt>
      <trkpt lat="45.84632" lon="3.52573">
        <ele>303.7</ele>
        <time>2026-05-10T07:14:24.000Z</time>
      </trkpt>
      <trkpt lat="45.84632" lon="3.52575">
        <ele>303.8</ele>
        <time>2026-05-10T07:14:25.000Z</time>
      </trkpt>
      <trkpt lat="45.84633" lon="3.52577">
        <ele>303.8</ele>
        <time>2026-05-10T07:14:26.000Z</time>
      </trkpt>
      <trkpt lat="45.84633" lon="3.52578">
        <ele>303.9</ele>
        <time>2026-05-10T07:14:27.000Z</time>
      </trkpt>
      <trkpt lat="45.84634" lon="3.5258">
        <ele>303.9</ele>
        <time>2026-05-10T07:14:28.000Z</time>
      </trkpt>
      <trkpt lat="45.84634" lon="3.52581">
        <ele>303.9</ele>
        <time>2026-05-10T07:14:29.000Z</time>
      </trkpt>
      <trkpt lat="45.84634" lon="3.52583">
        <ele>304</ele>
        <time>2026-05-10T07:14:30.000Z</time>
      </trkpt>
      <trkpt lat="45.84635" lon="3.52584">
        <ele>304</ele>
        <time>2026-05-10T07:14:31.000Z</time>
      </trkpt>
      <trkpt lat="45.84635" lon="3.52586">
        <ele>304</ele>
        <time>2026-05-10T07:14:32.000Z</time>
      </trkpt>
      <trkpt lat="45.84636" lon="3.52587">
        <ele>304</ele>
        <time>2026-05-10T07:14:33.000Z</time>
      </trkpt>
      <trkpt lat="45.84636" lon="3.52589">
        <ele>304</ele>
        <time>2026-05-10T07:14:34.000Z</time>
      </trkpt>
      <trkpt lat="45.84637" lon="3.52591">
        <ele>304</ele>
        <time>2026-05-10T07:14:35.000Z</time>
      </trkpt>
      <trkpt lat="45.84637" lon="3.52593">
        <ele>304</ele>
        <time>2026-05-10T07:14:36.000Z</time>
      </trkpt>
      <trkpt lat="45.84638" lon="3.52595">
        <ele>304</ele>
        <time>2026-05-10T07:14:37.000Z</time>
      </trkpt>
      <trkpt lat="45.84638" lon="3.52597">
        <ele>304</ele>
        <time>2026-05-10T07:14:38.000Z</time>
      </trkpt>
      <trkpt lat="45.84639" lon="3.52598">
        <ele>304</ele>
        <time>2026-05-10T07:14:39.000Z</time>
      </trkpt>
      <trkpt lat="45.84639" lon="3.526">
        <ele>304</ele>
        <time>2026-05-10T07:14:40.000Z</time>
      </trkpt>
      <trkpt lat="45.8464" lon="3.52602">
        <ele>304</ele>
        <time>2026-05-10T07:14:41.000Z</time>
      </trkpt>
      <trkpt lat="45.8464" lon="3.52603">
        <ele>304</ele>
        <time>2026-05-10T07:14:42.000Z</time>
      </trkpt>
      <trkpt lat="45.84641" lon="3.52604">
        <ele>304</ele>
        <time>2026-05-10T07:14:43.000Z</time>
      </trkpt>
      <trkpt lat="45.84641" lon="3.52606">
        <ele>304</ele>
        <time>2026-05-10T07:14:44.000Z</time>
      </trkpt>
      <trkpt lat="45.84642" lon="3.52608">
        <ele>304</ele>
        <time>2026-05-10T07:14:45.000Z</time>
      </trkpt>
      <trkpt lat="45.84643" lon="3.52609">
        <ele>304</ele>
        <time>2026-05-10T07:14:46.000Z</time>
      </trkpt>
      <trkpt lat="45.84643" lon="3.52611">
        <ele>304</ele>
        <time>2026-05-10T07:14:47.000Z</time>
      </trkpt>
      <trkpt lat="45.84644" lon="3.52612">
        <ele>304</ele>
        <time>2026-05-10T07:14:48.000Z</time>
      </trkpt>
      <trkpt lat="45.84645" lon="3.52614">
        <ele>304</ele>
        <time>2026-05-10T07:14:49.000Z</time>
      </trkpt>
      <trkpt lat="45.84646" lon="3.52615">
        <ele>304</ele>
        <time>2026-05-10T07:14:50.000Z</time>
      </trkpt>
      <trkpt lat="45.84646" lon="3.52617">
        <ele>304</ele>
        <time>2026-05-10T07:14:51.000Z</time>
      </trkpt>
      <trkpt lat="45.84647" lon="3.52618">
        <ele>304</ele>
        <time>2026-05-10T07:14:52.000Z</time>
      </trkpt>
      <trkpt lat="45.84648" lon="3.5262">
        <ele>304</ele>
        <time>2026-05-10T07:14:53.000Z</time>
      </trkpt>
      <trkpt lat="45.84648" lon="3.52622">
        <ele>304</ele>
        <time>2026-05-10T07:14:54.000Z</time>
      </trkpt>
      <trkpt lat="45.84649" lon="3.52623">
        <ele>304</ele>
        <time>2026-05-10T07:14:55.000Z</time>
      </trkpt>
      <trkpt lat="45.8465" lon="3.52625">
        <ele>304</ele>
        <time>2026-05-10T07:14:56.000Z</time>
      </trkpt>
      <trkpt lat="45.8465" lon="3.52626">
        <ele>304</ele>
        <time>2026-05-10T07:14:57.000Z</time>
      </trkpt>
      <trkpt lat="45.8465" lon="3.52628">
        <ele>304</ele>
        <time>2026-05-10T07:14:58.000Z</time>
      </trkpt>
      <trkpt lat="45.84651" lon="3.52629">
        <ele>304</ele>
        <time>2026-05-10T07:14:59.000Z</time>
      </trkpt>
      <trkpt lat="45.84652" lon="3.52631">
        <ele>304</ele>
        <time>2026-05-10T07:15:00.000Z</time>
      </trkpt>
      <trkpt lat="45.84652" lon="3.52633">
        <ele>304</ele>
        <time>2026-05-10T07:15:01.000Z</time>
      </trkpt>
      <trkpt lat="45.84652" lon="3.52634">
        <ele>304</ele>
        <time>2026-05-10T07:15:02.000Z</time>
      </trkpt>
      <trkpt lat="45.84653" lon="3.52636">
        <ele>304</ele>
        <time>2026-05-10T07:15:03.000Z</time>
      </trkpt>
      <trkpt lat="45.84653" lon="3.52638">
        <ele>304</ele>
        <time>2026-05-10T07:15:04.000Z</time>
      </trkpt>
      <trkpt lat="45.84654" lon="3.52639">
        <ele>304</ele>
        <time>2026-05-10T07:15:05.000Z</time>
      </trkpt>
      <trkpt lat="45.84654" lon="3.52641">
        <ele>304</ele>
        <time>2026-05-10T07:15:06.000Z</time>
      </trkpt>
      <trkpt lat="45.84655" lon="3.52642">
        <ele>304.1</ele>
        <time>2026-05-10T07:15:07.000Z</time>
      </trkpt>
      <trkpt lat="45.84655" lon="3.52644">
        <ele>304.1</ele>
        <time>2026-05-10T07:15:08.000Z</time>
      </trkpt>
      <trkpt lat="45.84656" lon="3.52645">
        <ele>304.1</ele>
        <time>2026-05-10T07:15:09.000Z</time>
      </trkpt>
      <trkpt lat="45.84656" lon="3.52647">
        <ele>304.1</ele>
        <time>2026-05-10T07:15:10.000Z</time>
      </trkpt>
      <trkpt lat="45.84657" lon="3.52649">
        <ele>304.1</ele>
        <time>2026-05-10T07:15:11.000Z</time>
      </trkpt>
      <trkpt lat="45.84657" lon="3.5265">
        <ele>304.1</ele>
        <time>2026-05-10T07:15:12.000Z</time>
      </trkpt>
      <trkpt lat="45.84657" lon="3.52652">
        <ele>304.2</ele>
        <time>2026-05-10T07:15:13.000Z</time>
      </trkpt>
      <trkpt lat="45.84657" lon="3.52653">
        <ele>304.2</ele>
        <time>2026-05-10T07:15:14.000Z</time>
      </trkpt>
      <trkpt lat="45.84658" lon="3.52655">
        <ele>304.2</ele>
        <time>2026-05-10T07:15:15.000Z</time>
      </trkpt>
      <trkpt lat="45.84658" lon="3.52656">
        <ele>304.2</ele>
        <time>2026-05-10T07:15:16.000Z</time>
      </trkpt>
      <trkpt lat="45.84658" lon="3.52658">
        <ele>304.2</ele>
        <time>2026-05-10T07:15:17.000Z</time>
      </trkpt>
      <trkpt lat="45.84659" lon="3.52659">
        <ele>304.2</ele>
        <time>2026-05-10T07:15:18.000Z</time>
      </trkpt>
      <trkpt lat="45.84659" lon="3.5266">
        <ele>304.2</ele>
        <time>2026-05-10T07:15:19.000Z</time>
      </trkpt>
      <trkpt lat="45.8466" lon="3.52662">
        <ele>304.2</ele>
        <time>2026-05-10T07:15:20.000Z</time>
      </trkpt>
      <trkpt lat="45.8466" lon="3.52664">
        <ele>304.2</ele>
        <time>2026-05-10T07:15:21.000Z</time>
      </trkpt>
      <trkpt lat="45.84661" lon="3.52665">
        <ele>304.2</ele>
        <time>2026-05-10T07:15:22.000Z</time>
      </trkpt>
      <trkpt lat="45.84661" lon="3.52666">
        <ele>304.2</ele>
        <time>2026-05-10T07:15:23.000Z</time>
      </trkpt>
      <trkpt lat="45.84662" lon="3.52668">
        <ele>304.2</ele>
        <time>2026-05-10T07:15:24.000Z</time>
      </trkpt>
      <trkpt lat="45.84662" lon="3.52669">
        <ele>304.2</ele>
        <time>2026-05-10T07:15:25.000Z</time>
      </trkpt>
      <trkpt lat="45.84663" lon="3.52671">
        <ele>304.3</ele>
        <time>2026-05-10T07:15:26.000Z</time>
      </trkpt>
      <trkpt lat="45.84664" lon="3.52673">
        <ele>304.3</ele>
        <time>2026-05-10T07:15:27.000Z</time>
      </trkpt>
      <trkpt lat="45.84664" lon="3.52674">
        <ele>304.3</ele>
        <time>2026-05-10T07:15:28.000Z</time>
      </trkpt>
      <trkpt lat="45.84665" lon="3.52676">
        <ele>304.4</ele>
        <time>2026-05-10T07:15:29.000Z</time>
      </trkpt>
      <trkpt lat="45.84665" lon="3.52677">
        <ele>304.4</ele>
        <time>2026-05-10T07:15:30.000Z</time>
      </trkpt>
      <trkpt lat="45.84665" lon="3.52679">
        <ele>304.5</ele>
        <time>2026-05-10T07:15:31.000Z</time>
      </trkpt>
      <trkpt lat="45.84666" lon="3.5268">
        <ele>304.5</ele>
        <time>2026-05-10T07:15:32.000Z</time>
      </trkpt>
      <trkpt lat="45.84666" lon="3.52681">
        <ele>304.5</ele>
        <time>2026-05-10T07:15:33.000Z</time>
      </trkpt>
      <trkpt lat="45.84666" lon="3.52683">
        <ele>304.6</ele>
        <time>2026-05-10T07:15:34.000Z</time>
      </trkpt>
      <trkpt lat="45.84667" lon="3.52685">
        <ele>304.6</ele>
        <time>2026-05-10T07:15:35.000Z</time>
      </trkpt>
      <trkpt lat="45.84668" lon="3.52686">
        <ele>304.7</ele>
        <time>2026-05-10T07:15:36.000Z</time>
      </trkpt>
      <trkpt lat="45.84668" lon="3.52687">
        <ele>304.7</ele>
        <time>2026-05-10T07:15:37.000Z</time>
      </trkpt>
      <trkpt lat="45.84669" lon="3.52689">
        <ele>304.8</ele>
        <time>2026-05-10T07:15:38.000Z</time>
      </trkpt>
      <trkpt lat="45.84669" lon="3.52691">
        <ele>304.9</ele>
        <time>2026-05-10T07:15:39.000Z</time>
      </trkpt>
      <trkpt lat="45.84669" lon="3.52692">
        <ele>304.9</ele>
        <time>2026-05-10T07:15:40.000Z</time>
      </trkpt>
      <trkpt lat="45.8467" lon="3.52694">
        <ele>305</ele>
        <time>2026-05-10T07:15:41.000Z</time>
      </trkpt>
      <trkpt lat="45.8467" lon="3.52696">
        <ele>305</ele>
        <time>2026-05-10T07:15:42.000Z</time>
      </trkpt>
      <trkpt lat="45.8467" lon="3.52698">
        <ele>305</ele>
        <time>2026-05-10T07:15:43.000Z</time>
      </trkpt>
      <trkpt lat="45.84671" lon="3.52699">
        <ele>305</ele>
        <time>2026-05-10T07:15:44.000Z</time>
      </trkpt>
      <trkpt lat="45.84671" lon="3.52701">
        <ele>305</ele>
        <time>2026-05-10T07:15:45.000Z</time>
      </trkpt>
      <trkpt lat="45.84672" lon="3.52703">
        <ele>305</ele>
        <time>2026-05-10T07:15:46.000Z</time>
      </trkpt>
      <trkpt lat="45.84673" lon="3.52704">
        <ele>305</ele>
        <time>2026-05-10T07:15:47.000Z</time>
      </trkpt>
      <trkpt lat="45.84673" lon="3.52706">
        <ele>305</ele>
        <time>2026-05-10T07:15:48.000Z</time>
      </trkpt>
      <trkpt lat="45.84674" lon="3.52707">
        <ele>305</ele>
        <time>2026-05-10T07:15:49.000Z</time>
      </trkpt>
      <trkpt lat="45.84674" lon="3.52708">
        <ele>305</ele>
        <time>2026-05-10T07:15:50.000Z</time>
      </trkpt>
      <trkpt lat="45.84675" lon="3.5271">
        <ele>305</ele>
        <time>2026-05-10T07:15:51.000Z</time>
      </trkpt>
      <trkpt lat="45.84675" lon="3.52711">
        <ele>305</ele>
        <time>2026-05-10T07:15:52.000Z</time>
      </trkpt>
      <trkpt lat="45.84676" lon="3.52713">
        <ele>305</ele>
        <time>2026-05-10T07:15:53.000Z</time>
      </trkpt>
      <trkpt lat="45.84677" lon="3.52714">
        <ele>305</ele>
        <time>2026-05-10T07:15:54.000Z</time>
      </trkpt>
      <trkpt lat="45.84677" lon="3.52716">
        <ele>305</ele>
        <time>2026-05-10T07:15:55.000Z</time>
      </trkpt>
      <trkpt lat="45.84678" lon="3.52718">
        <ele>305</ele>
        <time>2026-05-10T07:15:56.000Z</time>
      </trkpt>
      <trkpt lat="45.84679" lon="3.52719">
        <ele>305</ele>
        <time>2026-05-10T07:15:57.000Z</time>
      </trkpt>
      <trkpt lat="45.84679" lon="3.52721">
        <ele>305</ele>
        <time>2026-05-10T07:15:58.000Z</time>
      </trkpt>
      <trkpt lat="45.8468" lon="3.52723">
        <ele>305</ele>
        <time>2026-05-10T07:15:59.000Z</time>
      </trkpt>
      <trkpt lat="45.8468" lon="3.52724">
        <ele>305</ele>
        <time>2026-05-10T07:16:00.000Z</time>
      </trkpt>
      <trkpt lat="45.8468" lon="3.52726">
        <ele>305</ele>
        <time>2026-05-10T07:16:01.000Z</time>
      </trkpt>
      <trkpt lat="45.84681" lon="3.52728">
        <ele>305</ele>
        <time>2026-05-10T07:16:02.000Z</time>
      </trkpt>
      <trkpt lat="45.84681" lon="3.52729">
        <ele>305</ele>
        <time>2026-05-10T07:16:03.000Z</time>
      </trkpt>
      <trkpt lat="45.84682" lon="3.52731">
        <ele>305</ele>
        <time>2026-05-10T07:16:04.000Z</time>
      </trkpt>
      <trkpt lat="45.84682" lon="3.52732">
        <ele>305</ele>
        <time>2026-05-10T07:16:05.000Z</time>
      </trkpt>
      <trkpt lat="45.84683" lon="3.52734">
        <ele>305</ele>
        <time>2026-05-10T07:16:06.000Z</time>
      </trkpt>
      <trkpt lat="45.84683" lon="3.52736">
        <ele>305</ele>
        <time>2026-05-10T07:16:07.000Z</time>
      </trkpt>
      <trkpt lat="45.84684" lon="3.52737">
        <ele>305</ele>
        <time>2026-05-10T07:16:08.000Z</time>
      </trkpt>
      <trkpt lat="45.84684" lon="3.52739">
        <ele>305</ele>
        <time>2026-05-10T07:16:09.000Z</time>
      </trkpt>
      <trkpt lat="45.84685" lon="3.52741">
        <ele>305</ele>
        <time>2026-05-10T07:16:10.000Z</time>
      </trkpt>
      <trkpt lat="45.84685" lon="3.52742">
        <ele>305</ele>
        <time>2026-05-10T07:16:11.000Z</time>
      </trkpt>
      <trkpt lat="45.84685" lon="3.52744">
        <ele>305</ele>
        <time>2026-05-10T07:16:12.000Z</time>
      </trkpt>
      <trkpt lat="45.84686" lon="3.52745">
        <ele>305</ele>
        <time>2026-05-10T07:16:13.000Z</time>
      </trkpt>
      <trkpt lat="45.84686" lon="3.52747">
        <ele>305</ele>
        <time>2026-05-10T07:16:14.000Z</time>
      </trkpt>
      <trkpt lat="45.84687" lon="3.52748">
        <ele>305</ele>
        <time>2026-05-10T07:16:15.000Z</time>
      </trkpt>
      <trkpt lat="45.84687" lon="3.5275">
        <ele>305</ele>
        <time>2026-05-10T07:16:16.000Z</time>
      </trkpt>
      <trkpt lat="45.84687" lon="3.52751">
        <ele>305.1</ele>
        <time>2026-05-10T07:16:17.000Z</time>
      </trkpt>
      <trkpt lat="45.84687" lon="3.52753">
        <ele>305.1</ele>
        <time>2026-05-10T07:16:18.000Z</time>
      </trkpt>
      <trkpt lat="45.84688" lon="3.52755">
        <ele>305.2</ele>
        <time>2026-05-10T07:16:19.000Z</time>
      </trkpt>
      <trkpt lat="45.84688" lon="3.52756">
        <ele>305.2</ele>
        <time>2026-05-10T07:16:20.000Z</time>
      </trkpt>
      <trkpt lat="45.84688" lon="3.52758">
        <ele>305.3</ele>
        <time>2026-05-10T07:16:21.000Z</time>
      </trkpt>
      <trkpt lat="45.84689" lon="3.5276">
        <ele>305.4</ele>
        <time>2026-05-10T07:16:22.000Z</time>
      </trkpt>
      <trkpt lat="45.84689" lon="3.52761">
        <ele>305.4</ele>
        <time>2026-05-10T07:16:23.000Z</time>
      </trkpt>
      <trkpt lat="45.8469" lon="3.52763">
        <ele>305.5</ele>
        <time>2026-05-10T07:16:24.000Z</time>
      </trkpt>
      <trkpt lat="45.8469" lon="3.52764">
        <ele>305.5</ele>
        <time>2026-05-10T07:16:25.000Z</time>
      </trkpt>
      <trkpt lat="45.84691" lon="3.52765">
        <ele>305.6</ele>
        <time>2026-05-10T07:16:26.000Z</time>
      </trkpt>
      <trkpt lat="45.84691" lon="3.52767">
        <ele>305.6</ele>
        <time>2026-05-10T07:16:27.000Z</time>
      </trkpt>
      <trkpt lat="45.84691" lon="3.52768">
        <ele>305.6</ele>
        <time>2026-05-10T07:16:28.000Z</time>
      </trkpt>
      <trkpt lat="45.84692" lon="3.52769">
        <ele>305.7</ele>
        <time>2026-05-10T07:16:29.000Z</time>
      </trkpt>
      <trkpt lat="45.84692" lon="3.52771">
        <ele>305.7</ele>
        <time>2026-05-10T07:16:30.000Z</time>
      </trkpt>
      <trkpt lat="45.84693" lon="3.52773">
        <ele>305.8</ele>
        <time>2026-05-10T07:16:31.000Z</time>
      </trkpt>
      <trkpt lat="45.84693" lon="3.52774">
        <ele>305.9</ele>
        <time>2026-05-10T07:16:32.000Z</time>
      </trkpt>
      <trkpt lat="45.84694" lon="3.52776">
        <ele>305.9</ele>
        <time>2026-05-10T07:16:33.000Z</time>
      </trkpt>
      <trkpt lat="45.84695" lon="3.52777">
        <ele>306</ele>
        <time>2026-05-10T07:16:34.000Z</time>
      </trkpt>
      <trkpt lat="45.84695" lon="3.52778">
        <ele>306</ele>
        <time>2026-05-10T07:16:35.000Z</time>
      </trkpt>
      <trkpt lat="45.84695" lon="3.5278">
        <ele>306</ele>
        <time>2026-05-10T07:16:36.000Z</time>
      </trkpt>
      <trkpt lat="45.84696" lon="3.52782">
        <ele>305.9</ele>
        <time>2026-05-10T07:16:37.000Z</time>
      </trkpt>
      <trkpt lat="45.84697" lon="3.52783">
        <ele>305.9</ele>
        <time>2026-05-10T07:16:38.000Z</time>
      </trkpt>
      <trkpt lat="45.84697" lon="3.52785">
        <ele>305.9</ele>
        <time>2026-05-10T07:16:39.000Z</time>
      </trkpt>
      <trkpt lat="45.84698" lon="3.52786">
        <ele>305.9</ele>
        <time>2026-05-10T07:16:40.000Z</time>
      </trkpt>
      <trkpt lat="45.84698" lon="3.52788">
        <ele>305.9</ele>
        <time>2026-05-10T07:16:41.000Z</time>
      </trkpt>
      <trkpt lat="45.84699" lon="3.5279">
        <ele>305.8</ele>
        <time>2026-05-10T07:16:42.000Z</time>
      </trkpt>
      <trkpt lat="45.84699" lon="3.52791">
        <ele>305.8</ele>
        <time>2026-05-10T07:16:43.000Z</time>
      </trkpt>
      <trkpt lat="45.847" lon="3.52793">
        <ele>305.8</ele>
        <time>2026-05-10T07:16:44.000Z</time>
      </trkpt>
      <trkpt lat="45.847" lon="3.52794">
        <ele>305.8</ele>
        <time>2026-05-10T07:16:45.000Z</time>
      </trkpt>
      <trkpt lat="45.84701" lon="3.52796">
        <ele>305.8</ele>
        <time>2026-05-10T07:16:46.000Z</time>
      </trkpt>
      <trkpt lat="45.84701" lon="3.52797">
        <ele>305.8</ele>
        <time>2026-05-10T07:16:47.000Z</time>
      </trkpt>
      <trkpt lat="45.84702" lon="3.52799">
        <ele>305.7</ele>
        <time>2026-05-10T07:16:48.000Z</time>
      </trkpt>
      <trkpt lat="45.84702" lon="3.528">
        <ele>305.7</ele>
        <time>2026-05-10T07:16:49.000Z</time>
      </trkpt>
      <trkpt lat="45.84702" lon="3.52801">
        <ele>305.7</ele>
        <time>2026-05-10T07:16:50.000Z</time>
      </trkpt>
      <trkpt lat="45.84703" lon="3.52803">
        <ele>305.7</ele>
        <time>2026-05-10T07:16:51.000Z</time>
      </trkpt>
      <trkpt lat="45.84703" lon="3.52804">
        <ele>305.7</ele>
        <time>2026-05-10T07:16:52.000Z</time>
      </trkpt>
      <trkpt lat="45.84704" lon="3.52806">
        <ele>305.7</ele>
        <time>2026-05-10T07:16:53.000Z</time>
      </trkpt>
      <trkpt lat="45.84704" lon="3.52807">
        <ele>305.6</ele>
        <time>2026-05-10T07:16:54.000Z</time>
      </trkpt>
      <trkpt lat="45.84705" lon="3.52808">
        <ele>305.6</ele>
        <time>2026-05-10T07:16:55.000Z</time>
      </trkpt>
      <trkpt lat="45.84706" lon="3.52809">
        <ele>305.6</ele>
        <time>2026-05-10T07:16:56.000Z</time>
      </trkpt>
      <trkpt lat="45.84706" lon="3.52811">
        <ele>305.6</ele>
        <time>2026-05-10T07:16:57.000Z</time>
      </trkpt>
      <trkpt lat="45.84707" lon="3.52812">
        <ele>305.6</ele>
        <time>2026-05-10T07:16:58.000Z</time>
      </trkpt>
      <trkpt lat="45.84707" lon="3.52813">
        <ele>305.5</ele>
        <time>2026-05-10T07:16:59.000Z</time>
      </trkpt>
      <trkpt lat="45.84707" lon="3.52814">
        <ele>305.5</ele>
        <time>2026-05-10T07:17:00.000Z</time>
      </trkpt>
      <trkpt lat="45.84708" lon="3.52816">
        <ele>305.5</ele>
        <time>2026-05-10T07:17:01.000Z</time>
      </trkpt>
      <trkpt lat="45.84708" lon="3.52818">
        <ele>305.5</ele>
        <time>2026-05-10T07:17:02.000Z</time>
      </trkpt>
      <trkpt lat="45.84709" lon="3.5282">
        <ele>305.5</ele>
        <time>2026-05-10T07:17:03.000Z</time>
      </trkpt>
      <trkpt lat="45.84709" lon="3.52821">
        <ele>305.5</ele>
        <time>2026-05-10T07:17:04.000Z</time>
      </trkpt>
      <trkpt lat="45.8471" lon="3.52822">
        <ele>305.4</ele>
        <time>2026-05-10T07:17:05.000Z</time>
      </trkpt>
      <trkpt lat="45.8471" lon="3.52823">
        <ele>305.4</ele>
        <time>2026-05-10T07:17:06.000Z</time>
      </trkpt>
      <trkpt lat="45.84711" lon="3.52825">
        <ele>305.4</ele>
        <time>2026-05-10T07:17:07.000Z</time>
      </trkpt>
      <trkpt lat="45.84711" lon="3.52826">
        <ele>305.4</ele>
        <time>2026-05-10T07:17:08.000Z</time>
      </trkpt>
      <trkpt lat="45.84712" lon="3.52827">
        <ele>305.4</ele>
        <time>2026-05-10T07:17:09.000Z</time>
      </trkpt>
      <trkpt lat="45.84712" lon="3.52829">
        <ele>305.4</ele>
        <time>2026-05-10T07:17:10.000Z</time>
      </trkpt>
      <trkpt lat="45.84714" lon="3.52831">
        <ele>305.3</ele>
        <time>2026-05-10T07:17:11.000Z</time>
      </trkpt>
      <trkpt lat="45.84714" lon="3.52832">
        <ele>305.3</ele>
        <time>2026-05-10T07:17:12.000Z</time>
      </trkpt>
      <trkpt lat="45.84715" lon="3.52834">
        <ele>305.3</ele>
        <time>2026-05-10T07:17:13.000Z</time>
      </trkpt>
      <trkpt lat="45.84716" lon="3.52835">
        <ele>305.2</ele>
        <time>2026-05-10T07:17:14.000Z</time>
      </trkpt>
      <trkpt lat="45.84716" lon="3.52837">
        <ele>305.2</ele>
        <time>2026-05-10T07:17:15.000Z</time>
      </trkpt>
      <trkpt lat="45.84717" lon="3.5284">
        <ele>305.2</ele>
        <time>2026-05-10T07:17:16.000Z</time>
      </trkpt>
      <trkpt lat="45.84717" lon="3.52842">
        <ele>305.2</ele>
        <time>2026-05-10T07:17:17.000Z</time>
      </trkpt>
      <trkpt lat="45.84717" lon="3.52844">
        <ele>305.2</ele>
        <time>2026-05-10T07:17:18.000Z</time>
      </trkpt>
      <trkpt lat="45.84717" lon="3.52845">
        <ele>305.2</ele>
        <time>2026-05-10T07:17:19.000Z</time>
      </trkpt>
      <trkpt lat="45.84718" lon="3.52847">
        <ele>305.2</ele>
        <time>2026-05-10T07:17:20.000Z</time>
      </trkpt>
      <trkpt lat="45.84718" lon="3.52849">
        <ele>305.2</ele>
        <time>2026-05-10T07:17:21.000Z</time>
      </trkpt>
      <trkpt lat="45.84718" lon="3.5285">
        <ele>305.2</ele>
        <time>2026-05-10T07:17:22.000Z</time>
      </trkpt>
      <trkpt lat="45.84718" lon="3.52851">
        <ele>305.2</ele>
        <time>2026-05-10T07:17:23.000Z</time>
      </trkpt>
      <trkpt lat="45.84718" lon="3.52852">
        <ele>305.2</ele>
        <time>2026-05-10T07:17:24.000Z</time>
      </trkpt>
      <trkpt lat="45.84718" lon="3.52854">
        <ele>305.2</ele>
        <time>2026-05-10T07:17:25.000Z</time>
      </trkpt>
      <trkpt lat="45.84718" lon="3.52855">
        <ele>305.2</ele>
        <time>2026-05-10T07:17:26.000Z</time>
      </trkpt>
      <trkpt lat="45.84718" lon="3.52856">
        <ele>305.1</ele>
        <time>2026-05-10T07:17:27.000Z</time>
      </trkpt>
      <trkpt lat="45.84718" lon="3.52857">
        <ele>305.1</ele>
        <time>2026-05-10T07:17:28.000Z</time>
      </trkpt>
      <trkpt lat="45.84718" lon="3.52859">
        <ele>305.1</ele>
        <time>2026-05-10T07:17:29.000Z</time>
      </trkpt>
      <trkpt lat="45.84719" lon="3.52861">
        <ele>305.1</ele>
        <time>2026-05-10T07:17:30.000Z</time>
      </trkpt>
      <trkpt lat="45.84719" lon="3.52862">
        <ele>305.1</ele>
        <time>2026-05-10T07:17:31.000Z</time>
      </trkpt>
      <trkpt lat="45.84719" lon="3.52863">
        <ele>305.2</ele>
        <time>2026-05-10T07:17:32.000Z</time>
      </trkpt>
      <trkpt lat="45.8472" lon="3.52864">
        <ele>305.2</ele>
        <time>2026-05-10T07:17:33.000Z</time>
      </trkpt>
      <trkpt lat="45.8472" lon="3.52866">
        <ele>305.2</ele>
        <time>2026-05-10T07:17:34.000Z</time>
      </trkpt>
      <trkpt lat="45.84721" lon="3.52867">
        <ele>305.3</ele>
        <time>2026-05-10T07:17:35.000Z</time>
      </trkpt>
      <trkpt lat="45.84722" lon="3.52869">
        <ele>305.3</ele>
        <time>2026-05-10T07:17:36.000Z</time>
      </trkpt>
      <trkpt lat="45.84722" lon="3.5287">
        <ele>305.3</ele>
        <time>2026-05-10T07:17:37.000Z</time>
      </trkpt>
      <trkpt lat="45.84723" lon="3.52872">
        <ele>305.4</ele>
        <time>2026-05-10T07:17:38.000Z</time>
      </trkpt>
      <trkpt lat="45.84724" lon="3.52873">
        <ele>305.4</ele>
        <time>2026-05-10T07:17:39.000Z</time>
      </trkpt>
      <trkpt lat="45.84725" lon="3.52875">
        <ele>305.4</ele>
        <time>2026-05-10T07:17:40.000Z</time>
      </trkpt>
      <trkpt lat="45.84725" lon="3.52877">
        <ele>305.5</ele>
        <time>2026-05-10T07:17:41.000Z</time>
      </trkpt>
      <trkpt lat="45.84726" lon="3.52879">
        <ele>305.6</ele>
        <time>2026-05-10T07:17:42.000Z</time>
      </trkpt>
      <trkpt lat="45.84727" lon="3.52882">
        <ele>305.6</ele>
        <time>2026-05-10T07:17:43.000Z</time>
      </trkpt>
      <trkpt lat="45.84728" lon="3.52884">
        <ele>305.7</ele>
        <time>2026-05-10T07:17:44.000Z</time>
      </trkpt>
      <trkpt lat="45.84728" lon="3.52886">
        <ele>305.7</ele>
        <time>2026-05-10T07:17:45.000Z</time>
      </trkpt>
      <trkpt lat="45.84729" lon="3.52888">
        <ele>305.7</ele>
        <time>2026-05-10T07:17:46.000Z</time>
      </trkpt>
      <trkpt lat="45.8473" lon="3.52889">
        <ele>305.7</ele>
        <time>2026-05-10T07:17:47.000Z</time>
      </trkpt>
      <trkpt lat="45.8473" lon="3.52891">
        <ele>305.7</ele>
        <time>2026-05-10T07:17:48.000Z</time>
      </trkpt>
      <trkpt lat="45.84731" lon="3.52893">
        <ele>305.7</ele>
        <time>2026-05-10T07:17:49.000Z</time>
      </trkpt>
      <trkpt lat="45.84732" lon="3.52894">
        <ele>305.7</ele>
        <time>2026-05-10T07:17:50.000Z</time>
      </trkpt>
      <trkpt lat="45.84733" lon="3.52896">
        <ele>305.6</ele>
        <time>2026-05-10T07:17:51.000Z</time>
      </trkpt>
      <trkpt lat="45.84733" lon="3.52898">
        <ele>305.6</ele>
        <time>2026-05-10T07:17:52.000Z</time>
      </trkpt>
      <trkpt lat="45.84734" lon="3.52899">
        <ele>305.6</ele>
        <time>2026-05-10T07:17:53.000Z</time>
      </trkpt>
      <trkpt lat="45.84734" lon="3.52901">
        <ele>305.6</ele>
        <time>2026-05-10T07:17:54.000Z</time>
      </trkpt>
      <trkpt lat="45.84735" lon="3.52903">
        <ele>305.5</ele>
        <time>2026-05-10T07:17:55.000Z</time>
      </trkpt>
      <trkpt lat="45.84736" lon="3.52904">
        <ele>305.5</ele>
        <time>2026-05-10T07:17:56.000Z</time>
      </trkpt>
      <trkpt lat="45.84737" lon="3.52906">
        <ele>305.5</ele>
        <time>2026-05-10T07:17:57.000Z</time>
      </trkpt>
      <trkpt lat="45.84737" lon="3.52908">
        <ele>305.5</ele>
        <time>2026-05-10T07:17:58.000Z</time>
      </trkpt>
      <trkpt lat="45.84738" lon="3.5291">
        <ele>305.4</ele>
        <time>2026-05-10T07:17:59.000Z</time>
      </trkpt>
      <trkpt lat="45.84739" lon="3.52911">
        <ele>305.4</ele>
        <time>2026-05-10T07:18:00.000Z</time>
      </trkpt>
      <trkpt lat="45.84739" lon="3.52913">
        <ele>305.4</ele>
        <time>2026-05-10T07:18:01.000Z</time>
      </trkpt>
      <trkpt lat="45.84739" lon="3.52915">
        <ele>305.4</ele>
        <time>2026-05-10T07:18:02.000Z</time>
      </trkpt>
      <trkpt lat="45.84739" lon="3.52916">
        <ele>305.4</ele>
        <time>2026-05-10T07:18:03.000Z</time>
      </trkpt>
      <trkpt lat="45.84739" lon="3.52918">
        <ele>305.4</ele>
        <time>2026-05-10T07:18:04.000Z</time>
      </trkpt>
      <trkpt lat="45.8474" lon="3.5292">
        <ele>305.4</ele>
        <time>2026-05-10T07:18:05.000Z</time>
      </trkpt>
      <trkpt lat="45.8474" lon="3.52921">
        <ele>305.5</ele>
        <time>2026-05-10T07:18:06.000Z</time>
      </trkpt>
      <trkpt lat="45.84741" lon="3.52923">
        <ele>305.5</ele>
        <time>2026-05-10T07:18:07.000Z</time>
      </trkpt>
      <trkpt lat="45.84741" lon="3.52924">
        <ele>305.5</ele>
        <time>2026-05-10T07:18:08.000Z</time>
      </trkpt>
      <trkpt lat="45.84741" lon="3.52926">
        <ele>305.5</ele>
        <time>2026-05-10T07:18:09.000Z</time>
      </trkpt>
      <trkpt lat="45.84741" lon="3.52927">
        <ele>305.6</ele>
        <time>2026-05-10T07:18:10.000Z</time>
      </trkpt>
      <trkpt lat="45.84742" lon="3.52928">
        <ele>305.6</ele>
        <time>2026-05-10T07:18:11.000Z</time>
      </trkpt>
      <trkpt lat="45.84742" lon="3.5293">
        <ele>305.6</ele>
        <time>2026-05-10T07:18:12.000Z</time>
      </trkpt>
      <trkpt lat="45.84742" lon="3.52932">
        <ele>305.7</ele>
        <time>2026-05-10T07:18:13.000Z</time>
      </trkpt>
      <trkpt lat="45.84743" lon="3.52934">
        <ele>305.7</ele>
        <time>2026-05-10T07:18:14.000Z</time>
      </trkpt>
      <trkpt lat="45.84743" lon="3.52935">
        <ele>305.8</ele>
        <time>2026-05-10T07:18:15.000Z</time>
      </trkpt>
      <trkpt lat="45.84743" lon="3.52937">
        <ele>305.8</ele>
        <time>2026-05-10T07:18:16.000Z</time>
      </trkpt>
      <trkpt lat="45.84744" lon="3.52938">
        <ele>305.8</ele>
        <time>2026-05-10T07:18:17.000Z</time>
      </trkpt>
      <trkpt lat="45.84744" lon="3.5294">
        <ele>305.9</ele>
        <time>2026-05-10T07:18:18.000Z</time>
      </trkpt>
      <trkpt lat="45.84745" lon="3.52941">
        <ele>305.9</ele>
        <time>2026-05-10T07:18:19.000Z</time>
      </trkpt>
      <trkpt lat="45.84745" lon="3.52943">
        <ele>306</ele>
        <time>2026-05-10T07:18:20.000Z</time>
      </trkpt>
      <trkpt lat="45.84746" lon="3.52945">
        <ele>306</ele>
        <time>2026-05-10T07:18:21.000Z</time>
      </trkpt>
      <trkpt lat="45.84746" lon="3.52946">
        <ele>306</ele>
        <time>2026-05-10T07:18:22.000Z</time>
      </trkpt>
      <trkpt lat="45.84747" lon="3.52948">
        <ele>306</ele>
        <time>2026-05-10T07:18:23.000Z</time>
      </trkpt>
      <trkpt lat="45.84748" lon="3.5295">
        <ele>306</ele>
        <time>2026-05-10T07:18:24.000Z</time>
      </trkpt>
      <trkpt lat="45.84748" lon="3.52951">
        <ele>306</ele>
        <time>2026-05-10T07:18:25.000Z</time>
      </trkpt>
      <trkpt lat="45.84749" lon="3.52952">
        <ele>306</ele>
        <time>2026-05-10T07:18:26.000Z</time>
      </trkpt>
      <trkpt lat="45.84749" lon="3.52953">
        <ele>306</ele>
        <time>2026-05-10T07:18:27.000Z</time>
      </trkpt>
      <trkpt lat="45.8475" lon="3.52955">
        <ele>306</ele>
        <time>2026-05-10T07:18:28.000Z</time>
      </trkpt>
      <trkpt lat="45.8475" lon="3.52956">
        <ele>306</ele>
        <time>2026-05-10T07:18:29.000Z</time>
      </trkpt>
      <trkpt lat="45.8475" lon="3.52958">
        <ele>306</ele>
        <time>2026-05-10T07:18:30.000Z</time>
      </trkpt>
      <trkpt lat="45.84751" lon="3.5296">
        <ele>306</ele>
        <time>2026-05-10T07:18:31.000Z</time>
      </trkpt>
      <trkpt lat="45.84751" lon="3.52961">
        <ele>306</ele>
        <time>2026-05-10T07:18:32.000Z</time>
      </trkpt>
      <trkpt lat="45.84751" lon="3.52963">
        <ele>306</ele>
        <time>2026-05-10T07:18:33.000Z</time>
      </trkpt>
      <trkpt lat="45.84751" lon="3.52965">
        <ele>305.9</ele>
        <time>2026-05-10T07:18:34.000Z</time>
      </trkpt>
      <trkpt lat="45.84752" lon="3.52967">
        <ele>305.9</ele>
        <time>2026-05-10T07:18:35.000Z</time>
      </trkpt>
      <trkpt lat="45.84752" lon="3.52969">
        <ele>305.9</ele>
        <time>2026-05-10T07:18:36.000Z</time>
      </trkpt>
      <trkpt lat="45.84753" lon="3.5297">
        <ele>305.9</ele>
        <time>2026-05-10T07:18:37.000Z</time>
      </trkpt>
      <trkpt lat="45.84753" lon="3.52971">
        <ele>305.9</ele>
        <time>2026-05-10T07:18:38.000Z</time>
      </trkpt>
      <trkpt lat="45.84754" lon="3.52973">
        <ele>305.9</ele>
        <time>2026-05-10T07:18:39.000Z</time>
      </trkpt>
      <trkpt lat="45.84755" lon="3.52974">
        <ele>305.8</ele>
        <time>2026-05-10T07:18:40.000Z</time>
      </trkpt>
      <trkpt lat="45.84755" lon="3.52976">
        <ele>305.8</ele>
        <time>2026-05-10T07:18:41.000Z</time>
      </trkpt>
      <trkpt lat="45.84755" lon="3.52977">
        <ele>305.8</ele>
        <time>2026-05-10T07:18:42.000Z</time>
      </trkpt>
      <trkpt lat="45.84756" lon="3.52979">
        <ele>305.8</ele>
        <time>2026-05-10T07:18:43.000Z</time>
      </trkpt>
      <trkpt lat="45.84756" lon="3.52981">
        <ele>305.8</ele>
        <time>2026-05-10T07:18:44.000Z</time>
      </trkpt>
      <trkpt lat="45.84757" lon="3.52982">
        <ele>305.8</ele>
        <time>2026-05-10T07:18:45.000Z</time>
      </trkpt>
      <trkpt lat="45.84757" lon="3.52984">
        <ele>305.8</ele>
        <time>2026-05-10T07:18:46.000Z</time>
      </trkpt>
      <trkpt lat="45.84758" lon="3.52986">
        <ele>305.9</ele>
        <time>2026-05-10T07:18:47.000Z</time>
      </trkpt>
      <trkpt lat="45.84759" lon="3.52987">
        <ele>305.9</ele>
        <time>2026-05-10T07:18:48.000Z</time>
      </trkpt>
      <trkpt lat="45.84759" lon="3.52989">
        <ele>305.9</ele>
        <time>2026-05-10T07:18:49.000Z</time>
      </trkpt>
      <trkpt lat="45.8476" lon="3.5299">
        <ele>305.9</ele>
        <time>2026-05-10T07:18:50.000Z</time>
      </trkpt>
      <trkpt lat="45.84761" lon="3.52992">
        <ele>305.9</ele>
        <time>2026-05-10T07:18:51.000Z</time>
      </trkpt>
      <trkpt lat="45.84761" lon="3.52994">
        <ele>305.9</ele>
        <time>2026-05-10T07:18:52.000Z</time>
      </trkpt>
      <trkpt lat="45.84762" lon="3.52997">
        <ele>305.9</ele>
        <time>2026-05-10T07:18:53.000Z</time>
      </trkpt>
      <trkpt lat="45.84763" lon="3.52999">
        <ele>306</ele>
        <time>2026-05-10T07:18:54.000Z</time>
      </trkpt>
      <trkpt lat="45.84763" lon="3.53">
        <ele>306</ele>
        <time>2026-05-10T07:18:55.000Z</time>
      </trkpt>
      <trkpt lat="45.84764" lon="3.53002">
        <ele>306</ele>
        <time>2026-05-10T07:18:56.000Z</time>
      </trkpt>
      <trkpt lat="45.84764" lon="3.53004">
        <ele>306</ele>
        <time>2026-05-10T07:18:57.000Z</time>
      </trkpt>
      <trkpt lat="45.84764" lon="3.53005">
        <ele>306</ele>
        <time>2026-05-10T07:18:58.000Z</time>
      </trkpt>
      <trkpt lat="45.84765" lon="3.53007">
        <ele>306</ele>
        <time>2026-05-10T07:18:59.000Z</time>
      </trkpt>
      <trkpt lat="45.84766" lon="3.53009">
        <ele>306</ele>
        <time>2026-05-10T07:19:00.000Z</time>
      </trkpt>
      <trkpt lat="45.84766" lon="3.5301">
        <ele>306</ele>
        <time>2026-05-10T07:19:01.000Z</time>
      </trkpt>
      <trkpt lat="45.84767" lon="3.53012">
        <ele>306</ele>
        <time>2026-05-10T07:19:02.000Z</time>
      </trkpt>
      <trkpt lat="45.84768" lon="3.53014">
        <ele>306</ele>
        <time>2026-05-10T07:19:03.000Z</time>
      </trkpt>
      <trkpt lat="45.84768" lon="3.53016">
        <ele>306</ele>
        <time>2026-05-10T07:19:04.000Z</time>
      </trkpt>
      <trkpt lat="45.84769" lon="3.53017">
        <ele>306</ele>
        <time>2026-05-10T07:19:05.000Z</time>
      </trkpt>
      <trkpt lat="45.84769" lon="3.53018">
        <ele>306</ele>
        <time>2026-05-10T07:19:06.000Z</time>
      </trkpt>
      <trkpt lat="45.8477" lon="3.5302">
        <ele>306</ele>
        <time>2026-05-10T07:19:07.000Z</time>
      </trkpt>
      <trkpt lat="45.8477" lon="3.53022">
        <ele>306</ele>
        <time>2026-05-10T07:19:08.000Z</time>
      </trkpt>
      <trkpt lat="45.8477" lon="3.53023">
        <ele>306</ele>
        <time>2026-05-10T07:19:09.000Z</time>
      </trkpt>
      <trkpt lat="45.84771" lon="3.53025">
        <ele>306</ele>
        <time>2026-05-10T07:19:10.000Z</time>
      </trkpt>
      <trkpt lat="45.84771" lon="3.53026">
        <ele>306</ele>
        <time>2026-05-10T07:19:11.000Z</time>
      </trkpt>
      <trkpt lat="45.84772" lon="3.53028">
        <ele>306</ele>
        <time>2026-05-10T07:19:12.000Z</time>
      </trkpt>
      <trkpt lat="45.84772" lon="3.53029">
        <ele>306</ele>
        <time>2026-05-10T07:19:13.000Z</time>
      </trkpt>
      <trkpt lat="45.84773" lon="3.53031">
        <ele>306</ele>
        <time>2026-05-10T07:19:14.000Z</time>
      </trkpt>
      <trkpt lat="45.84773" lon="3.53033">
        <ele>306</ele>
        <time>2026-05-10T07:19:15.000Z</time>
      </trkpt>
      <trkpt lat="45.84773" lon="3.53035">
        <ele>306</ele>
        <time>2026-05-10T07:19:16.000Z</time>
      </trkpt>
      <trkpt lat="45.84774" lon="3.53037">
        <ele>306</ele>
        <time>2026-05-10T07:19:17.000Z</time>
      </trkpt>
      <trkpt lat="45.84775" lon="3.53039">
        <ele>306</ele>
        <time>2026-05-10T07:19:18.000Z</time>
      </trkpt>
      <trkpt lat="45.84775" lon="3.53041">
        <ele>306</ele>
        <time>2026-05-10T07:19:19.000Z</time>
      </trkpt>
      <trkpt lat="45.84776" lon="3.53043">
        <ele>306</ele>
        <time>2026-05-10T07:19:20.000Z</time>
      </trkpt>
      <trkpt lat="45.84776" lon="3.53045">
        <ele>306</ele>
        <time>2026-05-10T07:19:21.000Z</time>
      </trkpt>
      <trkpt lat="45.84776" lon="3.53046">
        <ele>306</ele>
        <time>2026-05-10T07:19:22.000Z</time>
      </trkpt>
      <trkpt lat="45.84777" lon="3.53048">
        <ele>306</ele>
        <time>2026-05-10T07:19:23.000Z</time>
      </trkpt>
      <trkpt lat="45.84777" lon="3.53049">
        <ele>306</ele>
        <time>2026-05-10T07:19:24.000Z</time>
      </trkpt>
      <trkpt lat="45.84777" lon="3.53051">
        <ele>306</ele>
        <time>2026-05-10T07:19:25.000Z</time>
      </trkpt>
      <trkpt lat="45.84778" lon="3.53052">
        <ele>306</ele>
        <time>2026-05-10T07:19:26.000Z</time>
      </trkpt>
      <trkpt lat="45.84778" lon="3.53054">
        <ele>306</ele>
        <time>2026-05-10T07:19:27.000Z</time>
      </trkpt>
      <trkpt lat="45.84779" lon="3.53055">
        <ele>306</ele>
        <time>2026-05-10T07:19:28.000Z</time>
      </trkpt>
      <trkpt lat="45.84779" lon="3.53057">
        <ele>306</ele>
        <time>2026-05-10T07:19:29.000Z</time>
      </trkpt>
      <trkpt lat="45.84779" lon="3.53059">
        <ele>306</ele>
        <time>2026-05-10T07:19:30.000Z</time>
      </trkpt>
      <trkpt lat="45.8478" lon="3.53061">
        <ele>306</ele>
        <time>2026-05-10T07:19:31.000Z</time>
      </trkpt>
      <trkpt lat="45.8478" lon="3.53062">
        <ele>306</ele>
        <time>2026-05-10T07:19:32.000Z</time>
      </trkpt>
      <trkpt lat="45.84781" lon="3.53064">
        <ele>306</ele>
        <time>2026-05-10T07:19:33.000Z</time>
      </trkpt>
      <trkpt lat="45.84781" lon="3.53066">
        <ele>306</ele>
        <time>2026-05-10T07:19:34.000Z</time>
      </trkpt>
      <trkpt lat="45.84782" lon="3.53067">
        <ele>306</ele>
        <time>2026-05-10T07:19:35.000Z</time>
      </trkpt>
      <trkpt lat="45.84782" lon="3.53069">
        <ele>306</ele>
        <time>2026-05-10T07:19:36.000Z</time>
      </trkpt>
      <trkpt lat="45.84783" lon="3.53071">
        <ele>306</ele>
        <time>2026-05-10T07:19:37.000Z</time>
      </trkpt>
      <trkpt lat="45.84783" lon="3.53072">
        <ele>306</ele>
        <time>2026-05-10T07:19:38.000Z</time>
      </trkpt>
      <trkpt lat="45.84783" lon="3.53074">
        <ele>306</ele>
        <time>2026-05-10T07:19:39.000Z</time>
      </trkpt>
      <trkpt lat="45.84784" lon="3.53076">
        <ele>306</ele>
        <time>2026-05-10T07:19:40.000Z</time>
      </trkpt>
      <trkpt lat="45.84784" lon="3.53077">
        <ele>306</ele>
        <time>2026-05-10T07:19:41.000Z</time>
      </trkpt>
      <trkpt lat="45.84785" lon="3.53079">
        <ele>306</ele>
        <time>2026-05-10T07:19:42.000Z</time>
      </trkpt>
      <trkpt lat="45.84785" lon="3.53081">
        <ele>306</ele>
        <time>2026-05-10T07:19:43.000Z</time>
      </trkpt>
      <trkpt lat="45.84786" lon="3.53082">
        <ele>306</ele>
        <time>2026-05-10T07:19:44.000Z</time>
      </trkpt>
      <trkpt lat="45.84786" lon="3.53083">
        <ele>306</ele>
        <time>2026-05-10T07:19:45.000Z</time>
      </trkpt>
      <trkpt lat="45.84786" lon="3.53085">
        <ele>306</ele>
        <time>2026-05-10T07:19:46.000Z</time>
      </trkpt>
      <trkpt lat="45.84787" lon="3.53087">
        <ele>306</ele>
        <time>2026-05-10T07:19:47.000Z</time>
      </trkpt>
      <trkpt lat="45.84787" lon="3.53088">
        <ele>306</ele>
        <time>2026-05-10T07:19:48.000Z</time>
      </trkpt>
      <trkpt lat="45.84788" lon="3.5309">
        <ele>306</ele>
        <time>2026-05-10T07:19:49.000Z</time>
      </trkpt>
      <trkpt lat="45.84788" lon="3.53092">
        <ele>306</ele>
        <time>2026-05-10T07:19:50.000Z</time>
      </trkpt>
      <trkpt lat="45.84789" lon="3.53093">
        <ele>306</ele>
        <time>2026-05-10T07:19:51.000Z</time>
      </trkpt>
      <trkpt lat="45.8479" lon="3.53095">
        <ele>306</ele>
        <time>2026-05-10T07:19:52.000Z</time>
      </trkpt>
      <trkpt lat="45.8479" lon="3.53096">
        <ele>306</ele>
        <time>2026-05-10T07:19:53.000Z</time>
      </trkpt>
      <trkpt lat="45.84791" lon="3.53098">
        <ele>306</ele>
        <time>2026-05-10T07:19:54.000Z</time>
      </trkpt>
      <trkpt lat="45.84791" lon="3.53099">
        <ele>306</ele>
        <time>2026-05-10T07:19:55.000Z</time>
      </trkpt>
      <trkpt lat="45.84792" lon="3.531">
        <ele>306</ele>
        <time>2026-05-10T07:19:56.000Z</time>
      </trkpt>
      <trkpt lat="45.84792" lon="3.53102">
        <ele>306</ele>
        <time>2026-05-10T07:19:57.000Z</time>
      </trkpt>
      <trkpt lat="45.84793" lon="3.53104">
        <ele>306</ele>
        <time>2026-05-10T07:19:58.000Z</time>
      </trkpt>
      <trkpt lat="45.84793" lon="3.53105">
        <ele>306</ele>
        <time>2026-05-10T07:19:59.000Z</time>
      </trkpt>
      <trkpt lat="45.84793" lon="3.53107">
        <ele>306</ele>
        <time>2026-05-10T07:20:00.000Z</time>
      </trkpt>
      <trkpt lat="45.84794" lon="3.53109">
        <ele>306</ele>
        <time>2026-05-10T07:20:01.000Z</time>
      </trkpt>
      <trkpt lat="45.84794" lon="3.5311">
        <ele>306</ele>
        <time>2026-05-10T07:20:02.000Z</time>
      </trkpt>
      <trkpt lat="45.84795" lon="3.53112">
        <ele>306</ele>
        <time>2026-05-10T07:20:03.000Z</time>
      </trkpt>
      <trkpt lat="45.84795" lon="3.53113">
        <ele>306</ele>
        <time>2026-05-10T07:20:04.000Z</time>
      </trkpt>
      <trkpt lat="45.84795" lon="3.53115">
        <ele>306</ele>
        <time>2026-05-10T07:20:05.000Z</time>
      </trkpt>
      <trkpt lat="45.84796" lon="3.53116">
        <ele>306</ele>
        <time>2026-05-10T07:20:06.000Z</time>
      </trkpt>
      <trkpt lat="45.84796" lon="3.53118">
        <ele>306</ele>
        <time>2026-05-10T07:20:07.000Z</time>
      </trkpt>
      <trkpt lat="45.84796" lon="3.5312">
        <ele>306</ele>
        <time>2026-05-10T07:20:08.000Z</time>
      </trkpt>
      <trkpt lat="45.84797" lon="3.53121">
        <ele>306</ele>
        <time>2026-05-10T07:20:09.000Z</time>
      </trkpt>
      <trkpt lat="45.84797" lon="3.53123">
        <ele>306</ele>
        <time>2026-05-10T07:20:10.000Z</time>
      </trkpt>
      <trkpt lat="45.84798" lon="3.53125">
        <ele>306</ele>
        <time>2026-05-10T07:20:11.000Z</time>
      </trkpt>
      <trkpt lat="45.84798" lon="3.53127">
        <ele>306</ele>
        <time>2026-05-10T07:20:12.000Z</time>
      </trkpt>
      <trkpt lat="45.84799" lon="3.53128">
        <ele>306</ele>
        <time>2026-05-10T07:20:13.000Z</time>
      </trkpt>
      <trkpt lat="45.84799" lon="3.5313">
        <ele>306</ele>
        <time>2026-05-10T07:20:14.000Z</time>
      </trkpt>
      <trkpt lat="45.848" lon="3.53132">
        <ele>306</ele>
        <time>2026-05-10T07:20:15.000Z</time>
      </trkpt>
      <trkpt lat="45.848" lon="3.53133">
        <ele>306</ele>
        <time>2026-05-10T07:20:16.000Z</time>
      </trkpt>
      <trkpt lat="45.84801" lon="3.53135">
        <ele>306</ele>
        <time>2026-05-10T07:20:17.000Z</time>
      </trkpt>
      <trkpt lat="45.84801" lon="3.53137">
        <ele>306</ele>
        <time>2026-05-10T07:20:18.000Z</time>
      </trkpt>
      <trkpt lat="45.84802" lon="3.53138">
        <ele>306</ele>
        <time>2026-05-10T07:20:19.000Z</time>
      </trkpt>
      <trkpt lat="45.84802" lon="3.5314">
        <ele>306</ele>
        <time>2026-05-10T07:20:20.000Z</time>
      </trkpt>
      <trkpt lat="45.84803" lon="3.53141">
        <ele>306</ele>
        <time>2026-05-10T07:20:21.000Z</time>
      </trkpt>
      <trkpt lat="45.84804" lon="3.53143">
        <ele>306</ele>
        <time>2026-05-10T07:20:22.000Z</time>
      </trkpt>
      <trkpt lat="45.84805" lon="3.53144">
        <ele>306</ele>
        <time>2026-05-10T07:20:23.000Z</time>
      </trkpt>
      <trkpt lat="45.84805" lon="3.53145">
        <ele>306</ele>
        <time>2026-05-10T07:20:24.000Z</time>
      </trkpt>
      <trkpt lat="45.84806" lon="3.53147">
        <ele>306</ele>
        <time>2026-05-10T07:20:25.000Z</time>
      </trkpt>
      <trkpt lat="45.84806" lon="3.53149">
        <ele>306</ele>
        <time>2026-05-10T07:20:26.000Z</time>
      </trkpt>
      <trkpt lat="45.84807" lon="3.5315">
        <ele>306</ele>
        <time>2026-05-10T07:20:27.000Z</time>
      </trkpt>
      <trkpt lat="45.84807" lon="3.53152">
        <ele>306</ele>
        <time>2026-05-10T07:20:28.000Z</time>
      </trkpt>
      <trkpt lat="45.84808" lon="3.53154">
        <ele>306</ele>
        <time>2026-05-10T07:20:29.000Z</time>
      </trkpt>
      <trkpt lat="45.84809" lon="3.53156">
        <ele>305.9</ele>
        <time>2026-05-10T07:20:30.000Z</time>
      </trkpt>
      <trkpt lat="45.84809" lon="3.53158">
        <ele>305.9</ele>
        <time>2026-05-10T07:20:31.000Z</time>
      </trkpt>
      <trkpt lat="45.8481" lon="3.53159">
        <ele>305.9</ele>
        <time>2026-05-10T07:20:32.000Z</time>
      </trkpt>
      <trkpt lat="45.8481" lon="3.53161">
        <ele>305.9</ele>
        <time>2026-05-10T07:20:33.000Z</time>
      </trkpt>
      <trkpt lat="45.8481" lon="3.53162">
        <ele>305.9</ele>
        <time>2026-05-10T07:20:34.000Z</time>
      </trkpt>
      <trkpt lat="45.84811" lon="3.53164">
        <ele>305.8</ele>
        <time>2026-05-10T07:20:35.000Z</time>
      </trkpt>
      <trkpt lat="45.84811" lon="3.53165">
        <ele>305.8</ele>
        <time>2026-05-10T07:20:36.000Z</time>
      </trkpt>
      <trkpt lat="45.84812" lon="3.53166">
        <ele>305.8</ele>
        <time>2026-05-10T07:20:37.000Z</time>
      </trkpt>
      <trkpt lat="45.84813" lon="3.53167">
        <ele>305.7</ele>
        <time>2026-05-10T07:20:38.000Z</time>
      </trkpt>
      <trkpt lat="45.84813" lon="3.53169">
        <ele>305.7</ele>
        <time>2026-05-10T07:20:39.000Z</time>
      </trkpt>
      <trkpt lat="45.84814" lon="3.5317">
        <ele>305.7</ele>
        <time>2026-05-10T07:20:40.000Z</time>
      </trkpt>
      <trkpt lat="45.84814" lon="3.53172">
        <ele>305.8</ele>
        <time>2026-05-10T07:20:41.000Z</time>
      </trkpt>
      <trkpt lat="45.84814" lon="3.53173">
        <ele>305.8</ele>
        <time>2026-05-10T07:20:42.000Z</time>
      </trkpt>
      <trkpt lat="45.84815" lon="3.53175">
        <ele>305.8</ele>
        <time>2026-05-10T07:20:43.000Z</time>
      </trkpt>
      <trkpt lat="45.84815" lon="3.53176">
        <ele>305.8</ele>
        <time>2026-05-10T07:20:44.000Z</time>
      </trkpt>
      <trkpt lat="45.84815" lon="3.53178">
        <ele>305.8</ele>
        <time>2026-05-10T07:20:45.000Z</time>
      </trkpt>
      <trkpt lat="45.84816" lon="3.53179">
        <ele>305.8</ele>
        <time>2026-05-10T07:20:46.000Z</time>
      </trkpt>
      <trkpt lat="45.84816" lon="3.53181">
        <ele>305.8</ele>
        <time>2026-05-10T07:20:47.000Z</time>
      </trkpt>
      <trkpt lat="45.84817" lon="3.53183">
        <ele>305.8</ele>
        <time>2026-05-10T07:20:48.000Z</time>
      </trkpt>
      <trkpt lat="45.84817" lon="3.53185">
        <ele>305.9</ele>
        <time>2026-05-10T07:20:49.000Z</time>
      </trkpt>
      <trkpt lat="45.84818" lon="3.53187">
        <ele>305.9</ele>
        <time>2026-05-10T07:20:50.000Z</time>
      </trkpt>
      <trkpt lat="45.84818" lon="3.53188">
        <ele>305.9</ele>
        <time>2026-05-10T07:20:51.000Z</time>
      </trkpt>
      <trkpt lat="45.84819" lon="3.53189">
        <ele>305.9</ele>
        <time>2026-05-10T07:20:52.000Z</time>
      </trkpt>
      <trkpt lat="45.84819" lon="3.53191">
        <ele>305.9</ele>
        <time>2026-05-10T07:20:53.000Z</time>
      </trkpt>
      <trkpt lat="45.8482" lon="3.53193">
        <ele>306</ele>
        <time>2026-05-10T07:20:54.000Z</time>
      </trkpt>
      <trkpt lat="45.8482" lon="3.53195">
        <ele>306</ele>
        <time>2026-05-10T07:20:55.000Z</time>
      </trkpt>
      <trkpt lat="45.84821" lon="3.53196">
        <ele>306</ele>
        <time>2026-05-10T07:20:56.000Z</time>
      </trkpt>
      <trkpt lat="45.84821" lon="3.53198">
        <ele>306</ele>
        <time>2026-05-10T07:20:57.000Z</time>
      </trkpt>
      <trkpt lat="45.84822" lon="3.53199">
        <ele>306</ele>
        <time>2026-05-10T07:20:58.000Z</time>
      </trkpt>
      <trkpt lat="45.84822" lon="3.53201">
        <ele>306</ele>
        <time>2026-05-10T07:20:59.000Z</time>
      </trkpt>
      <trkpt lat="45.84823" lon="3.53203">
        <ele>306</ele>
        <time>2026-05-10T07:21:00.000Z</time>
      </trkpt>
      <trkpt lat="45.84823" lon="3.53204">
        <ele>306</ele>
        <time>2026-05-10T07:21:01.000Z</time>
      </trkpt>
      <trkpt lat="45.84824" lon="3.53206">
        <ele>306</ele>
        <time>2026-05-10T07:21:02.000Z</time>
      </trkpt>
      <trkpt lat="45.84824" lon="3.53208">
        <ele>306</ele>
        <time>2026-05-10T07:21:03.000Z</time>
      </trkpt>
      <trkpt lat="45.84825" lon="3.53209">
        <ele>306</ele>
        <time>2026-05-10T07:21:04.000Z</time>
      </trkpt>
      <trkpt lat="45.84825" lon="3.53211">
        <ele>306</ele>
        <time>2026-05-10T07:21:05.000Z</time>
      </trkpt>
      <trkpt lat="45.84826" lon="3.53213">
        <ele>306</ele>
        <time>2026-05-10T07:21:06.000Z</time>
      </trkpt>
      <trkpt lat="45.84826" lon="3.53215">
        <ele>306</ele>
        <time>2026-05-10T07:21:07.000Z</time>
      </trkpt>
      <trkpt lat="45.84827" lon="3.53216">
        <ele>306</ele>
        <time>2026-05-10T07:21:08.000Z</time>
      </trkpt>
      <trkpt lat="45.84827" lon="3.53218">
        <ele>306</ele>
        <time>2026-05-10T07:21:09.000Z</time>
      </trkpt>
      <trkpt lat="45.84827" lon="3.53219">
        <ele>306</ele>
        <time>2026-05-10T07:21:10.000Z</time>
      </trkpt>
      <trkpt lat="45.84827" lon="3.53221">
        <ele>306</ele>
        <time>2026-05-10T07:21:11.000Z</time>
      </trkpt>
      <trkpt lat="45.84828" lon="3.53222">
        <ele>306</ele>
        <time>2026-05-10T07:21:12.000Z</time>
      </trkpt>
      <trkpt lat="45.84828" lon="3.53224">
        <ele>306</ele>
        <time>2026-05-10T07:21:13.000Z</time>
      </trkpt>
      <trkpt lat="45.84828" lon="3.53226">
        <ele>306</ele>
        <time>2026-05-10T07:21:14.000Z</time>
      </trkpt>
      <trkpt lat="45.84829" lon="3.53227">
        <ele>306</ele>
        <time>2026-05-10T07:21:15.000Z</time>
      </trkpt>
      <trkpt lat="45.8483" lon="3.53229">
        <ele>306</ele>
        <time>2026-05-10T07:21:16.000Z</time>
      </trkpt>
      <trkpt lat="45.8483" lon="3.53231">
        <ele>306</ele>
        <time>2026-05-10T07:21:17.000Z</time>
      </trkpt>
      <trkpt lat="45.84831" lon="3.53233">
        <ele>306</ele>
        <time>2026-05-10T07:21:18.000Z</time>
      </trkpt>
      <trkpt lat="45.84831" lon="3.53235">
        <ele>306</ele>
        <time>2026-05-10T07:21:19.000Z</time>
      </trkpt>
      <trkpt lat="45.84832" lon="3.53237">
        <ele>306</ele>
        <time>2026-05-10T07:21:20.000Z</time>
      </trkpt>
      <trkpt lat="45.84833" lon="3.53238">
        <ele>306</ele>
        <time>2026-05-10T07:21:21.000Z</time>
      </trkpt>
      <trkpt lat="45.84833" lon="3.5324">
        <ele>306</ele>
        <time>2026-05-10T07:21:22.000Z</time>
      </trkpt>
      <trkpt lat="45.84834" lon="3.53241">
        <ele>306</ele>
        <time>2026-05-10T07:21:23.000Z</time>
      </trkpt>
      <trkpt lat="45.84835" lon="3.53243">
        <ele>306</ele>
        <time>2026-05-10T07:21:24.000Z</time>
      </trkpt>
      <trkpt lat="45.84835" lon="3.53245">
        <ele>305.9</ele>
        <time>2026-05-10T07:21:25.000Z</time>
      </trkpt>
      <trkpt lat="45.84836" lon="3.53246">
        <ele>305.9</ele>
        <time>2026-05-10T07:21:26.000Z</time>
      </trkpt>
      <trkpt lat="45.84836" lon="3.53248">
        <ele>305.9</ele>
        <time>2026-05-10T07:21:27.000Z</time>
      </trkpt>
      <trkpt lat="45.84837" lon="3.5325">
        <ele>305.9</ele>
        <time>2026-05-10T07:21:28.000Z</time>
      </trkpt>
      <trkpt lat="45.84837" lon="3.53251">
        <ele>305.9</ele>
        <time>2026-05-10T07:21:29.000Z</time>
      </trkpt>
      <trkpt lat="45.84838" lon="3.53253">
        <ele>305.9</ele>
        <time>2026-05-10T07:21:30.000Z</time>
      </trkpt>
      <trkpt lat="45.84838" lon="3.53255">
        <ele>305.8</ele>
        <time>2026-05-10T07:21:31.000Z</time>
      </trkpt>
      <trkpt lat="45.84839" lon="3.53257">
        <ele>305.8</ele>
        <time>2026-05-10T07:21:32.000Z</time>
      </trkpt>
      <trkpt lat="45.8484" lon="3.53259">
        <ele>305.8</ele>
        <time>2026-05-10T07:21:33.000Z</time>
      </trkpt>
      <trkpt lat="45.8484" lon="3.53261">
        <ele>305.9</ele>
        <time>2026-05-10T07:21:34.000Z</time>
      </trkpt>
      <trkpt lat="45.8484" lon="3.53263">
        <ele>305.9</ele>
        <time>2026-05-10T07:21:35.000Z</time>
      </trkpt>
      <trkpt lat="45.84841" lon="3.53264">
        <ele>305.9</ele>
        <time>2026-05-10T07:21:36.000Z</time>
      </trkpt>
      <trkpt lat="45.84841" lon="3.53266">
        <ele>305.9</ele>
        <time>2026-05-10T07:21:37.000Z</time>
      </trkpt>
      <trkpt lat="45.84842" lon="3.53267">
        <ele>305.9</ele>
        <time>2026-05-10T07:21:38.000Z</time>
      </trkpt>
      <trkpt lat="45.84842" lon="3.53269">
        <ele>305.9</ele>
        <time>2026-05-10T07:21:39.000Z</time>
      </trkpt>
      <trkpt lat="45.84842" lon="3.5327">
        <ele>305.9</ele>
        <time>2026-05-10T07:21:40.000Z</time>
      </trkpt>
      <trkpt lat="45.84842" lon="3.53272">
        <ele>305.9</ele>
        <time>2026-05-10T07:21:41.000Z</time>
      </trkpt>
      <trkpt lat="45.84843" lon="3.53274">
        <ele>305.9</ele>
        <time>2026-05-10T07:21:42.000Z</time>
      </trkpt>
      <trkpt lat="45.84843" lon="3.53275">
        <ele>306</ele>
        <time>2026-05-10T07:21:43.000Z</time>
      </trkpt>
      <trkpt lat="45.84844" lon="3.53276">
        <ele>306</ele>
        <time>2026-05-10T07:21:44.000Z</time>
      </trkpt>
      <trkpt lat="45.84845" lon="3.53278">
        <ele>306</ele>
        <time>2026-05-10T07:21:45.000Z</time>
      </trkpt>
      <trkpt lat="45.84845" lon="3.53279">
        <ele>306</ele>
        <time>2026-05-10T07:21:46.000Z</time>
      </trkpt>
      <trkpt lat="45.84845" lon="3.5328">
        <ele>306</ele>
        <time>2026-05-10T07:21:47.000Z</time>
      </trkpt>
      <trkpt lat="45.84845" lon="3.53282">
        <ele>306</ele>
        <time>2026-05-10T07:21:48.000Z</time>
      </trkpt>
      <trkpt lat="45.84846" lon="3.53283">
        <ele>306</ele>
        <time>2026-05-10T07:21:49.000Z</time>
      </trkpt>
      <trkpt lat="45.84846" lon="3.53284">
        <ele>306</ele>
        <time>2026-05-10T07:21:50.000Z</time>
      </trkpt>
      <trkpt lat="45.84846" lon="3.53286">
        <ele>306</ele>
        <time>2026-05-10T07:21:51.000Z</time>
      </trkpt>
      <trkpt lat="45.84847" lon="3.53288">
        <ele>306</ele>
        <time>2026-05-10T07:21:52.000Z</time>
      </trkpt>
      <trkpt lat="45.84847" lon="3.53289">
        <ele>306</ele>
        <time>2026-05-10T07:21:53.000Z</time>
      </trkpt>
      <trkpt lat="45.84848" lon="3.53291">
        <ele>306</ele>
        <time>2026-05-10T07:21:54.000Z</time>
      </trkpt>
      <trkpt lat="45.84848" lon="3.53292">
        <ele>306</ele>
        <time>2026-05-10T07:21:55.000Z</time>
      </trkpt>
      <trkpt lat="45.84849" lon="3.53294">
        <ele>306</ele>
        <time>2026-05-10T07:21:56.000Z</time>
      </trkpt>
      <trkpt lat="45.84849" lon="3.53296">
        <ele>306</ele>
        <time>2026-05-10T07:21:57.000Z</time>
      </trkpt>
      <trkpt lat="45.8485" lon="3.53297">
        <ele>306</ele>
        <time>2026-05-10T07:21:58.000Z</time>
      </trkpt>
      <trkpt lat="45.84851" lon="3.53299">
        <ele>306</ele>
        <time>2026-05-10T07:21:59.000Z</time>
      </trkpt>
      <trkpt lat="45.84851" lon="3.533">
        <ele>306</ele>
        <time>2026-05-10T07:22:00.000Z</time>
      </trkpt>
      <trkpt lat="45.84852" lon="3.53302">
        <ele>306</ele>
        <time>2026-05-10T07:22:01.000Z</time>
      </trkpt>
      <trkpt lat="45.84852" lon="3.53303">
        <ele>306</ele>
        <time>2026-05-10T07:22:02.000Z</time>
      </trkpt>
      <trkpt lat="45.84853" lon="3.53305">
        <ele>306</ele>
        <time>2026-05-10T07:22:03.000Z</time>
      </trkpt>
      <trkpt lat="45.84853" lon="3.53306">
        <ele>306</ele>
        <time>2026-05-10T07:22:04.000Z</time>
      </trkpt>
      <trkpt lat="45.84854" lon="3.53308">
        <ele>306</ele>
        <time>2026-05-10T07:22:05.000Z</time>
      </trkpt>
      <trkpt lat="45.84855" lon="3.5331">
        <ele>306</ele>
        <time>2026-05-10T07:22:06.000Z</time>
      </trkpt>
      <trkpt lat="45.84856" lon="3.53312">
        <ele>306</ele>
        <time>2026-05-10T07:22:07.000Z</time>
      </trkpt>
      <trkpt lat="45.84856" lon="3.53314">
        <ele>306.1</ele>
        <time>2026-05-10T07:22:08.000Z</time>
      </trkpt>
      <trkpt lat="45.84857" lon="3.53316">
        <ele>306.1</ele>
        <time>2026-05-10T07:22:09.000Z</time>
      </trkpt>
      <trkpt lat="45.84857" lon="3.53318">
        <ele>306.1</ele>
        <time>2026-05-10T07:22:10.000Z</time>
      </trkpt>
      <trkpt lat="45.84857" lon="3.53319">
        <ele>306.1</ele>
        <time>2026-05-10T07:22:11.000Z</time>
      </trkpt>
      <trkpt lat="45.84858" lon="3.53321">
        <ele>306.1</ele>
        <time>2026-05-10T07:22:12.000Z</time>
      </trkpt>
      <trkpt lat="45.84858" lon="3.53322">
        <ele>306.1</ele>
        <time>2026-05-10T07:22:13.000Z</time>
      </trkpt>
      <trkpt lat="45.84859" lon="3.53324">
        <ele>306.1</ele>
        <time>2026-05-10T07:22:14.000Z</time>
      </trkpt>
      <trkpt lat="45.8486" lon="3.53326">
        <ele>306</ele>
        <time>2026-05-10T07:22:15.000Z</time>
      </trkpt>
      <trkpt lat="45.8486" lon="3.53328">
        <ele>306</ele>
        <time>2026-05-10T07:22:16.000Z</time>
      </trkpt>
      <trkpt lat="45.84861" lon="3.5333">
        <ele>306</ele>
        <time>2026-05-10T07:22:17.000Z</time>
      </trkpt>
      <trkpt lat="45.84861" lon="3.53332">
        <ele>306</ele>
        <time>2026-05-10T07:22:18.000Z</time>
      </trkpt>
      <trkpt lat="45.84862" lon="3.53334">
        <ele>306</ele>
        <time>2026-05-10T07:22:19.000Z</time>
      </trkpt>
      <trkpt lat="45.84862" lon="3.53335">
        <ele>306</ele>
        <time>2026-05-10T07:22:20.000Z</time>
      </trkpt>
      <trkpt lat="45.84863" lon="3.53336">
        <ele>306</ele>
        <time>2026-05-10T07:22:21.000Z</time>
      </trkpt>
      <trkpt lat="45.84863" lon="3.53338">
        <ele>306</ele>
        <time>2026-05-10T07:22:22.000Z</time>
      </trkpt>
      <trkpt lat="45.84864" lon="3.53339">
        <ele>306</ele>
        <time>2026-05-10T07:22:23.000Z</time>
      </trkpt>
      <trkpt lat="45.84864" lon="3.53341">
        <ele>306</ele>
        <time>2026-05-10T07:22:24.000Z</time>
      </trkpt>
      <trkpt lat="45.84865" lon="3.53342">
        <ele>306</ele>
        <time>2026-05-10T07:22:25.000Z</time>
      </trkpt>
      <trkpt lat="45.84866" lon="3.53344">
        <ele>306</ele>
        <time>2026-05-10T07:22:26.000Z</time>
      </trkpt>
      <trkpt lat="45.84866" lon="3.53345">
        <ele>306</ele>
        <time>2026-05-10T07:22:27.000Z</time>
      </trkpt>
      <trkpt lat="45.84867" lon="3.53347">
        <ele>306</ele>
        <time>2026-05-10T07:22:28.000Z</time>
      </trkpt>
      <trkpt lat="45.84868" lon="3.53349">
        <ele>306</ele>
        <time>2026-05-10T07:22:29.000Z</time>
      </trkpt>
      <trkpt lat="45.84868" lon="3.5335">
        <ele>306</ele>
        <time>2026-05-10T07:22:30.000Z</time>
      </trkpt>
      <trkpt lat="45.84869" lon="3.53352">
        <ele>306</ele>
        <time>2026-05-10T07:22:31.000Z</time>
      </trkpt>
      <trkpt lat="45.8487" lon="3.53353">
        <ele>306</ele>
        <time>2026-05-10T07:22:32.000Z</time>
      </trkpt>
      <trkpt lat="45.84871" lon="3.53355">
        <ele>306</ele>
        <time>2026-05-10T07:22:33.000Z</time>
      </trkpt>
      <trkpt lat="45.84871" lon="3.53357">
        <ele>306</ele>
        <time>2026-05-10T07:22:34.000Z</time>
      </trkpt>
      <trkpt lat="45.84872" lon="3.53358">
        <ele>306</ele>
        <time>2026-05-10T07:22:35.000Z</time>
      </trkpt>
      <trkpt lat="45.84872" lon="3.5336">
        <ele>306</ele>
        <time>2026-05-10T07:22:36.000Z</time>
      </trkpt>
      <trkpt lat="45.84873" lon="3.53362">
        <ele>306</ele>
        <time>2026-05-10T07:22:37.000Z</time>
      </trkpt>
      <trkpt lat="45.84874" lon="3.53363">
        <ele>306</ele>
        <time>2026-05-10T07:22:38.000Z</time>
      </trkpt>
      <trkpt lat="45.84874" lon="3.53365">
        <ele>306.1</ele>
        <time>2026-05-10T07:22:39.000Z</time>
      </trkpt>
      <trkpt lat="45.84874" lon="3.53367">
        <ele>306.1</ele>
        <time>2026-05-10T07:22:40.000Z</time>
      </trkpt>
      <trkpt lat="45.84874" lon="3.53368">
        <ele>306.1</ele>
        <time>2026-05-10T07:22:41.000Z</time>
      </trkpt>
      <trkpt lat="45.84875" lon="3.5337">
        <ele>306.2</ele>
        <time>2026-05-10T07:22:42.000Z</time>
      </trkpt>
      <trkpt lat="45.84875" lon="3.53371">
        <ele>306.2</ele>
        <time>2026-05-10T07:22:43.000Z</time>
      </trkpt>
      <trkpt lat="45.84875" lon="3.53373">
        <ele>306.2</ele>
        <time>2026-05-10T07:22:44.000Z</time>
      </trkpt>
      <trkpt lat="45.84876" lon="3.53375">
        <ele>306.2</ele>
        <time>2026-05-10T07:22:45.000Z</time>
      </trkpt>
      <trkpt lat="45.84876" lon="3.53377">
        <ele>306.3</ele>
        <time>2026-05-10T07:22:46.000Z</time>
      </trkpt>
      <trkpt lat="45.84876" lon="3.53378">
        <ele>306.3</ele>
        <time>2026-05-10T07:22:47.000Z</time>
      </trkpt>
      <trkpt lat="45.84876" lon="3.5338">
        <ele>306.3</ele>
        <time>2026-05-10T07:22:48.000Z</time>
      </trkpt>
      <trkpt lat="45.84877" lon="3.53381">
        <ele>306.3</ele>
        <time>2026-05-10T07:22:49.000Z</time>
      </trkpt>
      <trkpt lat="45.84877" lon="3.53382">
        <ele>306.3</ele>
        <time>2026-05-10T07:22:50.000Z</time>
      </trkpt>
      <trkpt lat="45.84877" lon="3.53383">
        <ele>306.3</ele>
        <time>2026-05-10T07:22:51.000Z</time>
      </trkpt>
      <trkpt lat="45.84878" lon="3.53385">
        <ele>306.3</ele>
        <time>2026-05-10T07:22:52.000Z</time>
      </trkpt>
      <trkpt lat="45.84878" lon="3.53386">
        <ele>306.4</ele>
        <time>2026-05-10T07:22:53.000Z</time>
      </trkpt>
      <trkpt lat="45.84878" lon="3.53388">
        <ele>306.4</ele>
        <time>2026-05-10T07:22:54.000Z</time>
      </trkpt>
      <trkpt lat="45.84879" lon="3.5339">
        <ele>306.4</ele>
        <time>2026-05-10T07:22:55.000Z</time>
      </trkpt>
      <trkpt lat="45.84879" lon="3.53392">
        <ele>306.4</ele>
        <time>2026-05-10T07:22:56.000Z</time>
      </trkpt>
      <trkpt lat="45.8488" lon="3.53393">
        <ele>306.5</ele>
        <time>2026-05-10T07:22:57.000Z</time>
      </trkpt>
      <trkpt lat="45.8488" lon="3.53395">
        <ele>306.5</ele>
        <time>2026-05-10T07:22:58.000Z</time>
      </trkpt>
      <trkpt lat="45.84881" lon="3.53396">
        <ele>306.6</ele>
        <time>2026-05-10T07:22:59.000Z</time>
      </trkpt>
      <trkpt lat="45.84882" lon="3.53398">
        <ele>306.6</ele>
        <time>2026-05-10T07:23:00.000Z</time>
      </trkpt>
      <trkpt lat="45.84882" lon="3.534">
        <ele>306.6</ele>
        <time>2026-05-10T07:23:01.000Z</time>
      </trkpt>
      <trkpt lat="45.84882" lon="3.53402">
        <ele>306.7</ele>
        <time>2026-05-10T07:23:02.000Z</time>
      </trkpt>
      <trkpt lat="45.84883" lon="3.53403">
        <ele>306.7</ele>
        <time>2026-05-10T07:23:03.000Z</time>
      </trkpt>
      <trkpt lat="45.84883" lon="3.53405">
        <ele>306.8</ele>
        <time>2026-05-10T07:23:04.000Z</time>
      </trkpt>
      <trkpt lat="45.84884" lon="3.53407">
        <ele>306.8</ele>
        <time>2026-05-10T07:23:05.000Z</time>
      </trkpt>
      <trkpt lat="45.84884" lon="3.53408">
        <ele>306.9</ele>
        <time>2026-05-10T07:23:06.000Z</time>
      </trkpt>
      <trkpt lat="45.84885" lon="3.5341">
        <ele>306.9</ele>
        <time>2026-05-10T07:23:07.000Z</time>
      </trkpt>
      <trkpt lat="45.84885" lon="3.53411">
        <ele>306.9</ele>
        <time>2026-05-10T07:23:08.000Z</time>
      </trkpt>
      <trkpt lat="45.84885" lon="3.53413">
        <ele>307</ele>
        <time>2026-05-10T07:23:09.000Z</time>
      </trkpt>
      <trkpt lat="45.84886" lon="3.53414">
        <ele>307</ele>
        <time>2026-05-10T07:23:10.000Z</time>
      </trkpt>
      <trkpt lat="45.84886" lon="3.53416">
        <ele>307.1</ele>
        <time>2026-05-10T07:23:11.000Z</time>
      </trkpt>
      <trkpt lat="45.84886" lon="3.53418">
        <ele>307.1</ele>
        <time>2026-05-10T07:23:12.000Z</time>
      </trkpt>
      <trkpt lat="45.84887" lon="3.5342">
        <ele>307.1</ele>
        <time>2026-05-10T07:23:13.000Z</time>
      </trkpt>
      <trkpt lat="45.84887" lon="3.53421">
        <ele>307.1</ele>
        <time>2026-05-10T07:23:14.000Z</time>
      </trkpt>
      <trkpt lat="45.84887" lon="3.53423">
        <ele>307.1</ele>
        <time>2026-05-10T07:23:15.000Z</time>
      </trkpt>
      <trkpt lat="45.84887" lon="3.53424">
        <ele>307.1</ele>
        <time>2026-05-10T07:23:16.000Z</time>
      </trkpt>
      <trkpt lat="45.84887" lon="3.53426">
        <ele>307.1</ele>
        <time>2026-05-10T07:23:17.000Z</time>
      </trkpt>
      <trkpt lat="45.84888" lon="3.53427">
        <ele>307</ele>
        <time>2026-05-10T07:23:18.000Z</time>
      </trkpt>
      <trkpt lat="45.84888" lon="3.53429">
        <ele>307</ele>
        <time>2026-05-10T07:23:19.000Z</time>
      </trkpt>
      <trkpt lat="45.84889" lon="3.5343">
        <ele>307</ele>
        <time>2026-05-10T07:23:20.000Z</time>
      </trkpt>
      <trkpt lat="45.8489" lon="3.53432">
        <ele>307</ele>
        <time>2026-05-10T07:23:21.000Z</time>
      </trkpt>
      <trkpt lat="45.84891" lon="3.53433">
        <ele>307</ele>
        <time>2026-05-10T07:23:22.000Z</time>
      </trkpt>
      <trkpt lat="45.84892" lon="3.53434">
        <ele>307</ele>
        <time>2026-05-10T07:23:23.000Z</time>
      </trkpt>
      <trkpt lat="45.84892" lon="3.53436">
        <ele>307.1</ele>
        <time>2026-05-10T07:23:24.000Z</time>
      </trkpt>
      <trkpt lat="45.84893" lon="3.53438">
        <ele>307.1</ele>
        <time>2026-05-10T07:23:25.000Z</time>
      </trkpt>
      <trkpt lat="45.84894" lon="3.5344">
        <ele>307.1</ele>
        <time>2026-05-10T07:23:26.000Z</time>
      </trkpt>
      <trkpt lat="45.84894" lon="3.53441">
        <ele>307.1</ele>
        <time>2026-05-10T07:23:27.000Z</time>
      </trkpt>
      <trkpt lat="45.84894" lon="3.53443">
        <ele>307.2</ele>
        <time>2026-05-10T07:23:28.000Z</time>
      </trkpt>
      <trkpt lat="45.84894" lon="3.53445">
        <ele>307.2</ele>
        <time>2026-05-10T07:23:29.000Z</time>
      </trkpt>
      <trkpt lat="45.84895" lon="3.53447">
        <ele>307.3</ele>
        <time>2026-05-10T07:23:30.000Z</time>
      </trkpt>
      <trkpt lat="45.84895" lon="3.53449">
        <ele>307.3</ele>
        <time>2026-05-10T07:23:31.000Z</time>
      </trkpt>
      <trkpt lat="45.84896" lon="3.53451">
        <ele>307.4</ele>
        <time>2026-05-10T07:23:32.000Z</time>
      </trkpt>
      <trkpt lat="45.84896" lon="3.53453">
        <ele>307.5</ele>
        <time>2026-05-10T07:23:33.000Z</time>
      </trkpt>
      <trkpt lat="45.84897" lon="3.53455">
        <ele>307.6</ele>
        <time>2026-05-10T07:23:34.000Z</time>
      </trkpt>
      <trkpt lat="45.84898" lon="3.53457">
        <ele>307.6</ele>
        <time>2026-05-10T07:23:35.000Z</time>
      </trkpt>
      <trkpt lat="45.84898" lon="3.53458">
        <ele>307.7</ele>
        <time>2026-05-10T07:23:36.000Z</time>
      </trkpt>
      <trkpt lat="45.84899" lon="3.5346">
        <ele>307.7</ele>
        <time>2026-05-10T07:23:37.000Z</time>
      </trkpt>
      <trkpt lat="45.84899" lon="3.53461">
        <ele>307.8</ele>
        <time>2026-05-10T07:23:38.000Z</time>
      </trkpt>
      <trkpt lat="45.849" lon="3.53463">
        <ele>307.8</ele>
        <time>2026-05-10T07:23:39.000Z</time>
      </trkpt>
      <trkpt lat="45.84901" lon="3.53465">
        <ele>307.9</ele>
        <time>2026-05-10T07:23:40.000Z</time>
      </trkpt>
      <trkpt lat="45.84901" lon="3.53467">
        <ele>307.9</ele>
        <time>2026-05-10T07:23:41.000Z</time>
      </trkpt>
      <trkpt lat="45.84902" lon="3.53468">
        <ele>307.9</ele>
        <time>2026-05-10T07:23:42.000Z</time>
      </trkpt>
      <trkpt lat="45.84902" lon="3.5347">
        <ele>308</ele>
        <time>2026-05-10T07:23:43.000Z</time>
      </trkpt>
      <trkpt lat="45.84903" lon="3.53472">
        <ele>308</ele>
        <time>2026-05-10T07:23:44.000Z</time>
      </trkpt>
      <trkpt lat="45.84903" lon="3.53473">
        <ele>308</ele>
        <time>2026-05-10T07:23:45.000Z</time>
      </trkpt>
      <trkpt lat="45.84904" lon="3.53475">
        <ele>308</ele>
        <time>2026-05-10T07:23:46.000Z</time>
      </trkpt>
      <trkpt lat="45.84904" lon="3.53476">
        <ele>308</ele>
        <time>2026-05-10T07:23:47.000Z</time>
      </trkpt>
      <trkpt lat="45.84905" lon="3.53478">
        <ele>308</ele>
        <time>2026-05-10T07:23:48.000Z</time>
      </trkpt>
      <trkpt lat="45.84905" lon="3.53479">
        <ele>308</ele>
        <time>2026-05-10T07:23:49.000Z</time>
      </trkpt>
      <trkpt lat="45.84906" lon="3.53481">
        <ele>308</ele>
        <time>2026-05-10T07:23:50.000Z</time>
      </trkpt>
      <trkpt lat="45.84906" lon="3.53483">
        <ele>308</ele>
        <time>2026-05-10T07:23:51.000Z</time>
      </trkpt>
      <trkpt lat="45.84907" lon="3.53485">
        <ele>308</ele>
        <time>2026-05-10T07:23:52.000Z</time>
      </trkpt>
      <trkpt lat="45.84907" lon="3.53486">
        <ele>308</ele>
        <time>2026-05-10T07:23:53.000Z</time>
      </trkpt>
      <trkpt lat="45.84908" lon="3.53488">
        <ele>308</ele>
        <time>2026-05-10T07:23:54.000Z</time>
      </trkpt>
      <trkpt lat="45.84909" lon="3.5349">
        <ele>308</ele>
        <time>2026-05-10T07:23:55.000Z</time>
      </trkpt>
      <trkpt lat="45.84909" lon="3.53492">
        <ele>308</ele>
        <time>2026-05-10T07:23:56.000Z</time>
      </trkpt>
      <trkpt lat="45.8491" lon="3.53494">
        <ele>308</ele>
        <time>2026-05-10T07:23:57.000Z</time>
      </trkpt>
      <trkpt lat="45.84911" lon="3.53495">
        <ele>308</ele>
        <time>2026-05-10T07:23:58.000Z</time>
      </trkpt>
      <trkpt lat="45.84911" lon="3.53497">
        <ele>308</ele>
        <time>2026-05-10T07:23:59.000Z</time>
      </trkpt>
      <trkpt lat="45.84912" lon="3.53498">
        <ele>308</ele>
        <time>2026-05-10T07:24:00.000Z</time>
      </trkpt>
      <trkpt lat="45.84913" lon="3.535">
        <ele>308</ele>
        <time>2026-05-10T07:24:01.000Z</time>
      </trkpt>
      <trkpt lat="45.84913" lon="3.53501">
        <ele>308</ele>
        <time>2026-05-10T07:24:02.000Z</time>
      </trkpt>
      <trkpt lat="45.84914" lon="3.53503">
        <ele>308</ele>
        <time>2026-05-10T07:24:03.000Z</time>
      </trkpt>
      <trkpt lat="45.84914" lon="3.53505">
        <ele>308</ele>
        <time>2026-05-10T07:24:04.000Z</time>
      </trkpt>
      <trkpt lat="45.84915" lon="3.53506">
        <ele>308</ele>
        <time>2026-05-10T07:24:05.000Z</time>
      </trkpt>
      <trkpt lat="45.84915" lon="3.53508">
        <ele>308</ele>
        <time>2026-05-10T07:24:06.000Z</time>
      </trkpt>
      <trkpt lat="45.84916" lon="3.53509">
        <ele>308</ele>
        <time>2026-05-10T07:24:07.000Z</time>
      </trkpt>
      <trkpt lat="45.84916" lon="3.53511">
        <ele>308</ele>
        <time>2026-05-10T07:24:08.000Z</time>
      </trkpt>
      <trkpt lat="45.84916" lon="3.53513">
        <ele>308</ele>
        <time>2026-05-10T07:24:09.000Z</time>
      </trkpt>
      <trkpt lat="45.84917" lon="3.53515">
        <ele>308</ele>
        <time>2026-05-10T07:24:10.000Z</time>
      </trkpt>
      <trkpt lat="45.84917" lon="3.53517">
        <ele>308</ele>
        <time>2026-05-10T07:24:11.000Z</time>
      </trkpt>
      <trkpt lat="45.84917" lon="3.53518">
        <ele>308</ele>
        <time>2026-05-10T07:24:12.000Z</time>
      </trkpt>
      <trkpt lat="45.84918" lon="3.5352">
        <ele>308</ele>
        <time>2026-05-10T07:24:13.000Z</time>
      </trkpt>
      <trkpt lat="45.84918" lon="3.53521">
        <ele>308</ele>
        <time>2026-05-10T07:24:14.000Z</time>
      </trkpt>
      <trkpt lat="45.84918" lon="3.53523">
        <ele>308</ele>
        <time>2026-05-10T07:24:15.000Z</time>
      </trkpt>
      <trkpt lat="45.84919" lon="3.53525">
        <ele>307.9</ele>
        <time>2026-05-10T07:24:16.000Z</time>
      </trkpt>
      <trkpt lat="45.84919" lon="3.53527">
        <ele>307.9</ele>
        <time>2026-05-10T07:24:17.000Z</time>
      </trkpt>
      <trkpt lat="45.8492" lon="3.53528">
        <ele>307.9</ele>
        <time>2026-05-10T07:24:18.000Z</time>
      </trkpt>
      <trkpt lat="45.8492" lon="3.5353">
        <ele>307.9</ele>
        <time>2026-05-10T07:24:19.000Z</time>
      </trkpt>
      <trkpt lat="45.84921" lon="3.53532">
        <ele>307.9</ele>
        <time>2026-05-10T07:24:20.000Z</time>
      </trkpt>
      <trkpt lat="45.84922" lon="3.53534">
        <ele>307.8</ele>
        <time>2026-05-10T07:24:21.000Z</time>
      </trkpt>
      <trkpt lat="45.84922" lon="3.53535">
        <ele>307.8</ele>
        <time>2026-05-10T07:24:22.000Z</time>
      </trkpt>
      <trkpt lat="45.84923" lon="3.53536">
        <ele>307.8</ele>
        <time>2026-05-10T07:24:23.000Z</time>
      </trkpt>
      <trkpt lat="45.84923" lon="3.53538">
        <ele>307.8</ele>
        <time>2026-05-10T07:24:24.000Z</time>
      </trkpt>
      <trkpt lat="45.84923" lon="3.53539">
        <ele>307.8</ele>
        <time>2026-05-10T07:24:25.000Z</time>
      </trkpt>
      <trkpt lat="45.84924" lon="3.53541">
        <ele>307.7</ele>
        <time>2026-05-10T07:24:26.000Z</time>
      </trkpt>
      <trkpt lat="45.84924" lon="3.53542">
        <ele>307.7</ele>
        <time>2026-05-10T07:24:27.000Z</time>
      </trkpt>
      <trkpt lat="45.84925" lon="3.53544">
        <ele>307.7</ele>
        <time>2026-05-10T07:24:28.000Z</time>
      </trkpt>
      <trkpt lat="45.84925" lon="3.53545">
        <ele>307.7</ele>
        <time>2026-05-10T07:24:29.000Z</time>
      </trkpt>
      <trkpt lat="45.84926" lon="3.53547">
        <ele>307.7</ele>
        <time>2026-05-10T07:24:30.000Z</time>
      </trkpt>
      <trkpt lat="45.84926" lon="3.53549">
        <ele>307.7</ele>
        <time>2026-05-10T07:24:31.000Z</time>
      </trkpt>
      <trkpt lat="45.84926" lon="3.5355">
        <ele>307.7</ele>
        <time>2026-05-10T07:24:32.000Z</time>
      </trkpt>
      <trkpt lat="45.84926" lon="3.53552">
        <ele>307.6</ele>
        <time>2026-05-10T07:24:33.000Z</time>
      </trkpt>
      <trkpt lat="45.84927" lon="3.53554">
        <ele>307.6</ele>
        <time>2026-05-10T07:24:34.000Z</time>
      </trkpt>
      <trkpt lat="45.84927" lon="3.53556">
        <ele>307.6</ele>
        <time>2026-05-10T07:24:35.000Z</time>
      </trkpt>
      <trkpt lat="45.84927" lon="3.53557">
        <ele>307.6</ele>
        <time>2026-05-10T07:24:36.000Z</time>
      </trkpt>
      <trkpt lat="45.84927" lon="3.53559">
        <ele>307.6</ele>
        <time>2026-05-10T07:24:37.000Z</time>
      </trkpt>
      <trkpt lat="45.84927" lon="3.53561">
        <ele>307.6</ele>
        <time>2026-05-10T07:24:38.000Z</time>
      </trkpt>
      <trkpt lat="45.84927" lon="3.53563">
        <ele>307.6</ele>
        <time>2026-05-10T07:24:39.000Z</time>
      </trkpt>
      <trkpt lat="45.84928" lon="3.53565">
        <ele>307.6</ele>
        <time>2026-05-10T07:24:40.000Z</time>
      </trkpt>
      <trkpt lat="45.84929" lon="3.53566">
        <ele>307.5</ele>
        <time>2026-05-10T07:24:41.000Z</time>
      </trkpt>
      <trkpt lat="45.8493" lon="3.53568">
        <ele>307.5</ele>
        <time>2026-05-10T07:24:42.000Z</time>
      </trkpt>
      <trkpt lat="45.84931" lon="3.5357">
        <ele>307.5</ele>
        <time>2026-05-10T07:24:43.000Z</time>
      </trkpt>
      <trkpt lat="45.84932" lon="3.53571">
        <ele>307.5</ele>
        <time>2026-05-10T07:24:44.000Z</time>
      </trkpt>
      <trkpt lat="45.84932" lon="3.53573">
        <ele>307.4</ele>
        <time>2026-05-10T07:24:45.000Z</time>
      </trkpt>
      <trkpt lat="45.84933" lon="3.53574">
        <ele>307.4</ele>
        <time>2026-05-10T07:24:46.000Z</time>
      </trkpt>
      <trkpt lat="45.84934" lon="3.53576">
        <ele>307.4</ele>
        <time>2026-05-10T07:24:47.000Z</time>
      </trkpt>
      <trkpt lat="45.84934" lon="3.53577">
        <ele>307.4</ele>
        <time>2026-05-10T07:24:48.000Z</time>
      </trkpt>
      <trkpt lat="45.84935" lon="3.53579">
        <ele>307.3</ele>
        <time>2026-05-10T07:24:49.000Z</time>
      </trkpt>
      <trkpt lat="45.84935" lon="3.53581">
        <ele>307.3</ele>
        <time>2026-05-10T07:24:50.000Z</time>
      </trkpt>
      <trkpt lat="45.84936" lon="3.53582">
        <ele>307.3</ele>
        <time>2026-05-10T07:24:51.000Z</time>
      </trkpt>
      <trkpt lat="45.84937" lon="3.53584">
        <ele>307.3</ele>
        <time>2026-05-10T07:24:52.000Z</time>
      </trkpt>
      <trkpt lat="45.84937" lon="3.53585">
        <ele>307.3</ele>
        <time>2026-05-10T07:24:53.000Z</time>
      </trkpt>
      <trkpt lat="45.84938" lon="3.53587">
        <ele>307.2</ele>
        <time>2026-05-10T07:24:54.000Z</time>
      </trkpt>
      <trkpt lat="45.84938" lon="3.53588">
        <ele>307.2</ele>
        <time>2026-05-10T07:24:55.000Z</time>
      </trkpt>
      <trkpt lat="45.84938" lon="3.5359">
        <ele>307.2</ele>
        <time>2026-05-10T07:24:56.000Z</time>
      </trkpt>
      <trkpt lat="45.84939" lon="3.53592">
        <ele>307.2</ele>
        <time>2026-05-10T07:24:57.000Z</time>
      </trkpt>
      <trkpt lat="45.84939" lon="3.53593">
        <ele>307.2</ele>
        <time>2026-05-10T07:24:58.000Z</time>
      </trkpt>
      <trkpt lat="45.8494" lon="3.53595">
        <ele>307.2</ele>
        <time>2026-05-10T07:24:59.000Z</time>
      </trkpt>
      <trkpt lat="45.8494" lon="3.53597">
        <ele>307.1</ele>
        <time>2026-05-10T07:25:00.000Z</time>
      </trkpt>
      <trkpt lat="45.84941" lon="3.53599">
        <ele>307.1</ele>
        <time>2026-05-10T07:25:01.000Z</time>
      </trkpt>
      <trkpt lat="45.84941" lon="3.536">
        <ele>307.1</ele>
        <time>2026-05-10T07:25:02.000Z</time>
      </trkpt>
      <trkpt lat="45.84942" lon="3.53602">
        <ele>307.1</ele>
        <time>2026-05-10T07:25:03.000Z</time>
      </trkpt>
      <trkpt lat="45.84942" lon="3.53604">
        <ele>307.1</ele>
        <time>2026-05-10T07:25:04.000Z</time>
      </trkpt>
      <trkpt lat="45.84943" lon="3.53606">
        <ele>307.1</ele>
        <time>2026-05-10T07:25:05.000Z</time>
      </trkpt>
      <trkpt lat="45.84943" lon="3.53608">
        <ele>307.1</ele>
        <time>2026-05-10T07:25:06.000Z</time>
      </trkpt>
      <trkpt lat="45.84943" lon="3.5361">
        <ele>307</ele>
        <time>2026-05-10T07:25:07.000Z</time>
      </trkpt>
      <trkpt lat="45.84944" lon="3.53611">
        <ele>307</ele>
        <time>2026-05-10T07:25:08.000Z</time>
      </trkpt>
      <trkpt lat="45.84944" lon="3.53613">
        <ele>307</ele>
        <time>2026-05-10T07:25:09.000Z</time>
      </trkpt>
      <trkpt lat="45.84945" lon="3.53614">
        <ele>307</ele>
        <time>2026-05-10T07:25:10.000Z</time>
      </trkpt>
      <trkpt lat="45.84945" lon="3.53616">
        <ele>307</ele>
        <time>2026-05-10T07:25:11.000Z</time>
      </trkpt>
      <trkpt lat="45.84946" lon="3.53618">
        <ele>307</ele>
        <time>2026-05-10T07:25:12.000Z</time>
      </trkpt>
      <trkpt lat="45.84946" lon="3.53619">
        <ele>307</ele>
        <time>2026-05-10T07:25:13.000Z</time>
      </trkpt>
      <trkpt lat="45.84947" lon="3.53621">
        <ele>307</ele>
        <time>2026-05-10T07:25:14.000Z</time>
      </trkpt>
      <trkpt lat="45.84947" lon="3.53623">
        <ele>307</ele>
        <time>2026-05-10T07:25:15.000Z</time>
      </trkpt>
      <trkpt lat="45.84948" lon="3.53624">
        <ele>307</ele>
        <time>2026-05-10T07:25:16.000Z</time>
      </trkpt>
      <trkpt lat="45.84948" lon="3.53626">
        <ele>307</ele>
        <time>2026-05-10T07:25:17.000Z</time>
      </trkpt>
      <trkpt lat="45.84949" lon="3.53627">
        <ele>307</ele>
        <time>2026-05-10T07:25:18.000Z</time>
      </trkpt>
      <trkpt lat="45.84949" lon="3.53628">
        <ele>307</ele>
        <time>2026-05-10T07:25:19.000Z</time>
      </trkpt>
      <trkpt lat="45.8495" lon="3.5363">
        <ele>307</ele>
        <time>2026-05-10T07:25:20.000Z</time>
      </trkpt>
      <trkpt lat="45.8495" lon="3.53631">
        <ele>307</ele>
        <time>2026-05-10T07:25:21.000Z</time>
      </trkpt>
      <trkpt lat="45.8495" lon="3.53633">
        <ele>307</ele>
        <time>2026-05-10T07:25:22.000Z</time>
      </trkpt>
      <trkpt lat="45.84951" lon="3.53634">
        <ele>307</ele>
        <time>2026-05-10T07:25:23.000Z</time>
      </trkpt>
      <trkpt lat="45.84951" lon="3.53636">
        <ele>307</ele>
        <time>2026-05-10T07:25:24.000Z</time>
      </trkpt>
      <trkpt lat="45.84951" lon="3.53638">
        <ele>307</ele>
        <time>2026-05-10T07:25:25.000Z</time>
      </trkpt>
      <trkpt lat="45.84952" lon="3.53639">
        <ele>307</ele>
        <time>2026-05-10T07:25:26.000Z</time>
      </trkpt>
      <trkpt lat="45.84952" lon="3.53641">
        <ele>307</ele>
        <time>2026-05-10T07:25:27.000Z</time>
      </trkpt>
      <trkpt lat="45.84953" lon="3.53642">
        <ele>307.1</ele>
        <time>2026-05-10T07:25:28.000Z</time>
      </trkpt>
      <trkpt lat="45.84953" lon="3.53644">
        <ele>307.1</ele>
        <time>2026-05-10T07:25:29.000Z</time>
      </trkpt>
      <trkpt lat="45.84953" lon="3.53645">
        <ele>307.2</ele>
        <time>2026-05-10T07:25:30.000Z</time>
      </trkpt>
      <trkpt lat="45.84953" lon="3.53646">
        <ele>307.2</ele>
        <time>2026-05-10T07:25:31.000Z</time>
      </trkpt>
      <trkpt lat="45.84954" lon="3.53648">
        <ele>307.2</ele>
        <time>2026-05-10T07:25:32.000Z</time>
      </trkpt>
      <trkpt lat="45.84954" lon="3.5365">
        <ele>307.3</ele>
        <time>2026-05-10T07:25:33.000Z</time>
      </trkpt>
      <trkpt lat="45.84954" lon="3.53651">
        <ele>307.3</ele>
        <time>2026-05-10T07:25:34.000Z</time>
      </trkpt>
      <trkpt lat="45.84954" lon="3.53652">
        <ele>307.3</ele>
        <time>2026-05-10T07:25:35.000Z</time>
      </trkpt>
      <trkpt lat="45.84955" lon="3.53653">
        <ele>307.3</ele>
        <time>2026-05-10T07:25:36.000Z</time>
      </trkpt>
      <trkpt lat="45.84955" lon="3.53655">
        <ele>307.4</ele>
        <time>2026-05-10T07:25:37.000Z</time>
      </trkpt>
      <trkpt lat="45.84955" lon="3.53657">
        <ele>307.4</ele>
        <time>2026-05-10T07:25:38.000Z</time>
      </trkpt>
      <trkpt lat="45.84956" lon="3.53659">
        <ele>307.4</ele>
        <time>2026-05-10T07:25:39.000Z</time>
      </trkpt>
      <trkpt lat="45.84957" lon="3.53661">
        <ele>307.4</ele>
        <time>2026-05-10T07:25:40.000Z</time>
      </trkpt>
      <trkpt lat="45.84957" lon="3.53663">
        <ele>307.5</ele>
        <time>2026-05-10T07:25:41.000Z</time>
      </trkpt>
      <trkpt lat="45.84958" lon="3.53665">
        <ele>307.5</ele>
        <time>2026-05-10T07:25:42.000Z</time>
      </trkpt>
      <trkpt lat="45.84959" lon="3.53666">
        <ele>307.5</ele>
        <time>2026-05-10T07:25:43.000Z</time>
      </trkpt>
      <trkpt lat="45.84959" lon="3.53668">
        <ele>307.5</ele>
        <time>2026-05-10T07:25:44.000Z</time>
      </trkpt>
      <trkpt lat="45.8496" lon="3.5367">
        <ele>307.5</ele>
        <time>2026-05-10T07:25:45.000Z</time>
      </trkpt>
      <trkpt lat="45.8496" lon="3.53672">
        <ele>307.5</ele>
        <time>2026-05-10T07:25:46.000Z</time>
      </trkpt>
      <trkpt lat="45.84961" lon="3.53673">
        <ele>307.5</ele>
        <time>2026-05-10T07:25:47.000Z</time>
      </trkpt>
      <trkpt lat="45.84962" lon="3.53674">
        <ele>307.6</ele>
        <time>2026-05-10T07:25:48.000Z</time>
      </trkpt>
      <trkpt lat="45.84962" lon="3.53676">
        <ele>307.6</ele>
        <time>2026-05-10T07:25:49.000Z</time>
      </trkpt>
      <trkpt lat="45.84963" lon="3.53678">
        <ele>307.6</ele>
        <time>2026-05-10T07:25:50.000Z</time>
      </trkpt>
      <trkpt lat="45.84963" lon="3.53679">
        <ele>307.6</ele>
        <time>2026-05-10T07:25:51.000Z</time>
      </trkpt>
      <trkpt lat="45.84963" lon="3.53681">
        <ele>307.7</ele>
        <time>2026-05-10T07:25:52.000Z</time>
      </trkpt>
      <trkpt lat="45.84964" lon="3.53682">
        <ele>307.7</ele>
        <time>2026-05-10T07:25:53.000Z</time>
      </trkpt>
      <trkpt lat="45.84964" lon="3.53684">
        <ele>307.7</ele>
        <time>2026-05-10T07:25:54.000Z</time>
      </trkpt>
      <trkpt lat="45.84964" lon="3.53685">
        <ele>307.8</ele>
        <time>2026-05-10T07:25:55.000Z</time>
      </trkpt>
      <trkpt lat="45.84965" lon="3.53686">
        <ele>307.8</ele>
        <time>2026-05-10T07:25:56.000Z</time>
      </trkpt>
      <trkpt lat="45.84966" lon="3.53687">
        <ele>307.8</ele>
        <time>2026-05-10T07:25:57.000Z</time>
      </trkpt>
      <trkpt lat="45.84966" lon="3.53689">
        <ele>307.8</ele>
        <time>2026-05-10T07:25:58.000Z</time>
      </trkpt>
      <trkpt lat="45.84967" lon="3.5369">
        <ele>307.9</ele>
        <time>2026-05-10T07:25:59.000Z</time>
      </trkpt>
      <trkpt lat="45.84968" lon="3.53692">
        <ele>307.9</ele>
        <time>2026-05-10T07:26:00.000Z</time>
      </trkpt>
      <trkpt lat="45.84968" lon="3.53693">
        <ele>308</ele>
        <time>2026-05-10T07:26:01.000Z</time>
      </trkpt>
      <trkpt lat="45.84969" lon="3.53696">
        <ele>308</ele>
        <time>2026-05-10T07:26:02.000Z</time>
      </trkpt>
      <trkpt lat="45.8497" lon="3.53697">
        <ele>308</ele>
        <time>2026-05-10T07:26:03.000Z</time>
      </trkpt>
      <trkpt lat="45.8497" lon="3.53699">
        <ele>308</ele>
        <time>2026-05-10T07:26:04.000Z</time>
      </trkpt>
      <trkpt lat="45.84971" lon="3.53701">
        <ele>308</ele>
        <time>2026-05-10T07:26:05.000Z</time>
      </trkpt>
      <trkpt lat="45.84971" lon="3.53703">
        <ele>308</ele>
        <time>2026-05-10T07:26:06.000Z</time>
      </trkpt>
      <trkpt lat="45.84972" lon="3.53704">
        <ele>308</ele>
        <time>2026-05-10T07:26:07.000Z</time>
      </trkpt>
      <trkpt lat="45.84972" lon="3.53706">
        <ele>308</ele>
        <time>2026-05-10T07:26:08.000Z</time>
      </trkpt>
      <trkpt lat="45.84973" lon="3.53707">
        <ele>308</ele>
        <time>2026-05-10T07:26:09.000Z</time>
      </trkpt>
      <trkpt lat="45.84973" lon="3.53709">
        <ele>308</ele>
        <time>2026-05-10T07:26:10.000Z</time>
      </trkpt>
      <trkpt lat="45.84974" lon="3.5371">
        <ele>308</ele>
        <time>2026-05-10T07:26:11.000Z</time>
      </trkpt>
      <trkpt lat="45.84974" lon="3.53712">
        <ele>308</ele>
        <time>2026-05-10T07:26:12.000Z</time>
      </trkpt>
      <trkpt lat="45.84975" lon="3.53714">
        <ele>308</ele>
        <time>2026-05-10T07:26:13.000Z</time>
      </trkpt>
      <trkpt lat="45.84976" lon="3.53715">
        <ele>308</ele>
        <time>2026-05-10T07:26:14.000Z</time>
      </trkpt>
      <trkpt lat="45.84977" lon="3.53717">
        <ele>308</ele>
        <time>2026-05-10T07:26:15.000Z</time>
      </trkpt>
      <trkpt lat="45.84977" lon="3.53719">
        <ele>308</ele>
        <time>2026-05-10T07:26:16.000Z</time>
      </trkpt>
      <trkpt lat="45.84978" lon="3.53721">
        <ele>308</ele>
        <time>2026-05-10T07:26:17.000Z</time>
      </trkpt>
      <trkpt lat="45.84979" lon="3.53723">
        <ele>308</ele>
        <time>2026-05-10T07:26:18.000Z</time>
      </trkpt>
      <trkpt lat="45.8498" lon="3.53724">
        <ele>308</ele>
        <time>2026-05-10T07:26:19.000Z</time>
      </trkpt>
      <trkpt lat="45.8498" lon="3.53726">
        <ele>308</ele>
        <time>2026-05-10T07:26:20.000Z</time>
      </trkpt>
      <trkpt lat="45.84981" lon="3.53727">
        <ele>308</ele>
        <time>2026-05-10T07:26:21.000Z</time>
      </trkpt>
      <trkpt lat="45.84981" lon="3.53728">
        <ele>308</ele>
        <time>2026-05-10T07:26:22.000Z</time>
      </trkpt>
      <trkpt lat="45.84982" lon="3.5373">
        <ele>308</ele>
        <time>2026-05-10T07:26:23.000Z</time>
      </trkpt>
      <trkpt lat="45.84982" lon="3.53732">
        <ele>308</ele>
        <time>2026-05-10T07:26:24.000Z</time>
      </trkpt>
      <trkpt lat="45.84982" lon="3.53734">
        <ele>308</ele>
        <time>2026-05-10T07:26:25.000Z</time>
      </trkpt>
      <trkpt lat="45.84983" lon="3.53736">
        <ele>308</ele>
        <time>2026-05-10T07:26:26.000Z</time>
      </trkpt>
      <trkpt lat="45.84983" lon="3.53737">
        <ele>308</ele>
        <time>2026-05-10T07:26:27.000Z</time>
      </trkpt>
      <trkpt lat="45.84983" lon="3.53739">
        <ele>308</ele>
        <time>2026-05-10T07:26:28.000Z</time>
      </trkpt>
      <trkpt lat="45.84982" lon="3.5374">
        <ele>308</ele>
        <time>2026-05-10T07:26:29.000Z</time>
      </trkpt>
      <trkpt lat="45.84982" lon="3.53741">
        <ele>308</ele>
        <time>2026-05-10T07:26:30.000Z</time>
      </trkpt>
      <trkpt lat="45.84981" lon="3.53742">
        <ele>308</ele>
        <time>2026-05-10T07:26:31.000Z</time>
      </trkpt>
      <trkpt lat="45.8498" lon="3.53743">
        <ele>308</ele>
        <time>2026-05-10T07:26:32.000Z</time>
      </trkpt>
      <trkpt lat="45.84979" lon="3.53744">
        <ele>308</ele>
        <time>2026-05-10T07:26:33.000Z</time>
      </trkpt>
      <trkpt lat="45.84979" lon="3.53746">
        <ele>308</ele>
        <time>2026-05-10T07:26:34.000Z</time>
      </trkpt>
      <trkpt lat="45.84979" lon="3.53748">
        <ele>308</ele>
        <time>2026-05-10T07:26:35.000Z</time>
      </trkpt>
      <trkpt lat="45.84978" lon="3.5375">
        <ele>308</ele>
        <time>2026-05-10T07:26:36.000Z</time>
      </trkpt>
      <trkpt lat="45.84978" lon="3.53752">
        <ele>308</ele>
        <time>2026-05-10T07:26:37.000Z</time>
      </trkpt>
      <trkpt lat="45.84977" lon="3.53753">
        <ele>308.1</ele>
        <time>2026-05-10T07:26:38.000Z</time>
      </trkpt>
      <trkpt lat="45.84977" lon="3.53756">
        <ele>308.2</ele>
        <time>2026-05-10T07:26:39.000Z</time>
      </trkpt>
      <trkpt lat="45.84977" lon="3.53758">
        <ele>308.2</ele>
        <time>2026-05-10T07:26:40.000Z</time>
      </trkpt>
      <trkpt lat="45.84977" lon="3.53759">
        <ele>308.3</ele>
        <time>2026-05-10T07:26:41.000Z</time>
      </trkpt>
      <trkpt lat="45.84977" lon="3.53761">
        <ele>308.3</ele>
        <time>2026-05-10T07:26:42.000Z</time>
      </trkpt>
      <trkpt lat="45.84977" lon="3.53763">
        <ele>308.4</ele>
        <time>2026-05-10T07:26:43.000Z</time>
      </trkpt>
      <trkpt lat="45.84978" lon="3.53764">
        <ele>308.4</ele>
        <time>2026-05-10T07:26:44.000Z</time>
      </trkpt>
      <trkpt lat="45.84978" lon="3.53766">
        <ele>308.5</ele>
        <time>2026-05-10T07:26:45.000Z</time>
      </trkpt>
      <trkpt lat="45.84978" lon="3.53768">
        <ele>308.5</ele>
        <time>2026-05-10T07:26:46.000Z</time>
      </trkpt>
      <trkpt lat="45.84979" lon="3.53769">
        <ele>308.5</ele>
        <time>2026-05-10T07:26:47.000Z</time>
      </trkpt>
      <trkpt lat="45.84979" lon="3.53771">
        <ele>308.6</ele>
        <time>2026-05-10T07:26:48.000Z</time>
      </trkpt>
      <trkpt lat="45.8498" lon="3.53772">
        <ele>308.6</ele>
        <time>2026-05-10T07:26:49.000Z</time>
      </trkpt>
      <trkpt lat="45.8498" lon="3.53774">
        <ele>308.6</ele>
        <time>2026-05-10T07:26:50.000Z</time>
      </trkpt>
      <trkpt lat="45.84981" lon="3.53776">
        <ele>308.6</ele>
        <time>2026-05-10T07:26:51.000Z</time>
      </trkpt>
      <trkpt lat="45.84981" lon="3.53778">
        <ele>308.7</ele>
        <time>2026-05-10T07:26:52.000Z</time>
      </trkpt>
      <trkpt lat="45.84982" lon="3.53779">
        <ele>308.7</ele>
        <time>2026-05-10T07:26:53.000Z</time>
      </trkpt>
      <trkpt lat="45.84982" lon="3.53781">
        <ele>308.7</ele>
        <time>2026-05-10T07:26:54.000Z</time>
      </trkpt>
      <trkpt lat="45.84983" lon="3.53783">
        <ele>308.7</ele>
        <time>2026-05-10T07:26:55.000Z</time>
      </trkpt>
      <trkpt lat="45.84983" lon="3.53785">
        <ele>308.7</ele>
        <time>2026-05-10T07:26:56.000Z</time>
      </trkpt>
      <trkpt lat="45.84984" lon="3.53787">
        <ele>308.7</ele>
        <time>2026-05-10T07:26:57.000Z</time>
      </trkpt>
      <trkpt lat="45.84984" lon="3.53788">
        <ele>308.7</ele>
        <time>2026-05-10T07:26:58.000Z</time>
      </trkpt>
      <trkpt lat="45.84985" lon="3.5379">
        <ele>308.7</ele>
        <time>2026-05-10T07:26:59.000Z</time>
      </trkpt>
      <trkpt lat="45.84985" lon="3.53791">
        <ele>308.8</ele>
        <time>2026-05-10T07:27:00.000Z</time>
      </trkpt>
      <trkpt lat="45.84986" lon="3.53793">
        <ele>308.8</ele>
        <time>2026-05-10T07:27:01.000Z</time>
      </trkpt>
      <trkpt lat="45.84986" lon="3.53794">
        <ele>308.8</ele>
        <time>2026-05-10T07:27:02.000Z</time>
      </trkpt>
      <trkpt lat="45.84987" lon="3.53795">
        <ele>308.8</ele>
        <time>2026-05-10T07:27:03.000Z</time>
      </trkpt>
      <trkpt lat="45.84987" lon="3.53797">
        <ele>308.8</ele>
        <time>2026-05-10T07:27:04.000Z</time>
      </trkpt>
      <trkpt lat="45.84988" lon="3.53798">
        <ele>308.9</ele>
        <time>2026-05-10T07:27:05.000Z</time>
      </trkpt>
      <trkpt lat="45.84988" lon="3.538">
        <ele>308.9</ele>
        <time>2026-05-10T07:27:06.000Z</time>
      </trkpt>
      <trkpt lat="45.84989" lon="3.53801">
        <ele>308.9</ele>
        <time>2026-05-10T07:27:07.000Z</time>
      </trkpt>
      <trkpt lat="45.8499" lon="3.53803">
        <ele>308.9</ele>
        <time>2026-05-10T07:27:08.000Z</time>
      </trkpt>
      <trkpt lat="45.8499" lon="3.53804">
        <ele>309</ele>
        <time>2026-05-10T07:27:09.000Z</time>
      </trkpt>
      <trkpt lat="45.84991" lon="3.53806">
        <ele>309</ele>
        <time>2026-05-10T07:27:10.000Z</time>
      </trkpt>
      <trkpt lat="45.84991" lon="3.53807">
        <ele>309</ele>
        <time>2026-05-10T07:27:11.000Z</time>
      </trkpt>
      <trkpt lat="45.84991" lon="3.53808">
        <ele>309</ele>
        <time>2026-05-10T07:27:12.000Z</time>
      </trkpt>
      <trkpt lat="45.84991" lon="3.53809">
        <ele>309</ele>
        <time>2026-05-10T07:27:13.000Z</time>
      </trkpt>
      <trkpt lat="45.84992" lon="3.53811">
        <ele>309</ele>
        <time>2026-05-10T07:27:14.000Z</time>
      </trkpt>
      <trkpt lat="45.84992" lon="3.53813">
        <ele>309</ele>
        <time>2026-05-10T07:27:15.000Z</time>
      </trkpt>
      <trkpt lat="45.84993" lon="3.53814">
        <ele>309</ele>
        <time>2026-05-10T07:27:16.000Z</time>
      </trkpt>
      <trkpt lat="45.84993" lon="3.53816">
        <ele>309</ele>
        <time>2026-05-10T07:27:17.000Z</time>
      </trkpt>
      <trkpt lat="45.84994" lon="3.53818">
        <ele>309</ele>
        <time>2026-05-10T07:27:18.000Z</time>
      </trkpt>
      <trkpt lat="45.84995" lon="3.5382">
        <ele>309</ele>
        <time>2026-05-10T07:27:19.000Z</time>
      </trkpt>
      <trkpt lat="45.84995" lon="3.53822">
        <ele>309</ele>
        <time>2026-05-10T07:27:20.000Z</time>
      </trkpt>
      <trkpt lat="45.84996" lon="3.53823">
        <ele>309</ele>
        <time>2026-05-10T07:27:21.000Z</time>
      </trkpt>
      <trkpt lat="45.84996" lon="3.53825">
        <ele>309</ele>
        <time>2026-05-10T07:27:22.000Z</time>
      </trkpt>
      <trkpt lat="45.84996" lon="3.53827">
        <ele>309</ele>
        <time>2026-05-10T07:27:23.000Z</time>
      </trkpt>
      <trkpt lat="45.84997" lon="3.53829">
        <ele>309</ele>
        <time>2026-05-10T07:27:24.000Z</time>
      </trkpt>
      <trkpt lat="45.84997" lon="3.53831">
        <ele>309</ele>
        <time>2026-05-10T07:27:25.000Z</time>
      </trkpt>
      <trkpt lat="45.84998" lon="3.53832">
        <ele>309</ele>
        <time>2026-05-10T07:27:26.000Z</time>
      </trkpt>
      <trkpt lat="45.84998" lon="3.53834">
        <ele>309</ele>
        <time>2026-05-10T07:27:27.000Z</time>
      </trkpt>
      <trkpt lat="45.84999" lon="3.53835">
        <ele>309</ele>
        <time>2026-05-10T07:27:28.000Z</time>
      </trkpt>
      <trkpt lat="45.84999" lon="3.53836">
        <ele>309</ele>
        <time>2026-05-10T07:27:29.000Z</time>
      </trkpt>
      <trkpt lat="45.85" lon="3.53838">
        <ele>309</ele>
        <time>2026-05-10T07:27:30.000Z</time>
      </trkpt>
      <trkpt lat="45.85" lon="3.5384">
        <ele>309</ele>
        <time>2026-05-10T07:27:31.000Z</time>
      </trkpt>
      <trkpt lat="45.85001" lon="3.53841">
        <ele>309</ele>
        <time>2026-05-10T07:27:32.000Z</time>
      </trkpt>
      <trkpt lat="45.85001" lon="3.53843">
        <ele>309</ele>
        <time>2026-05-10T07:27:33.000Z</time>
      </trkpt>
      <trkpt lat="45.85001" lon="3.53845">
        <ele>309</ele>
        <time>2026-05-10T07:27:34.000Z</time>
      </trkpt>
      <trkpt lat="45.85002" lon="3.53846">
        <ele>309</ele>
        <time>2026-05-10T07:27:35.000Z</time>
      </trkpt>
      <trkpt lat="45.85003" lon="3.53848">
        <ele>309</ele>
        <time>2026-05-10T07:27:36.000Z</time>
      </trkpt>
      <trkpt lat="45.85003" lon="3.5385">
        <ele>309</ele>
        <time>2026-05-10T07:27:37.000Z</time>
      </trkpt>
      <trkpt lat="45.85004" lon="3.53851">
        <ele>309</ele>
        <time>2026-05-10T07:27:38.000Z</time>
      </trkpt>
      <trkpt lat="45.85004" lon="3.53853">
        <ele>309</ele>
        <time>2026-05-10T07:27:39.000Z</time>
      </trkpt>
      <trkpt lat="45.85005" lon="3.53854">
        <ele>309</ele>
        <time>2026-05-10T07:27:40.000Z</time>
      </trkpt>
      <trkpt lat="45.85005" lon="3.53856">
        <ele>309</ele>
        <time>2026-05-10T07:27:41.000Z</time>
      </trkpt>
      <trkpt lat="45.85006" lon="3.53857">
        <ele>309</ele>
        <time>2026-05-10T07:27:42.000Z</time>
      </trkpt>
      <trkpt lat="45.85006" lon="3.53859">
        <ele>309</ele>
        <time>2026-05-10T07:27:43.000Z</time>
      </trkpt>
      <trkpt lat="45.85007" lon="3.53861">
        <ele>309</ele>
        <time>2026-05-10T07:27:44.000Z</time>
      </trkpt>
      <trkpt lat="45.85007" lon="3.53862">
        <ele>309</ele>
        <time>2026-05-10T07:27:45.000Z</time>
      </trkpt>
      <trkpt lat="45.85008" lon="3.53864">
        <ele>309</ele>
        <time>2026-05-10T07:27:46.000Z</time>
      </trkpt>
      <trkpt lat="45.85008" lon="3.53866">
        <ele>309</ele>
        <time>2026-05-10T07:27:47.000Z</time>
      </trkpt>
      <trkpt lat="45.85009" lon="3.53868">
        <ele>309</ele>
        <time>2026-05-10T07:27:48.000Z</time>
      </trkpt>
      <trkpt lat="45.85009" lon="3.5387">
        <ele>309</ele>
        <time>2026-05-10T07:27:49.000Z</time>
      </trkpt>
      <trkpt lat="45.8501" lon="3.53871">
        <ele>309</ele>
        <time>2026-05-10T07:27:50.000Z</time>
      </trkpt>
      <trkpt lat="45.8501" lon="3.53873">
        <ele>309</ele>
        <time>2026-05-10T07:27:51.000Z</time>
      </trkpt>
      <trkpt lat="45.85011" lon="3.53875">
        <ele>309</ele>
        <time>2026-05-10T07:27:52.000Z</time>
      </trkpt>
      <trkpt lat="45.85012" lon="3.53876">
        <ele>309</ele>
        <time>2026-05-10T07:27:53.000Z</time>
      </trkpt>
      <trkpt lat="45.85012" lon="3.53878">
        <ele>309</ele>
        <time>2026-05-10T07:27:54.000Z</time>
      </trkpt>
      <trkpt lat="45.85012" lon="3.5388">
        <ele>309</ele>
        <time>2026-05-10T07:27:55.000Z</time>
      </trkpt>
      <trkpt lat="45.85013" lon="3.53881">
        <ele>309</ele>
        <time>2026-05-10T07:27:56.000Z</time>
      </trkpt>
      <trkpt lat="45.85013" lon="3.53883">
        <ele>309</ele>
        <time>2026-05-10T07:27:57.000Z</time>
      </trkpt>
      <trkpt lat="45.85014" lon="3.53884">
        <ele>309</ele>
        <time>2026-05-10T07:27:58.000Z</time>
      </trkpt>
      <trkpt lat="45.85014" lon="3.53886">
        <ele>309</ele>
        <time>2026-05-10T07:27:59.000Z</time>
      </trkpt>
      <trkpt lat="45.85015" lon="3.53887">
        <ele>309</ele>
        <time>2026-05-10T07:28:00.000Z</time>
      </trkpt>
      <trkpt lat="45.85015" lon="3.53889">
        <ele>309</ele>
        <time>2026-05-10T07:28:01.000Z</time>
      </trkpt>
      <trkpt lat="45.85016" lon="3.5389">
        <ele>309</ele>
        <time>2026-05-10T07:28:02.000Z</time>
      </trkpt>
      <trkpt lat="45.85017" lon="3.53892">
        <ele>308.9</ele>
        <time>2026-05-10T07:28:03.000Z</time>
      </trkpt>
      <trkpt lat="45.85017" lon="3.53894">
        <ele>308.9</ele>
        <time>2026-05-10T07:28:04.000Z</time>
      </trkpt>
      <trkpt lat="45.85018" lon="3.53896">
        <ele>308.8</ele>
        <time>2026-05-10T07:28:05.000Z</time>
      </trkpt>
      <trkpt lat="45.85018" lon="3.53898">
        <ele>308.8</ele>
        <time>2026-05-10T07:28:06.000Z</time>
      </trkpt>
      <trkpt lat="45.85019" lon="3.53899">
        <ele>308.7</ele>
        <time>2026-05-10T07:28:07.000Z</time>
      </trkpt>
      <trkpt lat="45.85019" lon="3.53901">
        <ele>308.7</ele>
        <time>2026-05-10T07:28:08.000Z</time>
      </trkpt>
      <trkpt lat="45.85019" lon="3.53902">
        <ele>308.7</ele>
        <time>2026-05-10T07:28:09.000Z</time>
      </trkpt>
      <trkpt lat="45.8502" lon="3.53903">
        <ele>308.6</ele>
        <time>2026-05-10T07:28:10.000Z</time>
      </trkpt>
      <trkpt lat="45.85019" lon="3.53905">
        <ele>308.6</ele>
        <time>2026-05-10T07:28:11.000Z</time>
      </trkpt>
      <trkpt lat="45.85019" lon="3.53906">
        <ele>308.6</ele>
        <time>2026-05-10T07:28:12.000Z</time>
      </trkpt>
      <trkpt lat="45.85019" lon="3.53907">
        <ele>308.6</ele>
        <time>2026-05-10T07:28:13.000Z</time>
      </trkpt>
      <trkpt lat="45.85018" lon="3.53909">
        <ele>308.5</ele>
        <time>2026-05-10T07:28:14.000Z</time>
      </trkpt>
      <trkpt lat="45.85017" lon="3.5391">
        <ele>308.5</ele>
        <time>2026-05-10T07:28:15.000Z</time>
      </trkpt>
      <trkpt lat="45.85016" lon="3.5391">
        <ele>308.6</ele>
        <time>2026-05-10T07:28:16.000Z</time>
      </trkpt>
      <trkpt lat="45.85015" lon="3.53911">
        <ele>308.6</ele>
        <time>2026-05-10T07:28:17.000Z</time>
      </trkpt>
      <trkpt lat="45.85013" lon="3.53912">
        <ele>308.6</ele>
        <time>2026-05-10T07:28:18.000Z</time>
      </trkpt>
      <trkpt lat="45.85012" lon="3.53913">
        <ele>308.6</ele>
        <time>2026-05-10T07:28:19.000Z</time>
      </trkpt>
      <trkpt lat="45.85011" lon="3.53914">
        <ele>308.6</ele>
        <time>2026-05-10T07:28:20.000Z</time>
      </trkpt>
      <trkpt lat="45.8501" lon="3.53915">
        <ele>308.7</ele>
        <time>2026-05-10T07:28:21.000Z</time>
      </trkpt>
      <trkpt lat="45.85009" lon="3.53916">
        <ele>308.7</ele>
        <time>2026-05-10T07:28:22.000Z</time>
      </trkpt>
      <trkpt lat="45.85007" lon="3.53917">
        <ele>308.7</ele>
        <time>2026-05-10T07:28:23.000Z</time>
      </trkpt>
      <trkpt lat="45.85006" lon="3.53917">
        <ele>308.8</ele>
        <time>2026-05-10T07:28:24.000Z</time>
      </trkpt>
      <trkpt lat="45.85005" lon="3.53918">
        <ele>308.8</ele>
        <time>2026-05-10T07:28:25.000Z</time>
      </trkpt>
      <trkpt lat="45.85003" lon="3.53919">
        <ele>308.9</ele>
        <time>2026-05-10T07:28:26.000Z</time>
      </trkpt>
      <trkpt lat="45.85002" lon="3.5392">
        <ele>308.9</ele>
        <time>2026-05-10T07:28:27.000Z</time>
      </trkpt>
      <trkpt lat="45.85001" lon="3.53921">
        <ele>309</ele>
        <time>2026-05-10T07:28:28.000Z</time>
      </trkpt>
      <trkpt lat="45.84999" lon="3.53921">
        <ele>309</ele>
        <time>2026-05-10T07:28:29.000Z</time>
      </trkpt>
      <trkpt lat="45.84998" lon="3.53922">
        <ele>309.1</ele>
        <time>2026-05-10T07:28:30.000Z</time>
      </trkpt>
      <trkpt lat="45.84997" lon="3.53923">
        <ele>309.1</ele>
        <time>2026-05-10T07:28:31.000Z</time>
      </trkpt>
      <trkpt lat="45.84996" lon="3.53924">
        <ele>309.1</ele>
        <time>2026-05-10T07:28:32.000Z</time>
      </trkpt>
      <trkpt lat="45.84995" lon="3.53925">
        <ele>309.2</ele>
        <time>2026-05-10T07:28:33.000Z</time>
      </trkpt>
      <trkpt lat="45.84994" lon="3.53926">
        <ele>309.2</ele>
        <time>2026-05-10T07:28:34.000Z</time>
      </trkpt>
      <trkpt lat="45.84993" lon="3.53927">
        <ele>309.3</ele>
        <time>2026-05-10T07:28:35.000Z</time>
      </trkpt>
      <trkpt lat="45.84992" lon="3.53928">
        <ele>309.3</ele>
        <time>2026-05-10T07:28:36.000Z</time>
      </trkpt>
      <trkpt lat="45.84991" lon="3.5393">
        <ele>309.3</ele>
        <time>2026-05-10T07:28:37.000Z</time>
      </trkpt>
      <trkpt lat="45.84991" lon="3.53931">
        <ele>309.3</ele>
        <time>2026-05-10T07:28:38.000Z</time>
      </trkpt>
      <trkpt lat="45.84992" lon="3.53932">
        <ele>309.3</ele>
        <time>2026-05-10T07:28:39.000Z</time>
      </trkpt>
      <trkpt lat="45.84992" lon="3.53933">
        <ele>309.3</ele>
        <time>2026-05-10T07:28:40.000Z</time>
      </trkpt>
      <trkpt lat="45.84992" lon="3.53934">
        <ele>309.3</ele>
        <time>2026-05-10T07:28:41.000Z</time>
      </trkpt>
      <trkpt lat="45.84993" lon="3.53936">
        <ele>309.3</ele>
        <time>2026-05-10T07:28:42.000Z</time>
      </trkpt>
      <trkpt lat="45.84993" lon="3.53938">
        <ele>309.2</ele>
        <time>2026-05-10T07:28:43.000Z</time>
      </trkpt>
      <trkpt lat="45.84994" lon="3.53939">
        <ele>309.2</ele>
        <time>2026-05-10T07:28:44.000Z</time>
      </trkpt>
      <trkpt lat="45.84995" lon="3.53942">
        <ele>309.2</ele>
        <time>2026-05-10T07:28:45.000Z</time>
      </trkpt>
      <trkpt lat="45.84995" lon="3.53943">
        <ele>309.2</ele>
        <time>2026-05-10T07:28:46.000Z</time>
      </trkpt>
      <trkpt lat="45.84996" lon="3.53945">
        <ele>309.2</ele>
        <time>2026-05-10T07:28:47.000Z</time>
      </trkpt>
      <trkpt lat="45.84997" lon="3.53947">
        <ele>309.2</ele>
        <time>2026-05-10T07:28:48.000Z</time>
      </trkpt>
      <trkpt lat="45.84997" lon="3.53948">
        <ele>309.2</ele>
        <time>2026-05-10T07:28:49.000Z</time>
      </trkpt>
      <trkpt lat="45.84998" lon="3.5395">
        <ele>309.3</ele>
        <time>2026-05-10T07:28:50.000Z</time>
      </trkpt>
      <trkpt lat="45.84998" lon="3.53951">
        <ele>309.3</ele>
        <time>2026-05-10T07:28:51.000Z</time>
      </trkpt>
      <trkpt lat="45.84999" lon="3.53953">
        <ele>309.3</ele>
        <time>2026-05-10T07:28:52.000Z</time>
      </trkpt>
      <trkpt lat="45.85" lon="3.53955">
        <ele>309.4</ele>
        <time>2026-05-10T07:28:53.000Z</time>
      </trkpt>
      <trkpt lat="45.85" lon="3.53956">
        <ele>309.4</ele>
        <time>2026-05-10T07:28:54.000Z</time>
      </trkpt>
      <trkpt lat="45.85001" lon="3.53958">
        <ele>309.5</ele>
        <time>2026-05-10T07:28:55.000Z</time>
      </trkpt>
      <trkpt lat="45.85001" lon="3.53959">
        <ele>309.5</ele>
        <time>2026-05-10T07:28:56.000Z</time>
      </trkpt>
      <trkpt lat="45.85002" lon="3.53961">
        <ele>309.5</ele>
        <time>2026-05-10T07:28:57.000Z</time>
      </trkpt>
      <trkpt lat="45.85002" lon="3.53963">
        <ele>309.6</ele>
        <time>2026-05-10T07:28:58.000Z</time>
      </trkpt>
      <trkpt lat="45.85003" lon="3.53965">
        <ele>309.6</ele>
        <time>2026-05-10T07:28:59.000Z</time>
      </trkpt>
      <trkpt lat="45.85003" lon="3.53967">
        <ele>309.7</ele>
        <time>2026-05-10T07:29:00.000Z</time>
      </trkpt>
      <trkpt lat="45.85004" lon="3.53969">
        <ele>309.7</ele>
        <time>2026-05-10T07:29:01.000Z</time>
      </trkpt>
      <trkpt lat="45.85004" lon="3.5397">
        <ele>309.8</ele>
        <time>2026-05-10T07:29:02.000Z</time>
      </trkpt>
      <trkpt lat="45.85004" lon="3.53972">
        <ele>309.8</ele>
        <time>2026-05-10T07:29:03.000Z</time>
      </trkpt>
      <trkpt lat="45.85005" lon="3.53973">
        <ele>309.8</ele>
        <time>2026-05-10T07:29:04.000Z</time>
      </trkpt>
      <trkpt lat="45.85005" lon="3.53975">
        <ele>309.8</ele>
        <time>2026-05-10T07:29:05.000Z</time>
      </trkpt>
      <trkpt lat="45.85006" lon="3.53976">
        <ele>309.8</ele>
        <time>2026-05-10T07:29:06.000Z</time>
      </trkpt>
      <trkpt lat="45.85006" lon="3.53978">
        <ele>309.8</ele>
        <time>2026-05-10T07:29:07.000Z</time>
      </trkpt>
      <trkpt lat="45.85007" lon="3.5398">
        <ele>309.8</ele>
        <time>2026-05-10T07:29:08.000Z</time>
      </trkpt>
      <trkpt lat="45.85007" lon="3.53981">
        <ele>309.8</ele>
        <time>2026-05-10T07:29:09.000Z</time>
      </trkpt>
      <trkpt lat="45.85007" lon="3.53983">
        <ele>309.7</ele>
        <time>2026-05-10T07:29:10.000Z</time>
      </trkpt>
      <trkpt lat="45.85008" lon="3.53985">
        <ele>309.7</ele>
        <time>2026-05-10T07:29:11.000Z</time>
      </trkpt>
      <trkpt lat="45.85009" lon="3.53987">
        <ele>309.7</ele>
        <time>2026-05-10T07:29:12.000Z</time>
      </trkpt>
      <trkpt lat="45.85009" lon="3.53988">
        <ele>309.7</ele>
        <time>2026-05-10T07:29:13.000Z</time>
      </trkpt>
      <trkpt lat="45.8501" lon="3.53989">
        <ele>309.7</ele>
        <time>2026-05-10T07:29:14.000Z</time>
      </trkpt>
      <trkpt lat="45.8501" lon="3.53991">
        <ele>309.6</ele>
        <time>2026-05-10T07:29:15.000Z</time>
      </trkpt>
      <trkpt lat="45.85011" lon="3.53993">
        <ele>309.6</ele>
        <time>2026-05-10T07:29:16.000Z</time>
      </trkpt>
      <trkpt lat="45.85011" lon="3.53995">
        <ele>309.6</ele>
        <time>2026-05-10T07:29:17.000Z</time>
      </trkpt>
      <trkpt lat="45.85012" lon="3.53996">
        <ele>309.6</ele>
        <time>2026-05-10T07:29:18.000Z</time>
      </trkpt>
      <trkpt lat="45.85013" lon="3.53998">
        <ele>309.6</ele>
        <time>2026-05-10T07:29:19.000Z</time>
      </trkpt>
      <trkpt lat="45.85013" lon="3.54">
        <ele>309.5</ele>
        <time>2026-05-10T07:29:20.000Z</time>
      </trkpt>
      <trkpt lat="45.85013" lon="3.54002">
        <ele>309.5</ele>
        <time>2026-05-10T07:29:21.000Z</time>
      </trkpt>
      <trkpt lat="45.85014" lon="3.54004">
        <ele>309.5</ele>
        <time>2026-05-10T07:29:22.000Z</time>
      </trkpt>
      <trkpt lat="45.85014" lon="3.54006">
        <ele>309.5</ele>
        <time>2026-05-10T07:29:23.000Z</time>
      </trkpt>
      <trkpt lat="45.85015" lon="3.54008">
        <ele>309.5</ele>
        <time>2026-05-10T07:29:24.000Z</time>
      </trkpt>
      <trkpt lat="45.85015" lon="3.5401">
        <ele>309.5</ele>
        <time>2026-05-10T07:29:25.000Z</time>
      </trkpt>
      <trkpt lat="45.85016" lon="3.54012">
        <ele>309.4</ele>
        <time>2026-05-10T07:29:26.000Z</time>
      </trkpt>
      <trkpt lat="45.85016" lon="3.54013">
        <ele>309.4</ele>
        <time>2026-05-10T07:29:27.000Z</time>
      </trkpt>
      <trkpt lat="45.85017" lon="3.54015">
        <ele>309.4</ele>
        <time>2026-05-10T07:29:28.000Z</time>
      </trkpt>
      <trkpt lat="45.85017" lon="3.54017">
        <ele>309.4</ele>
        <time>2026-05-10T07:29:29.000Z</time>
      </trkpt>
      <trkpt lat="45.85017" lon="3.54018">
        <ele>309.4</ele>
        <time>2026-05-10T07:29:30.000Z</time>
      </trkpt>
      <trkpt lat="45.85018" lon="3.5402">
        <ele>309.4</ele>
        <time>2026-05-10T07:29:31.000Z</time>
      </trkpt>
      <trkpt lat="45.85018" lon="3.54022">
        <ele>309.4</ele>
        <time>2026-05-10T07:29:32.000Z</time>
      </trkpt>
      <trkpt lat="45.85018" lon="3.54024">
        <ele>309.3</ele>
        <time>2026-05-10T07:29:33.000Z</time>
      </trkpt>
      <trkpt lat="45.85019" lon="3.54026">
        <ele>309.3</ele>
        <time>2026-05-10T07:29:34.000Z</time>
      </trkpt>
      <trkpt lat="45.85019" lon="3.54027">
        <ele>309.3</ele>
        <time>2026-05-10T07:29:35.000Z</time>
      </trkpt>
      <trkpt lat="45.85019" lon="3.54029">
        <ele>309.3</ele>
        <time>2026-05-10T07:29:36.000Z</time>
      </trkpt>
      <trkpt lat="45.85019" lon="3.54031">
        <ele>309.4</ele>
        <time>2026-05-10T07:29:37.000Z</time>
      </trkpt>
      <trkpt lat="45.8502" lon="3.54033">
        <ele>309.4</ele>
        <time>2026-05-10T07:29:38.000Z</time>
      </trkpt>
      <trkpt lat="45.8502" lon="3.54035">
        <ele>309.5</ele>
        <time>2026-05-10T07:29:39.000Z</time>
      </trkpt>
      <trkpt lat="45.8502" lon="3.54036">
        <ele>309.5</ele>
        <time>2026-05-10T07:29:40.000Z</time>
      </trkpt>
      <trkpt lat="45.8502" lon="3.54038">
        <ele>309.5</ele>
        <time>2026-05-10T07:29:41.000Z</time>
      </trkpt>
      <trkpt lat="45.85021" lon="3.5404">
        <ele>309.6</ele>
        <time>2026-05-10T07:29:42.000Z</time>
      </trkpt>
      <trkpt lat="45.85021" lon="3.54042">
        <ele>309.6</ele>
        <time>2026-05-10T07:29:43.000Z</time>
      </trkpt>
      <trkpt lat="45.85022" lon="3.54043">
        <ele>309.7</ele>
        <time>2026-05-10T07:29:44.000Z</time>
      </trkpt>
      <trkpt lat="45.85022" lon="3.54045">
        <ele>309.7</ele>
        <time>2026-05-10T07:29:45.000Z</time>
      </trkpt>
      <trkpt lat="45.85022" lon="3.54047">
        <ele>309.7</ele>
        <time>2026-05-10T07:29:46.000Z</time>
      </trkpt>
      <trkpt lat="45.85023" lon="3.54048">
        <ele>309.8</ele>
        <time>2026-05-10T07:29:47.000Z</time>
      </trkpt>
      <trkpt lat="45.85023" lon="3.5405">
        <ele>309.8</ele>
        <time>2026-05-10T07:29:48.000Z</time>
      </trkpt>
      <trkpt lat="45.85023" lon="3.54052">
        <ele>309.9</ele>
        <time>2026-05-10T07:29:49.000Z</time>
      </trkpt>
      <trkpt lat="45.85024" lon="3.54054">
        <ele>309.9</ele>
        <time>2026-05-10T07:29:50.000Z</time>
      </trkpt>
      <trkpt lat="45.85024" lon="3.54055">
        <ele>310</ele>
        <time>2026-05-10T07:29:51.000Z</time>
      </trkpt>
      <trkpt lat="45.85025" lon="3.54057">
        <ele>310</ele>
        <time>2026-05-10T07:29:52.000Z</time>
      </trkpt>
      <trkpt lat="45.85025" lon="3.54059">
        <ele>310</ele>
        <time>2026-05-10T07:29:53.000Z</time>
      </trkpt>
      <trkpt lat="45.85025" lon="3.54061">
        <ele>310</ele>
        <time>2026-05-10T07:29:54.000Z</time>
      </trkpt>
      <trkpt lat="45.85026" lon="3.54063">
        <ele>310</ele>
        <time>2026-05-10T07:29:55.000Z</time>
      </trkpt>
      <trkpt lat="45.85026" lon="3.54065">
        <ele>310</ele>
        <time>2026-05-10T07:29:56.000Z</time>
      </trkpt>
      <trkpt lat="45.85026" lon="3.54067">
        <ele>310</ele>
        <time>2026-05-10T07:29:57.000Z</time>
      </trkpt>
      <trkpt lat="45.85026" lon="3.54069">
        <ele>310</ele>
        <time>2026-05-10T07:29:58.000Z</time>
      </trkpt>
      <trkpt lat="45.85026" lon="3.5407">
        <ele>310</ele>
        <time>2026-05-10T07:29:59.000Z</time>
      </trkpt>
      <trkpt lat="45.85026" lon="3.54072">
        <ele>310</ele>
        <time>2026-05-10T07:30:00.000Z</time>
      </trkpt>
      <trkpt lat="45.85026" lon="3.54074">
        <ele>310</ele>
        <time>2026-05-10T07:30:01.000Z</time>
      </trkpt>
      <trkpt lat="45.85026" lon="3.54076">
        <ele>310</ele>
        <time>2026-05-10T07:30:02.000Z</time>
      </trkpt>
      <trkpt lat="45.85027" lon="3.54077">
        <ele>310</ele>
        <time>2026-05-10T07:30:03.000Z</time>
      </trkpt>
      <trkpt lat="45.85027" lon="3.54079">
        <ele>310</ele>
        <time>2026-05-10T07:30:04.000Z</time>
      </trkpt>
      <trkpt lat="45.85027" lon="3.54081">
        <ele>310</ele>
        <time>2026-05-10T07:30:05.000Z</time>
      </trkpt>
      <trkpt lat="45.85027" lon="3.54083">
        <ele>310</ele>
        <time>2026-05-10T07:30:06.000Z</time>
      </trkpt>
      <trkpt lat="45.85027" lon="3.54085">
        <ele>310</ele>
        <time>2026-05-10T07:30:07.000Z</time>
      </trkpt>
      <trkpt lat="45.85027" lon="3.54086">
        <ele>310</ele>
        <time>2026-05-10T07:30:08.000Z</time>
      </trkpt>
      <trkpt lat="45.85027" lon="3.54088">
        <ele>310</ele>
        <time>2026-05-10T07:30:09.000Z</time>
      </trkpt>
      <trkpt lat="45.85027" lon="3.5409">
        <ele>310</ele>
        <time>2026-05-10T07:30:10.000Z</time>
      </trkpt>
      <trkpt lat="45.85027" lon="3.54091">
        <ele>310</ele>
        <time>2026-05-10T07:30:11.000Z</time>
      </trkpt>
      <trkpt lat="45.85028" lon="3.54093">
        <ele>310</ele>
        <time>2026-05-10T07:30:12.000Z</time>
      </trkpt>
      <trkpt lat="45.85028" lon="3.54095">
        <ele>310</ele>
        <time>2026-05-10T07:30:13.000Z</time>
      </trkpt>
      <trkpt lat="45.85028" lon="3.54097">
        <ele>310</ele>
        <time>2026-05-10T07:30:14.000Z</time>
      </trkpt>
      <trkpt lat="45.85028" lon="3.54099">
        <ele>310</ele>
        <time>2026-05-10T07:30:15.000Z</time>
      </trkpt>
      <trkpt lat="45.85028" lon="3.54101">
        <ele>310</ele>
        <time>2026-05-10T07:30:16.000Z</time>
      </trkpt>
      <trkpt lat="45.85029" lon="3.54103">
        <ele>310</ele>
        <time>2026-05-10T07:30:17.000Z</time>
      </trkpt>
      <trkpt lat="45.85029" lon="3.54105">
        <ele>310</ele>
        <time>2026-05-10T07:30:18.000Z</time>
      </trkpt>
      <trkpt lat="45.85029" lon="3.54106">
        <ele>309.9</ele>
        <time>2026-05-10T07:30:19.000Z</time>
      </trkpt>
      <trkpt lat="45.85029" lon="3.54108">
        <ele>309.9</ele>
        <time>2026-05-10T07:30:20.000Z</time>
      </trkpt>
      <trkpt lat="45.8503" lon="3.5411">
        <ele>309.9</ele>
        <time>2026-05-10T07:30:21.000Z</time>
      </trkpt>
      <trkpt lat="45.8503" lon="3.54112">
        <ele>309.9</ele>
        <time>2026-05-10T07:30:22.000Z</time>
      </trkpt>
      <trkpt lat="45.8503" lon="3.54114">
        <ele>309.9</ele>
        <time>2026-05-10T07:30:23.000Z</time>
      </trkpt>
      <trkpt lat="45.85031" lon="3.54116">
        <ele>309.9</ele>
        <time>2026-05-10T07:30:24.000Z</time>
      </trkpt>
      <trkpt lat="45.85031" lon="3.54117">
        <ele>309.9</ele>
        <time>2026-05-10T07:30:25.000Z</time>
      </trkpt>
      <trkpt lat="45.85031" lon="3.54119">
        <ele>309.9</ele>
        <time>2026-05-10T07:30:26.000Z</time>
      </trkpt>
      <trkpt lat="45.85032" lon="3.54121">
        <ele>309.9</ele>
        <time>2026-05-10T07:30:27.000Z</time>
      </trkpt>
      <trkpt lat="45.85032" lon="3.54122">
        <ele>309.9</ele>
        <time>2026-05-10T07:30:28.000Z</time>
      </trkpt>
      <trkpt lat="45.85032" lon="3.54124">
        <ele>309.8</ele>
        <time>2026-05-10T07:30:29.000Z</time>
      </trkpt>
      <trkpt lat="45.85032" lon="3.54127">
        <ele>309.8</ele>
        <time>2026-05-10T07:30:30.000Z</time>
      </trkpt>
      <trkpt lat="45.85032" lon="3.54128">
        <ele>309.8</ele>
        <time>2026-05-10T07:30:31.000Z</time>
      </trkpt>
      <trkpt lat="45.85033" lon="3.5413">
        <ele>309.8</ele>
        <time>2026-05-10T07:30:32.000Z</time>
      </trkpt>
      <trkpt lat="45.85033" lon="3.54133">
        <ele>309.8</ele>
        <time>2026-05-10T07:30:33.000Z</time>
      </trkpt>
      <trkpt lat="45.85033" lon="3.54135">
        <ele>309.8</ele>
        <time>2026-05-10T07:30:34.000Z</time>
      </trkpt>
      <trkpt lat="45.85034" lon="3.54137">
        <ele>309.8</ele>
        <time>2026-05-10T07:30:35.000Z</time>
      </trkpt>
      <trkpt lat="45.85034" lon="3.54139">
        <ele>309.8</ele>
        <time>2026-05-10T07:30:36.000Z</time>
      </trkpt>
      <trkpt lat="45.85034" lon="3.54141">
        <ele>309.8</ele>
        <time>2026-05-10T07:30:37.000Z</time>
      </trkpt>
      <trkpt lat="45.85034" lon="3.54142">
        <ele>309.8</ele>
        <time>2026-05-10T07:30:38.000Z</time>
      </trkpt>
      <trkpt lat="45.85034" lon="3.54144">
        <ele>309.8</ele>
        <time>2026-05-10T07:30:39.000Z</time>
      </trkpt>
      <trkpt lat="45.85034" lon="3.54145">
        <ele>309.8</ele>
        <time>2026-05-10T07:30:40.000Z</time>
      </trkpt>
      <trkpt lat="45.85034" lon="3.54147">
        <ele>309.8</ele>
        <time>2026-05-10T07:30:41.000Z</time>
      </trkpt>
      <trkpt lat="45.85034" lon="3.54149">
        <ele>309.9</ele>
        <time>2026-05-10T07:30:42.000Z</time>
      </trkpt>
      <trkpt lat="45.85034" lon="3.54151">
        <ele>309.9</ele>
        <time>2026-05-10T07:30:43.000Z</time>
      </trkpt>
      <trkpt lat="45.85034" lon="3.54152">
        <ele>309.9</ele>
        <time>2026-05-10T07:30:44.000Z</time>
      </trkpt>
      <trkpt lat="45.85035" lon="3.54154">
        <ele>309.9</ele>
        <time>2026-05-10T07:30:45.000Z</time>
      </trkpt>
      <trkpt lat="45.85035" lon="3.54156">
        <ele>309.9</ele>
        <time>2026-05-10T07:30:46.000Z</time>
      </trkpt>
      <trkpt lat="45.85035" lon="3.54157">
        <ele>309.9</ele>
        <time>2026-05-10T07:30:47.000Z</time>
      </trkpt>
      <trkpt lat="45.85035" lon="3.54159">
        <ele>309.9</ele>
        <time>2026-05-10T07:30:48.000Z</time>
      </trkpt>
      <trkpt lat="45.85035" lon="3.54161">
        <ele>309.9</ele>
        <time>2026-05-10T07:30:49.000Z</time>
      </trkpt>
      <trkpt lat="45.85035" lon="3.54162">
        <ele>310</ele>
        <time>2026-05-10T07:30:50.000Z</time>
      </trkpt>
      <trkpt lat="45.85035" lon="3.54164">
        <ele>310</ele>
        <time>2026-05-10T07:30:51.000Z</time>
      </trkpt>
      <trkpt lat="45.85036" lon="3.54166">
        <ele>310</ele>
        <time>2026-05-10T07:30:52.000Z</time>
      </trkpt>
      <trkpt lat="45.85036" lon="3.54168">
        <ele>310</ele>
        <time>2026-05-10T07:30:53.000Z</time>
      </trkpt>
      <trkpt lat="45.85036" lon="3.54169">
        <ele>310.1</ele>
        <time>2026-05-10T07:30:54.000Z</time>
      </trkpt>
      <trkpt lat="45.85036" lon="3.54172">
        <ele>310.1</ele>
        <time>2026-05-10T07:30:55.000Z</time>
      </trkpt>
      <trkpt lat="45.85037" lon="3.54174">
        <ele>310.2</ele>
        <time>2026-05-10T07:30:56.000Z</time>
      </trkpt>
      <trkpt lat="45.85037" lon="3.54175">
        <ele>310.2</ele>
        <time>2026-05-10T07:30:57.000Z</time>
      </trkpt>
      <trkpt lat="45.85037" lon="3.54178">
        <ele>310.3</ele>
        <time>2026-05-10T07:30:58.000Z</time>
      </trkpt>
      <trkpt lat="45.85038" lon="3.5418">
        <ele>310.3</ele>
        <time>2026-05-10T07:30:59.000Z</time>
      </trkpt>
      <trkpt lat="45.85038" lon="3.54181">
        <ele>310.3</ele>
        <time>2026-05-10T07:31:00.000Z</time>
      </trkpt>
      <trkpt lat="45.85038" lon="3.54183">
        <ele>310.4</ele>
        <time>2026-05-10T07:31:01.000Z</time>
      </trkpt>
      <trkpt lat="45.85039" lon="3.54185">
        <ele>310.4</ele>
        <time>2026-05-10T07:31:02.000Z</time>
      </trkpt>
      <trkpt lat="45.85039" lon="3.54187">
        <ele>310.4</ele>
        <time>2026-05-10T07:31:03.000Z</time>
      </trkpt>
      <trkpt lat="45.85039" lon="3.54188">
        <ele>310.5</ele>
        <time>2026-05-10T07:31:04.000Z</time>
      </trkpt>
      <trkpt lat="45.8504" lon="3.5419">
        <ele>310.5</ele>
        <time>2026-05-10T07:31:05.000Z</time>
      </trkpt>
      <trkpt lat="45.8504" lon="3.54192">
        <ele>310.5</ele>
        <time>2026-05-10T07:31:06.000Z</time>
      </trkpt>
      <trkpt lat="45.8504" lon="3.54194">
        <ele>310.6</ele>
        <time>2026-05-10T07:31:07.000Z</time>
      </trkpt>
      <trkpt lat="45.8504" lon="3.54196">
        <ele>310.6</ele>
        <time>2026-05-10T07:31:08.000Z</time>
      </trkpt>
      <trkpt lat="45.8504" lon="3.54197">
        <ele>310.5</ele>
        <time>2026-05-10T07:31:09.000Z</time>
      </trkpt>
      <trkpt lat="45.85041" lon="3.54199">
        <ele>310.5</ele>
        <time>2026-05-10T07:31:10.000Z</time>
      </trkpt>
      <trkpt lat="45.85041" lon="3.54201">
        <ele>310.5</ele>
        <time>2026-05-10T07:31:11.000Z</time>
      </trkpt>
      <trkpt lat="45.85041" lon="3.54203">
        <ele>310.5</ele>
        <time>2026-05-10T07:31:12.000Z</time>
      </trkpt>
      <trkpt lat="45.85041" lon="3.54205">
        <ele>310.5</ele>
        <time>2026-05-10T07:31:13.000Z</time>
      </trkpt>
      <trkpt lat="45.85041" lon="3.54207">
        <ele>310.5</ele>
        <time>2026-05-10T07:31:14.000Z</time>
      </trkpt>
      <trkpt lat="45.85042" lon="3.54209">
        <ele>310.5</ele>
        <time>2026-05-10T07:31:15.000Z</time>
      </trkpt>
      <trkpt lat="45.85042" lon="3.54211">
        <ele>310.5</ele>
        <time>2026-05-10T07:31:16.000Z</time>
      </trkpt>
      <trkpt lat="45.85043" lon="3.54212">
        <ele>310.5</ele>
        <time>2026-05-10T07:31:17.000Z</time>
      </trkpt>
      <trkpt lat="45.85043" lon="3.54214">
        <ele>310.5</ele>
        <time>2026-05-10T07:31:18.000Z</time>
      </trkpt>
      <trkpt lat="45.85043" lon="3.54216">
        <ele>310.5</ele>
        <time>2026-05-10T07:31:19.000Z</time>
      </trkpt>
      <trkpt lat="45.85043" lon="3.54218">
        <ele>310.4</ele>
        <time>2026-05-10T07:31:20.000Z</time>
      </trkpt>
      <trkpt lat="45.85043" lon="3.5422">
        <ele>310.4</ele>
        <time>2026-05-10T07:31:21.000Z</time>
      </trkpt>
      <trkpt lat="45.85044" lon="3.54222">
        <ele>310.4</ele>
        <time>2026-05-10T07:31:22.000Z</time>
      </trkpt>
      <trkpt lat="45.85044" lon="3.54223">
        <ele>310.4</ele>
        <time>2026-05-10T07:31:23.000Z</time>
      </trkpt>
      <trkpt lat="45.85044" lon="3.54225">
        <ele>310.4</ele>
        <time>2026-05-10T07:31:24.000Z</time>
      </trkpt>
      <trkpt lat="45.85045" lon="3.54227">
        <ele>310.3</ele>
        <time>2026-05-10T07:31:25.000Z</time>
      </trkpt>
      <trkpt lat="45.85045" lon="3.54229">
        <ele>310.3</ele>
        <time>2026-05-10T07:31:26.000Z</time>
      </trkpt>
      <trkpt lat="45.85046" lon="3.5423">
        <ele>310.3</ele>
        <time>2026-05-10T07:31:27.000Z</time>
      </trkpt>
      <trkpt lat="45.85046" lon="3.54232">
        <ele>310.2</ele>
        <time>2026-05-10T07:31:28.000Z</time>
      </trkpt>
      <trkpt lat="45.85046" lon="3.54234">
        <ele>310.2</ele>
        <time>2026-05-10T07:31:29.000Z</time>
      </trkpt>
      <trkpt lat="45.85047" lon="3.54236">
        <ele>310.2</ele>
        <time>2026-05-10T07:31:30.000Z</time>
      </trkpt>
      <trkpt lat="45.85047" lon="3.54238">
        <ele>310.1</ele>
        <time>2026-05-10T07:31:31.000Z</time>
      </trkpt>
      <trkpt lat="45.85047" lon="3.54239">
        <ele>310.1</ele>
        <time>2026-05-10T07:31:32.000Z</time>
      </trkpt>
      <trkpt lat="45.85048" lon="3.5424">
        <ele>310.1</ele>
        <time>2026-05-10T07:31:33.000Z</time>
      </trkpt>
      <trkpt lat="45.85048" lon="3.54242">
        <ele>310.1</ele>
        <time>2026-05-10T07:31:34.000Z</time>
      </trkpt>
      <trkpt lat="45.85049" lon="3.54244">
        <ele>310.1</ele>
        <time>2026-05-10T07:31:35.000Z</time>
      </trkpt>
      <trkpt lat="45.85049" lon="3.54245">
        <ele>310</ele>
        <time>2026-05-10T07:31:36.000Z</time>
      </trkpt>
      <trkpt lat="45.8505" lon="3.54247">
        <ele>310</ele>
        <time>2026-05-10T07:31:37.000Z</time>
      </trkpt>
      <trkpt lat="45.8505" lon="3.54249">
        <ele>310</ele>
        <time>2026-05-10T07:31:38.000Z</time>
      </trkpt>
      <trkpt lat="45.85051" lon="3.54251">
        <ele>310</ele>
        <time>2026-05-10T07:31:39.000Z</time>
      </trkpt>
      <trkpt lat="45.85051" lon="3.54252">
        <ele>310</ele>
        <time>2026-05-10T07:31:40.000Z</time>
      </trkpt>
      <trkpt lat="45.85051" lon="3.54254">
        <ele>310</ele>
        <time>2026-05-10T07:31:41.000Z</time>
      </trkpt>
      <trkpt lat="45.85052" lon="3.54256">
        <ele>310</ele>
        <time>2026-05-10T07:31:42.000Z</time>
      </trkpt>
      <trkpt lat="45.85052" lon="3.54257">
        <ele>310</ele>
        <time>2026-05-10T07:31:43.000Z</time>
      </trkpt>
      <trkpt lat="45.85052" lon="3.54259">
        <ele>310</ele>
        <time>2026-05-10T07:31:44.000Z</time>
      </trkpt>
      <trkpt lat="45.85053" lon="3.54261">
        <ele>310</ele>
        <time>2026-05-10T07:31:45.000Z</time>
      </trkpt>
      <trkpt lat="45.85053" lon="3.54263">
        <ele>310</ele>
        <time>2026-05-10T07:31:46.000Z</time>
      </trkpt>
      <trkpt lat="45.85053" lon="3.54264">
        <ele>310</ele>
        <time>2026-05-10T07:31:47.000Z</time>
      </trkpt>
      <trkpt lat="45.85054" lon="3.54265">
        <ele>310</ele>
        <time>2026-05-10T07:31:48.000Z</time>
      </trkpt>
      <trkpt lat="45.85054" lon="3.54266">
        <ele>310</ele>
        <time>2026-05-10T07:31:49.000Z</time>
      </trkpt>
      <trkpt lat="45.85054" lon="3.54268">
        <ele>310</ele>
        <time>2026-05-10T07:31:50.000Z</time>
      </trkpt>
      <trkpt lat="45.85055" lon="3.54269">
        <ele>310</ele>
        <time>2026-05-10T07:31:51.000Z</time>
      </trkpt>
      <trkpt lat="45.85055" lon="3.54271">
        <ele>310</ele>
        <time>2026-05-10T07:31:52.000Z</time>
      </trkpt>
      <trkpt lat="45.85055" lon="3.54272">
        <ele>310</ele>
        <time>2026-05-10T07:31:53.000Z</time>
      </trkpt>
      <trkpt lat="45.85056" lon="3.54274">
        <ele>310</ele>
        <time>2026-05-10T07:31:54.000Z</time>
      </trkpt>
      <trkpt lat="45.85056" lon="3.54276">
        <ele>310</ele>
        <time>2026-05-10T07:31:55.000Z</time>
      </trkpt>
      <trkpt lat="45.85056" lon="3.54277">
        <ele>310</ele>
        <time>2026-05-10T07:31:56.000Z</time>
      </trkpt>
      <trkpt lat="45.85057" lon="3.54278">
        <ele>310</ele>
        <time>2026-05-10T07:31:57.000Z</time>
      </trkpt>
      <trkpt lat="45.85057" lon="3.5428">
        <ele>310</ele>
        <time>2026-05-10T07:31:58.000Z</time>
      </trkpt>
      <trkpt lat="45.85057" lon="3.54282">
        <ele>310</ele>
        <time>2026-05-10T07:31:59.000Z</time>
      </trkpt>
      <trkpt lat="45.85058" lon="3.54284">
        <ele>310</ele>
        <time>2026-05-10T07:32:00.000Z</time>
      </trkpt>
      <trkpt lat="45.85058" lon="3.54285">
        <ele>310</ele>
        <time>2026-05-10T07:32:01.000Z</time>
      </trkpt>
      <trkpt lat="45.85059" lon="3.54287">
        <ele>310</ele>
        <time>2026-05-10T07:32:02.000Z</time>
      </trkpt>
      <trkpt lat="45.85059" lon="3.54288">
        <ele>310</ele>
        <time>2026-05-10T07:32:03.000Z</time>
      </trkpt>
      <trkpt lat="45.8506" lon="3.5429">
        <ele>310</ele>
        <time>2026-05-10T07:32:04.000Z</time>
      </trkpt>
      <trkpt lat="45.85061" lon="3.54291">
        <ele>310</ele>
        <time>2026-05-10T07:32:05.000Z</time>
      </trkpt>
      <trkpt lat="45.85062" lon="3.54293">
        <ele>310</ele>
        <time>2026-05-10T07:32:06.000Z</time>
      </trkpt>
      <trkpt lat="45.85063" lon="3.54294">
        <ele>310</ele>
        <time>2026-05-10T07:32:07.000Z</time>
      </trkpt>
      <trkpt lat="45.85064" lon="3.54295">
        <ele>310</ele>
        <time>2026-05-10T07:32:08.000Z</time>
      </trkpt>
      <trkpt lat="45.85065" lon="3.54296">
        <ele>310</ele>
        <time>2026-05-10T07:32:09.000Z</time>
      </trkpt>
      <trkpt lat="45.85066" lon="3.54297">
        <ele>310</ele>
        <time>2026-05-10T07:32:10.000Z</time>
      </trkpt>
      <trkpt lat="45.85067" lon="3.54298">
        <ele>310</ele>
        <time>2026-05-10T07:32:11.000Z</time>
      </trkpt>
      <trkpt lat="45.85068" lon="3.54299">
        <ele>310</ele>
        <time>2026-05-10T07:32:12.000Z</time>
      </trkpt>
      <trkpt lat="45.8507" lon="3.54299">
        <ele>310</ele>
        <time>2026-05-10T07:32:13.000Z</time>
      </trkpt>
      <trkpt lat="45.85071" lon="3.543">
        <ele>310</ele>
        <time>2026-05-10T07:32:14.000Z</time>
      </trkpt>
      <trkpt lat="45.85072" lon="3.543">
        <ele>310</ele>
        <time>2026-05-10T07:32:15.000Z</time>
      </trkpt>
      <trkpt lat="45.85073" lon="3.543">
        <ele>310</ele>
        <time>2026-05-10T07:32:16.000Z</time>
      </trkpt>
      <trkpt lat="45.85074" lon="3.543">
        <ele>310</ele>
        <time>2026-05-10T07:32:17.000Z</time>
      </trkpt>
      <trkpt lat="45.85076" lon="3.54301">
        <ele>310</ele>
        <time>2026-05-10T07:32:18.000Z</time>
      </trkpt>
      <trkpt lat="45.85077" lon="3.54301">
        <ele>310</ele>
        <time>2026-05-10T07:32:19.000Z</time>
      </trkpt>
      <trkpt lat="45.85078" lon="3.54302">
        <ele>310</ele>
        <time>2026-05-10T07:32:20.000Z</time>
      </trkpt>
      <trkpt lat="45.85079" lon="3.54303">
        <ele>310</ele>
        <time>2026-05-10T07:32:21.000Z</time>
      </trkpt>
      <trkpt lat="45.8508" lon="3.54303">
        <ele>310</ele>
        <time>2026-05-10T07:32:22.000Z</time>
      </trkpt>
      <trkpt lat="45.85082" lon="3.54304">
        <ele>310</ele>
        <time>2026-05-10T07:32:23.000Z</time>
      </trkpt>
      <trkpt lat="45.85083" lon="3.54305">
        <ele>310</ele>
        <time>2026-05-10T07:32:24.000Z</time>
      </trkpt>
      <trkpt lat="45.85084" lon="3.54306">
        <ele>310</ele>
        <time>2026-05-10T07:32:25.000Z</time>
      </trkpt>
      <trkpt lat="45.85085" lon="3.54307">
        <ele>310.1</ele>
        <time>2026-05-10T07:32:26.000Z</time>
      </trkpt>
      <trkpt lat="45.85086" lon="3.54308">
        <ele>310.2</ele>
        <time>2026-05-10T07:32:27.000Z</time>
      </trkpt>
      <trkpt lat="45.85087" lon="3.54309">
        <ele>310.3</ele>
        <time>2026-05-10T07:32:28.000Z</time>
      </trkpt>
      <trkpt lat="45.85088" lon="3.5431">
        <ele>310.3</ele>
        <time>2026-05-10T07:32:29.000Z</time>
      </trkpt>
      <trkpt lat="45.85089" lon="3.54311">
        <ele>310.3</ele>
        <time>2026-05-10T07:32:30.000Z</time>
      </trkpt>
      <trkpt lat="45.8509" lon="3.54312">
        <ele>310.4</ele>
        <time>2026-05-10T07:32:31.000Z</time>
      </trkpt>
      <trkpt lat="45.85091" lon="3.54313">
        <ele>310.5</ele>
        <time>2026-05-10T07:32:32.000Z</time>
      </trkpt>
      <trkpt lat="45.85092" lon="3.54314">
        <ele>310.5</ele>
        <time>2026-05-10T07:32:33.000Z</time>
      </trkpt>
      <trkpt lat="45.85092" lon="3.54315">
        <ele>310.5</ele>
        <time>2026-05-10T07:32:34.000Z</time>
      </trkpt>
      <trkpt lat="45.85093" lon="3.54316">
        <ele>310.6</ele>
        <time>2026-05-10T07:32:35.000Z</time>
      </trkpt>
      <trkpt lat="45.85094" lon="3.54318">
        <ele>310.7</ele>
        <time>2026-05-10T07:32:36.000Z</time>
      </trkpt>
      <trkpt lat="45.85095" lon="3.54319">
        <ele>310.7</ele>
        <time>2026-05-10T07:32:37.000Z</time>
      </trkpt>
      <trkpt lat="45.85095" lon="3.54321">
        <ele>310.7</ele>
        <time>2026-05-10T07:32:38.000Z</time>
      </trkpt>
      <trkpt lat="45.85096" lon="3.54322">
        <ele>310.8</ele>
        <time>2026-05-10T07:32:39.000Z</time>
      </trkpt>
      <trkpt lat="45.85097" lon="3.54324">
        <ele>310.8</ele>
        <time>2026-05-10T07:32:40.000Z</time>
      </trkpt>
      <trkpt lat="45.85097" lon="3.54326">
        <ele>310.9</ele>
        <time>2026-05-10T07:32:41.000Z</time>
      </trkpt>
      <trkpt lat="45.85098" lon="3.54327">
        <ele>310.9</ele>
        <time>2026-05-10T07:32:42.000Z</time>
      </trkpt>
      <trkpt lat="45.85098" lon="3.54329">
        <ele>310.9</ele>
        <time>2026-05-10T07:32:43.000Z</time>
      </trkpt>
      <trkpt lat="45.85099" lon="3.5433">
        <ele>310.9</ele>
        <time>2026-05-10T07:32:44.000Z</time>
      </trkpt>
      <trkpt lat="45.85099" lon="3.54331">
        <ele>311</ele>
        <time>2026-05-10T07:32:45.000Z</time>
      </trkpt>
      <trkpt lat="45.85099" lon="3.54333">
        <ele>311</ele>
        <time>2026-05-10T07:32:46.000Z</time>
      </trkpt>
      <trkpt lat="45.851" lon="3.54334">
        <ele>311</ele>
        <time>2026-05-10T07:32:47.000Z</time>
      </trkpt>
      <trkpt lat="45.851" lon="3.54336">
        <ele>311</ele>
        <time>2026-05-10T07:32:48.000Z</time>
      </trkpt>
      <trkpt lat="45.85101" lon="3.54337">
        <ele>311</ele>
        <time>2026-05-10T07:32:49.000Z</time>
      </trkpt>
      <trkpt lat="45.85101" lon="3.54339">
        <ele>311</ele>
        <time>2026-05-10T07:32:50.000Z</time>
      </trkpt>
      <trkpt lat="45.85101" lon="3.5434">
        <ele>311</ele>
        <time>2026-05-10T07:32:51.000Z</time>
      </trkpt>
      <trkpt lat="45.85102" lon="3.54341">
        <ele>311</ele>
        <time>2026-05-10T07:32:52.000Z</time>
      </trkpt>
      <trkpt lat="45.85102" lon="3.54343">
        <ele>311</ele>
        <time>2026-05-10T07:32:53.000Z</time>
      </trkpt>
      <trkpt lat="45.85102" lon="3.54345">
        <ele>311</ele>
        <time>2026-05-10T07:32:54.000Z</time>
      </trkpt>
      <trkpt lat="45.85102" lon="3.54346">
        <ele>311</ele>
        <time>2026-05-10T07:32:55.000Z</time>
      </trkpt>
      <trkpt lat="45.85102" lon="3.54347">
        <ele>311</ele>
        <time>2026-05-10T07:32:56.000Z</time>
      </trkpt>
      <trkpt lat="45.85102" lon="3.54349">
        <ele>311</ele>
        <time>2026-05-10T07:32:57.000Z</time>
      </trkpt>
      <trkpt lat="45.85102" lon="3.54351">
        <ele>311</ele>
        <time>2026-05-10T07:32:58.000Z</time>
      </trkpt>
      <trkpt lat="45.85102" lon="3.54352">
        <ele>311</ele>
        <time>2026-05-10T07:32:59.000Z</time>
      </trkpt>
      <trkpt lat="45.85102" lon="3.54354">
        <ele>311</ele>
        <time>2026-05-10T07:33:00.000Z</time>
      </trkpt>
      <trkpt lat="45.85103" lon="3.54356">
        <ele>311</ele>
        <time>2026-05-10T07:33:01.000Z</time>
      </trkpt>
      <trkpt lat="45.85103" lon="3.54358">
        <ele>311</ele>
        <time>2026-05-10T07:33:02.000Z</time>
      </trkpt>
      <trkpt lat="45.85103" lon="3.54361">
        <ele>311</ele>
        <time>2026-05-10T07:33:03.000Z</time>
      </trkpt>
      <trkpt lat="45.85103" lon="3.54363">
        <ele>311</ele>
        <time>2026-05-10T07:33:04.000Z</time>
      </trkpt>
      <trkpt lat="45.85103" lon="3.54365">
        <ele>311</ele>
        <time>2026-05-10T07:33:05.000Z</time>
      </trkpt>
      <trkpt lat="45.85103" lon="3.54367">
        <ele>311.1</ele>
        <time>2026-05-10T07:33:06.000Z</time>
      </trkpt>
      <trkpt lat="45.85103" lon="3.54369">
        <ele>311.1</ele>
        <time>2026-05-10T07:33:07.000Z</time>
      </trkpt>
      <trkpt lat="45.85103" lon="3.54371">
        <ele>311.1</ele>
        <time>2026-05-10T07:33:08.000Z</time>
      </trkpt>
      <trkpt lat="45.85103" lon="3.54373">
        <ele>311.1</ele>
        <time>2026-05-10T07:33:09.000Z</time>
      </trkpt>
      <trkpt lat="45.85103" lon="3.54375">
        <ele>311.2</ele>
        <time>2026-05-10T07:33:10.000Z</time>
      </trkpt>
      <trkpt lat="45.85102" lon="3.54377">
        <ele>311.2</ele>
        <time>2026-05-10T07:33:11.000Z</time>
      </trkpt>
      <trkpt lat="45.85103" lon="3.54378">
        <ele>311.2</ele>
        <time>2026-05-10T07:33:12.000Z</time>
      </trkpt>
      <trkpt lat="45.85103" lon="3.5438">
        <ele>311.2</ele>
        <time>2026-05-10T07:33:13.000Z</time>
      </trkpt>
      <trkpt lat="45.85103" lon="3.54382">
        <ele>311.2</ele>
        <time>2026-05-10T07:33:14.000Z</time>
      </trkpt>
      <trkpt lat="45.85102" lon="3.54383">
        <ele>311.3</ele>
        <time>2026-05-10T07:33:15.000Z</time>
      </trkpt>
      <trkpt lat="45.85102" lon="3.54384">
        <ele>311.3</ele>
        <time>2026-05-10T07:33:16.000Z</time>
      </trkpt>
      <trkpt lat="45.85101" lon="3.54386">
        <ele>311.3</ele>
        <time>2026-05-10T07:33:17.000Z</time>
      </trkpt>
      <trkpt lat="45.851" lon="3.54387">
        <ele>311.4</ele>
        <time>2026-05-10T07:33:18.000Z</time>
      </trkpt>
      <trkpt lat="45.85099" lon="3.54389">
        <ele>311.4</ele>
        <time>2026-05-10T07:33:19.000Z</time>
      </trkpt>
      <trkpt lat="45.85098" lon="3.5439">
        <ele>311.5</ele>
        <time>2026-05-10T07:33:20.000Z</time>
      </trkpt>
      <trkpt lat="45.85097" lon="3.54392">
        <ele>311.6</ele>
        <time>2026-05-10T07:33:21.000Z</time>
      </trkpt>
      <trkpt lat="45.85096" lon="3.54393">
        <ele>311.6</ele>
        <time>2026-05-10T07:33:22.000Z</time>
      </trkpt>
      <trkpt lat="45.85095" lon="3.54395">
        <ele>311.7</ele>
        <time>2026-05-10T07:33:23.000Z</time>
      </trkpt>
      <trkpt lat="45.85094" lon="3.54396">
        <ele>311.7</ele>
        <time>2026-05-10T07:33:24.000Z</time>
      </trkpt>
      <trkpt lat="45.85093" lon="3.54397">
        <ele>311.7</ele>
        <time>2026-05-10T07:33:25.000Z</time>
      </trkpt>
      <trkpt lat="45.85092" lon="3.54399">
        <ele>311.8</ele>
        <time>2026-05-10T07:33:26.000Z</time>
      </trkpt>
      <trkpt lat="45.85091" lon="3.544">
        <ele>311.8</ele>
        <time>2026-05-10T07:33:27.000Z</time>
      </trkpt>
      <trkpt lat="45.8509" lon="3.54401">
        <ele>311.9</ele>
        <time>2026-05-10T07:33:28.000Z</time>
      </trkpt>
      <trkpt lat="45.85089" lon="3.54401">
        <ele>311.9</ele>
        <time>2026-05-10T07:33:29.000Z</time>
      </trkpt>
      <trkpt lat="45.85088" lon="3.54402">
        <ele>311.9</ele>
        <time>2026-05-10T07:33:30.000Z</time>
      </trkpt>
      <trkpt lat="45.85086" lon="3.54403">
        <ele>312</ele>
        <time>2026-05-10T07:33:31.000Z</time>
      </trkpt>
      <trkpt lat="45.85087" lon="3.54406">
        <ele>311.9</ele>
        <time>2026-05-10T07:33:32.000Z</time>
      </trkpt>
      <trkpt lat="45.85087" lon="3.54407">
        <ele>312</ele>
        <time>2026-05-10T07:33:33.000Z</time>
      </trkpt>
      <trkpt lat="45.85087" lon="3.54409">
        <ele>312</ele>
        <time>2026-05-10T07:33:34.000Z</time>
      </trkpt>
      <trkpt lat="45.85087" lon="3.5441">
        <ele>312</ele>
        <time>2026-05-10T07:33:35.000Z</time>
      </trkpt>
      <trkpt lat="45.85087" lon="3.54412">
        <ele>312</ele>
        <time>2026-05-10T07:33:36.000Z</time>
      </trkpt>
      <trkpt lat="45.85087" lon="3.54414">
        <ele>312</ele>
        <time>2026-05-10T07:33:37.000Z</time>
      </trkpt>
      <trkpt lat="45.85088" lon="3.54416">
        <ele>312</ele>
        <time>2026-05-10T07:33:38.000Z</time>
      </trkpt>
      <trkpt lat="45.85088" lon="3.54417">
        <ele>312</ele>
        <time>2026-05-10T07:33:39.000Z</time>
      </trkpt>
      <trkpt lat="45.85088" lon="3.54418">
        <ele>312</ele>
        <time>2026-05-10T07:33:40.000Z</time>
      </trkpt>
      <trkpt lat="45.85088" lon="3.5442">
        <ele>312</ele>
        <time>2026-05-10T07:33:41.000Z</time>
      </trkpt>
      <trkpt lat="45.85088" lon="3.54421">
        <ele>312</ele>
        <time>2026-05-10T07:33:42.000Z</time>
      </trkpt>
      <trkpt lat="45.85089" lon="3.54422">
        <ele>312</ele>
        <time>2026-05-10T07:33:43.000Z</time>
      </trkpt>
      <trkpt lat="45.85089" lon="3.54424">
        <ele>312</ele>
        <time>2026-05-10T07:33:44.000Z</time>
      </trkpt>
      <trkpt lat="45.8509" lon="3.54425">
        <ele>312</ele>
        <time>2026-05-10T07:33:45.000Z</time>
      </trkpt>
      <trkpt lat="45.8509" lon="3.54427">
        <ele>312</ele>
        <time>2026-05-10T07:33:46.000Z</time>
      </trkpt>
      <trkpt lat="45.85091" lon="3.54428">
        <ele>312</ele>
        <time>2026-05-10T07:33:47.000Z</time>
      </trkpt>
      <trkpt lat="45.85092" lon="3.54429">
        <ele>312</ele>
        <time>2026-05-10T07:33:48.000Z</time>
      </trkpt>
      <trkpt lat="45.85092" lon="3.5443">
        <ele>312</ele>
        <time>2026-05-10T07:33:49.000Z</time>
      </trkpt>
      <trkpt lat="45.85093" lon="3.54431">
        <ele>312</ele>
        <time>2026-05-10T07:33:50.000Z</time>
      </trkpt>
      <trkpt lat="45.85093" lon="3.54432">
        <ele>312</ele>
        <time>2026-05-10T07:33:51.000Z</time>
      </trkpt>
      <trkpt lat="45.85094" lon="3.54434">
        <ele>312</ele>
        <time>2026-05-10T07:33:52.000Z</time>
      </trkpt>
      <trkpt lat="45.85095" lon="3.54435">
        <ele>312</ele>
        <time>2026-05-10T07:33:53.000Z</time>
      </trkpt>
      <trkpt lat="45.85096" lon="3.54436">
        <ele>312</ele>
        <time>2026-05-10T07:33:54.000Z</time>
      </trkpt>
      <trkpt lat="45.85097" lon="3.54437">
        <ele>312</ele>
        <time>2026-05-10T07:33:55.000Z</time>
      </trkpt>
      <trkpt lat="45.85097" lon="3.54439">
        <ele>312</ele>
        <time>2026-05-10T07:33:56.000Z</time>
      </trkpt>
      <trkpt lat="45.85098" lon="3.5444">
        <ele>312</ele>
        <time>2026-05-10T07:33:57.000Z</time>
      </trkpt>
      <trkpt lat="45.85098" lon="3.54441">
        <ele>312</ele>
        <time>2026-05-10T07:33:58.000Z</time>
      </trkpt>
      <trkpt lat="45.85099" lon="3.54443">
        <ele>312</ele>
        <time>2026-05-10T07:33:59.000Z</time>
      </trkpt>
      <trkpt lat="45.851" lon="3.54444">
        <ele>312</ele>
        <time>2026-05-10T07:34:00.000Z</time>
      </trkpt>
      <trkpt lat="45.85101" lon="3.54446">
        <ele>312</ele>
        <time>2026-05-10T07:34:01.000Z</time>
      </trkpt>
      <trkpt lat="45.85101" lon="3.54447">
        <ele>312</ele>
        <time>2026-05-10T07:34:02.000Z</time>
      </trkpt>
      <trkpt lat="45.85102" lon="3.54447">
        <ele>312</ele>
        <time>2026-05-10T07:34:03.000Z</time>
      </trkpt>
      <trkpt lat="45.85103" lon="3.54446">
        <ele>312</ele>
        <time>2026-05-10T07:34:04.000Z</time>
      </trkpt>
      <trkpt lat="45.85104" lon="3.54446">
        <ele>312</ele>
        <time>2026-05-10T07:34:05.000Z</time>
      </trkpt>
      <trkpt lat="45.85106" lon="3.54445">
        <ele>312</ele>
        <time>2026-05-10T07:34:06.000Z</time>
      </trkpt>
      <trkpt lat="45.85107" lon="3.54444">
        <ele>312</ele>
        <time>2026-05-10T07:34:07.000Z</time>
      </trkpt>
      <trkpt lat="45.85109" lon="3.54443">
        <ele>312</ele>
        <time>2026-05-10T07:34:08.000Z</time>
      </trkpt>
      <trkpt lat="45.85111" lon="3.54442">
        <ele>312</ele>
        <time>2026-05-10T07:34:09.000Z</time>
      </trkpt>
      <trkpt lat="45.85112" lon="3.54441">
        <ele>312</ele>
        <time>2026-05-10T07:34:10.000Z</time>
      </trkpt>
      <trkpt lat="45.85113" lon="3.5444">
        <ele>311.9</ele>
        <time>2026-05-10T07:34:11.000Z</time>
      </trkpt>
      <trkpt lat="45.85114" lon="3.54439">
        <ele>311.9</ele>
        <time>2026-05-10T07:34:12.000Z</time>
      </trkpt>
      <trkpt lat="45.85115" lon="3.54438">
        <ele>311.8</ele>
        <time>2026-05-10T07:34:13.000Z</time>
      </trkpt>
      <trkpt lat="45.85117" lon="3.54437">
        <ele>311.8</ele>
        <time>2026-05-10T07:34:14.000Z</time>
      </trkpt>
      <trkpt lat="45.85118" lon="3.54435">
        <ele>311.8</ele>
        <time>2026-05-10T07:34:15.000Z</time>
      </trkpt>
      <trkpt lat="45.85119" lon="3.54434">
        <ele>311.7</ele>
        <time>2026-05-10T07:34:16.000Z</time>
      </trkpt>
      <trkpt lat="45.8512" lon="3.54433">
        <ele>311.7</ele>
        <time>2026-05-10T07:34:17.000Z</time>
      </trkpt>
      <trkpt lat="45.85121" lon="3.54432">
        <ele>311.7</ele>
        <time>2026-05-10T07:34:18.000Z</time>
      </trkpt>
      <trkpt lat="45.85121" lon="3.54431">
        <ele>311.6</ele>
        <time>2026-05-10T07:34:19.000Z</time>
      </trkpt>
      <trkpt lat="45.85122" lon="3.54429">
        <ele>311.6</ele>
        <time>2026-05-10T07:34:20.000Z</time>
      </trkpt>
      <trkpt lat="45.85123" lon="3.54428">
        <ele>311.6</ele>
        <time>2026-05-10T07:34:21.000Z</time>
      </trkpt>
      <trkpt lat="45.85124" lon="3.54426">
        <ele>311.5</ele>
        <time>2026-05-10T07:34:22.000Z</time>
      </trkpt>
      <trkpt lat="45.85125" lon="3.54425">
        <ele>311.5</ele>
        <time>2026-05-10T07:34:23.000Z</time>
      </trkpt>
      <trkpt lat="45.85125" lon="3.54423">
        <ele>311.5</ele>
        <time>2026-05-10T07:34:24.000Z</time>
      </trkpt>
      <trkpt lat="45.85126" lon="3.54421">
        <ele>311.5</ele>
        <time>2026-05-10T07:34:25.000Z</time>
      </trkpt>
      <trkpt lat="45.85127" lon="3.54419">
        <ele>311.4</ele>
        <time>2026-05-10T07:34:26.000Z</time>
      </trkpt>
      <trkpt lat="45.85127" lon="3.54417">
        <ele>311.4</ele>
        <time>2026-05-10T07:34:27.000Z</time>
      </trkpt>
      <trkpt lat="45.85128" lon="3.54415">
        <ele>311.4</ele>
        <time>2026-05-10T07:34:28.000Z</time>
      </trkpt>
      <trkpt lat="45.85129" lon="3.54413">
        <ele>311.3</ele>
        <time>2026-05-10T07:34:29.000Z</time>
      </trkpt>
      <trkpt lat="45.8513" lon="3.54411">
        <ele>311.3</ele>
        <time>2026-05-10T07:34:30.000Z</time>
      </trkpt>
      <trkpt lat="45.85131" lon="3.5441">
        <ele>311.2</ele>
        <time>2026-05-10T07:34:31.000Z</time>
      </trkpt>
      <trkpt lat="45.85132" lon="3.54409">
        <ele>311.2</ele>
        <time>2026-05-10T07:34:32.000Z</time>
      </trkpt>
      <trkpt lat="45.85133" lon="3.54409">
        <ele>311.2</ele>
        <time>2026-05-10T07:34:33.000Z</time>
      </trkpt>
      <trkpt lat="45.85134" lon="3.54409">
        <ele>311.1</ele>
        <time>2026-05-10T07:34:34.000Z</time>
      </trkpt>
      <trkpt lat="45.85135" lon="3.54409">
        <ele>311.1</ele>
        <time>2026-05-10T07:34:35.000Z</time>
      </trkpt>
      <trkpt lat="45.85136" lon="3.54409">
        <ele>311.1</ele>
        <time>2026-05-10T07:34:36.000Z</time>
      </trkpt>
      <trkpt lat="45.85137" lon="3.54409">
        <ele>311.1</ele>
        <time>2026-05-10T07:34:37.000Z</time>
      </trkpt>
      <trkpt lat="45.85139" lon="3.54411">
        <ele>311</ele>
        <time>2026-05-10T07:34:38.000Z</time>
      </trkpt>
      <trkpt lat="45.85141" lon="3.54411">
        <ele>310.9</ele>
        <time>2026-05-10T07:34:39.000Z</time>
      </trkpt>
      <trkpt lat="45.85142" lon="3.54412">
        <ele>310.9</ele>
        <time>2026-05-10T07:34:40.000Z</time>
      </trkpt>
      <trkpt lat="45.85143" lon="3.54413">
        <ele>310.8</ele>
        <time>2026-05-10T07:34:41.000Z</time>
      </trkpt>
      <trkpt lat="45.85144" lon="3.54413">
        <ele>310.8</ele>
        <time>2026-05-10T07:34:42.000Z</time>
      </trkpt>
      <trkpt lat="45.85146" lon="3.54414">
        <ele>310.7</ele>
        <time>2026-05-10T07:34:43.000Z</time>
      </trkpt>
      <trkpt lat="45.85147" lon="3.54415">
        <ele>310.7</ele>
        <time>2026-05-10T07:34:44.000Z</time>
      </trkpt>
      <trkpt lat="45.85148" lon="3.54416">
        <ele>310.7</ele>
        <time>2026-05-10T07:34:45.000Z</time>
      </trkpt>
      <trkpt lat="45.85149" lon="3.54416">
        <ele>310.6</ele>
        <time>2026-05-10T07:34:46.000Z</time>
      </trkpt>
      <trkpt lat="45.85151" lon="3.54418">
        <ele>310.6</ele>
        <time>2026-05-10T07:34:47.000Z</time>
      </trkpt>
      <trkpt lat="45.85152" lon="3.54419">
        <ele>310.6</ele>
        <time>2026-05-10T07:34:48.000Z</time>
      </trkpt>
      <trkpt lat="45.85153" lon="3.5442">
        <ele>310.5</ele>
        <time>2026-05-10T07:34:49.000Z</time>
      </trkpt>
      <trkpt lat="45.85154" lon="3.54421">
        <ele>310.5</ele>
        <time>2026-05-10T07:34:50.000Z</time>
      </trkpt>
      <trkpt lat="45.85154" lon="3.54424">
        <ele>310.6</ele>
        <time>2026-05-10T07:34:51.000Z</time>
      </trkpt>
      <trkpt lat="45.85155" lon="3.54425">
        <ele>310.6</ele>
        <time>2026-05-10T07:34:52.000Z</time>
      </trkpt>
      <trkpt lat="45.85155" lon="3.54427">
        <ele>310.6</ele>
        <time>2026-05-10T07:34:53.000Z</time>
      </trkpt>
      <trkpt lat="45.85156" lon="3.54428">
        <ele>310.6</ele>
        <time>2026-05-10T07:34:54.000Z</time>
      </trkpt>
      <trkpt lat="45.85156" lon="3.54429">
        <ele>310.7</ele>
        <time>2026-05-10T07:34:55.000Z</time>
      </trkpt>
      <trkpt lat="45.85156" lon="3.54431">
        <ele>310.7</ele>
        <time>2026-05-10T07:34:56.000Z</time>
      </trkpt>
      <trkpt lat="45.85157" lon="3.54433">
        <ele>310.7</ele>
        <time>2026-05-10T07:34:57.000Z</time>
      </trkpt>
      <trkpt lat="45.85157" lon="3.54435">
        <ele>310.8</ele>
        <time>2026-05-10T07:34:58.000Z</time>
      </trkpt>
      <trkpt lat="45.85158" lon="3.54438">
        <ele>310.8</ele>
        <time>2026-05-10T07:34:59.000Z</time>
      </trkpt>
      <trkpt lat="45.85159" lon="3.5444">
        <ele>310.9</ele>
        <time>2026-05-10T07:35:00.000Z</time>
      </trkpt>
      <trkpt lat="45.85159" lon="3.54441">
        <ele>310.9</ele>
        <time>2026-05-10T07:35:01.000Z</time>
      </trkpt>
      <trkpt lat="45.8516" lon="3.54443">
        <ele>310.9</ele>
        <time>2026-05-10T07:35:02.000Z</time>
      </trkpt>
      <trkpt lat="45.85161" lon="3.54445">
        <ele>311</ele>
        <time>2026-05-10T07:35:03.000Z</time>
      </trkpt>
      <trkpt lat="45.85161" lon="3.54447">
        <ele>311</ele>
        <time>2026-05-10T07:35:04.000Z</time>
      </trkpt>
      <trkpt lat="45.85161" lon="3.54449">
        <ele>311</ele>
        <time>2026-05-10T07:35:05.000Z</time>
      </trkpt>
      <trkpt lat="45.85162" lon="3.54451">
        <ele>311</ele>
        <time>2026-05-10T07:35:06.000Z</time>
      </trkpt>
      <trkpt lat="45.85162" lon="3.54453">
        <ele>311</ele>
        <time>2026-05-10T07:35:07.000Z</time>
      </trkpt>
      <trkpt lat="45.85162" lon="3.54455">
        <ele>311</ele>
        <time>2026-05-10T07:35:08.000Z</time>
      </trkpt>
      <trkpt lat="45.85162" lon="3.54457">
        <ele>311</ele>
        <time>2026-05-10T07:35:09.000Z</time>
      </trkpt>
      <trkpt lat="45.85162" lon="3.54459">
        <ele>311</ele>
        <time>2026-05-10T07:35:10.000Z</time>
      </trkpt>
      <trkpt lat="45.85162" lon="3.54461">
        <ele>311</ele>
        <time>2026-05-10T07:35:11.000Z</time>
      </trkpt>
      <trkpt lat="45.85162" lon="3.54462">
        <ele>311</ele>
        <time>2026-05-10T07:35:12.000Z</time>
      </trkpt>
      <trkpt lat="45.85163" lon="3.54464">
        <ele>311</ele>
        <time>2026-05-10T07:35:13.000Z</time>
      </trkpt>
      <trkpt lat="45.85163" lon="3.54465">
        <ele>311</ele>
        <time>2026-05-10T07:35:14.000Z</time>
      </trkpt>
      <trkpt lat="45.85163" lon="3.54466">
        <ele>311</ele>
        <time>2026-05-10T07:35:15.000Z</time>
      </trkpt>
      <trkpt lat="45.85163" lon="3.54466">
        <ele>311</ele>
        <time>2026-05-10T07:35:16.000Z</time>
      </trkpt>
      <trkpt lat="45.85164" lon="3.54468">
        <ele>311</ele>
        <time>2026-05-10T07:35:17.000Z</time>
      </trkpt>
      <trkpt lat="45.85164" lon="3.5447">
        <ele>311</ele>
        <time>2026-05-10T07:35:18.000Z</time>
      </trkpt>
      <trkpt lat="45.85164" lon="3.54472">
        <ele>311</ele>
        <time>2026-05-10T07:35:19.000Z</time>
      </trkpt>
      <trkpt lat="45.85164" lon="3.54474">
        <ele>310.9</ele>
        <time>2026-05-10T07:35:20.000Z</time>
      </trkpt>
      <trkpt lat="45.85164" lon="3.54476">
        <ele>310.7</ele>
        <time>2026-05-10T07:35:21.000Z</time>
      </trkpt>
      <trkpt lat="45.85163" lon="3.54478">
        <ele>310.6</ele>
        <time>2026-05-10T07:35:22.000Z</time>
      </trkpt>
      <trkpt lat="45.85163" lon="3.5448">
        <ele>310.4</ele>
        <time>2026-05-10T07:35:23.000Z</time>
      </trkpt>
      <trkpt lat="45.85163" lon="3.54482">
        <ele>310.3</ele>
        <time>2026-05-10T07:35:24.000Z</time>
      </trkpt>
      <trkpt lat="45.85162" lon="3.54484">
        <ele>310.2</ele>
        <time>2026-05-10T07:35:25.000Z</time>
      </trkpt>
      <trkpt lat="45.85162" lon="3.54486">
        <ele>310</ele>
        <time>2026-05-10T07:35:26.000Z</time>
      </trkpt>
      <trkpt lat="45.85162" lon="3.54487">
        <ele>309.9</ele>
        <time>2026-05-10T07:35:27.000Z</time>
      </trkpt>
      <trkpt lat="45.85162" lon="3.54489">
        <ele>309.8</ele>
        <time>2026-05-10T07:35:28.000Z</time>
      </trkpt>
      <trkpt lat="45.85162" lon="3.5449">
        <ele>309.7</ele>
        <time>2026-05-10T07:35:29.000Z</time>
      </trkpt>
      <trkpt lat="45.85162" lon="3.54492">
        <ele>309.6</ele>
        <time>2026-05-10T07:35:30.000Z</time>
      </trkpt>
      <trkpt lat="45.85162" lon="3.54493">
        <ele>309.5</ele>
        <time>2026-05-10T07:35:31.000Z</time>
      </trkpt>
      <trkpt lat="45.85162" lon="3.54494">
        <ele>309.4</ele>
        <time>2026-05-10T07:35:32.000Z</time>
      </trkpt>
      <trkpt lat="45.85163" lon="3.54496">
        <ele>309.3</ele>
        <time>2026-05-10T07:35:33.000Z</time>
      </trkpt>
      <trkpt lat="45.85163" lon="3.54498">
        <ele>309.2</ele>
        <time>2026-05-10T07:35:34.000Z</time>
      </trkpt>
      <trkpt lat="45.85164" lon="3.54499">
        <ele>309.1</ele>
        <time>2026-05-10T07:35:35.000Z</time>
      </trkpt>
      <trkpt lat="45.85164" lon="3.545">
        <ele>309.1</ele>
        <time>2026-05-10T07:35:36.000Z</time>
      </trkpt>
      <trkpt lat="45.85164" lon="3.54502">
        <ele>309.3</ele>
        <time>2026-05-10T07:35:37.000Z</time>
      </trkpt>
      <trkpt lat="45.85165" lon="3.54503">
        <ele>309.6</ele>
        <time>2026-05-10T07:35:38.000Z</time>
      </trkpt>
      <trkpt lat="45.85165" lon="3.54505">
        <ele>309.9</ele>
        <time>2026-05-10T07:35:39.000Z</time>
      </trkpt>
      <trkpt lat="45.85166" lon="3.54506">
        <ele>310.3</ele>
        <time>2026-05-10T07:35:40.000Z</time>
      </trkpt>
      <trkpt lat="45.85167" lon="3.54508">
        <ele>310.6</ele>
        <time>2026-05-10T07:35:41.000Z</time>
      </trkpt>
      <trkpt lat="45.85167" lon="3.54509">
        <ele>311</ele>
        <time>2026-05-10T07:35:42.000Z</time>
      </trkpt>
      <trkpt lat="45.85167" lon="3.5451">
        <ele>311.3</ele>
        <time>2026-05-10T07:35:43.000Z</time>
      </trkpt>
      <trkpt lat="45.85168" lon="3.54512">
        <ele>311.7</ele>
        <time>2026-05-10T07:35:44.000Z</time>
      </trkpt>
      <trkpt lat="45.85168" lon="3.54513">
        <ele>312</ele>
        <time>2026-05-10T07:35:45.000Z</time>
      </trkpt>
      <trkpt lat="45.85168" lon="3.54514">
        <ele>312.3</ele>
        <time>2026-05-10T07:35:46.000Z</time>
      </trkpt>
      <trkpt lat="45.85168" lon="3.54515">
        <ele>312.5</ele>
        <time>2026-05-10T07:35:47.000Z</time>
      </trkpt>
      <trkpt lat="45.85168" lon="3.54516">
        <ele>312.7</ele>
        <time>2026-05-10T07:35:48.000Z</time>
      </trkpt>
      <trkpt lat="45.85168" lon="3.54518">
        <ele>313</ele>
        <time>2026-05-10T07:35:49.000Z</time>
      </trkpt>
      <trkpt lat="45.85167" lon="3.54519">
        <ele>313.2</ele>
        <time>2026-05-10T07:35:50.000Z</time>
      </trkpt>
      <trkpt lat="45.85167" lon="3.54521">
        <ele>313.5</ele>
        <time>2026-05-10T07:35:51.000Z</time>
      </trkpt>
      <trkpt lat="45.85166" lon="3.54522">
        <ele>313.7</ele>
        <time>2026-05-10T07:35:52.000Z</time>
      </trkpt>
      <trkpt lat="45.85166" lon="3.54524">
        <ele>314</ele>
        <time>2026-05-10T07:35:53.000Z</time>
      </trkpt>
      <trkpt lat="45.85165" lon="3.54526">
        <ele>314.2</ele>
        <time>2026-05-10T07:35:54.000Z</time>
      </trkpt>
      <trkpt lat="45.85164" lon="3.54527">
        <ele>314.4</ele>
        <time>2026-05-10T07:35:55.000Z</time>
      </trkpt>
      <trkpt lat="45.85163" lon="3.54529">
        <ele>314.6</ele>
        <time>2026-05-10T07:35:56.000Z</time>
      </trkpt>
      <trkpt lat="45.85162" lon="3.5453">
        <ele>314.9</ele>
        <time>2026-05-10T07:35:57.000Z</time>
      </trkpt>
      <trkpt lat="45.85161" lon="3.5453">
        <ele>315</ele>
        <time>2026-05-10T07:35:58.000Z</time>
      </trkpt>
      <trkpt lat="45.8516" lon="3.54531">
        <ele>315</ele>
        <time>2026-05-10T07:35:59.000Z</time>
      </trkpt>
      <trkpt lat="45.85159" lon="3.54532">
        <ele>314.9</ele>
        <time>2026-05-10T07:36:00.000Z</time>
      </trkpt>
      <trkpt lat="45.85158" lon="3.54532">
        <ele>314.9</ele>
        <time>2026-05-10T07:36:01.000Z</time>
      </trkpt>
      <trkpt lat="45.85157" lon="3.54533">
        <ele>314.9</ele>
        <time>2026-05-10T07:36:02.000Z</time>
      </trkpt>
      <trkpt lat="45.85156" lon="3.54533">
        <ele>314.7</ele>
        <time>2026-05-10T07:36:03.000Z</time>
      </trkpt>
      <trkpt lat="45.85155" lon="3.54534">
        <ele>314.5</ele>
        <time>2026-05-10T07:36:04.000Z</time>
      </trkpt>
      <trkpt lat="45.85154" lon="3.54534">
        <ele>314.4</ele>
        <time>2026-05-10T07:36:05.000Z</time>
      </trkpt>
      <trkpt lat="45.85153" lon="3.54535">
        <ele>314.4</ele>
        <time>2026-05-10T07:36:06.000Z</time>
      </trkpt>
      <trkpt lat="45.85151" lon="3.54537">
        <ele>314.3</ele>
        <time>2026-05-10T07:36:07.000Z</time>
      </trkpt>
      <trkpt lat="45.8515" lon="3.54538">
        <ele>314.3</ele>
        <time>2026-05-10T07:36:08.000Z</time>
      </trkpt>
      <trkpt lat="45.85149" lon="3.54539">
        <ele>314.4</ele>
        <time>2026-05-10T07:36:09.000Z</time>
      </trkpt>
      <trkpt lat="45.85148" lon="3.5454">
        <ele>314.4</ele>
        <time>2026-05-10T07:36:10.000Z</time>
      </trkpt>
      <trkpt lat="45.85147" lon="3.54541">
        <ele>314.4</ele>
        <time>2026-05-10T07:36:11.000Z</time>
      </trkpt>
      <trkpt lat="45.85146" lon="3.54543">
        <ele>314.4</ele>
        <time>2026-05-10T07:36:12.000Z</time>
      </trkpt>
      <trkpt lat="45.85145" lon="3.54544">
        <ele>314.4</ele>
        <time>2026-05-10T07:36:13.000Z</time>
      </trkpt>
      <trkpt lat="45.85144" lon="3.54545">
        <ele>314.4</ele>
        <time>2026-05-10T07:36:14.000Z</time>
      </trkpt>
      <trkpt lat="45.85144" lon="3.54547">
        <ele>314.5</ele>
        <time>2026-05-10T07:36:15.000Z</time>
      </trkpt>
      <trkpt lat="45.85143" lon="3.54548">
        <ele>314.7</ele>
        <time>2026-05-10T07:36:16.000Z</time>
      </trkpt>
      <trkpt lat="45.85143" lon="3.54549">
        <ele>314.8</ele>
        <time>2026-05-10T07:36:17.000Z</time>
      </trkpt>
      <trkpt lat="45.85143" lon="3.54551">
        <ele>315.1</ele>
        <time>2026-05-10T07:36:18.000Z</time>
      </trkpt>
      <trkpt lat="45.85143" lon="3.54552">
        <ele>315.3</ele>
        <time>2026-05-10T07:36:19.000Z</time>
      </trkpt>
      <trkpt lat="45.85142" lon="3.54554">
        <ele>315.4</ele>
        <time>2026-05-10T07:36:20.000Z</time>
      </trkpt>
      <trkpt lat="45.85142" lon="3.54556">
        <ele>315.7</ele>
        <time>2026-05-10T07:36:21.000Z</time>
      </trkpt>
      <trkpt lat="45.85142" lon="3.54558">
        <ele>316.3</ele>
        <time>2026-05-10T07:36:22.000Z</time>
      </trkpt>
      <trkpt lat="45.85142" lon="3.5456">
        <ele>317.2</ele>
        <time>2026-05-10T07:36:23.000Z</time>
      </trkpt>
      <trkpt lat="45.85142" lon="3.54562">
        <ele>317.5</ele>
        <time>2026-05-10T07:36:24.000Z</time>
      </trkpt>
      <trkpt lat="45.85141" lon="3.54564">
        <ele>317.9</ele>
        <time>2026-05-10T07:36:25.000Z</time>
      </trkpt>
      <trkpt lat="45.85141" lon="3.54566">
        <ele>318.4</ele>
        <time>2026-05-10T07:36:26.000Z</time>
      </trkpt>
      <trkpt lat="45.85141" lon="3.54568">
        <ele>318.8</ele>
        <time>2026-05-10T07:36:27.000Z</time>
      </trkpt>
      <trkpt lat="45.85141" lon="3.54569">
        <ele>318.9</ele>
        <time>2026-05-10T07:36:28.000Z</time>
      </trkpt>
      <trkpt lat="45.8514" lon="3.5457">
        <ele>319</ele>
        <time>2026-05-10T07:36:29.000Z</time>
      </trkpt>
      <trkpt lat="45.8514" lon="3.54572">
        <ele>319.3</ele>
        <time>2026-05-10T07:36:30.000Z</time>
      </trkpt>
      <trkpt lat="45.8514" lon="3.54574">
        <ele>319.7</ele>
        <time>2026-05-10T07:36:31.000Z</time>
      </trkpt>
      <trkpt lat="45.85139" lon="3.54576">
        <ele>319.9</ele>
        <time>2026-05-10T07:36:32.000Z</time>
      </trkpt>
      <trkpt lat="45.85139" lon="3.54577">
        <ele>320.2</ele>
        <time>2026-05-10T07:36:33.000Z</time>
      </trkpt>
      <trkpt lat="45.85138" lon="3.54579">
        <ele>320.5</ele>
        <time>2026-05-10T07:36:34.000Z</time>
      </trkpt>
      <trkpt lat="45.85138" lon="3.5458">
        <ele>320.8</ele>
        <time>2026-05-10T07:36:35.000Z</time>
      </trkpt>
      <trkpt lat="45.85138" lon="3.54582">
        <ele>321.1</ele>
        <time>2026-05-10T07:36:36.000Z</time>
      </trkpt>
      <trkpt lat="45.85137" lon="3.54584">
        <ele>321.5</ele>
        <time>2026-05-10T07:36:37.000Z</time>
      </trkpt>
      <trkpt lat="45.85137" lon="3.54585">
        <ele>321.8</ele>
        <time>2026-05-10T07:36:38.000Z</time>
      </trkpt>
      <trkpt lat="45.85136" lon="3.54586">
        <ele>322.2</ele>
        <time>2026-05-10T07:36:39.000Z</time>
      </trkpt>
      <trkpt lat="45.85136" lon="3.54588">
        <ele>322.7</ele>
        <time>2026-05-10T07:36:40.000Z</time>
      </trkpt>
      <trkpt lat="45.85135" lon="3.54589">
        <ele>323</ele>
        <time>2026-05-10T07:36:41.000Z</time>
      </trkpt>
      <trkpt lat="45.85135" lon="3.54591">
        <ele>323.4</ele>
        <time>2026-05-10T07:36:42.000Z</time>
      </trkpt>
      <trkpt lat="45.85134" lon="3.54592">
        <ele>323.7</ele>
        <time>2026-05-10T07:36:43.000Z</time>
      </trkpt>
      <trkpt lat="45.85134" lon="3.54594">
        <ele>323.9</ele>
        <time>2026-05-10T07:36:44.000Z</time>
      </trkpt>
      <trkpt lat="45.85133" lon="3.54595">
        <ele>324.2</ele>
        <time>2026-05-10T07:36:45.000Z</time>
      </trkpt>
      <trkpt lat="45.85133" lon="3.54596">
        <ele>324.4</ele>
        <time>2026-05-10T07:36:46.000Z</time>
      </trkpt>
      <trkpt lat="45.85132" lon="3.54597">
        <ele>324.4</ele>
        <time>2026-05-10T07:36:47.000Z</time>
      </trkpt>
      <trkpt lat="45.85132" lon="3.54599">
        <ele>324.7</ele>
        <time>2026-05-10T07:36:48.000Z</time>
      </trkpt>
      <trkpt lat="45.85132" lon="3.546">
        <ele>325</ele>
        <time>2026-05-10T07:36:49.000Z</time>
      </trkpt>
      <trkpt lat="45.85131" lon="3.54601">
        <ele>325.3</ele>
        <time>2026-05-10T07:36:50.000Z</time>
      </trkpt>
      <trkpt lat="45.85131" lon="3.54603">
        <ele>325.4</ele>
        <time>2026-05-10T07:36:51.000Z</time>
      </trkpt>
      <trkpt lat="45.8513" lon="3.54604">
        <ele>325.6</ele>
        <time>2026-05-10T07:36:52.000Z</time>
      </trkpt>
      <trkpt lat="45.8513" lon="3.54605">
        <ele>325.7</ele>
        <time>2026-05-10T07:36:53.000Z</time>
      </trkpt>
      <trkpt lat="45.85129" lon="3.54607">
        <ele>325.7</ele>
        <time>2026-05-10T07:36:54.000Z</time>
      </trkpt>
      <trkpt lat="45.85129" lon="3.54608">
        <ele>325.7</ele>
        <time>2026-05-10T07:36:55.000Z</time>
      </trkpt>
      <trkpt lat="45.85128" lon="3.54609">
        <ele>325.8</ele>
        <time>2026-05-10T07:36:56.000Z</time>
      </trkpt>
      <trkpt lat="45.85128" lon="3.54611">
        <ele>325.9</ele>
        <time>2026-05-10T07:36:57.000Z</time>
      </trkpt>
      <trkpt lat="45.85128" lon="3.54612">
        <ele>326.1</ele>
        <time>2026-05-10T07:36:58.000Z</time>
      </trkpt>
      <trkpt lat="45.85128" lon="3.54613">
        <ele>326</ele>
        <time>2026-05-10T07:36:59.000Z</time>
      </trkpt>
      <trkpt lat="45.85127" lon="3.54614">
        <ele>325.9</ele>
        <time>2026-05-10T07:37:00.000Z</time>
      </trkpt>
      <trkpt lat="45.85127" lon="3.54615">
        <ele>325.9</ele>
        <time>2026-05-10T07:37:01.000Z</time>
      </trkpt>
      <trkpt lat="45.85127" lon="3.54617">
        <ele>325.7</ele>
        <time>2026-05-10T07:37:02.000Z</time>
      </trkpt>
      <trkpt lat="45.85127" lon="3.54618">
        <ele>325.7</ele>
        <time>2026-05-10T07:37:03.000Z</time>
      </trkpt>
      <trkpt lat="45.85126" lon="3.5462">
        <ele>325.3</ele>
        <time>2026-05-10T07:37:04.000Z</time>
      </trkpt>
      <trkpt lat="45.85126" lon="3.54622">
        <ele>325</ele>
        <time>2026-05-10T07:37:05.000Z</time>
      </trkpt>
      <trkpt lat="45.85125" lon="3.54625">
        <ele>324.5</ele>
        <time>2026-05-10T07:37:06.000Z</time>
      </trkpt>
      <trkpt lat="45.85124" lon="3.54626">
        <ele>324.2</ele>
        <time>2026-05-10T07:37:07.000Z</time>
      </trkpt>
      <trkpt lat="45.85124" lon="3.54628">
        <ele>323.8</ele>
        <time>2026-05-10T07:37:08.000Z</time>
      </trkpt>
      <trkpt lat="45.85123" lon="3.5463">
        <ele>323.8</ele>
        <time>2026-05-10T07:37:09.000Z</time>
      </trkpt>
      <trkpt lat="45.85123" lon="3.54631">
        <ele>323.8</ele>
        <time>2026-05-10T07:37:10.000Z</time>
      </trkpt>
      <trkpt lat="45.85123" lon="3.54633">
        <ele>323.7</ele>
        <time>2026-05-10T07:37:11.000Z</time>
      </trkpt>
      <trkpt lat="45.85123" lon="3.54634">
        <ele>323.8</ele>
        <time>2026-05-10T07:37:12.000Z</time>
      </trkpt>
      <trkpt lat="45.85124" lon="3.54635">
        <ele>324.7</ele>
        <time>2026-05-10T07:37:13.000Z</time>
      </trkpt>
      <trkpt lat="45.85125" lon="3.54636">
        <ele>325.1</ele>
        <time>2026-05-10T07:37:14.000Z</time>
      </trkpt>
      <trkpt lat="45.85126" lon="3.54637">
        <ele>325.9</ele>
        <time>2026-05-10T07:37:15.000Z</time>
      </trkpt>
      <trkpt lat="45.85126" lon="3.54637">
        <ele>326.1</ele>
        <time>2026-05-10T07:37:16.000Z</time>
      </trkpt>
      <trkpt lat="45.85126" lon="3.54636">
        <ele>326.1</ele>
        <time>2026-05-10T07:37:17.000Z</time>
      </trkpt>
      <trkpt lat="45.85126" lon="3.54636">
        <ele>326.1</ele>
        <time>2026-05-10T07:37:18.000Z</time>
      </trkpt>
      <trkpt lat="45.85126" lon="3.54635">
        <ele>326</ele>
        <time>2026-05-10T07:37:19.000Z</time>
      </trkpt>
      <trkpt lat="45.85126" lon="3.54635">
        <ele>325.7</ele>
        <time>2026-05-10T07:37:20.000Z</time>
      </trkpt>
      <trkpt lat="45.85126" lon="3.54636">
        <ele>325.9</ele>
        <time>2026-05-10T07:37:21.000Z</time>
      </trkpt>
      <trkpt lat="45.85126" lon="3.54636">
        <ele>326.1</ele>
        <time>2026-05-10T07:37:22.000Z</time>
      </trkpt>
      <trkpt lat="45.85126" lon="3.54637">
        <ele>326.4</ele>
        <time>2026-05-10T07:37:23.000Z</time>
      </trkpt>
      <trkpt lat="45.85127" lon="3.54637">
        <ele>326.5</ele>
        <time>2026-05-10T07:37:24.000Z</time>
      </trkpt>
      <trkpt lat="45.85126" lon="3.54637">
        <ele>326</ele>
        <time>2026-05-10T07:37:25.000Z</time>
      </trkpt>
      <trkpt lat="45.85126" lon="3.54637">
        <ele>325.8</ele>
        <time>2026-05-10T07:37:26.000Z</time>
      </trkpt>
      <trkpt lat="45.85125" lon="3.54636">
        <ele>325.6</ele>
        <time>2026-05-10T07:37:27.000Z</time>
      </trkpt>
      <trkpt lat="45.85125" lon="3.54635">
        <ele>325.4</ele>
        <time>2026-05-10T07:37:28.000Z</time>
      </trkpt>
      <trkpt lat="45.85125" lon="3.54634">
        <ele>325.1</ele>
        <time>2026-05-10T07:37:29.000Z</time>
      </trkpt>
      <trkpt lat="45.85125" lon="3.54633">
        <ele>325</ele>
        <time>2026-05-10T07:37:30.000Z</time>
      </trkpt>
      <trkpt lat="45.85125" lon="3.54633">
        <ele>324.8</ele>
        <time>2026-05-10T07:37:31.000Z</time>
      </trkpt>
      <trkpt lat="45.85124" lon="3.54632">
        <ele>324.6</ele>
        <time>2026-05-10T07:37:32.000Z</time>
      </trkpt>
      <trkpt lat="45.85124" lon="3.54631">
        <ele>324.5</ele>
        <time>2026-05-10T07:37:33.000Z</time>
      </trkpt>
      <trkpt lat="45.85124" lon="3.54631">
        <ele>324.5</ele>
        <time>2026-05-10T07:37:34.000Z</time>
      </trkpt>
      <trkpt lat="45.85124" lon="3.54631">
        <ele>324.5</ele>
        <time>2026-05-10T07:37:35.000Z</time>
      </trkpt>
      <trkpt lat="45.85124" lon="3.54631">
        <ele>324.5</ele>
        <time>2026-05-10T07:37:36.000Z</time>
      </trkpt>
      <trkpt lat="45.85124" lon="3.54631">
        <ele>324.7</ele>
        <time>2026-05-10T07:37:37.000Z</time>
      </trkpt>
      <trkpt lat="45.85124" lon="3.54631">
        <ele>324.6</ele>
        <time>2026-05-10T07:37:38.000Z</time>
      </trkpt>
      <trkpt lat="45.85124" lon="3.54632">
        <ele>324.5</ele>
        <time>2026-05-10T07:37:39.000Z</time>
      </trkpt>
      <trkpt lat="45.85124" lon="3.54632">
        <ele>324.6</ele>
        <time>2026-05-10T07:37:40.000Z</time>
      </trkpt>
      <trkpt lat="45.85124" lon="3.54632">
        <ele>324.7</ele>
        <time>2026-05-10T07:37:41.000Z</time>
      </trkpt>
      <trkpt lat="45.85125" lon="3.54632">
        <ele>324.8</ele>
        <time>2026-05-10T07:37:42.000Z</time>
      </trkpt>
      <trkpt lat="45.85124" lon="3.54631">
        <ele>324.6</ele>
        <time>2026-05-10T07:37:43.000Z</time>
      </trkpt>
      <trkpt lat="45.85124" lon="3.54631">
        <ele>324.4</ele>
        <time>2026-05-10T07:37:44.000Z</time>
      </trkpt>
      <trkpt lat="45.85124" lon="3.5463">
        <ele>324.3</ele>
        <time>2026-05-10T07:37:45.000Z</time>
      </trkpt>
      <trkpt lat="45.85124" lon="3.5463">
        <ele>324.4</ele>
        <time>2026-05-10T07:37:46.000Z</time>
      </trkpt>
      <trkpt lat="45.85124" lon="3.5463">
        <ele>324.3</ele>
        <time>2026-05-10T07:37:47.000Z</time>
      </trkpt>
      <trkpt lat="45.85124" lon="3.54629">
        <ele>324.2</ele>
        <time>2026-05-10T07:37:48.000Z</time>
      </trkpt>
      <trkpt lat="45.85124" lon="3.54629">
        <ele>324</ele>
        <time>2026-05-10T07:37:49.000Z</time>
      </trkpt>
      <trkpt lat="45.85123" lon="3.54629">
        <ele>323.8</ele>
        <time>2026-05-10T07:37:50.000Z</time>
      </trkpt>
      <trkpt lat="45.85123" lon="3.54629">
        <ele>323.7</ele>
        <time>2026-05-10T07:37:51.000Z</time>
      </trkpt>
      <trkpt lat="45.85123" lon="3.54629">
        <ele>323.5</ele>
        <time>2026-05-10T07:37:52.000Z</time>
      </trkpt>
      <trkpt lat="45.85123" lon="3.54629">
        <ele>323.2</ele>
        <time>2026-05-10T07:37:53.000Z</time>
      </trkpt>
      <trkpt lat="45.85122" lon="3.54629">
        <ele>323</ele>
        <time>2026-05-10T07:37:54.000Z</time>
      </trkpt>
      <trkpt lat="45.85122" lon="3.54629">
        <ele>322.9</ele>
        <time>2026-05-10T07:37:55.000Z</time>
      </trkpt>
      <trkpt lat="45.85122" lon="3.54629">
        <ele>322.8</ele>
        <time>2026-05-10T07:37:56.000Z</time>
      </trkpt>
      <trkpt lat="45.85122" lon="3.54629">
        <ele>322.8</ele>
        <time>2026-05-10T07:37:57.000Z</time>
      </trkpt>
      <trkpt lat="45.85123" lon="3.54631">
        <ele>323.6</ele>
        <time>2026-05-10T07:37:58.000Z</time>
      </trkpt>
      <trkpt lat="45.85123" lon="3.54631">
        <ele>323.6</ele>
        <time>2026-05-10T07:37:59.000Z</time>
      </trkpt>
      <trkpt lat="45.85123" lon="3.54632">
        <ele>323.6</ele>
        <time>2026-05-10T07:38:00.000Z</time>
      </trkpt>
      <trkpt lat="45.85123" lon="3.54632">
        <ele>323.6</ele>
        <time>2026-05-10T07:38:01.000Z</time>
      </trkpt>
      <trkpt lat="45.85123" lon="3.54632">
        <ele>323.7</ele>
        <time>2026-05-10T07:38:02.000Z</time>
      </trkpt>
      <trkpt lat="45.85123" lon="3.54632">
        <ele>323.6</ele>
        <time>2026-05-10T07:38:03.000Z</time>
      </trkpt>
      <trkpt lat="45.85123" lon="3.54633">
        <ele>323.8</ele>
        <time>2026-05-10T07:38:04.000Z</time>
      </trkpt>
      <trkpt lat="45.85123" lon="3.54633">
        <ele>323.6</ele>
        <time>2026-05-10T07:38:05.000Z</time>
      </trkpt>
      <trkpt lat="45.85122" lon="3.54633">
        <ele>323.4</ele>
        <time>2026-05-10T07:38:06.000Z</time>
      </trkpt>
      <trkpt lat="45.85122" lon="3.54633">
        <ele>323.4</ele>
        <time>2026-05-10T07:38:07.000Z</time>
      </trkpt>
      <trkpt lat="45.85122" lon="3.54633">
        <ele>323.3</ele>
        <time>2026-05-10T07:38:08.000Z</time>
      </trkpt>
      <trkpt lat="45.85122" lon="3.54634">
        <ele>323.3</ele>
        <time>2026-05-10T07:38:09.000Z</time>
      </trkpt>
      <trkpt lat="45.85122" lon="3.54634">
        <ele>323.4</ele>
        <time>2026-05-10T07:38:10.000Z</time>
      </trkpt>
      <trkpt lat="45.85122" lon="3.54635">
        <ele>323.4</ele>
        <time>2026-05-10T07:38:11.000Z</time>
      </trkpt>
      <trkpt lat="45.85123" lon="3.54635">
        <ele>323.7</ele>
        <time>2026-05-10T07:38:12.000Z</time>
      </trkpt>
      <trkpt lat="45.85123" lon="3.54635">
        <ele>323.9</ele>
        <time>2026-05-10T07:38:13.000Z</time>
      </trkpt>
      <trkpt lat="45.85123" lon="3.54636">
        <ele>323.8</ele>
        <time>2026-05-10T07:38:14.000Z</time>
      </trkpt>
      <trkpt lat="45.85123" lon="3.54636">
        <ele>323.6</ele>
        <time>2026-05-10T07:38:15.000Z</time>
      </trkpt>
      <trkpt lat="45.85123" lon="3.54636">
        <ele>323.7</ele>
        <time>2026-05-10T07:38:16.000Z</time>
      </trkpt>
      <trkpt lat="45.85124" lon="3.54637">
        <ele>324.6</ele>
        <time>2026-05-10T07:38:17.000Z</time>
      </trkpt>
      <trkpt lat="45.85124" lon="3.54636">
        <ele>324.9</ele>
        <time>2026-05-10T07:38:18.000Z</time>
      </trkpt>
      <trkpt lat="45.85125" lon="3.54636">
        <ele>325.3</ele>
        <time>2026-05-10T07:38:19.000Z</time>
      </trkpt>
      <trkpt lat="45.85125" lon="3.54636">
        <ele>325.6</ele>
        <time>2026-05-10T07:38:20.000Z</time>
      </trkpt>
      <trkpt lat="45.85126" lon="3.54636">
        <ele>325.9</ele>
        <time>2026-05-10T07:38:21.000Z</time>
      </trkpt>
      <trkpt lat="45.85126" lon="3.54636">
        <ele>326</ele>
        <time>2026-05-10T07:38:22.000Z</time>
      </trkpt>
      <trkpt lat="45.85126" lon="3.54636">
        <ele>326.1</ele>
        <time>2026-05-10T07:38:23.000Z</time>
      </trkpt>
      <trkpt lat="45.85126" lon="3.54635">
        <ele>326.1</ele>
        <time>2026-05-10T07:38:24.000Z</time>
      </trkpt>
      <trkpt lat="45.85126" lon="3.54635">
        <ele>326.2</ele>
        <time>2026-05-10T07:38:25.000Z</time>
      </trkpt>
      <trkpt lat="45.85127" lon="3.54634">
        <ele>326.3</ele>
        <time>2026-05-10T07:38:26.000Z</time>
      </trkpt>
      <trkpt lat="45.85127" lon="3.54634">
        <ele>326.2</ele>
        <time>2026-05-10T07:38:27.000Z</time>
      </trkpt>
      <trkpt lat="45.85126" lon="3.54633">
        <ele>326.2</ele>
        <time>2026-05-10T07:38:28.000Z</time>
      </trkpt>
      <trkpt lat="45.85126" lon="3.54633">
        <ele>326.2</ele>
        <time>2026-05-10T07:38:29.000Z</time>
      </trkpt>
      <trkpt lat="45.85126" lon="3.54632">
        <ele>326.1</ele>
        <time>2026-05-10T07:38:30.000Z</time>
      </trkpt>
      <trkpt lat="45.85126" lon="3.54629">
        <ele>326</ele>
        <time>2026-05-10T07:38:31.000Z</time>
      </trkpt>
      <trkpt lat="45.85126" lon="3.54627">
        <ele>325.8</ele>
        <time>2026-05-10T07:38:32.000Z</time>
      </trkpt>
      <trkpt lat="45.85127" lon="3.54626">
        <ele>326</ele>
        <time>2026-05-10T07:38:33.000Z</time>
      </trkpt>
      <trkpt lat="45.85127" lon="3.54625">
        <ele>326.1</ele>
        <time>2026-05-10T07:38:34.000Z</time>
      </trkpt>
      <trkpt lat="45.85127" lon="3.54625">
        <ele>326</ele>
        <time>2026-05-10T07:38:35.000Z</time>
      </trkpt>
      <trkpt lat="45.85127" lon="3.54625">
        <ele>326.3</ele>
        <time>2026-05-10T07:38:36.000Z</time>
      </trkpt>
      <trkpt lat="45.85128" lon="3.54622">
        <ele>326.5</ele>
        <time>2026-05-10T07:38:37.000Z</time>
      </trkpt>
      <trkpt lat="45.85128" lon="3.5462">
        <ele>326.8</ele>
        <time>2026-05-10T07:38:38.000Z</time>
      </trkpt>
      <trkpt lat="45.85129" lon="3.54619">
        <ele>327.1</ele>
        <time>2026-05-10T07:38:39.000Z</time>
      </trkpt>
      <trkpt lat="45.85129" lon="3.54618">
        <ele>327.2</ele>
        <time>2026-05-10T07:38:40.000Z</time>
      </trkpt>
      <trkpt lat="45.85129" lon="3.54619">
        <ele>327</ele>
        <time>2026-05-10T07:38:41.000Z</time>
      </trkpt>
      <trkpt lat="45.85129" lon="3.54618">
        <ele>327.1</ele>
        <time>2026-05-10T07:38:42.000Z</time>
      </trkpt>
      <trkpt lat="45.85129" lon="3.54617">
        <ele>327.4</ele>
        <time>2026-05-10T07:38:43.000Z</time>
      </trkpt>
      <trkpt lat="45.8513" lon="3.54617">
        <ele>328</ele>
        <time>2026-05-10T07:38:44.000Z</time>
      </trkpt>
      <trkpt lat="45.85131" lon="3.54618">
        <ele>328.4</ele>
        <time>2026-05-10T07:38:45.000Z</time>
      </trkpt>
      <trkpt lat="45.85131" lon="3.5462">
        <ele>328.7</ele>
        <time>2026-05-10T07:38:46.000Z</time>
      </trkpt>
      <trkpt lat="45.85131" lon="3.54621">
        <ele>328.9</ele>
        <time>2026-05-10T07:38:47.000Z</time>
      </trkpt>
      <trkpt lat="45.85132" lon="3.54622">
        <ele>329.2</ele>
        <time>2026-05-10T07:38:48.000Z</time>
      </trkpt>
      <trkpt lat="45.85132" lon="3.54622">
        <ele>329.3</ele>
        <time>2026-05-10T07:38:49.000Z</time>
      </trkpt>
      <trkpt lat="45.85132" lon="3.54622">
        <ele>329.2</ele>
        <time>2026-05-10T07:38:50.000Z</time>
      </trkpt>
      <trkpt lat="45.85132" lon="3.54621">
        <ele>329.7</ele>
        <time>2026-05-10T07:38:51.000Z</time>
      </trkpt>
      <trkpt lat="45.85132" lon="3.54621">
        <ele>329.6</ele>
        <time>2026-05-10T07:38:52.000Z</time>
      </trkpt>
      <trkpt lat="45.85133" lon="3.54622">
        <ele>329.9</ele>
        <time>2026-05-10T07:38:53.000Z</time>
      </trkpt>
      <trkpt lat="45.85133" lon="3.54623">
        <ele>330.3</ele>
        <time>2026-05-10T07:38:54.000Z</time>
      </trkpt>
      <trkpt lat="45.85133" lon="3.54624">
        <ele>330.4</ele>
        <time>2026-05-10T07:38:55.000Z</time>
      </trkpt>
      <trkpt lat="45.85133" lon="3.54624">
        <ele>330.6</ele>
        <time>2026-05-10T07:38:56.000Z</time>
      </trkpt>
      <trkpt lat="45.85133" lon="3.54625">
        <ele>330.6</ele>
        <time>2026-05-10T07:38:57.000Z</time>
      </trkpt>
      <trkpt lat="45.85133" lon="3.54626">
        <ele>330.6</ele>
        <time>2026-05-10T07:38:58.000Z</time>
      </trkpt>
      <trkpt lat="45.85134" lon="3.54627">
        <ele>330.9</ele>
        <time>2026-05-10T07:38:59.000Z</time>
      </trkpt>
      <trkpt lat="45.85134" lon="3.54627">
        <ele>331</ele>
        <time>2026-05-10T07:39:00.000Z</time>
      </trkpt>
      <trkpt lat="45.85134" lon="3.54627">
        <ele>331.2</ele>
        <time>2026-05-10T07:39:01.000Z</time>
      </trkpt>
      <trkpt lat="45.85134" lon="3.54629">
        <ele>331.2</ele>
        <time>2026-05-10T07:39:02.000Z</time>
      </trkpt>
      <trkpt lat="45.85134" lon="3.5463">
        <ele>331.2</ele>
        <time>2026-05-10T07:39:03.000Z</time>
      </trkpt>
      <trkpt lat="45.85134" lon="3.54631">
        <ele>331</ele>
        <time>2026-05-10T07:39:04.000Z</time>
      </trkpt>
      <trkpt lat="45.85133" lon="3.54633">
        <ele>330.9</ele>
        <time>2026-05-10T07:39:05.000Z</time>
      </trkpt>
      <trkpt lat="45.85133" lon="3.54634">
        <ele>330.9</ele>
        <time>2026-05-10T07:39:06.000Z</time>
      </trkpt>
      <trkpt lat="45.85133" lon="3.54635">
        <ele>330.9</ele>
        <time>2026-05-10T07:39:07.000Z</time>
      </trkpt>
      <trkpt lat="45.85133" lon="3.54637">
        <ele>330.8</ele>
        <time>2026-05-10T07:39:08.000Z</time>
      </trkpt>
      <trkpt lat="45.85133" lon="3.54638">
        <ele>331</ele>
        <time>2026-05-10T07:39:09.000Z</time>
      </trkpt>
      <trkpt lat="45.85133" lon="3.54639">
        <ele>331.1</ele>
        <time>2026-05-10T07:39:10.000Z</time>
      </trkpt>
      <trkpt lat="45.85133" lon="3.54639">
        <ele>331.1</ele>
        <time>2026-05-10T07:39:11.000Z</time>
      </trkpt>
      <trkpt lat="45.85134" lon="3.54641">
        <ele>331.1</ele>
        <time>2026-05-10T07:39:12.000Z</time>
      </trkpt>
      <trkpt lat="45.85134" lon="3.54642">
        <ele>331</ele>
        <time>2026-05-10T07:39:13.000Z</time>
      </trkpt>
      <trkpt lat="45.85135" lon="3.54643">
        <ele>331</ele>
        <time>2026-05-10T07:39:14.000Z</time>
      </trkpt>
      <trkpt lat="45.85135" lon="3.54644">
        <ele>330.8</ele>
        <time>2026-05-10T07:39:15.000Z</time>
      </trkpt>
      <trkpt lat="45.85136" lon="3.54644">
        <ele>331.1</ele>
        <time>2026-05-10T07:39:16.000Z</time>
      </trkpt>
      <trkpt lat="45.85136" lon="3.54645">
        <ele>331.2</ele>
        <time>2026-05-10T07:39:17.000Z</time>
      </trkpt>
      <trkpt lat="45.85137" lon="3.54646">
        <ele>331.3</ele>
        <time>2026-05-10T07:39:18.000Z</time>
      </trkpt>
      <trkpt lat="45.85136" lon="3.54645">
        <ele>331.3</ele>
        <time>2026-05-10T07:39:19.000Z</time>
      </trkpt>
      <trkpt lat="45.85136" lon="3.54646">
        <ele>331.3</ele>
        <time>2026-05-10T07:39:20.000Z</time>
      </trkpt>
      <trkpt lat="45.85137" lon="3.54646">
        <ele>331.6</ele>
        <time>2026-05-10T07:39:21.000Z</time>
      </trkpt>
      <trkpt lat="45.85138" lon="3.54647">
        <ele>332</ele>
        <time>2026-05-10T07:39:22.000Z</time>
      </trkpt>
      <trkpt lat="45.85139" lon="3.54647">
        <ele>332.4</ele>
        <time>2026-05-10T07:39:23.000Z</time>
      </trkpt>
      <trkpt lat="45.8514" lon="3.54647">
        <ele>332.8</ele>
        <time>2026-05-10T07:39:24.000Z</time>
      </trkpt>
      <trkpt lat="45.85141" lon="3.54647">
        <ele>333.2</ele>
        <time>2026-05-10T07:39:25.000Z</time>
      </trkpt>
      <trkpt lat="45.85142" lon="3.54646">
        <ele>334</ele>
        <time>2026-05-10T07:39:26.000Z</time>
      </trkpt>
      <trkpt lat="45.85143" lon="3.54646">
        <ele>334.6</ele>
        <time>2026-05-10T07:39:27.000Z</time>
      </trkpt>
      <trkpt lat="45.85144" lon="3.54646">
        <ele>335.1</ele>
        <time>2026-05-10T07:39:28.000Z</time>
      </trkpt>
      <trkpt lat="45.85145" lon="3.54645">
        <ele>335.8</ele>
        <time>2026-05-10T07:39:29.000Z</time>
      </trkpt>
      <trkpt lat="45.85145" lon="3.54644">
        <ele>336.1</ele>
        <time>2026-05-10T07:39:30.000Z</time>
      </trkpt>
      <trkpt lat="45.85145" lon="3.54642">
        <ele>336.7</ele>
        <time>2026-05-10T07:39:31.000Z</time>
      </trkpt>
      <trkpt lat="45.85146" lon="3.54641">
        <ele>337.3</ele>
        <time>2026-05-10T07:39:32.000Z</time>
      </trkpt>
      <trkpt lat="45.85146" lon="3.54641">
        <ele>337.4</ele>
        <time>2026-05-10T07:39:33.000Z</time>
      </trkpt>
      <trkpt lat="45.85146" lon="3.54639">
        <ele>338.1</ele>
        <time>2026-05-10T07:39:34.000Z</time>
      </trkpt>
      <trkpt lat="45.85147" lon="3.54639">
        <ele>338.3</ele>
        <time>2026-05-10T07:39:35.000Z</time>
      </trkpt>
      <trkpt lat="45.85147" lon="3.54639">
        <ele>338.4</ele>
        <time>2026-05-10T07:39:36.000Z</time>
      </trkpt>
      <trkpt lat="45.85147" lon="3.54638">
        <ele>338.6</ele>
        <time>2026-05-10T07:39:37.000Z</time>
      </trkpt>
      <trkpt lat="45.85148" lon="3.54637">
        <ele>339</ele>
        <time>2026-05-10T07:39:38.000Z</time>
      </trkpt>
      <trkpt lat="45.85149" lon="3.54636">
        <ele>339.1</ele>
        <time>2026-05-10T07:39:39.000Z</time>
      </trkpt>
      <trkpt lat="45.85149" lon="3.54636">
        <ele>339.3</ele>
        <time>2026-05-10T07:39:40.000Z</time>
      </trkpt>
      <trkpt lat="45.8515" lon="3.54634">
        <ele>339.8</ele>
        <time>2026-05-10T07:39:41.000Z</time>
      </trkpt>
      <trkpt lat="45.85151" lon="3.54633">
        <ele>340.2</ele>
        <time>2026-05-10T07:39:42.000Z</time>
      </trkpt>
      <trkpt lat="45.85151" lon="3.54633">
        <ele>340.2</ele>
        <time>2026-05-10T07:39:43.000Z</time>
      </trkpt>
      <trkpt lat="45.85152" lon="3.54633">
        <ele>340.4</ele>
        <time>2026-05-10T07:39:44.000Z</time>
      </trkpt>
      <trkpt lat="45.85153" lon="3.54632">
        <ele>341.1</ele>
        <time>2026-05-10T07:39:45.000Z</time>
      </trkpt>
      <trkpt lat="45.85154" lon="3.54631">
        <ele>341.5</ele>
        <time>2026-05-10T07:39:46.000Z</time>
      </trkpt>
      <trkpt lat="45.85154" lon="3.54632">
        <ele>341.7</ele>
        <time>2026-05-10T07:39:47.000Z</time>
      </trkpt>
      <trkpt lat="45.85155" lon="3.54632">
        <ele>342</ele>
        <time>2026-05-10T07:39:48.000Z</time>
      </trkpt>
      <trkpt lat="45.85156" lon="3.54632">
        <ele>342.3</ele>
        <time>2026-05-10T07:39:49.000Z</time>
      </trkpt>
      <trkpt lat="45.85157" lon="3.54632">
        <ele>342.8</ele>
        <time>2026-05-10T07:39:50.000Z</time>
      </trkpt>
      <trkpt lat="45.85158" lon="3.54632">
        <ele>343.2</ele>
        <time>2026-05-10T07:39:51.000Z</time>
      </trkpt>
      <trkpt lat="45.85158" lon="3.54632">
        <ele>343.5</ele>
        <time>2026-05-10T07:39:52.000Z</time>
      </trkpt>
      <trkpt lat="45.85159" lon="3.54632">
        <ele>343.7</ele>
        <time>2026-05-10T07:39:53.000Z</time>
      </trkpt>
      <trkpt lat="45.85159" lon="3.54632">
        <ele>343.9</ele>
        <time>2026-05-10T07:39:54.000Z</time>
      </trkpt>
      <trkpt lat="45.85161" lon="3.54632">
        <ele>344.7</ele>
        <time>2026-05-10T07:39:55.000Z</time>
      </trkpt>
      <trkpt lat="45.85161" lon="3.54631">
        <ele>344.9</ele>
        <time>2026-05-10T07:39:56.000Z</time>
      </trkpt>
      <trkpt lat="45.85162" lon="3.54631">
        <ele>345.3</ele>
        <time>2026-05-10T07:39:57.000Z</time>
      </trkpt>
      <trkpt lat="45.85164" lon="3.54631">
        <ele>345.9</ele>
        <time>2026-05-10T07:39:58.000Z</time>
      </trkpt>
      <trkpt lat="45.85165" lon="3.54631">
        <ele>346.3</ele>
        <time>2026-05-10T07:39:59.000Z</time>
      </trkpt>
      <trkpt lat="45.85165" lon="3.54631">
        <ele>346.5</ele>
        <time>2026-05-10T07:40:00.000Z</time>
      </trkpt>
      <trkpt lat="45.85165" lon="3.54631">
        <ele>346.6</ele>
        <time>2026-05-10T07:40:01.000Z</time>
      </trkpt>
      <trkpt lat="45.85166" lon="3.5463">
        <ele>346.9</ele>
        <time>2026-05-10T07:40:02.000Z</time>
      </trkpt>
      <trkpt lat="45.85166" lon="3.54631">
        <ele>347</ele>
        <time>2026-05-10T07:40:03.000Z</time>
      </trkpt>
      <trkpt lat="45.85166" lon="3.54631">
        <ele>347.1</ele>
        <time>2026-05-10T07:40:04.000Z</time>
      </trkpt>
      <trkpt lat="45.85166" lon="3.54631">
        <ele>347.2</ele>
        <time>2026-05-10T07:40:05.000Z</time>
      </trkpt>
      <trkpt lat="45.85167" lon="3.54631">
        <ele>347.4</ele>
        <time>2026-05-10T07:40:06.000Z</time>
      </trkpt>
      <trkpt lat="45.85167" lon="3.54631">
        <ele>347.4</ele>
        <time>2026-05-10T07:40:07.000Z</time>
      </trkpt>
      <trkpt lat="45.85168" lon="3.5463">
        <ele>347.7</ele>
        <time>2026-05-10T07:40:08.000Z</time>
      </trkpt>
      <trkpt lat="45.85169" lon="3.5463">
        <ele>348</ele>
        <time>2026-05-10T07:40:09.000Z</time>
      </trkpt>
      <trkpt lat="45.8517" lon="3.5463">
        <ele>348.1</ele>
        <time>2026-05-10T07:40:10.000Z</time>
      </trkpt>
      <trkpt lat="45.8517" lon="3.5463">
        <ele>348.3</ele>
        <time>2026-05-10T07:40:11.000Z</time>
      </trkpt>
      <trkpt lat="45.85171" lon="3.54629">
        <ele>348.5</ele>
        <time>2026-05-10T07:40:12.000Z</time>
      </trkpt>
      <trkpt lat="45.85172" lon="3.5463">
        <ele>348.8</ele>
        <time>2026-05-10T07:40:13.000Z</time>
      </trkpt>
      <trkpt lat="45.85173" lon="3.5463">
        <ele>348.9</ele>
        <time>2026-05-10T07:40:14.000Z</time>
      </trkpt>
      <trkpt lat="45.85173" lon="3.54631">
        <ele>349</ele>
        <time>2026-05-10T07:40:15.000Z</time>
      </trkpt>
      <trkpt lat="45.85174" lon="3.54631">
        <ele>349.4</ele>
        <time>2026-05-10T07:40:16.000Z</time>
      </trkpt>
      <trkpt lat="45.85176" lon="3.54632">
        <ele>349.7</ele>
        <time>2026-05-10T07:40:17.000Z</time>
      </trkpt>
      <trkpt lat="45.85176" lon="3.54632">
        <ele>349.8</ele>
        <time>2026-05-10T07:40:18.000Z</time>
      </trkpt>
      <trkpt lat="45.85177" lon="3.54633">
        <ele>350.1</ele>
        <time>2026-05-10T07:40:19.000Z</time>
      </trkpt>
      <trkpt lat="45.85178" lon="3.54633">
        <ele>350.2</ele>
        <time>2026-05-10T07:40:20.000Z</time>
      </trkpt>
      <trkpt lat="45.85178" lon="3.54634">
        <ele>350.4</ele>
        <time>2026-05-10T07:40:21.000Z</time>
      </trkpt>
      <trkpt lat="45.85179" lon="3.54634">
        <ele>350.6</ele>
        <time>2026-05-10T07:40:22.000Z</time>
      </trkpt>
      <trkpt lat="45.8518" lon="3.54634">
        <ele>350.8</ele>
        <time>2026-05-10T07:40:23.000Z</time>
      </trkpt>
      <trkpt lat="45.8518" lon="3.54634">
        <ele>351</ele>
        <time>2026-05-10T07:40:24.000Z</time>
      </trkpt>
      <trkpt lat="45.85181" lon="3.54634">
        <ele>351.2</ele>
        <time>2026-05-10T07:40:25.000Z</time>
      </trkpt>
      <trkpt lat="45.85182" lon="3.54634">
        <ele>351.6</ele>
        <time>2026-05-10T07:40:26.000Z</time>
      </trkpt>
      <trkpt lat="45.85183" lon="3.54634">
        <ele>351.8</ele>
        <time>2026-05-10T07:40:27.000Z</time>
      </trkpt>
      <trkpt lat="45.85184" lon="3.54634">
        <ele>352</ele>
        <time>2026-05-10T07:40:28.000Z</time>
      </trkpt>
      <trkpt lat="45.85184" lon="3.54634">
        <ele>352.2</ele>
        <time>2026-05-10T07:40:29.000Z</time>
      </trkpt>
      <trkpt lat="45.85186" lon="3.54634">
        <ele>352.5</ele>
        <time>2026-05-10T07:40:30.000Z</time>
      </trkpt>
      <trkpt lat="45.85187" lon="3.54634">
        <ele>352.8</ele>
        <time>2026-05-10T07:40:31.000Z</time>
      </trkpt>
      <trkpt lat="45.85187" lon="3.54634">
        <ele>353</ele>
        <time>2026-05-10T07:40:32.000Z</time>
      </trkpt>
      <trkpt lat="45.85188" lon="3.54633">
        <ele>353.2</ele>
        <time>2026-05-10T07:40:33.000Z</time>
      </trkpt>
      <trkpt lat="45.85189" lon="3.54633">
        <ele>353.4</ele>
        <time>2026-05-10T07:40:34.000Z</time>
      </trkpt>
      <trkpt lat="45.8519" lon="3.54634">
        <ele>353.6</ele>
        <time>2026-05-10T07:40:35.000Z</time>
      </trkpt>
      <trkpt lat="45.8519" lon="3.54633">
        <ele>353.7</ele>
        <time>2026-05-10T07:40:36.000Z</time>
      </trkpt>
      <trkpt lat="45.85191" lon="3.54633">
        <ele>354</ele>
        <time>2026-05-10T07:40:37.000Z</time>
      </trkpt>
      <trkpt lat="45.85192" lon="3.54633">
        <ele>354.2</ele>
        <time>2026-05-10T07:40:38.000Z</time>
      </trkpt>
      <trkpt lat="45.85192" lon="3.54634">
        <ele>354.3</ele>
        <time>2026-05-10T07:40:39.000Z</time>
      </trkpt>
      <trkpt lat="45.85193" lon="3.54634">
        <ele>354.6</ele>
        <time>2026-05-10T07:40:40.000Z</time>
      </trkpt>
      <trkpt lat="45.85194" lon="3.54634">
        <ele>354.7</ele>
        <time>2026-05-10T07:40:41.000Z</time>
      </trkpt>
      <trkpt lat="45.85194" lon="3.54634">
        <ele>355</ele>
        <time>2026-05-10T07:40:42.000Z</time>
      </trkpt>
      <trkpt lat="45.85195" lon="3.54634">
        <ele>355.1</ele>
        <time>2026-05-10T07:40:43.000Z</time>
      </trkpt>
      <trkpt lat="45.85196" lon="3.54633">
        <ele>355.2</ele>
        <time>2026-05-10T07:40:44.000Z</time>
      </trkpt>
      <trkpt lat="45.85197" lon="3.54633">
        <ele>355.5</ele>
        <time>2026-05-10T07:40:45.000Z</time>
      </trkpt>
      <trkpt lat="45.85198" lon="3.54633">
        <ele>355.6</ele>
        <time>2026-05-10T07:40:46.000Z</time>
      </trkpt>
      <trkpt lat="45.85199" lon="3.54633">
        <ele>355.8</ele>
        <time>2026-05-10T07:40:47.000Z</time>
      </trkpt>
      <trkpt lat="45.852" lon="3.54633">
        <ele>356</ele>
        <time>2026-05-10T07:40:48.000Z</time>
      </trkpt>
      <trkpt lat="45.85201" lon="3.54632">
        <ele>356.2</ele>
        <time>2026-05-10T07:40:49.000Z</time>
      </trkpt>
      <trkpt lat="45.85201" lon="3.54632">
        <ele>356.3</ele>
        <time>2026-05-10T07:40:50.000Z</time>
      </trkpt>
      <trkpt lat="45.85202" lon="3.54633">
        <ele>356.5</ele>
        <time>2026-05-10T07:40:51.000Z</time>
      </trkpt>
      <trkpt lat="45.85203" lon="3.54633">
        <ele>356.7</ele>
        <time>2026-05-10T07:40:52.000Z</time>
      </trkpt>
      <trkpt lat="45.85204" lon="3.54632">
        <ele>356.9</ele>
        <time>2026-05-10T07:40:53.000Z</time>
      </trkpt>
      <trkpt lat="45.85205" lon="3.54632">
        <ele>357</ele>
        <time>2026-05-10T07:40:54.000Z</time>
      </trkpt>
      <trkpt lat="45.85206" lon="3.54632">
        <ele>357.2</ele>
        <time>2026-05-10T07:40:55.000Z</time>
      </trkpt>
      <trkpt lat="45.85208" lon="3.54631">
        <ele>357.4</ele>
        <time>2026-05-10T07:40:56.000Z</time>
      </trkpt>
      <trkpt lat="45.85209" lon="3.54631">
        <ele>357.6</ele>
        <time>2026-05-10T07:40:57.000Z</time>
      </trkpt>
      <trkpt lat="45.85209" lon="3.54631">
        <ele>357.8</ele>
        <time>2026-05-10T07:40:58.000Z</time>
      </trkpt>
      <trkpt lat="45.8521" lon="3.54631">
        <ele>357.9</ele>
        <time>2026-05-10T07:40:59.000Z</time>
      </trkpt>
      <trkpt lat="45.85212" lon="3.5463">
        <ele>358.1</ele>
        <time>2026-05-10T07:41:00.000Z</time>
      </trkpt>
      <trkpt lat="45.85213" lon="3.5463">
        <ele>358.3</ele>
        <time>2026-05-10T07:41:01.000Z</time>
      </trkpt>
      <trkpt lat="45.85214" lon="3.54629">
        <ele>358.4</ele>
        <time>2026-05-10T07:41:02.000Z</time>
      </trkpt>
      <trkpt lat="45.85214" lon="3.54629">
        <ele>358.5</ele>
        <time>2026-05-10T07:41:03.000Z</time>
      </trkpt>
      <trkpt lat="45.85215" lon="3.54629">
        <ele>358.6</ele>
        <time>2026-05-10T07:41:04.000Z</time>
      </trkpt>
      <trkpt lat="45.85215" lon="3.5463">
        <ele>358.7</ele>
        <time>2026-05-10T07:41:05.000Z</time>
      </trkpt>
      <trkpt lat="45.85215" lon="3.5463">
        <ele>358.7</ele>
        <time>2026-05-10T07:41:06.000Z</time>
      </trkpt>
      <trkpt lat="45.85214" lon="3.54631">
        <ele>358.7</ele>
        <time>2026-05-10T07:41:07.000Z</time>
      </trkpt>
      <trkpt lat="45.85214" lon="3.54632">
        <ele>358.7</ele>
        <time>2026-05-10T07:41:08.000Z</time>
      </trkpt>
      <trkpt lat="45.85214" lon="3.54632">
        <ele>358.6</ele>
        <time>2026-05-10T07:41:09.000Z</time>
      </trkpt>
      <trkpt lat="45.85213" lon="3.54634">
        <ele>358.7</ele>
        <time>2026-05-10T07:41:10.000Z</time>
      </trkpt>
      <trkpt lat="45.85213" lon="3.54635">
        <ele>358.7</ele>
        <time>2026-05-10T07:41:11.000Z</time>
      </trkpt>
      <trkpt lat="45.85212" lon="3.54637">
        <ele>358.7</ele>
        <time>2026-05-10T07:41:12.000Z</time>
      </trkpt>
      <trkpt lat="45.85212" lon="3.54638">
        <ele>358.7</ele>
        <time>2026-05-10T07:41:13.000Z</time>
      </trkpt>
      <trkpt lat="45.85212" lon="3.54639">
        <ele>358.7</ele>
        <time>2026-05-10T07:41:14.000Z</time>
      </trkpt>
      <trkpt lat="45.85211" lon="3.54641">
        <ele>358.8</ele>
        <time>2026-05-10T07:41:15.000Z</time>
      </trkpt>
      <trkpt lat="45.85211" lon="3.54642">
        <ele>358.8</ele>
        <time>2026-05-10T07:41:16.000Z</time>
      </trkpt>
      <trkpt lat="45.85211" lon="3.54644">
        <ele>358.9</ele>
        <time>2026-05-10T07:41:17.000Z</time>
      </trkpt>
      <trkpt lat="45.8521" lon="3.54645">
        <ele>358.9</ele>
        <time>2026-05-10T07:41:18.000Z</time>
      </trkpt>
      <trkpt lat="45.8521" lon="3.54647">
        <ele>358.9</ele>
        <time>2026-05-10T07:41:19.000Z</time>
      </trkpt>
      <trkpt lat="45.8521" lon="3.54648">
        <ele>359</ele>
        <time>2026-05-10T07:41:20.000Z</time>
      </trkpt>
      <trkpt lat="45.85209" lon="3.5465">
        <ele>359</ele>
        <time>2026-05-10T07:41:21.000Z</time>
      </trkpt>
      <trkpt lat="45.85209" lon="3.54651">
        <ele>359.1</ele>
        <time>2026-05-10T07:41:22.000Z</time>
      </trkpt>
      <trkpt lat="45.85209" lon="3.54652">
        <ele>359.2</ele>
        <time>2026-05-10T07:41:23.000Z</time>
      </trkpt>
      <trkpt lat="45.8521" lon="3.54655">
        <ele>359.6</ele>
        <time>2026-05-10T07:41:24.000Z</time>
      </trkpt>
      <trkpt lat="45.85211" lon="3.54657">
        <ele>359.9</ele>
        <time>2026-05-10T07:41:25.000Z</time>
      </trkpt>
      <trkpt lat="45.85211" lon="3.54657">
        <ele>359.9</ele>
        <time>2026-05-10T07:41:26.000Z</time>
      </trkpt>
      <trkpt lat="45.85211" lon="3.54661">
        <ele>360.4</ele>
        <time>2026-05-10T07:41:27.000Z</time>
      </trkpt>
      <trkpt lat="45.85211" lon="3.54663">
        <ele>360.6</ele>
        <time>2026-05-10T07:41:28.000Z</time>
      </trkpt>
      <trkpt lat="45.85211" lon="3.54665">
        <ele>360.7</ele>
        <time>2026-05-10T07:41:29.000Z</time>
      </trkpt>
      <trkpt lat="45.85212" lon="3.54667">
        <ele>361</ele>
        <time>2026-05-10T07:41:30.000Z</time>
      </trkpt>
      <trkpt lat="45.85212" lon="3.54668">
        <ele>361</ele>
        <time>2026-05-10T07:41:31.000Z</time>
      </trkpt>
      <trkpt lat="45.85212" lon="3.5467">
        <ele>361.1</ele>
        <time>2026-05-10T07:41:32.000Z</time>
      </trkpt>
      <trkpt lat="45.85212" lon="3.54672">
        <ele>361.1</ele>
        <time>2026-05-10T07:41:33.000Z</time>
      </trkpt>
      <trkpt lat="45.85213" lon="3.54674">
        <ele>361.3</ele>
        <time>2026-05-10T07:41:34.000Z</time>
      </trkpt>
      <trkpt lat="45.85214" lon="3.54675">
        <ele>361.7</ele>
        <time>2026-05-10T07:41:35.000Z</time>
      </trkpt>
      <trkpt lat="45.85214" lon="3.54677">
        <ele>361.7</ele>
        <time>2026-05-10T07:41:36.000Z</time>
      </trkpt>
      <trkpt lat="45.85214" lon="3.54678">
        <ele>361.8</ele>
        <time>2026-05-10T07:41:37.000Z</time>
      </trkpt>
      <trkpt lat="45.85214" lon="3.5468">
        <ele>361.9</ele>
        <time>2026-05-10T07:41:38.000Z</time>
      </trkpt>
      <trkpt lat="45.85214" lon="3.54682">
        <ele>362</ele>
        <time>2026-05-10T07:41:39.000Z</time>
      </trkpt>
      <trkpt lat="45.85215" lon="3.54684">
        <ele>362.2</ele>
        <time>2026-05-10T07:41:40.000Z</time>
      </trkpt>
      <trkpt lat="45.85215" lon="3.54686">
        <ele>362.3</ele>
        <time>2026-05-10T07:41:41.000Z</time>
      </trkpt>
      <trkpt lat="45.85215" lon="3.54687">
        <ele>362.6</ele>
        <time>2026-05-10T07:41:42.000Z</time>
      </trkpt>
      <trkpt lat="45.85216" lon="3.54689">
        <ele>362.7</ele>
        <time>2026-05-10T07:41:43.000Z</time>
      </trkpt>
      <trkpt lat="45.85215" lon="3.54691">
        <ele>362.7</ele>
        <time>2026-05-10T07:41:44.000Z</time>
      </trkpt>
      <trkpt lat="45.85216" lon="3.54692">
        <ele>362.8</ele>
        <time>2026-05-10T07:41:45.000Z</time>
      </trkpt>
      <trkpt lat="45.85216" lon="3.54695">
        <ele>363.2</ele>
        <time>2026-05-10T07:41:46.000Z</time>
      </trkpt>
      <trkpt lat="45.85216" lon="3.54696">
        <ele>363.4</ele>
        <time>2026-05-10T07:41:47.000Z</time>
      </trkpt>
      <trkpt lat="45.85217" lon="3.54698">
        <ele>363.5</ele>
        <time>2026-05-10T07:41:48.000Z</time>
      </trkpt>
      <trkpt lat="45.85217" lon="3.547">
        <ele>363.7</ele>
        <time>2026-05-10T07:41:49.000Z</time>
      </trkpt>
      <trkpt lat="45.85217" lon="3.54701">
        <ele>363.8</ele>
        <time>2026-05-10T07:41:50.000Z</time>
      </trkpt>
      <trkpt lat="45.85217" lon="3.54703">
        <ele>364</ele>
        <time>2026-05-10T07:41:51.000Z</time>
      </trkpt>
      <trkpt lat="45.85217" lon="3.54704">
        <ele>364</ele>
        <time>2026-05-10T07:41:52.000Z</time>
      </trkpt>
      <trkpt lat="45.85217" lon="3.54706">
        <ele>364</ele>
        <time>2026-05-10T07:41:53.000Z</time>
      </trkpt>
      <trkpt lat="45.85217" lon="3.54707">
        <ele>364</ele>
        <time>2026-05-10T07:41:54.000Z</time>
      </trkpt>
      <trkpt lat="45.85217" lon="3.54708">
        <ele>364.1</ele>
        <time>2026-05-10T07:41:55.000Z</time>
      </trkpt>
      <trkpt lat="45.85216" lon="3.54711">
        <ele>364</ele>
        <time>2026-05-10T07:41:56.000Z</time>
      </trkpt>
      <trkpt lat="45.85215" lon="3.54713">
        <ele>363.8</ele>
        <time>2026-05-10T07:41:57.000Z</time>
      </trkpt>
      <trkpt lat="45.85215" lon="3.54714">
        <ele>363.8</ele>
        <time>2026-05-10T07:41:58.000Z</time>
      </trkpt>
      <trkpt lat="45.85215" lon="3.54715">
        <ele>363.7</ele>
        <time>2026-05-10T07:41:59.000Z</time>
      </trkpt>
      <trkpt lat="45.85215" lon="3.54717">
        <ele>363.8</ele>
        <time>2026-05-10T07:42:00.000Z</time>
      </trkpt>
      <trkpt lat="45.85215" lon="3.5472">
        <ele>363.8</ele>
        <time>2026-05-10T07:42:01.000Z</time>
      </trkpt>
      <trkpt lat="45.85214" lon="3.54722">
        <ele>363.6</ele>
        <time>2026-05-10T07:42:02.000Z</time>
      </trkpt>
      <trkpt lat="45.85214" lon="3.54723">
        <ele>363.5</ele>
        <time>2026-05-10T07:42:03.000Z</time>
      </trkpt>
      <trkpt lat="45.85213" lon="3.54725">
        <ele>363.4</ele>
        <time>2026-05-10T07:42:04.000Z</time>
      </trkpt>
      <trkpt lat="45.85213" lon="3.54726">
        <ele>363.4</ele>
        <time>2026-05-10T07:42:05.000Z</time>
      </trkpt>
      <trkpt lat="45.85212" lon="3.54727">
        <ele>363.3</ele>
        <time>2026-05-10T07:42:06.000Z</time>
      </trkpt>
      <trkpt lat="45.85213" lon="3.54729">
        <ele>363.7</ele>
        <time>2026-05-10T07:42:07.000Z</time>
      </trkpt>
      <trkpt lat="45.85212" lon="3.54731">
        <ele>363.7</ele>
        <time>2026-05-10T07:42:08.000Z</time>
      </trkpt>
      <trkpt lat="45.85212" lon="3.54732">
        <ele>363.7</ele>
        <time>2026-05-10T07:42:09.000Z</time>
      </trkpt>
      <trkpt lat="45.85212" lon="3.54733">
        <ele>363.7</ele>
        <time>2026-05-10T07:42:10.000Z</time>
      </trkpt>
      <trkpt lat="45.85212" lon="3.54734">
        <ele>364</ele>
        <time>2026-05-10T07:42:11.000Z</time>
      </trkpt>
      <trkpt lat="45.85212" lon="3.54737">
        <ele>364.2</ele>
        <time>2026-05-10T07:42:12.000Z</time>
      </trkpt>
      <trkpt lat="45.85212" lon="3.54739">
        <ele>364.8</ele>
        <time>2026-05-10T07:42:13.000Z</time>
      </trkpt>
      <trkpt lat="45.85212" lon="3.54741">
        <ele>365.1</ele>
        <time>2026-05-10T07:42:14.000Z</time>
      </trkpt>
      <trkpt lat="45.85212" lon="3.54742">
        <ele>365.1</ele>
        <time>2026-05-10T07:42:15.000Z</time>
      </trkpt>
      <trkpt lat="45.85212" lon="3.54745">
        <ele>365.3</ele>
        <time>2026-05-10T07:42:16.000Z</time>
      </trkpt>
      <trkpt lat="45.85211" lon="3.54746">
        <ele>365.3</ele>
        <time>2026-05-10T07:42:17.000Z</time>
      </trkpt>
      <trkpt lat="45.85211" lon="3.54747">
        <ele>365.5</ele>
        <time>2026-05-10T07:42:18.000Z</time>
      </trkpt>
      <trkpt lat="45.85211" lon="3.54748">
        <ele>365.6</ele>
        <time>2026-05-10T07:42:19.000Z</time>
      </trkpt>
      <trkpt lat="45.85211" lon="3.5475">
        <ele>365.7</ele>
        <time>2026-05-10T07:42:20.000Z</time>
      </trkpt>
      <trkpt lat="45.85211" lon="3.54752">
        <ele>366</ele>
        <time>2026-05-10T07:42:21.000Z</time>
      </trkpt>
      <trkpt lat="45.8521" lon="3.54753">
        <ele>366.1</ele>
        <time>2026-05-10T07:42:22.000Z</time>
      </trkpt>
      <trkpt lat="45.8521" lon="3.54754">
        <ele>366.3</ele>
        <time>2026-05-10T07:42:23.000Z</time>
      </trkpt>
      <trkpt lat="45.8521" lon="3.54755">
        <ele>366.4</ele>
        <time>2026-05-10T07:42:24.000Z</time>
      </trkpt>
      <trkpt lat="45.8521" lon="3.54756">
        <ele>366.6</ele>
        <time>2026-05-10T07:42:25.000Z</time>
      </trkpt>
      <trkpt lat="45.8521" lon="3.54758">
        <ele>366.9</ele>
        <time>2026-05-10T07:42:26.000Z</time>
      </trkpt>
      <trkpt lat="45.8521" lon="3.54758">
        <ele>367.1</ele>
        <time>2026-05-10T07:42:27.000Z</time>
      </trkpt>
      <trkpt lat="45.8521" lon="3.54759">
        <ele>367.1</ele>
        <time>2026-05-10T07:42:28.000Z</time>
      </trkpt>
      <trkpt lat="45.85209" lon="3.54761">
        <ele>367.3</ele>
        <time>2026-05-10T07:42:29.000Z</time>
      </trkpt>
      <trkpt lat="45.85209" lon="3.54762">
        <ele>367.5</ele>
        <time>2026-05-10T07:42:30.000Z</time>
      </trkpt>
      <trkpt lat="45.85209" lon="3.54763">
        <ele>367.7</ele>
        <time>2026-05-10T07:42:31.000Z</time>
      </trkpt>
      <trkpt lat="45.85209" lon="3.54764">
        <ele>367.8</ele>
        <time>2026-05-10T07:42:32.000Z</time>
      </trkpt>
      <trkpt lat="45.85208" lon="3.54766">
        <ele>368</ele>
        <time>2026-05-10T07:42:33.000Z</time>
      </trkpt>
      <trkpt lat="45.85208" lon="3.54767">
        <ele>368</ele>
        <time>2026-05-10T07:42:34.000Z</time>
      </trkpt>
      <trkpt lat="45.85208" lon="3.54768">
        <ele>367.9</ele>
        <time>2026-05-10T07:42:35.000Z</time>
      </trkpt>
      <trkpt lat="45.85207" lon="3.54769">
        <ele>368.1</ele>
        <time>2026-05-10T07:42:36.000Z</time>
      </trkpt>
      <trkpt lat="45.85207" lon="3.54771">
        <ele>368.3</ele>
        <time>2026-05-10T07:42:37.000Z</time>
      </trkpt>
      <trkpt lat="45.85207" lon="3.54773">
        <ele>368.6</ele>
        <time>2026-05-10T07:42:38.000Z</time>
      </trkpt>
      <trkpt lat="45.85206" lon="3.54774">
        <ele>368.7</ele>
        <time>2026-05-10T07:42:39.000Z</time>
      </trkpt>
      <trkpt lat="45.85207" lon="3.54775">
        <ele>369</ele>
        <time>2026-05-10T07:42:40.000Z</time>
      </trkpt>
      <trkpt lat="45.85207" lon="3.54777">
        <ele>369.3</ele>
        <time>2026-05-10T07:42:41.000Z</time>
      </trkpt>
      <trkpt lat="45.85206" lon="3.54778">
        <ele>369.5</ele>
        <time>2026-05-10T07:42:42.000Z</time>
      </trkpt>
      <trkpt lat="45.85206" lon="3.54779">
        <ele>369.6</ele>
        <time>2026-05-10T07:42:43.000Z</time>
      </trkpt>
      <trkpt lat="45.85206" lon="3.5478">
        <ele>369.9</ele>
        <time>2026-05-10T07:42:44.000Z</time>
      </trkpt>
      <trkpt lat="45.85206" lon="3.54781">
        <ele>370.4</ele>
        <time>2026-05-10T07:42:45.000Z</time>
      </trkpt>
      <trkpt lat="45.85206" lon="3.54783">
        <ele>370.9</ele>
        <time>2026-05-10T07:42:46.000Z</time>
      </trkpt>
      <trkpt lat="45.85205" lon="3.54784">
        <ele>371.1</ele>
        <time>2026-05-10T07:42:47.000Z</time>
      </trkpt>
      <trkpt lat="45.85205" lon="3.54785">
        <ele>371.2</ele>
        <time>2026-05-10T07:42:48.000Z</time>
      </trkpt>
      <trkpt lat="45.85204" lon="3.54787">
        <ele>371.5</ele>
        <time>2026-05-10T07:42:49.000Z</time>
      </trkpt>
      <trkpt lat="45.85203" lon="3.54788">
        <ele>371.8</ele>
        <time>2026-05-10T07:42:50.000Z</time>
      </trkpt>
      <trkpt lat="45.85202" lon="3.54789">
        <ele>371.7</ele>
        <time>2026-05-10T07:42:51.000Z</time>
      </trkpt>
      <trkpt lat="45.85201" lon="3.5479">
        <ele>371.6</ele>
        <time>2026-05-10T07:42:52.000Z</time>
      </trkpt>
      <trkpt lat="45.852" lon="3.54791">
        <ele>371.8</ele>
        <time>2026-05-10T07:42:53.000Z</time>
      </trkpt>
      <trkpt lat="45.85199" lon="3.54793">
        <ele>372.2</ele>
        <time>2026-05-10T07:42:54.000Z</time>
      </trkpt>
      <trkpt lat="45.85198" lon="3.54793">
        <ele>372</ele>
        <time>2026-05-10T07:42:55.000Z</time>
      </trkpt>
      <trkpt lat="45.85198" lon="3.54794">
        <ele>372.2</ele>
        <time>2026-05-10T07:42:56.000Z</time>
      </trkpt>
      <trkpt lat="45.85196" lon="3.54795">
        <ele>371.9</ele>
        <time>2026-05-10T07:42:57.000Z</time>
      </trkpt>
      <trkpt lat="45.85195" lon="3.54795">
        <ele>371.7</ele>
        <time>2026-05-10T07:42:58.000Z</time>
      </trkpt>
      <trkpt lat="45.85194" lon="3.54795">
        <ele>371.3</ele>
        <time>2026-05-10T07:42:59.000Z</time>
      </trkpt>
      <trkpt lat="45.85193" lon="3.54795">
        <ele>371.1</ele>
        <time>2026-05-10T07:43:00.000Z</time>
      </trkpt>
      <trkpt lat="45.85191" lon="3.54795">
        <ele>370.9</ele>
        <time>2026-05-10T07:43:01.000Z</time>
      </trkpt>
      <trkpt lat="45.8519" lon="3.54796">
        <ele>370.8</ele>
        <time>2026-05-10T07:43:02.000Z</time>
      </trkpt>
      <trkpt lat="45.85189" lon="3.54796">
        <ele>370.7</ele>
        <time>2026-05-10T07:43:03.000Z</time>
      </trkpt>
      <trkpt lat="45.85189" lon="3.54796">
        <ele>370.3</ele>
        <time>2026-05-10T07:43:04.000Z</time>
      </trkpt>
      <trkpt lat="45.85189" lon="3.54796">
        <ele>370.3</ele>
        <time>2026-05-10T07:43:05.000Z</time>
      </trkpt>
      <trkpt lat="45.85188" lon="3.54797">
        <ele>370.5</ele>
        <time>2026-05-10T07:43:06.000Z</time>
      </trkpt>
      <trkpt lat="45.85188" lon="3.54797">
        <ele>370.6</ele>
        <time>2026-05-10T07:43:07.000Z</time>
      </trkpt>
      <trkpt lat="45.85187" lon="3.54798">
        <ele>370.7</ele>
        <time>2026-05-10T07:43:08.000Z</time>
      </trkpt>
      <trkpt lat="45.85186" lon="3.54799">
        <ele>370.8</ele>
        <time>2026-05-10T07:43:09.000Z</time>
      </trkpt>
      <trkpt lat="45.85185" lon="3.54799">
        <ele>370.7</ele>
        <time>2026-05-10T07:43:10.000Z</time>
      </trkpt>
      <trkpt lat="45.85185" lon="3.548">
        <ele>370.8</ele>
        <time>2026-05-10T07:43:11.000Z</time>
      </trkpt>
      <trkpt lat="45.85184" lon="3.54799">
        <ele>369.9</ele>
        <time>2026-05-10T07:43:12.000Z</time>
      </trkpt>
      <trkpt lat="45.85183" lon="3.54798">
        <ele>369.3</ele>
        <time>2026-05-10T07:43:13.000Z</time>
      </trkpt>
      <trkpt lat="45.85182" lon="3.54798">
        <ele>369.2</ele>
        <time>2026-05-10T07:43:14.000Z</time>
      </trkpt>
      <trkpt lat="45.85182" lon="3.54798">
        <ele>369.1</ele>
        <time>2026-05-10T07:43:15.000Z</time>
      </trkpt>
      <trkpt lat="45.85182" lon="3.54798">
        <ele>368.9</ele>
        <time>2026-05-10T07:43:16.000Z</time>
      </trkpt>
      <trkpt lat="45.85181" lon="3.54798">
        <ele>368.7</ele>
        <time>2026-05-10T07:43:17.000Z</time>
      </trkpt>
      <trkpt lat="45.85181" lon="3.54797">
        <ele>368.3</ele>
        <time>2026-05-10T07:43:18.000Z</time>
      </trkpt>
      <trkpt lat="45.8518" lon="3.54797">
        <ele>368.2</ele>
        <time>2026-05-10T07:43:19.000Z</time>
      </trkpt>
      <trkpt lat="45.8518" lon="3.54797">
        <ele>368.2</ele>
        <time>2026-05-10T07:43:20.000Z</time>
      </trkpt>
      <trkpt lat="45.8518" lon="3.54798">
        <ele>368.3</ele>
        <time>2026-05-10T07:43:21.000Z</time>
      </trkpt>
      <trkpt lat="45.8518" lon="3.54798">
        <ele>368.4</ele>
        <time>2026-05-10T07:43:22.000Z</time>
      </trkpt>
      <trkpt lat="45.8518" lon="3.54798">
        <ele>368.3</ele>
        <time>2026-05-10T07:43:23.000Z</time>
      </trkpt>
      <trkpt lat="45.8518" lon="3.54797">
        <ele>368.1</ele>
        <time>2026-05-10T07:43:24.000Z</time>
      </trkpt>
      <trkpt lat="45.85181" lon="3.54797">
        <ele>368.4</ele>
        <time>2026-05-10T07:43:25.000Z</time>
      </trkpt>
      <trkpt lat="45.85181" lon="3.54798">
        <ele>368.8</ele>
        <time>2026-05-10T07:43:26.000Z</time>
      </trkpt>
      <trkpt lat="45.85181" lon="3.54799">
        <ele>369.2</ele>
        <time>2026-05-10T07:43:27.000Z</time>
      </trkpt>
      <trkpt lat="45.85181" lon="3.54799">
        <ele>369.3</ele>
        <time>2026-05-10T07:43:28.000Z</time>
      </trkpt>
      <trkpt lat="45.8518" lon="3.548">
        <ele>369.3</ele>
        <time>2026-05-10T07:43:29.000Z</time>
      </trkpt>
      <trkpt lat="45.85179" lon="3.54801">
        <ele>369.4</ele>
        <time>2026-05-10T07:43:30.000Z</time>
      </trkpt>
      <trkpt lat="45.85178" lon="3.54802">
        <ele>369.6</ele>
        <time>2026-05-10T07:43:31.000Z</time>
      </trkpt>
      <trkpt lat="45.85176" lon="3.54803">
        <ele>369.9</ele>
        <time>2026-05-10T07:43:32.000Z</time>
      </trkpt>
      <trkpt lat="45.85175" lon="3.54804">
        <ele>370</ele>
        <time>2026-05-10T07:43:33.000Z</time>
      </trkpt>
      <trkpt lat="45.85174" lon="3.54805">
        <ele>370.2</ele>
        <time>2026-05-10T07:43:34.000Z</time>
      </trkpt>
      <trkpt lat="45.85174" lon="3.54806">
        <ele>370.4</ele>
        <time>2026-05-10T07:43:35.000Z</time>
      </trkpt>
      <trkpt lat="45.85173" lon="3.54807">
        <ele>370.6</ele>
        <time>2026-05-10T07:43:36.000Z</time>
      </trkpt>
      <trkpt lat="45.85172" lon="3.54808">
        <ele>370.8</ele>
        <time>2026-05-10T07:43:37.000Z</time>
      </trkpt>
      <trkpt lat="45.85171" lon="3.54809">
        <ele>370.9</ele>
        <time>2026-05-10T07:43:38.000Z</time>
      </trkpt>
      <trkpt lat="45.8517" lon="3.5481">
        <ele>371.1</ele>
        <time>2026-05-10T07:43:39.000Z</time>
      </trkpt>
      <trkpt lat="45.8517" lon="3.54811">
        <ele>371.3</ele>
        <time>2026-05-10T07:43:40.000Z</time>
      </trkpt>
      <trkpt lat="45.85168" lon="3.5481">
        <ele>370.6</ele>
        <time>2026-05-10T07:43:41.000Z</time>
      </trkpt>
      <trkpt lat="45.85167" lon="3.54811">
        <ele>370.8</ele>
        <time>2026-05-10T07:43:42.000Z</time>
      </trkpt>
      <trkpt lat="45.85166" lon="3.54812">
        <ele>370.7</ele>
        <time>2026-05-10T07:43:43.000Z</time>
      </trkpt>
      <trkpt lat="45.85165" lon="3.54813">
        <ele>370.7</ele>
        <time>2026-05-10T07:43:44.000Z</time>
      </trkpt>
      <trkpt lat="45.85164" lon="3.54815">
        <ele>370.9</ele>
        <time>2026-05-10T07:43:45.000Z</time>
      </trkpt>
      <trkpt lat="45.85164" lon="3.54816">
        <ele>371.3</ele>
        <time>2026-05-10T07:43:46.000Z</time>
      </trkpt>
      <trkpt lat="45.85163" lon="3.54818">
        <ele>371.5</ele>
        <time>2026-05-10T07:43:47.000Z</time>
      </trkpt>
      <trkpt lat="45.85162" lon="3.54819">
        <ele>371.6</ele>
        <time>2026-05-10T07:43:48.000Z</time>
      </trkpt>
      <trkpt lat="45.85161" lon="3.5482">
        <ele>371.7</ele>
        <time>2026-05-10T07:43:49.000Z</time>
      </trkpt>
      <trkpt lat="45.85161" lon="3.54821">
        <ele>371.8</ele>
        <time>2026-05-10T07:43:50.000Z</time>
      </trkpt>
      <trkpt lat="45.8516" lon="3.54822">
        <ele>371.9</ele>
        <time>2026-05-10T07:43:51.000Z</time>
      </trkpt>
      <trkpt lat="45.85159" lon="3.54823">
        <ele>371.9</ele>
        <time>2026-05-10T07:43:52.000Z</time>
      </trkpt>
      <trkpt lat="45.85158" lon="3.54823">
        <ele>371.6</ele>
        <time>2026-05-10T07:43:53.000Z</time>
      </trkpt>
      <trkpt lat="45.85158" lon="3.54824">
        <ele>371.5</ele>
        <time>2026-05-10T07:43:54.000Z</time>
      </trkpt>
      <trkpt lat="45.85157" lon="3.54825">
        <ele>371.5</ele>
        <time>2026-05-10T07:43:55.000Z</time>
      </trkpt>
      <trkpt lat="45.85156" lon="3.54825">
        <ele>371.5</ele>
        <time>2026-05-10T07:43:56.000Z</time>
      </trkpt>
      <trkpt lat="45.85156" lon="3.54826">
        <ele>371.5</ele>
        <time>2026-05-10T07:43:57.000Z</time>
      </trkpt>
      <trkpt lat="45.85155" lon="3.54827">
        <ele>371.3</ele>
        <time>2026-05-10T07:43:58.000Z</time>
      </trkpt>
      <trkpt lat="45.85154" lon="3.54827">
        <ele>371.1</ele>
        <time>2026-05-10T07:43:59.000Z</time>
      </trkpt>
      <trkpt lat="45.85154" lon="3.54827">
        <ele>371.1</ele>
        <time>2026-05-10T07:44:00.000Z</time>
      </trkpt>
      <trkpt lat="45.85153" lon="3.54828">
        <ele>371.3</ele>
        <time>2026-05-10T07:44:01.000Z</time>
      </trkpt>
      <trkpt lat="45.85153" lon="3.54829">
        <ele>371.9</ele>
        <time>2026-05-10T07:44:02.000Z</time>
      </trkpt>
      <trkpt lat="45.85153" lon="3.5483">
        <ele>372</ele>
        <time>2026-05-10T07:44:03.000Z</time>
      </trkpt>
      <trkpt lat="45.85152" lon="3.54831">
        <ele>372</ele>
        <time>2026-05-10T07:44:04.000Z</time>
      </trkpt>
      <trkpt lat="45.85151" lon="3.54833">
        <ele>372.2</ele>
        <time>2026-05-10T07:44:05.000Z</time>
      </trkpt>
      <trkpt lat="45.8515" lon="3.54834">
        <ele>372.2</ele>
        <time>2026-05-10T07:44:06.000Z</time>
      </trkpt>
      <trkpt lat="45.8515" lon="3.54835">
        <ele>372</ele>
        <time>2026-05-10T07:44:07.000Z</time>
      </trkpt>
      <trkpt lat="45.85149" lon="3.54836">
        <ele>371.9</ele>
        <time>2026-05-10T07:44:08.000Z</time>
      </trkpt>
      <trkpt lat="45.85148" lon="3.54837">
        <ele>371.6</ele>
        <time>2026-05-10T07:44:09.000Z</time>
      </trkpt>
      <trkpt lat="45.85147" lon="3.54838">
        <ele>371.3</ele>
        <time>2026-05-10T07:44:10.000Z</time>
      </trkpt>
      <trkpt lat="45.85147" lon="3.5484">
        <ele>371.2</ele>
        <time>2026-05-10T07:44:11.000Z</time>
      </trkpt>
      <trkpt lat="45.85146" lon="3.54841">
        <ele>371</ele>
        <time>2026-05-10T07:44:12.000Z</time>
      </trkpt>
      <trkpt lat="45.85146" lon="3.54842">
        <ele>371</ele>
        <time>2026-05-10T07:44:13.000Z</time>
      </trkpt>
      <trkpt lat="45.85145" lon="3.54843">
        <ele>371</ele>
        <time>2026-05-10T07:44:14.000Z</time>
      </trkpt>
      <trkpt lat="45.85145" lon="3.54845">
        <ele>371.2</ele>
        <time>2026-05-10T07:44:15.000Z</time>
      </trkpt>
      <trkpt lat="45.85145" lon="3.54846">
        <ele>371.3</ele>
        <time>2026-05-10T07:44:16.000Z</time>
      </trkpt>
      <trkpt lat="45.85144" lon="3.54848">
        <ele>371.3</ele>
        <time>2026-05-10T07:44:17.000Z</time>
      </trkpt>
      <trkpt lat="45.85144" lon="3.5485">
        <ele>371.6</ele>
        <time>2026-05-10T07:44:18.000Z</time>
      </trkpt>
      <trkpt lat="45.85144" lon="3.54852">
        <ele>371.8</ele>
        <time>2026-05-10T07:44:19.000Z</time>
      </trkpt>
      <trkpt lat="45.85144" lon="3.54854">
        <ele>372</ele>
        <time>2026-05-10T07:44:20.000Z</time>
      </trkpt>
      <trkpt lat="45.85144" lon="3.54856">
        <ele>372.1</ele>
        <time>2026-05-10T07:44:21.000Z</time>
      </trkpt>
      <trkpt lat="45.85143" lon="3.54857">
        <ele>372.1</ele>
        <time>2026-05-10T07:44:22.000Z</time>
      </trkpt>
      <trkpt lat="45.85142" lon="3.54859">
        <ele>372.2</ele>
        <time>2026-05-10T07:44:23.000Z</time>
      </trkpt>
      <trkpt lat="45.85142" lon="3.5486">
        <ele>372.2</ele>
        <time>2026-05-10T07:44:24.000Z</time>
      </trkpt>
      <trkpt lat="45.85142" lon="3.54861">
        <ele>372.2</ele>
        <time>2026-05-10T07:44:25.000Z</time>
      </trkpt>
      <trkpt lat="45.85141" lon="3.54862">
        <ele>372.1</ele>
        <time>2026-05-10T07:44:26.000Z</time>
      </trkpt>
      <trkpt lat="45.85141" lon="3.54864">
        <ele>372.1</ele>
        <time>2026-05-10T07:44:27.000Z</time>
      </trkpt>
      <trkpt lat="45.85141" lon="3.54865">
        <ele>372.2</ele>
        <time>2026-05-10T07:44:28.000Z</time>
      </trkpt>
      <trkpt lat="45.8514" lon="3.54867">
        <ele>372.2</ele>
        <time>2026-05-10T07:44:29.000Z</time>
      </trkpt>
      <trkpt lat="45.8514" lon="3.54869">
        <ele>372.2</ele>
        <time>2026-05-10T07:44:30.000Z</time>
      </trkpt>
      <trkpt lat="45.8514" lon="3.54871">
        <ele>372.3</ele>
        <time>2026-05-10T07:44:31.000Z</time>
      </trkpt>
      <trkpt lat="45.85139" lon="3.54872">
        <ele>372.3</ele>
        <time>2026-05-10T07:44:32.000Z</time>
      </trkpt>
      <trkpt lat="45.85139" lon="3.54874">
        <ele>372.4</ele>
        <time>2026-05-10T07:44:33.000Z</time>
      </trkpt>
      <trkpt lat="45.85139" lon="3.54876">
        <ele>372.5</ele>
        <time>2026-05-10T07:44:34.000Z</time>
      </trkpt>
      <trkpt lat="45.85138" lon="3.54877">
        <ele>372.5</ele>
        <time>2026-05-10T07:44:35.000Z</time>
      </trkpt>
      <trkpt lat="45.85138" lon="3.54879">
        <ele>372.6</ele>
        <time>2026-05-10T07:44:36.000Z</time>
      </trkpt>
      <trkpt lat="45.85138" lon="3.5488">
        <ele>372.6</ele>
        <time>2026-05-10T07:44:37.000Z</time>
      </trkpt>
      <trkpt lat="45.85137" lon="3.54882">
        <ele>372.7</ele>
        <time>2026-05-10T07:44:38.000Z</time>
      </trkpt>
      <trkpt lat="45.85136" lon="3.54883">
        <ele>372.7</ele>
        <time>2026-05-10T07:44:39.000Z</time>
      </trkpt>
      <trkpt lat="45.85136" lon="3.54885">
        <ele>372.7</ele>
        <time>2026-05-10T07:44:40.000Z</time>
      </trkpt>
      <trkpt lat="45.85135" lon="3.54886">
        <ele>372.7</ele>
        <time>2026-05-10T07:44:41.000Z</time>
      </trkpt>
      <trkpt lat="45.85135" lon="3.54888">
        <ele>372.9</ele>
        <time>2026-05-10T07:44:42.000Z</time>
      </trkpt>
      <trkpt lat="45.85134" lon="3.5489">
        <ele>372.9</ele>
        <time>2026-05-10T07:44:43.000Z</time>
      </trkpt>
      <trkpt lat="45.85134" lon="3.54891">
        <ele>372.9</ele>
        <time>2026-05-10T07:44:44.000Z</time>
      </trkpt>
      <trkpt lat="45.85134" lon="3.54893">
        <ele>372.9</ele>
        <time>2026-05-10T07:44:45.000Z</time>
      </trkpt>
      <trkpt lat="45.85133" lon="3.54895">
        <ele>372.8</ele>
        <time>2026-05-10T07:44:46.000Z</time>
      </trkpt>
      <trkpt lat="45.85132" lon="3.54897">
        <ele>372.8</ele>
        <time>2026-05-10T07:44:47.000Z</time>
      </trkpt>
      <trkpt lat="45.85132" lon="3.54898">
        <ele>372.8</ele>
        <time>2026-05-10T07:44:48.000Z</time>
      </trkpt>
      <trkpt lat="45.85132" lon="3.54899">
        <ele>372.8</ele>
        <time>2026-05-10T07:44:49.000Z</time>
      </trkpt>
      <trkpt lat="45.85131" lon="3.54901">
        <ele>372.8</ele>
        <time>2026-05-10T07:44:50.000Z</time>
      </trkpt>
      <trkpt lat="45.85131" lon="3.54902">
        <ele>372.9</ele>
        <time>2026-05-10T07:44:51.000Z</time>
      </trkpt>
      <trkpt lat="45.8513" lon="3.54904">
        <ele>372.8</ele>
        <time>2026-05-10T07:44:52.000Z</time>
      </trkpt>
      <trkpt lat="45.8513" lon="3.54906">
        <ele>372.9</ele>
        <time>2026-05-10T07:44:53.000Z</time>
      </trkpt>
      <trkpt lat="45.85129" lon="3.54908">
        <ele>373</ele>
        <time>2026-05-10T07:44:54.000Z</time>
      </trkpt>
      <trkpt lat="45.85129" lon="3.54909">
        <ele>373</ele>
        <time>2026-05-10T07:44:55.000Z</time>
      </trkpt>
      <trkpt lat="45.85129" lon="3.54911">
        <ele>373.1</ele>
        <time>2026-05-10T07:44:56.000Z</time>
      </trkpt>
      <trkpt lat="45.85128" lon="3.54912">
        <ele>373.1</ele>
        <time>2026-05-10T07:44:57.000Z</time>
      </trkpt>
      <trkpt lat="45.85128" lon="3.54914">
        <ele>373.2</ele>
        <time>2026-05-10T07:44:58.000Z</time>
      </trkpt>
      <trkpt lat="45.85128" lon="3.54915">
        <ele>373.2</ele>
        <time>2026-05-10T07:44:59.000Z</time>
      </trkpt>
      <trkpt lat="45.85128" lon="3.54916">
        <ele>373.3</ele>
        <time>2026-05-10T07:45:00.000Z</time>
      </trkpt>
      <trkpt lat="45.85127" lon="3.54917">
        <ele>373.3</ele>
        <time>2026-05-10T07:45:01.000Z</time>
      </trkpt>
      <trkpt lat="45.85127" lon="3.54919">
        <ele>373.3</ele>
        <time>2026-05-10T07:45:02.000Z</time>
      </trkpt>
      <trkpt lat="45.85127" lon="3.54921">
        <ele>373.2</ele>
        <time>2026-05-10T07:45:03.000Z</time>
      </trkpt>
      <trkpt lat="45.85128" lon="3.54923">
        <ele>373.2</ele>
        <time>2026-05-10T07:45:04.000Z</time>
      </trkpt>
      <trkpt lat="45.85128" lon="3.54924">
        <ele>373.3</ele>
        <time>2026-05-10T07:45:05.000Z</time>
      </trkpt>
      <trkpt lat="45.85129" lon="3.54925">
        <ele>373.3</ele>
        <time>2026-05-10T07:45:06.000Z</time>
      </trkpt>
      <trkpt lat="45.8513" lon="3.54926">
        <ele>373.3</ele>
        <time>2026-05-10T07:45:07.000Z</time>
      </trkpt>
      <trkpt lat="45.8513" lon="3.54928">
        <ele>373.3</ele>
        <time>2026-05-10T07:45:08.000Z</time>
      </trkpt>
      <trkpt lat="45.85131" lon="3.5493">
        <ele>373.3</ele>
        <time>2026-05-10T07:45:09.000Z</time>
      </trkpt>
      <trkpt lat="45.8513" lon="3.54932">
        <ele>373.1</ele>
        <time>2026-05-10T07:45:10.000Z</time>
      </trkpt>
      <trkpt lat="45.8513" lon="3.54933">
        <ele>373.1</ele>
        <time>2026-05-10T07:45:11.000Z</time>
      </trkpt>
      <trkpt lat="45.85129" lon="3.54934">
        <ele>373</ele>
        <time>2026-05-10T07:45:12.000Z</time>
      </trkpt>
      <trkpt lat="45.85129" lon="3.54935">
        <ele>372.9</ele>
        <time>2026-05-10T07:45:13.000Z</time>
      </trkpt>
      <trkpt lat="45.85129" lon="3.54937">
        <ele>372.9</ele>
        <time>2026-05-10T07:45:14.000Z</time>
      </trkpt>
      <trkpt lat="45.85128" lon="3.54938">
        <ele>372.8</ele>
        <time>2026-05-10T07:45:15.000Z</time>
      </trkpt>
      <trkpt lat="45.85128" lon="3.54939">
        <ele>372.8</ele>
        <time>2026-05-10T07:45:16.000Z</time>
      </trkpt>
      <trkpt lat="45.85128" lon="3.54941">
        <ele>372.7</ele>
        <time>2026-05-10T07:45:17.000Z</time>
      </trkpt>
      <trkpt lat="45.85128" lon="3.54943">
        <ele>372.7</ele>
        <time>2026-05-10T07:45:18.000Z</time>
      </trkpt>
      <trkpt lat="45.85128" lon="3.54945">
        <ele>372.5</ele>
        <time>2026-05-10T07:45:19.000Z</time>
      </trkpt>
      <trkpt lat="45.85128" lon="3.54946">
        <ele>372.3</ele>
        <time>2026-05-10T07:45:20.000Z</time>
      </trkpt>
      <trkpt lat="45.85128" lon="3.54948">
        <ele>372.1</ele>
        <time>2026-05-10T07:45:21.000Z</time>
      </trkpt>
      <trkpt lat="45.85127" lon="3.54949">
        <ele>371.9</ele>
        <time>2026-05-10T07:45:22.000Z</time>
      </trkpt>
      <trkpt lat="45.85127" lon="3.54951">
        <ele>371.7</ele>
        <time>2026-05-10T07:45:23.000Z</time>
      </trkpt>
      <trkpt lat="45.85127" lon="3.54953">
        <ele>371.4</ele>
        <time>2026-05-10T07:45:24.000Z</time>
      </trkpt>
      <trkpt lat="45.85126" lon="3.54955">
        <ele>371.2</ele>
        <time>2026-05-10T07:45:25.000Z</time>
      </trkpt>
      <trkpt lat="45.85126" lon="3.54957">
        <ele>370.9</ele>
        <time>2026-05-10T07:45:26.000Z</time>
      </trkpt>
      <trkpt lat="45.85125" lon="3.54959">
        <ele>370.7</ele>
        <time>2026-05-10T07:45:27.000Z</time>
      </trkpt>
      <trkpt lat="45.85125" lon="3.5496">
        <ele>370.5</ele>
        <time>2026-05-10T07:45:28.000Z</time>
      </trkpt>
      <trkpt lat="45.85125" lon="3.54962">
        <ele>370.3</ele>
        <time>2026-05-10T07:45:29.000Z</time>
      </trkpt>
      <trkpt lat="45.85125" lon="3.54963">
        <ele>370.2</ele>
        <time>2026-05-10T07:45:30.000Z</time>
      </trkpt>
      <trkpt lat="45.85124" lon="3.54964">
        <ele>370.1</ele>
        <time>2026-05-10T07:45:31.000Z</time>
      </trkpt>
      <trkpt lat="45.85124" lon="3.54966">
        <ele>369.9</ele>
        <time>2026-05-10T07:45:32.000Z</time>
      </trkpt>
      <trkpt lat="45.85123" lon="3.54968">
        <ele>369.8</ele>
        <time>2026-05-10T07:45:33.000Z</time>
      </trkpt>
      <trkpt lat="45.85123" lon="3.54969">
        <ele>369.6</ele>
        <time>2026-05-10T07:45:34.000Z</time>
      </trkpt>
      <trkpt lat="45.85123" lon="3.5497">
        <ele>369.6</ele>
        <time>2026-05-10T07:45:35.000Z</time>
      </trkpt>
      <trkpt lat="45.85122" lon="3.54971">
        <ele>369.5</ele>
        <time>2026-05-10T07:45:36.000Z</time>
      </trkpt>
      <trkpt lat="45.85122" lon="3.54972">
        <ele>369.5</ele>
        <time>2026-05-10T07:45:37.000Z</time>
      </trkpt>
      <trkpt lat="45.85122" lon="3.54973">
        <ele>369.4</ele>
        <time>2026-05-10T07:45:38.000Z</time>
      </trkpt>
      <trkpt lat="45.85121" lon="3.54974">
        <ele>369.3</ele>
        <time>2026-05-10T07:45:39.000Z</time>
      </trkpt>
      <trkpt lat="45.85121" lon="3.54975">
        <ele>369.2</ele>
        <time>2026-05-10T07:45:40.000Z</time>
      </trkpt>
      <trkpt lat="45.8512" lon="3.54976">
        <ele>369.1</ele>
        <time>2026-05-10T07:45:41.000Z</time>
      </trkpt>
      <trkpt lat="45.8512" lon="3.54977">
        <ele>369</ele>
        <time>2026-05-10T07:45:42.000Z</time>
      </trkpt>
      <trkpt lat="45.85119" lon="3.54978">
        <ele>368.9</ele>
        <time>2026-05-10T07:45:43.000Z</time>
      </trkpt>
      <trkpt lat="45.85119" lon="3.54979">
        <ele>368.8</ele>
        <time>2026-05-10T07:45:44.000Z</time>
      </trkpt>
      <trkpt lat="45.85118" lon="3.54981">
        <ele>368.8</ele>
        <time>2026-05-10T07:45:45.000Z</time>
      </trkpt>
      <trkpt lat="45.85117" lon="3.54982">
        <ele>368.8</ele>
        <time>2026-05-10T07:45:46.000Z</time>
      </trkpt>
      <trkpt lat="45.85116" lon="3.54983">
        <ele>368.9</ele>
        <time>2026-05-10T07:45:47.000Z</time>
      </trkpt>
      <trkpt lat="45.85115" lon="3.54984">
        <ele>369</ele>
        <time>2026-05-10T07:45:48.000Z</time>
      </trkpt>
      <trkpt lat="45.85114" lon="3.54986">
        <ele>369</ele>
        <time>2026-05-10T07:45:49.000Z</time>
      </trkpt>
      <trkpt lat="45.85113" lon="3.54987">
        <ele>369</ele>
        <time>2026-05-10T07:45:50.000Z</time>
      </trkpt>
      <trkpt lat="45.85112" lon="3.54988">
        <ele>369.1</ele>
        <time>2026-05-10T07:45:51.000Z</time>
      </trkpt>
      <trkpt lat="45.85112" lon="3.54989">
        <ele>369.1</ele>
        <time>2026-05-10T07:45:52.000Z</time>
      </trkpt>
      <trkpt lat="45.85111" lon="3.5499">
        <ele>369.1</ele>
        <time>2026-05-10T07:45:53.000Z</time>
      </trkpt>
      <trkpt lat="45.85111" lon="3.54991">
        <ele>368.8</ele>
        <time>2026-05-10T07:45:54.000Z</time>
      </trkpt>
      <trkpt lat="45.8511" lon="3.54991">
        <ele>368.5</ele>
        <time>2026-05-10T07:45:55.000Z</time>
      </trkpt>
      <trkpt lat="45.85109" lon="3.54992">
        <ele>368.2</ele>
        <time>2026-05-10T07:45:56.000Z</time>
      </trkpt>
      <trkpt lat="45.85109" lon="3.54993">
        <ele>367.9</ele>
        <time>2026-05-10T07:45:57.000Z</time>
      </trkpt>
      <trkpt lat="45.85109" lon="3.54994">
        <ele>367.6</ele>
        <time>2026-05-10T07:45:58.000Z</time>
      </trkpt>
      <trkpt lat="45.85108" lon="3.54995">
        <ele>367.4</ele>
        <time>2026-05-10T07:45:59.000Z</time>
      </trkpt>
      <trkpt lat="45.85108" lon="3.54996">
        <ele>367</ele>
        <time>2026-05-10T07:46:00.000Z</time>
      </trkpt>
      <trkpt lat="45.85107" lon="3.54998">
        <ele>366.7</ele>
        <time>2026-05-10T07:46:01.000Z</time>
      </trkpt>
      <trkpt lat="45.85107" lon="3.54999">
        <ele>366.5</ele>
        <time>2026-05-10T07:46:02.000Z</time>
      </trkpt>
      <trkpt lat="45.85107" lon="3.55">
        <ele>366.3</ele>
        <time>2026-05-10T07:46:03.000Z</time>
      </trkpt>
      <trkpt lat="45.85107" lon="3.55002">
        <ele>366</ele>
        <time>2026-05-10T07:46:04.000Z</time>
      </trkpt>
      <trkpt lat="45.85107" lon="3.55003">
        <ele>365.7</ele>
        <time>2026-05-10T07:46:05.000Z</time>
      </trkpt>
      <trkpt lat="45.85106" lon="3.55004">
        <ele>365.3</ele>
        <time>2026-05-10T07:46:06.000Z</time>
      </trkpt>
      <trkpt lat="45.85106" lon="3.55005">
        <ele>365</ele>
        <time>2026-05-10T07:46:07.000Z</time>
      </trkpt>
      <trkpt lat="45.85106" lon="3.55007">
        <ele>364.8</ele>
        <time>2026-05-10T07:46:08.000Z</time>
      </trkpt>
      <trkpt lat="45.85105" lon="3.55008">
        <ele>364.4</ele>
        <time>2026-05-10T07:46:09.000Z</time>
      </trkpt>
      <trkpt lat="45.85105" lon="3.55009">
        <ele>364.2</ele>
        <time>2026-05-10T07:46:10.000Z</time>
      </trkpt>
      <trkpt lat="45.85105" lon="3.55011">
        <ele>364</ele>
        <time>2026-05-10T07:46:11.000Z</time>
      </trkpt>
      <trkpt lat="45.85105" lon="3.55012">
        <ele>363.8</ele>
        <time>2026-05-10T07:46:12.000Z</time>
      </trkpt>
      <trkpt lat="45.85104" lon="3.55014">
        <ele>363.5</ele>
        <time>2026-05-10T07:46:13.000Z</time>
      </trkpt>
      <trkpt lat="45.85104" lon="3.55016">
        <ele>363.1</ele>
        <time>2026-05-10T07:46:14.000Z</time>
      </trkpt>
      <trkpt lat="45.85104" lon="3.55019">
        <ele>362.7</ele>
        <time>2026-05-10T07:46:15.000Z</time>
      </trkpt>
      <trkpt lat="45.85104" lon="3.5502">
        <ele>362.5</ele>
        <time>2026-05-10T07:46:16.000Z</time>
      </trkpt>
      <trkpt lat="45.85103" lon="3.55022">
        <ele>362.2</ele>
        <time>2026-05-10T07:46:17.000Z</time>
      </trkpt>
      <trkpt lat="45.85103" lon="3.55023">
        <ele>361.9</ele>
        <time>2026-05-10T07:46:18.000Z</time>
      </trkpt>
      <trkpt lat="45.85102" lon="3.55025">
        <ele>361.4</ele>
        <time>2026-05-10T07:46:19.000Z</time>
      </trkpt>
      <trkpt lat="45.85102" lon="3.55026">
        <ele>361.1</ele>
        <time>2026-05-10T07:46:20.000Z</time>
      </trkpt>
      <trkpt lat="45.85101" lon="3.55028">
        <ele>360.7</ele>
        <time>2026-05-10T07:46:21.000Z</time>
      </trkpt>
      <trkpt lat="45.851" lon="3.5503">
        <ele>360.4</ele>
        <time>2026-05-10T07:46:22.000Z</time>
      </trkpt>
      <trkpt lat="45.85099" lon="3.55032">
        <ele>360</ele>
        <time>2026-05-10T07:46:23.000Z</time>
      </trkpt>
      <trkpt lat="45.85099" lon="3.55034">
        <ele>359.8</ele>
        <time>2026-05-10T07:46:24.000Z</time>
      </trkpt>
      <trkpt lat="45.85099" lon="3.55035">
        <ele>359.5</ele>
        <time>2026-05-10T07:46:25.000Z</time>
      </trkpt>
      <trkpt lat="45.85098" lon="3.55037">
        <ele>359.1</ele>
        <time>2026-05-10T07:46:26.000Z</time>
      </trkpt>
      <trkpt lat="45.85097" lon="3.55038">
        <ele>358.8</ele>
        <time>2026-05-10T07:46:27.000Z</time>
      </trkpt>
      <trkpt lat="45.85096" lon="3.5504">
        <ele>358.5</ele>
        <time>2026-05-10T07:46:28.000Z</time>
      </trkpt>
      <trkpt lat="45.85095" lon="3.55041">
        <ele>358.1</ele>
        <time>2026-05-10T07:46:29.000Z</time>
      </trkpt>
      <trkpt lat="45.85095" lon="3.55043">
        <ele>357.8</ele>
        <time>2026-05-10T07:46:30.000Z</time>
      </trkpt>
      <trkpt lat="45.85094" lon="3.55044">
        <ele>357.5</ele>
        <time>2026-05-10T07:46:31.000Z</time>
      </trkpt>
      <trkpt lat="45.85093" lon="3.55046">
        <ele>357.2</ele>
        <time>2026-05-10T07:46:32.000Z</time>
      </trkpt>
      <trkpt lat="45.85093" lon="3.55047">
        <ele>356.9</ele>
        <time>2026-05-10T07:46:33.000Z</time>
      </trkpt>
      <trkpt lat="45.85093" lon="3.55049">
        <ele>356.7</ele>
        <time>2026-05-10T07:46:34.000Z</time>
      </trkpt>
      <trkpt lat="45.85092" lon="3.5505">
        <ele>356.6</ele>
        <time>2026-05-10T07:46:35.000Z</time>
      </trkpt>
      <trkpt lat="45.85092" lon="3.55051">
        <ele>356.5</ele>
        <time>2026-05-10T07:46:36.000Z</time>
      </trkpt>
      <trkpt lat="45.85092" lon="3.55052">
        <ele>356.5</ele>
        <time>2026-05-10T07:46:37.000Z</time>
      </trkpt>
      <trkpt lat="45.85093" lon="3.55053">
        <ele>356.5</ele>
        <time>2026-05-10T07:46:38.000Z</time>
      </trkpt>
      <trkpt lat="45.85093" lon="3.55054">
        <ele>356.6</ele>
        <time>2026-05-10T07:46:39.000Z</time>
      </trkpt>
      <trkpt lat="45.85094" lon="3.55056">
        <ele>356.6</ele>
        <time>2026-05-10T07:46:40.000Z</time>
      </trkpt>
      <trkpt lat="45.85094" lon="3.55057">
        <ele>356.4</ele>
        <time>2026-05-10T07:46:41.000Z</time>
      </trkpt>
      <trkpt lat="45.85095" lon="3.55057">
        <ele>356.5</ele>
        <time>2026-05-10T07:46:42.000Z</time>
      </trkpt>
      <trkpt lat="45.85095" lon="3.55058">
        <ele>356.5</ele>
        <time>2026-05-10T07:46:43.000Z</time>
      </trkpt>
      <trkpt lat="45.85096" lon="3.55059">
        <ele>356.6</ele>
        <time>2026-05-10T07:46:44.000Z</time>
      </trkpt>
      <trkpt lat="45.85097" lon="3.55059">
        <ele>356.5</ele>
        <time>2026-05-10T07:46:45.000Z</time>
      </trkpt>
      <trkpt lat="45.85098" lon="3.5506">
        <ele>356.4</ele>
        <time>2026-05-10T07:46:46.000Z</time>
      </trkpt>
      <trkpt lat="45.85098" lon="3.55061">
        <ele>356.3</ele>
        <time>2026-05-10T07:46:47.000Z</time>
      </trkpt>
      <trkpt lat="45.85099" lon="3.55062">
        <ele>356.2</ele>
        <time>2026-05-10T07:46:48.000Z</time>
      </trkpt>
      <trkpt lat="45.85099" lon="3.55062">
        <ele>356.1</ele>
        <time>2026-05-10T07:46:49.000Z</time>
      </trkpt>
      <trkpt lat="45.851" lon="3.55063">
        <ele>356.2</ele>
        <time>2026-05-10T07:46:50.000Z</time>
      </trkpt>
      <trkpt lat="45.85101" lon="3.55064">
        <ele>356.1</ele>
        <time>2026-05-10T07:46:51.000Z</time>
      </trkpt>
      <trkpt lat="45.85102" lon="3.55065">
        <ele>356</ele>
        <time>2026-05-10T07:46:52.000Z</time>
      </trkpt>
      <trkpt lat="45.85102" lon="3.55066">
        <ele>355.9</ele>
        <time>2026-05-10T07:46:53.000Z</time>
      </trkpt>
      <trkpt lat="45.85103" lon="3.55066">
        <ele>355.9</ele>
        <time>2026-05-10T07:46:54.000Z</time>
      </trkpt>
      <trkpt lat="45.85104" lon="3.55067">
        <ele>355.7</ele>
        <time>2026-05-10T07:46:55.000Z</time>
      </trkpt>
      <trkpt lat="45.85105" lon="3.55068">
        <ele>355.6</ele>
        <time>2026-05-10T07:46:56.000Z</time>
      </trkpt>
      <trkpt lat="45.85106" lon="3.5507">
        <ele>355.3</ele>
        <time>2026-05-10T07:46:57.000Z</time>
      </trkpt>
      <trkpt lat="45.85106" lon="3.55071">
        <ele>355</ele>
        <time>2026-05-10T07:46:58.000Z</time>
      </trkpt>
      <trkpt lat="45.85107" lon="3.55072">
        <ele>354.8</ele>
        <time>2026-05-10T07:46:59.000Z</time>
      </trkpt>
      <trkpt lat="45.85107" lon="3.55073">
        <ele>354.7</ele>
        <time>2026-05-10T07:47:00.000Z</time>
      </trkpt>
      <trkpt lat="45.85108" lon="3.55074">
        <ele>354.4</ele>
        <time>2026-05-10T07:47:01.000Z</time>
      </trkpt>
      <trkpt lat="45.85109" lon="3.55075">
        <ele>354.2</ele>
        <time>2026-05-10T07:47:02.000Z</time>
      </trkpt>
      <trkpt lat="45.8511" lon="3.55075">
        <ele>354.2</ele>
        <time>2026-05-10T07:47:03.000Z</time>
      </trkpt>
      <trkpt lat="45.85111" lon="3.55076">
        <ele>354</ele>
        <time>2026-05-10T07:47:04.000Z</time>
      </trkpt>
      <trkpt lat="45.85112" lon="3.55078">
        <ele>353</ele>
        <time>2026-05-10T07:47:05.000Z</time>
      </trkpt>
      <trkpt lat="45.85113" lon="3.55079">
        <ele>352.3</ele>
        <time>2026-05-10T07:47:06.000Z</time>
      </trkpt>
      <trkpt lat="45.85114" lon="3.5508">
        <ele>351.6</ele>
        <time>2026-05-10T07:47:07.000Z</time>
      </trkpt>
      <trkpt lat="45.85115" lon="3.55081">
        <ele>350.9</ele>
        <time>2026-05-10T07:47:08.000Z</time>
      </trkpt>
      <trkpt lat="45.85116" lon="3.55082">
        <ele>350.2</ele>
        <time>2026-05-10T07:47:09.000Z</time>
      </trkpt>
      <trkpt lat="45.85117" lon="3.55082">
        <ele>349.9</ele>
        <time>2026-05-10T07:47:10.000Z</time>
      </trkpt>
      <trkpt lat="45.85118" lon="3.55082">
        <ele>349.5</ele>
        <time>2026-05-10T07:47:11.000Z</time>
      </trkpt>
      <trkpt lat="45.85119" lon="3.55082">
        <ele>349.1</ele>
        <time>2026-05-10T07:47:12.000Z</time>
      </trkpt>
      <trkpt lat="45.85119" lon="3.55083">
        <ele>348.7</ele>
        <time>2026-05-10T07:47:13.000Z</time>
      </trkpt>
      <trkpt lat="45.8512" lon="3.55084">
        <ele>348.4</ele>
        <time>2026-05-10T07:47:14.000Z</time>
      </trkpt>
      <trkpt lat="45.8512" lon="3.55085">
        <ele>348.2</ele>
        <time>2026-05-10T07:47:15.000Z</time>
      </trkpt>
      <trkpt lat="45.8512" lon="3.55086">
        <ele>348.1</ele>
        <time>2026-05-10T07:47:16.000Z</time>
      </trkpt>
      <trkpt lat="45.8512" lon="3.55087">
        <ele>347.9</ele>
        <time>2026-05-10T07:47:17.000Z</time>
      </trkpt>
      <trkpt lat="45.8512" lon="3.55089">
        <ele>347.6</ele>
        <time>2026-05-10T07:47:18.000Z</time>
      </trkpt>
      <trkpt lat="45.85119" lon="3.5509">
        <ele>347.5</ele>
        <time>2026-05-10T07:47:19.000Z</time>
      </trkpt>
      <trkpt lat="45.85119" lon="3.55092">
        <ele>347.3</ele>
        <time>2026-05-10T07:47:20.000Z</time>
      </trkpt>
      <trkpt lat="45.85119" lon="3.55093">
        <ele>347.2</ele>
        <time>2026-05-10T07:47:21.000Z</time>
      </trkpt>
      <trkpt lat="45.85119" lon="3.55094">
        <ele>347.1</ele>
        <time>2026-05-10T07:47:22.000Z</time>
      </trkpt>
      <trkpt lat="45.85118" lon="3.55095">
        <ele>346.9</ele>
        <time>2026-05-10T07:47:23.000Z</time>
      </trkpt>
      <trkpt lat="45.85118" lon="3.55097">
        <ele>346.7</ele>
        <time>2026-05-10T07:47:24.000Z</time>
      </trkpt>
      <trkpt lat="45.85118" lon="3.55098">
        <ele>346.4</ele>
        <time>2026-05-10T07:47:25.000Z</time>
      </trkpt>
      <trkpt lat="45.85118" lon="3.551">
        <ele>346.2</ele>
        <time>2026-05-10T07:47:26.000Z</time>
      </trkpt>
      <trkpt lat="45.85118" lon="3.55101">
        <ele>346</ele>
        <time>2026-05-10T07:47:27.000Z</time>
      </trkpt>
      <trkpt lat="45.85118" lon="3.55102">
        <ele>345.8</ele>
        <time>2026-05-10T07:47:28.000Z</time>
      </trkpt>
      <trkpt lat="45.85118" lon="3.55103">
        <ele>345.7</ele>
        <time>2026-05-10T07:47:29.000Z</time>
      </trkpt>
      <trkpt lat="45.85118" lon="3.55104">
        <ele>345.5</ele>
        <time>2026-05-10T07:47:30.000Z</time>
      </trkpt>
      <trkpt lat="45.85119" lon="3.55104">
        <ele>345.4</ele>
        <time>2026-05-10T07:47:31.000Z</time>
      </trkpt>
      <trkpt lat="45.85119" lon="3.55104">
        <ele>345.4</ele>
        <time>2026-05-10T07:47:32.000Z</time>
      </trkpt>
      <trkpt lat="45.8512" lon="3.55104">
        <ele>345.3</ele>
        <time>2026-05-10T07:47:33.000Z</time>
      </trkpt>
      <trkpt lat="45.8512" lon="3.55103">
        <ele>345.2</ele>
        <time>2026-05-10T07:47:34.000Z</time>
      </trkpt>
      <trkpt lat="45.85121" lon="3.55103">
        <ele>345.2</ele>
        <time>2026-05-10T07:47:35.000Z</time>
      </trkpt>
      <trkpt lat="45.85122" lon="3.55102">
        <ele>345.1</ele>
        <time>2026-05-10T07:47:36.000Z</time>
      </trkpt>
      <trkpt lat="45.85124" lon="3.55101">
        <ele>345</ele>
        <time>2026-05-10T07:47:37.000Z</time>
      </trkpt>
      <trkpt lat="45.85125" lon="3.551">
        <ele>344.9</ele>
        <time>2026-05-10T07:47:38.000Z</time>
      </trkpt>
      <trkpt lat="45.85126" lon="3.55099">
        <ele>344.8</ele>
        <time>2026-05-10T07:47:39.000Z</time>
      </trkpt>
      <trkpt lat="45.85127" lon="3.55099">
        <ele>344.7</ele>
        <time>2026-05-10T07:47:40.000Z</time>
      </trkpt>
      <trkpt lat="45.85128" lon="3.55098">
        <ele>344.6</ele>
        <time>2026-05-10T07:47:41.000Z</time>
      </trkpt>
      <trkpt lat="45.85129" lon="3.55097">
        <ele>344.5</ele>
        <time>2026-05-10T07:47:42.000Z</time>
      </trkpt>
      <trkpt lat="45.85129" lon="3.55097">
        <ele>344.5</ele>
        <time>2026-05-10T07:47:43.000Z</time>
      </trkpt>
      <trkpt lat="45.8513" lon="3.55096">
        <ele>344.4</ele>
        <time>2026-05-10T07:47:44.000Z</time>
      </trkpt>
      <trkpt lat="45.85131" lon="3.55095">
        <ele>344.3</ele>
        <time>2026-05-10T07:47:45.000Z</time>
      </trkpt>
      <trkpt lat="45.85132" lon="3.55093">
        <ele>344.2</ele>
        <time>2026-05-10T07:47:46.000Z</time>
      </trkpt>
      <trkpt lat="45.85133" lon="3.55092">
        <ele>344.1</ele>
        <time>2026-05-10T07:47:47.000Z</time>
      </trkpt>
      <trkpt lat="45.85134" lon="3.55091">
        <ele>344</ele>
        <time>2026-05-10T07:47:48.000Z</time>
      </trkpt>
      <trkpt lat="45.85135" lon="3.55089">
        <ele>343.8</ele>
        <time>2026-05-10T07:47:49.000Z</time>
      </trkpt>
      <trkpt lat="45.85136" lon="3.55088">
        <ele>343.7</ele>
        <time>2026-05-10T07:47:50.000Z</time>
      </trkpt>
      <trkpt lat="45.85136" lon="3.55086">
        <ele>343.6</ele>
        <time>2026-05-10T07:47:51.000Z</time>
      </trkpt>
      <trkpt lat="45.85137" lon="3.55085">
        <ele>343.4</ele>
        <time>2026-05-10T07:47:52.000Z</time>
      </trkpt>
      <trkpt lat="45.85138" lon="3.55084">
        <ele>343.3</ele>
        <time>2026-05-10T07:47:53.000Z</time>
      </trkpt>
      <trkpt lat="45.85138" lon="3.55082">
        <ele>343.2</ele>
        <time>2026-05-10T07:47:54.000Z</time>
      </trkpt>
      <trkpt lat="45.85139" lon="3.5508">
        <ele>343</ele>
        <time>2026-05-10T07:47:55.000Z</time>
      </trkpt>
      <trkpt lat="45.8514" lon="3.55078">
        <ele>343.1</ele>
        <time>2026-05-10T07:47:56.000Z</time>
      </trkpt>
      <trkpt lat="45.8514" lon="3.55077">
        <ele>343.1</ele>
        <time>2026-05-10T07:47:57.000Z</time>
      </trkpt>
      <trkpt lat="45.8514" lon="3.55075">
        <ele>343.1</ele>
        <time>2026-05-10T07:47:58.000Z</time>
      </trkpt>
      <trkpt lat="45.8514" lon="3.55072">
        <ele>343.1</ele>
        <time>2026-05-10T07:47:59.000Z</time>
      </trkpt>
      <trkpt lat="45.8514" lon="3.5507">
        <ele>343</ele>
        <time>2026-05-10T07:48:00.000Z</time>
      </trkpt>
      <trkpt lat="45.85139" lon="3.55068">
        <ele>343</ele>
        <time>2026-05-10T07:48:01.000Z</time>
      </trkpt>
      <trkpt lat="45.85139" lon="3.55066">
        <ele>343</ele>
        <time>2026-05-10T07:48:02.000Z</time>
      </trkpt>
      <trkpt lat="45.85139" lon="3.55065">
        <ele>343</ele>
        <time>2026-05-10T07:48:03.000Z</time>
      </trkpt>
      <trkpt lat="45.85139" lon="3.55064">
        <ele>343</ele>
        <time>2026-05-10T07:48:04.000Z</time>
      </trkpt>
      <trkpt lat="45.85139" lon="3.55063">
        <ele>343</ele>
        <time>2026-05-10T07:48:05.000Z</time>
      </trkpt>
      <trkpt lat="45.85139" lon="3.55062">
        <ele>343</ele>
        <time>2026-05-10T07:48:06.000Z</time>
      </trkpt>
      <trkpt lat="45.85139" lon="3.55061">
        <ele>343</ele>
        <time>2026-05-10T07:48:07.000Z</time>
      </trkpt>
      <trkpt lat="45.85139" lon="3.5506">
        <ele>343</ele>
        <time>2026-05-10T07:48:08.000Z</time>
      </trkpt>
      <trkpt lat="45.8514" lon="3.5506">
        <ele>343.1</ele>
        <time>2026-05-10T07:48:09.000Z</time>
      </trkpt>
      <trkpt lat="45.85139" lon="3.55059">
        <ele>343</ele>
        <time>2026-05-10T07:48:10.000Z</time>
      </trkpt>
      <trkpt lat="45.85139" lon="3.55058">
        <ele>343</ele>
        <time>2026-05-10T07:48:11.000Z</time>
      </trkpt>
      <trkpt lat="45.85139" lon="3.55057">
        <ele>343</ele>
        <time>2026-05-10T07:48:12.000Z</time>
      </trkpt>
      <trkpt lat="45.85139" lon="3.55056">
        <ele>343</ele>
        <time>2026-05-10T07:48:13.000Z</time>
      </trkpt>
      <trkpt lat="45.85139" lon="3.55056">
        <ele>343.1</ele>
        <time>2026-05-10T07:48:14.000Z</time>
      </trkpt>
      <trkpt lat="45.85139" lon="3.55055">
        <ele>343.3</ele>
        <time>2026-05-10T07:48:15.000Z</time>
      </trkpt>
      <trkpt lat="45.85139" lon="3.55054">
        <ele>343.4</ele>
        <time>2026-05-10T07:48:16.000Z</time>
      </trkpt>
      <trkpt lat="45.85139" lon="3.55053">
        <ele>343.6</ele>
        <time>2026-05-10T07:48:17.000Z</time>
      </trkpt>
      <trkpt lat="45.85139" lon="3.55052">
        <ele>343.7</ele>
        <time>2026-05-10T07:48:18.000Z</time>
      </trkpt>
      <trkpt lat="45.85139" lon="3.5505">
        <ele>344</ele>
        <time>2026-05-10T07:48:19.000Z</time>
      </trkpt>
      <trkpt lat="45.85139" lon="3.55048">
        <ele>344</ele>
        <time>2026-05-10T07:48:20.000Z</time>
      </trkpt>
      <trkpt lat="45.8514" lon="3.55047">
        <ele>344.3</ele>
        <time>2026-05-10T07:48:21.000Z</time>
      </trkpt>
      <trkpt lat="45.8514" lon="3.55045">
        <ele>344.5</ele>
        <time>2026-05-10T07:48:22.000Z</time>
      </trkpt>
      <trkpt lat="45.8514" lon="3.55043">
        <ele>344.8</ele>
        <time>2026-05-10T07:48:23.000Z</time>
      </trkpt>
      <trkpt lat="45.8514" lon="3.55041">
        <ele>345</ele>
        <time>2026-05-10T07:48:24.000Z</time>
      </trkpt>
      <trkpt lat="45.8514" lon="3.55039">
        <ele>345.2</ele>
        <time>2026-05-10T07:48:25.000Z</time>
      </trkpt>
      <trkpt lat="45.85141" lon="3.55037">
        <ele>345.5</ele>
        <time>2026-05-10T07:48:26.000Z</time>
      </trkpt>
      <trkpt lat="45.85142" lon="3.55035">
        <ele>345.7</ele>
        <time>2026-05-10T07:48:27.000Z</time>
      </trkpt>
      <trkpt lat="45.85142" lon="3.55033">
        <ele>345.8</ele>
        <time>2026-05-10T07:48:28.000Z</time>
      </trkpt>
      <trkpt lat="45.85143" lon="3.55032">
        <ele>345.9</ele>
        <time>2026-05-10T07:48:29.000Z</time>
      </trkpt>
      <trkpt lat="45.85143" lon="3.5503">
        <ele>345.9</ele>
        <time>2026-05-10T07:48:30.000Z</time>
      </trkpt>
      <trkpt lat="45.85145" lon="3.55029">
        <ele>345.9</ele>
        <time>2026-05-10T07:48:31.000Z</time>
      </trkpt>
      <trkpt lat="45.85145" lon="3.55027">
        <ele>346.1</ele>
        <time>2026-05-10T07:48:32.000Z</time>
      </trkpt>
      <trkpt lat="45.85146" lon="3.55026">
        <ele>346.4</ele>
        <time>2026-05-10T07:48:33.000Z</time>
      </trkpt>
      <trkpt lat="45.85147" lon="3.55025">
        <ele>346.8</ele>
        <time>2026-05-10T07:48:34.000Z</time>
      </trkpt>
      <trkpt lat="45.85148" lon="3.55023">
        <ele>347.1</ele>
        <time>2026-05-10T07:48:35.000Z</time>
      </trkpt>
      <trkpt lat="45.85148" lon="3.55022">
        <ele>347.4</ele>
        <time>2026-05-10T07:48:36.000Z</time>
      </trkpt>
      <trkpt lat="45.85149" lon="3.5502">
        <ele>347.7</ele>
        <time>2026-05-10T07:48:37.000Z</time>
      </trkpt>
      <trkpt lat="45.8515" lon="3.55019">
        <ele>347.9</ele>
        <time>2026-05-10T07:48:38.000Z</time>
      </trkpt>
      <trkpt lat="45.8515" lon="3.55018">
        <ele>348.2</ele>
        <time>2026-05-10T07:48:39.000Z</time>
      </trkpt>
      <trkpt lat="45.85151" lon="3.55017">
        <ele>348.4</ele>
        <time>2026-05-10T07:48:40.000Z</time>
      </trkpt>
      <trkpt lat="45.85151" lon="3.55016">
        <ele>348.5</ele>
        <time>2026-05-10T07:48:41.000Z</time>
      </trkpt>
      <trkpt lat="45.85152" lon="3.55015">
        <ele>348.7</ele>
        <time>2026-05-10T07:48:42.000Z</time>
      </trkpt>
      <trkpt lat="45.85153" lon="3.55014">
        <ele>348.8</ele>
        <time>2026-05-10T07:48:43.000Z</time>
      </trkpt>
      <trkpt lat="45.85153" lon="3.55013">
        <ele>348.9</ele>
        <time>2026-05-10T07:48:44.000Z</time>
      </trkpt>
      <trkpt lat="45.85154" lon="3.55012">
        <ele>348.9</ele>
        <time>2026-05-10T07:48:45.000Z</time>
      </trkpt>
      <trkpt lat="45.85155" lon="3.55011">
        <ele>348.9</ele>
        <time>2026-05-10T07:48:46.000Z</time>
      </trkpt>
      <trkpt lat="45.85156" lon="3.5501">
        <ele>348.9</ele>
        <time>2026-05-10T07:48:47.000Z</time>
      </trkpt>
      <trkpt lat="45.85156" lon="3.55009">
        <ele>349.1</ele>
        <time>2026-05-10T07:48:48.000Z</time>
      </trkpt>
      <trkpt lat="45.85156" lon="3.55008">
        <ele>349.2</ele>
        <time>2026-05-10T07:48:49.000Z</time>
      </trkpt>
      <trkpt lat="45.85156" lon="3.55007">
        <ele>349.3</ele>
        <time>2026-05-10T07:48:50.000Z</time>
      </trkpt>
      <trkpt lat="45.85157" lon="3.55006">
        <ele>349.5</ele>
        <time>2026-05-10T07:48:51.000Z</time>
      </trkpt>
      <trkpt lat="45.85157" lon="3.55005">
        <ele>349.5</ele>
        <time>2026-05-10T07:48:52.000Z</time>
      </trkpt>
      <trkpt lat="45.85158" lon="3.55004">
        <ele>349.5</ele>
        <time>2026-05-10T07:48:53.000Z</time>
      </trkpt>
      <trkpt lat="45.85158" lon="3.55003">
        <ele>349.4</ele>
        <time>2026-05-10T07:48:54.000Z</time>
      </trkpt>
      <trkpt lat="45.85159" lon="3.55002">
        <ele>349.3</ele>
        <time>2026-05-10T07:48:55.000Z</time>
      </trkpt>
      <trkpt lat="45.8516" lon="3.55001">
        <ele>349.1</ele>
        <time>2026-05-10T07:48:56.000Z</time>
      </trkpt>
      <trkpt lat="45.85161" lon="3.55">
        <ele>348.8</ele>
        <time>2026-05-10T07:48:57.000Z</time>
      </trkpt>
      <trkpt lat="45.85162" lon="3.54999">
        <ele>348.7</ele>
        <time>2026-05-10T07:48:58.000Z</time>
      </trkpt>
      <trkpt lat="45.85163" lon="3.54998">
        <ele>348.5</ele>
        <time>2026-05-10T07:48:59.000Z</time>
      </trkpt>
      <trkpt lat="45.85163" lon="3.54998">
        <ele>348.4</ele>
        <time>2026-05-10T07:49:00.000Z</time>
      </trkpt>
      <trkpt lat="45.85164" lon="3.54997">
        <ele>348.3</ele>
        <time>2026-05-10T07:49:01.000Z</time>
      </trkpt>
      <trkpt lat="45.85164" lon="3.54996">
        <ele>348.2</ele>
        <time>2026-05-10T07:49:02.000Z</time>
      </trkpt>
      <trkpt lat="45.85165" lon="3.54996">
        <ele>348.1</ele>
        <time>2026-05-10T07:49:03.000Z</time>
      </trkpt>
      <trkpt lat="45.85166" lon="3.54995">
        <ele>348</ele>
        <time>2026-05-10T07:49:04.000Z</time>
      </trkpt>
      <trkpt lat="45.85166" lon="3.54995">
        <ele>347.8</ele>
        <time>2026-05-10T07:49:05.000Z</time>
      </trkpt>
      <trkpt lat="45.85167" lon="3.54994">
        <ele>347.7</ele>
        <time>2026-05-10T07:49:06.000Z</time>
      </trkpt>
      <trkpt lat="45.85168" lon="3.54993">
        <ele>347.8</ele>
        <time>2026-05-10T07:49:07.000Z</time>
      </trkpt>
      <trkpt lat="45.85168" lon="3.54993">
        <ele>347.9</ele>
        <time>2026-05-10T07:49:08.000Z</time>
      </trkpt>
      <trkpt lat="45.85169" lon="3.54992">
        <ele>348</ele>
        <time>2026-05-10T07:49:09.000Z</time>
      </trkpt>
      <trkpt lat="45.85169" lon="3.54992">
        <ele>348.1</ele>
        <time>2026-05-10T07:49:10.000Z</time>
      </trkpt>
      <trkpt lat="45.8517" lon="3.54991">
        <ele>348.2</ele>
        <time>2026-05-10T07:49:11.000Z</time>
      </trkpt>
      <trkpt lat="45.85171" lon="3.5499">
        <ele>348.4</ele>
        <time>2026-05-10T07:49:12.000Z</time>
      </trkpt>
      <trkpt lat="45.85171" lon="3.5499">
        <ele>348.5</ele>
        <time>2026-05-10T07:49:13.000Z</time>
      </trkpt>
      <trkpt lat="45.85172" lon="3.54989">
        <ele>348.7</ele>
        <time>2026-05-10T07:49:14.000Z</time>
      </trkpt>
      <trkpt lat="45.85173" lon="3.54988">
        <ele>348.7</ele>
        <time>2026-05-10T07:49:15.000Z</time>
      </trkpt>
      <trkpt lat="45.85174" lon="3.54988">
        <ele>348.8</ele>
        <time>2026-05-10T07:49:16.000Z</time>
      </trkpt>
      <trkpt lat="45.85174" lon="3.54988">
        <ele>348.7</ele>
        <time>2026-05-10T07:49:17.000Z</time>
      </trkpt>
      <trkpt lat="45.85175" lon="3.54987">
        <ele>348.7</ele>
        <time>2026-05-10T07:49:18.000Z</time>
      </trkpt>
      <trkpt lat="45.85177" lon="3.54987">
        <ele>348.7</ele>
        <time>2026-05-10T07:49:19.000Z</time>
      </trkpt>
      <trkpt lat="45.85178" lon="3.54987">
        <ele>348.7</ele>
        <time>2026-05-10T07:49:20.000Z</time>
      </trkpt>
      <trkpt lat="45.85179" lon="3.54987">
        <ele>348.5</ele>
        <time>2026-05-10T07:49:21.000Z</time>
      </trkpt>
      <trkpt lat="45.8518" lon="3.54987">
        <ele>348.4</ele>
        <time>2026-05-10T07:49:22.000Z</time>
      </trkpt>
      <trkpt lat="45.85181" lon="3.54987">
        <ele>348.2</ele>
        <time>2026-05-10T07:49:23.000Z</time>
      </trkpt>
      <trkpt lat="45.85182" lon="3.54987">
        <ele>348.1</ele>
        <time>2026-05-10T07:49:24.000Z</time>
      </trkpt>
      <trkpt lat="45.85184" lon="3.54986">
        <ele>348.1</ele>
        <time>2026-05-10T07:49:25.000Z</time>
      </trkpt>
      <trkpt lat="45.85185" lon="3.54986">
        <ele>347.9</ele>
        <time>2026-05-10T07:49:26.000Z</time>
      </trkpt>
      <trkpt lat="45.85186" lon="3.54986">
        <ele>347.9</ele>
        <time>2026-05-10T07:49:27.000Z</time>
      </trkpt>
      <trkpt lat="45.85187" lon="3.54986">
        <ele>347.8</ele>
        <time>2026-05-10T07:49:28.000Z</time>
      </trkpt>
      <trkpt lat="45.85188" lon="3.54986">
        <ele>347.6</ele>
        <time>2026-05-10T07:49:29.000Z</time>
      </trkpt>
      <trkpt lat="45.85189" lon="3.54986">
        <ele>347.5</ele>
        <time>2026-05-10T07:49:30.000Z</time>
      </trkpt>
      <trkpt lat="45.85191" lon="3.54987">
        <ele>347.3</ele>
        <time>2026-05-10T07:49:31.000Z</time>
      </trkpt>
      <trkpt lat="45.85192" lon="3.54987">
        <ele>347.1</ele>
        <time>2026-05-10T07:49:32.000Z</time>
      </trkpt>
      <trkpt lat="45.85194" lon="3.54987">
        <ele>346.8</ele>
        <time>2026-05-10T07:49:33.000Z</time>
      </trkpt>
      <trkpt lat="45.85196" lon="3.54987">
        <ele>346.9</ele>
        <time>2026-05-10T07:49:34.000Z</time>
      </trkpt>
      <trkpt lat="45.85197" lon="3.54987">
        <ele>347.2</ele>
        <time>2026-05-10T07:49:35.000Z</time>
      </trkpt>
      <trkpt lat="45.85198" lon="3.54987">
        <ele>347.2</ele>
        <time>2026-05-10T07:49:36.000Z</time>
      </trkpt>
      <trkpt lat="45.852" lon="3.54988">
        <ele>347.3</ele>
        <time>2026-05-10T07:49:37.000Z</time>
      </trkpt>
      <trkpt lat="45.85201" lon="3.54988">
        <ele>347.3</ele>
        <time>2026-05-10T07:49:38.000Z</time>
      </trkpt>
      <trkpt lat="45.85202" lon="3.54989">
        <ele>347.4</ele>
        <time>2026-05-10T07:49:39.000Z</time>
      </trkpt>
      <trkpt lat="45.85204" lon="3.54989">
        <ele>347.5</ele>
        <time>2026-05-10T07:49:40.000Z</time>
      </trkpt>
      <trkpt lat="45.85205" lon="3.5499">
        <ele>347.5</ele>
        <time>2026-05-10T07:49:41.000Z</time>
      </trkpt>
      <trkpt lat="45.85206" lon="3.5499">
        <ele>347.5</ele>
        <time>2026-05-10T07:49:42.000Z</time>
      </trkpt>
      <trkpt lat="45.85207" lon="3.54991">
        <ele>347.6</ele>
        <time>2026-05-10T07:49:43.000Z</time>
      </trkpt>
      <trkpt lat="45.85208" lon="3.54991">
        <ele>347.6</ele>
        <time>2026-05-10T07:49:44.000Z</time>
      </trkpt>
      <trkpt lat="45.85209" lon="3.54991">
        <ele>347.6</ele>
        <time>2026-05-10T07:49:45.000Z</time>
      </trkpt>
      <trkpt lat="45.8521" lon="3.54991">
        <ele>347.7</ele>
        <time>2026-05-10T07:49:46.000Z</time>
      </trkpt>
      <trkpt lat="45.85211" lon="3.54992">
        <ele>347.8</ele>
        <time>2026-05-10T07:49:47.000Z</time>
      </trkpt>
      <trkpt lat="45.85212" lon="3.54992">
        <ele>347.8</ele>
        <time>2026-05-10T07:49:48.000Z</time>
      </trkpt>
      <trkpt lat="45.85214" lon="3.54993">
        <ele>347.8</ele>
        <time>2026-05-10T07:49:49.000Z</time>
      </trkpt>
      <trkpt lat="45.85215" lon="3.54993">
        <ele>347.8</ele>
        <time>2026-05-10T07:49:50.000Z</time>
      </trkpt>
      <trkpt lat="45.85216" lon="3.54993">
        <ele>347.8</ele>
        <time>2026-05-10T07:49:51.000Z</time>
      </trkpt>
      <trkpt lat="45.85217" lon="3.54994">
        <ele>347.7</ele>
        <time>2026-05-10T07:49:52.000Z</time>
      </trkpt>
      <trkpt lat="45.85218" lon="3.54995">
        <ele>347.5</ele>
        <time>2026-05-10T07:49:53.000Z</time>
      </trkpt>
      <trkpt lat="45.85219" lon="3.54996">
        <ele>347.4</ele>
        <time>2026-05-10T07:49:54.000Z</time>
      </trkpt>
      <trkpt lat="45.85221" lon="3.54996">
        <ele>347.6</ele>
        <time>2026-05-10T07:49:55.000Z</time>
      </trkpt>
      <trkpt lat="45.85222" lon="3.54996">
        <ele>347.7</ele>
        <time>2026-05-10T07:49:56.000Z</time>
      </trkpt>
      <trkpt lat="45.85224" lon="3.54996">
        <ele>347.6</ele>
        <time>2026-05-10T07:49:57.000Z</time>
      </trkpt>
      <trkpt lat="45.85225" lon="3.54997">
        <ele>347.5</ele>
        <time>2026-05-10T07:49:58.000Z</time>
      </trkpt>
      <trkpt lat="45.85226" lon="3.54997">
        <ele>347.6</ele>
        <time>2026-05-10T07:49:59.000Z</time>
      </trkpt>
      <trkpt lat="45.85227" lon="3.54997">
        <ele>347.5</ele>
        <time>2026-05-10T07:50:00.000Z</time>
      </trkpt>
      <trkpt lat="45.85229" lon="3.54999">
        <ele>347</ele>
        <time>2026-05-10T07:50:01.000Z</time>
      </trkpt>
      <trkpt lat="45.8523" lon="3.54999">
        <ele>347</ele>
        <time>2026-05-10T07:50:02.000Z</time>
      </trkpt>
      <trkpt lat="45.85231" lon="3.55">
        <ele>346.8</ele>
        <time>2026-05-10T07:50:03.000Z</time>
      </trkpt>
      <trkpt lat="45.85232" lon="3.55">
        <ele>346.7</ele>
        <time>2026-05-10T07:50:04.000Z</time>
      </trkpt>
      <trkpt lat="45.85233" lon="3.55">
        <ele>346.7</ele>
        <time>2026-05-10T07:50:05.000Z</time>
      </trkpt>
      <trkpt lat="45.85234" lon="3.55001">
        <ele>346.8</ele>
        <time>2026-05-10T07:50:06.000Z</time>
      </trkpt>
      <trkpt lat="45.85235" lon="3.55002">
        <ele>346.9</ele>
        <time>2026-05-10T07:50:07.000Z</time>
      </trkpt>
      <trkpt lat="45.85236" lon="3.55002">
        <ele>347</ele>
        <time>2026-05-10T07:50:08.000Z</time>
      </trkpt>
      <trkpt lat="45.85237" lon="3.55003">
        <ele>347</ele>
        <time>2026-05-10T07:50:09.000Z</time>
      </trkpt>
      <trkpt lat="45.85238" lon="3.55003">
        <ele>347</ele>
        <time>2026-05-10T07:50:10.000Z</time>
      </trkpt>
      <trkpt lat="45.85239" lon="3.55004">
        <ele>347.1</ele>
        <time>2026-05-10T07:50:11.000Z</time>
      </trkpt>
      <trkpt lat="45.8524" lon="3.55004">
        <ele>347.1</ele>
        <time>2026-05-10T07:50:12.000Z</time>
      </trkpt>
      <trkpt lat="45.85241" lon="3.55004">
        <ele>347.2</ele>
        <time>2026-05-10T07:50:13.000Z</time>
      </trkpt>
      <trkpt lat="45.85242" lon="3.55005">
        <ele>347.2</ele>
        <time>2026-05-10T07:50:14.000Z</time>
      </trkpt>
      <trkpt lat="45.85243" lon="3.55005">
        <ele>347.3</ele>
        <time>2026-05-10T07:50:15.000Z</time>
      </trkpt>
      <trkpt lat="45.85245" lon="3.55006">
        <ele>347.3</ele>
        <time>2026-05-10T07:50:16.000Z</time>
      </trkpt>
      <trkpt lat="45.85246" lon="3.55007">
        <ele>347.4</ele>
        <time>2026-05-10T07:50:17.000Z</time>
      </trkpt>
      <trkpt lat="45.85248" lon="3.55007">
        <ele>347.4</ele>
        <time>2026-05-10T07:50:18.000Z</time>
      </trkpt>
      <trkpt lat="45.85249" lon="3.55008">
        <ele>347.4</ele>
        <time>2026-05-10T07:50:19.000Z</time>
      </trkpt>
      <trkpt lat="45.8525" lon="3.55009">
        <ele>347.4</ele>
        <time>2026-05-10T07:50:20.000Z</time>
      </trkpt>
      <trkpt lat="45.85251" lon="3.55009">
        <ele>347.5</ele>
        <time>2026-05-10T07:50:21.000Z</time>
      </trkpt>
      <trkpt lat="45.85252" lon="3.5501">
        <ele>347.5</ele>
        <time>2026-05-10T07:50:22.000Z</time>
      </trkpt>
      <trkpt lat="45.85254" lon="3.5501">
        <ele>347.6</ele>
        <time>2026-05-10T07:50:23.000Z</time>
      </trkpt>
      <trkpt lat="45.85255" lon="3.5501">
        <ele>347.7</ele>
        <time>2026-05-10T07:50:24.000Z</time>
      </trkpt>
      <trkpt lat="45.85256" lon="3.55011">
        <ele>347.7</ele>
        <time>2026-05-10T07:50:25.000Z</time>
      </trkpt>
      <trkpt lat="45.85257" lon="3.55011">
        <ele>347.8</ele>
        <time>2026-05-10T07:50:26.000Z</time>
      </trkpt>
      <trkpt lat="45.85259" lon="3.55011">
        <ele>347.9</ele>
        <time>2026-05-10T07:50:27.000Z</time>
      </trkpt>
      <trkpt lat="45.8526" lon="3.55012">
        <ele>348</ele>
        <time>2026-05-10T07:50:28.000Z</time>
      </trkpt>
      <trkpt lat="45.85262" lon="3.55012">
        <ele>348</ele>
        <time>2026-05-10T07:50:29.000Z</time>
      </trkpt>
      <trkpt lat="45.85263" lon="3.55012">
        <ele>348.2</ele>
        <time>2026-05-10T07:50:30.000Z</time>
      </trkpt>
      <trkpt lat="45.85265" lon="3.55012">
        <ele>348.3</ele>
        <time>2026-05-10T07:50:31.000Z</time>
      </trkpt>
      <trkpt lat="45.85266" lon="3.55012">
        <ele>348.3</ele>
        <time>2026-05-10T07:50:32.000Z</time>
      </trkpt>
      <trkpt lat="45.85268" lon="3.55012">
        <ele>348.4</ele>
        <time>2026-05-10T07:50:33.000Z</time>
      </trkpt>
      <trkpt lat="45.85269" lon="3.55013">
        <ele>348.4</ele>
        <time>2026-05-10T07:50:34.000Z</time>
      </trkpt>
      <trkpt lat="45.85271" lon="3.55013">
        <ele>348.4</ele>
        <time>2026-05-10T07:50:35.000Z</time>
      </trkpt>
      <trkpt lat="45.85272" lon="3.55013">
        <ele>348.5</ele>
        <time>2026-05-10T07:50:36.000Z</time>
      </trkpt>
      <trkpt lat="45.85273" lon="3.55013">
        <ele>348.5</ele>
        <time>2026-05-10T07:50:37.000Z</time>
      </trkpt>
      <trkpt lat="45.85274" lon="3.55013">
        <ele>348.6</ele>
        <time>2026-05-10T07:50:38.000Z</time>
      </trkpt>
      <trkpt lat="45.85275" lon="3.55013">
        <ele>348.7</ele>
        <time>2026-05-10T07:50:39.000Z</time>
      </trkpt>
      <trkpt lat="45.85276" lon="3.55013">
        <ele>348.7</ele>
        <time>2026-05-10T07:50:40.000Z</time>
      </trkpt>
      <trkpt lat="45.85276" lon="3.55013">
        <ele>348.7</ele>
        <time>2026-05-10T07:50:41.000Z</time>
      </trkpt>
      <trkpt lat="45.85277" lon="3.55013">
        <ele>348.8</ele>
        <time>2026-05-10T07:50:42.000Z</time>
      </trkpt>
      <trkpt lat="45.85278" lon="3.55013">
        <ele>348.9</ele>
        <time>2026-05-10T07:50:43.000Z</time>
      </trkpt>
      <trkpt lat="45.85279" lon="3.55013">
        <ele>348.9</ele>
        <time>2026-05-10T07:50:44.000Z</time>
      </trkpt>
      <trkpt lat="45.8528" lon="3.55013">
        <ele>349</ele>
        <time>2026-05-10T07:50:45.000Z</time>
      </trkpt>
      <trkpt lat="45.85281" lon="3.55013">
        <ele>349.1</ele>
        <time>2026-05-10T07:50:46.000Z</time>
      </trkpt>
      <trkpt lat="45.85282" lon="3.55013">
        <ele>349.3</ele>
        <time>2026-05-10T07:50:47.000Z</time>
      </trkpt>
      <trkpt lat="45.85284" lon="3.55012">
        <ele>349.4</ele>
        <time>2026-05-10T07:50:48.000Z</time>
      </trkpt>
      <trkpt lat="45.85285" lon="3.55012">
        <ele>349.5</ele>
        <time>2026-05-10T07:50:49.000Z</time>
      </trkpt>
      <trkpt lat="45.85286" lon="3.55013">
        <ele>349.4</ele>
        <time>2026-05-10T07:50:50.000Z</time>
      </trkpt>
      <trkpt lat="45.85287" lon="3.55013">
        <ele>349.5</ele>
        <time>2026-05-10T07:50:51.000Z</time>
      </trkpt>
      <trkpt lat="45.85289" lon="3.55013">
        <ele>349.5</ele>
        <time>2026-05-10T07:50:52.000Z</time>
      </trkpt>
      <trkpt lat="45.8529" lon="3.55013">
        <ele>349.5</ele>
        <time>2026-05-10T07:50:53.000Z</time>
      </trkpt>
      <trkpt lat="45.85291" lon="3.55014">
        <ele>349.5</ele>
        <time>2026-05-10T07:50:54.000Z</time>
      </trkpt>
      <trkpt lat="45.85293" lon="3.55014">
        <ele>349.5</ele>
        <time>2026-05-10T07:50:55.000Z</time>
      </trkpt>
      <trkpt lat="45.85294" lon="3.55014">
        <ele>349.6</ele>
        <time>2026-05-10T07:50:56.000Z</time>
      </trkpt>
      <trkpt lat="45.85295" lon="3.55014">
        <ele>349.6</ele>
        <time>2026-05-10T07:50:57.000Z</time>
      </trkpt>
      <trkpt lat="45.85297" lon="3.55015">
        <ele>349.6</ele>
        <time>2026-05-10T07:50:58.000Z</time>
      </trkpt>
      <trkpt lat="45.85298" lon="3.55015">
        <ele>349.7</ele>
        <time>2026-05-10T07:50:59.000Z</time>
      </trkpt>
      <trkpt lat="45.85299" lon="3.55015">
        <ele>349.8</ele>
        <time>2026-05-10T07:51:00.000Z</time>
      </trkpt>
      <trkpt lat="45.85301" lon="3.55015">
        <ele>349.9</ele>
        <time>2026-05-10T07:51:01.000Z</time>
      </trkpt>
      <trkpt lat="45.85302" lon="3.55015">
        <ele>350.1</ele>
        <time>2026-05-10T07:51:02.000Z</time>
      </trkpt>
      <trkpt lat="45.85303" lon="3.55015">
        <ele>350.1</ele>
        <time>2026-05-10T07:51:03.000Z</time>
      </trkpt>
      <trkpt lat="45.85305" lon="3.55015">
        <ele>350.2</ele>
        <time>2026-05-10T07:51:04.000Z</time>
      </trkpt>
      <trkpt lat="45.85306" lon="3.55015">
        <ele>350.3</ele>
        <time>2026-05-10T07:51:05.000Z</time>
      </trkpt>
      <trkpt lat="45.85307" lon="3.55015">
        <ele>350.3</ele>
        <time>2026-05-10T07:51:06.000Z</time>
      </trkpt>
      <trkpt lat="45.85308" lon="3.55015">
        <ele>350.3</ele>
        <time>2026-05-10T07:51:07.000Z</time>
      </trkpt>
      <trkpt lat="45.8531" lon="3.55014">
        <ele>350.4</ele>
        <time>2026-05-10T07:51:08.000Z</time>
      </trkpt>
      <trkpt lat="45.8531" lon="3.55015">
        <ele>350.4</ele>
        <time>2026-05-10T07:51:09.000Z</time>
      </trkpt>
      <trkpt lat="45.85312" lon="3.55015">
        <ele>350.5</ele>
        <time>2026-05-10T07:51:10.000Z</time>
      </trkpt>
      <trkpt lat="45.85313" lon="3.55015">
        <ele>350.5</ele>
        <time>2026-05-10T07:51:11.000Z</time>
      </trkpt>
      <trkpt lat="45.85315" lon="3.55015">
        <ele>350.4</ele>
        <time>2026-05-10T07:51:12.000Z</time>
      </trkpt>
      <trkpt lat="45.85316" lon="3.55014">
        <ele>350.6</ele>
        <time>2026-05-10T07:51:13.000Z</time>
      </trkpt>
      <trkpt lat="45.85317" lon="3.55014">
        <ele>350.6</ele>
        <time>2026-05-10T07:51:14.000Z</time>
      </trkpt>
      <trkpt lat="45.85319" lon="3.55014">
        <ele>350.7</ele>
        <time>2026-05-10T07:51:15.000Z</time>
      </trkpt>
      <trkpt lat="45.85319" lon="3.55014">
        <ele>350.7</ele>
        <time>2026-05-10T07:51:16.000Z</time>
      </trkpt>
      <trkpt lat="45.85321" lon="3.55014">
        <ele>350.7</ele>
        <time>2026-05-10T07:51:17.000Z</time>
      </trkpt>
      <trkpt lat="45.85322" lon="3.55014">
        <ele>350.8</ele>
        <time>2026-05-10T07:51:18.000Z</time>
      </trkpt>
      <trkpt lat="45.85323" lon="3.55013">
        <ele>350.9</ele>
        <time>2026-05-10T07:51:19.000Z</time>
      </trkpt>
      <trkpt lat="45.85324" lon="3.55014">
        <ele>350.9</ele>
        <time>2026-05-10T07:51:20.000Z</time>
      </trkpt>
      <trkpt lat="45.85325" lon="3.55014">
        <ele>350.9</ele>
        <time>2026-05-10T07:51:21.000Z</time>
      </trkpt>
      <trkpt lat="45.85326" lon="3.55014">
        <ele>350.9</ele>
        <time>2026-05-10T07:51:22.000Z</time>
      </trkpt>
      <trkpt lat="45.85327" lon="3.55014">
        <ele>350.9</ele>
        <time>2026-05-10T07:51:23.000Z</time>
      </trkpt>
      <trkpt lat="45.85328" lon="3.55014">
        <ele>350.9</ele>
        <time>2026-05-10T07:51:24.000Z</time>
      </trkpt>
      <trkpt lat="45.85329" lon="3.55014">
        <ele>350.9</ele>
        <time>2026-05-10T07:51:25.000Z</time>
      </trkpt>
      <trkpt lat="45.8533" lon="3.55014">
        <ele>351</ele>
        <time>2026-05-10T07:51:26.000Z</time>
      </trkpt>
      <trkpt lat="45.85331" lon="3.55014">
        <ele>350.9</ele>
        <time>2026-05-10T07:51:27.000Z</time>
      </trkpt>
      <trkpt lat="45.85332" lon="3.55014">
        <ele>350.9</ele>
        <time>2026-05-10T07:51:28.000Z</time>
      </trkpt>
      <trkpt lat="45.85334" lon="3.55014">
        <ele>350.9</ele>
        <time>2026-05-10T07:51:29.000Z</time>
      </trkpt>
      <trkpt lat="45.85335" lon="3.55014">
        <ele>351</ele>
        <time>2026-05-10T07:51:30.000Z</time>
      </trkpt>
      <trkpt lat="45.85336" lon="3.55013">
        <ele>351.2</ele>
        <time>2026-05-10T07:51:31.000Z</time>
      </trkpt>
      <trkpt lat="45.85338" lon="3.55013">
        <ele>351.3</ele>
        <time>2026-05-10T07:51:32.000Z</time>
      </trkpt>
      <trkpt lat="45.85339" lon="3.55013">
        <ele>351.3</ele>
        <time>2026-05-10T07:51:33.000Z</time>
      </trkpt>
      <trkpt lat="45.8534" lon="3.55012">
        <ele>351.6</ele>
        <time>2026-05-10T07:51:34.000Z</time>
      </trkpt>
      <trkpt lat="45.85341" lon="3.55011">
        <ele>351.8</ele>
        <time>2026-05-10T07:51:35.000Z</time>
      </trkpt>
      <trkpt lat="45.85342" lon="3.55009">
        <ele>352.2</ele>
        <time>2026-05-10T07:51:36.000Z</time>
      </trkpt>
      <trkpt lat="45.85342" lon="3.55007">
        <ele>352.7</ele>
        <time>2026-05-10T07:51:37.000Z</time>
      </trkpt>
      <trkpt lat="45.85342" lon="3.55006">
        <ele>352.9</ele>
        <time>2026-05-10T07:51:38.000Z</time>
      </trkpt>
      <trkpt lat="45.85342" lon="3.55005">
        <ele>353.2</ele>
        <time>2026-05-10T07:51:39.000Z</time>
      </trkpt>
      <trkpt lat="45.85343" lon="3.55005">
        <ele>353.2</ele>
        <time>2026-05-10T07:51:40.000Z</time>
      </trkpt>
      <trkpt lat="45.85343" lon="3.55003">
        <ele>353.6</ele>
        <time>2026-05-10T07:51:41.000Z</time>
      </trkpt>
      <trkpt lat="45.85343" lon="3.55002">
        <ele>353.9</ele>
        <time>2026-05-10T07:51:42.000Z</time>
      </trkpt>
      <trkpt lat="45.85344" lon="3.55001">
        <ele>354.2</ele>
        <time>2026-05-10T07:51:43.000Z</time>
      </trkpt>
      <trkpt lat="45.85344" lon="3.55">
        <ele>354.4</ele>
        <time>2026-05-10T07:51:44.000Z</time>
      </trkpt>
      <trkpt lat="45.85344" lon="3.54999">
        <ele>354.8</ele>
        <time>2026-05-10T07:51:45.000Z</time>
      </trkpt>
      <trkpt lat="45.85345" lon="3.54998">
        <ele>355.1</ele>
        <time>2026-05-10T07:51:46.000Z</time>
      </trkpt>
      <trkpt lat="45.85345" lon="3.54998">
        <ele>355.4</ele>
        <time>2026-05-10T07:51:47.000Z</time>
      </trkpt>
      <trkpt lat="45.85344" lon="3.54997">
        <ele>355.9</ele>
        <time>2026-05-10T07:51:48.000Z</time>
      </trkpt>
      <trkpt lat="45.85344" lon="3.54996">
        <ele>356.1</ele>
        <time>2026-05-10T07:51:49.000Z</time>
      </trkpt>
      <trkpt lat="45.85344" lon="3.54996">
        <ele>356.3</ele>
        <time>2026-05-10T07:51:50.000Z</time>
      </trkpt>
      <trkpt lat="45.85343" lon="3.54995">
        <ele>356.6</ele>
        <time>2026-05-10T07:51:51.000Z</time>
      </trkpt>
      <trkpt lat="45.85342" lon="3.54994">
        <ele>356.8</ele>
        <time>2026-05-10T07:51:52.000Z</time>
      </trkpt>
      <trkpt lat="45.85341" lon="3.54994">
        <ele>357</ele>
        <time>2026-05-10T07:51:53.000Z</time>
      </trkpt>
      <trkpt lat="45.85341" lon="3.54993">
        <ele>357.2</ele>
        <time>2026-05-10T07:51:54.000Z</time>
      </trkpt>
      <trkpt lat="45.8534" lon="3.54993">
        <ele>357.2</ele>
        <time>2026-05-10T07:51:55.000Z</time>
      </trkpt>
      <trkpt lat="45.8534" lon="3.54993">
        <ele>357.1</ele>
        <time>2026-05-10T07:51:56.000Z</time>
      </trkpt>
      <trkpt lat="45.85339" lon="3.54994">
        <ele>356.9</ele>
        <time>2026-05-10T07:51:57.000Z</time>
      </trkpt>
      <trkpt lat="45.85338" lon="3.54994">
        <ele>356.9</ele>
        <time>2026-05-10T07:51:58.000Z</time>
      </trkpt>
      <trkpt lat="45.85337" lon="3.54994">
        <ele>356.8</ele>
        <time>2026-05-10T07:51:59.000Z</time>
      </trkpt>
      <trkpt lat="45.85336" lon="3.54994">
        <ele>356.8</ele>
        <time>2026-05-10T07:52:00.000Z</time>
      </trkpt>
      <trkpt lat="45.85335" lon="3.54994">
        <ele>356.9</ele>
        <time>2026-05-10T07:52:01.000Z</time>
      </trkpt>
      <trkpt lat="45.85334" lon="3.54993">
        <ele>356.9</ele>
        <time>2026-05-10T07:52:02.000Z</time>
      </trkpt>
      <trkpt lat="45.85334" lon="3.54993">
        <ele>356.9</ele>
        <time>2026-05-10T07:52:03.000Z</time>
      </trkpt>
      <trkpt lat="45.85333" lon="3.54994">
        <ele>356.8</ele>
        <time>2026-05-10T07:52:04.000Z</time>
      </trkpt>
      <trkpt lat="45.85333" lon="3.54994">
        <ele>356.7</ele>
        <time>2026-05-10T07:52:05.000Z</time>
      </trkpt>
      <trkpt lat="45.85332" lon="3.54994">
        <ele>356.7</ele>
        <time>2026-05-10T07:52:06.000Z</time>
      </trkpt>
      <trkpt lat="45.85332" lon="3.54994">
        <ele>356.6</ele>
        <time>2026-05-10T07:52:07.000Z</time>
      </trkpt>
      <trkpt lat="45.85331" lon="3.54994">
        <ele>356.6</ele>
        <time>2026-05-10T07:52:08.000Z</time>
      </trkpt>
      <trkpt lat="45.8533" lon="3.54994">
        <ele>356.6</ele>
        <time>2026-05-10T07:52:09.000Z</time>
      </trkpt>
      <trkpt lat="45.85329" lon="3.54994">
        <ele>356.6</ele>
        <time>2026-05-10T07:52:10.000Z</time>
      </trkpt>
      <trkpt lat="45.85329" lon="3.54994">
        <ele>356.7</ele>
        <time>2026-05-10T07:52:11.000Z</time>
      </trkpt>
      <trkpt lat="45.85328" lon="3.54994">
        <ele>356.8</ele>
        <time>2026-05-10T07:52:12.000Z</time>
      </trkpt>
      <trkpt lat="45.85328" lon="3.54994">
        <ele>356.8</ele>
        <time>2026-05-10T07:52:13.000Z</time>
      </trkpt>
      <trkpt lat="45.85328" lon="3.54994">
        <ele>356.9</ele>
        <time>2026-05-10T07:52:14.000Z</time>
      </trkpt>
      <trkpt lat="45.85328" lon="3.54994">
        <ele>356.8</ele>
        <time>2026-05-10T07:52:15.000Z</time>
      </trkpt>
      <trkpt lat="45.85327" lon="3.54994">
        <ele>356.8</ele>
        <time>2026-05-10T07:52:16.000Z</time>
      </trkpt>
      <trkpt lat="45.85327" lon="3.54994">
        <ele>356.7</ele>
        <time>2026-05-10T07:52:17.000Z</time>
      </trkpt>
      <trkpt lat="45.85326" lon="3.54994">
        <ele>356.7</ele>
        <time>2026-05-10T07:52:18.000Z</time>
      </trkpt>
      <trkpt lat="45.85326" lon="3.54994">
        <ele>356.7</ele>
        <time>2026-05-10T07:52:19.000Z</time>
      </trkpt>
      <trkpt lat="45.85325" lon="3.54994">
        <ele>356.8</ele>
        <time>2026-05-10T07:52:20.000Z</time>
      </trkpt>
      <trkpt lat="45.85325" lon="3.54993">
        <ele>357.2</ele>
        <time>2026-05-10T07:52:21.000Z</time>
      </trkpt>
      <trkpt lat="45.85324" lon="3.54992">
        <ele>357.6</ele>
        <time>2026-05-10T07:52:22.000Z</time>
      </trkpt>
      <trkpt lat="45.85324" lon="3.54991">
        <ele>358.1</ele>
        <time>2026-05-10T07:52:23.000Z</time>
      </trkpt>
      <trkpt lat="45.85324" lon="3.5499">
        <ele>358.7</ele>
        <time>2026-05-10T07:52:24.000Z</time>
      </trkpt>
      <trkpt lat="45.85324" lon="3.54989">
        <ele>359.2</ele>
        <time>2026-05-10T07:52:25.000Z</time>
      </trkpt>
      <trkpt lat="45.85324" lon="3.54987">
        <ele>360</ele>
        <time>2026-05-10T07:52:26.000Z</time>
      </trkpt>
      <trkpt lat="45.85324" lon="3.54986">
        <ele>360.5</ele>
        <time>2026-05-10T07:52:27.000Z</time>
      </trkpt>
      <trkpt lat="45.85325" lon="3.54985">
        <ele>360.9</ele>
        <time>2026-05-10T07:52:28.000Z</time>
      </trkpt>
      <trkpt lat="45.85326" lon="3.54984">
        <ele>361.3</ele>
        <time>2026-05-10T07:52:29.000Z</time>
      </trkpt>
      <trkpt lat="45.85327" lon="3.54984">
        <ele>361.5</ele>
        <time>2026-05-10T07:52:30.000Z</time>
      </trkpt>
      <trkpt lat="45.85328" lon="3.54983">
        <ele>361.7</ele>
        <time>2026-05-10T07:52:31.000Z</time>
      </trkpt>
      <trkpt lat="45.85329" lon="3.54984">
        <ele>361.3</ele>
        <time>2026-05-10T07:52:32.000Z</time>
      </trkpt>
      <trkpt lat="45.8533" lon="3.54983">
        <ele>361.6</ele>
        <time>2026-05-10T07:52:33.000Z</time>
      </trkpt>
      <trkpt lat="45.85332" lon="3.54982">
        <ele>362.1</ele>
        <time>2026-05-10T07:52:34.000Z</time>
      </trkpt>
      <trkpt lat="45.85333" lon="3.54981">
        <ele>362.2</ele>
        <time>2026-05-10T07:52:35.000Z</time>
      </trkpt>
      <trkpt lat="45.85335" lon="3.5498">
        <ele>362.6</ele>
        <time>2026-05-10T07:52:36.000Z</time>
      </trkpt>
      <trkpt lat="45.85336" lon="3.5498">
        <ele>362.8</ele>
        <time>2026-05-10T07:52:37.000Z</time>
      </trkpt>
      <trkpt lat="45.85337" lon="3.5498">
        <ele>362.8</ele>
        <time>2026-05-10T07:52:38.000Z</time>
      </trkpt>
      <trkpt lat="45.85338" lon="3.5498">
        <ele>362.9</ele>
        <time>2026-05-10T07:52:39.000Z</time>
      </trkpt>
      <trkpt lat="45.85339" lon="3.5498">
        <ele>362.9</ele>
        <time>2026-05-10T07:52:40.000Z</time>
      </trkpt>
      <trkpt lat="45.85341" lon="3.5498">
        <ele>363.1</ele>
        <time>2026-05-10T07:52:41.000Z</time>
      </trkpt>
      <trkpt lat="45.85342" lon="3.54979">
        <ele>363.2</ele>
        <time>2026-05-10T07:52:42.000Z</time>
      </trkpt>
      <trkpt lat="45.85343" lon="3.54979">
        <ele>363.6</ele>
        <time>2026-05-10T07:52:43.000Z</time>
      </trkpt>
      <trkpt lat="45.85344" lon="3.54978">
        <ele>363.9</ele>
        <time>2026-05-10T07:52:44.000Z</time>
      </trkpt>
      <trkpt lat="45.85345" lon="3.54978">
        <ele>364.1</ele>
        <time>2026-05-10T07:52:45.000Z</time>
      </trkpt>
      <trkpt lat="45.85346" lon="3.54978">
        <ele>364.2</ele>
        <time>2026-05-10T07:52:46.000Z</time>
      </trkpt>
      <trkpt lat="45.85347" lon="3.54978">
        <ele>364.2</ele>
        <time>2026-05-10T07:52:47.000Z</time>
      </trkpt>
      <trkpt lat="45.85348" lon="3.54977">
        <ele>364.3</ele>
        <time>2026-05-10T07:52:48.000Z</time>
      </trkpt>
      <trkpt lat="45.85349" lon="3.54977">
        <ele>364.4</ele>
        <time>2026-05-10T07:52:49.000Z</time>
      </trkpt>
      <trkpt lat="45.85349" lon="3.54977">
        <ele>364.4</ele>
        <time>2026-05-10T07:52:50.000Z</time>
      </trkpt>
      <trkpt lat="45.8535" lon="3.54978">
        <ele>364.1</ele>
        <time>2026-05-10T07:52:51.000Z</time>
      </trkpt>
      <trkpt lat="45.85351" lon="3.54978">
        <ele>364.3</ele>
        <time>2026-05-10T07:52:52.000Z</time>
      </trkpt>
      <trkpt lat="45.85351" lon="3.54978">
        <ele>364.4</ele>
        <time>2026-05-10T07:52:53.000Z</time>
      </trkpt>
      <trkpt lat="45.85352" lon="3.54977">
        <ele>364.7</ele>
        <time>2026-05-10T07:52:54.000Z</time>
      </trkpt>
      <trkpt lat="45.85353" lon="3.54976">
        <ele>365.1</ele>
        <time>2026-05-10T07:52:55.000Z</time>
      </trkpt>
      <trkpt lat="45.85354" lon="3.54975">
        <ele>365.5</ele>
        <time>2026-05-10T07:52:56.000Z</time>
      </trkpt>
      <trkpt lat="45.85355" lon="3.54974">
        <ele>365.9</ele>
        <time>2026-05-10T07:52:57.000Z</time>
      </trkpt>
      <trkpt lat="45.85355" lon="3.54973">
        <ele>366.3</ele>
        <time>2026-05-10T07:52:58.000Z</time>
      </trkpt>
      <trkpt lat="45.85356" lon="3.54973">
        <ele>366.7</ele>
        <time>2026-05-10T07:52:59.000Z</time>
      </trkpt>
      <trkpt lat="45.85357" lon="3.54971">
        <ele>367.2</ele>
        <time>2026-05-10T07:53:00.000Z</time>
      </trkpt>
      <trkpt lat="45.85358" lon="3.5497">
        <ele>367.8</ele>
        <time>2026-05-10T07:53:01.000Z</time>
      </trkpt>
      <trkpt lat="45.85358" lon="3.54968">
        <ele>368.3</ele>
        <time>2026-05-10T07:53:02.000Z</time>
      </trkpt>
      <trkpt lat="45.85359" lon="3.54967">
        <ele>368.7</ele>
        <time>2026-05-10T07:53:03.000Z</time>
      </trkpt>
      <trkpt lat="45.85359" lon="3.54967">
        <ele>368.9</ele>
        <time>2026-05-10T07:53:04.000Z</time>
      </trkpt>
      <trkpt lat="45.85359" lon="3.54966">
        <ele>369.3</ele>
        <time>2026-05-10T07:53:05.000Z</time>
      </trkpt>
      <trkpt lat="45.8536" lon="3.54964">
        <ele>369.8</ele>
        <time>2026-05-10T07:53:06.000Z</time>
      </trkpt>
      <trkpt lat="45.85361" lon="3.54964">
        <ele>370.1</ele>
        <time>2026-05-10T07:53:07.000Z</time>
      </trkpt>
      <trkpt lat="45.85361" lon="3.54963">
        <ele>370.4</ele>
        <time>2026-05-10T07:53:08.000Z</time>
      </trkpt>
      <trkpt lat="45.85362" lon="3.54962">
        <ele>370.6</ele>
        <time>2026-05-10T07:53:09.000Z</time>
      </trkpt>
      <trkpt lat="45.85362" lon="3.54962">
        <ele>370.9</ele>
        <time>2026-05-10T07:53:10.000Z</time>
      </trkpt>
      <trkpt lat="45.85363" lon="3.54961">
        <ele>371.3</ele>
        <time>2026-05-10T07:53:11.000Z</time>
      </trkpt>
      <trkpt lat="45.85364" lon="3.5496">
        <ele>371.6</ele>
        <time>2026-05-10T07:53:12.000Z</time>
      </trkpt>
      <trkpt lat="45.85365" lon="3.5496">
        <ele>371.7</ele>
        <time>2026-05-10T07:53:13.000Z</time>
      </trkpt>
      <trkpt lat="45.85366" lon="3.54959">
        <ele>371.9</ele>
        <time>2026-05-10T07:53:14.000Z</time>
      </trkpt>
      <trkpt lat="45.85367" lon="3.54959">
        <ele>372.1</ele>
        <time>2026-05-10T07:53:15.000Z</time>
      </trkpt>
      <trkpt lat="45.85368" lon="3.54959">
        <ele>372.2</ele>
        <time>2026-05-10T07:53:16.000Z</time>
      </trkpt>
      <trkpt lat="45.85369" lon="3.54959">
        <ele>372.4</ele>
        <time>2026-05-10T07:53:17.000Z</time>
      </trkpt>
      <trkpt lat="45.85369" lon="3.54958">
        <ele>372.5</ele>
        <time>2026-05-10T07:53:18.000Z</time>
      </trkpt>
      <trkpt lat="45.8537" lon="3.54959">
        <ele>372.2</ele>
        <time>2026-05-10T07:53:19.000Z</time>
      </trkpt>
      <trkpt lat="45.85371" lon="3.54959">
        <ele>372.3</ele>
        <time>2026-05-10T07:53:20.000Z</time>
      </trkpt>
      <trkpt lat="45.85373" lon="3.54958">
        <ele>372.6</ele>
        <time>2026-05-10T07:53:21.000Z</time>
      </trkpt>
      <trkpt lat="45.85374" lon="3.54958">
        <ele>372.8</ele>
        <time>2026-05-10T07:53:22.000Z</time>
      </trkpt>
      <trkpt lat="45.85375" lon="3.54958">
        <ele>372.9</ele>
        <time>2026-05-10T07:53:23.000Z</time>
      </trkpt>
      <trkpt lat="45.85376" lon="3.54958">
        <ele>372.9</ele>
        <time>2026-05-10T07:53:24.000Z</time>
      </trkpt>
      <trkpt lat="45.85377" lon="3.54958">
        <ele>372.9</ele>
        <time>2026-05-10T07:53:25.000Z</time>
      </trkpt>
      <trkpt lat="45.85378" lon="3.54958">
        <ele>373</ele>
        <time>2026-05-10T07:53:26.000Z</time>
      </trkpt>
      <trkpt lat="45.8538" lon="3.54958">
        <ele>373.2</ele>
        <time>2026-05-10T07:53:27.000Z</time>
      </trkpt>
      <trkpt lat="45.85381" lon="3.54958">
        <ele>373.3</ele>
        <time>2026-05-10T07:53:28.000Z</time>
      </trkpt>
      <trkpt lat="45.85381" lon="3.54958">
        <ele>373.2</ele>
        <time>2026-05-10T07:53:29.000Z</time>
      </trkpt>
      <trkpt lat="45.85382" lon="3.54958">
        <ele>373.1</ele>
        <time>2026-05-10T07:53:30.000Z</time>
      </trkpt>
      <trkpt lat="45.85382" lon="3.54959">
        <ele>373</ele>
        <time>2026-05-10T07:53:31.000Z</time>
      </trkpt>
      <trkpt lat="45.85382" lon="3.54958">
        <ele>373.1</ele>
        <time>2026-05-10T07:53:32.000Z</time>
      </trkpt>
      <trkpt lat="45.85383" lon="3.54958">
        <ele>373.5</ele>
        <time>2026-05-10T07:53:33.000Z</time>
      </trkpt>
      <trkpt lat="45.85384" lon="3.54957">
        <ele>373.7</ele>
        <time>2026-05-10T07:53:34.000Z</time>
      </trkpt>
      <trkpt lat="45.85385" lon="3.54957">
        <ele>373.8</ele>
        <time>2026-05-10T07:53:35.000Z</time>
      </trkpt>
      <trkpt lat="45.85386" lon="3.54957">
        <ele>374.1</ele>
        <time>2026-05-10T07:53:36.000Z</time>
      </trkpt>
      <trkpt lat="45.85387" lon="3.54957">
        <ele>374</ele>
        <time>2026-05-10T07:53:37.000Z</time>
      </trkpt>
      <trkpt lat="45.85388" lon="3.54957">
        <ele>374</ele>
        <time>2026-05-10T07:53:38.000Z</time>
      </trkpt>
      <trkpt lat="45.8539" lon="3.54957">
        <ele>374.2</ele>
        <time>2026-05-10T07:53:39.000Z</time>
      </trkpt>
      <trkpt lat="45.85391" lon="3.54957">
        <ele>374.2</ele>
        <time>2026-05-10T07:53:40.000Z</time>
      </trkpt>
      <trkpt lat="45.85391" lon="3.54957">
        <ele>374.3</ele>
        <time>2026-05-10T07:53:41.000Z</time>
      </trkpt>
      <trkpt lat="45.85392" lon="3.54957">
        <ele>374.3</ele>
        <time>2026-05-10T07:53:42.000Z</time>
      </trkpt>
      <trkpt lat="45.85393" lon="3.54956">
        <ele>374.6</ele>
        <time>2026-05-10T07:53:43.000Z</time>
      </trkpt>
      <trkpt lat="45.85393" lon="3.54956">
        <ele>374.7</ele>
        <time>2026-05-10T07:53:44.000Z</time>
      </trkpt>
      <trkpt lat="45.85393" lon="3.54956">
        <ele>374.8</ele>
        <time>2026-05-10T07:53:45.000Z</time>
      </trkpt>
      <trkpt lat="45.85392" lon="3.54955">
        <ele>375.1</ele>
        <time>2026-05-10T07:53:46.000Z</time>
      </trkpt>
      <trkpt lat="45.85392" lon="3.54954">
        <ele>375.6</ele>
        <time>2026-05-10T07:53:47.000Z</time>
      </trkpt>
      <trkpt lat="45.85391" lon="3.54954">
        <ele>375.6</ele>
        <time>2026-05-10T07:53:48.000Z</time>
      </trkpt>
      <trkpt lat="45.85391" lon="3.54953">
        <ele>375.8</ele>
        <time>2026-05-10T07:53:49.000Z</time>
      </trkpt>
      <trkpt lat="45.85391" lon="3.54952">
        <ele>376.2</ele>
        <time>2026-05-10T07:53:50.000Z</time>
      </trkpt>
      <trkpt lat="45.85391" lon="3.54952">
        <ele>376.4</ele>
        <time>2026-05-10T07:53:51.000Z</time>
      </trkpt>
      <trkpt lat="45.8539" lon="3.54951">
        <ele>376.7</ele>
        <time>2026-05-10T07:53:52.000Z</time>
      </trkpt>
      <trkpt lat="45.8539" lon="3.54949">
        <ele>377.2</ele>
        <time>2026-05-10T07:53:53.000Z</time>
      </trkpt>
      <trkpt lat="45.85388" lon="3.54949">
        <ele>377.3</ele>
        <time>2026-05-10T07:53:54.000Z</time>
      </trkpt>
      <trkpt lat="45.85388" lon="3.54949">
        <ele>377.3</ele>
        <time>2026-05-10T07:53:55.000Z</time>
      </trkpt>
      <trkpt lat="45.85388" lon="3.54948">
        <ele>377.4</ele>
        <time>2026-05-10T07:53:56.000Z</time>
      </trkpt>
      <trkpt lat="45.85387" lon="3.54948">
        <ele>377.4</ele>
        <time>2026-05-10T07:53:57.000Z</time>
      </trkpt>
      <trkpt lat="45.85386" lon="3.54947">
        <ele>377.7</ele>
        <time>2026-05-10T07:53:58.000Z</time>
      </trkpt>
      <trkpt lat="45.85385" lon="3.54947">
        <ele>377.9</ele>
        <time>2026-05-10T07:53:59.000Z</time>
      </trkpt>
      <trkpt lat="45.85384" lon="3.54946">
        <ele>378</ele>
        <time>2026-05-10T07:54:00.000Z</time>
      </trkpt>
      <trkpt lat="45.85383" lon="3.54946">
        <ele>378.2</ele>
        <time>2026-05-10T07:54:01.000Z</time>
      </trkpt>
      <trkpt lat="45.85383" lon="3.54945">
        <ele>378.3</ele>
        <time>2026-05-10T07:54:02.000Z</time>
      </trkpt>
      <trkpt lat="45.85382" lon="3.54944">
        <ele>378.5</ele>
        <time>2026-05-10T07:54:03.000Z</time>
      </trkpt>
      <trkpt lat="45.85381" lon="3.54943">
        <ele>378.8</ele>
        <time>2026-05-10T07:54:04.000Z</time>
      </trkpt>
      <trkpt lat="45.8538" lon="3.54942">
        <ele>379.1</ele>
        <time>2026-05-10T07:54:05.000Z</time>
      </trkpt>
      <trkpt lat="45.85379" lon="3.54941">
        <ele>379.4</ele>
        <time>2026-05-10T07:54:06.000Z</time>
      </trkpt>
      <trkpt lat="45.85379" lon="3.5494">
        <ele>379.8</ele>
        <time>2026-05-10T07:54:07.000Z</time>
      </trkpt>
      <trkpt lat="45.85379" lon="3.54939">
        <ele>380.3</ele>
        <time>2026-05-10T07:54:08.000Z</time>
      </trkpt>
      <trkpt lat="45.85379" lon="3.54938">
        <ele>380.7</ele>
        <time>2026-05-10T07:54:09.000Z</time>
      </trkpt>
      <trkpt lat="45.8538" lon="3.54937">
        <ele>381.1</ele>
        <time>2026-05-10T07:54:10.000Z</time>
      </trkpt>
      <trkpt lat="45.8538" lon="3.54936">
        <ele>381.2</ele>
        <time>2026-05-10T07:54:11.000Z</time>
      </trkpt>
      <trkpt lat="45.8538" lon="3.54936">
        <ele>381.4</ele>
        <time>2026-05-10T07:54:12.000Z</time>
      </trkpt>
      <trkpt lat="45.8538" lon="3.54936">
        <ele>381.3</ele>
        <time>2026-05-10T07:54:13.000Z</time>
      </trkpt>
      <trkpt lat="45.8538" lon="3.54936">
        <ele>381.4</ele>
        <time>2026-05-10T07:54:14.000Z</time>
      </trkpt>
      <trkpt lat="45.8538" lon="3.54936">
        <ele>381.4</ele>
        <time>2026-05-10T07:54:15.000Z</time>
      </trkpt>
      <trkpt lat="45.8538" lon="3.54936">
        <ele>381.5</ele>
        <time>2026-05-10T07:54:16.000Z</time>
      </trkpt>
      <trkpt lat="45.85381" lon="3.54936">
        <ele>381.5</ele>
        <time>2026-05-10T07:54:17.000Z</time>
      </trkpt>
      <trkpt lat="45.85381" lon="3.54936">
        <ele>381.5</ele>
        <time>2026-05-10T07:54:18.000Z</time>
      </trkpt>
      <trkpt lat="45.85381" lon="3.54936">
        <ele>381.3</ele>
        <time>2026-05-10T07:54:19.000Z</time>
      </trkpt>
      <trkpt lat="45.85382" lon="3.54936">
        <ele>381.2</ele>
        <time>2026-05-10T07:54:20.000Z</time>
      </trkpt>
      <trkpt lat="45.85382" lon="3.54936">
        <ele>381.3</ele>
        <time>2026-05-10T07:54:21.000Z</time>
      </trkpt>
      <trkpt lat="45.85382" lon="3.54936">
        <ele>381.3</ele>
        <time>2026-05-10T07:54:22.000Z</time>
      </trkpt>
      <trkpt lat="45.85383" lon="3.54936">
        <ele>381.3</ele>
        <time>2026-05-10T07:54:23.000Z</time>
      </trkpt>
      <trkpt lat="45.85383" lon="3.54937">
        <ele>381.2</ele>
        <time>2026-05-10T07:54:24.000Z</time>
      </trkpt>
      <trkpt lat="45.85383" lon="3.54937">
        <ele>381.2</ele>
        <time>2026-05-10T07:54:25.000Z</time>
      </trkpt>
      <trkpt lat="45.85383" lon="3.54937">
        <ele>381.3</ele>
        <time>2026-05-10T07:54:26.000Z</time>
      </trkpt>
      <trkpt lat="45.85383" lon="3.54936">
        <ele>381.3</ele>
        <time>2026-05-10T07:54:27.000Z</time>
      </trkpt>
      <trkpt lat="45.85383" lon="3.54936">
        <ele>381.5</ele>
        <time>2026-05-10T07:54:28.000Z</time>
      </trkpt>
      <trkpt lat="45.85384" lon="3.54936">
        <ele>381.6</ele>
        <time>2026-05-10T07:54:29.000Z</time>
      </trkpt>
      <trkpt lat="45.85383" lon="3.54935">
        <ele>381.8</ele>
        <time>2026-05-10T07:54:30.000Z</time>
      </trkpt>
      <trkpt lat="45.85384" lon="3.54936">
        <ele>381.7</ele>
        <time>2026-05-10T07:54:31.000Z</time>
      </trkpt>
      <trkpt lat="45.85385" lon="3.54936">
        <ele>381.6</ele>
        <time>2026-05-10T07:54:32.000Z</time>
      </trkpt>
      <trkpt lat="45.85386" lon="3.54936">
        <ele>381.5</ele>
        <time>2026-05-10T07:54:33.000Z</time>
      </trkpt>
      <trkpt lat="45.85387" lon="3.54937">
        <ele>381.4</ele>
        <time>2026-05-10T07:54:34.000Z</time>
      </trkpt>
      <trkpt lat="45.85388" lon="3.54937">
        <ele>381.4</ele>
        <time>2026-05-10T07:54:35.000Z</time>
      </trkpt>
      <trkpt lat="45.85389" lon="3.54937">
        <ele>381.5</ele>
        <time>2026-05-10T07:54:36.000Z</time>
      </trkpt>
      <trkpt lat="45.8539" lon="3.54937">
        <ele>381.4</ele>
        <time>2026-05-10T07:54:37.000Z</time>
      </trkpt>
      <trkpt lat="45.85391" lon="3.54937">
        <ele>381.5</ele>
        <time>2026-05-10T07:54:38.000Z</time>
      </trkpt>
      <trkpt lat="45.85391" lon="3.54937">
        <ele>381.6</ele>
        <time>2026-05-10T07:54:39.000Z</time>
      </trkpt>
      <trkpt lat="45.85392" lon="3.54937">
        <ele>381.6</ele>
        <time>2026-05-10T07:54:40.000Z</time>
      </trkpt>
      <trkpt lat="45.85394" lon="3.54937">
        <ele>381.7</ele>
        <time>2026-05-10T07:54:41.000Z</time>
      </trkpt>
      <trkpt lat="45.85395" lon="3.54937">
        <ele>381.8</ele>
        <time>2026-05-10T07:54:42.000Z</time>
      </trkpt>
      <trkpt lat="45.85396" lon="3.54937">
        <ele>382</ele>
        <time>2026-05-10T07:54:43.000Z</time>
      </trkpt>
      <trkpt lat="45.85397" lon="3.54937">
        <ele>382.1</ele>
        <time>2026-05-10T07:54:44.000Z</time>
      </trkpt>
      <trkpt lat="45.85398" lon="3.54937">
        <ele>382.2</ele>
        <time>2026-05-10T07:54:45.000Z</time>
      </trkpt>
      <trkpt lat="45.85399" lon="3.54936">
        <ele>382.4</ele>
        <time>2026-05-10T07:54:46.000Z</time>
      </trkpt>
      <trkpt lat="45.854" lon="3.54937">
        <ele>382.3</ele>
        <time>2026-05-10T07:54:47.000Z</time>
      </trkpt>
      <trkpt lat="45.854" lon="3.54937">
        <ele>382.4</ele>
        <time>2026-05-10T07:54:48.000Z</time>
      </trkpt>
      <trkpt lat="45.85401" lon="3.54937">
        <ele>382.3</ele>
        <time>2026-05-10T07:54:49.000Z</time>
      </trkpt>
      <trkpt lat="45.85402" lon="3.54937">
        <ele>382.3</ele>
        <time>2026-05-10T07:54:50.000Z</time>
      </trkpt>
      <trkpt lat="45.85403" lon="3.54937">
        <ele>382.4</ele>
        <time>2026-05-10T07:54:51.000Z</time>
      </trkpt>
      <trkpt lat="45.85405" lon="3.54937">
        <ele>382.6</ele>
        <time>2026-05-10T07:54:52.000Z</time>
      </trkpt>
      <trkpt lat="45.85406" lon="3.54937">
        <ele>382.8</ele>
        <time>2026-05-10T07:54:53.000Z</time>
      </trkpt>
      <trkpt lat="45.85406" lon="3.54935">
        <ele>383.3</ele>
        <time>2026-05-10T07:54:54.000Z</time>
      </trkpt>
      <trkpt lat="45.85406" lon="3.54934">
        <ele>383.7</ele>
        <time>2026-05-10T07:54:55.000Z</time>
      </trkpt>
      <trkpt lat="45.85406" lon="3.54932">
        <ele>384.1</ele>
        <time>2026-05-10T07:54:56.000Z</time>
      </trkpt>
      <trkpt lat="45.85406" lon="3.54933">
        <ele>384</ele>
        <time>2026-05-10T07:54:57.000Z</time>
      </trkpt>
      <trkpt lat="45.85405" lon="3.54933">
        <ele>384</ele>
        <time>2026-05-10T07:54:58.000Z</time>
      </trkpt>
      <trkpt lat="45.85404" lon="3.54932">
        <ele>384.3</ele>
        <time>2026-05-10T07:54:59.000Z</time>
      </trkpt>
      <trkpt lat="45.85403" lon="3.54931">
        <ele>384.4</ele>
        <time>2026-05-10T07:55:00.000Z</time>
      </trkpt>
      <trkpt lat="45.85402" lon="3.5493">
        <ele>384.5</ele>
        <time>2026-05-10T07:55:01.000Z</time>
      </trkpt>
      <trkpt lat="45.85401" lon="3.5493">
        <ele>384.5</ele>
        <time>2026-05-10T07:55:02.000Z</time>
      </trkpt>
      <trkpt lat="45.854" lon="3.5493">
        <ele>384.4</ele>
        <time>2026-05-10T07:55:03.000Z</time>
      </trkpt>
      <trkpt lat="45.85399" lon="3.5493">
        <ele>384.4</ele>
        <time>2026-05-10T07:55:04.000Z</time>
      </trkpt>
      <trkpt lat="45.85397" lon="3.5493">
        <ele>384.4</ele>
        <time>2026-05-10T07:55:05.000Z</time>
      </trkpt>
      <trkpt lat="45.85396" lon="3.5493">
        <ele>384.4</ele>
        <time>2026-05-10T07:55:06.000Z</time>
      </trkpt>
      <trkpt lat="45.85395" lon="3.5493">
        <ele>384.2</ele>
        <time>2026-05-10T07:55:07.000Z</time>
      </trkpt>
      <trkpt lat="45.85394" lon="3.5493">
        <ele>384</ele>
        <time>2026-05-10T07:55:08.000Z</time>
      </trkpt>
      <trkpt lat="45.85393" lon="3.5493">
        <ele>384</ele>
        <time>2026-05-10T07:55:09.000Z</time>
      </trkpt>
      <trkpt lat="45.85392" lon="3.5493">
        <ele>384</ele>
        <time>2026-05-10T07:55:10.000Z</time>
      </trkpt>
      <trkpt lat="45.85391" lon="3.54929">
        <ele>384.2</ele>
        <time>2026-05-10T07:55:11.000Z</time>
      </trkpt>
      <trkpt lat="45.8539" lon="3.54928">
        <ele>384.4</ele>
        <time>2026-05-10T07:55:12.000Z</time>
      </trkpt>
      <trkpt lat="45.85389" lon="3.54928">
        <ele>384.3</ele>
        <time>2026-05-10T07:55:13.000Z</time>
      </trkpt>
      <trkpt lat="45.85388" lon="3.54928">
        <ele>384.3</ele>
        <time>2026-05-10T07:55:14.000Z</time>
      </trkpt>
      <trkpt lat="45.85387" lon="3.54928">
        <ele>384.3</ele>
        <time>2026-05-10T07:55:15.000Z</time>
      </trkpt>
      <trkpt lat="45.85386" lon="3.54927">
        <ele>384.4</ele>
        <time>2026-05-10T07:55:16.000Z</time>
      </trkpt>
      <trkpt lat="45.85385" lon="3.54927">
        <ele>384.7</ele>
        <time>2026-05-10T07:55:17.000Z</time>
      </trkpt>
      <trkpt lat="45.85384" lon="3.54926">
        <ele>384.9</ele>
        <time>2026-05-10T07:55:18.000Z</time>
      </trkpt>
      <trkpt lat="45.85382" lon="3.54926">
        <ele>385</ele>
        <time>2026-05-10T07:55:19.000Z</time>
      </trkpt>
      <trkpt lat="45.85381" lon="3.54925">
        <ele>385.1</ele>
        <time>2026-05-10T07:55:20.000Z</time>
      </trkpt>
      <trkpt lat="45.8538" lon="3.54925">
        <ele>385</ele>
        <time>2026-05-10T07:55:21.000Z</time>
      </trkpt>
      <trkpt lat="45.85379" lon="3.54925">
        <ele>385.1</ele>
        <time>2026-05-10T07:55:22.000Z</time>
      </trkpt>
      <trkpt lat="45.85378" lon="3.54925">
        <ele>385.2</ele>
        <time>2026-05-10T07:55:23.000Z</time>
      </trkpt>
      <trkpt lat="45.85376" lon="3.54925">
        <ele>385.2</ele>
        <time>2026-05-10T07:55:24.000Z</time>
      </trkpt>
      <trkpt lat="45.85375" lon="3.54924">
        <ele>385.3</ele>
        <time>2026-05-10T07:55:25.000Z</time>
      </trkpt>
      <trkpt lat="45.85374" lon="3.54924">
        <ele>385.3</ele>
        <time>2026-05-10T07:55:26.000Z</time>
      </trkpt>
      <trkpt lat="45.85372" lon="3.54924">
        <ele>385.3</ele>
        <time>2026-05-10T07:55:27.000Z</time>
      </trkpt>
      <trkpt lat="45.85371" lon="3.54924">
        <ele>385.2</ele>
        <time>2026-05-10T07:55:28.000Z</time>
      </trkpt>
      <trkpt lat="45.8537" lon="3.54925">
        <ele>385</ele>
        <time>2026-05-10T07:55:29.000Z</time>
      </trkpt>
      <trkpt lat="45.85369" lon="3.54925">
        <ele>384.8</ele>
        <time>2026-05-10T07:55:30.000Z</time>
      </trkpt>
      <trkpt lat="45.85367" lon="3.54926">
        <ele>384.5</ele>
        <time>2026-05-10T07:55:31.000Z</time>
      </trkpt>
      <trkpt lat="45.85366" lon="3.54926">
        <ele>384.3</ele>
        <time>2026-05-10T07:55:32.000Z</time>
      </trkpt>
      <trkpt lat="45.85364" lon="3.54927">
        <ele>384.1</ele>
        <time>2026-05-10T07:55:33.000Z</time>
      </trkpt>
      <trkpt lat="45.85363" lon="3.54928">
        <ele>383.8</ele>
        <time>2026-05-10T07:55:34.000Z</time>
      </trkpt>
      <trkpt lat="45.85362" lon="3.54928">
        <ele>383.6</ele>
        <time>2026-05-10T07:55:35.000Z</time>
      </trkpt>
      <trkpt lat="45.85361" lon="3.54928">
        <ele>383.5</ele>
        <time>2026-05-10T07:55:36.000Z</time>
      </trkpt>
      <trkpt lat="45.8536" lon="3.54928">
        <ele>383.5</ele>
        <time>2026-05-10T07:55:37.000Z</time>
      </trkpt>
      <trkpt lat="45.85358" lon="3.54929">
        <ele>383.5</ele>
        <time>2026-05-10T07:55:38.000Z</time>
      </trkpt>
      <trkpt lat="45.85357" lon="3.54929">
        <ele>383.5</ele>
        <time>2026-05-10T07:55:39.000Z</time>
      </trkpt>
      <trkpt lat="45.85356" lon="3.54929">
        <ele>383.5</ele>
        <time>2026-05-10T07:55:40.000Z</time>
      </trkpt>
      <trkpt lat="45.85354" lon="3.54929">
        <ele>383.5</ele>
        <time>2026-05-10T07:55:41.000Z</time>
      </trkpt>
      <trkpt lat="45.85353" lon="3.5493">
        <ele>383.5</ele>
        <time>2026-05-10T07:55:42.000Z</time>
      </trkpt>
      <trkpt lat="45.85352" lon="3.5493">
        <ele>383.3</ele>
        <time>2026-05-10T07:55:43.000Z</time>
      </trkpt>
      <trkpt lat="45.85351" lon="3.54931">
        <ele>383.2</ele>
        <time>2026-05-10T07:55:44.000Z</time>
      </trkpt>
      <trkpt lat="45.85349" lon="3.54932">
        <ele>383</ele>
        <time>2026-05-10T07:55:45.000Z</time>
      </trkpt>
      <trkpt lat="45.85348" lon="3.54932">
        <ele>382.9</ele>
        <time>2026-05-10T07:55:46.000Z</time>
      </trkpt>
      <trkpt lat="45.85347" lon="3.54932">
        <ele>382.8</ele>
        <time>2026-05-10T07:55:47.000Z</time>
      </trkpt>
      <trkpt lat="45.85346" lon="3.54933">
        <ele>382.7</ele>
        <time>2026-05-10T07:55:48.000Z</time>
      </trkpt>
      <trkpt lat="45.85345" lon="3.54933">
        <ele>382.5</ele>
        <time>2026-05-10T07:55:49.000Z</time>
      </trkpt>
      <trkpt lat="45.85344" lon="3.54934">
        <ele>382.3</ele>
        <time>2026-05-10T07:55:50.000Z</time>
      </trkpt>
      <trkpt lat="45.85343" lon="3.54935">
        <ele>382.2</ele>
        <time>2026-05-10T07:55:51.000Z</time>
      </trkpt>
      <trkpt lat="45.85341" lon="3.54935">
        <ele>382.1</ele>
        <time>2026-05-10T07:55:52.000Z</time>
      </trkpt>
      <trkpt lat="45.8534" lon="3.54936">
        <ele>381.8</ele>
        <time>2026-05-10T07:55:53.000Z</time>
      </trkpt>
      <trkpt lat="45.85338" lon="3.54937">
        <ele>381.6</ele>
        <time>2026-05-10T07:55:54.000Z</time>
      </trkpt>
      <trkpt lat="45.85337" lon="3.54938">
        <ele>381.5</ele>
        <time>2026-05-10T07:55:55.000Z</time>
      </trkpt>
      <trkpt lat="45.85337" lon="3.54938">
        <ele>381.3</ele>
        <time>2026-05-10T07:55:56.000Z</time>
      </trkpt>
      <trkpt lat="45.85335" lon="3.54939">
        <ele>381.1</ele>
        <time>2026-05-10T07:55:57.000Z</time>
      </trkpt>
      <trkpt lat="45.85334" lon="3.54939">
        <ele>381</ele>
        <time>2026-05-10T07:55:58.000Z</time>
      </trkpt>
      <trkpt lat="45.85333" lon="3.5494">
        <ele>381</ele>
        <time>2026-05-10T07:55:59.000Z</time>
      </trkpt>
      <trkpt lat="45.85332" lon="3.5494">
        <ele>380.9</ele>
        <time>2026-05-10T07:56:00.000Z</time>
      </trkpt>
      <trkpt lat="45.85331" lon="3.54941">
        <ele>380.8</ele>
        <time>2026-05-10T07:56:01.000Z</time>
      </trkpt>
      <trkpt lat="45.8533" lon="3.54942">
        <ele>380.7</ele>
        <time>2026-05-10T07:56:02.000Z</time>
      </trkpt>
      <trkpt lat="45.85328" lon="3.54942">
        <ele>380.7</ele>
        <time>2026-05-10T07:56:03.000Z</time>
      </trkpt>
      <trkpt lat="45.85327" lon="3.54943">
        <ele>380.7</ele>
        <time>2026-05-10T07:56:04.000Z</time>
      </trkpt>
      <trkpt lat="45.85326" lon="3.54943">
        <ele>380.6</ele>
        <time>2026-05-10T07:56:05.000Z</time>
      </trkpt>
      <trkpt lat="45.85326" lon="3.54944">
        <ele>380.6</ele>
        <time>2026-05-10T07:56:06.000Z</time>
      </trkpt>
      <trkpt lat="45.85324" lon="3.54945">
        <ele>380.5</ele>
        <time>2026-05-10T07:56:07.000Z</time>
      </trkpt>
      <trkpt lat="45.85324" lon="3.54945">
        <ele>380.4</ele>
        <time>2026-05-10T07:56:08.000Z</time>
      </trkpt>
      <trkpt lat="45.85322" lon="3.54946">
        <ele>380.3</ele>
        <time>2026-05-10T07:56:09.000Z</time>
      </trkpt>
      <trkpt lat="45.85321" lon="3.54946">
        <ele>380.4</ele>
        <time>2026-05-10T07:56:10.000Z</time>
      </trkpt>
      <trkpt lat="45.8532" lon="3.54947">
        <ele>380.3</ele>
        <time>2026-05-10T07:56:11.000Z</time>
      </trkpt>
      <trkpt lat="45.85319" lon="3.54947">
        <ele>380.1</ele>
        <time>2026-05-10T07:56:12.000Z</time>
      </trkpt>
      <trkpt lat="45.85318" lon="3.54948">
        <ele>380</ele>
        <time>2026-05-10T07:56:13.000Z</time>
      </trkpt>
      <trkpt lat="45.85317" lon="3.54949">
        <ele>379.9</ele>
        <time>2026-05-10T07:56:14.000Z</time>
      </trkpt>
      <trkpt lat="45.85316" lon="3.54949">
        <ele>379.8</ele>
        <time>2026-05-10T07:56:15.000Z</time>
      </trkpt>
      <trkpt lat="45.85315" lon="3.54949">
        <ele>379.8</ele>
        <time>2026-05-10T07:56:16.000Z</time>
      </trkpt>
      <trkpt lat="45.85315" lon="3.5495">
        <ele>379.7</ele>
        <time>2026-05-10T07:56:17.000Z</time>
      </trkpt>
      <trkpt lat="45.85314" lon="3.5495">
        <ele>379.7</ele>
        <time>2026-05-10T07:56:18.000Z</time>
      </trkpt>
      <trkpt lat="45.85313" lon="3.5495">
        <ele>379.6</ele>
        <time>2026-05-10T07:56:19.000Z</time>
      </trkpt>
      <trkpt lat="45.85312" lon="3.54951">
        <ele>379.6</ele>
        <time>2026-05-10T07:56:20.000Z</time>
      </trkpt>
      <trkpt lat="45.8531" lon="3.54951">
        <ele>379.7</ele>
        <time>2026-05-10T07:56:21.000Z</time>
      </trkpt>
      <trkpt lat="45.85309" lon="3.54951">
        <ele>379.8</ele>
        <time>2026-05-10T07:56:22.000Z</time>
      </trkpt>
      <trkpt lat="45.85308" lon="3.54952">
        <ele>379.8</ele>
        <time>2026-05-10T07:56:23.000Z</time>
      </trkpt>
      <trkpt lat="45.85306" lon="3.54952">
        <ele>379.8</ele>
        <time>2026-05-10T07:56:24.000Z</time>
      </trkpt>
      <trkpt lat="45.85305" lon="3.54952">
        <ele>379.9</ele>
        <time>2026-05-10T07:56:25.000Z</time>
      </trkpt>
      <trkpt lat="45.85304" lon="3.54952">
        <ele>379.8</ele>
        <time>2026-05-10T07:56:26.000Z</time>
      </trkpt>
      <trkpt lat="45.85303" lon="3.54953">
        <ele>379.7</ele>
        <time>2026-05-10T07:56:27.000Z</time>
      </trkpt>
      <trkpt lat="45.85303" lon="3.54953">
        <ele>379.6</ele>
        <time>2026-05-10T07:56:28.000Z</time>
      </trkpt>
      <trkpt lat="45.85302" lon="3.54953">
        <ele>379.4</ele>
        <time>2026-05-10T07:56:29.000Z</time>
      </trkpt>
      <trkpt lat="45.853" lon="3.54954">
        <ele>379.2</ele>
        <time>2026-05-10T07:56:30.000Z</time>
      </trkpt>
      <trkpt lat="45.85299" lon="3.54954">
        <ele>379.1</ele>
        <time>2026-05-10T07:56:31.000Z</time>
      </trkpt>
      <trkpt lat="45.85297" lon="3.54955">
        <ele>378.8</ele>
        <time>2026-05-10T07:56:32.000Z</time>
      </trkpt>
      <trkpt lat="45.85296" lon="3.54955">
        <ele>378.5</ele>
        <time>2026-05-10T07:56:33.000Z</time>
      </trkpt>
      <trkpt lat="45.85295" lon="3.54956">
        <ele>378.4</ele>
        <time>2026-05-10T07:56:34.000Z</time>
      </trkpt>
      <trkpt lat="45.85294" lon="3.54956">
        <ele>378.3</ele>
        <time>2026-05-10T07:56:35.000Z</time>
      </trkpt>
      <trkpt lat="45.85293" lon="3.54956">
        <ele>378.2</ele>
        <time>2026-05-10T07:56:36.000Z</time>
      </trkpt>
      <trkpt lat="45.85292" lon="3.54957">
        <ele>378</ele>
        <time>2026-05-10T07:56:37.000Z</time>
      </trkpt>
      <trkpt lat="45.85291" lon="3.54957">
        <ele>378</ele>
        <time>2026-05-10T07:56:38.000Z</time>
      </trkpt>
      <trkpt lat="45.8529" lon="3.54957">
        <ele>377.8</ele>
        <time>2026-05-10T07:56:39.000Z</time>
      </trkpt>
      <trkpt lat="45.85289" lon="3.54958">
        <ele>377.7</ele>
        <time>2026-05-10T07:56:40.000Z</time>
      </trkpt>
      <trkpt lat="45.85288" lon="3.54958">
        <ele>377.7</ele>
        <time>2026-05-10T07:56:41.000Z</time>
      </trkpt>
      <trkpt lat="45.85287" lon="3.54958">
        <ele>377.8</ele>
        <time>2026-05-10T07:56:42.000Z</time>
      </trkpt>
      <trkpt lat="45.85286" lon="3.54958">
        <ele>377.7</ele>
        <time>2026-05-10T07:56:43.000Z</time>
      </trkpt>
      <trkpt lat="45.85285" lon="3.54958">
        <ele>377.9</ele>
        <time>2026-05-10T07:56:44.000Z</time>
      </trkpt>
      <trkpt lat="45.85284" lon="3.54958">
        <ele>377.9</ele>
        <time>2026-05-10T07:56:45.000Z</time>
      </trkpt>
      <trkpt lat="45.85283" lon="3.54958">
        <ele>378.1</ele>
        <time>2026-05-10T07:56:46.000Z</time>
      </trkpt>
      <trkpt lat="45.85282" lon="3.54957">
        <ele>378.3</ele>
        <time>2026-05-10T07:56:47.000Z</time>
      </trkpt>
      <trkpt lat="45.85281" lon="3.54957">
        <ele>378.4</ele>
        <time>2026-05-10T07:56:48.000Z</time>
      </trkpt>
      <trkpt lat="45.8528" lon="3.54957">
        <ele>378.6</ele>
        <time>2026-05-10T07:56:49.000Z</time>
      </trkpt>
      <trkpt lat="45.85279" lon="3.54956">
        <ele>378.8</ele>
        <time>2026-05-10T07:56:50.000Z</time>
      </trkpt>
      <trkpt lat="45.85278" lon="3.54956">
        <ele>378.9</ele>
        <time>2026-05-10T07:56:51.000Z</time>
      </trkpt>
      <trkpt lat="45.85277" lon="3.54956">
        <ele>378.6</ele>
        <time>2026-05-10T07:56:52.000Z</time>
      </trkpt>
      <trkpt lat="45.85276" lon="3.54955">
        <ele>378.7</ele>
        <time>2026-05-10T07:56:53.000Z</time>
      </trkpt>
      <trkpt lat="45.85275" lon="3.54955">
        <ele>378.5</ele>
        <time>2026-05-10T07:56:54.000Z</time>
      </trkpt>
      <trkpt lat="45.85274" lon="3.54955">
        <ele>378.6</ele>
        <time>2026-05-10T07:56:55.000Z</time>
      </trkpt>
      <trkpt lat="45.85273" lon="3.54954">
        <ele>378.6</ele>
        <time>2026-05-10T07:56:56.000Z</time>
      </trkpt>
      <trkpt lat="45.85271" lon="3.54953">
        <ele>378.9</ele>
        <time>2026-05-10T07:56:57.000Z</time>
      </trkpt>
      <trkpt lat="45.8527" lon="3.54952">
        <ele>378.8</ele>
        <time>2026-05-10T07:56:58.000Z</time>
      </trkpt>
      <trkpt lat="45.85269" lon="3.54952">
        <ele>378.7</ele>
        <time>2026-05-10T07:56:59.000Z</time>
      </trkpt>
      <trkpt lat="45.85268" lon="3.54951">
        <ele>378.6</ele>
        <time>2026-05-10T07:57:00.000Z</time>
      </trkpt>
      <trkpt lat="45.85266" lon="3.54951">
        <ele>378.4</ele>
        <time>2026-05-10T07:57:01.000Z</time>
      </trkpt>
      <trkpt lat="45.85265" lon="3.54951">
        <ele>378.2</ele>
        <time>2026-05-10T07:57:02.000Z</time>
      </trkpt>
      <trkpt lat="45.85264" lon="3.54951">
        <ele>378</ele>
        <time>2026-05-10T07:57:03.000Z</time>
      </trkpt>
      <trkpt lat="45.85264" lon="3.54951">
        <ele>377.9</ele>
        <time>2026-05-10T07:57:04.000Z</time>
      </trkpt>
      <trkpt lat="45.85263" lon="3.5495">
        <ele>378</ele>
        <time>2026-05-10T07:57:05.000Z</time>
      </trkpt>
      <trkpt lat="45.85262" lon="3.5495">
        <ele>378</ele>
        <time>2026-05-10T07:57:06.000Z</time>
      </trkpt>
      <trkpt lat="45.85261" lon="3.54949">
        <ele>378.1</ele>
        <time>2026-05-10T07:57:07.000Z</time>
      </trkpt>
      <trkpt lat="45.85259" lon="3.54948">
        <ele>378.2</ele>
        <time>2026-05-10T07:57:08.000Z</time>
      </trkpt>
      <trkpt lat="45.85258" lon="3.54947">
        <ele>378.4</ele>
        <time>2026-05-10T07:57:09.000Z</time>
      </trkpt>
      <trkpt lat="45.85257" lon="3.54947">
        <ele>378.4</ele>
        <time>2026-05-10T07:57:10.000Z</time>
      </trkpt>
      <trkpt lat="45.85255" lon="3.54946">
        <ele>378.4</ele>
        <time>2026-05-10T07:57:11.000Z</time>
      </trkpt>
      <trkpt lat="45.85254" lon="3.54945">
        <ele>378.4</ele>
        <time>2026-05-10T07:57:12.000Z</time>
      </trkpt>
      <trkpt lat="45.85253" lon="3.54945">
        <ele>378.5</ele>
        <time>2026-05-10T07:57:13.000Z</time>
      </trkpt>
      <trkpt lat="45.85252" lon="3.54944">
        <ele>378.4</ele>
        <time>2026-05-10T07:57:14.000Z</time>
      </trkpt>
      <trkpt lat="45.85251" lon="3.54944">
        <ele>378.3</ele>
        <time>2026-05-10T07:57:15.000Z</time>
      </trkpt>
      <trkpt lat="45.8525" lon="3.54943">
        <ele>378.2</ele>
        <time>2026-05-10T07:57:16.000Z</time>
      </trkpt>
      <trkpt lat="45.85248" lon="3.54942">
        <ele>378</ele>
        <time>2026-05-10T07:57:17.000Z</time>
      </trkpt>
      <trkpt lat="45.85248" lon="3.54942">
        <ele>377.7</ele>
        <time>2026-05-10T07:57:18.000Z</time>
      </trkpt>
      <trkpt lat="45.85247" lon="3.54942">
        <ele>377.5</ele>
        <time>2026-05-10T07:57:19.000Z</time>
      </trkpt>
      <trkpt lat="45.85245" lon="3.54941">
        <ele>377.3</ele>
        <time>2026-05-10T07:57:20.000Z</time>
      </trkpt>
      <trkpt lat="45.85244" lon="3.54941">
        <ele>377.1</ele>
        <time>2026-05-10T07:57:21.000Z</time>
      </trkpt>
      <trkpt lat="45.85243" lon="3.5494">
        <ele>376.9</ele>
        <time>2026-05-10T07:57:22.000Z</time>
      </trkpt>
      <trkpt lat="45.85242" lon="3.5494">
        <ele>376.7</ele>
        <time>2026-05-10T07:57:23.000Z</time>
      </trkpt>
      <trkpt lat="45.85241" lon="3.54939">
        <ele>376.4</ele>
        <time>2026-05-10T07:57:24.000Z</time>
      </trkpt>
      <trkpt lat="45.8524" lon="3.54938">
        <ele>376.3</ele>
        <time>2026-05-10T07:57:25.000Z</time>
      </trkpt>
      <trkpt lat="45.85239" lon="3.54938">
        <ele>376.2</ele>
        <time>2026-05-10T07:57:26.000Z</time>
      </trkpt>
      <trkpt lat="45.85238" lon="3.54937">
        <ele>376.2</ele>
        <time>2026-05-10T07:57:27.000Z</time>
      </trkpt>
      <trkpt lat="45.85237" lon="3.54936">
        <ele>376.1</ele>
        <time>2026-05-10T07:57:28.000Z</time>
      </trkpt>
      <trkpt lat="45.85236" lon="3.54936">
        <ele>375.9</ele>
        <time>2026-05-10T07:57:29.000Z</time>
      </trkpt>
      <trkpt lat="45.85235" lon="3.54935">
        <ele>375.7</ele>
        <time>2026-05-10T07:57:30.000Z</time>
      </trkpt>
      <trkpt lat="45.85233" lon="3.54935">
        <ele>375.5</ele>
        <time>2026-05-10T07:57:31.000Z</time>
      </trkpt>
      <trkpt lat="45.85232" lon="3.54935">
        <ele>375.3</ele>
        <time>2026-05-10T07:57:32.000Z</time>
      </trkpt>
      <trkpt lat="45.85231" lon="3.54934">
        <ele>375.1</ele>
        <time>2026-05-10T07:57:33.000Z</time>
      </trkpt>
      <trkpt lat="45.8523" lon="3.54934">
        <ele>375</ele>
        <time>2026-05-10T07:57:34.000Z</time>
      </trkpt>
      <trkpt lat="45.85229" lon="3.54933">
        <ele>375</ele>
        <time>2026-05-10T07:57:35.000Z</time>
      </trkpt>
      <trkpt lat="45.85228" lon="3.54933">
        <ele>374.8</ele>
        <time>2026-05-10T07:57:36.000Z</time>
      </trkpt>
      <trkpt lat="45.85227" lon="3.54933">
        <ele>374.7</ele>
        <time>2026-05-10T07:57:37.000Z</time>
      </trkpt>
      <trkpt lat="45.85227" lon="3.54932">
        <ele>374.6</ele>
        <time>2026-05-10T07:57:38.000Z</time>
      </trkpt>
      <trkpt lat="45.85225" lon="3.54932">
        <ele>374.4</ele>
        <time>2026-05-10T07:57:39.000Z</time>
      </trkpt>
      <trkpt lat="45.85224" lon="3.54931">
        <ele>374.2</ele>
        <time>2026-05-10T07:57:40.000Z</time>
      </trkpt>
      <trkpt lat="45.85222" lon="3.5493">
        <ele>374.1</ele>
        <time>2026-05-10T07:57:41.000Z</time>
      </trkpt>
      <trkpt lat="45.85221" lon="3.54929">
        <ele>374.1</ele>
        <time>2026-05-10T07:57:42.000Z</time>
      </trkpt>
      <trkpt lat="45.8522" lon="3.54929">
        <ele>373.9</ele>
        <time>2026-05-10T07:57:43.000Z</time>
      </trkpt>
      <trkpt lat="45.85219" lon="3.54929">
        <ele>373.8</ele>
        <time>2026-05-10T07:57:44.000Z</time>
      </trkpt>
      <trkpt lat="45.85217" lon="3.54928">
        <ele>373.8</ele>
        <time>2026-05-10T07:57:45.000Z</time>
      </trkpt>
      <trkpt lat="45.85217" lon="3.54927">
        <ele>374</ele>
        <time>2026-05-10T07:57:46.000Z</time>
      </trkpt>
      <trkpt lat="45.85216" lon="3.54926">
        <ele>374</ele>
        <time>2026-05-10T07:57:47.000Z</time>
      </trkpt>
      <trkpt lat="45.85216" lon="3.54926">
        <ele>374.2</ele>
        <time>2026-05-10T07:57:48.000Z</time>
      </trkpt>
      <trkpt lat="45.85215" lon="3.54925">
        <ele>374.3</ele>
        <time>2026-05-10T07:57:49.000Z</time>
      </trkpt>
      <trkpt lat="45.85215" lon="3.54925">
        <ele>374.4</ele>
        <time>2026-05-10T07:57:50.000Z</time>
      </trkpt>
      <trkpt lat="45.85215" lon="3.54924">
        <ele>374.8</ele>
        <time>2026-05-10T07:57:51.000Z</time>
      </trkpt>
      <trkpt lat="45.85215" lon="3.54923">
        <ele>374.9</ele>
        <time>2026-05-10T07:57:52.000Z</time>
      </trkpt>
      <trkpt lat="45.85215" lon="3.54922">
        <ele>375.2</ele>
        <time>2026-05-10T07:57:53.000Z</time>
      </trkpt>
      <trkpt lat="45.85214" lon="3.54922">
        <ele>375.4</ele>
        <time>2026-05-10T07:57:54.000Z</time>
      </trkpt>
      <trkpt lat="45.85214" lon="3.54921">
        <ele>375.5</ele>
        <time>2026-05-10T07:57:55.000Z</time>
      </trkpt>
      <trkpt lat="45.85214" lon="3.54921">
        <ele>375.7</ele>
        <time>2026-05-10T07:57:56.000Z</time>
      </trkpt>
      <trkpt lat="45.85214" lon="3.5492">
        <ele>376</ele>
        <time>2026-05-10T07:57:57.000Z</time>
      </trkpt>
      <trkpt lat="45.85213" lon="3.54919">
        <ele>376.4</ele>
        <time>2026-05-10T07:57:58.000Z</time>
      </trkpt>
      <trkpt lat="45.85213" lon="3.54917">
        <ele>376.9</ele>
        <time>2026-05-10T07:57:59.000Z</time>
      </trkpt>
      <trkpt lat="45.85212" lon="3.54915">
        <ele>377</ele>
        <time>2026-05-10T07:58:00.000Z</time>
      </trkpt>
      <trkpt lat="45.85212" lon="3.54914">
        <ele>377.1</ele>
        <time>2026-05-10T07:58:01.000Z</time>
      </trkpt>
      <trkpt lat="45.85211" lon="3.54912">
        <ele>377.2</ele>
        <time>2026-05-10T07:58:02.000Z</time>
      </trkpt>
      <trkpt lat="45.85211" lon="3.54911">
        <ele>377.3</ele>
        <time>2026-05-10T07:58:03.000Z</time>
      </trkpt>
      <trkpt lat="45.85211" lon="3.54909">
        <ele>377.5</ele>
        <time>2026-05-10T07:58:04.000Z</time>
      </trkpt>
      <trkpt lat="45.85211" lon="3.54908">
        <ele>377.5</ele>
        <time>2026-05-10T07:58:05.000Z</time>
      </trkpt>
      <trkpt lat="45.85211" lon="3.54907">
        <ele>377.7</ele>
        <time>2026-05-10T07:58:06.000Z</time>
      </trkpt>
      <trkpt lat="45.8521" lon="3.54906">
        <ele>377.8</ele>
        <time>2026-05-10T07:58:07.000Z</time>
      </trkpt>
      <trkpt lat="45.8521" lon="3.54905">
        <ele>377.9</ele>
        <time>2026-05-10T07:58:08.000Z</time>
      </trkpt>
      <trkpt lat="45.85211" lon="3.54904">
        <ele>378.1</ele>
        <time>2026-05-10T07:58:09.000Z</time>
      </trkpt>
      <trkpt lat="45.8521" lon="3.54903">
        <ele>378.1</ele>
        <time>2026-05-10T07:58:10.000Z</time>
      </trkpt>
      <trkpt lat="45.8521" lon="3.54903">
        <ele>378.2</ele>
        <time>2026-05-10T07:58:11.000Z</time>
      </trkpt>
      <trkpt lat="45.85209" lon="3.54902">
        <ele>378.2</ele>
        <time>2026-05-10T07:58:12.000Z</time>
      </trkpt>
      <trkpt lat="45.85209" lon="3.54901">
        <ele>378.3</ele>
        <time>2026-05-10T07:58:13.000Z</time>
      </trkpt>
      <trkpt lat="45.85209" lon="3.54901">
        <ele>378.3</ele>
        <time>2026-05-10T07:58:14.000Z</time>
      </trkpt>
      <trkpt lat="45.85208" lon="3.54901">
        <ele>378.3</ele>
        <time>2026-05-10T07:58:15.000Z</time>
      </trkpt>
      <trkpt lat="45.85209" lon="3.549">
        <ele>378.5</ele>
        <time>2026-05-10T07:58:16.000Z</time>
      </trkpt>
      <trkpt lat="45.85209" lon="3.54899">
        <ele>378.6</ele>
        <time>2026-05-10T07:58:17.000Z</time>
      </trkpt>
      <trkpt lat="45.85209" lon="3.54899">
        <ele>378.6</ele>
        <time>2026-05-10T07:58:18.000Z</time>
      </trkpt>
      <trkpt lat="45.85208" lon="3.54899">
        <ele>378.6</ele>
        <time>2026-05-10T07:58:19.000Z</time>
      </trkpt>
      <trkpt lat="45.85208" lon="3.54899">
        <ele>378.5</ele>
        <time>2026-05-10T07:58:20.000Z</time>
      </trkpt>
      <trkpt lat="45.85207" lon="3.549">
        <ele>378.3</ele>
        <time>2026-05-10T07:58:21.000Z</time>
      </trkpt>
      <trkpt lat="45.85205" lon="3.54901">
        <ele>377.9</ele>
        <time>2026-05-10T07:58:22.000Z</time>
      </trkpt>
      <trkpt lat="45.85204" lon="3.54902">
        <ele>377.7</ele>
        <time>2026-05-10T07:58:23.000Z</time>
      </trkpt>
      <trkpt lat="45.85203" lon="3.54902">
        <ele>377.6</ele>
        <time>2026-05-10T07:58:24.000Z</time>
      </trkpt>
      <trkpt lat="45.85202" lon="3.54902">
        <ele>377.4</ele>
        <time>2026-05-10T07:58:25.000Z</time>
      </trkpt>
      <trkpt lat="45.85202" lon="3.54903">
        <ele>377.3</ele>
        <time>2026-05-10T07:58:26.000Z</time>
      </trkpt>
      <trkpt lat="45.85201" lon="3.54903">
        <ele>377.1</ele>
        <time>2026-05-10T07:58:27.000Z</time>
      </trkpt>
      <trkpt lat="45.852" lon="3.54904">
        <ele>376.9</ele>
        <time>2026-05-10T07:58:28.000Z</time>
      </trkpt>
      <trkpt lat="45.85199" lon="3.54905">
        <ele>376.6</ele>
        <time>2026-05-10T07:58:29.000Z</time>
      </trkpt>
      <trkpt lat="45.85198" lon="3.54905">
        <ele>376.3</ele>
        <time>2026-05-10T07:58:30.000Z</time>
      </trkpt>
      <trkpt lat="45.85196" lon="3.54906">
        <ele>375.9</ele>
        <time>2026-05-10T07:58:31.000Z</time>
      </trkpt>
      <trkpt lat="45.85195" lon="3.54906">
        <ele>375.6</ele>
        <time>2026-05-10T07:58:32.000Z</time>
      </trkpt>
      <trkpt lat="45.85193" lon="3.54907">
        <ele>375.5</ele>
        <time>2026-05-10T07:58:33.000Z</time>
      </trkpt>
      <trkpt lat="45.85192" lon="3.54908">
        <ele>375.4</ele>
        <time>2026-05-10T07:58:34.000Z</time>
      </trkpt>
      <trkpt lat="45.8519" lon="3.54908">
        <ele>375.3</ele>
        <time>2026-05-10T07:58:35.000Z</time>
      </trkpt>
      <trkpt lat="45.85189" lon="3.54909">
        <ele>375.2</ele>
        <time>2026-05-10T07:58:36.000Z</time>
      </trkpt>
      <trkpt lat="45.85187" lon="3.54909">
        <ele>375.1</ele>
        <time>2026-05-10T07:58:37.000Z</time>
      </trkpt>
      <trkpt lat="45.85186" lon="3.54909">
        <ele>375.1</ele>
        <time>2026-05-10T07:58:38.000Z</time>
      </trkpt>
      <trkpt lat="45.85185" lon="3.5491">
        <ele>375</ele>
        <time>2026-05-10T07:58:39.000Z</time>
      </trkpt>
      <trkpt lat="45.85184" lon="3.5491">
        <ele>375</ele>
        <time>2026-05-10T07:58:40.000Z</time>
      </trkpt>
      <trkpt lat="45.85183" lon="3.5491">
        <ele>375</ele>
        <time>2026-05-10T07:58:41.000Z</time>
      </trkpt>
      <trkpt lat="45.85182" lon="3.5491">
        <ele>375</ele>
        <time>2026-05-10T07:58:42.000Z</time>
      </trkpt>
      <trkpt lat="45.85181" lon="3.5491">
        <ele>375</ele>
        <time>2026-05-10T07:58:43.000Z</time>
      </trkpt>
      <trkpt lat="45.85181" lon="3.5491">
        <ele>375.1</ele>
        <time>2026-05-10T07:58:44.000Z</time>
      </trkpt>
      <trkpt lat="45.85179" lon="3.5491">
        <ele>375</ele>
        <time>2026-05-10T07:58:45.000Z</time>
      </trkpt>
      <trkpt lat="45.85178" lon="3.54911">
        <ele>374.9</ele>
        <time>2026-05-10T07:58:46.000Z</time>
      </trkpt>
      <trkpt lat="45.85177" lon="3.54911">
        <ele>374.9</ele>
        <time>2026-05-10T07:58:47.000Z</time>
      </trkpt>
      <trkpt lat="45.85175" lon="3.54912">
        <ele>374.8</ele>
        <time>2026-05-10T07:58:48.000Z</time>
      </trkpt>
      <trkpt lat="45.85173" lon="3.54912">
        <ele>374.8</ele>
        <time>2026-05-10T07:58:49.000Z</time>
      </trkpt>
      <trkpt lat="45.85172" lon="3.54913">
        <ele>374.7</ele>
        <time>2026-05-10T07:58:50.000Z</time>
      </trkpt>
      <trkpt lat="45.8517" lon="3.54913">
        <ele>374.7</ele>
        <time>2026-05-10T07:58:51.000Z</time>
      </trkpt>
      <trkpt lat="45.85169" lon="3.54913">
        <ele>374.8</ele>
        <time>2026-05-10T07:58:52.000Z</time>
      </trkpt>
      <trkpt lat="45.85168" lon="3.54913">
        <ele>374.8</ele>
        <time>2026-05-10T07:58:53.000Z</time>
      </trkpt>
      <trkpt lat="45.85167" lon="3.54912">
        <ele>374.9</ele>
        <time>2026-05-10T07:58:54.000Z</time>
      </trkpt>
      <trkpt lat="45.85166" lon="3.54912">
        <ele>374.9</ele>
        <time>2026-05-10T07:58:55.000Z</time>
      </trkpt>
      <trkpt lat="45.85166" lon="3.54912">
        <ele>375</ele>
        <time>2026-05-10T07:58:56.000Z</time>
      </trkpt>
      <trkpt lat="45.85166" lon="3.54911">
        <ele>375.2</ele>
        <time>2026-05-10T07:58:57.000Z</time>
      </trkpt>
      <trkpt lat="45.85167" lon="3.54911">
        <ele>375.2</ele>
        <time>2026-05-10T07:58:58.000Z</time>
      </trkpt>
      <trkpt lat="45.85166" lon="3.5491">
        <ele>375.5</ele>
        <time>2026-05-10T07:58:59.000Z</time>
      </trkpt>
      <trkpt lat="45.85166" lon="3.5491">
        <ele>375.4</ele>
        <time>2026-05-10T07:59:00.000Z</time>
      </trkpt>
      <trkpt lat="45.85165" lon="3.5491">
        <ele>375.4</ele>
        <time>2026-05-10T07:59:01.000Z</time>
      </trkpt>
      <trkpt lat="45.85164" lon="3.5491">
        <ele>375.4</ele>
        <time>2026-05-10T07:59:02.000Z</time>
      </trkpt>
      <trkpt lat="45.85164" lon="3.5491">
        <ele>375.5</ele>
        <time>2026-05-10T07:59:03.000Z</time>
      </trkpt>
      <trkpt lat="45.85163" lon="3.54909">
        <ele>375.5</ele>
        <time>2026-05-10T07:59:04.000Z</time>
      </trkpt>
      <trkpt lat="45.85162" lon="3.54909">
        <ele>375.6</ele>
        <time>2026-05-10T07:59:05.000Z</time>
      </trkpt>
      <trkpt lat="45.85162" lon="3.54909">
        <ele>375.5</ele>
        <time>2026-05-10T07:59:06.000Z</time>
      </trkpt>
      <trkpt lat="45.85162" lon="3.54909">
        <ele>375.6</ele>
        <time>2026-05-10T07:59:07.000Z</time>
      </trkpt>
      <trkpt lat="45.85162" lon="3.54909">
        <ele>375.6</ele>
        <time>2026-05-10T07:59:08.000Z</time>
      </trkpt>
      <trkpt lat="45.85161" lon="3.54909">
        <ele>375.5</ele>
        <time>2026-05-10T07:59:09.000Z</time>
      </trkpt>
      <trkpt lat="45.8516" lon="3.54909">
        <ele>375.5</ele>
        <time>2026-05-10T07:59:10.000Z</time>
      </trkpt>
      <trkpt lat="45.85161" lon="3.54905">
        <ele>376</ele>
        <time>2026-05-10T07:59:11.000Z</time>
      </trkpt>
      <trkpt lat="45.85159" lon="3.54904">
        <ele>376.2</ele>
        <time>2026-05-10T07:59:12.000Z</time>
      </trkpt>
      <trkpt lat="45.85159" lon="3.54903">
        <ele>376.4</ele>
        <time>2026-05-10T07:59:13.000Z</time>
      </trkpt>
      <trkpt lat="45.85159" lon="3.549">
        <ele>376.7</ele>
        <time>2026-05-10T07:59:14.000Z</time>
      </trkpt>
      <trkpt lat="45.85159" lon="3.54896">
        <ele>377.3</ele>
        <time>2026-05-10T07:59:15.000Z</time>
      </trkpt>
      <trkpt lat="45.8516" lon="3.54893">
        <ele>377.8</ele>
        <time>2026-05-10T07:59:16.000Z</time>
      </trkpt>
      <trkpt lat="45.8516" lon="3.5489">
        <ele>378.3</ele>
        <time>2026-05-10T07:59:17.000Z</time>
      </trkpt>
      <trkpt lat="45.8516" lon="3.54887">
        <ele>378.6</ele>
        <time>2026-05-10T07:59:18.000Z</time>
      </trkpt>
      <trkpt lat="45.8516" lon="3.54883">
        <ele>378.7</ele>
        <time>2026-05-10T07:59:19.000Z</time>
      </trkpt>
      <trkpt lat="45.8516" lon="3.54882">
        <ele>378.9</ele>
        <time>2026-05-10T07:59:20.000Z</time>
      </trkpt>
      <trkpt lat="45.8516" lon="3.54881">
        <ele>379.1</ele>
        <time>2026-05-10T07:59:21.000Z</time>
      </trkpt>
      <trkpt lat="45.8516" lon="3.54879">
        <ele>379.2</ele>
        <time>2026-05-10T07:59:22.000Z</time>
      </trkpt>
      <trkpt lat="45.85161" lon="3.54878">
        <ele>379.4</ele>
        <time>2026-05-10T07:59:23.000Z</time>
      </trkpt>
      <trkpt lat="45.85161" lon="3.54876">
        <ele>379.5</ele>
        <time>2026-05-10T07:59:24.000Z</time>
      </trkpt>
      <trkpt lat="45.85161" lon="3.54874">
        <ele>379.7</ele>
        <time>2026-05-10T07:59:25.000Z</time>
      </trkpt>
      <trkpt lat="45.85161" lon="3.54873">
        <ele>379.9</ele>
        <time>2026-05-10T07:59:26.000Z</time>
      </trkpt>
      <trkpt lat="45.85161" lon="3.54871">
        <ele>380</ele>
        <time>2026-05-10T07:59:27.000Z</time>
      </trkpt>
      <trkpt lat="45.85162" lon="3.54869">
        <ele>380.4</ele>
        <time>2026-05-10T07:59:28.000Z</time>
      </trkpt>
      <trkpt lat="45.85163" lon="3.54868">
        <ele>380.8</ele>
        <time>2026-05-10T07:59:29.000Z</time>
      </trkpt>
      <trkpt lat="45.85163" lon="3.54866">
        <ele>381.1</ele>
        <time>2026-05-10T07:59:30.000Z</time>
      </trkpt>
      <trkpt lat="45.85163" lon="3.54864">
        <ele>381.2</ele>
        <time>2026-05-10T07:59:31.000Z</time>
      </trkpt>
      <trkpt lat="45.85163" lon="3.54863">
        <ele>381.3</ele>
        <time>2026-05-10T07:59:32.000Z</time>
      </trkpt>
      <trkpt lat="45.85164" lon="3.54861">
        <ele>381.6</ele>
        <time>2026-05-10T07:59:33.000Z</time>
      </trkpt>
      <trkpt lat="45.85164" lon="3.5486">
        <ele>381.6</ele>
        <time>2026-05-10T07:59:34.000Z</time>
      </trkpt>
      <trkpt lat="45.85164" lon="3.54858">
        <ele>381.3</ele>
        <time>2026-05-10T07:59:35.000Z</time>
      </trkpt>
      <trkpt lat="45.85164" lon="3.54856">
        <ele>381.2</ele>
        <time>2026-05-10T07:59:36.000Z</time>
      </trkpt>
      <trkpt lat="45.85164" lon="3.54855">
        <ele>381.2</ele>
        <time>2026-05-10T07:59:37.000Z</time>
      </trkpt>
      <trkpt lat="45.85164" lon="3.54854">
        <ele>381.2</ele>
        <time>2026-05-10T07:59:38.000Z</time>
      </trkpt>
      <trkpt lat="45.85165" lon="3.54852">
        <ele>381.4</ele>
        <time>2026-05-10T07:59:39.000Z</time>
      </trkpt>
      <trkpt lat="45.85165" lon="3.54851">
        <ele>381.6</ele>
        <time>2026-05-10T07:59:40.000Z</time>
      </trkpt>
      <trkpt lat="45.85166" lon="3.54849">
        <ele>381.7</ele>
        <time>2026-05-10T07:59:41.000Z</time>
      </trkpt>
      <trkpt lat="45.85166" lon="3.54848">
        <ele>381.8</ele>
        <time>2026-05-10T07:59:42.000Z</time>
      </trkpt>
      <trkpt lat="45.85166" lon="3.54846">
        <ele>381.7</ele>
        <time>2026-05-10T07:59:43.000Z</time>
      </trkpt>
      <trkpt lat="45.85166" lon="3.54845">
        <ele>381.7</ele>
        <time>2026-05-10T07:59:44.000Z</time>
      </trkpt>
      <trkpt lat="45.85167" lon="3.54844">
        <ele>381.7</ele>
        <time>2026-05-10T07:59:45.000Z</time>
      </trkpt>
      <trkpt lat="45.85167" lon="3.54843">
        <ele>381.7</ele>
        <time>2026-05-10T07:59:46.000Z</time>
      </trkpt>
      <trkpt lat="45.85168" lon="3.54841">
        <ele>381.7</ele>
        <time>2026-05-10T07:59:47.000Z</time>
      </trkpt>
      <trkpt lat="45.85168" lon="3.54839">
        <ele>381.6</ele>
        <time>2026-05-10T07:59:48.000Z</time>
      </trkpt>
      <trkpt lat="45.85169" lon="3.54838">
        <ele>381.6</ele>
        <time>2026-05-10T07:59:49.000Z</time>
      </trkpt>
      <trkpt lat="45.85169" lon="3.54837">
        <ele>381.6</ele>
        <time>2026-05-10T07:59:50.000Z</time>
      </trkpt>
      <trkpt lat="45.8517" lon="3.54837">
        <ele>381.6</ele>
        <time>2026-05-10T07:59:51.000Z</time>
      </trkpt>
      <trkpt lat="45.85171" lon="3.54836">
        <ele>381.6</ele>
        <time>2026-05-10T07:59:52.000Z</time>
      </trkpt>
      <trkpt lat="45.85171" lon="3.54835">
        <ele>381.6</ele>
        <time>2026-05-10T07:59:53.000Z</time>
      </trkpt>
      <trkpt lat="45.85173" lon="3.54834">
        <ele>381.7</ele>
        <time>2026-05-10T07:59:54.000Z</time>
      </trkpt>
      <trkpt lat="45.85174" lon="3.54833">
        <ele>381.5</ele>
        <time>2026-05-10T07:59:55.000Z</time>
      </trkpt>
      <trkpt lat="45.85175" lon="3.54832">
        <ele>381.4</ele>
        <time>2026-05-10T07:59:56.000Z</time>
      </trkpt>
      <trkpt lat="45.85176" lon="3.54831">
        <ele>381.1</ele>
        <time>2026-05-10T07:59:57.000Z</time>
      </trkpt>
      <trkpt lat="45.85177" lon="3.54831">
        <ele>381.2</ele>
        <time>2026-05-10T07:59:58.000Z</time>
      </trkpt>
      <trkpt lat="45.85178" lon="3.54831">
        <ele>381.4</ele>
        <time>2026-05-10T07:59:59.000Z</time>
      </trkpt>
      <trkpt lat="45.8518" lon="3.54831">
        <ele>381.5</ele>
        <time>2026-05-10T08:00:00.000Z</time>
      </trkpt>
      <trkpt lat="45.85181" lon="3.54831">
        <ele>381.6</ele>
        <time>2026-05-10T08:00:01.000Z</time>
      </trkpt>
      <trkpt lat="45.85182" lon="3.54831">
        <ele>381.8</ele>
        <time>2026-05-10T08:00:02.000Z</time>
      </trkpt>
      <trkpt lat="45.85184" lon="3.54831">
        <ele>381.9</ele>
        <time>2026-05-10T08:00:03.000Z</time>
      </trkpt>
      <trkpt lat="45.85185" lon="3.5483">
        <ele>382</ele>
        <time>2026-05-10T08:00:04.000Z</time>
      </trkpt>
      <trkpt lat="45.85186" lon="3.5483">
        <ele>382.1</ele>
        <time>2026-05-10T08:00:05.000Z</time>
      </trkpt>
      <trkpt lat="45.85188" lon="3.5483">
        <ele>382.3</ele>
        <time>2026-05-10T08:00:06.000Z</time>
      </trkpt>
      <trkpt lat="45.85189" lon="3.5483">
        <ele>382.4</ele>
        <time>2026-05-10T08:00:07.000Z</time>
      </trkpt>
      <trkpt lat="45.8519" lon="3.5483">
        <ele>382.5</ele>
        <time>2026-05-10T08:00:08.000Z</time>
      </trkpt>
      <trkpt lat="45.85191" lon="3.54829">
        <ele>382.4</ele>
        <time>2026-05-10T08:00:09.000Z</time>
      </trkpt>
      <trkpt lat="45.85192" lon="3.54829">
        <ele>382.5</ele>
        <time>2026-05-10T08:00:10.000Z</time>
      </trkpt>
      <trkpt lat="45.85194" lon="3.54828">
        <ele>382.5</ele>
        <time>2026-05-10T08:00:11.000Z</time>
      </trkpt>
      <trkpt lat="45.85195" lon="3.54827">
        <ele>382.5</ele>
        <time>2026-05-10T08:00:12.000Z</time>
      </trkpt>
      <trkpt lat="45.85196" lon="3.54827">
        <ele>382.5</ele>
        <time>2026-05-10T08:00:13.000Z</time>
      </trkpt>
      <trkpt lat="45.85197" lon="3.54827">
        <ele>382.5</ele>
        <time>2026-05-10T08:00:14.000Z</time>
      </trkpt>
      <trkpt lat="45.85198" lon="3.54826">
        <ele>382.4</ele>
        <time>2026-05-10T08:00:15.000Z</time>
      </trkpt>
      <trkpt lat="45.85199" lon="3.54827">
        <ele>382.5</ele>
        <time>2026-05-10T08:00:16.000Z</time>
      </trkpt>
      <trkpt lat="45.852" lon="3.54826">
        <ele>382.4</ele>
        <time>2026-05-10T08:00:17.000Z</time>
      </trkpt>
      <trkpt lat="45.85201" lon="3.54826">
        <ele>382.4</ele>
        <time>2026-05-10T08:00:18.000Z</time>
      </trkpt>
      <trkpt lat="45.85202" lon="3.54826">
        <ele>382.6</ele>
        <time>2026-05-10T08:00:19.000Z</time>
      </trkpt>
      <trkpt lat="45.85205" lon="3.54826">
        <ele>382.7</ele>
        <time>2026-05-10T08:00:20.000Z</time>
      </trkpt>
      <trkpt lat="45.85207" lon="3.54827">
        <ele>382.9</ele>
        <time>2026-05-10T08:00:21.000Z</time>
      </trkpt>
      <trkpt lat="45.85209" lon="3.54827">
        <ele>383</ele>
        <time>2026-05-10T08:00:22.000Z</time>
      </trkpt>
      <trkpt lat="45.8521" lon="3.54825">
        <ele>382.7</ele>
        <time>2026-05-10T08:00:23.000Z</time>
      </trkpt>
      <trkpt lat="45.85211" lon="3.54823">
        <ele>382.5</ele>
        <time>2026-05-10T08:00:24.000Z</time>
      </trkpt>
      <trkpt lat="45.85212" lon="3.54822">
        <ele>382.4</ele>
        <time>2026-05-10T08:00:25.000Z</time>
      </trkpt>
      <trkpt lat="45.85214" lon="3.54821">
        <ele>382.5</ele>
        <time>2026-05-10T08:00:26.000Z</time>
      </trkpt>
      <trkpt lat="45.85215" lon="3.54821">
        <ele>382.5</ele>
        <time>2026-05-10T08:00:27.000Z</time>
      </trkpt>
      <trkpt lat="45.85216" lon="3.5482">
        <ele>382.5</ele>
        <time>2026-05-10T08:00:28.000Z</time>
      </trkpt>
      <trkpt lat="45.85217" lon="3.54819">
        <ele>382.5</ele>
        <time>2026-05-10T08:00:29.000Z</time>
      </trkpt>
      <trkpt lat="45.85219" lon="3.54819">
        <ele>382.6</ele>
        <time>2026-05-10T08:00:30.000Z</time>
      </trkpt>
      <trkpt lat="45.8522" lon="3.54818">
        <ele>382.6</ele>
        <time>2026-05-10T08:00:31.000Z</time>
      </trkpt>
      <trkpt lat="45.8522" lon="3.54818">
        <ele>382.6</ele>
        <time>2026-05-10T08:00:32.000Z</time>
      </trkpt>
      <trkpt lat="45.85219" lon="3.54817">
        <ele>382.4</ele>
        <time>2026-05-10T08:00:33.000Z</time>
      </trkpt>
      <trkpt lat="45.85216" lon="3.54817">
        <ele>382.1</ele>
        <time>2026-05-10T08:00:34.000Z</time>
      </trkpt>
      <trkpt lat="45.85217" lon="3.54817">
        <ele>382.2</ele>
        <time>2026-05-10T08:00:35.000Z</time>
      </trkpt>
      <trkpt lat="45.85221" lon="3.54813">
        <ele>382.3</ele>
        <time>2026-05-10T08:00:36.000Z</time>
      </trkpt>
      <trkpt lat="45.85223" lon="3.54818">
        <ele>383.1</ele>
        <time>2026-05-10T08:00:37.000Z</time>
      </trkpt>
      <trkpt lat="45.85224" lon="3.5482">
        <ele>383.4</ele>
        <time>2026-05-10T08:00:38.000Z</time>
      </trkpt>
      <trkpt lat="45.85225" lon="3.54822">
        <ele>383.7</ele>
        <time>2026-05-10T08:00:39.000Z</time>
      </trkpt>
      <trkpt lat="45.85225" lon="3.54823">
        <ele>383.9</ele>
        <time>2026-05-10T08:00:40.000Z</time>
      </trkpt>
      <trkpt lat="45.85226" lon="3.54825">
        <ele>384.1</ele>
        <time>2026-05-10T08:00:41.000Z</time>
      </trkpt>
      <trkpt lat="45.85226" lon="3.54826">
        <ele>384.2</ele>
        <time>2026-05-10T08:00:42.000Z</time>
      </trkpt>
      <trkpt lat="45.85226" lon="3.54828">
        <ele>384.3</ele>
        <time>2026-05-10T08:00:43.000Z</time>
      </trkpt>
      <trkpt lat="45.85225" lon="3.54829">
        <ele>384.4</ele>
        <time>2026-05-10T08:00:44.000Z</time>
      </trkpt>
      <trkpt lat="45.85225" lon="3.54831">
        <ele>384.5</ele>
        <time>2026-05-10T08:00:45.000Z</time>
      </trkpt>
      <trkpt lat="45.85225" lon="3.54833">
        <ele>384.6</ele>
        <time>2026-05-10T08:00:46.000Z</time>
      </trkpt>
      <trkpt lat="45.85226" lon="3.54835">
        <ele>384.6</ele>
        <time>2026-05-10T08:00:47.000Z</time>
      </trkpt>
      <trkpt lat="45.85227" lon="3.54836">
        <ele>384.8</ele>
        <time>2026-05-10T08:00:48.000Z</time>
      </trkpt>
      <trkpt lat="45.85227" lon="3.54835">
        <ele>385</ele>
        <time>2026-05-10T08:00:49.000Z</time>
      </trkpt>
      <trkpt lat="45.85228" lon="3.54836">
        <ele>385.1</ele>
        <time>2026-05-10T08:00:50.000Z</time>
      </trkpt>
      <trkpt lat="45.85229" lon="3.54837">
        <ele>385.2</ele>
        <time>2026-05-10T08:00:51.000Z</time>
      </trkpt>
      <trkpt lat="45.8523" lon="3.54838">
        <ele>385.4</ele>
        <time>2026-05-10T08:00:52.000Z</time>
      </trkpt>
      <trkpt lat="45.85231" lon="3.54839">
        <ele>385.5</ele>
        <time>2026-05-10T08:00:53.000Z</time>
      </trkpt>
      <trkpt lat="45.85231" lon="3.54839">
        <ele>385.6</ele>
        <time>2026-05-10T08:00:54.000Z</time>
      </trkpt>
      <trkpt lat="45.85232" lon="3.5484">
        <ele>385.7</ele>
        <time>2026-05-10T08:00:55.000Z</time>
      </trkpt>
      <trkpt lat="45.85233" lon="3.54841">
        <ele>385.8</ele>
        <time>2026-05-10T08:00:56.000Z</time>
      </trkpt>
      <trkpt lat="45.85234" lon="3.54842">
        <ele>386</ele>
        <time>2026-05-10T08:00:57.000Z</time>
      </trkpt>
      <trkpt lat="45.85235" lon="3.54844">
        <ele>386.2</ele>
        <time>2026-05-10T08:00:58.000Z</time>
      </trkpt>
      <trkpt lat="45.85237" lon="3.54844">
        <ele>386.5</ele>
        <time>2026-05-10T08:00:59.000Z</time>
      </trkpt>
      <trkpt lat="45.85238" lon="3.54845">
        <ele>386.8</ele>
        <time>2026-05-10T08:01:00.000Z</time>
      </trkpt>
      <trkpt lat="45.85239" lon="3.54846">
        <ele>387</ele>
        <time>2026-05-10T08:01:01.000Z</time>
      </trkpt>
      <trkpt lat="45.8524" lon="3.54847">
        <ele>387.1</ele>
        <time>2026-05-10T08:01:02.000Z</time>
      </trkpt>
      <trkpt lat="45.85241" lon="3.54848">
        <ele>387.4</ele>
        <time>2026-05-10T08:01:03.000Z</time>
      </trkpt>
      <trkpt lat="45.85242" lon="3.54849">
        <ele>387.6</ele>
        <time>2026-05-10T08:01:04.000Z</time>
      </trkpt>
      <trkpt lat="45.85243" lon="3.54849">
        <ele>387.8</ele>
        <time>2026-05-10T08:01:05.000Z</time>
      </trkpt>
      <trkpt lat="45.85244" lon="3.5485">
        <ele>387.9</ele>
        <time>2026-05-10T08:01:06.000Z</time>
      </trkpt>
      <trkpt lat="45.85245" lon="3.5485">
        <ele>388.1</ele>
        <time>2026-05-10T08:01:07.000Z</time>
      </trkpt>
      <trkpt lat="45.85246" lon="3.54851">
        <ele>388.3</ele>
        <time>2026-05-10T08:01:08.000Z</time>
      </trkpt>
      <trkpt lat="45.85246" lon="3.54852">
        <ele>388.4</ele>
        <time>2026-05-10T08:01:09.000Z</time>
      </trkpt>
      <trkpt lat="45.85247" lon="3.54853">
        <ele>388.5</ele>
        <time>2026-05-10T08:01:10.000Z</time>
      </trkpt>
      <trkpt lat="45.85248" lon="3.54854">
        <ele>388.7</ele>
        <time>2026-05-10T08:01:11.000Z</time>
      </trkpt>
      <trkpt lat="45.85248" lon="3.54855">
        <ele>388.8</ele>
        <time>2026-05-10T08:01:12.000Z</time>
      </trkpt>
      <trkpt lat="45.85249" lon="3.54856">
        <ele>389</ele>
        <time>2026-05-10T08:01:13.000Z</time>
      </trkpt>
      <trkpt lat="45.8525" lon="3.54857">
        <ele>389.2</ele>
        <time>2026-05-10T08:01:14.000Z</time>
      </trkpt>
      <trkpt lat="45.85251" lon="3.54859">
        <ele>389.3</ele>
        <time>2026-05-10T08:01:15.000Z</time>
      </trkpt>
      <trkpt lat="45.85251" lon="3.54861">
        <ele>389.4</ele>
        <time>2026-05-10T08:01:16.000Z</time>
      </trkpt>
      <trkpt lat="45.85252" lon="3.54862">
        <ele>389.7</ele>
        <time>2026-05-10T08:01:17.000Z</time>
      </trkpt>
      <trkpt lat="45.85253" lon="3.54863">
        <ele>390.1</ele>
        <time>2026-05-10T08:01:18.000Z</time>
      </trkpt>
      <trkpt lat="45.85254" lon="3.54864">
        <ele>390.6</ele>
        <time>2026-05-10T08:01:19.000Z</time>
      </trkpt>
      <trkpt lat="45.85255" lon="3.54865">
        <ele>391</ele>
        <time>2026-05-10T08:01:20.000Z</time>
      </trkpt>
      <trkpt lat="45.85256" lon="3.54867">
        <ele>391.4</ele>
        <time>2026-05-10T08:01:21.000Z</time>
      </trkpt>
      <trkpt lat="45.85257" lon="3.54867">
        <ele>391.6</ele>
        <time>2026-05-10T08:01:22.000Z</time>
      </trkpt>
      <trkpt lat="45.85258" lon="3.54868">
        <ele>392</ele>
        <time>2026-05-10T08:01:23.000Z</time>
      </trkpt>
      <trkpt lat="45.85259" lon="3.5487">
        <ele>392.2</ele>
        <time>2026-05-10T08:01:24.000Z</time>
      </trkpt>
      <trkpt lat="45.85259" lon="3.54871">
        <ele>392.3</ele>
        <time>2026-05-10T08:01:25.000Z</time>
      </trkpt>
      <trkpt lat="45.85259" lon="3.54872">
        <ele>392.4</ele>
        <time>2026-05-10T08:01:26.000Z</time>
      </trkpt>
      <trkpt lat="45.8526" lon="3.54873">
        <ele>392.5</ele>
        <time>2026-05-10T08:01:27.000Z</time>
      </trkpt>
      <trkpt lat="45.85259" lon="3.54874">
        <ele>392.3</ele>
        <time>2026-05-10T08:01:28.000Z</time>
      </trkpt>
      <trkpt lat="45.8526" lon="3.54875">
        <ele>392.6</ele>
        <time>2026-05-10T08:01:29.000Z</time>
      </trkpt>
      <trkpt lat="45.85261" lon="3.54876">
        <ele>392.7</ele>
        <time>2026-05-10T08:01:30.000Z</time>
      </trkpt>
      <trkpt lat="45.85261" lon="3.54877">
        <ele>392.8</ele>
        <time>2026-05-10T08:01:31.000Z</time>
      </trkpt>
      <trkpt lat="45.85261" lon="3.54878">
        <ele>392.9</ele>
        <time>2026-05-10T08:01:32.000Z</time>
      </trkpt>
      <trkpt lat="45.85262" lon="3.5488">
        <ele>393.1</ele>
        <time>2026-05-10T08:01:33.000Z</time>
      </trkpt>
      <trkpt lat="45.85263" lon="3.54881">
        <ele>393.4</ele>
        <time>2026-05-10T08:01:34.000Z</time>
      </trkpt>
      <trkpt lat="45.85263" lon="3.54882">
        <ele>393.6</ele>
        <time>2026-05-10T08:01:35.000Z</time>
      </trkpt>
      <trkpt lat="45.85264" lon="3.54884">
        <ele>393.9</ele>
        <time>2026-05-10T08:01:36.000Z</time>
      </trkpt>
      <trkpt lat="45.85265" lon="3.54885">
        <ele>394.3</ele>
        <time>2026-05-10T08:01:37.000Z</time>
      </trkpt>
      <trkpt lat="45.85266" lon="3.54886">
        <ele>394.7</ele>
        <time>2026-05-10T08:01:38.000Z</time>
      </trkpt>
      <trkpt lat="45.85267" lon="3.54888">
        <ele>395.1</ele>
        <time>2026-05-10T08:01:39.000Z</time>
      </trkpt>
      <trkpt lat="45.85268" lon="3.54888">
        <ele>395.6</ele>
        <time>2026-05-10T08:01:40.000Z</time>
      </trkpt>
      <trkpt lat="45.85269" lon="3.54889">
        <ele>395.7</ele>
        <time>2026-05-10T08:01:41.000Z</time>
      </trkpt>
      <trkpt lat="45.8527" lon="3.54891">
        <ele>395.8</ele>
        <time>2026-05-10T08:01:42.000Z</time>
      </trkpt>
      <trkpt lat="45.85271" lon="3.54892">
        <ele>395.8</ele>
        <time>2026-05-10T08:01:43.000Z</time>
      </trkpt>
      <trkpt lat="45.85272" lon="3.54893">
        <ele>395.8</ele>
        <time>2026-05-10T08:01:44.000Z</time>
      </trkpt>
      <trkpt lat="45.85273" lon="3.54894">
        <ele>395.9</ele>
        <time>2026-05-10T08:01:45.000Z</time>
      </trkpt>
      <trkpt lat="45.85274" lon="3.54895">
        <ele>396.1</ele>
        <time>2026-05-10T08:01:46.000Z</time>
      </trkpt>
      <trkpt lat="45.85275" lon="3.54896">
        <ele>396.1</ele>
        <time>2026-05-10T08:01:47.000Z</time>
      </trkpt>
      <trkpt lat="45.85276" lon="3.54897">
        <ele>396.1</ele>
        <time>2026-05-10T08:01:48.000Z</time>
      </trkpt>
      <trkpt lat="45.85276" lon="3.54898">
        <ele>396.2</ele>
        <time>2026-05-10T08:01:49.000Z</time>
      </trkpt>
      <trkpt lat="45.85277" lon="3.54899">
        <ele>396.4</ele>
        <time>2026-05-10T08:01:50.000Z</time>
      </trkpt>
      <trkpt lat="45.85278" lon="3.549">
        <ele>396.1</ele>
        <time>2026-05-10T08:01:51.000Z</time>
      </trkpt>
      <trkpt lat="45.8528" lon="3.54901">
        <ele>395.9</ele>
        <time>2026-05-10T08:01:52.000Z</time>
      </trkpt>
      <trkpt lat="45.85281" lon="3.54902">
        <ele>395.7</ele>
        <time>2026-05-10T08:01:53.000Z</time>
      </trkpt>
      <trkpt lat="45.85282" lon="3.54903">
        <ele>395.4</ele>
        <time>2026-05-10T08:01:54.000Z</time>
      </trkpt>
      <trkpt lat="45.85282" lon="3.54904">
        <ele>395.2</ele>
        <time>2026-05-10T08:01:55.000Z</time>
      </trkpt>
      <trkpt lat="45.85283" lon="3.54905">
        <ele>394.9</ele>
        <time>2026-05-10T08:01:56.000Z</time>
      </trkpt>
      <trkpt lat="45.85284" lon="3.54906">
        <ele>394.6</ele>
        <time>2026-05-10T08:01:57.000Z</time>
      </trkpt>
      <trkpt lat="45.85285" lon="3.54907">
        <ele>394.2</ele>
        <time>2026-05-10T08:01:58.000Z</time>
      </trkpt>
      <trkpt lat="45.85285" lon="3.54908">
        <ele>393.9</ele>
        <time>2026-05-10T08:01:59.000Z</time>
      </trkpt>
      <trkpt lat="45.85286" lon="3.54908">
        <ele>393.7</ele>
        <time>2026-05-10T08:02:00.000Z</time>
      </trkpt>
      <trkpt lat="45.85286" lon="3.54909">
        <ele>393.5</ele>
        <time>2026-05-10T08:02:01.000Z</time>
      </trkpt>
      <trkpt lat="45.85287" lon="3.54909">
        <ele>393.4</ele>
        <time>2026-05-10T08:02:02.000Z</time>
      </trkpt>
      <trkpt lat="45.85287" lon="3.5491">
        <ele>393.2</ele>
        <time>2026-05-10T08:02:03.000Z</time>
      </trkpt>
      <trkpt lat="45.85287" lon="3.5491">
        <ele>393.3</ele>
        <time>2026-05-10T08:02:04.000Z</time>
      </trkpt>
      <trkpt lat="45.85288" lon="3.5491">
        <ele>393.5</ele>
        <time>2026-05-10T08:02:05.000Z</time>
      </trkpt>
      <trkpt lat="45.85288" lon="3.5491">
        <ele>393.2</ele>
        <time>2026-05-10T08:02:06.000Z</time>
      </trkpt>
      <trkpt lat="45.85287" lon="3.54911">
        <ele>392.9</ele>
        <time>2026-05-10T08:02:07.000Z</time>
      </trkpt>
      <trkpt lat="45.85287" lon="3.54911">
        <ele>393</ele>
        <time>2026-05-10T08:02:08.000Z</time>
      </trkpt>
      <trkpt lat="45.85288" lon="3.54911">
        <ele>392.9</ele>
        <time>2026-05-10T08:02:09.000Z</time>
      </trkpt>
      <trkpt lat="45.85288" lon="3.54911">
        <ele>392.8</ele>
        <time>2026-05-10T08:02:10.000Z</time>
      </trkpt>
      <trkpt lat="45.85289" lon="3.54912">
        <ele>392.8</ele>
        <time>2026-05-10T08:02:11.000Z</time>
      </trkpt>
      <trkpt lat="45.8529" lon="3.54912">
        <ele>392.8</ele>
        <time>2026-05-10T08:02:12.000Z</time>
      </trkpt>
      <trkpt lat="45.8529" lon="3.54912">
        <ele>392.6</ele>
        <time>2026-05-10T08:02:13.000Z</time>
      </trkpt>
      <trkpt lat="45.85291" lon="3.54912">
        <ele>392.6</ele>
        <time>2026-05-10T08:02:14.000Z</time>
      </trkpt>
      <trkpt lat="45.85291" lon="3.54913">
        <ele>392.6</ele>
        <time>2026-05-10T08:02:15.000Z</time>
      </trkpt>
      <trkpt lat="45.85291" lon="3.54913">
        <ele>392.5</ele>
        <time>2026-05-10T08:02:16.000Z</time>
      </trkpt>
      <trkpt lat="45.85292" lon="3.54913">
        <ele>392.5</ele>
        <time>2026-05-10T08:02:17.000Z</time>
      </trkpt>
      <trkpt lat="45.85292" lon="3.54913">
        <ele>392.5</ele>
        <time>2026-05-10T08:02:18.000Z</time>
      </trkpt>
      <trkpt lat="45.85292" lon="3.54913">
        <ele>392.5</ele>
        <time>2026-05-10T08:02:19.000Z</time>
      </trkpt>
      <trkpt lat="45.85293" lon="3.54913">
        <ele>392.6</ele>
        <time>2026-05-10T08:02:20.000Z</time>
      </trkpt>
      <trkpt lat="45.85293" lon="3.54913">
        <ele>392.7</ele>
        <time>2026-05-10T08:02:21.000Z</time>
      </trkpt>
      <trkpt lat="45.85294" lon="3.54913">
        <ele>392.8</ele>
        <time>2026-05-10T08:02:22.000Z</time>
      </trkpt>
      <trkpt lat="45.85295" lon="3.54913">
        <ele>392.9</ele>
        <time>2026-05-10T08:02:23.000Z</time>
      </trkpt>
      <trkpt lat="45.85297" lon="3.54912">
        <ele>393.1</ele>
        <time>2026-05-10T08:02:24.000Z</time>
      </trkpt>
      <trkpt lat="45.85298" lon="3.54913">
        <ele>393.2</ele>
        <time>2026-05-10T08:02:25.000Z</time>
      </trkpt>
      <trkpt lat="45.85299" lon="3.54912">
        <ele>393.4</ele>
        <time>2026-05-10T08:02:26.000Z</time>
      </trkpt>
      <trkpt lat="45.853" lon="3.54912">
        <ele>393.7</ele>
        <time>2026-05-10T08:02:27.000Z</time>
      </trkpt>
      <trkpt lat="45.85301" lon="3.54911">
        <ele>393.9</ele>
        <time>2026-05-10T08:02:28.000Z</time>
      </trkpt>
      <trkpt lat="45.85302" lon="3.54911">
        <ele>394.1</ele>
        <time>2026-05-10T08:02:29.000Z</time>
      </trkpt>
      <trkpt lat="45.85303" lon="3.54911">
        <ele>394.4</ele>
        <time>2026-05-10T08:02:30.000Z</time>
      </trkpt>
      <trkpt lat="45.85304" lon="3.5491">
        <ele>394.6</ele>
        <time>2026-05-10T08:02:31.000Z</time>
      </trkpt>
      <trkpt lat="45.85305" lon="3.5491">
        <ele>394.9</ele>
        <time>2026-05-10T08:02:32.000Z</time>
      </trkpt>
      <trkpt lat="45.85306" lon="3.54909">
        <ele>395.2</ele>
        <time>2026-05-10T08:02:33.000Z</time>
      </trkpt>
      <trkpt lat="45.85307" lon="3.54909">
        <ele>395.2</ele>
        <time>2026-05-10T08:02:34.000Z</time>
      </trkpt>
      <trkpt lat="45.85308" lon="3.54908">
        <ele>395.3</ele>
        <time>2026-05-10T08:02:35.000Z</time>
      </trkpt>
      <trkpt lat="45.85309" lon="3.54908">
        <ele>395.3</ele>
        <time>2026-05-10T08:02:36.000Z</time>
      </trkpt>
      <trkpt lat="45.8531" lon="3.54907">
        <ele>395.5</ele>
        <time>2026-05-10T08:02:37.000Z</time>
      </trkpt>
      <trkpt lat="45.85311" lon="3.54907">
        <ele>395.5</ele>
        <time>2026-05-10T08:02:38.000Z</time>
      </trkpt>
      <trkpt lat="45.85312" lon="3.54906">
        <ele>395.5</ele>
        <time>2026-05-10T08:02:39.000Z</time>
      </trkpt>
      <trkpt lat="45.85313" lon="3.54906">
        <ele>395.4</ele>
        <time>2026-05-10T08:02:40.000Z</time>
      </trkpt>
      <trkpt lat="45.85314" lon="3.54906">
        <ele>395.5</ele>
        <time>2026-05-10T08:02:41.000Z</time>
      </trkpt>
      <trkpt lat="45.85314" lon="3.54906">
        <ele>395.5</ele>
        <time>2026-05-10T08:02:42.000Z</time>
      </trkpt>
      <trkpt lat="45.85315" lon="3.54905">
        <ele>395.5</ele>
        <time>2026-05-10T08:02:43.000Z</time>
      </trkpt>
      <trkpt lat="45.85315" lon="3.54905">
        <ele>395.5</ele>
        <time>2026-05-10T08:02:44.000Z</time>
      </trkpt>
      <trkpt lat="45.85316" lon="3.54905">
        <ele>395.5</ele>
        <time>2026-05-10T08:02:45.000Z</time>
      </trkpt>
      <trkpt lat="45.85317" lon="3.54904">
        <ele>395.5</ele>
        <time>2026-05-10T08:02:46.000Z</time>
      </trkpt>
      <trkpt lat="45.85318" lon="3.54903">
        <ele>395.6</ele>
        <time>2026-05-10T08:02:47.000Z</time>
      </trkpt>
      <trkpt lat="45.8532" lon="3.54902">
        <ele>395.7</ele>
        <time>2026-05-10T08:02:48.000Z</time>
      </trkpt>
      <trkpt lat="45.85321" lon="3.54902">
        <ele>395.7</ele>
        <time>2026-05-10T08:02:49.000Z</time>
      </trkpt>
      <trkpt lat="45.85322" lon="3.54901">
        <ele>395.7</ele>
        <time>2026-05-10T08:02:50.000Z</time>
      </trkpt>
      <trkpt lat="45.85323" lon="3.549">
        <ele>395.7</ele>
        <time>2026-05-10T08:02:51.000Z</time>
      </trkpt>
      <trkpt lat="45.85324" lon="3.54899">
        <ele>395.7</ele>
        <time>2026-05-10T08:02:52.000Z</time>
      </trkpt>
      <trkpt lat="45.85326" lon="3.54897">
        <ele>395.9</ele>
        <time>2026-05-10T08:02:53.000Z</time>
      </trkpt>
      <trkpt lat="45.85327" lon="3.54896">
        <ele>396</ele>
        <time>2026-05-10T08:02:54.000Z</time>
      </trkpt>
      <trkpt lat="45.85328" lon="3.54895">
        <ele>396</ele>
        <time>2026-05-10T08:02:55.000Z</time>
      </trkpt>
      <trkpt lat="45.85329" lon="3.54894">
        <ele>395.8</ele>
        <time>2026-05-10T08:02:56.000Z</time>
      </trkpt>
      <trkpt lat="45.8533" lon="3.54894">
        <ele>395.8</ele>
        <time>2026-05-10T08:02:57.000Z</time>
      </trkpt>
      <trkpt lat="45.85331" lon="3.54893">
        <ele>395.8</ele>
        <time>2026-05-10T08:02:58.000Z</time>
      </trkpt>
      <trkpt lat="45.85332" lon="3.54892">
        <ele>395.8</ele>
        <time>2026-05-10T08:02:59.000Z</time>
      </trkpt>
      <trkpt lat="45.85333" lon="3.54891">
        <ele>395.7</ele>
        <time>2026-05-10T08:03:00.000Z</time>
      </trkpt>
      <trkpt lat="45.85334" lon="3.54891">
        <ele>395.6</ele>
        <time>2026-05-10T08:03:01.000Z</time>
      </trkpt>
      <trkpt lat="45.85335" lon="3.5489">
        <ele>395.7</ele>
        <time>2026-05-10T08:03:02.000Z</time>
      </trkpt>
      <trkpt lat="45.85337" lon="3.5489">
        <ele>395.7</ele>
        <time>2026-05-10T08:03:03.000Z</time>
      </trkpt>
      <trkpt lat="45.85338" lon="3.54889">
        <ele>395.8</ele>
        <time>2026-05-10T08:03:04.000Z</time>
      </trkpt>
      <trkpt lat="45.85339" lon="3.54889">
        <ele>395.9</ele>
        <time>2026-05-10T08:03:05.000Z</time>
      </trkpt>
      <trkpt lat="45.85341" lon="3.54888">
        <ele>396</ele>
        <time>2026-05-10T08:03:06.000Z</time>
      </trkpt>
      <trkpt lat="45.85342" lon="3.54888">
        <ele>396</ele>
        <time>2026-05-10T08:03:07.000Z</time>
      </trkpt>
      <trkpt lat="45.85343" lon="3.54888">
        <ele>396</ele>
        <time>2026-05-10T08:03:08.000Z</time>
      </trkpt>
      <trkpt lat="45.85344" lon="3.54887">
        <ele>396.1</ele>
        <time>2026-05-10T08:03:09.000Z</time>
      </trkpt>
      <trkpt lat="45.85345" lon="3.54887">
        <ele>396.1</ele>
        <time>2026-05-10T08:03:10.000Z</time>
      </trkpt>
      <trkpt lat="45.85346" lon="3.54887">
        <ele>396</ele>
        <time>2026-05-10T08:03:11.000Z</time>
      </trkpt>
      <trkpt lat="45.85347" lon="3.54887">
        <ele>396</ele>
        <time>2026-05-10T08:03:12.000Z</time>
      </trkpt>
      <trkpt lat="45.85348" lon="3.54887">
        <ele>395.9</ele>
        <time>2026-05-10T08:03:13.000Z</time>
      </trkpt>
      <trkpt lat="45.85349" lon="3.54887">
        <ele>396</ele>
        <time>2026-05-10T08:03:14.000Z</time>
      </trkpt>
      <trkpt lat="45.8535" lon="3.54886">
        <ele>396.2</ele>
        <time>2026-05-10T08:03:15.000Z</time>
      </trkpt>
      <trkpt lat="45.85352" lon="3.54885">
        <ele>396.3</ele>
        <time>2026-05-10T08:03:16.000Z</time>
      </trkpt>
      <trkpt lat="45.85353" lon="3.54885">
        <ele>396.3</ele>
        <time>2026-05-10T08:03:17.000Z</time>
      </trkpt>
      <trkpt lat="45.85354" lon="3.54885">
        <ele>396.3</ele>
        <time>2026-05-10T08:03:18.000Z</time>
      </trkpt>
      <trkpt lat="45.85354" lon="3.54884">
        <ele>396.5</ele>
        <time>2026-05-10T08:03:19.000Z</time>
      </trkpt>
      <trkpt lat="45.85356" lon="3.54884">
        <ele>396.6</ele>
        <time>2026-05-10T08:03:20.000Z</time>
      </trkpt>
      <trkpt lat="45.85357" lon="3.54883">
        <ele>396.7</ele>
        <time>2026-05-10T08:03:21.000Z</time>
      </trkpt>
      <trkpt lat="45.85358" lon="3.54882">
        <ele>396.8</ele>
        <time>2026-05-10T08:03:22.000Z</time>
      </trkpt>
      <trkpt lat="45.85359" lon="3.54882">
        <ele>396.9</ele>
        <time>2026-05-10T08:03:23.000Z</time>
      </trkpt>
      <trkpt lat="45.8536" lon="3.54882">
        <ele>396.9</ele>
        <time>2026-05-10T08:03:24.000Z</time>
      </trkpt>
      <trkpt lat="45.85361" lon="3.54881">
        <ele>397</ele>
        <time>2026-05-10T08:03:25.000Z</time>
      </trkpt>
      <trkpt lat="45.85361" lon="3.5488">
        <ele>397.3</ele>
        <time>2026-05-10T08:03:26.000Z</time>
      </trkpt>
      <trkpt lat="45.85362" lon="3.54879">
        <ele>397.4</ele>
        <time>2026-05-10T08:03:27.000Z</time>
      </trkpt>
      <trkpt lat="45.85362" lon="3.54878">
        <ele>397.6</ele>
        <time>2026-05-10T08:03:28.000Z</time>
      </trkpt>
      <trkpt lat="45.85363" lon="3.54877">
        <ele>397.9</ele>
        <time>2026-05-10T08:03:29.000Z</time>
      </trkpt>
      <trkpt lat="45.85363" lon="3.54877">
        <ele>398</ele>
        <time>2026-05-10T08:03:30.000Z</time>
      </trkpt>
      <trkpt lat="45.85363" lon="3.54876">
        <ele>398.2</ele>
        <time>2026-05-10T08:03:31.000Z</time>
      </trkpt>
      <trkpt lat="45.85362" lon="3.54874">
        <ele>398.7</ele>
        <time>2026-05-10T08:03:32.000Z</time>
      </trkpt>
      <trkpt lat="45.85362" lon="3.54873">
        <ele>399</ele>
        <time>2026-05-10T08:03:33.000Z</time>
      </trkpt>
      <trkpt lat="45.85362" lon="3.54872">
        <ele>399.3</ele>
        <time>2026-05-10T08:03:34.000Z</time>
      </trkpt>
      <trkpt lat="45.85362" lon="3.54871">
        <ele>399.5</ele>
        <time>2026-05-10T08:03:35.000Z</time>
      </trkpt>
      <trkpt lat="45.85362" lon="3.5487">
        <ele>399.6</ele>
        <time>2026-05-10T08:03:36.000Z</time>
      </trkpt>
      <trkpt lat="45.85363" lon="3.5487">
        <ele>399.8</ele>
        <time>2026-05-10T08:03:37.000Z</time>
      </trkpt>
      <trkpt lat="45.85362" lon="3.54869">
        <ele>400</ele>
        <time>2026-05-10T08:03:38.000Z</time>
      </trkpt>
      <trkpt lat="45.85363" lon="3.54868">
        <ele>400.2</ele>
        <time>2026-05-10T08:03:39.000Z</time>
      </trkpt>
      <trkpt lat="45.85363" lon="3.54868">
        <ele>400.2</ele>
        <time>2026-05-10T08:03:40.000Z</time>
      </trkpt>
      <trkpt lat="45.85363" lon="3.54867">
        <ele>400.4</ele>
        <time>2026-05-10T08:03:41.000Z</time>
      </trkpt>
      <trkpt lat="45.85364" lon="3.54866">
        <ele>400.7</ele>
        <time>2026-05-10T08:03:42.000Z</time>
      </trkpt>
      <trkpt lat="45.85364" lon="3.54865">
        <ele>400.8</ele>
        <time>2026-05-10T08:03:43.000Z</time>
      </trkpt>
      <trkpt lat="45.85364" lon="3.54864">
        <ele>401.2</ele>
        <time>2026-05-10T08:03:44.000Z</time>
      </trkpt>
      <trkpt lat="45.85364" lon="3.54863">
        <ele>401.4</ele>
        <time>2026-05-10T08:03:45.000Z</time>
      </trkpt>
      <trkpt lat="45.85364" lon="3.54862">
        <ele>401.6</ele>
        <time>2026-05-10T08:03:46.000Z</time>
      </trkpt>
      <trkpt lat="45.85365" lon="3.5486">
        <ele>401.8</ele>
        <time>2026-05-10T08:03:47.000Z</time>
      </trkpt>
      <trkpt lat="45.85365" lon="3.54859">
        <ele>401.8</ele>
        <time>2026-05-10T08:03:48.000Z</time>
      </trkpt>
      <trkpt lat="45.85366" lon="3.54859">
        <ele>401.8</ele>
        <time>2026-05-10T08:03:49.000Z</time>
      </trkpt>
      <trkpt lat="45.85366" lon="3.54859">
        <ele>401.8</ele>
        <time>2026-05-10T08:03:50.000Z</time>
      </trkpt>
      <trkpt lat="45.85367" lon="3.54859">
        <ele>401.7</ele>
        <time>2026-05-10T08:03:51.000Z</time>
      </trkpt>
      <trkpt lat="45.85367" lon="3.54856">
        <ele>401.9</ele>
        <time>2026-05-10T08:03:52.000Z</time>
      </trkpt>
      <trkpt lat="45.85368" lon="3.54855">
        <ele>401.9</ele>
        <time>2026-05-10T08:03:53.000Z</time>
      </trkpt>
      <trkpt lat="45.85368" lon="3.54854">
        <ele>402</ele>
        <time>2026-05-10T08:03:54.000Z</time>
      </trkpt>
      <trkpt lat="45.85368" lon="3.54852">
        <ele>402.1</ele>
        <time>2026-05-10T08:03:55.000Z</time>
      </trkpt>
      <trkpt lat="45.85365" lon="3.54855">
        <ele>402.1</ele>
        <time>2026-05-10T08:03:56.000Z</time>
      </trkpt>
      <trkpt lat="45.85364" lon="3.54853">
        <ele>402.2</ele>
        <time>2026-05-10T08:03:57.000Z</time>
      </trkpt>
      <trkpt lat="45.85364" lon="3.54853">
        <ele>402.2</ele>
        <time>2026-05-10T08:03:58.000Z</time>
      </trkpt>
      <trkpt lat="45.85363" lon="3.54852">
        <ele>402.3</ele>
        <time>2026-05-10T08:03:59.000Z</time>
      </trkpt>
      <trkpt lat="45.85363" lon="3.5485">
        <ele>402.4</ele>
        <time>2026-05-10T08:04:00.000Z</time>
      </trkpt>
      <trkpt lat="45.85362" lon="3.54851">
        <ele>402.4</ele>
        <time>2026-05-10T08:04:01.000Z</time>
      </trkpt>
      <trkpt lat="45.85361" lon="3.5485">
        <ele>402.4</ele>
        <time>2026-05-10T08:04:02.000Z</time>
      </trkpt>
      <trkpt lat="45.8536" lon="3.5485">
        <ele>402.5</ele>
        <time>2026-05-10T08:04:03.000Z</time>
      </trkpt>
      <trkpt lat="45.85359" lon="3.5485">
        <ele>402.6</ele>
        <time>2026-05-10T08:04:04.000Z</time>
      </trkpt>
      <trkpt lat="45.85358" lon="3.54849">
        <ele>402.6</ele>
        <time>2026-05-10T08:04:05.000Z</time>
      </trkpt>
      <trkpt lat="45.85357" lon="3.54849">
        <ele>402.7</ele>
        <time>2026-05-10T08:04:06.000Z</time>
      </trkpt>
      <trkpt lat="45.85356" lon="3.54848">
        <ele>402.8</ele>
        <time>2026-05-10T08:04:07.000Z</time>
      </trkpt>
      <trkpt lat="45.85355" lon="3.54848">
        <ele>402.8</ele>
        <time>2026-05-10T08:04:08.000Z</time>
      </trkpt>
      <trkpt lat="45.85354" lon="3.54849">
        <ele>402.9</ele>
        <time>2026-05-10T08:04:09.000Z</time>
      </trkpt>
      <trkpt lat="45.85353" lon="3.5485">
        <ele>402.9</ele>
        <time>2026-05-10T08:04:10.000Z</time>
      </trkpt>
      <trkpt lat="45.85351" lon="3.54851">
        <ele>403</ele>
        <time>2026-05-10T08:04:11.000Z</time>
      </trkpt>
      <trkpt lat="45.85351" lon="3.54851">
        <ele>403.1</ele>
        <time>2026-05-10T08:04:12.000Z</time>
      </trkpt>
      <trkpt lat="45.85351" lon="3.54852">
        <ele>403.1</ele>
        <time>2026-05-10T08:04:13.000Z</time>
      </trkpt>
      <trkpt lat="45.85351" lon="3.54853">
        <ele>403.1</ele>
        <time>2026-05-10T08:04:14.000Z</time>
      </trkpt>
      <trkpt lat="45.8535" lon="3.54854">
        <ele>403.1</ele>
        <time>2026-05-10T08:04:15.000Z</time>
      </trkpt>
      <trkpt lat="45.8535" lon="3.54855">
        <ele>403.2</ele>
        <time>2026-05-10T08:04:16.000Z</time>
      </trkpt>
      <trkpt lat="45.85349" lon="3.54857">
        <ele>403.2</ele>
        <time>2026-05-10T08:04:17.000Z</time>
      </trkpt>
      <trkpt lat="45.85349" lon="3.54858">
        <ele>403.3</ele>
        <time>2026-05-10T08:04:18.000Z</time>
      </trkpt>
      <trkpt lat="45.85348" lon="3.5486">
        <ele>403.4</ele>
        <time>2026-05-10T08:04:19.000Z</time>
      </trkpt>
      <trkpt lat="45.85347" lon="3.54861">
        <ele>403.5</ele>
        <time>2026-05-10T08:04:20.000Z</time>
      </trkpt>
      <trkpt lat="45.85347" lon="3.54863">
        <ele>403.1</ele>
        <time>2026-05-10T08:04:21.000Z</time>
      </trkpt>
      <trkpt lat="45.85346" lon="3.54865">
        <ele>402.6</ele>
        <time>2026-05-10T08:04:22.000Z</time>
      </trkpt>
      <trkpt lat="45.85345" lon="3.54866">
        <ele>402.4</ele>
        <time>2026-05-10T08:04:23.000Z</time>
      </trkpt>
      <trkpt lat="45.85345" lon="3.54868">
        <ele>401.9</ele>
        <time>2026-05-10T08:04:24.000Z</time>
      </trkpt>
      <trkpt lat="45.85344" lon="3.54869">
        <ele>401.4</ele>
        <time>2026-05-10T08:04:25.000Z</time>
      </trkpt>
      <trkpt lat="45.85344" lon="3.5487">
        <ele>401.3</ele>
        <time>2026-05-10T08:04:26.000Z</time>
      </trkpt>
      <trkpt lat="45.85343" lon="3.5487">
        <ele>401.2</ele>
        <time>2026-05-10T08:04:27.000Z</time>
      </trkpt>
      <trkpt lat="45.85342" lon="3.54872">
        <ele>400.9</ele>
        <time>2026-05-10T08:04:28.000Z</time>
      </trkpt>
      <trkpt lat="45.85341" lon="3.54873">
        <ele>400.6</ele>
        <time>2026-05-10T08:04:29.000Z</time>
      </trkpt>
      <trkpt lat="45.85339" lon="3.54874">
        <ele>400.4</ele>
        <time>2026-05-10T08:04:30.000Z</time>
      </trkpt>
      <trkpt lat="45.85338" lon="3.54875">
        <ele>400.3</ele>
        <time>2026-05-10T08:04:31.000Z</time>
      </trkpt>
      <trkpt lat="45.85337" lon="3.54876">
        <ele>400.1</ele>
        <time>2026-05-10T08:04:32.000Z</time>
      </trkpt>
      <trkpt lat="45.85335" lon="3.54876">
        <ele>399.9</ele>
        <time>2026-05-10T08:04:33.000Z</time>
      </trkpt>
      <trkpt lat="45.85334" lon="3.54877">
        <ele>399.9</ele>
        <time>2026-05-10T08:04:34.000Z</time>
      </trkpt>
      <trkpt lat="45.85333" lon="3.54878">
        <ele>399.7</ele>
        <time>2026-05-10T08:04:35.000Z</time>
      </trkpt>
      <trkpt lat="45.85331" lon="3.54879">
        <ele>399.6</ele>
        <time>2026-05-10T08:04:36.000Z</time>
      </trkpt>
      <trkpt lat="45.8533" lon="3.5488">
        <ele>399.6</ele>
        <time>2026-05-10T08:04:37.000Z</time>
      </trkpt>
      <trkpt lat="45.85329" lon="3.54881">
        <ele>399.7</ele>
        <time>2026-05-10T08:04:38.000Z</time>
      </trkpt>
      <trkpt lat="45.85327" lon="3.54881">
        <ele>399.8</ele>
        <time>2026-05-10T08:04:39.000Z</time>
      </trkpt>
      <trkpt lat="45.85326" lon="3.54882">
        <ele>399.9</ele>
        <time>2026-05-10T08:04:40.000Z</time>
      </trkpt>
      <trkpt lat="45.85325" lon="3.54882">
        <ele>400.1</ele>
        <time>2026-05-10T08:04:41.000Z</time>
      </trkpt>
      <trkpt lat="45.85324" lon="3.54881">
        <ele>400.6</ele>
        <time>2026-05-10T08:04:42.000Z</time>
      </trkpt>
      <trkpt lat="45.85323" lon="3.5488">
        <ele>400.9</ele>
        <time>2026-05-10T08:04:43.000Z</time>
      </trkpt>
      <trkpt lat="45.85322" lon="3.54879">
        <ele>401.2</ele>
        <time>2026-05-10T08:04:44.000Z</time>
      </trkpt>
      <trkpt lat="45.85322" lon="3.54878">
        <ele>401.5</ele>
        <time>2026-05-10T08:04:45.000Z</time>
      </trkpt>
      <trkpt lat="45.85322" lon="3.54876">
        <ele>401.9</ele>
        <time>2026-05-10T08:04:46.000Z</time>
      </trkpt>
      <trkpt lat="45.85321" lon="3.54874">
        <ele>402.4</ele>
        <time>2026-05-10T08:04:47.000Z</time>
      </trkpt>
      <trkpt lat="45.85321" lon="3.54873">
        <ele>402.6</ele>
        <time>2026-05-10T08:04:48.000Z</time>
      </trkpt>
      <trkpt lat="45.85321" lon="3.54872">
        <ele>402.9</ele>
        <time>2026-05-10T08:04:49.000Z</time>
      </trkpt>
      <trkpt lat="45.85321" lon="3.5487">
        <ele>403.2</ele>
        <time>2026-05-10T08:04:50.000Z</time>
      </trkpt>
      <trkpt lat="45.85321" lon="3.54869">
        <ele>403.4</ele>
        <time>2026-05-10T08:04:51.000Z</time>
      </trkpt>
      <trkpt lat="45.85321" lon="3.54868">
        <ele>403.8</ele>
        <time>2026-05-10T08:04:52.000Z</time>
      </trkpt>
      <trkpt lat="45.8532" lon="3.54865">
        <ele>404.3</ele>
        <time>2026-05-10T08:04:53.000Z</time>
      </trkpt>
      <trkpt lat="45.8532" lon="3.54864">
        <ele>404.4</ele>
        <time>2026-05-10T08:04:54.000Z</time>
      </trkpt>
      <trkpt lat="45.8532" lon="3.54862">
        <ele>404.9</ele>
        <time>2026-05-10T08:04:55.000Z</time>
      </trkpt>
      <trkpt lat="45.8532" lon="3.54861">
        <ele>405</ele>
        <time>2026-05-10T08:04:56.000Z</time>
      </trkpt>
      <trkpt lat="45.85321" lon="3.5486">
        <ele>404.9</ele>
        <time>2026-05-10T08:04:57.000Z</time>
      </trkpt>
      <trkpt lat="45.85321" lon="3.5486">
        <ele>404.9</ele>
        <time>2026-05-10T08:04:58.000Z</time>
      </trkpt>
      <trkpt lat="45.85321" lon="3.5486">
        <ele>404.9</ele>
        <time>2026-05-10T08:04:59.000Z</time>
      </trkpt>
      <trkpt lat="45.85321" lon="3.5486">
        <ele>404.9</ele>
        <time>2026-05-10T08:05:00.000Z</time>
      </trkpt>
      <trkpt lat="45.85321" lon="3.5486">
        <ele>404.9</ele>
        <time>2026-05-10T08:05:01.000Z</time>
      </trkpt>
      <trkpt lat="45.85321" lon="3.5486">
        <ele>404.9</ele>
        <time>2026-05-10T08:05:02.000Z</time>
      </trkpt>
      <trkpt lat="45.85321" lon="3.54861">
        <ele>405</ele>
        <time>2026-05-10T08:05:03.000Z</time>
      </trkpt>
      <trkpt lat="45.85321" lon="3.54861">
        <ele>405</ele>
        <time>2026-05-10T08:05:04.000Z</time>
      </trkpt>
      <trkpt lat="45.85321" lon="3.54861">
        <ele>405</ele>
        <time>2026-05-10T08:05:05.000Z</time>
      </trkpt>
      <trkpt lat="45.85321" lon="3.54861">
        <ele>405</ele>
        <time>2026-05-10T08:05:06.000Z</time>
      </trkpt>
      <trkpt lat="45.85321" lon="3.5486">
        <ele>404.9</ele>
        <time>2026-05-10T08:05:07.000Z</time>
      </trkpt>
      <trkpt lat="45.85322" lon="3.54859">
        <ele>404.9</ele>
        <time>2026-05-10T08:05:08.000Z</time>
      </trkpt>
      <trkpt lat="45.85322" lon="3.54857">
        <ele>404.8</ele>
        <time>2026-05-10T08:05:09.000Z</time>
      </trkpt>
      <trkpt lat="45.85321" lon="3.54855">
        <ele>404.7</ele>
        <time>2026-05-10T08:05:10.000Z</time>
      </trkpt>
      <trkpt lat="45.85321" lon="3.54853">
        <ele>404.6</ele>
        <time>2026-05-10T08:05:11.000Z</time>
      </trkpt>
      <trkpt lat="45.85321" lon="3.54853">
        <ele>404.5</ele>
        <time>2026-05-10T08:05:12.000Z</time>
      </trkpt>
      <trkpt lat="45.85321" lon="3.54852">
        <ele>404.5</ele>
        <time>2026-05-10T08:05:13.000Z</time>
      </trkpt>
      <trkpt lat="45.85321" lon="3.54851">
        <ele>404.4</ele>
        <time>2026-05-10T08:05:14.000Z</time>
      </trkpt>
      <trkpt lat="45.85321" lon="3.5485">
        <ele>404.4</ele>
        <time>2026-05-10T08:05:15.000Z</time>
      </trkpt>
      <trkpt lat="45.85322" lon="3.54849">
        <ele>404.3</ele>
        <time>2026-05-10T08:05:16.000Z</time>
      </trkpt>
      <trkpt lat="45.85322" lon="3.54848">
        <ele>404.3</ele>
        <time>2026-05-10T08:05:17.000Z</time>
      </trkpt>
      <trkpt lat="45.85322" lon="3.54847">
        <ele>404.2</ele>
        <time>2026-05-10T08:05:18.000Z</time>
      </trkpt>
      <trkpt lat="45.85322" lon="3.54846">
        <ele>404.1</ele>
        <time>2026-05-10T08:05:19.000Z</time>
      </trkpt>
      <trkpt lat="45.85321" lon="3.54845">
        <ele>404.1</ele>
        <time>2026-05-10T08:05:20.000Z</time>
      </trkpt>
      <trkpt lat="45.8532" lon="3.54844">
        <ele>404</ele>
        <time>2026-05-10T08:05:21.000Z</time>
      </trkpt>
      <trkpt lat="45.85319" lon="3.54842">
        <ele>404</ele>
        <time>2026-05-10T08:05:22.000Z</time>
      </trkpt>
      <trkpt lat="45.85317" lon="3.5484">
        <ele>404</ele>
        <time>2026-05-10T08:05:23.000Z</time>
      </trkpt>
      <trkpt lat="45.85316" lon="3.54839">
        <ele>403.9</ele>
        <time>2026-05-10T08:05:24.000Z</time>
      </trkpt>
      <trkpt lat="45.85315" lon="3.54837">
        <ele>403.9</ele>
        <time>2026-05-10T08:05:25.000Z</time>
      </trkpt>
      <trkpt lat="45.85314" lon="3.54836">
        <ele>403.8</ele>
        <time>2026-05-10T08:05:26.000Z</time>
      </trkpt>
      <trkpt lat="45.85313" lon="3.54834">
        <ele>403.8</ele>
        <time>2026-05-10T08:05:27.000Z</time>
      </trkpt>
      <trkpt lat="45.85313" lon="3.54832">
        <ele>403.6</ele>
        <time>2026-05-10T08:05:28.000Z</time>
      </trkpt>
      <trkpt lat="45.85313" lon="3.5483">
        <ele>403.3</ele>
        <time>2026-05-10T08:05:29.000Z</time>
      </trkpt>
      <trkpt lat="45.85311" lon="3.54826">
        <ele>402.7</ele>
        <time>2026-05-10T08:05:30.000Z</time>
      </trkpt>
      <trkpt lat="45.85311" lon="3.54824">
        <ele>402.5</ele>
        <time>2026-05-10T08:05:31.000Z</time>
      </trkpt>
      <trkpt lat="45.85311" lon="3.54822">
        <ele>402.2</ele>
        <time>2026-05-10T08:05:32.000Z</time>
      </trkpt>
      <trkpt lat="45.85311" lon="3.54821">
        <ele>402</ele>
        <time>2026-05-10T08:05:33.000Z</time>
      </trkpt>
      <trkpt lat="45.8531" lon="3.5482">
        <ele>401.9</ele>
        <time>2026-05-10T08:05:34.000Z</time>
      </trkpt>
      <trkpt lat="45.8531" lon="3.54819">
        <ele>401.6</ele>
        <time>2026-05-10T08:05:35.000Z</time>
      </trkpt>
      <trkpt lat="45.85311" lon="3.54816">
        <ele>401.3</ele>
        <time>2026-05-10T08:05:36.000Z</time>
      </trkpt>
      <trkpt lat="45.85312" lon="3.54814">
        <ele>401.2</ele>
        <time>2026-05-10T08:05:37.000Z</time>
      </trkpt>
      <trkpt lat="45.85313" lon="3.54812">
        <ele>401</ele>
        <time>2026-05-10T08:05:38.000Z</time>
      </trkpt>
      <trkpt lat="45.85315" lon="3.54811">
        <ele>401</ele>
        <time>2026-05-10T08:05:39.000Z</time>
      </trkpt>
      <trkpt lat="45.85316" lon="3.5481">
        <ele>401</ele>
        <time>2026-05-10T08:05:40.000Z</time>
      </trkpt>
      <trkpt lat="45.85317" lon="3.54809">
        <ele>401</ele>
        <time>2026-05-10T08:05:41.000Z</time>
      </trkpt>
      <trkpt lat="45.85317" lon="3.54808">
        <ele>401</ele>
        <time>2026-05-10T08:05:42.000Z</time>
      </trkpt>
      <trkpt lat="45.85317" lon="3.54809">
        <ele>401</ele>
        <time>2026-05-10T08:05:43.000Z</time>
      </trkpt>
      <trkpt lat="45.85317" lon="3.54809">
        <ele>401</ele>
        <time>2026-05-10T08:05:44.000Z</time>
      </trkpt>
      <trkpt lat="45.85317" lon="3.54808">
        <ele>401</ele>
        <time>2026-05-10T08:05:45.000Z</time>
      </trkpt>
      <trkpt lat="45.85318" lon="3.54807">
        <ele>401</ele>
        <time>2026-05-10T08:05:46.000Z</time>
      </trkpt>
      <trkpt lat="45.85319" lon="3.54806">
        <ele>401</ele>
        <time>2026-05-10T08:05:47.000Z</time>
      </trkpt>
      <trkpt lat="45.8532" lon="3.54805">
        <ele>401</ele>
        <time>2026-05-10T08:05:48.000Z</time>
      </trkpt>
      <trkpt lat="45.85321" lon="3.54804">
        <ele>400.9</ele>
        <time>2026-05-10T08:05:49.000Z</time>
      </trkpt>
      <trkpt lat="45.85321" lon="3.54804">
        <ele>400.9</ele>
        <time>2026-05-10T08:05:50.000Z</time>
      </trkpt>
      <trkpt lat="45.85321" lon="3.54804">
        <ele>400.9</ele>
        <time>2026-05-10T08:05:51.000Z</time>
      </trkpt>
      <trkpt lat="45.85321" lon="3.54804">
        <ele>400.8</ele>
        <time>2026-05-10T08:05:52.000Z</time>
      </trkpt>
      <trkpt lat="45.8532" lon="3.54804">
        <ele>400.7</ele>
        <time>2026-05-10T08:05:53.000Z</time>
      </trkpt>
      <trkpt lat="45.85321" lon="3.54803">
        <ele>400.7</ele>
        <time>2026-05-10T08:05:54.000Z</time>
      </trkpt>
      <trkpt lat="45.85322" lon="3.54802">
        <ele>400.7</ele>
        <time>2026-05-10T08:05:55.000Z</time>
      </trkpt>
      <trkpt lat="45.85323" lon="3.54802">
        <ele>400.6</ele>
        <time>2026-05-10T08:05:56.000Z</time>
      </trkpt>
      <trkpt lat="45.85324" lon="3.54801">
        <ele>400.7</ele>
        <time>2026-05-10T08:05:57.000Z</time>
      </trkpt>
      <trkpt lat="45.85325" lon="3.548">
        <ele>400.6</ele>
        <time>2026-05-10T08:05:58.000Z</time>
      </trkpt>
      <trkpt lat="45.85327" lon="3.54799">
        <ele>400.6</ele>
        <time>2026-05-10T08:05:59.000Z</time>
      </trkpt>
      <trkpt lat="45.85328" lon="3.54798">
        <ele>400.6</ele>
        <time>2026-05-10T08:06:00.000Z</time>
      </trkpt>
      <trkpt lat="45.8533" lon="3.54797">
        <ele>400.6</ele>
        <time>2026-05-10T08:06:01.000Z</time>
      </trkpt>
      <trkpt lat="45.85332" lon="3.54797">
        <ele>400.6</ele>
        <time>2026-05-10T08:06:02.000Z</time>
      </trkpt>
      <trkpt lat="45.85333" lon="3.54796">
        <ele>400.5</ele>
        <time>2026-05-10T08:06:03.000Z</time>
      </trkpt>
      <trkpt lat="45.85334" lon="3.54796">
        <ele>400.6</ele>
        <time>2026-05-10T08:06:04.000Z</time>
      </trkpt>
      <trkpt lat="45.85335" lon="3.54796">
        <ele>400.7</ele>
        <time>2026-05-10T08:06:05.000Z</time>
      </trkpt>
      <trkpt lat="45.85336" lon="3.54796">
        <ele>400.8</ele>
        <time>2026-05-10T08:06:06.000Z</time>
      </trkpt>
      <trkpt lat="45.85337" lon="3.54796">
        <ele>400.8</ele>
        <time>2026-05-10T08:06:07.000Z</time>
      </trkpt>
      <trkpt lat="45.85339" lon="3.54796">
        <ele>400.7</ele>
        <time>2026-05-10T08:06:08.000Z</time>
      </trkpt>
      <trkpt lat="45.8534" lon="3.54796">
        <ele>400.9</ele>
        <time>2026-05-10T08:06:09.000Z</time>
      </trkpt>
      <trkpt lat="45.85341" lon="3.54797">
        <ele>401</ele>
        <time>2026-05-10T08:06:10.000Z</time>
      </trkpt>
      <trkpt lat="45.85342" lon="3.54797">
        <ele>401</ele>
        <time>2026-05-10T08:06:11.000Z</time>
      </trkpt>
      <trkpt lat="45.85343" lon="3.54797">
        <ele>401.2</ele>
        <time>2026-05-10T08:06:12.000Z</time>
      </trkpt>
      <trkpt lat="45.85343" lon="3.54798">
        <ele>401.3</ele>
        <time>2026-05-10T08:06:13.000Z</time>
      </trkpt>
      <trkpt lat="45.85344" lon="3.54798">
        <ele>401.4</ele>
        <time>2026-05-10T08:06:14.000Z</time>
      </trkpt>
      <trkpt lat="45.85345" lon="3.54798">
        <ele>401.5</ele>
        <time>2026-05-10T08:06:15.000Z</time>
      </trkpt>
      <trkpt lat="45.85347" lon="3.54799">
        <ele>401.7</ele>
        <time>2026-05-10T08:06:16.000Z</time>
      </trkpt>
      <trkpt lat="45.85347" lon="3.54801">
        <ele>402</ele>
        <time>2026-05-10T08:06:17.000Z</time>
      </trkpt>
      <trkpt lat="45.85348" lon="3.54802">
        <ele>402.2</ele>
        <time>2026-05-10T08:06:18.000Z</time>
      </trkpt>
      <trkpt lat="45.85349" lon="3.54802">
        <ele>402.4</ele>
        <time>2026-05-10T08:06:19.000Z</time>
      </trkpt>
      <trkpt lat="45.8535" lon="3.54803">
        <ele>402.6</ele>
        <time>2026-05-10T08:06:20.000Z</time>
      </trkpt>
      <trkpt lat="45.85351" lon="3.54804">
        <ele>402.7</ele>
        <time>2026-05-10T08:06:21.000Z</time>
      </trkpt>
      <trkpt lat="45.85351" lon="3.54805">
        <ele>402.9</ele>
        <time>2026-05-10T08:06:22.000Z</time>
      </trkpt>
      <trkpt lat="45.85351" lon="3.54806">
        <ele>403</ele>
        <time>2026-05-10T08:06:23.000Z</time>
      </trkpt>
      <trkpt lat="45.85351" lon="3.54806">
        <ele>403</ele>
        <time>2026-05-10T08:06:24.000Z</time>
      </trkpt>
      <trkpt lat="45.85351" lon="3.54806">
        <ele>403</ele>
        <time>2026-05-10T08:06:25.000Z</time>
      </trkpt>
      <trkpt lat="45.85351" lon="3.54807">
        <ele>403</ele>
        <time>2026-05-10T08:06:26.000Z</time>
      </trkpt>
      <trkpt lat="45.85351" lon="3.54807">
        <ele>403</ele>
        <time>2026-05-10T08:06:27.000Z</time>
      </trkpt>
      <trkpt lat="45.8535" lon="3.54807">
        <ele>403</ele>
        <time>2026-05-10T08:06:28.000Z</time>
      </trkpt>
      <trkpt lat="45.8535" lon="3.54807">
        <ele>403</ele>
        <time>2026-05-10T08:06:29.000Z</time>
      </trkpt>
      <trkpt lat="45.8535" lon="3.54807">
        <ele>403</ele>
        <time>2026-05-10T08:06:30.000Z</time>
      </trkpt>
      <trkpt lat="45.8535" lon="3.54807">
        <ele>403</ele>
        <time>2026-05-10T08:06:31.000Z</time>
      </trkpt>
      <trkpt lat="45.8535" lon="3.54808">
        <ele>403</ele>
        <time>2026-05-10T08:06:32.000Z</time>
      </trkpt>
      <trkpt lat="45.8535" lon="3.54808">
        <ele>403</ele>
        <time>2026-05-10T08:06:33.000Z</time>
      </trkpt>
      <trkpt lat="45.8535" lon="3.54808">
        <ele>403</ele>
        <time>2026-05-10T08:06:34.000Z</time>
      </trkpt>
      <trkpt lat="45.8535" lon="3.54808">
        <ele>403</ele>
        <time>2026-05-10T08:06:35.000Z</time>
      </trkpt>
      <trkpt lat="45.8535" lon="3.54808">
        <ele>403</ele>
        <time>2026-05-10T08:06:36.000Z</time>
      </trkpt>
      <trkpt lat="45.8535" lon="3.54808">
        <ele>403</ele>
        <time>2026-05-10T08:06:37.000Z</time>
      </trkpt>
      <trkpt lat="45.8535" lon="3.54808">
        <ele>403</ele>
        <time>2026-05-10T08:06:38.000Z</time>
      </trkpt>
      <trkpt lat="45.85351" lon="3.54809">
        <ele>403</ele>
        <time>2026-05-10T08:06:39.000Z</time>
      </trkpt>
      <trkpt lat="45.85352" lon="3.54809">
        <ele>403</ele>
        <time>2026-05-10T08:06:40.000Z</time>
      </trkpt>
      <trkpt lat="45.85353" lon="3.54808">
        <ele>403</ele>
        <time>2026-05-10T08:06:41.000Z</time>
      </trkpt>
      <trkpt lat="45.85354" lon="3.54808">
        <ele>403</ele>
        <time>2026-05-10T08:06:42.000Z</time>
      </trkpt>
      <trkpt lat="45.85354" lon="3.54808">
        <ele>403</ele>
        <time>2026-05-10T08:06:43.000Z</time>
      </trkpt>
      <trkpt lat="45.85353" lon="3.54807">
        <ele>403</ele>
        <time>2026-05-10T08:06:44.000Z</time>
      </trkpt>
      <trkpt lat="45.85354" lon="3.54807">
        <ele>403</ele>
        <time>2026-05-10T08:06:45.000Z</time>
      </trkpt>
      <trkpt lat="45.85354" lon="3.54807">
        <ele>403</ele>
        <time>2026-05-10T08:06:46.000Z</time>
      </trkpt>
      <trkpt lat="45.85354" lon="3.54806">
        <ele>403</ele>
        <time>2026-05-10T08:06:47.000Z</time>
      </trkpt>
      <trkpt lat="45.85354" lon="3.54806">
        <ele>403</ele>
        <time>2026-05-10T08:06:48.000Z</time>
      </trkpt>
      <trkpt lat="45.85355" lon="3.54806">
        <ele>403</ele>
        <time>2026-05-10T08:06:49.000Z</time>
      </trkpt>
      <trkpt lat="45.85355" lon="3.54806">
        <ele>403</ele>
        <time>2026-05-10T08:06:50.000Z</time>
      </trkpt>
      <trkpt lat="45.85356" lon="3.54806">
        <ele>403</ele>
        <time>2026-05-10T08:06:51.000Z</time>
      </trkpt>
      <trkpt lat="45.85356" lon="3.54805">
        <ele>403</ele>
        <time>2026-05-10T08:06:52.000Z</time>
      </trkpt>
      <trkpt lat="45.85356" lon="3.54805">
        <ele>403</ele>
        <time>2026-05-10T08:06:53.000Z</time>
      </trkpt>
      <trkpt lat="45.85357" lon="3.54805">
        <ele>403</ele>
        <time>2026-05-10T08:06:54.000Z</time>
      </trkpt>
      <trkpt lat="45.85357" lon="3.54805">
        <ele>403</ele>
        <time>2026-05-10T08:06:55.000Z</time>
      </trkpt>
      <trkpt lat="45.85357" lon="3.54805">
        <ele>402.9</ele>
        <time>2026-05-10T08:06:56.000Z</time>
      </trkpt>
      <trkpt lat="45.85357" lon="3.54805">
        <ele>402.9</ele>
        <time>2026-05-10T08:06:57.000Z</time>
      </trkpt>
      <trkpt lat="45.85357" lon="3.54805">
        <ele>402.9</ele>
        <time>2026-05-10T08:06:58.000Z</time>
      </trkpt>
      <trkpt lat="45.85357" lon="3.54805">
        <ele>402.9</ele>
        <time>2026-05-10T08:06:59.000Z</time>
      </trkpt>
      <trkpt lat="45.85357" lon="3.54805">
        <ele>402.9</ele>
        <time>2026-05-10T08:07:00.000Z</time>
      </trkpt>
      <trkpt lat="45.85357" lon="3.54805">
        <ele>402.9</ele>
        <time>2026-05-10T08:07:01.000Z</time>
      </trkpt>
      <trkpt lat="45.85357" lon="3.54805">
        <ele>402.8</ele>
        <time>2026-05-10T08:07:02.000Z</time>
      </trkpt>
      <trkpt lat="45.85359" lon="3.54804">
        <ele>402.8</ele>
        <time>2026-05-10T08:07:03.000Z</time>
      </trkpt>
      <trkpt lat="45.85359" lon="3.54804">
        <ele>402.8</ele>
        <time>2026-05-10T08:07:04.000Z</time>
      </trkpt>
      <trkpt lat="45.85358" lon="3.54804">
        <ele>402.8</ele>
        <time>2026-05-10T08:07:05.000Z</time>
      </trkpt>
      <trkpt lat="45.85357" lon="3.54804">
        <ele>402.8</ele>
        <time>2026-05-10T08:07:06.000Z</time>
      </trkpt>
      <trkpt lat="45.85357" lon="3.54804">
        <ele>402.8</ele>
        <time>2026-05-10T08:07:07.000Z</time>
      </trkpt>
      <trkpt lat="45.85357" lon="3.54804">
        <ele>402.7</ele>
        <time>2026-05-10T08:07:08.000Z</time>
      </trkpt>
      <trkpt lat="45.85357" lon="3.54804">
        <ele>402.7</ele>
        <time>2026-05-10T08:07:09.000Z</time>
      </trkpt>
      <trkpt lat="45.85358" lon="3.54803">
        <ele>402.6</ele>
        <time>2026-05-10T08:07:10.000Z</time>
      </trkpt>
      <trkpt lat="45.85359" lon="3.54803">
        <ele>402.6</ele>
        <time>2026-05-10T08:07:11.000Z</time>
      </trkpt>
      <trkpt lat="45.85361" lon="3.54803">
        <ele>402.6</ele>
        <time>2026-05-10T08:07:12.000Z</time>
      </trkpt>
      <trkpt lat="45.85362" lon="3.54802">
        <ele>402.5</ele>
        <time>2026-05-10T08:07:13.000Z</time>
      </trkpt>
      <trkpt lat="45.85363" lon="3.54802">
        <ele>402.5</ele>
        <time>2026-05-10T08:07:14.000Z</time>
      </trkpt>
      <trkpt lat="45.85362" lon="3.54804">
        <ele>402.7</ele>
        <time>2026-05-10T08:07:15.000Z</time>
      </trkpt>
      <trkpt lat="45.85362" lon="3.54804">
        <ele>402.7</ele>
        <time>2026-05-10T08:07:16.000Z</time>
      </trkpt>
      <trkpt lat="45.85362" lon="3.54804">
        <ele>402.7</ele>
        <time>2026-05-10T08:07:17.000Z</time>
      </trkpt>
      <trkpt lat="45.85362" lon="3.54804">
        <ele>402.7</ele>
        <time>2026-05-10T08:07:18.000Z</time>
      </trkpt>
      <trkpt lat="45.85362" lon="3.54803">
        <ele>402.6</ele>
        <time>2026-05-10T08:07:19.000Z</time>
      </trkpt>
      <trkpt lat="45.85363" lon="3.54803">
        <ele>402.6</ele>
        <time>2026-05-10T08:07:20.000Z</time>
      </trkpt>
      <trkpt lat="45.85364" lon="3.54802">
        <ele>402.4</ele>
        <time>2026-05-10T08:07:21.000Z</time>
      </trkpt>
      <trkpt lat="45.85365" lon="3.54801">
        <ele>402.3</ele>
        <time>2026-05-10T08:07:22.000Z</time>
      </trkpt>
      <trkpt lat="45.85366" lon="3.54801">
        <ele>402.3</ele>
        <time>2026-05-10T08:07:23.000Z</time>
      </trkpt>
      <trkpt lat="45.85366" lon="3.548">
        <ele>402.2</ele>
        <time>2026-05-10T08:07:24.000Z</time>
      </trkpt>
      <trkpt lat="45.85368" lon="3.548">
        <ele>402.2</ele>
        <time>2026-05-10T08:07:25.000Z</time>
      </trkpt>
      <trkpt lat="45.85369" lon="3.54799">
        <ele>402.1</ele>
        <time>2026-05-10T08:07:26.000Z</time>
      </trkpt>
      <trkpt lat="45.85371" lon="3.54799">
        <ele>402.1</ele>
        <time>2026-05-10T08:07:27.000Z</time>
      </trkpt>
      <trkpt lat="45.85372" lon="3.54799">
        <ele>402.1</ele>
        <time>2026-05-10T08:07:28.000Z</time>
      </trkpt>
      <trkpt lat="45.85373" lon="3.54799">
        <ele>402</ele>
        <time>2026-05-10T08:07:29.000Z</time>
      </trkpt>
      <trkpt lat="45.85375" lon="3.54799">
        <ele>402</ele>
        <time>2026-05-10T08:07:30.000Z</time>
      </trkpt>
      <trkpt lat="45.85376" lon="3.54799">
        <ele>402</ele>
        <time>2026-05-10T08:07:31.000Z</time>
      </trkpt>
      <trkpt lat="45.85377" lon="3.54799">
        <ele>402</ele>
        <time>2026-05-10T08:07:32.000Z</time>
      </trkpt>
      <trkpt lat="45.85379" lon="3.54799">
        <ele>402</ele>
        <time>2026-05-10T08:07:33.000Z</time>
      </trkpt>
      <trkpt lat="45.8538" lon="3.54799">
        <ele>402</ele>
        <time>2026-05-10T08:07:34.000Z</time>
      </trkpt>
      <trkpt lat="45.85382" lon="3.54799">
        <ele>402</ele>
        <time>2026-05-10T08:07:35.000Z</time>
      </trkpt>
      <trkpt lat="45.85384" lon="3.54798">
        <ele>401.9</ele>
        <time>2026-05-10T08:07:36.000Z</time>
      </trkpt>
      <trkpt lat="45.85385" lon="3.54798">
        <ele>401.9</ele>
        <time>2026-05-10T08:07:37.000Z</time>
      </trkpt>
      <trkpt lat="45.85386" lon="3.54799">
        <ele>402</ele>
        <time>2026-05-10T08:07:38.000Z</time>
      </trkpt>
      <trkpt lat="45.85387" lon="3.54798">
        <ele>402</ele>
        <time>2026-05-10T08:07:39.000Z</time>
      </trkpt>
      <trkpt lat="45.85388" lon="3.54799">
        <ele>402</ele>
        <time>2026-05-10T08:07:40.000Z</time>
      </trkpt>
      <trkpt lat="45.8539" lon="3.54799">
        <ele>402</ele>
        <time>2026-05-10T08:07:41.000Z</time>
      </trkpt>
      <trkpt lat="45.85391" lon="3.54799">
        <ele>402</ele>
        <time>2026-05-10T08:07:42.000Z</time>
      </trkpt>
      <trkpt lat="45.85393" lon="3.54799">
        <ele>401.9</ele>
        <time>2026-05-10T08:07:43.000Z</time>
      </trkpt>
      <trkpt lat="45.85394" lon="3.548">
        <ele>401.9</ele>
        <time>2026-05-10T08:07:44.000Z</time>
      </trkpt>
      <trkpt lat="45.85395" lon="3.548">
        <ele>401.9</ele>
        <time>2026-05-10T08:07:45.000Z</time>
      </trkpt>
      <trkpt lat="45.85396" lon="3.54801">
        <ele>401.9</ele>
        <time>2026-05-10T08:07:46.000Z</time>
      </trkpt>
      <trkpt lat="45.85397" lon="3.54801">
        <ele>401.9</ele>
        <time>2026-05-10T08:07:47.000Z</time>
      </trkpt>
      <trkpt lat="45.85398" lon="3.54801">
        <ele>401.9</ele>
        <time>2026-05-10T08:07:48.000Z</time>
      </trkpt>
      <trkpt lat="45.85399" lon="3.54802">
        <ele>401.9</ele>
        <time>2026-05-10T08:07:49.000Z</time>
      </trkpt>
      <trkpt lat="45.85401" lon="3.54802">
        <ele>401.8</ele>
        <time>2026-05-10T08:07:50.000Z</time>
      </trkpt>
      <trkpt lat="45.85402" lon="3.54802">
        <ele>401.7</ele>
        <time>2026-05-10T08:07:51.000Z</time>
      </trkpt>
      <trkpt lat="45.85403" lon="3.54802">
        <ele>401.7</ele>
        <time>2026-05-10T08:07:52.000Z</time>
      </trkpt>
      <trkpt lat="45.85404" lon="3.54802">
        <ele>401.6</ele>
        <time>2026-05-10T08:07:53.000Z</time>
      </trkpt>
      <trkpt lat="45.85405" lon="3.54802">
        <ele>401.5</ele>
        <time>2026-05-10T08:07:54.000Z</time>
      </trkpt>
      <trkpt lat="45.85406" lon="3.54802">
        <ele>401.5</ele>
        <time>2026-05-10T08:07:55.000Z</time>
      </trkpt>
      <trkpt lat="45.85407" lon="3.54802">
        <ele>401.4</ele>
        <time>2026-05-10T08:07:56.000Z</time>
      </trkpt>
      <trkpt lat="45.85409" lon="3.548">
        <ele>401.2</ele>
        <time>2026-05-10T08:07:57.000Z</time>
      </trkpt>
      <trkpt lat="45.8541" lon="3.548">
        <ele>401.1</ele>
        <time>2026-05-10T08:07:58.000Z</time>
      </trkpt>
      <trkpt lat="45.85411" lon="3.548">
        <ele>401.1</ele>
        <time>2026-05-10T08:07:59.000Z</time>
      </trkpt>
      <trkpt lat="45.85412" lon="3.54799">
        <ele>401</ele>
        <time>2026-05-10T08:08:00.000Z</time>
      </trkpt>
      <trkpt lat="45.85414" lon="3.54798">
        <ele>400.9</ele>
        <time>2026-05-10T08:08:01.000Z</time>
      </trkpt>
      <trkpt lat="45.85415" lon="3.54798">
        <ele>400.8</ele>
        <time>2026-05-10T08:08:02.000Z</time>
      </trkpt>
      <trkpt lat="45.85415" lon="3.54796">
        <ele>400.7</ele>
        <time>2026-05-10T08:08:03.000Z</time>
      </trkpt>
      <trkpt lat="45.85416" lon="3.54795">
        <ele>400.6</ele>
        <time>2026-05-10T08:08:04.000Z</time>
      </trkpt>
      <trkpt lat="45.85416" lon="3.54794">
        <ele>400.6</ele>
        <time>2026-05-10T08:08:05.000Z</time>
      </trkpt>
      <trkpt lat="45.85417" lon="3.54792">
        <ele>400.6</ele>
        <time>2026-05-10T08:08:06.000Z</time>
      </trkpt>
      <trkpt lat="45.85417" lon="3.54792">
        <ele>400.6</ele>
        <time>2026-05-10T08:08:07.000Z</time>
      </trkpt>
      <trkpt lat="45.85418" lon="3.5479">
        <ele>400.7</ele>
        <time>2026-05-10T08:08:08.000Z</time>
      </trkpt>
      <trkpt lat="45.85418" lon="3.54789">
        <ele>400.7</ele>
        <time>2026-05-10T08:08:09.000Z</time>
      </trkpt>
      <trkpt lat="45.85419" lon="3.54787">
        <ele>400.8</ele>
        <time>2026-05-10T08:08:10.000Z</time>
      </trkpt>
      <trkpt lat="45.8542" lon="3.54785">
        <ele>400.8</ele>
        <time>2026-05-10T08:08:11.000Z</time>
      </trkpt>
      <trkpt lat="45.8542" lon="3.54783">
        <ele>400.8</ele>
        <time>2026-05-10T08:08:12.000Z</time>
      </trkpt>
      <trkpt lat="45.8542" lon="3.54781">
        <ele>400.8</ele>
        <time>2026-05-10T08:08:13.000Z</time>
      </trkpt>
      <trkpt lat="45.8542" lon="3.54781">
        <ele>400.8</ele>
        <time>2026-05-10T08:08:14.000Z</time>
      </trkpt>
      <trkpt lat="45.85421" lon="3.54781">
        <ele>400.9</ele>
        <time>2026-05-10T08:08:15.000Z</time>
      </trkpt>
      <trkpt lat="45.85421" lon="3.54782">
        <ele>400.9</ele>
        <time>2026-05-10T08:08:16.000Z</time>
      </trkpt>
      <trkpt lat="45.8542" lon="3.54781">
        <ele>400.7</ele>
        <time>2026-05-10T08:08:17.000Z</time>
      </trkpt>
      <trkpt lat="45.85419" lon="3.54779">
        <ele>400.5</ele>
        <time>2026-05-10T08:08:18.000Z</time>
      </trkpt>
      <trkpt lat="45.85418" lon="3.54777">
        <ele>400.3</ele>
        <time>2026-05-10T08:08:19.000Z</time>
      </trkpt>
      <trkpt lat="45.85417" lon="3.54775">
        <ele>400.1</ele>
        <time>2026-05-10T08:08:20.000Z</time>
      </trkpt>
      <trkpt lat="45.85416" lon="3.54774">
        <ele>400</ele>
        <time>2026-05-10T08:08:21.000Z</time>
      </trkpt>
      <trkpt lat="45.85415" lon="3.54772">
        <ele>399.9</ele>
        <time>2026-05-10T08:08:22.000Z</time>
      </trkpt>
      <trkpt lat="45.85414" lon="3.54771">
        <ele>399.8</ele>
        <time>2026-05-10T08:08:23.000Z</time>
      </trkpt>
      <trkpt lat="45.85413" lon="3.5477">
        <ele>399.7</ele>
        <time>2026-05-10T08:08:24.000Z</time>
      </trkpt>
      <trkpt lat="45.85413" lon="3.54768">
        <ele>399.6</ele>
        <time>2026-05-10T08:08:25.000Z</time>
      </trkpt>
      <trkpt lat="45.85412" lon="3.54768">
        <ele>399.5</ele>
        <time>2026-05-10T08:08:26.000Z</time>
      </trkpt>
      <trkpt lat="45.85411" lon="3.54767">
        <ele>399.4</ele>
        <time>2026-05-10T08:08:27.000Z</time>
      </trkpt>
      <trkpt lat="45.8541" lon="3.54766">
        <ele>399.2</ele>
        <time>2026-05-10T08:08:28.000Z</time>
      </trkpt>
      <trkpt lat="45.85409" lon="3.54765">
        <ele>399</ele>
        <time>2026-05-10T08:08:29.000Z</time>
      </trkpt>
      <trkpt lat="45.85407" lon="3.54764">
        <ele>398.8</ele>
        <time>2026-05-10T08:08:30.000Z</time>
      </trkpt>
      <trkpt lat="45.85407" lon="3.54764">
        <ele>398.7</ele>
        <time>2026-05-10T08:08:31.000Z</time>
      </trkpt>
      <trkpt lat="45.85406" lon="3.54764">
        <ele>398.6</ele>
        <time>2026-05-10T08:08:32.000Z</time>
      </trkpt>
      <trkpt lat="45.85404" lon="3.54763">
        <ele>398.4</ele>
        <time>2026-05-10T08:08:33.000Z</time>
      </trkpt>
      <trkpt lat="45.85403" lon="3.54763">
        <ele>398.2</ele>
        <time>2026-05-10T08:08:34.000Z</time>
      </trkpt>
      <trkpt lat="45.85402" lon="3.54762">
        <ele>397.9</ele>
        <time>2026-05-10T08:08:35.000Z</time>
      </trkpt>
      <trkpt lat="45.854" lon="3.54761">
        <ele>397.7</ele>
        <time>2026-05-10T08:08:36.000Z</time>
      </trkpt>
      <trkpt lat="45.85399" lon="3.5476">
        <ele>397.4</ele>
        <time>2026-05-10T08:08:37.000Z</time>
      </trkpt>
      <trkpt lat="45.85398" lon="3.54759">
        <ele>397.1</ele>
        <time>2026-05-10T08:08:38.000Z</time>
      </trkpt>
      <trkpt lat="45.85396" lon="3.54759">
        <ele>396.8</ele>
        <time>2026-05-10T08:08:39.000Z</time>
      </trkpt>
      <trkpt lat="45.85395" lon="3.54759">
        <ele>396.5</ele>
        <time>2026-05-10T08:08:40.000Z</time>
      </trkpt>
      <trkpt lat="45.85394" lon="3.54758">
        <ele>396.2</ele>
        <time>2026-05-10T08:08:41.000Z</time>
      </trkpt>
      <trkpt lat="45.85393" lon="3.54757">
        <ele>396</ele>
        <time>2026-05-10T08:08:42.000Z</time>
      </trkpt>
      <trkpt lat="45.85391" lon="3.54757">
        <ele>395.7</ele>
        <time>2026-05-10T08:08:43.000Z</time>
      </trkpt>
      <trkpt lat="45.8539" lon="3.54757">
        <ele>395.4</ele>
        <time>2026-05-10T08:08:44.000Z</time>
      </trkpt>
      <trkpt lat="45.85389" lon="3.54756">
        <ele>395.2</ele>
        <time>2026-05-10T08:08:45.000Z</time>
      </trkpt>
      <trkpt lat="45.85388" lon="3.54756">
        <ele>395</ele>
        <time>2026-05-10T08:08:46.000Z</time>
      </trkpt>
      <trkpt lat="45.85387" lon="3.54755">
        <ele>394.8</ele>
        <time>2026-05-10T08:08:47.000Z</time>
      </trkpt>
      <trkpt lat="45.85386" lon="3.54755">
        <ele>394.7</ele>
        <time>2026-05-10T08:08:48.000Z</time>
      </trkpt>
      <trkpt lat="45.85385" lon="3.54755">
        <ele>394.6</ele>
        <time>2026-05-10T08:08:49.000Z</time>
      </trkpt>
      <trkpt lat="45.85384" lon="3.54755">
        <ele>394.5</ele>
        <time>2026-05-10T08:08:50.000Z</time>
      </trkpt>
      <trkpt lat="45.85383" lon="3.54754">
        <ele>394.3</ele>
        <time>2026-05-10T08:08:51.000Z</time>
      </trkpt>
      <trkpt lat="45.85381" lon="3.54754">
        <ele>394.2</ele>
        <time>2026-05-10T08:08:52.000Z</time>
      </trkpt>
      <trkpt lat="45.8538" lon="3.54754">
        <ele>394.2</ele>
        <time>2026-05-10T08:08:53.000Z</time>
      </trkpt>
      <trkpt lat="45.85379" lon="3.54754">
        <ele>394.2</ele>
        <time>2026-05-10T08:08:54.000Z</time>
      </trkpt>
      <trkpt lat="45.85377" lon="3.54754">
        <ele>394.1</ele>
        <time>2026-05-10T08:08:55.000Z</time>
      </trkpt>
      <trkpt lat="45.85376" lon="3.54755">
        <ele>394.2</ele>
        <time>2026-05-10T08:08:56.000Z</time>
      </trkpt>
      <trkpt lat="45.85375" lon="3.54755">
        <ele>394.1</ele>
        <time>2026-05-10T08:08:57.000Z</time>
      </trkpt>
      <trkpt lat="45.85374" lon="3.54755">
        <ele>394</ele>
        <time>2026-05-10T08:08:58.000Z</time>
      </trkpt>
      <trkpt lat="45.85372" lon="3.54755">
        <ele>393.9</ele>
        <time>2026-05-10T08:08:59.000Z</time>
      </trkpt>
      <trkpt lat="45.85371" lon="3.54755">
        <ele>393.8</ele>
        <time>2026-05-10T08:09:00.000Z</time>
      </trkpt>
      <trkpt lat="45.8537" lon="3.54754">
        <ele>393.6</ele>
        <time>2026-05-10T08:09:01.000Z</time>
      </trkpt>
      <trkpt lat="45.85369" lon="3.54754">
        <ele>393.5</ele>
        <time>2026-05-10T08:09:02.000Z</time>
      </trkpt>
      <trkpt lat="45.85367" lon="3.54754">
        <ele>393.4</ele>
        <time>2026-05-10T08:09:03.000Z</time>
      </trkpt>
      <trkpt lat="45.85366" lon="3.54754">
        <ele>393.4</ele>
        <time>2026-05-10T08:09:04.000Z</time>
      </trkpt>
      <trkpt lat="45.85366" lon="3.54756">
        <ele>393.7</ele>
        <time>2026-05-10T08:09:05.000Z</time>
      </trkpt>
      <trkpt lat="45.85364" lon="3.54756">
        <ele>393.6</ele>
        <time>2026-05-10T08:09:06.000Z</time>
      </trkpt>
      <trkpt lat="45.85364" lon="3.54756">
        <ele>393.6</ele>
        <time>2026-05-10T08:09:07.000Z</time>
      </trkpt>
      <trkpt lat="45.85362" lon="3.54756">
        <ele>393.6</ele>
        <time>2026-05-10T08:09:08.000Z</time>
      </trkpt>
      <trkpt lat="45.85361" lon="3.54757">
        <ele>393.7</ele>
        <time>2026-05-10T08:09:09.000Z</time>
      </trkpt>
      <trkpt lat="45.8536" lon="3.54757">
        <ele>393.7</ele>
        <time>2026-05-10T08:09:10.000Z</time>
      </trkpt>
      <trkpt lat="45.85358" lon="3.54758">
        <ele>393.8</ele>
        <time>2026-05-10T08:09:11.000Z</time>
      </trkpt>
      <trkpt lat="45.85357" lon="3.54758">
        <ele>393.7</ele>
        <time>2026-05-10T08:09:12.000Z</time>
      </trkpt>
      <trkpt lat="45.85356" lon="3.54758">
        <ele>393.6</ele>
        <time>2026-05-10T08:09:13.000Z</time>
      </trkpt>
      <trkpt lat="45.85355" lon="3.54758">
        <ele>393.6</ele>
        <time>2026-05-10T08:09:14.000Z</time>
      </trkpt>
      <trkpt lat="45.85355" lon="3.54759">
        <ele>393.6</ele>
        <time>2026-05-10T08:09:15.000Z</time>
      </trkpt>
      <trkpt lat="45.85354" lon="3.54759">
        <ele>393.7</ele>
        <time>2026-05-10T08:09:16.000Z</time>
      </trkpt>
      <trkpt lat="45.85353" lon="3.54759">
        <ele>393.7</ele>
        <time>2026-05-10T08:09:17.000Z</time>
      </trkpt>
      <trkpt lat="45.85351" lon="3.5476">
        <ele>393.6</ele>
        <time>2026-05-10T08:09:18.000Z</time>
      </trkpt>
      <trkpt lat="45.8535" lon="3.5476">
        <ele>393.6</ele>
        <time>2026-05-10T08:09:19.000Z</time>
      </trkpt>
      <trkpt lat="45.85349" lon="3.54761">
        <ele>393.6</ele>
        <time>2026-05-10T08:09:20.000Z</time>
      </trkpt>
      <trkpt lat="45.85347" lon="3.54761">
        <ele>393.6</ele>
        <time>2026-05-10T08:09:21.000Z</time>
      </trkpt>
      <trkpt lat="45.85345" lon="3.54762">
        <ele>393.5</ele>
        <time>2026-05-10T08:09:22.000Z</time>
      </trkpt>
      <trkpt lat="45.85343" lon="3.54762">
        <ele>393.4</ele>
        <time>2026-05-10T08:09:23.000Z</time>
      </trkpt>
      <trkpt lat="45.85342" lon="3.54762">
        <ele>393.2</ele>
        <time>2026-05-10T08:09:24.000Z</time>
      </trkpt>
      <trkpt lat="45.8534" lon="3.54762">
        <ele>393.1</ele>
        <time>2026-05-10T08:09:25.000Z</time>
      </trkpt>
      <trkpt lat="45.8534" lon="3.54761">
        <ele>393</ele>
        <time>2026-05-10T08:09:26.000Z</time>
      </trkpt>
      <trkpt lat="45.85338" lon="3.54761">
        <ele>392.8</ele>
        <time>2026-05-10T08:09:27.000Z</time>
      </trkpt>
      <trkpt lat="45.85336" lon="3.54761">
        <ele>392.6</ele>
        <time>2026-05-10T08:09:28.000Z</time>
      </trkpt>
      <trkpt lat="45.85335" lon="3.54761">
        <ele>392.5</ele>
        <time>2026-05-10T08:09:29.000Z</time>
      </trkpt>
      <trkpt lat="45.85333" lon="3.54761">
        <ele>392.3</ele>
        <time>2026-05-10T08:09:30.000Z</time>
      </trkpt>
      <trkpt lat="45.85332" lon="3.54761">
        <ele>392.2</ele>
        <time>2026-05-10T08:09:31.000Z</time>
      </trkpt>
      <trkpt lat="45.85331" lon="3.54761">
        <ele>392.1</ele>
        <time>2026-05-10T08:09:32.000Z</time>
      </trkpt>
      <trkpt lat="45.85329" lon="3.5476">
        <ele>392</ele>
        <time>2026-05-10T08:09:33.000Z</time>
      </trkpt>
      <trkpt lat="45.85328" lon="3.5476">
        <ele>391.9</ele>
        <time>2026-05-10T08:09:34.000Z</time>
      </trkpt>
      <trkpt lat="45.85328" lon="3.5476">
        <ele>391.8</ele>
        <time>2026-05-10T08:09:35.000Z</time>
      </trkpt>
      <trkpt lat="45.85327" lon="3.5476">
        <ele>391.7</ele>
        <time>2026-05-10T08:09:36.000Z</time>
      </trkpt>
      <trkpt lat="45.85326" lon="3.5476">
        <ele>391.7</ele>
        <time>2026-05-10T08:09:37.000Z</time>
      </trkpt>
      <trkpt lat="45.85324" lon="3.5476">
        <ele>391.6</ele>
        <time>2026-05-10T08:09:38.000Z</time>
      </trkpt>
      <trkpt lat="45.85323" lon="3.5476">
        <ele>391.5</ele>
        <time>2026-05-10T08:09:39.000Z</time>
      </trkpt>
      <trkpt lat="45.85322" lon="3.5476">
        <ele>391.5</ele>
        <time>2026-05-10T08:09:40.000Z</time>
      </trkpt>
      <trkpt lat="45.8532" lon="3.5476">
        <ele>391.4</ele>
        <time>2026-05-10T08:09:41.000Z</time>
      </trkpt>
      <trkpt lat="45.85319" lon="3.5476">
        <ele>391.4</ele>
        <time>2026-05-10T08:09:42.000Z</time>
      </trkpt>
      <trkpt lat="45.85317" lon="3.5476">
        <ele>391.3</ele>
        <time>2026-05-10T08:09:43.000Z</time>
      </trkpt>
      <trkpt lat="45.85316" lon="3.54761">
        <ele>391.3</ele>
        <time>2026-05-10T08:09:44.000Z</time>
      </trkpt>
      <trkpt lat="45.85315" lon="3.54761">
        <ele>391.3</ele>
        <time>2026-05-10T08:09:45.000Z</time>
      </trkpt>
      <trkpt lat="45.85315" lon="3.54761">
        <ele>391.4</ele>
        <time>2026-05-10T08:09:46.000Z</time>
      </trkpt>
      <trkpt lat="45.85314" lon="3.54762">
        <ele>391.4</ele>
        <time>2026-05-10T08:09:47.000Z</time>
      </trkpt>
      <trkpt lat="45.85313" lon="3.54762">
        <ele>391.3</ele>
        <time>2026-05-10T08:09:48.000Z</time>
      </trkpt>
      <trkpt lat="45.85312" lon="3.54762">
        <ele>391.3</ele>
        <time>2026-05-10T08:09:49.000Z</time>
      </trkpt>
      <trkpt lat="45.85311" lon="3.54762">
        <ele>391.2</ele>
        <time>2026-05-10T08:09:50.000Z</time>
      </trkpt>
      <trkpt lat="45.85309" lon="3.54761">
        <ele>391</ele>
        <time>2026-05-10T08:09:51.000Z</time>
      </trkpt>
      <trkpt lat="45.85307" lon="3.54761">
        <ele>390.8</ele>
        <time>2026-05-10T08:09:52.000Z</time>
      </trkpt>
      <trkpt lat="45.85306" lon="3.54761">
        <ele>390.7</ele>
        <time>2026-05-10T08:09:53.000Z</time>
      </trkpt>
      <trkpt lat="45.85304" lon="3.54761">
        <ele>390.5</ele>
        <time>2026-05-10T08:09:54.000Z</time>
      </trkpt>
      <trkpt lat="45.85303" lon="3.5476">
        <ele>390.4</ele>
        <time>2026-05-10T08:09:55.000Z</time>
      </trkpt>
      <trkpt lat="45.85302" lon="3.5476">
        <ele>390.2</ele>
        <time>2026-05-10T08:09:56.000Z</time>
      </trkpt>
      <trkpt lat="45.85301" lon="3.5476">
        <ele>390.1</ele>
        <time>2026-05-10T08:09:57.000Z</time>
      </trkpt>
      <trkpt lat="45.853" lon="3.5476">
        <ele>390.1</ele>
        <time>2026-05-10T08:09:58.000Z</time>
      </trkpt>
      <trkpt lat="45.85299" lon="3.54761">
        <ele>390</ele>
        <time>2026-05-10T08:09:59.000Z</time>
      </trkpt>
      <trkpt lat="45.85297" lon="3.54761">
        <ele>390</ele>
        <time>2026-05-10T08:10:00.000Z</time>
      </trkpt>
      <trkpt lat="45.85296" lon="3.54761">
        <ele>389.9</ele>
        <time>2026-05-10T08:10:01.000Z</time>
      </trkpt>
      <trkpt lat="45.85295" lon="3.54761">
        <ele>389.7</ele>
        <time>2026-05-10T08:10:02.000Z</time>
      </trkpt>
      <trkpt lat="45.85293" lon="3.54761">
        <ele>389.5</ele>
        <time>2026-05-10T08:10:03.000Z</time>
      </trkpt>
      <trkpt lat="45.85291" lon="3.54761">
        <ele>389.5</ele>
        <time>2026-05-10T08:10:04.000Z</time>
      </trkpt>
      <trkpt lat="45.8529" lon="3.54761">
        <ele>389.3</ele>
        <time>2026-05-10T08:10:05.000Z</time>
      </trkpt>
      <trkpt lat="45.85288" lon="3.54761">
        <ele>389.2</ele>
        <time>2026-05-10T08:10:06.000Z</time>
      </trkpt>
      <trkpt lat="45.85286" lon="3.54762">
        <ele>389</ele>
        <time>2026-05-10T08:10:07.000Z</time>
      </trkpt>
      <trkpt lat="45.85284" lon="3.54762">
        <ele>388.9</ele>
        <time>2026-05-10T08:10:08.000Z</time>
      </trkpt>
      <trkpt lat="45.85283" lon="3.54762">
        <ele>388.8</ele>
        <time>2026-05-10T08:10:09.000Z</time>
      </trkpt>
      <trkpt lat="45.85281" lon="3.54763">
        <ele>388.7</ele>
        <time>2026-05-10T08:10:10.000Z</time>
      </trkpt>
      <trkpt lat="45.8528" lon="3.54763">
        <ele>388.6</ele>
        <time>2026-05-10T08:10:11.000Z</time>
      </trkpt>
      <trkpt lat="45.85278" lon="3.54763">
        <ele>388.4</ele>
        <time>2026-05-10T08:10:12.000Z</time>
      </trkpt>
      <trkpt lat="45.85277" lon="3.54763">
        <ele>388.3</ele>
        <time>2026-05-10T08:10:13.000Z</time>
      </trkpt>
      <trkpt lat="45.85275" lon="3.54764">
        <ele>388.1</ele>
        <time>2026-05-10T08:10:14.000Z</time>
      </trkpt>
      <trkpt lat="45.85274" lon="3.54765">
        <ele>388</ele>
        <time>2026-05-10T08:10:15.000Z</time>
      </trkpt>
      <trkpt lat="45.85273" lon="3.54767">
        <ele>388</ele>
        <time>2026-05-10T08:10:16.000Z</time>
      </trkpt>
      <trkpt lat="45.85272" lon="3.54768">
        <ele>387.9</ele>
        <time>2026-05-10T08:10:17.000Z</time>
      </trkpt>
      <trkpt lat="45.8527" lon="3.54768">
        <ele>387.8</ele>
        <time>2026-05-10T08:10:18.000Z</time>
      </trkpt>
      <trkpt lat="45.8527" lon="3.54768">
        <ele>387.7</ele>
        <time>2026-05-10T08:10:19.000Z</time>
      </trkpt>
      <trkpt lat="45.85269" lon="3.54768">
        <ele>387.5</ele>
        <time>2026-05-10T08:10:20.000Z</time>
      </trkpt>
      <trkpt lat="45.85267" lon="3.54768">
        <ele>387.3</ele>
        <time>2026-05-10T08:10:21.000Z</time>
      </trkpt>
      <trkpt lat="45.85265" lon="3.54768">
        <ele>387</ele>
        <time>2026-05-10T08:10:22.000Z</time>
      </trkpt>
      <trkpt lat="45.85264" lon="3.54768">
        <ele>386.8</ele>
        <time>2026-05-10T08:10:23.000Z</time>
      </trkpt>
      <trkpt lat="45.85263" lon="3.54768">
        <ele>386.7</ele>
        <time>2026-05-10T08:10:24.000Z</time>
      </trkpt>
      <trkpt lat="45.85262" lon="3.54769">
        <ele>386.6</ele>
        <time>2026-05-10T08:10:25.000Z</time>
      </trkpt>
      <trkpt lat="45.85261" lon="3.5477">
        <ele>386.6</ele>
        <time>2026-05-10T08:10:26.000Z</time>
      </trkpt>
      <trkpt lat="45.85261" lon="3.54771">
        <ele>386.7</ele>
        <time>2026-05-10T08:10:27.000Z</time>
      </trkpt>
      <trkpt lat="45.85259" lon="3.54773">
        <ele>386.5</ele>
        <time>2026-05-10T08:10:28.000Z</time>
      </trkpt>
      <trkpt lat="45.85257" lon="3.54774">
        <ele>386.5</ele>
        <time>2026-05-10T08:10:29.000Z</time>
      </trkpt>
      <trkpt lat="45.85256" lon="3.54775">
        <ele>386.5</ele>
        <time>2026-05-10T08:10:30.000Z</time>
      </trkpt>
      <trkpt lat="45.85255" lon="3.54776">
        <ele>386.4</ele>
        <time>2026-05-10T08:10:31.000Z</time>
      </trkpt>
      <trkpt lat="45.85253" lon="3.54777">
        <ele>386.4</ele>
        <time>2026-05-10T08:10:32.000Z</time>
      </trkpt>
      <trkpt lat="45.85252" lon="3.54778">
        <ele>386.3</ele>
        <time>2026-05-10T08:10:33.000Z</time>
      </trkpt>
      <trkpt lat="45.85251" lon="3.54779">
        <ele>386.3</ele>
        <time>2026-05-10T08:10:34.000Z</time>
      </trkpt>
      <trkpt lat="45.8525" lon="3.5478">
        <ele>386.2</ele>
        <time>2026-05-10T08:10:35.000Z</time>
      </trkpt>
      <trkpt lat="45.85249" lon="3.5478">
        <ele>386.1</ele>
        <time>2026-05-10T08:10:36.000Z</time>
      </trkpt>
      <trkpt lat="45.85248" lon="3.54781">
        <ele>385.9</ele>
        <time>2026-05-10T08:10:37.000Z</time>
      </trkpt>
      <trkpt lat="45.85247" lon="3.54782">
        <ele>385.7</ele>
        <time>2026-05-10T08:10:38.000Z</time>
      </trkpt>
      <trkpt lat="45.85246" lon="3.54783">
        <ele>385.4</ele>
        <time>2026-05-10T08:10:39.000Z</time>
      </trkpt>
      <trkpt lat="45.85245" lon="3.54784">
        <ele>385.1</ele>
        <time>2026-05-10T08:10:40.000Z</time>
      </trkpt>
      <trkpt lat="45.85244" lon="3.54785">
        <ele>385</ele>
        <time>2026-05-10T08:10:41.000Z</time>
      </trkpt>
      <trkpt lat="45.85243" lon="3.54786">
        <ele>385</ele>
        <time>2026-05-10T08:10:42.000Z</time>
      </trkpt>
      <trkpt lat="45.85243" lon="3.54787">
        <ele>385</ele>
        <time>2026-05-10T08:10:43.000Z</time>
      </trkpt>
      <trkpt lat="45.85241" lon="3.54788">
        <ele>384.7</ele>
        <time>2026-05-10T08:10:44.000Z</time>
      </trkpt>
      <trkpt lat="45.85241" lon="3.5479">
        <ele>384.7</ele>
        <time>2026-05-10T08:10:45.000Z</time>
      </trkpt>
      <trkpt lat="45.8524" lon="3.54791">
        <ele>384.5</ele>
        <time>2026-05-10T08:10:46.000Z</time>
      </trkpt>
      <trkpt lat="45.85238" lon="3.54792">
        <ele>384.4</ele>
        <time>2026-05-10T08:10:47.000Z</time>
      </trkpt>
      <trkpt lat="45.85238" lon="3.54793">
        <ele>384.3</ele>
        <time>2026-05-10T08:10:48.000Z</time>
      </trkpt>
      <trkpt lat="45.85237" lon="3.54794">
        <ele>384.4</ele>
        <time>2026-05-10T08:10:49.000Z</time>
      </trkpt>
      <trkpt lat="45.85237" lon="3.54795">
        <ele>384.4</ele>
        <time>2026-05-10T08:10:50.000Z</time>
      </trkpt>
      <trkpt lat="45.85236" lon="3.54796">
        <ele>384.3</ele>
        <time>2026-05-10T08:10:51.000Z</time>
      </trkpt>
      <trkpt lat="45.85236" lon="3.54797">
        <ele>384.3</ele>
        <time>2026-05-10T08:10:52.000Z</time>
      </trkpt>
      <trkpt lat="45.85235" lon="3.54798">
        <ele>384.3</ele>
        <time>2026-05-10T08:10:53.000Z</time>
      </trkpt>
      <trkpt lat="45.85234" lon="3.548">
        <ele>384.2</ele>
        <time>2026-05-10T08:10:54.000Z</time>
      </trkpt>
      <trkpt lat="45.85233" lon="3.54802">
        <ele>384.2</ele>
        <time>2026-05-10T08:10:55.000Z</time>
      </trkpt>
      <trkpt lat="45.85232" lon="3.54803">
        <ele>384.3</ele>
        <time>2026-05-10T08:10:56.000Z</time>
      </trkpt>
      <trkpt lat="45.85231" lon="3.54804">
        <ele>384.2</ele>
        <time>2026-05-10T08:10:57.000Z</time>
      </trkpt>
      <trkpt lat="45.8523" lon="3.54805">
        <ele>384</ele>
        <time>2026-05-10T08:10:58.000Z</time>
      </trkpt>
      <trkpt lat="45.8523" lon="3.54806">
        <ele>383.9</ele>
        <time>2026-05-10T08:10:59.000Z</time>
      </trkpt>
      <trkpt lat="45.85229" lon="3.54807">
        <ele>383.8</ele>
        <time>2026-05-10T08:11:00.000Z</time>
      </trkpt>
      <trkpt lat="45.85229" lon="3.54808">
        <ele>383.7</ele>
        <time>2026-05-10T08:11:01.000Z</time>
      </trkpt>
      <trkpt lat="45.85228" lon="3.54808">
        <ele>383.6</ele>
        <time>2026-05-10T08:11:02.000Z</time>
      </trkpt>
      <trkpt lat="45.85227" lon="3.54809">
        <ele>383.5</ele>
        <time>2026-05-10T08:11:03.000Z</time>
      </trkpt>
      <trkpt lat="45.85227" lon="3.54809">
        <ele>383.3</ele>
        <time>2026-05-10T08:11:04.000Z</time>
      </trkpt>
      <trkpt lat="45.85226" lon="3.54809">
        <ele>383.2</ele>
        <time>2026-05-10T08:11:05.000Z</time>
      </trkpt>
      <trkpt lat="45.85225" lon="3.54808">
        <ele>383</ele>
        <time>2026-05-10T08:11:06.000Z</time>
      </trkpt>
      <trkpt lat="45.85225" lon="3.54808">
        <ele>382.8</ele>
        <time>2026-05-10T08:11:07.000Z</time>
      </trkpt>
      <trkpt lat="45.85224" lon="3.54806">
        <ele>382.5</ele>
        <time>2026-05-10T08:11:08.000Z</time>
      </trkpt>
      <trkpt lat="45.85224" lon="3.54805">
        <ele>382.2</ele>
        <time>2026-05-10T08:11:09.000Z</time>
      </trkpt>
      <trkpt lat="45.85223" lon="3.54803">
        <ele>381.9</ele>
        <time>2026-05-10T08:11:10.000Z</time>
      </trkpt>
      <trkpt lat="45.85223" lon="3.54802">
        <ele>381.6</ele>
        <time>2026-05-10T08:11:11.000Z</time>
      </trkpt>
      <trkpt lat="45.85223" lon="3.548">
        <ele>381.3</ele>
        <time>2026-05-10T08:11:12.000Z</time>
      </trkpt>
      <trkpt lat="45.85222" lon="3.54798">
        <ele>381</ele>
        <time>2026-05-10T08:11:13.000Z</time>
      </trkpt>
      <trkpt lat="45.85223" lon="3.54797">
        <ele>380.9</ele>
        <time>2026-05-10T08:11:14.000Z</time>
      </trkpt>
      <trkpt lat="45.85223" lon="3.54796">
        <ele>380.7</ele>
        <time>2026-05-10T08:11:15.000Z</time>
      </trkpt>
      <trkpt lat="45.85223" lon="3.54795">
        <ele>380.6</ele>
        <time>2026-05-10T08:11:16.000Z</time>
      </trkpt>
      <trkpt lat="45.85223" lon="3.54793">
        <ele>380.4</ele>
        <time>2026-05-10T08:11:17.000Z</time>
      </trkpt>
      <trkpt lat="45.85222" lon="3.54792">
        <ele>380.1</ele>
        <time>2026-05-10T08:11:18.000Z</time>
      </trkpt>
      <trkpt lat="45.85222" lon="3.54791">
        <ele>380</ele>
        <time>2026-05-10T08:11:19.000Z</time>
      </trkpt>
      <trkpt lat="45.85223" lon="3.5479">
        <ele>379.8</ele>
        <time>2026-05-10T08:11:20.000Z</time>
      </trkpt>
      <trkpt lat="45.85223" lon="3.54789">
        <ele>379.8</ele>
        <time>2026-05-10T08:11:21.000Z</time>
      </trkpt>
      <trkpt lat="45.85223" lon="3.54788">
        <ele>379.7</ele>
        <time>2026-05-10T08:11:22.000Z</time>
      </trkpt>
      <trkpt lat="45.85224" lon="3.54786">
        <ele>379.6</ele>
        <time>2026-05-10T08:11:23.000Z</time>
      </trkpt>
      <trkpt lat="45.85224" lon="3.54784">
        <ele>379.5</ele>
        <time>2026-05-10T08:11:24.000Z</time>
      </trkpt>
      <trkpt lat="45.85225" lon="3.54782">
        <ele>379.4</ele>
        <time>2026-05-10T08:11:25.000Z</time>
      </trkpt>
      <trkpt lat="45.85225" lon="3.5478">
        <ele>379.2</ele>
        <time>2026-05-10T08:11:26.000Z</time>
      </trkpt>
      <trkpt lat="45.85226" lon="3.54778">
        <ele>379.1</ele>
        <time>2026-05-10T08:11:27.000Z</time>
      </trkpt>
      <trkpt lat="45.85226" lon="3.54777">
        <ele>378.8</ele>
        <time>2026-05-10T08:11:28.000Z</time>
      </trkpt>
      <trkpt lat="45.85227" lon="3.54775">
        <ele>378.6</ele>
        <time>2026-05-10T08:11:29.000Z</time>
      </trkpt>
      <trkpt lat="45.85227" lon="3.54774">
        <ele>378.4</ele>
        <time>2026-05-10T08:11:30.000Z</time>
      </trkpt>
      <trkpt lat="45.85228" lon="3.54772">
        <ele>378.2</ele>
        <time>2026-05-10T08:11:31.000Z</time>
      </trkpt>
      <trkpt lat="45.85228" lon="3.5477">
        <ele>377.9</ele>
        <time>2026-05-10T08:11:32.000Z</time>
      </trkpt>
      <trkpt lat="45.85229" lon="3.54769">
        <ele>377.7</ele>
        <time>2026-05-10T08:11:33.000Z</time>
      </trkpt>
      <trkpt lat="45.85229" lon="3.54767">
        <ele>377.6</ele>
        <time>2026-05-10T08:11:34.000Z</time>
      </trkpt>
      <trkpt lat="45.8523" lon="3.54766">
        <ele>377.5</ele>
        <time>2026-05-10T08:11:35.000Z</time>
      </trkpt>
      <trkpt lat="45.8523" lon="3.54765">
        <ele>377.4</ele>
        <time>2026-05-10T08:11:36.000Z</time>
      </trkpt>
      <trkpt lat="45.85231" lon="3.54763">
        <ele>377.3</ele>
        <time>2026-05-10T08:11:37.000Z</time>
      </trkpt>
      <trkpt lat="45.85232" lon="3.54762">
        <ele>377.3</ele>
        <time>2026-05-10T08:11:38.000Z</time>
      </trkpt>
      <trkpt lat="45.85232" lon="3.54761">
        <ele>377.2</ele>
        <time>2026-05-10T08:11:39.000Z</time>
      </trkpt>
      <trkpt lat="45.85233" lon="3.5476">
        <ele>377.1</ele>
        <time>2026-05-10T08:11:40.000Z</time>
      </trkpt>
      <trkpt lat="45.85233" lon="3.54758">
        <ele>377</ele>
        <time>2026-05-10T08:11:41.000Z</time>
      </trkpt>
      <trkpt lat="45.85234" lon="3.54757">
        <ele>376.9</ele>
        <time>2026-05-10T08:11:42.000Z</time>
      </trkpt>
      <trkpt lat="45.85234" lon="3.54755">
        <ele>376.7</ele>
        <time>2026-05-10T08:11:43.000Z</time>
      </trkpt>
      <trkpt lat="45.85235" lon="3.54753">
        <ele>376.5</ele>
        <time>2026-05-10T08:11:44.000Z</time>
      </trkpt>
      <trkpt lat="45.85235" lon="3.54752">
        <ele>376.4</ele>
        <time>2026-05-10T08:11:45.000Z</time>
      </trkpt>
      <trkpt lat="45.85236" lon="3.5475">
        <ele>376.3</ele>
        <time>2026-05-10T08:11:46.000Z</time>
      </trkpt>
      <trkpt lat="45.85236" lon="3.54749">
        <ele>376.2</ele>
        <time>2026-05-10T08:11:47.000Z</time>
      </trkpt>
      <trkpt lat="45.85236" lon="3.54747">
        <ele>376.1</ele>
        <time>2026-05-10T08:11:48.000Z</time>
      </trkpt>
      <trkpt lat="45.85236" lon="3.54746">
        <ele>376</ele>
        <time>2026-05-10T08:11:49.000Z</time>
      </trkpt>
      <trkpt lat="45.85237" lon="3.54745">
        <ele>375.8</ele>
        <time>2026-05-10T08:11:50.000Z</time>
      </trkpt>
      <trkpt lat="45.85237" lon="3.54743">
        <ele>375.5</ele>
        <time>2026-05-10T08:11:51.000Z</time>
      </trkpt>
      <trkpt lat="45.85237" lon="3.54741">
        <ele>375.2</ele>
        <time>2026-05-10T08:11:52.000Z</time>
      </trkpt>
      <trkpt lat="45.85237" lon="3.54739">
        <ele>374.9</ele>
        <time>2026-05-10T08:11:53.000Z</time>
      </trkpt>
      <trkpt lat="45.85237" lon="3.54737">
        <ele>374.7</ele>
        <time>2026-05-10T08:11:54.000Z</time>
      </trkpt>
      <trkpt lat="45.85237" lon="3.54735">
        <ele>374.3</ele>
        <time>2026-05-10T08:11:55.000Z</time>
      </trkpt>
      <trkpt lat="45.85237" lon="3.54733">
        <ele>374.1</ele>
        <time>2026-05-10T08:11:56.000Z</time>
      </trkpt>
      <trkpt lat="45.85237" lon="3.54731">
        <ele>373.8</ele>
        <time>2026-05-10T08:11:57.000Z</time>
      </trkpt>
      <trkpt lat="45.85238" lon="3.5473">
        <ele>373.6</ele>
        <time>2026-05-10T08:11:58.000Z</time>
      </trkpt>
      <trkpt lat="45.85238" lon="3.54728">
        <ele>373.4</ele>
        <time>2026-05-10T08:11:59.000Z</time>
      </trkpt>
      <trkpt lat="45.85238" lon="3.54726">
        <ele>373.2</ele>
        <time>2026-05-10T08:12:00.000Z</time>
      </trkpt>
      <trkpt lat="45.85238" lon="3.54725">
        <ele>373</ele>
        <time>2026-05-10T08:12:01.000Z</time>
      </trkpt>
      <trkpt lat="45.85238" lon="3.54724">
        <ele>372.8</ele>
        <time>2026-05-10T08:12:02.000Z</time>
      </trkpt>
      <trkpt lat="45.85238" lon="3.54722">
        <ele>372.6</ele>
        <time>2026-05-10T08:12:03.000Z</time>
      </trkpt>
      <trkpt lat="45.85239" lon="3.54721">
        <ele>372.5</ele>
        <time>2026-05-10T08:12:04.000Z</time>
      </trkpt>
      <trkpt lat="45.85239" lon="3.54719">
        <ele>372.3</ele>
        <time>2026-05-10T08:12:05.000Z</time>
      </trkpt>
      <trkpt lat="45.85239" lon="3.54718">
        <ele>372.1</ele>
        <time>2026-05-10T08:12:06.000Z</time>
      </trkpt>
      <trkpt lat="45.8524" lon="3.54716">
        <ele>371.9</ele>
        <time>2026-05-10T08:12:07.000Z</time>
      </trkpt>
      <trkpt lat="45.8524" lon="3.54715">
        <ele>371.8</ele>
        <time>2026-05-10T08:12:08.000Z</time>
      </trkpt>
      <trkpt lat="45.85241" lon="3.54714">
        <ele>371.6</ele>
        <time>2026-05-10T08:12:09.000Z</time>
      </trkpt>
      <trkpt lat="45.85241" lon="3.54712">
        <ele>371.5</ele>
        <time>2026-05-10T08:12:10.000Z</time>
      </trkpt>
      <trkpt lat="45.85241" lon="3.54711">
        <ele>371.3</ele>
        <time>2026-05-10T08:12:11.000Z</time>
      </trkpt>
      <trkpt lat="45.85242" lon="3.54709">
        <ele>371.1</ele>
        <time>2026-05-10T08:12:12.000Z</time>
      </trkpt>
      <trkpt lat="45.85243" lon="3.54707">
        <ele>370.9</ele>
        <time>2026-05-10T08:12:13.000Z</time>
      </trkpt>
      <trkpt lat="45.85244" lon="3.54706">
        <ele>370.7</ele>
        <time>2026-05-10T08:12:14.000Z</time>
      </trkpt>
      <trkpt lat="45.85245" lon="3.54704">
        <ele>370.6</ele>
        <time>2026-05-10T08:12:15.000Z</time>
      </trkpt>
      <trkpt lat="45.85245" lon="3.54703">
        <ele>370.3</ele>
        <time>2026-05-10T08:12:16.000Z</time>
      </trkpt>
      <trkpt lat="45.85246" lon="3.54701">
        <ele>370.1</ele>
        <time>2026-05-10T08:12:17.000Z</time>
      </trkpt>
      <trkpt lat="45.85247" lon="3.547">
        <ele>369.8</ele>
        <time>2026-05-10T08:12:18.000Z</time>
      </trkpt>
      <trkpt lat="45.85247" lon="3.54698">
        <ele>369.5</ele>
        <time>2026-05-10T08:12:19.000Z</time>
      </trkpt>
      <trkpt lat="45.85248" lon="3.54697">
        <ele>369.3</ele>
        <time>2026-05-10T08:12:20.000Z</time>
      </trkpt>
      <trkpt lat="45.85248" lon="3.54695">
        <ele>369</ele>
        <time>2026-05-10T08:12:21.000Z</time>
      </trkpt>
      <trkpt lat="45.85249" lon="3.54694">
        <ele>368.8</ele>
        <time>2026-05-10T08:12:22.000Z</time>
      </trkpt>
      <trkpt lat="45.85249" lon="3.54693">
        <ele>368.7</ele>
        <time>2026-05-10T08:12:23.000Z</time>
      </trkpt>
      <trkpt lat="45.8525" lon="3.54692">
        <ele>368.6</ele>
        <time>2026-05-10T08:12:24.000Z</time>
      </trkpt>
      <trkpt lat="45.8525" lon="3.5469">
        <ele>368.4</ele>
        <time>2026-05-10T08:12:25.000Z</time>
      </trkpt>
      <trkpt lat="45.85251" lon="3.54688">
        <ele>368.2</ele>
        <time>2026-05-10T08:12:26.000Z</time>
      </trkpt>
      <trkpt lat="45.85251" lon="3.54686">
        <ele>367.9</ele>
        <time>2026-05-10T08:12:27.000Z</time>
      </trkpt>
      <trkpt lat="45.85251" lon="3.54684">
        <ele>367.7</ele>
        <time>2026-05-10T08:12:28.000Z</time>
      </trkpt>
      <trkpt lat="45.85252" lon="3.54682">
        <ele>367.5</ele>
        <time>2026-05-10T08:12:29.000Z</time>
      </trkpt>
      <trkpt lat="45.85252" lon="3.5468">
        <ele>367.2</ele>
        <time>2026-05-10T08:12:30.000Z</time>
      </trkpt>
      <trkpt lat="45.85252" lon="3.54677">
        <ele>366.9</ele>
        <time>2026-05-10T08:12:31.000Z</time>
      </trkpt>
      <trkpt lat="45.85252" lon="3.54676">
        <ele>366.6</ele>
        <time>2026-05-10T08:12:32.000Z</time>
      </trkpt>
      <trkpt lat="45.85251" lon="3.54674">
        <ele>366.3</ele>
        <time>2026-05-10T08:12:33.000Z</time>
      </trkpt>
      <trkpt lat="45.8525" lon="3.54672">
        <ele>365.8</ele>
        <time>2026-05-10T08:12:34.000Z</time>
      </trkpt>
      <trkpt lat="45.85249" lon="3.5467">
        <ele>365.4</ele>
        <time>2026-05-10T08:12:35.000Z</time>
        <extensions>
          <visugpx:TrkExtension xmlns:visugpx="https://www.visugpx.com/editgpx/">
            <visugpx:node>1</visugpx:node>
            </visugpx:TrkExtension>
        </extensions>
      </trkpt>
      <trkpt lat="45.8525" lon="3.54667">
        <ele>365</ele>
      </trkpt>
      <trkpt lat="45.85252" lon="3.54657">
        <ele>364.5</ele>
      </trkpt>
      <trkpt lat="45.85261" lon="3.5464">
        <ele>363.2</ele>
      </trkpt>
      <trkpt lat="45.85265" lon="3.54633">
        <ele>362.2</ele>
        <extensions>
          <visugpx:TrkExtension xmlns:visugpx="https://www.visugpx.com/editgpx/">
            <visugpx:node>2</visugpx:node>
            </visugpx:TrkExtension>
        </extensions>
      </trkpt>
      <trkpt lat="45.85342" lon="3.54576">
        <ele>352.6</ele>
        <time>2026-05-10T08:15:47.000Z</time>
        <extensions>
          <visugpx:TrkExtension xmlns:visugpx="https://www.visugpx.com/editgpx/">
            <visugpx:node>3</visugpx:node>
            </visugpx:TrkExtension>
        </extensions>
      </trkpt>
      <trkpt lat="45.85342" lon="3.54576">
        <ele>352.6</ele>
        <time>2026-05-10T08:15:47.000Z</time>
      </trkpt>
      <trkpt lat="45.85341" lon="3.54577">
        <ele>352.8</ele>
        <time>2026-05-10T08:15:48.000Z</time>
      </trkpt>
      <trkpt lat="45.85341" lon="3.54577">
        <ele>352.7</ele>
        <time>2026-05-10T08:15:49.000Z</time>
      </trkpt>
      <trkpt lat="45.85341" lon="3.54578">
        <ele>352.8</ele>
        <time>2026-05-10T08:15:50.000Z</time>
      </trkpt>
      <trkpt lat="45.85341" lon="3.54579">
        <ele>353.1</ele>
        <time>2026-05-10T08:15:51.000Z</time>
      </trkpt>
      <trkpt lat="45.85341" lon="3.5458">
        <ele>353.2</ele>
        <time>2026-05-10T08:15:52.000Z</time>
      </trkpt>
      <trkpt lat="45.8534" lon="3.5458">
        <ele>353.4</ele>
        <time>2026-05-10T08:15:53.000Z</time>
      </trkpt>
      <trkpt lat="45.8534" lon="3.54581">
        <ele>353.5</ele>
        <time>2026-05-10T08:15:54.000Z</time>
      </trkpt>
      <trkpt lat="45.8534" lon="3.54582">
        <ele>353.7</ele>
        <time>2026-05-10T08:15:55.000Z</time>
      </trkpt>
      <trkpt lat="45.85341" lon="3.54583">
        <ele>353.9</ele>
        <time>2026-05-10T08:15:56.000Z</time>
      </trkpt>
      <trkpt lat="45.85341" lon="3.54583">
        <ele>354</ele>
        <time>2026-05-10T08:15:57.000Z</time>
      </trkpt>
      <trkpt lat="45.85342" lon="3.54584">
        <ele>354.6</ele>
        <time>2026-05-10T08:15:58.000Z</time>
      </trkpt>
      <trkpt lat="45.85343" lon="3.54584">
        <ele>354.9</ele>
        <time>2026-05-10T08:15:59.000Z</time>
      </trkpt>
      <trkpt lat="45.85344" lon="3.54585">
        <ele>355.4</ele>
        <time>2026-05-10T08:16:00.000Z</time>
      </trkpt>
      <trkpt lat="45.85345" lon="3.54586">
        <ele>356.1</ele>
        <time>2026-05-10T08:16:01.000Z</time>
      </trkpt>
      <trkpt lat="45.85345" lon="3.54586">
        <ele>356.4</ele>
        <time>2026-05-10T08:16:02.000Z</time>
      </trkpt>
      <trkpt lat="45.85345" lon="3.54586">
        <ele>356.5</ele>
        <time>2026-05-10T08:16:03.000Z</time>
      </trkpt>
      <trkpt lat="45.85345" lon="3.54586">
        <ele>356.4</ele>
        <time>2026-05-10T08:16:04.000Z</time>
      </trkpt>
      <trkpt lat="45.85345" lon="3.54586">
        <ele>356.5</ele>
        <time>2026-05-10T08:16:05.000Z</time>
      </trkpt>
      <trkpt lat="45.85346" lon="3.54587">
        <ele>356.8</ele>
        <time>2026-05-10T08:16:06.000Z</time>
      </trkpt>
      <trkpt lat="45.85347" lon="3.54587">
        <ele>357.2</ele>
        <time>2026-05-10T08:16:07.000Z</time>
      </trkpt>
      <trkpt lat="45.85347" lon="3.54586">
        <ele>357.1</ele>
        <time>2026-05-10T08:16:08.000Z</time>
      </trkpt>
      <trkpt lat="45.85347" lon="3.54586">
        <ele>356.9</ele>
        <time>2026-05-10T08:16:09.000Z</time>
      </trkpt>
      <trkpt lat="45.85348" lon="3.54586">
        <ele>357.2</ele>
        <time>2026-05-10T08:16:10.000Z</time>
      </trkpt>
      <trkpt lat="45.85349" lon="3.54586">
        <ele>357.5</ele>
        <time>2026-05-10T08:16:11.000Z</time>
      </trkpt>
      <trkpt lat="45.85349" lon="3.54587">
        <ele>357.7</ele>
        <time>2026-05-10T08:16:12.000Z</time>
      </trkpt>
      <trkpt lat="45.85348" lon="3.54586">
        <ele>357.5</ele>
        <time>2026-05-10T08:16:13.000Z</time>
      </trkpt>
      <trkpt lat="45.85349" lon="3.54586">
        <ele>357.5</ele>
        <time>2026-05-10T08:16:14.000Z</time>
      </trkpt>
      <trkpt lat="45.85349" lon="3.54585">
        <ele>357.1</ele>
        <time>2026-05-10T08:16:15.000Z</time>
      </trkpt>
      <trkpt lat="45.85349" lon="3.54585">
        <ele>357.1</ele>
        <time>2026-05-10T08:16:16.000Z</time>
      </trkpt>
      <trkpt lat="45.85349" lon="3.54585">
        <ele>357.2</ele>
        <time>2026-05-10T08:16:17.000Z</time>
      </trkpt>
      <trkpt lat="45.85351" lon="3.54585">
        <ele>357.6</ele>
        <time>2026-05-10T08:16:18.000Z</time>
      </trkpt>
      <trkpt lat="45.85351" lon="3.54585">
        <ele>357.6</ele>
        <time>2026-05-10T08:16:19.000Z</time>
      </trkpt>
      <trkpt lat="45.85351" lon="3.54585">
        <ele>357.5</ele>
        <time>2026-05-10T08:16:20.000Z</time>
      </trkpt>
      <trkpt lat="45.85351" lon="3.54585">
        <ele>357.8</ele>
        <time>2026-05-10T08:16:21.000Z</time>
      </trkpt>
      <trkpt lat="45.85352" lon="3.54586">
        <ele>358.4</ele>
        <time>2026-05-10T08:16:22.000Z</time>
      </trkpt>
      <trkpt lat="45.85352" lon="3.54586">
        <ele>358.3</ele>
        <time>2026-05-10T08:16:23.000Z</time>
      </trkpt>
      <trkpt lat="45.85352" lon="3.54586">
        <ele>358.5</ele>
        <time>2026-05-10T08:16:24.000Z</time>
      </trkpt>
      <trkpt lat="45.85352" lon="3.54587">
        <ele>358.7</ele>
        <time>2026-05-10T08:16:25.000Z</time>
      </trkpt>
      <trkpt lat="45.85352" lon="3.54587">
        <ele>358.7</ele>
        <time>2026-05-10T08:16:26.000Z</time>
      </trkpt>
      <trkpt lat="45.85352" lon="3.54587">
        <ele>358.7</ele>
        <time>2026-05-10T08:16:27.000Z</time>
      </trkpt>
      <trkpt lat="45.85351" lon="3.54588">
        <ele>358.9</ele>
        <time>2026-05-10T08:16:28.000Z</time>
      </trkpt>
      <trkpt lat="45.85351" lon="3.54589">
        <ele>359</ele>
        <time>2026-05-10T08:16:29.000Z</time>
      </trkpt>
      <trkpt lat="45.85351" lon="3.54589">
        <ele>359.2</ele>
        <time>2026-05-10T08:16:30.000Z</time>
      </trkpt>
      <trkpt lat="45.85351" lon="3.5459">
        <ele>359.5</ele>
        <time>2026-05-10T08:16:31.000Z</time>
      </trkpt>
      <trkpt lat="45.85352" lon="3.54591">
        <ele>360</ele>
        <time>2026-05-10T08:16:32.000Z</time>
      </trkpt>
      <trkpt lat="45.85352" lon="3.54591">
        <ele>360.2</ele>
        <time>2026-05-10T08:16:33.000Z</time>
      </trkpt>
      <trkpt lat="45.85352" lon="3.54591">
        <ele>360.4</ele>
        <time>2026-05-10T08:16:34.000Z</time>
      </trkpt>
      <trkpt lat="45.85353" lon="3.54591">
        <ele>360.3</ele>
        <time>2026-05-10T08:16:35.000Z</time>
      </trkpt>
      <trkpt lat="45.85353" lon="3.54591">
        <ele>360.3</ele>
        <time>2026-05-10T08:16:36.000Z</time>
      </trkpt>
      <trkpt lat="45.85353" lon="3.54591">
        <ele>360.4</ele>
        <time>2026-05-10T08:16:37.000Z</time>
      </trkpt>
      <trkpt lat="45.85353" lon="3.54591">
        <ele>360.4</ele>
        <time>2026-05-10T08:16:38.000Z</time>
      </trkpt>
      <trkpt lat="45.85353" lon="3.54591">
        <ele>360.5</ele>
        <time>2026-05-10T08:16:39.000Z</time>
      </trkpt>
      <trkpt lat="45.85353" lon="3.54591">
        <ele>360.4</ele>
        <time>2026-05-10T08:16:40.000Z</time>
      </trkpt>
      <trkpt lat="45.85354" lon="3.54591">
        <ele>360.7</ele>
        <time>2026-05-10T08:16:41.000Z</time>
      </trkpt>
      <trkpt lat="45.85354" lon="3.54591">
        <ele>360.8</ele>
        <time>2026-05-10T08:16:42.000Z</time>
      </trkpt>
      <trkpt lat="45.85354" lon="3.54591">
        <ele>361</ele>
        <time>2026-05-10T08:16:43.000Z</time>
      </trkpt>
      <trkpt lat="45.85355" lon="3.54591">
        <ele>360.8</ele>
        <time>2026-05-10T08:16:44.000Z</time>
      </trkpt>
      <trkpt lat="45.85355" lon="3.54591">
        <ele>361.2</ele>
        <time>2026-05-10T08:16:45.000Z</time>
      </trkpt>
      <trkpt lat="45.85356" lon="3.54592">
        <ele>361.5</ele>
        <time>2026-05-10T08:16:46.000Z</time>
      </trkpt>
      <trkpt lat="45.85357" lon="3.54591">
        <ele>361.6</ele>
        <time>2026-05-10T08:16:47.000Z</time>
      </trkpt>
      <trkpt lat="45.85358" lon="3.54592">
        <ele>362.1</ele>
        <time>2026-05-10T08:16:48.000Z</time>
      </trkpt>
      <trkpt lat="45.85359" lon="3.54593">
        <ele>362.9</ele>
        <time>2026-05-10T08:16:49.000Z</time>
      </trkpt>
      <trkpt lat="45.8536" lon="3.54594">
        <ele>363.3</ele>
        <time>2026-05-10T08:16:50.000Z</time>
      </trkpt>
      <trkpt lat="45.85361" lon="3.54595">
        <ele>364.2</ele>
        <time>2026-05-10T08:16:51.000Z</time>
      </trkpt>
      <trkpt lat="45.85362" lon="3.54595">
        <ele>364.4</ele>
        <time>2026-05-10T08:16:52.000Z</time>
      </trkpt>
      <trkpt lat="45.85362" lon="3.54595">
        <ele>364.2</ele>
        <time>2026-05-10T08:16:53.000Z</time>
      </trkpt>
      <trkpt lat="45.85363" lon="3.54595">
        <ele>364.4</ele>
        <time>2026-05-10T08:16:54.000Z</time>
      </trkpt>
      <trkpt lat="45.85363" lon="3.54595">
        <ele>364.8</ele>
        <time>2026-05-10T08:16:55.000Z</time>
      </trkpt>
      <trkpt lat="45.85363" lon="3.54596">
        <ele>364.9</ele>
        <time>2026-05-10T08:16:56.000Z</time>
      </trkpt>
      <trkpt lat="45.85364" lon="3.54597">
        <ele>365.3</ele>
        <time>2026-05-10T08:16:57.000Z</time>
      </trkpt>
      <trkpt lat="45.85364" lon="3.54597">
        <ele>365.7</ele>
        <time>2026-05-10T08:16:58.000Z</time>
      </trkpt>
      <trkpt lat="45.85364" lon="3.54596">
        <ele>365.3</ele>
        <time>2026-05-10T08:16:59.000Z</time>
      </trkpt>
      <trkpt lat="45.85365" lon="3.54597">
        <ele>365.7</ele>
        <time>2026-05-10T08:17:00.000Z</time>
      </trkpt>
      <trkpt lat="45.85365" lon="3.54597">
        <ele>365.9</ele>
        <time>2026-05-10T08:17:01.000Z</time>
      </trkpt>
      <trkpt lat="45.85366" lon="3.54598">
        <ele>366.3</ele>
        <time>2026-05-10T08:17:02.000Z</time>
      </trkpt>
      <trkpt lat="45.85367" lon="3.54599">
        <ele>366.9</ele>
        <time>2026-05-10T08:17:03.000Z</time>
      </trkpt>
      <trkpt lat="45.85367" lon="3.546">
        <ele>367.4</ele>
        <time>2026-05-10T08:17:04.000Z</time>
      </trkpt>
      <trkpt lat="45.85368" lon="3.54601">
        <ele>368</ele>
        <time>2026-05-10T08:17:05.000Z</time>
      </trkpt>
      <trkpt lat="45.85369" lon="3.54602">
        <ele>368.4</ele>
        <time>2026-05-10T08:17:06.000Z</time>
      </trkpt>
      <trkpt lat="45.8537" lon="3.54603">
        <ele>368.8</ele>
        <time>2026-05-10T08:17:07.000Z</time>
      </trkpt>
      <trkpt lat="45.8537" lon="3.54603">
        <ele>368.8</ele>
        <time>2026-05-10T08:17:08.000Z</time>
      </trkpt>
      <trkpt lat="45.8537" lon="3.54604">
        <ele>369.1</ele>
        <time>2026-05-10T08:17:09.000Z</time>
      </trkpt>
      <trkpt lat="45.85371" lon="3.54604">
        <ele>369.5</ele>
        <time>2026-05-10T08:17:10.000Z</time>
      </trkpt>
      <trkpt lat="45.85371" lon="3.54605">
        <ele>369.7</ele>
        <time>2026-05-10T08:17:11.000Z</time>
      </trkpt>
      <trkpt lat="45.85371" lon="3.54606">
        <ele>370</ele>
        <time>2026-05-10T08:17:12.000Z</time>
      </trkpt>
      <trkpt lat="45.85372" lon="3.54606">
        <ele>370.3</ele>
        <time>2026-05-10T08:17:13.000Z</time>
      </trkpt>
      <trkpt lat="45.85373" lon="3.54607">
        <ele>370.8</ele>
        <time>2026-05-10T08:17:14.000Z</time>
      </trkpt>
      <trkpt lat="45.85373" lon="3.54608">
        <ele>371</ele>
        <time>2026-05-10T08:17:15.000Z</time>
      </trkpt>
      <trkpt lat="45.85373" lon="3.54609">
        <ele>371.3</ele>
        <time>2026-05-10T08:17:16.000Z</time>
      </trkpt>
      <trkpt lat="45.85373" lon="3.54609">
        <ele>371.6</ele>
        <time>2026-05-10T08:17:17.000Z</time>
      </trkpt>
      <trkpt lat="45.85374" lon="3.54609">
        <ele>371.7</ele>
        <time>2026-05-10T08:17:18.000Z</time>
      </trkpt>
      <trkpt lat="45.85374" lon="3.5461">
        <ele>372</ele>
        <time>2026-05-10T08:17:19.000Z</time>
      </trkpt>
      <trkpt lat="45.85375" lon="3.5461">
        <ele>372.2</ele>
        <time>2026-05-10T08:17:20.000Z</time>
      </trkpt>
      <trkpt lat="45.85375" lon="3.5461">
        <ele>372.1</ele>
        <time>2026-05-10T08:17:21.000Z</time>
      </trkpt>
      <trkpt lat="45.85375" lon="3.54611">
        <ele>372.5</ele>
        <time>2026-05-10T08:17:22.000Z</time>
      </trkpt>
      <trkpt lat="45.85376" lon="3.54611">
        <ele>372.7</ele>
        <time>2026-05-10T08:17:23.000Z</time>
      </trkpt>
      <trkpt lat="45.85376" lon="3.54611">
        <ele>372.6</ele>
        <time>2026-05-10T08:17:24.000Z</time>
      </trkpt>
      <trkpt lat="45.85377" lon="3.54611">
        <ele>372.7</ele>
        <time>2026-05-10T08:17:25.000Z</time>
      </trkpt>
      <trkpt lat="45.85378" lon="3.54612">
        <ele>373.1</ele>
        <time>2026-05-10T08:17:26.000Z</time>
      </trkpt>
      <trkpt lat="45.85378" lon="3.54613">
        <ele>373.3</ele>
        <time>2026-05-10T08:17:27.000Z</time>
      </trkpt>
      <trkpt lat="45.85378" lon="3.54614">
        <ele>373.6</ele>
        <time>2026-05-10T08:17:28.000Z</time>
      </trkpt>
      <trkpt lat="45.85379" lon="3.54615">
        <ele>373.9</ele>
        <time>2026-05-10T08:17:29.000Z</time>
      </trkpt>
      <trkpt lat="45.85379" lon="3.54616">
        <ele>374.2</ele>
        <time>2026-05-10T08:17:30.000Z</time>
      </trkpt>
      <trkpt lat="45.8538" lon="3.54617">
        <ele>374.5</ele>
        <time>2026-05-10T08:17:31.000Z</time>
      </trkpt>
      <trkpt lat="45.8538" lon="3.54617">
        <ele>374.7</ele>
        <time>2026-05-10T08:17:32.000Z</time>
      </trkpt>
      <trkpt lat="45.85381" lon="3.54618">
        <ele>375.1</ele>
        <time>2026-05-10T08:17:33.000Z</time>
      </trkpt>
      <trkpt lat="45.85381" lon="3.54619">
        <ele>375.3</ele>
        <time>2026-05-10T08:17:34.000Z</time>
      </trkpt>
      <trkpt lat="45.85382" lon="3.5462">
        <ele>375.4</ele>
        <time>2026-05-10T08:17:35.000Z</time>
      </trkpt>
      <trkpt lat="45.85382" lon="3.5462">
        <ele>375.5</ele>
        <time>2026-05-10T08:17:36.000Z</time>
      </trkpt>
      <trkpt lat="45.85382" lon="3.5462">
        <ele>375.5</ele>
        <time>2026-05-10T08:17:37.000Z</time>
      </trkpt>
      <trkpt lat="45.85382" lon="3.5462">
        <ele>375.6</ele>
        <time>2026-05-10T08:17:38.000Z</time>
      </trkpt>
      <trkpt lat="45.85382" lon="3.5462">
        <ele>375.6</ele>
        <time>2026-05-10T08:17:39.000Z</time>
      </trkpt>
      <trkpt lat="45.85382" lon="3.54621">
        <ele>375.7</ele>
        <time>2026-05-10T08:17:40.000Z</time>
      </trkpt>
      <trkpt lat="45.85383" lon="3.54621">
        <ele>376</ele>
        <time>2026-05-10T08:17:41.000Z</time>
      </trkpt>
      <trkpt lat="45.85383" lon="3.54622">
        <ele>376.2</ele>
        <time>2026-05-10T08:17:42.000Z</time>
      </trkpt>
      <trkpt lat="45.85384" lon="3.54623">
        <ele>376.5</ele>
        <time>2026-05-10T08:17:43.000Z</time>
      </trkpt>
      <trkpt lat="45.85385" lon="3.54624">
        <ele>376.9</ele>
        <time>2026-05-10T08:17:44.000Z</time>
      </trkpt>
      <trkpt lat="45.85386" lon="3.54624">
        <ele>377.2</ele>
        <time>2026-05-10T08:17:45.000Z</time>
      </trkpt>
      <trkpt lat="45.85386" lon="3.54625">
        <ele>377.4</ele>
        <time>2026-05-10T08:17:46.000Z</time>
      </trkpt>
      <trkpt lat="45.85387" lon="3.54626">
        <ele>377.7</ele>
        <time>2026-05-10T08:17:47.000Z</time>
      </trkpt>
      <trkpt lat="45.85388" lon="3.54626">
        <ele>378</ele>
        <time>2026-05-10T08:17:48.000Z</time>
      </trkpt>
      <trkpt lat="45.85388" lon="3.54626">
        <ele>378.1</ele>
        <time>2026-05-10T08:17:49.000Z</time>
      </trkpt>
      <trkpt lat="45.85388" lon="3.54626">
        <ele>378.1</ele>
        <time>2026-05-10T08:17:50.000Z</time>
      </trkpt>
      <trkpt lat="45.85389" lon="3.54627">
        <ele>378.3</ele>
        <time>2026-05-10T08:17:51.000Z</time>
      </trkpt>
      <trkpt lat="45.8539" lon="3.54627">
        <ele>378.7</ele>
        <time>2026-05-10T08:17:52.000Z</time>
      </trkpt>
      <trkpt lat="45.8539" lon="3.54627">
        <ele>378.7</ele>
        <time>2026-05-10T08:17:53.000Z</time>
      </trkpt>
      <trkpt lat="45.8539" lon="3.54628">
        <ele>378.9</ele>
        <time>2026-05-10T08:17:54.000Z</time>
      </trkpt>
      <trkpt lat="45.85391" lon="3.54628">
        <ele>379.3</ele>
        <time>2026-05-10T08:17:55.000Z</time>
      </trkpt>
      <trkpt lat="45.85391" lon="3.54629">
        <ele>379.4</ele>
        <time>2026-05-10T08:17:56.000Z</time>
      </trkpt>
      <trkpt lat="45.85391" lon="3.54629">
        <ele>379.4</ele>
        <time>2026-05-10T08:17:57.000Z</time>
      </trkpt>
      <trkpt lat="45.85392" lon="3.5463">
        <ele>379.7</ele>
        <time>2026-05-10T08:17:58.000Z</time>
      </trkpt>
      <trkpt lat="45.85392" lon="3.54631">
        <ele>380</ele>
        <time>2026-05-10T08:17:59.000Z</time>
      </trkpt>
      <trkpt lat="45.85392" lon="3.54631">
        <ele>380.1</ele>
        <time>2026-05-10T08:18:00.000Z</time>
      </trkpt>
      <trkpt lat="45.85393" lon="3.54631">
        <ele>380.5</ele>
        <time>2026-05-10T08:18:01.000Z</time>
      </trkpt>
      <trkpt lat="45.85394" lon="3.54633">
        <ele>381</ele>
        <time>2026-05-10T08:18:02.000Z</time>
      </trkpt>
      <trkpt lat="45.85395" lon="3.54633">
        <ele>381.4</ele>
        <time>2026-05-10T08:18:03.000Z</time>
      </trkpt>
      <trkpt lat="45.85395" lon="3.54634">
        <ele>381.5</ele>
        <time>2026-05-10T08:18:04.000Z</time>
      </trkpt>
      <trkpt lat="45.85395" lon="3.54634">
        <ele>381.7</ele>
        <time>2026-05-10T08:18:05.000Z</time>
      </trkpt>
      <trkpt lat="45.85396" lon="3.54635">
        <ele>381.8</ele>
        <time>2026-05-10T08:18:06.000Z</time>
      </trkpt>
      <trkpt lat="45.85396" lon="3.54636">
        <ele>382</ele>
        <time>2026-05-10T08:18:07.000Z</time>
      </trkpt>
      <trkpt lat="45.85397" lon="3.54636">
        <ele>382.4</ele>
        <time>2026-05-10T08:18:08.000Z</time>
      </trkpt>
      <trkpt lat="45.85397" lon="3.54637">
        <ele>382.6</ele>
        <time>2026-05-10T08:18:09.000Z</time>
      </trkpt>
      <trkpt lat="45.85397" lon="3.54637">
        <ele>382.7</ele>
        <time>2026-05-10T08:18:10.000Z</time>
      </trkpt>
      <trkpt lat="45.85397" lon="3.54638">
        <ele>382.9</ele>
        <time>2026-05-10T08:18:11.000Z</time>
      </trkpt>
      <trkpt lat="45.85397" lon="3.54639">
        <ele>383.1</ele>
        <time>2026-05-10T08:18:12.000Z</time>
      </trkpt>
      <trkpt lat="45.85397" lon="3.5464">
        <ele>383.3</ele>
        <time>2026-05-10T08:18:13.000Z</time>
      </trkpt>
      <trkpt lat="45.85398" lon="3.54641">
        <ele>383.6</ele>
        <time>2026-05-10T08:18:14.000Z</time>
      </trkpt>
      <trkpt lat="45.85398" lon="3.54642">
        <ele>383.6</ele>
        <time>2026-05-10T08:18:15.000Z</time>
      </trkpt>
      <trkpt lat="45.85398" lon="3.54642">
        <ele>383.8</ele>
        <time>2026-05-10T08:18:16.000Z</time>
      </trkpt>
      <trkpt lat="45.85398" lon="3.54642">
        <ele>383.7</ele>
        <time>2026-05-10T08:18:17.000Z</time>
      </trkpt>
      <trkpt lat="45.85398" lon="3.54643">
        <ele>383.9</ele>
        <time>2026-05-10T08:18:18.000Z</time>
      </trkpt>
      <trkpt lat="45.85399" lon="3.54644">
        <ele>384.2</ele>
        <time>2026-05-10T08:18:19.000Z</time>
      </trkpt>
      <trkpt lat="45.85399" lon="3.54644">
        <ele>384.3</ele>
        <time>2026-05-10T08:18:20.000Z</time>
      </trkpt>
      <trkpt lat="45.854" lon="3.54644">
        <ele>384.5</ele>
        <time>2026-05-10T08:18:21.000Z</time>
      </trkpt>
      <trkpt lat="45.854" lon="3.54645">
        <ele>384.6</ele>
        <time>2026-05-10T08:18:22.000Z</time>
      </trkpt>
      <trkpt lat="45.854" lon="3.54646">
        <ele>384.7</ele>
        <time>2026-05-10T08:18:23.000Z</time>
      </trkpt>
      <trkpt lat="45.854" lon="3.54646">
        <ele>384.9</ele>
        <time>2026-05-10T08:18:24.000Z</time>
      </trkpt>
      <trkpt lat="45.854" lon="3.54647">
        <ele>385.1</ele>
        <time>2026-05-10T08:18:25.000Z</time>
      </trkpt>
      <trkpt lat="45.85401" lon="3.54648">
        <ele>385.3</ele>
        <time>2026-05-10T08:18:26.000Z</time>
      </trkpt>
      <trkpt lat="45.85401" lon="3.54649">
        <ele>385.6</ele>
        <time>2026-05-10T08:18:27.000Z</time>
      </trkpt>
      <trkpt lat="45.85402" lon="3.54649">
        <ele>385.8</ele>
        <time>2026-05-10T08:18:28.000Z</time>
      </trkpt>
      <trkpt lat="45.85402" lon="3.5465">
        <ele>386</ele>
        <time>2026-05-10T08:18:29.000Z</time>
      </trkpt>
      <trkpt lat="45.85402" lon="3.5465">
        <ele>386</ele>
        <time>2026-05-10T08:18:30.000Z</time>
      </trkpt>
      <trkpt lat="45.85403" lon="3.5465">
        <ele>386.1</ele>
        <time>2026-05-10T08:18:31.000Z</time>
      </trkpt>
      <trkpt lat="45.85403" lon="3.54651">
        <ele>386.3</ele>
        <time>2026-05-10T08:18:32.000Z</time>
      </trkpt>
      <trkpt lat="45.85403" lon="3.54652">
        <ele>386.5</ele>
        <time>2026-05-10T08:18:33.000Z</time>
      </trkpt>
      <trkpt lat="45.85404" lon="3.54653">
        <ele>386.8</ele>
        <time>2026-05-10T08:18:34.000Z</time>
      </trkpt>
      <trkpt lat="45.85404" lon="3.54654">
        <ele>387</ele>
        <time>2026-05-10T08:18:35.000Z</time>
      </trkpt>
      <trkpt lat="45.85405" lon="3.54654">
        <ele>387</ele>
        <time>2026-05-10T08:18:36.000Z</time>
      </trkpt>
      <trkpt lat="45.85405" lon="3.54655">
        <ele>387.2</ele>
        <time>2026-05-10T08:18:37.000Z</time>
      </trkpt>
      <trkpt lat="45.85405" lon="3.54656">
        <ele>387.5</ele>
        <time>2026-05-10T08:18:38.000Z</time>
      </trkpt>
      <trkpt lat="45.85405" lon="3.54657">
        <ele>387.6</ele>
        <time>2026-05-10T08:18:39.000Z</time>
      </trkpt>
      <trkpt lat="45.85406" lon="3.54657">
        <ele>387.7</ele>
        <time>2026-05-10T08:18:40.000Z</time>
      </trkpt>
      <trkpt lat="45.85407" lon="3.54658">
        <ele>388.1</ele>
        <time>2026-05-10T08:18:41.000Z</time>
      </trkpt>
      <trkpt lat="45.85407" lon="3.54659">
        <ele>388.2</ele>
        <time>2026-05-10T08:18:42.000Z</time>
      </trkpt>
      <trkpt lat="45.85407" lon="3.5466">
        <ele>388.3</ele>
        <time>2026-05-10T08:18:43.000Z</time>
      </trkpt>
      <trkpt lat="45.85407" lon="3.54661">
        <ele>388.6</ele>
        <time>2026-05-10T08:18:44.000Z</time>
      </trkpt>
      <trkpt lat="45.85408" lon="3.54662">
        <ele>388.9</ele>
        <time>2026-05-10T08:18:45.000Z</time>
      </trkpt>
      <trkpt lat="45.85409" lon="3.54663">
        <ele>389.1</ele>
        <time>2026-05-10T08:18:46.000Z</time>
      </trkpt>
      <trkpt lat="45.8541" lon="3.54663">
        <ele>389.3</ele>
        <time>2026-05-10T08:18:47.000Z</time>
      </trkpt>
      <trkpt lat="45.85411" lon="3.54663">
        <ele>389.5</ele>
        <time>2026-05-10T08:18:48.000Z</time>
      </trkpt>
      <trkpt lat="45.85412" lon="3.54662">
        <ele>389.5</ele>
        <time>2026-05-10T08:18:49.000Z</time>
      </trkpt>
      <trkpt lat="45.85412" lon="3.54662">
        <ele>389.6</ele>
        <time>2026-05-10T08:18:50.000Z</time>
      </trkpt>
      <trkpt lat="45.85413" lon="3.54661">
        <ele>389.7</ele>
        <time>2026-05-10T08:18:51.000Z</time>
      </trkpt>
      <trkpt lat="45.85414" lon="3.54661">
        <ele>389.9</ele>
        <time>2026-05-10T08:18:52.000Z</time>
      </trkpt>
      <trkpt lat="45.85415" lon="3.5466">
        <ele>390</ele>
        <time>2026-05-10T08:18:53.000Z</time>
      </trkpt>
      <trkpt lat="45.85416" lon="3.54659">
        <ele>390.1</ele>
        <time>2026-05-10T08:18:54.000Z</time>
      </trkpt>
      <trkpt lat="45.85417" lon="3.54658">
        <ele>390.1</ele>
        <time>2026-05-10T08:18:55.000Z</time>
      </trkpt>
      <trkpt lat="45.85418" lon="3.54657">
        <ele>390</ele>
        <time>2026-05-10T08:18:56.000Z</time>
      </trkpt>
      <trkpt lat="45.85418" lon="3.54654">
        <ele>389.8</ele>
        <time>2026-05-10T08:18:57.000Z</time>
      </trkpt>
      <trkpt lat="45.85419" lon="3.54653">
        <ele>389.7</ele>
        <time>2026-05-10T08:18:58.000Z</time>
      </trkpt>
      <trkpt lat="45.8542" lon="3.54652">
        <ele>389.7</ele>
        <time>2026-05-10T08:18:59.000Z</time>
      </trkpt>
      <trkpt lat="45.8542" lon="3.54651">
        <ele>389.6</ele>
        <time>2026-05-10T08:19:00.000Z</time>
      </trkpt>
      <trkpt lat="45.85421" lon="3.5465">
        <ele>389.5</ele>
        <time>2026-05-10T08:19:01.000Z</time>
      </trkpt>
      <trkpt lat="45.85422" lon="3.54648">
        <ele>389.4</ele>
        <time>2026-05-10T08:19:02.000Z</time>
      </trkpt>
      <trkpt lat="45.85422" lon="3.54647">
        <ele>389.3</ele>
        <time>2026-05-10T08:19:03.000Z</time>
      </trkpt>
      <trkpt lat="45.85423" lon="3.54645">
        <ele>389.2</ele>
        <time>2026-05-10T08:19:04.000Z</time>
      </trkpt>
      <trkpt lat="45.85424" lon="3.54645">
        <ele>389.2</ele>
        <time>2026-05-10T08:19:05.000Z</time>
      </trkpt>
      <trkpt lat="45.85424" lon="3.54644">
        <ele>389.1</ele>
        <time>2026-05-10T08:19:06.000Z</time>
      </trkpt>
      <trkpt lat="45.85425" lon="3.54642">
        <ele>389</ele>
        <time>2026-05-10T08:19:07.000Z</time>
      </trkpt>
      <trkpt lat="45.85426" lon="3.54641">
        <ele>388.9</ele>
        <time>2026-05-10T08:19:08.000Z</time>
      </trkpt>
      <trkpt lat="45.85427" lon="3.5464">
        <ele>388.8</ele>
        <time>2026-05-10T08:19:09.000Z</time>
      </trkpt>
      <trkpt lat="45.85428" lon="3.54639">
        <ele>388.8</ele>
        <time>2026-05-10T08:19:10.000Z</time>
      </trkpt>
      <trkpt lat="45.85429" lon="3.54639">
        <ele>388.8</ele>
        <time>2026-05-10T08:19:11.000Z</time>
      </trkpt>
      <trkpt lat="45.8543" lon="3.54638">
        <ele>388.8</ele>
        <time>2026-05-10T08:19:12.000Z</time>
      </trkpt>
      <trkpt lat="45.85432" lon="3.54638">
        <ele>388.8</ele>
        <time>2026-05-10T08:19:13.000Z</time>
      </trkpt>
      <trkpt lat="45.85433" lon="3.54637">
        <ele>388.7</ele>
        <time>2026-05-10T08:19:14.000Z</time>
      </trkpt>
      <trkpt lat="45.85434" lon="3.54637">
        <ele>388.6</ele>
        <time>2026-05-10T08:19:15.000Z</time>
      </trkpt>
      <trkpt lat="45.85436" lon="3.54636">
        <ele>388.6</ele>
        <time>2026-05-10T08:19:16.000Z</time>
      </trkpt>
      <trkpt lat="45.85436" lon="3.54636">
        <ele>388.7</ele>
        <time>2026-05-10T08:19:17.000Z</time>
      </trkpt>
      <trkpt lat="45.85437" lon="3.54636">
        <ele>388.7</ele>
        <time>2026-05-10T08:19:18.000Z</time>
      </trkpt>
      <trkpt lat="45.85438" lon="3.54635">
        <ele>388.6</ele>
        <time>2026-05-10T08:19:19.000Z</time>
      </trkpt>
      <trkpt lat="45.8544" lon="3.54634">
        <ele>388.4</ele>
        <time>2026-05-10T08:19:20.000Z</time>
      </trkpt>
      <trkpt lat="45.85441" lon="3.54634">
        <ele>388.3</ele>
        <time>2026-05-10T08:19:21.000Z</time>
      </trkpt>
      <trkpt lat="45.85442" lon="3.54634">
        <ele>388.4</ele>
        <time>2026-05-10T08:19:22.000Z</time>
      </trkpt>
      <trkpt lat="45.85443" lon="3.54634">
        <ele>388.5</ele>
        <time>2026-05-10T08:19:23.000Z</time>
      </trkpt>
      <trkpt lat="45.85443" lon="3.54634">
        <ele>388.6</ele>
        <time>2026-05-10T08:19:24.000Z</time>
      </trkpt>
      <trkpt lat="45.85444" lon="3.54634">
        <ele>388.6</ele>
        <time>2026-05-10T08:19:25.000Z</time>
      </trkpt>
      <trkpt lat="45.85445" lon="3.54634">
        <ele>388.5</ele>
        <time>2026-05-10T08:19:26.000Z</time>
      </trkpt>
      <trkpt lat="45.85446" lon="3.54633">
        <ele>388.3</ele>
        <time>2026-05-10T08:19:27.000Z</time>
      </trkpt>
      <trkpt lat="45.85447" lon="3.54632">
        <ele>388</ele>
        <time>2026-05-10T08:19:28.000Z</time>
      </trkpt>
      <trkpt lat="45.85448" lon="3.54631">
        <ele>387.6</ele>
        <time>2026-05-10T08:19:29.000Z</time>
      </trkpt>
      <trkpt lat="45.85449" lon="3.54631">
        <ele>387.4</ele>
        <time>2026-05-10T08:19:30.000Z</time>
      </trkpt>
      <trkpt lat="45.8545" lon="3.54631">
        <ele>387.3</ele>
        <time>2026-05-10T08:19:31.000Z</time>
      </trkpt>
      <trkpt lat="45.85452" lon="3.5463">
        <ele>387.1</ele>
        <time>2026-05-10T08:19:32.000Z</time>
      </trkpt>
      <trkpt lat="45.85453" lon="3.5463">
        <ele>386.9</ele>
        <time>2026-05-10T08:19:33.000Z</time>
      </trkpt>
      <trkpt lat="45.85454" lon="3.54629">
        <ele>386.8</ele>
        <time>2026-05-10T08:19:34.000Z</time>
      </trkpt>
      <trkpt lat="45.85455" lon="3.54629">
        <ele>386.6</ele>
        <time>2026-05-10T08:19:35.000Z</time>
      </trkpt>
      <trkpt lat="45.85457" lon="3.54628">
        <ele>386.4</ele>
        <time>2026-05-10T08:19:36.000Z</time>
      </trkpt>
      <trkpt lat="45.85458" lon="3.54628">
        <ele>386.2</ele>
        <time>2026-05-10T08:19:37.000Z</time>
      </trkpt>
      <trkpt lat="45.85459" lon="3.54627">
        <ele>385.9</ele>
        <time>2026-05-10T08:19:38.000Z</time>
      </trkpt>
      <trkpt lat="45.8546" lon="3.54626">
        <ele>385.8</ele>
        <time>2026-05-10T08:19:39.000Z</time>
      </trkpt>
      <trkpt lat="45.85461" lon="3.54626">
        <ele>385.7</ele>
        <time>2026-05-10T08:19:40.000Z</time>
      </trkpt>
      <trkpt lat="45.85462" lon="3.54626">
        <ele>385.6</ele>
        <time>2026-05-10T08:19:41.000Z</time>
      </trkpt>
      <trkpt lat="45.85463" lon="3.54626">
        <ele>385.6</ele>
        <time>2026-05-10T08:19:42.000Z</time>
      </trkpt>
      <trkpt lat="45.85464" lon="3.54626">
        <ele>385.5</ele>
        <time>2026-05-10T08:19:43.000Z</time>
      </trkpt>
      <trkpt lat="45.85466" lon="3.54626">
        <ele>385.4</ele>
        <time>2026-05-10T08:19:44.000Z</time>
      </trkpt>
      <trkpt lat="45.85467" lon="3.54625">
        <ele>385.3</ele>
        <time>2026-05-10T08:19:45.000Z</time>
      </trkpt>
      <trkpt lat="45.85467" lon="3.54625">
        <ele>385.2</ele>
        <time>2026-05-10T08:19:46.000Z</time>
      </trkpt>
      <trkpt lat="45.85468" lon="3.54625">
        <ele>385.1</ele>
        <time>2026-05-10T08:19:47.000Z</time>
      </trkpt>
      <trkpt lat="45.8547" lon="3.54624">
        <ele>384.9</ele>
        <time>2026-05-10T08:19:48.000Z</time>
      </trkpt>
      <trkpt lat="45.85471" lon="3.54624">
        <ele>384.8</ele>
        <time>2026-05-10T08:19:49.000Z</time>
      </trkpt>
      <trkpt lat="45.85472" lon="3.54624">
        <ele>384.7</ele>
        <time>2026-05-10T08:19:50.000Z</time>
      </trkpt>
      <trkpt lat="45.85474" lon="3.54624">
        <ele>384.9</ele>
        <time>2026-05-10T08:19:51.000Z</time>
      </trkpt>
      <trkpt lat="45.85475" lon="3.54624">
        <ele>384.9</ele>
        <time>2026-05-10T08:19:52.000Z</time>
      </trkpt>
      <trkpt lat="45.85477" lon="3.54624">
        <ele>385</ele>
        <time>2026-05-10T08:19:53.000Z</time>
      </trkpt>
      <trkpt lat="45.85478" lon="3.54624">
        <ele>385.1</ele>
        <time>2026-05-10T08:19:54.000Z</time>
      </trkpt>
      <trkpt lat="45.85479" lon="3.54624">
        <ele>385.1</ele>
        <time>2026-05-10T08:19:55.000Z</time>
      </trkpt>
      <trkpt lat="45.85481" lon="3.54624">
        <ele>385.1</ele>
        <time>2026-05-10T08:19:56.000Z</time>
      </trkpt>
      <trkpt lat="45.85482" lon="3.54623">
        <ele>385.1</ele>
        <time>2026-05-10T08:19:57.000Z</time>
      </trkpt>
      <trkpt lat="45.85484" lon="3.54623">
        <ele>385.2</ele>
        <time>2026-05-10T08:19:58.000Z</time>
      </trkpt>
      <trkpt lat="45.85485" lon="3.54623">
        <ele>385.2</ele>
        <time>2026-05-10T08:19:59.000Z</time>
      </trkpt>
      <trkpt lat="45.85486" lon="3.54623">
        <ele>385.2</ele>
        <time>2026-05-10T08:20:00.000Z</time>
      </trkpt>
      <trkpt lat="45.85487" lon="3.54623">
        <ele>385.2</ele>
        <time>2026-05-10T08:20:01.000Z</time>
      </trkpt>
      <trkpt lat="45.85488" lon="3.54622">
        <ele>385.1</ele>
        <time>2026-05-10T08:20:02.000Z</time>
      </trkpt>
      <trkpt lat="45.85489" lon="3.54622">
        <ele>385</ele>
        <time>2026-05-10T08:20:03.000Z</time>
      </trkpt>
      <trkpt lat="45.8549" lon="3.54622">
        <ele>384.9</ele>
        <time>2026-05-10T08:20:04.000Z</time>
      </trkpt>
      <trkpt lat="45.85491" lon="3.54621">
        <ele>384.8</ele>
        <time>2026-05-10T08:20:05.000Z</time>
      </trkpt>
      <trkpt lat="45.85492" lon="3.54621">
        <ele>384.8</ele>
        <time>2026-05-10T08:20:06.000Z</time>
      </trkpt>
      <trkpt lat="45.85493" lon="3.5462">
        <ele>384.6</ele>
        <time>2026-05-10T08:20:07.000Z</time>
      </trkpt>
      <trkpt lat="45.85494" lon="3.54619">
        <ele>384.5</ele>
        <time>2026-05-10T08:20:08.000Z</time>
      </trkpt>
      <trkpt lat="45.85496" lon="3.54618">
        <ele>384.2</ele>
        <time>2026-05-10T08:20:09.000Z</time>
      </trkpt>
      <trkpt lat="45.85497" lon="3.54617">
        <ele>383.9</ele>
        <time>2026-05-10T08:20:10.000Z</time>
      </trkpt>
      <trkpt lat="45.85499" lon="3.54616">
        <ele>383.5</ele>
        <time>2026-05-10T08:20:11.000Z</time>
      </trkpt>
      <trkpt lat="45.855" lon="3.54615">
        <ele>383.1</ele>
        <time>2026-05-10T08:20:12.000Z</time>
      </trkpt>
      <trkpt lat="45.85501" lon="3.54613">
        <ele>382.9</ele>
        <time>2026-05-10T08:20:13.000Z</time>
      </trkpt>
      <trkpt lat="45.85502" lon="3.54612">
        <ele>382.9</ele>
        <time>2026-05-10T08:20:14.000Z</time>
      </trkpt>
      <trkpt lat="45.85503" lon="3.5461">
        <ele>383.1</ele>
        <time>2026-05-10T08:20:15.000Z</time>
      </trkpt>
      <trkpt lat="45.85504" lon="3.54608">
        <ele>383.4</ele>
        <time>2026-05-10T08:20:16.000Z</time>
      </trkpt>
      <trkpt lat="45.85505" lon="3.54607">
        <ele>383.6</ele>
        <time>2026-05-10T08:20:17.000Z</time>
      </trkpt>
      <trkpt lat="45.85506" lon="3.54606">
        <ele>383.7</ele>
        <time>2026-05-10T08:20:18.000Z</time>
      </trkpt>
      <trkpt lat="45.85507" lon="3.54605">
        <ele>383.9</ele>
        <time>2026-05-10T08:20:19.000Z</time>
      </trkpt>
      <trkpt lat="45.85507" lon="3.54604">
        <ele>383.9</ele>
        <time>2026-05-10T08:20:20.000Z</time>
      </trkpt>
      <trkpt lat="45.85508" lon="3.54603">
        <ele>383.9</ele>
        <time>2026-05-10T08:20:21.000Z</time>
      </trkpt>
      <trkpt lat="45.85508" lon="3.54602">
        <ele>383.9</ele>
        <time>2026-05-10T08:20:22.000Z</time>
      </trkpt>
      <trkpt lat="45.85509" lon="3.546">
        <ele>384</ele>
        <time>2026-05-10T08:20:23.000Z</time>
      </trkpt>
      <trkpt lat="45.85509" lon="3.54599">
        <ele>383.9</ele>
        <time>2026-05-10T08:20:24.000Z</time>
      </trkpt>
      <trkpt lat="45.8551" lon="3.54598">
        <ele>383.8</ele>
        <time>2026-05-10T08:20:25.000Z</time>
      </trkpt>
      <trkpt lat="45.8551" lon="3.54596">
        <ele>383.7</ele>
        <time>2026-05-10T08:20:26.000Z</time>
      </trkpt>
      <trkpt lat="45.85511" lon="3.54595">
        <ele>383.5</ele>
        <time>2026-05-10T08:20:27.000Z</time>
      </trkpt>
      <trkpt lat="45.85511" lon="3.54593">
        <ele>383.3</ele>
        <time>2026-05-10T08:20:28.000Z</time>
      </trkpt>
      <trkpt lat="45.85512" lon="3.54591">
        <ele>383</ele>
        <time>2026-05-10T08:20:29.000Z</time>
      </trkpt>
      <trkpt lat="45.85512" lon="3.54589">
        <ele>382.8</ele>
        <time>2026-05-10T08:20:30.000Z</time>
      </trkpt>
      <trkpt lat="45.85512" lon="3.54588">
        <ele>382.5</ele>
        <time>2026-05-10T08:20:31.000Z</time>
      </trkpt>
      <trkpt lat="45.85513" lon="3.54586">
        <ele>382.3</ele>
        <time>2026-05-10T08:20:32.000Z</time>
      </trkpt>
      <trkpt lat="45.85513" lon="3.54585">
        <ele>382</ele>
        <time>2026-05-10T08:20:33.000Z</time>
      </trkpt>
      <trkpt lat="45.85513" lon="3.54583">
        <ele>381.7</ele>
        <time>2026-05-10T08:20:34.000Z</time>
      </trkpt>
      <trkpt lat="45.85513" lon="3.54582">
        <ele>381.5</ele>
        <time>2026-05-10T08:20:35.000Z</time>
      </trkpt>
      <trkpt lat="45.85513" lon="3.54581">
        <ele>381.1</ele>
        <time>2026-05-10T08:20:36.000Z</time>
      </trkpt>
      <trkpt lat="45.85513" lon="3.5458">
        <ele>380.7</ele>
        <time>2026-05-10T08:20:37.000Z</time>
      </trkpt>
      <trkpt lat="45.85514" lon="3.54578">
        <ele>380.4</ele>
        <time>2026-05-10T08:20:38.000Z</time>
      </trkpt>
      <trkpt lat="45.85514" lon="3.54577">
        <ele>379.9</ele>
        <time>2026-05-10T08:20:39.000Z</time>
      </trkpt>
      <trkpt lat="45.85514" lon="3.54575">
        <ele>379.5</ele>
        <time>2026-05-10T08:20:40.000Z</time>
      </trkpt>
      <trkpt lat="45.85515" lon="3.54573">
        <ele>379.1</ele>
        <time>2026-05-10T08:20:41.000Z</time>
      </trkpt>
      <trkpt lat="45.85515" lon="3.54571">
        <ele>378.6</ele>
        <time>2026-05-10T08:20:42.000Z</time>
      </trkpt>
      <trkpt lat="45.85516" lon="3.54569">
        <ele>378</ele>
        <time>2026-05-10T08:20:43.000Z</time>
      </trkpt>
      <trkpt lat="45.85516" lon="3.54567">
        <ele>377.6</ele>
        <time>2026-05-10T08:20:44.000Z</time>
      </trkpt>
      <trkpt lat="45.85516" lon="3.54565">
        <ele>377.1</ele>
        <time>2026-05-10T08:20:45.000Z</time>
      </trkpt>
      <trkpt lat="45.85517" lon="3.54563">
        <ele>376.6</ele>
        <time>2026-05-10T08:20:46.000Z</time>
      </trkpt>
      <trkpt lat="45.85518" lon="3.54561">
        <ele>376.1</ele>
        <time>2026-05-10T08:20:47.000Z</time>
      </trkpt>
      <trkpt lat="45.85518" lon="3.54559">
        <ele>375.7</ele>
        <time>2026-05-10T08:20:48.000Z</time>
      </trkpt>
      <trkpt lat="45.85519" lon="3.54557">
        <ele>375.2</ele>
        <time>2026-05-10T08:20:49.000Z</time>
      </trkpt>
      <trkpt lat="45.85519" lon="3.54555">
        <ele>374.9</ele>
        <time>2026-05-10T08:20:50.000Z</time>
      </trkpt>
      <trkpt lat="45.8552" lon="3.54554">
        <ele>374.7</ele>
        <time>2026-05-10T08:20:51.000Z</time>
      </trkpt>
      <trkpt lat="45.85521" lon="3.54552">
        <ele>374.4</ele>
        <time>2026-05-10T08:20:52.000Z</time>
      </trkpt>
      <trkpt lat="45.85521" lon="3.5455">
        <ele>374.2</ele>
        <time>2026-05-10T08:20:53.000Z</time>
      </trkpt>
      <trkpt lat="45.85522" lon="3.54549">
        <ele>374</ele>
        <time>2026-05-10T08:20:54.000Z</time>
      </trkpt>
      <trkpt lat="45.85522" lon="3.54547">
        <ele>373.8</ele>
        <time>2026-05-10T08:20:55.000Z</time>
      </trkpt>
      <trkpt lat="45.85523" lon="3.54546">
        <ele>373.6</ele>
        <time>2026-05-10T08:20:56.000Z</time>
      </trkpt>
      <trkpt lat="45.85523" lon="3.54544">
        <ele>373.3</ele>
        <time>2026-05-10T08:20:57.000Z</time>
      </trkpt>
      <trkpt lat="45.85523" lon="3.54543">
        <ele>373.1</ele>
        <time>2026-05-10T08:20:58.000Z</time>
      </trkpt>
      <trkpt lat="45.85524" lon="3.54541">
        <ele>372.9</ele>
        <time>2026-05-10T08:20:59.000Z</time>
      </trkpt>
      <trkpt lat="45.85524" lon="3.5454">
        <ele>372.7</ele>
        <time>2026-05-10T08:21:00.000Z</time>
      </trkpt>
      <trkpt lat="45.85524" lon="3.54538">
        <ele>372.5</ele>
        <time>2026-05-10T08:21:01.000Z</time>
      </trkpt>
      <trkpt lat="45.85525" lon="3.54537">
        <ele>372.2</ele>
        <time>2026-05-10T08:21:02.000Z</time>
      </trkpt>
      <trkpt lat="45.85525" lon="3.54535">
        <ele>372</ele>
        <time>2026-05-10T08:21:03.000Z</time>
      </trkpt>
      <trkpt lat="45.85526" lon="3.54534">
        <ele>371.8</ele>
        <time>2026-05-10T08:21:04.000Z</time>
      </trkpt>
      <trkpt lat="45.85526" lon="3.54532">
        <ele>371.5</ele>
        <time>2026-05-10T08:21:05.000Z</time>
      </trkpt>
      <trkpt lat="45.85527" lon="3.5453">
        <ele>371.3</ele>
        <time>2026-05-10T08:21:06.000Z</time>
      </trkpt>
      <trkpt lat="45.85528" lon="3.54528">
        <ele>371</ele>
        <time>2026-05-10T08:21:07.000Z</time>
      </trkpt>
      <trkpt lat="45.85528" lon="3.54526">
        <ele>370.9</ele>
        <time>2026-05-10T08:21:08.000Z</time>
      </trkpt>
      <trkpt lat="45.85529" lon="3.54524">
        <ele>370.9</ele>
        <time>2026-05-10T08:21:09.000Z</time>
      </trkpt>
      <trkpt lat="45.85529" lon="3.54523">
        <ele>370.8</ele>
        <time>2026-05-10T08:21:10.000Z</time>
      </trkpt>
      <trkpt lat="45.8553" lon="3.54521">
        <ele>370.7</ele>
        <time>2026-05-10T08:21:11.000Z</time>
      </trkpt>
      <trkpt lat="45.8553" lon="3.54519">
        <ele>370.6</ele>
        <time>2026-05-10T08:21:12.000Z</time>
      </trkpt>
      <trkpt lat="45.85531" lon="3.54518">
        <ele>370.6</ele>
        <time>2026-05-10T08:21:13.000Z</time>
      </trkpt>
      <trkpt lat="45.85531" lon="3.54516">
        <ele>370.5</ele>
        <time>2026-05-10T08:21:14.000Z</time>
      </trkpt>
      <trkpt lat="45.85532" lon="3.54515">
        <ele>370.5</ele>
        <time>2026-05-10T08:21:15.000Z</time>
      </trkpt>
      <trkpt lat="45.85532" lon="3.54513">
        <ele>370.3</ele>
        <time>2026-05-10T08:21:16.000Z</time>
      </trkpt>
      <trkpt lat="45.85533" lon="3.54511">
        <ele>370.2</ele>
        <time>2026-05-10T08:21:17.000Z</time>
      </trkpt>
      <trkpt lat="45.85533" lon="3.54509">
        <ele>370.1</ele>
        <time>2026-05-10T08:21:18.000Z</time>
      </trkpt>
      <trkpt lat="45.85534" lon="3.54507">
        <ele>370</ele>
        <time>2026-05-10T08:21:19.000Z</time>
      </trkpt>
      <trkpt lat="45.85535" lon="3.54505">
        <ele>369.8</ele>
        <time>2026-05-10T08:21:20.000Z</time>
      </trkpt>
      <trkpt lat="45.85535" lon="3.54503">
        <ele>369.7</ele>
        <time>2026-05-10T08:21:21.000Z</time>
      </trkpt>
      <trkpt lat="45.85535" lon="3.54502">
        <ele>369.6</ele>
        <time>2026-05-10T08:21:22.000Z</time>
      </trkpt>
      <trkpt lat="45.85536" lon="3.545">
        <ele>369.4</ele>
        <time>2026-05-10T08:21:23.000Z</time>
      </trkpt>
      <trkpt lat="45.85536" lon="3.54498">
        <ele>369.3</ele>
        <time>2026-05-10T08:21:24.000Z</time>
      </trkpt>
      <trkpt lat="45.85537" lon="3.54497">
        <ele>369.2</ele>
        <time>2026-05-10T08:21:25.000Z</time>
      </trkpt>
      <trkpt lat="45.85537" lon="3.54495">
        <ele>369.1</ele>
        <time>2026-05-10T08:21:26.000Z</time>
      </trkpt>
      <trkpt lat="45.85538" lon="3.54493">
        <ele>369</ele>
        <time>2026-05-10T08:21:27.000Z</time>
      </trkpt>
      <trkpt lat="45.85538" lon="3.54491">
        <ele>368.9</ele>
        <time>2026-05-10T08:21:28.000Z</time>
      </trkpt>
      <trkpt lat="45.85539" lon="3.54489">
        <ele>368.7</ele>
        <time>2026-05-10T08:21:29.000Z</time>
      </trkpt>
      <trkpt lat="45.85539" lon="3.54487">
        <ele>368.6</ele>
        <time>2026-05-10T08:21:30.000Z</time>
      </trkpt>
      <trkpt lat="45.8554" lon="3.54485">
        <ele>368.4</ele>
        <time>2026-05-10T08:21:31.000Z</time>
      </trkpt>
      <trkpt lat="45.85541" lon="3.54483">
        <ele>368.2</ele>
        <time>2026-05-10T08:21:32.000Z</time>
      </trkpt>
      <trkpt lat="45.85541" lon="3.54481">
        <ele>368.1</ele>
        <time>2026-05-10T08:21:33.000Z</time>
      </trkpt>
      <trkpt lat="45.85542" lon="3.54479">
        <ele>367.9</ele>
        <time>2026-05-10T08:21:34.000Z</time>
      </trkpt>
      <trkpt lat="45.85542" lon="3.54478">
        <ele>367.7</ele>
        <time>2026-05-10T08:21:35.000Z</time>
      </trkpt>
      <trkpt lat="45.85542" lon="3.54477">
        <ele>367.6</ele>
        <time>2026-05-10T08:21:36.000Z</time>
      </trkpt>
      <trkpt lat="45.85542" lon="3.54475">
        <ele>367.4</ele>
        <time>2026-05-10T08:21:37.000Z</time>
      </trkpt>
      <trkpt lat="45.85543" lon="3.54474">
        <ele>367.3</ele>
        <time>2026-05-10T08:21:38.000Z</time>
      </trkpt>
      <trkpt lat="45.85543" lon="3.54473">
        <ele>367.1</ele>
        <time>2026-05-10T08:21:39.000Z</time>
      </trkpt>
      <trkpt lat="45.85543" lon="3.54471">
        <ele>367</ele>
        <time>2026-05-10T08:21:40.000Z</time>
      </trkpt>
      <trkpt lat="45.85544" lon="3.5447">
        <ele>366.8</ele>
        <time>2026-05-10T08:21:41.000Z</time>
      </trkpt>
      <trkpt lat="45.85544" lon="3.54468">
        <ele>366.5</ele>
        <time>2026-05-10T08:21:42.000Z</time>
      </trkpt>
      <trkpt lat="45.85545" lon="3.54466">
        <ele>366.3</ele>
        <time>2026-05-10T08:21:43.000Z</time>
      </trkpt>
      <trkpt lat="45.85546" lon="3.54464">
        <ele>366.1</ele>
        <time>2026-05-10T08:21:44.000Z</time>
      </trkpt>
      <trkpt lat="45.85546" lon="3.54463">
        <ele>365.9</ele>
        <time>2026-05-10T08:21:45.000Z</time>
      </trkpt>
      <trkpt lat="45.85547" lon="3.54461">
        <ele>365.8</ele>
        <time>2026-05-10T08:21:46.000Z</time>
      </trkpt>
      <trkpt lat="45.85547" lon="3.54459">
        <ele>365.6</ele>
        <time>2026-05-10T08:21:47.000Z</time>
      </trkpt>
      <trkpt lat="45.85548" lon="3.54458">
        <ele>365.5</ele>
        <time>2026-05-10T08:21:48.000Z</time>
      </trkpt>
      <trkpt lat="45.85549" lon="3.54456">
        <ele>365.4</ele>
        <time>2026-05-10T08:21:49.000Z</time>
      </trkpt>
      <trkpt lat="45.85549" lon="3.54455">
        <ele>365.3</ele>
        <time>2026-05-10T08:21:50.000Z</time>
      </trkpt>
      <trkpt lat="45.8555" lon="3.54454">
        <ele>365.2</ele>
        <time>2026-05-10T08:21:51.000Z</time>
      </trkpt>
      <trkpt lat="45.85551" lon="3.54452">
        <ele>365.1</ele>
        <time>2026-05-10T08:21:52.000Z</time>
      </trkpt>
      <trkpt lat="45.85551" lon="3.54451">
        <ele>365</ele>
        <time>2026-05-10T08:21:53.000Z</time>
      </trkpt>
      <trkpt lat="45.85552" lon="3.5445">
        <ele>364.9</ele>
        <time>2026-05-10T08:21:54.000Z</time>
      </trkpt>
      <trkpt lat="45.85552" lon="3.54448">
        <ele>364.8</ele>
        <time>2026-05-10T08:21:55.000Z</time>
      </trkpt>
      <trkpt lat="45.85553" lon="3.54446">
        <ele>364.7</ele>
        <time>2026-05-10T08:21:56.000Z</time>
      </trkpt>
      <trkpt lat="45.85553" lon="3.54444">
        <ele>364.5</ele>
        <time>2026-05-10T08:21:57.000Z</time>
      </trkpt>
      <trkpt lat="45.85554" lon="3.54442">
        <ele>364.4</ele>
        <time>2026-05-10T08:21:58.000Z</time>
      </trkpt>
      <trkpt lat="45.85555" lon="3.5444">
        <ele>364.3</ele>
        <time>2026-05-10T08:21:59.000Z</time>
      </trkpt>
      <trkpt lat="45.85555" lon="3.54438">
        <ele>364.2</ele>
        <time>2026-05-10T08:22:00.000Z</time>
      </trkpt>
      <trkpt lat="45.85556" lon="3.54437">
        <ele>364.2</ele>
        <time>2026-05-10T08:22:01.000Z</time>
      </trkpt>
      <trkpt lat="45.85556" lon="3.54435">
        <ele>364.1</ele>
        <time>2026-05-10T08:22:02.000Z</time>
      </trkpt>
      <trkpt lat="45.85557" lon="3.54434">
        <ele>364.1</ele>
        <time>2026-05-10T08:22:03.000Z</time>
      </trkpt>
      <trkpt lat="45.85557" lon="3.54432">
        <ele>364</ele>
        <time>2026-05-10T08:22:04.000Z</time>
      </trkpt>
      <trkpt lat="45.85558" lon="3.54431">
        <ele>363.9</ele>
        <time>2026-05-10T08:22:05.000Z</time>
      </trkpt>
      <trkpt lat="45.85558" lon="3.5443">
        <ele>363.8</ele>
        <time>2026-05-10T08:22:06.000Z</time>
      </trkpt>
      <trkpt lat="45.85558" lon="3.54428">
        <ele>363.7</ele>
        <time>2026-05-10T08:22:07.000Z</time>
      </trkpt>
      <trkpt lat="45.85559" lon="3.54426">
        <ele>363.5</ele>
        <time>2026-05-10T08:22:08.000Z</time>
      </trkpt>
      <trkpt lat="45.8556" lon="3.54424">
        <ele>363.4</ele>
        <time>2026-05-10T08:22:09.000Z</time>
      </trkpt>
      <trkpt lat="45.8556" lon="3.54422">
        <ele>363.3</ele>
        <time>2026-05-10T08:22:10.000Z</time>
      </trkpt>
      <trkpt lat="45.85561" lon="3.5442">
        <ele>363.3</ele>
        <time>2026-05-10T08:22:11.000Z</time>
      </trkpt>
      <trkpt lat="45.85562" lon="3.54419">
        <ele>363.2</ele>
        <time>2026-05-10T08:22:12.000Z</time>
      </trkpt>
      <trkpt lat="45.85563" lon="3.54418">
        <ele>363.3</ele>
        <time>2026-05-10T08:22:13.000Z</time>
      </trkpt>
      <trkpt lat="45.85564" lon="3.54417">
        <ele>363.3</ele>
        <time>2026-05-10T08:22:14.000Z</time>
      </trkpt>
      <trkpt lat="45.85565" lon="3.54416">
        <ele>363.3</ele>
        <time>2026-05-10T08:22:15.000Z</time>
      </trkpt>
      <trkpt lat="45.85566" lon="3.54415">
        <ele>363.3</ele>
        <time>2026-05-10T08:22:16.000Z</time>
      </trkpt>
      <trkpt lat="45.85568" lon="3.54414">
        <ele>363.4</ele>
        <time>2026-05-10T08:22:17.000Z</time>
      </trkpt>
      <trkpt lat="45.85569" lon="3.54414">
        <ele>363.6</ele>
        <time>2026-05-10T08:22:18.000Z</time>
      </trkpt>
      <trkpt lat="45.8557" lon="3.54413">
        <ele>363.6</ele>
        <time>2026-05-10T08:22:19.000Z</time>
      </trkpt>
      <trkpt lat="45.85571" lon="3.54413">
        <ele>363.7</ele>
        <time>2026-05-10T08:22:20.000Z</time>
      </trkpt>
      <trkpt lat="45.85572" lon="3.54412">
        <ele>363.8</ele>
        <time>2026-05-10T08:22:21.000Z</time>
      </trkpt>
      <trkpt lat="45.85573" lon="3.54411">
        <ele>363.9</ele>
        <time>2026-05-10T08:22:22.000Z</time>
      </trkpt>
      <trkpt lat="45.85574" lon="3.54411">
        <ele>364</ele>
        <time>2026-05-10T08:22:23.000Z</time>
      </trkpt>
      <trkpt lat="45.85575" lon="3.5441">
        <ele>364.1</ele>
        <time>2026-05-10T08:22:24.000Z</time>
      </trkpt>
      <trkpt lat="45.85576" lon="3.5441">
        <ele>364.2</ele>
        <time>2026-05-10T08:22:25.000Z</time>
      </trkpt>
      <trkpt lat="45.85577" lon="3.5441">
        <ele>364.4</ele>
        <time>2026-05-10T08:22:26.000Z</time>
      </trkpt>
      <trkpt lat="45.85579" lon="3.54409">
        <ele>364.5</ele>
        <time>2026-05-10T08:22:27.000Z</time>
      </trkpt>
      <trkpt lat="45.8558" lon="3.54409">
        <ele>364.6</ele>
        <time>2026-05-10T08:22:28.000Z</time>
      </trkpt>
      <trkpt lat="45.85581" lon="3.54408">
        <ele>364.8</ele>
        <time>2026-05-10T08:22:29.000Z</time>
      </trkpt>
      <trkpt lat="45.85582" lon="3.54407">
        <ele>364.8</ele>
        <time>2026-05-10T08:22:30.000Z</time>
      </trkpt>
      <trkpt lat="45.85583" lon="3.54407">
        <ele>364.9</ele>
        <time>2026-05-10T08:22:31.000Z</time>
      </trkpt>
      <trkpt lat="45.85584" lon="3.54406">
        <ele>364.9</ele>
        <time>2026-05-10T08:22:32.000Z</time>
      </trkpt>
      <trkpt lat="45.85585" lon="3.54405">
        <ele>364.9</ele>
        <time>2026-05-10T08:22:33.000Z</time>
      </trkpt>
      <trkpt lat="45.85587" lon="3.54404">
        <ele>365</ele>
        <time>2026-05-10T08:22:34.000Z</time>
      </trkpt>
      <trkpt lat="45.85588" lon="3.54403">
        <ele>365.1</ele>
        <time>2026-05-10T08:22:35.000Z</time>
      </trkpt>
      <trkpt lat="45.85589" lon="3.54402">
        <ele>365.2</ele>
        <time>2026-05-10T08:22:36.000Z</time>
      </trkpt>
      <trkpt lat="45.8559" lon="3.54402">
        <ele>365.3</ele>
        <time>2026-05-10T08:22:37.000Z</time>
      </trkpt>
      <trkpt lat="45.85591" lon="3.54401">
        <ele>365.4</ele>
        <time>2026-05-10T08:22:38.000Z</time>
      </trkpt>
      <trkpt lat="45.85592" lon="3.54401">
        <ele>365.6</ele>
        <time>2026-05-10T08:22:39.000Z</time>
      </trkpt>
      <trkpt lat="45.85593" lon="3.54401">
        <ele>365.8</ele>
        <time>2026-05-10T08:22:40.000Z</time>
      </trkpt>
      <trkpt lat="45.85594" lon="3.544">
        <ele>365.9</ele>
        <time>2026-05-10T08:22:41.000Z</time>
      </trkpt>
      <trkpt lat="45.85595" lon="3.544">
        <ele>365.9</ele>
        <time>2026-05-10T08:22:42.000Z</time>
      </trkpt>
      <trkpt lat="45.85596" lon="3.544">
        <ele>366</ele>
        <time>2026-05-10T08:22:43.000Z</time>
      </trkpt>
      <trkpt lat="45.85597" lon="3.54399">
        <ele>366.1</ele>
        <time>2026-05-10T08:22:44.000Z</time>
      </trkpt>
      <trkpt lat="45.85598" lon="3.54398">
        <ele>366.3</ele>
        <time>2026-05-10T08:22:45.000Z</time>
      </trkpt>
      <trkpt lat="45.856" lon="3.54397">
        <ele>366.5</ele>
        <time>2026-05-10T08:22:46.000Z</time>
      </trkpt>
      <trkpt lat="45.85601" lon="3.54397">
        <ele>366.7</ele>
        <time>2026-05-10T08:22:47.000Z</time>
      </trkpt>
      <trkpt lat="45.85602" lon="3.54397">
        <ele>366.8</ele>
        <time>2026-05-10T08:22:48.000Z</time>
      </trkpt>
      <trkpt lat="45.85603" lon="3.54396">
        <ele>366.9</ele>
        <time>2026-05-10T08:22:49.000Z</time>
      </trkpt>
      <trkpt lat="45.85604" lon="3.54394">
        <ele>367</ele>
        <time>2026-05-10T08:22:50.000Z</time>
      </trkpt>
      <trkpt lat="45.85604" lon="3.54393">
        <ele>367</ele>
        <time>2026-05-10T08:22:51.000Z</time>
      </trkpt>
      <trkpt lat="45.85605" lon="3.54392">
        <ele>367</ele>
        <time>2026-05-10T08:22:52.000Z</time>
      </trkpt>
      <trkpt lat="45.85605" lon="3.5439">
        <ele>367</ele>
        <time>2026-05-10T08:22:53.000Z</time>
      </trkpt>
      <trkpt lat="45.85606" lon="3.54389">
        <ele>367</ele>
        <time>2026-05-10T08:22:54.000Z</time>
      </trkpt>
      <trkpt lat="45.85606" lon="3.54387">
        <ele>367.4</ele>
        <time>2026-05-10T08:22:55.000Z</time>
      </trkpt>
      <trkpt lat="45.85607" lon="3.54385">
        <ele>367.8</ele>
        <time>2026-05-10T08:22:56.000Z</time>
      </trkpt>
      <trkpt lat="45.85607" lon="3.54384">
        <ele>368.1</ele>
        <time>2026-05-10T08:22:57.000Z</time>
      </trkpt>
      <trkpt lat="45.85608" lon="3.54383">
        <ele>368.3</ele>
        <time>2026-05-10T08:22:58.000Z</time>
      </trkpt>
      <trkpt lat="45.85608" lon="3.54381">
        <ele>368.6</ele>
        <time>2026-05-10T08:22:59.000Z</time>
      </trkpt>
      <trkpt lat="45.85608" lon="3.5438">
        <ele>368.9</ele>
        <time>2026-05-10T08:23:00.000Z</time>
      </trkpt>
      <trkpt lat="45.85608" lon="3.54379">
        <ele>369.1</ele>
        <time>2026-05-10T08:23:01.000Z</time>
      </trkpt>
      <trkpt lat="45.85608" lon="3.54377">
        <ele>369.3</ele>
        <time>2026-05-10T08:23:02.000Z</time>
      </trkpt>
      <trkpt lat="45.85608" lon="3.54375">
        <ele>369.6</ele>
        <time>2026-05-10T08:23:03.000Z</time>
      </trkpt>
      <trkpt lat="45.85608" lon="3.54373">
        <ele>369.9</ele>
        <time>2026-05-10T08:23:04.000Z</time>
      </trkpt>
      <trkpt lat="45.85609" lon="3.54371">
        <ele>370.3</ele>
        <time>2026-05-10T08:23:05.000Z</time>
      </trkpt>
      <trkpt lat="45.85608" lon="3.54369">
        <ele>370.6</ele>
        <time>2026-05-10T08:23:06.000Z</time>
      </trkpt>
      <trkpt lat="45.85608" lon="3.54367">
        <ele>370.8</ele>
        <time>2026-05-10T08:23:07.000Z</time>
      </trkpt>
      <trkpt lat="45.85608" lon="3.54365">
        <ele>371.1</ele>
        <time>2026-05-10T08:23:08.000Z</time>
      </trkpt>
      <trkpt lat="45.85608" lon="3.54364">
        <ele>371.3</ele>
        <time>2026-05-10T08:23:09.000Z</time>
      </trkpt>
      <trkpt lat="45.85608" lon="3.54362">
        <ele>371.6</ele>
        <time>2026-05-10T08:23:10.000Z</time>
      </trkpt>
      <trkpt lat="45.85608" lon="3.54361">
        <ele>371.8</ele>
        <time>2026-05-10T08:23:11.000Z</time>
      </trkpt>
      <trkpt lat="45.85608" lon="3.5436">
        <ele>371.8</ele>
        <time>2026-05-10T08:23:12.000Z</time>
      </trkpt>
      <trkpt lat="45.85608" lon="3.54359">
        <ele>371.8</ele>
        <time>2026-05-10T08:23:13.000Z</time>
      </trkpt>
      <trkpt lat="45.85608" lon="3.54357">
        <ele>371.8</ele>
        <time>2026-05-10T08:23:14.000Z</time>
      </trkpt>
      <trkpt lat="45.85608" lon="3.54355">
        <ele>371.8</ele>
        <time>2026-05-10T08:23:15.000Z</time>
      </trkpt>
      <trkpt lat="45.85607" lon="3.54353">
        <ele>371.8</ele>
        <time>2026-05-10T08:23:16.000Z</time>
      </trkpt>
      <trkpt lat="45.85608" lon="3.54352">
        <ele>371.8</ele>
        <time>2026-05-10T08:23:17.000Z</time>
      </trkpt>
      <trkpt lat="45.85608" lon="3.54351">
        <ele>371.8</ele>
        <time>2026-05-10T08:23:18.000Z</time>
      </trkpt>
      <trkpt lat="45.85607" lon="3.5435">
        <ele>371.8</ele>
        <time>2026-05-10T08:23:19.000Z</time>
      </trkpt>
      <trkpt lat="45.85608" lon="3.54348">
        <ele>371.9</ele>
        <time>2026-05-10T08:23:20.000Z</time>
      </trkpt>
      <trkpt lat="45.85608" lon="3.54346">
        <ele>371.9</ele>
        <time>2026-05-10T08:23:21.000Z</time>
      </trkpt>
      <trkpt lat="45.85608" lon="3.54345">
        <ele>371.9</ele>
        <time>2026-05-10T08:23:22.000Z</time>
      </trkpt>
      <trkpt lat="45.85608" lon="3.54343">
        <ele>371.9</ele>
        <time>2026-05-10T08:23:23.000Z</time>
      </trkpt>
      <trkpt lat="45.85608" lon="3.54342">
        <ele>371.9</ele>
        <time>2026-05-10T08:23:24.000Z</time>
      </trkpt>
      <trkpt lat="45.85608" lon="3.5434">
        <ele>371.9</ele>
        <time>2026-05-10T08:23:25.000Z</time>
      </trkpt>
      <trkpt lat="45.85608" lon="3.54339">
        <ele>372</ele>
        <time>2026-05-10T08:23:26.000Z</time>
      </trkpt>
      <trkpt lat="45.85609" lon="3.54338">
        <ele>372</ele>
        <time>2026-05-10T08:23:27.000Z</time>
      </trkpt>
      <trkpt lat="45.85609" lon="3.54336">
        <ele>372</ele>
        <time>2026-05-10T08:23:28.000Z</time>
      </trkpt>
      <trkpt lat="45.8561" lon="3.54334">
        <ele>372</ele>
        <time>2026-05-10T08:23:29.000Z</time>
      </trkpt>
      <trkpt lat="45.8561" lon="3.54333">
        <ele>372</ele>
        <time>2026-05-10T08:23:30.000Z</time>
      </trkpt>
      <trkpt lat="45.85611" lon="3.54332">
        <ele>372.1</ele>
        <time>2026-05-10T08:23:31.000Z</time>
      </trkpt>
      <trkpt lat="45.85611" lon="3.54331">
        <ele>372.2</ele>
        <time>2026-05-10T08:23:32.000Z</time>
      </trkpt>
      <trkpt lat="45.85612" lon="3.5433">
        <ele>372.4</ele>
        <time>2026-05-10T08:23:33.000Z</time>
      </trkpt>
      <trkpt lat="45.85612" lon="3.54329">
        <ele>372.6</ele>
        <time>2026-05-10T08:23:34.000Z</time>
      </trkpt>
      <trkpt lat="45.85613" lon="3.54328">
        <ele>373</ele>
        <time>2026-05-10T08:23:35.000Z</time>
      </trkpt>
      <trkpt lat="45.85613" lon="3.54326">
        <ele>373.1</ele>
        <time>2026-05-10T08:23:36.000Z</time>
      </trkpt>
      <trkpt lat="45.85613" lon="3.54325">
        <ele>373.4</ele>
        <time>2026-05-10T08:23:37.000Z</time>
      </trkpt>
      <trkpt lat="45.85614" lon="3.54324">
        <ele>373.7</ele>
        <time>2026-05-10T08:23:38.000Z</time>
      </trkpt>
      <trkpt lat="45.85615" lon="3.54323">
        <ele>373.9</ele>
        <time>2026-05-10T08:23:39.000Z</time>
      </trkpt>
      <trkpt lat="45.85615" lon="3.54322">
        <ele>374.2</ele>
        <time>2026-05-10T08:23:40.000Z</time>
      </trkpt>
      <trkpt lat="45.85616" lon="3.5432">
        <ele>374.5</ele>
        <time>2026-05-10T08:23:41.000Z</time>
      </trkpt>
      <trkpt lat="45.85617" lon="3.54319">
        <ele>374.7</ele>
        <time>2026-05-10T08:23:42.000Z</time>
      </trkpt>
      <trkpt lat="45.85617" lon="3.54318">
        <ele>374.9</ele>
        <time>2026-05-10T08:23:43.000Z</time>
      </trkpt>
      <trkpt lat="45.85618" lon="3.54316">
        <ele>375.2</ele>
        <time>2026-05-10T08:23:44.000Z</time>
      </trkpt>
      <trkpt lat="45.85619" lon="3.54315">
        <ele>375.5</ele>
        <time>2026-05-10T08:23:45.000Z</time>
      </trkpt>
      <trkpt lat="45.8562" lon="3.54314">
        <ele>375.7</ele>
        <time>2026-05-10T08:23:46.000Z</time>
      </trkpt>
      <trkpt lat="45.85621" lon="3.54312">
        <ele>375.9</ele>
        <time>2026-05-10T08:23:47.000Z</time>
      </trkpt>
      <trkpt lat="45.85622" lon="3.54311">
        <ele>376.1</ele>
        <time>2026-05-10T08:23:48.000Z</time>
      </trkpt>
      <trkpt lat="45.85623" lon="3.54311">
        <ele>376.3</ele>
        <time>2026-05-10T08:23:49.000Z</time>
      </trkpt>
      <trkpt lat="45.85624" lon="3.5431">
        <ele>376.4</ele>
        <time>2026-05-10T08:23:50.000Z</time>
      </trkpt>
      <trkpt lat="45.85625" lon="3.54309">
        <ele>376.7</ele>
        <time>2026-05-10T08:23:51.000Z</time>
      </trkpt>
      <trkpt lat="45.85626" lon="3.54307">
        <ele>376.8</ele>
        <time>2026-05-10T08:23:52.000Z</time>
      </trkpt>
      <trkpt lat="45.85627" lon="3.54306">
        <ele>376.8</ele>
        <time>2026-05-10T08:23:53.000Z</time>
      </trkpt>
      <trkpt lat="45.85628" lon="3.54305">
        <ele>377</ele>
        <time>2026-05-10T08:23:54.000Z</time>
      </trkpt>
      <trkpt lat="45.85629" lon="3.54304">
        <ele>377.1</ele>
        <time>2026-05-10T08:23:55.000Z</time>
      </trkpt>
      <trkpt lat="45.8563" lon="3.54305">
        <ele>377.3</ele>
        <time>2026-05-10T08:23:56.000Z</time>
      </trkpt>
      <trkpt lat="45.85631" lon="3.54305">
        <ele>377.5</ele>
        <time>2026-05-10T08:23:57.000Z</time>
      </trkpt>
      <trkpt lat="45.85633" lon="3.54304">
        <ele>377.8</ele>
        <time>2026-05-10T08:23:58.000Z</time>
      </trkpt>
      <trkpt lat="45.85634" lon="3.54304">
        <ele>378</ele>
        <time>2026-05-10T08:23:59.000Z</time>
      </trkpt>
      <trkpt lat="45.85635" lon="3.54304">
        <ele>378.2</ele>
        <time>2026-05-10T08:24:00.000Z</time>
      </trkpt>
      <trkpt lat="45.85636" lon="3.54304">
        <ele>378.3</ele>
        <time>2026-05-10T08:24:01.000Z</time>
      </trkpt>
      <trkpt lat="45.85637" lon="3.54304">
        <ele>378.6</ele>
        <time>2026-05-10T08:24:02.000Z</time>
      </trkpt>
      <trkpt lat="45.85638" lon="3.54304">
        <ele>378.8</ele>
        <time>2026-05-10T08:24:03.000Z</time>
      </trkpt>
      <trkpt lat="45.85639" lon="3.54305">
        <ele>378.9</ele>
        <time>2026-05-10T08:24:04.000Z</time>
      </trkpt>
      <trkpt lat="45.8564" lon="3.54305">
        <ele>378.9</ele>
        <time>2026-05-10T08:24:05.000Z</time>
      </trkpt>
      <trkpt lat="45.85641" lon="3.54305">
        <ele>379</ele>
        <time>2026-05-10T08:24:06.000Z</time>
      </trkpt>
      <trkpt lat="45.85643" lon="3.54305">
        <ele>378.9</ele>
        <time>2026-05-10T08:24:07.000Z</time>
      </trkpt>
      <trkpt lat="45.85644" lon="3.54305">
        <ele>379</ele>
        <time>2026-05-10T08:24:08.000Z</time>
      </trkpt>
      <trkpt lat="45.85645" lon="3.54305">
        <ele>379</ele>
        <time>2026-05-10T08:24:09.000Z</time>
      </trkpt>
      <trkpt lat="45.85646" lon="3.54305">
        <ele>379</ele>
        <time>2026-05-10T08:24:10.000Z</time>
      </trkpt>
      <trkpt lat="45.85647" lon="3.54306">
        <ele>379</ele>
        <time>2026-05-10T08:24:11.000Z</time>
      </trkpt>
      <trkpt lat="45.85647" lon="3.54306">
        <ele>379.2</ele>
        <time>2026-05-10T08:24:12.000Z</time>
      </trkpt>
      <trkpt lat="45.85649" lon="3.54307">
        <ele>379.2</ele>
        <time>2026-05-10T08:24:13.000Z</time>
      </trkpt>
      <trkpt lat="45.8565" lon="3.54307">
        <ele>379.2</ele>
        <time>2026-05-10T08:24:14.000Z</time>
      </trkpt>
      <trkpt lat="45.8565" lon="3.54308">
        <ele>379.4</ele>
        <time>2026-05-10T08:24:15.000Z</time>
      </trkpt>
      <trkpt lat="45.85651" lon="3.54308">
        <ele>379.5</ele>
        <time>2026-05-10T08:24:16.000Z</time>
      </trkpt>
      <trkpt lat="45.85653" lon="3.54308">
        <ele>379.5</ele>
        <time>2026-05-10T08:24:17.000Z</time>
      </trkpt>
      <trkpt lat="45.85654" lon="3.54309">
        <ele>379.5</ele>
        <time>2026-05-10T08:24:18.000Z</time>
      </trkpt>
      <trkpt lat="45.85655" lon="3.54309">
        <ele>379.7</ele>
        <time>2026-05-10T08:24:19.000Z</time>
      </trkpt>
      <trkpt lat="45.85656" lon="3.5431">
        <ele>379.8</ele>
        <time>2026-05-10T08:24:20.000Z</time>
      </trkpt>
      <trkpt lat="45.85657" lon="3.54311">
        <ele>379.9</ele>
        <time>2026-05-10T08:24:21.000Z</time>
      </trkpt>
      <trkpt lat="45.85658" lon="3.54311">
        <ele>380</ele>
        <time>2026-05-10T08:24:22.000Z</time>
      </trkpt>
      <trkpt lat="45.85659" lon="3.54312">
        <ele>380.2</ele>
        <time>2026-05-10T08:24:23.000Z</time>
      </trkpt>
      <trkpt lat="45.8566" lon="3.54313">
        <ele>380.3</ele>
        <time>2026-05-10T08:24:24.000Z</time>
      </trkpt>
      <trkpt lat="45.85661" lon="3.54313">
        <ele>380.4</ele>
        <time>2026-05-10T08:24:25.000Z</time>
      </trkpt>
      <trkpt lat="45.85663" lon="3.54314">
        <ele>380.5</ele>
        <time>2026-05-10T08:24:26.000Z</time>
      </trkpt>
      <trkpt lat="45.85664" lon="3.54315">
        <ele>380.6</ele>
        <time>2026-05-10T08:24:27.000Z</time>
      </trkpt>
      <trkpt lat="45.85664" lon="3.54316">
        <ele>380.8</ele>
        <time>2026-05-10T08:24:28.000Z</time>
      </trkpt>
      <trkpt lat="45.85665" lon="3.54317">
        <ele>381</ele>
        <time>2026-05-10T08:24:29.000Z</time>
      </trkpt>
      <trkpt lat="45.85665" lon="3.54317">
        <ele>381.1</ele>
        <time>2026-05-10T08:24:30.000Z</time>
      </trkpt>
      <trkpt lat="45.85666" lon="3.54318">
        <ele>381.2</ele>
        <time>2026-05-10T08:24:31.000Z</time>
      </trkpt>
      <trkpt lat="45.85667" lon="3.54319">
        <ele>381.4</ele>
        <time>2026-05-10T08:24:32.000Z</time>
      </trkpt>
      <trkpt lat="45.85668" lon="3.54319">
        <ele>381.5</ele>
        <time>2026-05-10T08:24:33.000Z</time>
      </trkpt>
      <trkpt lat="45.85669" lon="3.54321">
        <ele>381.7</ele>
        <time>2026-05-10T08:24:34.000Z</time>
      </trkpt>
      <trkpt lat="45.8567" lon="3.54322">
        <ele>381.9</ele>
        <time>2026-05-10T08:24:35.000Z</time>
      </trkpt>
      <trkpt lat="45.85671" lon="3.54323">
        <ele>382.1</ele>
        <time>2026-05-10T08:24:36.000Z</time>
      </trkpt>
      <trkpt lat="45.85672" lon="3.54324">
        <ele>382.3</ele>
        <time>2026-05-10T08:24:37.000Z</time>
      </trkpt>
      <trkpt lat="45.85673" lon="3.54325">
        <ele>382.4</ele>
        <time>2026-05-10T08:24:38.000Z</time>
      </trkpt>
      <trkpt lat="45.85674" lon="3.54326">
        <ele>382.6</ele>
        <time>2026-05-10T08:24:39.000Z</time>
      </trkpt>
      <trkpt lat="45.85674" lon="3.54327">
        <ele>382.8</ele>
        <time>2026-05-10T08:24:40.000Z</time>
      </trkpt>
      <trkpt lat="45.85675" lon="3.54328">
        <ele>382.9</ele>
        <time>2026-05-10T08:24:41.000Z</time>
      </trkpt>
      <trkpt lat="45.85675" lon="3.54329">
        <ele>383</ele>
        <time>2026-05-10T08:24:42.000Z</time>
      </trkpt>
      <trkpt lat="45.85676" lon="3.5433">
        <ele>383.2</ele>
        <time>2026-05-10T08:24:43.000Z</time>
      </trkpt>
      <trkpt lat="45.85677" lon="3.54331">
        <ele>383.3</ele>
        <time>2026-05-10T08:24:44.000Z</time>
      </trkpt>
      <trkpt lat="45.85678" lon="3.54333">
        <ele>383.5</ele>
        <time>2026-05-10T08:24:45.000Z</time>
      </trkpt>
      <trkpt lat="45.85679" lon="3.54334">
        <ele>383.6</ele>
        <time>2026-05-10T08:24:46.000Z</time>
      </trkpt>
      <trkpt lat="45.8568" lon="3.54335">
        <ele>383.5</ele>
        <time>2026-05-10T08:24:47.000Z</time>
      </trkpt>
      <trkpt lat="45.85681" lon="3.54337">
        <ele>383.5</ele>
        <time>2026-05-10T08:24:48.000Z</time>
      </trkpt>
      <trkpt lat="45.85682" lon="3.54338">
        <ele>383.5</ele>
        <time>2026-05-10T08:24:49.000Z</time>
      </trkpt>
      <trkpt lat="45.85682" lon="3.54339">
        <ele>383.4</ele>
        <time>2026-05-10T08:24:50.000Z</time>
      </trkpt>
      <trkpt lat="45.85683" lon="3.5434">
        <ele>383.4</ele>
        <time>2026-05-10T08:24:51.000Z</time>
      </trkpt>
      <trkpt lat="45.85684" lon="3.54341">
        <ele>383.4</ele>
        <time>2026-05-10T08:24:52.000Z</time>
      </trkpt>
      <trkpt lat="45.85685" lon="3.54342">
        <ele>383.4</ele>
        <time>2026-05-10T08:24:53.000Z</time>
      </trkpt>
      <trkpt lat="45.85685" lon="3.54343">
        <ele>383.3</ele>
        <time>2026-05-10T08:24:54.000Z</time>
      </trkpt>
      <trkpt lat="45.85686" lon="3.54344">
        <ele>383.3</ele>
        <time>2026-05-10T08:24:55.000Z</time>
      </trkpt>
      <trkpt lat="45.85686" lon="3.54346">
        <ele>383.3</ele>
        <time>2026-05-10T08:24:56.000Z</time>
      </trkpt>
      <trkpt lat="45.85687" lon="3.54348">
        <ele>383.3</ele>
        <time>2026-05-10T08:24:57.000Z</time>
      </trkpt>
      <trkpt lat="45.85687" lon="3.54349">
        <ele>383.3</ele>
        <time>2026-05-10T08:24:58.000Z</time>
      </trkpt>
      <trkpt lat="45.85688" lon="3.54351">
        <ele>383.2</ele>
        <time>2026-05-10T08:24:59.000Z</time>
      </trkpt>
      <trkpt lat="45.85689" lon="3.54352">
        <ele>383.2</ele>
        <time>2026-05-10T08:25:00.000Z</time>
      </trkpt>
      <trkpt lat="45.85689" lon="3.54353">
        <ele>383.2</ele>
        <time>2026-05-10T08:25:01.000Z</time>
      </trkpt>
      <trkpt lat="45.8569" lon="3.54355">
        <ele>383.2</ele>
        <time>2026-05-10T08:25:02.000Z</time>
      </trkpt>
      <trkpt lat="45.8569" lon="3.54356">
        <ele>383.2</ele>
        <time>2026-05-10T08:25:03.000Z</time>
      </trkpt>
      <trkpt lat="45.85691" lon="3.54358">
        <ele>383.1</ele>
        <time>2026-05-10T08:25:04.000Z</time>
      </trkpt>
      <trkpt lat="45.85691" lon="3.54359">
        <ele>383.1</ele>
        <time>2026-05-10T08:25:05.000Z</time>
      </trkpt>
      <trkpt lat="45.85691" lon="3.54361">
        <ele>383.1</ele>
        <time>2026-05-10T08:25:06.000Z</time>
      </trkpt>
      <trkpt lat="45.85692" lon="3.54362">
        <ele>383.1</ele>
        <time>2026-05-10T08:25:07.000Z</time>
      </trkpt>
      <trkpt lat="45.85692" lon="3.54364">
        <ele>383.2</ele>
        <time>2026-05-10T08:25:08.000Z</time>
      </trkpt>
      <trkpt lat="45.85693" lon="3.54366">
        <ele>383.2</ele>
        <time>2026-05-10T08:25:09.000Z</time>
      </trkpt>
      <trkpt lat="45.85694" lon="3.54367">
        <ele>383.2</ele>
        <time>2026-05-10T08:25:10.000Z</time>
      </trkpt>
      <trkpt lat="45.85694" lon="3.54368">
        <ele>383.2</ele>
        <time>2026-05-10T08:25:11.000Z</time>
      </trkpt>
      <trkpt lat="45.85694" lon="3.54369">
        <ele>383.3</ele>
        <time>2026-05-10T08:25:12.000Z</time>
      </trkpt>
      <trkpt lat="45.85695" lon="3.54371">
        <ele>383.4</ele>
        <time>2026-05-10T08:25:13.000Z</time>
      </trkpt>
      <trkpt lat="45.85695" lon="3.54372">
        <ele>383.4</ele>
        <time>2026-05-10T08:25:14.000Z</time>
      </trkpt>
      <trkpt lat="45.85695" lon="3.54374">
        <ele>383.5</ele>
        <time>2026-05-10T08:25:15.000Z</time>
      </trkpt>
      <trkpt lat="45.85695" lon="3.54375">
        <ele>383.5</ele>
        <time>2026-05-10T08:25:16.000Z</time>
      </trkpt>
      <trkpt lat="45.85695" lon="3.54377">
        <ele>383.6</ele>
        <time>2026-05-10T08:25:17.000Z</time>
      </trkpt>
      <trkpt lat="45.85696" lon="3.54379">
        <ele>383.7</ele>
        <time>2026-05-10T08:25:18.000Z</time>
      </trkpt>
      <trkpt lat="45.85696" lon="3.5438">
        <ele>383.8</ele>
        <time>2026-05-10T08:25:19.000Z</time>
      </trkpt>
      <trkpt lat="45.85695" lon="3.54382">
        <ele>383.8</ele>
        <time>2026-05-10T08:25:20.000Z</time>
      </trkpt>
      <trkpt lat="45.85695" lon="3.54383">
        <ele>383.8</ele>
        <time>2026-05-10T08:25:21.000Z</time>
      </trkpt>
      <trkpt lat="45.85695" lon="3.54386">
        <ele>383.9</ele>
        <time>2026-05-10T08:25:22.000Z</time>
      </trkpt>
      <trkpt lat="45.85695" lon="3.54388">
        <ele>384</ele>
        <time>2026-05-10T08:25:23.000Z</time>
      </trkpt>
      <trkpt lat="45.85695" lon="3.5439">
        <ele>384.1</ele>
        <time>2026-05-10T08:25:24.000Z</time>
      </trkpt>
      <trkpt lat="45.85695" lon="3.54392">
        <ele>384.1</ele>
        <time>2026-05-10T08:25:25.000Z</time>
      </trkpt>
      <trkpt lat="45.85695" lon="3.54394">
        <ele>384.2</ele>
        <time>2026-05-10T08:25:26.000Z</time>
      </trkpt>
      <trkpt lat="45.85695" lon="3.54395">
        <ele>384.2</ele>
        <time>2026-05-10T08:25:27.000Z</time>
      </trkpt>
      <trkpt lat="45.85695" lon="3.54397">
        <ele>384.3</ele>
        <time>2026-05-10T08:25:28.000Z</time>
      </trkpt>
      <trkpt lat="45.85695" lon="3.54399">
        <ele>384.4</ele>
        <time>2026-05-10T08:25:29.000Z</time>
      </trkpt>
      <trkpt lat="45.85695" lon="3.544">
        <ele>384.4</ele>
        <time>2026-05-10T08:25:30.000Z</time>
      </trkpt>
      <trkpt lat="45.85695" lon="3.54401">
        <ele>384.5</ele>
        <time>2026-05-10T08:25:31.000Z</time>
      </trkpt>
      <trkpt lat="45.85695" lon="3.54403">
        <ele>384.5</ele>
        <time>2026-05-10T08:25:32.000Z</time>
      </trkpt>
      <trkpt lat="45.85695" lon="3.54404">
        <ele>384.6</ele>
        <time>2026-05-10T08:25:33.000Z</time>
      </trkpt>
      <trkpt lat="45.85696" lon="3.54406">
        <ele>384.7</ele>
        <time>2026-05-10T08:25:34.000Z</time>
      </trkpt>
      <trkpt lat="45.85696" lon="3.54408">
        <ele>384.8</ele>
        <time>2026-05-10T08:25:35.000Z</time>
      </trkpt>
      <trkpt lat="45.85696" lon="3.5441">
        <ele>384.9</ele>
        <time>2026-05-10T08:25:36.000Z</time>
      </trkpt>
      <trkpt lat="45.85696" lon="3.54412">
        <ele>385</ele>
        <time>2026-05-10T08:25:37.000Z</time>
      </trkpt>
      <trkpt lat="45.85696" lon="3.54413">
        <ele>385.1</ele>
        <time>2026-05-10T08:25:38.000Z</time>
      </trkpt>
      <trkpt lat="45.85696" lon="3.54415">
        <ele>385.1</ele>
        <time>2026-05-10T08:25:39.000Z</time>
      </trkpt>
      <trkpt lat="45.85696" lon="3.54417">
        <ele>385.1</ele>
        <time>2026-05-10T08:25:40.000Z</time>
      </trkpt>
      <trkpt lat="45.85695" lon="3.54418">
        <ele>385.2</ele>
        <time>2026-05-10T08:25:41.000Z</time>
      </trkpt>
      <trkpt lat="45.85695" lon="3.5442">
        <ele>385.2</ele>
        <time>2026-05-10T08:25:42.000Z</time>
      </trkpt>
      <trkpt lat="45.85694" lon="3.54421">
        <ele>385.3</ele>
        <time>2026-05-10T08:25:43.000Z</time>
      </trkpt>
      <trkpt lat="45.85693" lon="3.54422">
        <ele>385.4</ele>
        <time>2026-05-10T08:25:44.000Z</time>
      </trkpt>
      <trkpt lat="45.85692" lon="3.54423">
        <ele>385.4</ele>
        <time>2026-05-10T08:25:45.000Z</time>
      </trkpt>
      <trkpt lat="45.85691" lon="3.54425">
        <ele>385.5</ele>
        <time>2026-05-10T08:25:46.000Z</time>
      </trkpt>
      <trkpt lat="45.85691" lon="3.54426">
        <ele>385.6</ele>
        <time>2026-05-10T08:25:47.000Z</time>
      </trkpt>
      <trkpt lat="45.8569" lon="3.54427">
        <ele>385.7</ele>
        <time>2026-05-10T08:25:48.000Z</time>
      </trkpt>
      <trkpt lat="45.8569" lon="3.54428">
        <ele>385.7</ele>
        <time>2026-05-10T08:25:49.000Z</time>
      </trkpt>
      <trkpt lat="45.85689" lon="3.54429">
        <ele>385.8</ele>
        <time>2026-05-10T08:25:50.000Z</time>
      </trkpt>
      <trkpt lat="45.85688" lon="3.54431">
        <ele>385.9</ele>
        <time>2026-05-10T08:25:51.000Z</time>
      </trkpt>
      <trkpt lat="45.85687" lon="3.54432">
        <ele>385.9</ele>
        <time>2026-05-10T08:25:52.000Z</time>
      </trkpt>
      <trkpt lat="45.85686" lon="3.54433">
        <ele>386</ele>
        <time>2026-05-10T08:25:53.000Z</time>
      </trkpt>
      <trkpt lat="45.85685" lon="3.54435">
        <ele>386.1</ele>
        <time>2026-05-10T08:25:54.000Z</time>
      </trkpt>
      <trkpt lat="45.85684" lon="3.54436">
        <ele>386.1</ele>
        <time>2026-05-10T08:25:55.000Z</time>
      </trkpt>
      <trkpt lat="45.85683" lon="3.54438">
        <ele>386.2</ele>
        <time>2026-05-10T08:25:56.000Z</time>
      </trkpt>
      <trkpt lat="45.85682" lon="3.54438">
        <ele>386.2</ele>
        <time>2026-05-10T08:25:57.000Z</time>
      </trkpt>
      <trkpt lat="45.85681" lon="3.5444">
        <ele>386.2</ele>
        <time>2026-05-10T08:25:58.000Z</time>
      </trkpt>
      <trkpt lat="45.8568" lon="3.54441">
        <ele>386.3</ele>
        <time>2026-05-10T08:25:59.000Z</time>
      </trkpt>
      <trkpt lat="45.85679" lon="3.54443">
        <ele>386.3</ele>
        <time>2026-05-10T08:26:00.000Z</time>
      </trkpt>
      <trkpt lat="45.85678" lon="3.54444">
        <ele>386.4</ele>
        <time>2026-05-10T08:26:01.000Z</time>
      </trkpt>
      <trkpt lat="45.85677" lon="3.54445">
        <ele>386.4</ele>
        <time>2026-05-10T08:26:02.000Z</time>
      </trkpt>
      <trkpt lat="45.85676" lon="3.54447">
        <ele>386.5</ele>
        <time>2026-05-10T08:26:03.000Z</time>
      </trkpt>
      <trkpt lat="45.85675" lon="3.54448">
        <ele>386.6</ele>
        <time>2026-05-10T08:26:04.000Z</time>
      </trkpt>
      <trkpt lat="45.85674" lon="3.54449">
        <ele>386.6</ele>
        <time>2026-05-10T08:26:05.000Z</time>
      </trkpt>
      <trkpt lat="45.85673" lon="3.54451">
        <ele>386.7</ele>
        <time>2026-05-10T08:26:06.000Z</time>
      </trkpt>
      <trkpt lat="45.85672" lon="3.54452">
        <ele>386.7</ele>
        <time>2026-05-10T08:26:07.000Z</time>
      </trkpt>
      <trkpt lat="45.85672" lon="3.54453">
        <ele>386.7</ele>
        <time>2026-05-10T08:26:08.000Z</time>
      </trkpt>
      <trkpt lat="45.85671" lon="3.54454">
        <ele>386.7</ele>
        <time>2026-05-10T08:26:09.000Z</time>
      </trkpt>
      <trkpt lat="45.85671" lon="3.54455">
        <ele>386.7</ele>
        <time>2026-05-10T08:26:10.000Z</time>
      </trkpt>
      <trkpt lat="45.8567" lon="3.54456">
        <ele>386.7</ele>
        <time>2026-05-10T08:26:11.000Z</time>
      </trkpt>
      <trkpt lat="45.85669" lon="3.54458">
        <ele>386.7</ele>
        <time>2026-05-10T08:26:12.000Z</time>
      </trkpt>
      <trkpt lat="45.85669" lon="3.54459">
        <ele>386.7</ele>
        <time>2026-05-10T08:26:13.000Z</time>
      </trkpt>
      <trkpt lat="45.85668" lon="3.5446">
        <ele>386.7</ele>
        <time>2026-05-10T08:26:14.000Z</time>
      </trkpt>
      <trkpt lat="45.85667" lon="3.54461">
        <ele>386.7</ele>
        <time>2026-05-10T08:26:15.000Z</time>
      </trkpt>
      <trkpt lat="45.85667" lon="3.54463">
        <ele>386.7</ele>
        <time>2026-05-10T08:26:16.000Z</time>
      </trkpt>
      <trkpt lat="45.85667" lon="3.54464">
        <ele>386.7</ele>
        <time>2026-05-10T08:26:17.000Z</time>
      </trkpt>
      <trkpt lat="45.85666" lon="3.54465">
        <ele>386.6</ele>
        <time>2026-05-10T08:26:18.000Z</time>
      </trkpt>
      <trkpt lat="45.85666" lon="3.54466">
        <ele>386.6</ele>
        <time>2026-05-10T08:26:19.000Z</time>
      </trkpt>
      <trkpt lat="45.85665" lon="3.54468">
        <ele>386.5</ele>
        <time>2026-05-10T08:26:20.000Z</time>
      </trkpt>
      <trkpt lat="45.85665" lon="3.5447">
        <ele>386.6</ele>
        <time>2026-05-10T08:26:21.000Z</time>
      </trkpt>
      <trkpt lat="45.85665" lon="3.54471">
        <ele>386.6</ele>
        <time>2026-05-10T08:26:22.000Z</time>
      </trkpt>
      <trkpt lat="45.85665" lon="3.54474">
        <ele>386.6</ele>
        <time>2026-05-10T08:26:23.000Z</time>
      </trkpt>
      <trkpt lat="45.85665" lon="3.54475">
        <ele>386.7</ele>
        <time>2026-05-10T08:26:24.000Z</time>
      </trkpt>
      <trkpt lat="45.85666" lon="3.54476">
        <ele>386.8</ele>
        <time>2026-05-10T08:26:25.000Z</time>
      </trkpt>
      <trkpt lat="45.85666" lon="3.54478">
        <ele>386.9</ele>
        <time>2026-05-10T08:26:26.000Z</time>
      </trkpt>
      <trkpt lat="45.85667" lon="3.54479">
        <ele>387.1</ele>
        <time>2026-05-10T08:26:27.000Z</time>
      </trkpt>
      <trkpt lat="45.85668" lon="3.54479">
        <ele>387.3</ele>
        <time>2026-05-10T08:26:28.000Z</time>
      </trkpt>
      <trkpt lat="45.85669" lon="3.5448">
        <ele>387.5</ele>
        <time>2026-05-10T08:26:29.000Z</time>
      </trkpt>
      <trkpt lat="45.8567" lon="3.5448">
        <ele>387.7</ele>
        <time>2026-05-10T08:26:30.000Z</time>
      </trkpt>
      <trkpt lat="45.85671" lon="3.5448">
        <ele>388</ele>
        <time>2026-05-10T08:26:31.000Z</time>
      </trkpt>
      <trkpt lat="45.85673" lon="3.5448">
        <ele>388.4</ele>
        <time>2026-05-10T08:26:32.000Z</time>
      </trkpt>
      <trkpt lat="45.85675" lon="3.54481">
        <ele>388.6</ele>
        <time>2026-05-10T08:26:33.000Z</time>
      </trkpt>
      <trkpt lat="45.85676" lon="3.54481">
        <ele>388.9</ele>
        <time>2026-05-10T08:26:34.000Z</time>
      </trkpt>
      <trkpt lat="45.85677" lon="3.54481">
        <ele>389.1</ele>
        <time>2026-05-10T08:26:35.000Z</time>
      </trkpt>
      <trkpt lat="45.85678" lon="3.54481">
        <ele>389.4</ele>
        <time>2026-05-10T08:26:36.000Z</time>
      </trkpt>
      <trkpt lat="45.85679" lon="3.54481">
        <ele>389.6</ele>
        <time>2026-05-10T08:26:37.000Z</time>
      </trkpt>
      <trkpt lat="45.8568" lon="3.54481">
        <ele>389.8</ele>
        <time>2026-05-10T08:26:38.000Z</time>
      </trkpt>
      <trkpt lat="45.85681" lon="3.54482">
        <ele>389.9</ele>
        <time>2026-05-10T08:26:39.000Z</time>
      </trkpt>
      <trkpt lat="45.85682" lon="3.54481">
        <ele>390.1</ele>
        <time>2026-05-10T08:26:40.000Z</time>
      </trkpt>
      <trkpt lat="45.85683" lon="3.54481">
        <ele>390.2</ele>
        <time>2026-05-10T08:26:41.000Z</time>
      </trkpt>
      <trkpt lat="45.85683" lon="3.54481">
        <ele>390.4</ele>
        <time>2026-05-10T08:26:42.000Z</time>
      </trkpt>
      <trkpt lat="45.85684" lon="3.54481">
        <ele>390.4</ele>
        <time>2026-05-10T08:26:43.000Z</time>
      </trkpt>
      <trkpt lat="45.85685" lon="3.54481">
        <ele>390.6</ele>
        <time>2026-05-10T08:26:44.000Z</time>
      </trkpt>
      <trkpt lat="45.85686" lon="3.54481">
        <ele>390.8</ele>
        <time>2026-05-10T08:26:45.000Z</time>
      </trkpt>
      <trkpt lat="45.85687" lon="3.5448">
        <ele>391.1</ele>
        <time>2026-05-10T08:26:46.000Z</time>
      </trkpt>
      <trkpt lat="45.85689" lon="3.54481">
        <ele>391.4</ele>
        <time>2026-05-10T08:26:47.000Z</time>
      </trkpt>
      <trkpt lat="45.8569" lon="3.54481">
        <ele>391.6</ele>
        <time>2026-05-10T08:26:48.000Z</time>
      </trkpt>
      <trkpt lat="45.85691" lon="3.54481">
        <ele>391.8</ele>
        <time>2026-05-10T08:26:49.000Z</time>
      </trkpt>
      <trkpt lat="45.85691" lon="3.54482">
        <ele>392</ele>
        <time>2026-05-10T08:26:50.000Z</time>
      </trkpt>
      <trkpt lat="45.85692" lon="3.54483">
        <ele>392.4</ele>
        <time>2026-05-10T08:26:51.000Z</time>
      </trkpt>
      <trkpt lat="45.85694" lon="3.54485">
        <ele>392.7</ele>
        <time>2026-05-10T08:26:52.000Z</time>
      </trkpt>
      <trkpt lat="45.85694" lon="3.54486">
        <ele>392.9</ele>
        <time>2026-05-10T08:26:53.000Z</time>
      </trkpt>
      <trkpt lat="45.85694" lon="3.54488">
        <ele>393.1</ele>
        <time>2026-05-10T08:26:54.000Z</time>
      </trkpt>
      <trkpt lat="45.85694" lon="3.54488">
        <ele>393.1</ele>
        <time>2026-05-10T08:26:55.000Z</time>
      </trkpt>
      <trkpt lat="45.85694" lon="3.5449">
        <ele>393</ele>
        <time>2026-05-10T08:26:56.000Z</time>
      </trkpt>
      <trkpt lat="45.85693" lon="3.54492">
        <ele>393.1</ele>
        <time>2026-05-10T08:26:57.000Z</time>
      </trkpt>
      <trkpt lat="45.85693" lon="3.54494">
        <ele>393.1</ele>
        <time>2026-05-10T08:26:58.000Z</time>
      </trkpt>
      <trkpt lat="45.85692" lon="3.54495">
        <ele>393.1</ele>
        <time>2026-05-10T08:26:59.000Z</time>
      </trkpt>
      <trkpt lat="45.85691" lon="3.54497">
        <ele>393</ele>
        <time>2026-05-10T08:27:00.000Z</time>
      </trkpt>
      <trkpt lat="45.8569" lon="3.54498">
        <ele>392.9</ele>
        <time>2026-05-10T08:27:01.000Z</time>
      </trkpt>
      <trkpt lat="45.8569" lon="3.545">
        <ele>392.8</ele>
        <time>2026-05-10T08:27:02.000Z</time>
      </trkpt>
      <trkpt lat="45.85689" lon="3.54501">
        <ele>392.7</ele>
        <time>2026-05-10T08:27:03.000Z</time>
      </trkpt>
      <trkpt lat="45.85688" lon="3.54504">
        <ele>392.9</ele>
        <time>2026-05-10T08:27:04.000Z</time>
      </trkpt>
      <trkpt lat="45.85687" lon="3.54505">
        <ele>392.9</ele>
        <time>2026-05-10T08:27:05.000Z</time>
      </trkpt>
      <trkpt lat="45.85686" lon="3.54506">
        <ele>392.8</ele>
        <time>2026-05-10T08:27:06.000Z</time>
      </trkpt>
      <trkpt lat="45.85686" lon="3.54508">
        <ele>392.9</ele>
        <time>2026-05-10T08:27:07.000Z</time>
      </trkpt>
      <trkpt lat="45.85685" lon="3.5451">
        <ele>392.9</ele>
        <time>2026-05-10T08:27:08.000Z</time>
      </trkpt>
      <trkpt lat="45.85685" lon="3.54512">
        <ele>393.1</ele>
        <time>2026-05-10T08:27:09.000Z</time>
      </trkpt>
      <trkpt lat="45.85685" lon="3.54514">
        <ele>393.3</ele>
        <time>2026-05-10T08:27:10.000Z</time>
      </trkpt>
      <trkpt lat="45.85684" lon="3.54515">
        <ele>393.4</ele>
        <time>2026-05-10T08:27:11.000Z</time>
      </trkpt>
      <trkpt lat="45.85684" lon="3.54516">
        <ele>393.5</ele>
        <time>2026-05-10T08:27:12.000Z</time>
      </trkpt>
      <trkpt lat="45.85684" lon="3.54517">
        <ele>393.7</ele>
        <time>2026-05-10T08:27:13.000Z</time>
      </trkpt>
      <trkpt lat="45.85684" lon="3.54519">
        <ele>393.9</ele>
        <time>2026-05-10T08:27:14.000Z</time>
      </trkpt>
      <trkpt lat="45.85684" lon="3.54521">
        <ele>394.1</ele>
        <time>2026-05-10T08:27:15.000Z</time>
      </trkpt>
      <trkpt lat="45.85684" lon="3.54523">
        <ele>394.5</ele>
        <time>2026-05-10T08:27:16.000Z</time>
      </trkpt>
      <trkpt lat="45.85685" lon="3.54525">
        <ele>394.9</ele>
        <time>2026-05-10T08:27:17.000Z</time>
      </trkpt>
      <trkpt lat="45.85686" lon="3.54526">
        <ele>395.2</ele>
        <time>2026-05-10T08:27:18.000Z</time>
      </trkpt>
      <trkpt lat="45.85686" lon="3.54527">
        <ele>395.6</ele>
        <time>2026-05-10T08:27:19.000Z</time>
      </trkpt>
      <trkpt lat="45.85687" lon="3.54529">
        <ele>395.9</ele>
        <time>2026-05-10T08:27:20.000Z</time>
      </trkpt>
      <trkpt lat="45.85688" lon="3.5453">
        <ele>396.3</ele>
        <time>2026-05-10T08:27:21.000Z</time>
      </trkpt>
      <trkpt lat="45.85689" lon="3.54532">
        <ele>396.7</ele>
        <time>2026-05-10T08:27:22.000Z</time>
      </trkpt>
      <trkpt lat="45.8569" lon="3.54533">
        <ele>397.1</ele>
        <time>2026-05-10T08:27:23.000Z</time>
      </trkpt>
      <trkpt lat="45.85691" lon="3.54535">
        <ele>397.5</ele>
        <time>2026-05-10T08:27:24.000Z</time>
      </trkpt>
      <trkpt lat="45.85692" lon="3.54536">
        <ele>397.8</ele>
        <time>2026-05-10T08:27:25.000Z</time>
      </trkpt>
      <trkpt lat="45.85693" lon="3.54538">
        <ele>398.1</ele>
        <time>2026-05-10T08:27:26.000Z</time>
      </trkpt>
      <trkpt lat="45.85694" lon="3.54539">
        <ele>398.3</ele>
        <time>2026-05-10T08:27:27.000Z</time>
      </trkpt>
      <trkpt lat="45.85695" lon="3.5454">
        <ele>398.5</ele>
        <time>2026-05-10T08:27:28.000Z</time>
      </trkpt>
      <trkpt lat="45.85696" lon="3.54542">
        <ele>398.6</ele>
        <time>2026-05-10T08:27:29.000Z</time>
      </trkpt>
      <trkpt lat="45.85697" lon="3.54543">
        <ele>398.7</ele>
        <time>2026-05-10T08:27:30.000Z</time>
      </trkpt>
      <trkpt lat="45.85698" lon="3.54545">
        <ele>398.8</ele>
        <time>2026-05-10T08:27:31.000Z</time>
      </trkpt>
      <trkpt lat="45.85698" lon="3.54546">
        <ele>398.9</ele>
        <time>2026-05-10T08:27:32.000Z</time>
      </trkpt>
      <trkpt lat="45.85698" lon="3.54547">
        <ele>399</ele>
        <time>2026-05-10T08:27:33.000Z</time>
      </trkpt>
      <trkpt lat="45.85699" lon="3.54549">
        <ele>399.2</ele>
        <time>2026-05-10T08:27:34.000Z</time>
      </trkpt>
      <trkpt lat="45.857" lon="3.54551">
        <ele>399.3</ele>
        <time>2026-05-10T08:27:35.000Z</time>
      </trkpt>
      <trkpt lat="45.857" lon="3.54553">
        <ele>399.5</ele>
        <time>2026-05-10T08:27:36.000Z</time>
      </trkpt>
      <trkpt lat="45.857" lon="3.54554">
        <ele>399.5</ele>
        <time>2026-05-10T08:27:37.000Z</time>
      </trkpt>
      <trkpt lat="45.85699" lon="3.54556">
        <ele>399.6</ele>
        <time>2026-05-10T08:27:38.000Z</time>
      </trkpt>
      <trkpt lat="45.85699" lon="3.54557">
        <ele>399.6</ele>
        <time>2026-05-10T08:27:39.000Z</time>
      </trkpt>
      <trkpt lat="45.85698" lon="3.54559">
        <ele>399.9</ele>
        <time>2026-05-10T08:27:40.000Z</time>
      </trkpt>
      <trkpt lat="45.85697" lon="3.5456">
        <ele>400</ele>
        <time>2026-05-10T08:27:41.000Z</time>
      </trkpt>
      <trkpt lat="45.85697" lon="3.54561">
        <ele>400</ele>
        <time>2026-05-10T08:27:42.000Z</time>
      </trkpt>
      <trkpt lat="45.85696" lon="3.54562">
        <ele>400.1</ele>
        <time>2026-05-10T08:27:43.000Z</time>
      </trkpt>
      <trkpt lat="45.85694" lon="3.54564">
        <ele>400.1</ele>
        <time>2026-05-10T08:27:44.000Z</time>
      </trkpt>
      <trkpt lat="45.85694" lon="3.54565">
        <ele>400.2</ele>
        <time>2026-05-10T08:27:45.000Z</time>
      </trkpt>
      <trkpt lat="45.85693" lon="3.54566">
        <ele>400.3</ele>
        <time>2026-05-10T08:27:46.000Z</time>
      </trkpt>
      <trkpt lat="45.85692" lon="3.54567">
        <ele>400.4</ele>
        <time>2026-05-10T08:27:47.000Z</time>
      </trkpt>
      <trkpt lat="45.85691" lon="3.54569">
        <ele>400.5</ele>
        <time>2026-05-10T08:27:48.000Z</time>
      </trkpt>
      <trkpt lat="45.85689" lon="3.5457">
        <ele>400.6</ele>
        <time>2026-05-10T08:27:49.000Z</time>
      </trkpt>
      <trkpt lat="45.85688" lon="3.54571">
        <ele>400.6</ele>
        <time>2026-05-10T08:27:50.000Z</time>
      </trkpt>
      <trkpt lat="45.85686" lon="3.54572">
        <ele>400.6</ele>
        <time>2026-05-10T08:27:51.000Z</time>
      </trkpt>
      <trkpt lat="45.85685" lon="3.54573">
        <ele>400.8</ele>
        <time>2026-05-10T08:27:52.000Z</time>
      </trkpt>
      <trkpt lat="45.85684" lon="3.54574">
        <ele>400.9</ele>
        <time>2026-05-10T08:27:53.000Z</time>
      </trkpt>
      <trkpt lat="45.85683" lon="3.54575">
        <ele>401</ele>
        <time>2026-05-10T08:27:54.000Z</time>
      </trkpt>
      <trkpt lat="45.85681" lon="3.54576">
        <ele>401.1</ele>
        <time>2026-05-10T08:27:55.000Z</time>
      </trkpt>
      <trkpt lat="45.8568" lon="3.54578">
        <ele>401.3</ele>
        <time>2026-05-10T08:27:56.000Z</time>
      </trkpt>
      <trkpt lat="45.85679" lon="3.54579">
        <ele>401.5</ele>
        <time>2026-05-10T08:27:57.000Z</time>
      </trkpt>
      <trkpt lat="45.85679" lon="3.54579">
        <ele>401.6</ele>
        <time>2026-05-10T08:27:58.000Z</time>
      </trkpt>
      <trkpt lat="45.85677" lon="3.5458">
        <ele>401.7</ele>
        <time>2026-05-10T08:27:59.000Z</time>
      </trkpt>
      <trkpt lat="45.85676" lon="3.5458">
        <ele>401.7</ele>
        <time>2026-05-10T08:28:00.000Z</time>
      </trkpt>
      <trkpt lat="45.85675" lon="3.54581">
        <ele>401.8</ele>
        <time>2026-05-10T08:28:01.000Z</time>
      </trkpt>
      <trkpt lat="45.85673" lon="3.54582">
        <ele>401.9</ele>
        <time>2026-05-10T08:28:02.000Z</time>
      </trkpt>
      <trkpt lat="45.85672" lon="3.54582">
        <ele>401.9</ele>
        <time>2026-05-10T08:28:03.000Z</time>
      </trkpt>
      <trkpt lat="45.8567" lon="3.54583">
        <ele>402</ele>
        <time>2026-05-10T08:28:04.000Z</time>
      </trkpt>
      <trkpt lat="45.85669" lon="3.54583">
        <ele>402</ele>
        <time>2026-05-10T08:28:05.000Z</time>
      </trkpt>
      <trkpt lat="45.85668" lon="3.54584">
        <ele>402.1</ele>
        <time>2026-05-10T08:28:06.000Z</time>
      </trkpt>
      <trkpt lat="45.85667" lon="3.54584">
        <ele>402.1</ele>
        <time>2026-05-10T08:28:07.000Z</time>
      </trkpt>
      <trkpt lat="45.85665" lon="3.54585">
        <ele>402.2</ele>
        <time>2026-05-10T08:28:08.000Z</time>
      </trkpt>
      <trkpt lat="45.85664" lon="3.54585">
        <ele>402.2</ele>
        <time>2026-05-10T08:28:09.000Z</time>
      </trkpt>
      <trkpt lat="45.85663" lon="3.54585">
        <ele>402.3</ele>
        <time>2026-05-10T08:28:10.000Z</time>
      </trkpt>
      <trkpt lat="45.85662" lon="3.54586">
        <ele>402.3</ele>
        <time>2026-05-10T08:28:11.000Z</time>
      </trkpt>
      <trkpt lat="45.8566" lon="3.54586">
        <ele>402.3</ele>
        <time>2026-05-10T08:28:12.000Z</time>
      </trkpt>
      <trkpt lat="45.85659" lon="3.54586">
        <ele>402.4</ele>
        <time>2026-05-10T08:28:13.000Z</time>
      </trkpt>
      <trkpt lat="45.85658" lon="3.54586">
        <ele>402.3</ele>
        <time>2026-05-10T08:28:14.000Z</time>
      </trkpt>
      <trkpt lat="45.85657" lon="3.54586">
        <ele>402.4</ele>
        <time>2026-05-10T08:28:15.000Z</time>
      </trkpt>
      <trkpt lat="45.85656" lon="3.54587">
        <ele>402.4</ele>
        <time>2026-05-10T08:28:16.000Z</time>
      </trkpt>
      <trkpt lat="45.85654" lon="3.54587">
        <ele>402.4</ele>
        <time>2026-05-10T08:28:17.000Z</time>
      </trkpt>
      <trkpt lat="45.85653" lon="3.54588">
        <ele>402.5</ele>
        <time>2026-05-10T08:28:18.000Z</time>
      </trkpt>
      <trkpt lat="45.85652" lon="3.54588">
        <ele>402.6</ele>
        <time>2026-05-10T08:28:19.000Z</time>
      </trkpt>
      <trkpt lat="45.85651" lon="3.54588">
        <ele>402.6</ele>
        <time>2026-05-10T08:28:20.000Z</time>
      </trkpt>
      <trkpt lat="45.8565" lon="3.54589">
        <ele>402.7</ele>
        <time>2026-05-10T08:28:21.000Z</time>
      </trkpt>
      <trkpt lat="45.85649" lon="3.54589">
        <ele>402.7</ele>
        <time>2026-05-10T08:28:22.000Z</time>
      </trkpt>
      <trkpt lat="45.85648" lon="3.54589">
        <ele>402.8</ele>
        <time>2026-05-10T08:28:23.000Z</time>
      </trkpt>
      <trkpt lat="45.85647" lon="3.5459">
        <ele>402.9</ele>
        <time>2026-05-10T08:28:24.000Z</time>
      </trkpt>
      <trkpt lat="45.85645" lon="3.54592">
        <ele>403.2</ele>
        <time>2026-05-10T08:28:25.000Z</time>
      </trkpt>
      <trkpt lat="45.85644" lon="3.54592">
        <ele>403.2</ele>
        <time>2026-05-10T08:28:26.000Z</time>
      </trkpt>
      <trkpt lat="45.85643" lon="3.54592">
        <ele>403.3</ele>
        <time>2026-05-10T08:28:27.000Z</time>
      </trkpt>
      <trkpt lat="45.85641" lon="3.54593">
        <ele>403.5</ele>
        <time>2026-05-10T08:28:28.000Z</time>
      </trkpt>
      <trkpt lat="45.8564" lon="3.54594">
        <ele>403.6</ele>
        <time>2026-05-10T08:28:29.000Z</time>
      </trkpt>
      <trkpt lat="45.85639" lon="3.54594">
        <ele>403.7</ele>
        <time>2026-05-10T08:28:30.000Z</time>
      </trkpt>
      <trkpt lat="45.85638" lon="3.54595">
        <ele>403.8</ele>
        <time>2026-05-10T08:28:31.000Z</time>
      </trkpt>
      <trkpt lat="45.85637" lon="3.54595">
        <ele>403.9</ele>
        <time>2026-05-10T08:28:32.000Z</time>
      </trkpt>
      <trkpt lat="45.85635" lon="3.54596">
        <ele>404</ele>
        <time>2026-05-10T08:28:33.000Z</time>
      </trkpt>
      <trkpt lat="45.85634" lon="3.54596">
        <ele>404</ele>
        <time>2026-05-10T08:28:34.000Z</time>
      </trkpt>
      <trkpt lat="45.85634" lon="3.54597">
        <ele>404.2</ele>
        <time>2026-05-10T08:28:35.000Z</time>
      </trkpt>
      <trkpt lat="45.85632" lon="3.54598">
        <ele>404.3</ele>
        <time>2026-05-10T08:28:36.000Z</time>
      </trkpt>
      <trkpt lat="45.85632" lon="3.54599">
        <ele>404.6</ele>
        <time>2026-05-10T08:28:37.000Z</time>
      </trkpt>
      <trkpt lat="45.8563" lon="3.546">
        <ele>404.7</ele>
        <time>2026-05-10T08:28:38.000Z</time>
      </trkpt>
      <trkpt lat="45.85629" lon="3.546">
        <ele>404.7</ele>
        <time>2026-05-10T08:28:39.000Z</time>
      </trkpt>
      <trkpt lat="45.85628" lon="3.54602">
        <ele>405.1</ele>
        <time>2026-05-10T08:28:40.000Z</time>
      </trkpt>
      <trkpt lat="45.85627" lon="3.54604">
        <ele>405.5</ele>
        <time>2026-05-10T08:28:41.000Z</time>
      </trkpt>
      <trkpt lat="45.85626" lon="3.54605">
        <ele>405.6</ele>
        <time>2026-05-10T08:28:42.000Z</time>
      </trkpt>
      <trkpt lat="45.85625" lon="3.54605">
        <ele>405.6</ele>
        <time>2026-05-10T08:28:43.000Z</time>
      </trkpt>
      <trkpt lat="45.85623" lon="3.54606">
        <ele>405.8</ele>
        <time>2026-05-10T08:28:44.000Z</time>
      </trkpt>
      <trkpt lat="45.85622" lon="3.54607">
        <ele>405.9</ele>
        <time>2026-05-10T08:28:45.000Z</time>
      </trkpt>
      <trkpt lat="45.85621" lon="3.54608">
        <ele>406</ele>
        <time>2026-05-10T08:28:46.000Z</time>
      </trkpt>
      <trkpt lat="45.8562" lon="3.54609">
        <ele>406.1</ele>
        <time>2026-05-10T08:28:47.000Z</time>
      </trkpt>
      <trkpt lat="45.85619" lon="3.5461">
        <ele>406.3</ele>
        <time>2026-05-10T08:28:48.000Z</time>
      </trkpt>
      <trkpt lat="45.85618" lon="3.54611">
        <ele>406.5</ele>
        <time>2026-05-10T08:28:49.000Z</time>
      </trkpt>
      <trkpt lat="45.85617" lon="3.54611">
        <ele>406.5</ele>
        <time>2026-05-10T08:28:50.000Z</time>
      </trkpt>
      <trkpt lat="45.85616" lon="3.54612">
        <ele>406.5</ele>
        <time>2026-05-10T08:28:51.000Z</time>
      </trkpt>
      <trkpt lat="45.85615" lon="3.54612">
        <ele>406.5</ele>
        <time>2026-05-10T08:28:52.000Z</time>
      </trkpt>
      <trkpt lat="45.85613" lon="3.54613">
        <ele>406.5</ele>
        <time>2026-05-10T08:28:53.000Z</time>
      </trkpt>
      <trkpt lat="45.85612" lon="3.54613">
        <ele>406.4</ele>
        <time>2026-05-10T08:28:54.000Z</time>
      </trkpt>
      <trkpt lat="45.85611" lon="3.54612">
        <ele>406.3</ele>
        <time>2026-05-10T08:28:55.000Z</time>
      </trkpt>
      <trkpt lat="45.8561" lon="3.54613">
        <ele>406.3</ele>
        <time>2026-05-10T08:28:56.000Z</time>
      </trkpt>
      <trkpt lat="45.85609" lon="3.54614">
        <ele>406.5</ele>
        <time>2026-05-10T08:28:57.000Z</time>
      </trkpt>
      <trkpt lat="45.85608" lon="3.54614">
        <ele>406.5</ele>
        <time>2026-05-10T08:28:58.000Z</time>
      </trkpt>
      <trkpt lat="45.85607" lon="3.54614">
        <ele>406.6</ele>
        <time>2026-05-10T08:28:59.000Z</time>
      </trkpt>
      <trkpt lat="45.85605" lon="3.54615">
        <ele>406.8</ele>
        <time>2026-05-10T08:29:00.000Z</time>
      </trkpt>
      <trkpt lat="45.85604" lon="3.54616">
        <ele>406.9</ele>
        <time>2026-05-10T08:29:01.000Z</time>
      </trkpt>
      <trkpt lat="45.85603" lon="3.54617">
        <ele>407</ele>
        <time>2026-05-10T08:29:02.000Z</time>
      </trkpt>
      <trkpt lat="45.85602" lon="3.54617">
        <ele>407.1</ele>
        <time>2026-05-10T08:29:03.000Z</time>
      </trkpt>
      <trkpt lat="45.85601" lon="3.54618">
        <ele>407.1</ele>
        <time>2026-05-10T08:29:04.000Z</time>
      </trkpt>
      <trkpt lat="45.856" lon="3.54618">
        <ele>407.1</ele>
        <time>2026-05-10T08:29:05.000Z</time>
      </trkpt>
      <trkpt lat="45.85599" lon="3.54619">
        <ele>407.2</ele>
        <time>2026-05-10T08:29:06.000Z</time>
      </trkpt>
      <trkpt lat="45.85597" lon="3.54619">
        <ele>407.3</ele>
        <time>2026-05-10T08:29:07.000Z</time>
      </trkpt>
      <trkpt lat="45.85596" lon="3.5462">
        <ele>407.4</ele>
        <time>2026-05-10T08:29:08.000Z</time>
      </trkpt>
      <trkpt lat="45.85595" lon="3.54622">
        <ele>407.6</ele>
        <time>2026-05-10T08:29:09.000Z</time>
      </trkpt>
      <trkpt lat="45.85594" lon="3.54623">
        <ele>407.7</ele>
        <time>2026-05-10T08:29:10.000Z</time>
      </trkpt>
      <trkpt lat="45.85593" lon="3.54624">
        <ele>407.8</ele>
        <time>2026-05-10T08:29:11.000Z</time>
      </trkpt>
      <trkpt lat="45.85592" lon="3.54624">
        <ele>407.9</ele>
        <time>2026-05-10T08:29:12.000Z</time>
      </trkpt>
      <trkpt lat="45.8559" lon="3.54625">
        <ele>407.9</ele>
        <time>2026-05-10T08:29:13.000Z</time>
      </trkpt>
      <trkpt lat="45.85589" lon="3.54626">
        <ele>407.9</ele>
        <time>2026-05-10T08:29:14.000Z</time>
      </trkpt>
      <trkpt lat="45.85587" lon="3.54627">
        <ele>407.9</ele>
        <time>2026-05-10T08:29:15.000Z</time>
      </trkpt>
      <trkpt lat="45.85585" lon="3.54628">
        <ele>407.9</ele>
        <time>2026-05-10T08:29:16.000Z</time>
      </trkpt>
      <trkpt lat="45.85584" lon="3.54629">
        <ele>407.9</ele>
        <time>2026-05-10T08:29:17.000Z</time>
      </trkpt>
      <trkpt lat="45.85583" lon="3.54629">
        <ele>407.9</ele>
        <time>2026-05-10T08:29:18.000Z</time>
      </trkpt>
      <trkpt lat="45.85581" lon="3.5463">
        <ele>407.8</ele>
        <time>2026-05-10T08:29:19.000Z</time>
      </trkpt>
      <trkpt lat="45.85581" lon="3.54631">
        <ele>407.7</ele>
        <time>2026-05-10T08:29:20.000Z</time>
      </trkpt>
      <trkpt lat="45.8558" lon="3.54631">
        <ele>407.7</ele>
        <time>2026-05-10T08:29:21.000Z</time>
      </trkpt>
      <trkpt lat="45.85578" lon="3.54632">
        <ele>407.6</ele>
        <time>2026-05-10T08:29:22.000Z</time>
      </trkpt>
      <trkpt lat="45.85577" lon="3.54632">
        <ele>407.5</ele>
        <time>2026-05-10T08:29:23.000Z</time>
      </trkpt>
      <trkpt lat="45.85576" lon="3.54633">
        <ele>407.5</ele>
        <time>2026-05-10T08:29:24.000Z</time>
      </trkpt>
      <trkpt lat="45.85575" lon="3.54633">
        <ele>407.5</ele>
        <time>2026-05-10T08:29:25.000Z</time>
      </trkpt>
      <trkpt lat="45.85574" lon="3.54634">
        <ele>407.5</ele>
        <time>2026-05-10T08:29:26.000Z</time>
      </trkpt>
      <trkpt lat="45.85573" lon="3.54635">
        <ele>407.6</ele>
        <time>2026-05-10T08:29:27.000Z</time>
      </trkpt>
      <trkpt lat="45.85572" lon="3.54636">
        <ele>407.7</ele>
        <time>2026-05-10T08:29:28.000Z</time>
      </trkpt>
      <trkpt lat="45.85572" lon="3.54637">
        <ele>407.8</ele>
        <time>2026-05-10T08:29:29.000Z</time>
      </trkpt>
      <trkpt lat="45.8557" lon="3.54638">
        <ele>407.9</ele>
        <time>2026-05-10T08:29:30.000Z</time>
      </trkpt>
      <trkpt lat="45.85569" lon="3.54638">
        <ele>407.8</ele>
        <time>2026-05-10T08:29:31.000Z</time>
      </trkpt>
      <trkpt lat="45.85568" lon="3.54638">
        <ele>407.7</ele>
        <time>2026-05-10T08:29:32.000Z</time>
      </trkpt>
      <trkpt lat="45.85566" lon="3.54637">
        <ele>407.5</ele>
        <time>2026-05-10T08:29:33.000Z</time>
      </trkpt>
      <trkpt lat="45.85565" lon="3.54637">
        <ele>407.2</ele>
        <time>2026-05-10T08:29:34.000Z</time>
      </trkpt>
      <trkpt lat="45.85563" lon="3.54636">
        <ele>406.8</ele>
        <time>2026-05-10T08:29:35.000Z</time>
      </trkpt>
      <trkpt lat="45.85561" lon="3.54635">
        <ele>406.5</ele>
        <time>2026-05-10T08:29:36.000Z</time>
      </trkpt>
      <trkpt lat="45.8556" lon="3.54635">
        <ele>406.3</ele>
        <time>2026-05-10T08:29:37.000Z</time>
      </trkpt>
      <trkpt lat="45.85559" lon="3.54634">
        <ele>406</ele>
        <time>2026-05-10T08:29:38.000Z</time>
      </trkpt>
      <trkpt lat="45.85558" lon="3.54634">
        <ele>405.8</ele>
        <time>2026-05-10T08:29:39.000Z</time>
      </trkpt>
      <trkpt lat="45.85557" lon="3.54633">
        <ele>405.5</ele>
        <time>2026-05-10T08:29:40.000Z</time>
      </trkpt>
      <trkpt lat="45.85556" lon="3.54632">
        <ele>405.2</ele>
        <time>2026-05-10T08:29:41.000Z</time>
      </trkpt>
      <trkpt lat="45.85555" lon="3.54632">
        <ele>404.7</ele>
        <time>2026-05-10T08:29:42.000Z</time>
      </trkpt>
      <trkpt lat="45.85554" lon="3.54631">
        <ele>404.2</ele>
        <time>2026-05-10T08:29:43.000Z</time>
      </trkpt>
      <trkpt lat="45.85553" lon="3.54631">
        <ele>403.8</ele>
        <time>2026-05-10T08:29:44.000Z</time>
      </trkpt>
      <trkpt lat="45.85552" lon="3.54631">
        <ele>403.5</ele>
        <time>2026-05-10T08:29:45.000Z</time>
      </trkpt>
      <trkpt lat="45.8555" lon="3.54631">
        <ele>403.1</ele>
        <time>2026-05-10T08:29:46.000Z</time>
      </trkpt>
      <trkpt lat="45.85548" lon="3.54631">
        <ele>402.8</ele>
        <time>2026-05-10T08:29:47.000Z</time>
      </trkpt>
      <trkpt lat="45.85547" lon="3.54632">
        <ele>402.6</ele>
        <time>2026-05-10T08:29:48.000Z</time>
      </trkpt>
      <trkpt lat="45.85546" lon="3.54633">
        <ele>402.7</ele>
        <time>2026-05-10T08:29:49.000Z</time>
      </trkpt>
      <trkpt lat="45.85545" lon="3.54635">
        <ele>402.7</ele>
        <time>2026-05-10T08:29:50.000Z</time>
      </trkpt>
      <trkpt lat="45.85544" lon="3.54637">
        <ele>402.8</ele>
        <time>2026-05-10T08:29:51.000Z</time>
      </trkpt>
      <trkpt lat="45.85543" lon="3.54638">
        <ele>402.8</ele>
        <time>2026-05-10T08:29:52.000Z</time>
      </trkpt>
      <trkpt lat="45.85542" lon="3.5464">
        <ele>402.7</ele>
        <time>2026-05-10T08:29:53.000Z</time>
      </trkpt>
      <trkpt lat="45.85541" lon="3.54641">
        <ele>402.7</ele>
        <time>2026-05-10T08:29:54.000Z</time>
      </trkpt>
      <trkpt lat="45.8554" lon="3.54643">
        <ele>402.7</ele>
        <time>2026-05-10T08:29:55.000Z</time>
      </trkpt>
      <trkpt lat="45.85539" lon="3.54644">
        <ele>402.8</ele>
        <time>2026-05-10T08:29:56.000Z</time>
      </trkpt>
      <trkpt lat="45.85539" lon="3.54645">
        <ele>402.8</ele>
        <time>2026-05-10T08:29:57.000Z</time>
      </trkpt>
      <trkpt lat="45.85538" lon="3.54646">
        <ele>402.9</ele>
        <time>2026-05-10T08:29:58.000Z</time>
      </trkpt>
      <trkpt lat="45.85537" lon="3.54647">
        <ele>402.8</ele>
        <time>2026-05-10T08:29:59.000Z</time>
      </trkpt>
      <trkpt lat="45.85536" lon="3.54648">
        <ele>402.8</ele>
        <time>2026-05-10T08:30:00.000Z</time>
      </trkpt>
      <trkpt lat="45.85535" lon="3.5465">
        <ele>402.8</ele>
        <time>2026-05-10T08:30:01.000Z</time>
      </trkpt>
      <trkpt lat="45.85534" lon="3.54651">
        <ele>402.8</ele>
        <time>2026-05-10T08:30:02.000Z</time>
      </trkpt>
      <trkpt lat="45.85533" lon="3.54652">
        <ele>402.9</ele>
        <time>2026-05-10T08:30:03.000Z</time>
      </trkpt>
      <trkpt lat="45.85532" lon="3.54653">
        <ele>403</ele>
        <time>2026-05-10T08:30:04.000Z</time>
      </trkpt>
      <trkpt lat="45.85531" lon="3.54654">
        <ele>403</ele>
        <time>2026-05-10T08:30:05.000Z</time>
      </trkpt>
      <trkpt lat="45.85529" lon="3.54656">
        <ele>403.1</ele>
        <time>2026-05-10T08:30:06.000Z</time>
      </trkpt>
      <trkpt lat="45.85528" lon="3.54657">
        <ele>403.3</ele>
        <time>2026-05-10T08:30:07.000Z</time>
      </trkpt>
      <trkpt lat="45.85527" lon="3.54658">
        <ele>403.3</ele>
        <time>2026-05-10T08:30:08.000Z</time>
      </trkpt>
      <trkpt lat="45.85526" lon="3.54659">
        <ele>403.4</ele>
        <time>2026-05-10T08:30:09.000Z</time>
      </trkpt>
      <trkpt lat="45.85525" lon="3.54661">
        <ele>403.4</ele>
        <time>2026-05-10T08:30:10.000Z</time>
      </trkpt>
      <trkpt lat="45.85523" lon="3.54662">
        <ele>403.4</ele>
        <time>2026-05-10T08:30:11.000Z</time>
      </trkpt>
      <trkpt lat="45.85522" lon="3.54663">
        <ele>403.2</ele>
        <time>2026-05-10T08:30:12.000Z</time>
      </trkpt>
      <trkpt lat="45.85521" lon="3.54663">
        <ele>403.1</ele>
        <time>2026-05-10T08:30:13.000Z</time>
      </trkpt>
      <trkpt lat="45.8552" lon="3.54664">
        <ele>402.9</ele>
        <time>2026-05-10T08:30:14.000Z</time>
      </trkpt>
      <trkpt lat="45.85519" lon="3.54664">
        <ele>402.7</ele>
        <time>2026-05-10T08:30:15.000Z</time>
      </trkpt>
      <trkpt lat="45.85518" lon="3.54665">
        <ele>402.6</ele>
        <time>2026-05-10T08:30:16.000Z</time>
      </trkpt>
      <trkpt lat="45.85517" lon="3.54665">
        <ele>402.5</ele>
        <time>2026-05-10T08:30:17.000Z</time>
      </trkpt>
      <trkpt lat="45.85516" lon="3.54666">
        <ele>402.3</ele>
        <time>2026-05-10T08:30:18.000Z</time>
      </trkpt>
      <trkpt lat="45.85515" lon="3.54666">
        <ele>402.2</ele>
        <time>2026-05-10T08:30:19.000Z</time>
      </trkpt>
      <trkpt lat="45.85514" lon="3.54667">
        <ele>402.1</ele>
        <time>2026-05-10T08:30:20.000Z</time>
      </trkpt>
      <trkpt lat="45.85513" lon="3.54668">
        <ele>401.9</ele>
        <time>2026-05-10T08:30:21.000Z</time>
      </trkpt>
      <trkpt lat="45.85512" lon="3.54669">
        <ele>401.8</ele>
        <time>2026-05-10T08:30:22.000Z</time>
      </trkpt>
      <trkpt lat="45.85511" lon="3.5467">
        <ele>401.7</ele>
        <time>2026-05-10T08:30:23.000Z</time>
      </trkpt>
      <trkpt lat="45.8551" lon="3.5467">
        <ele>401.7</ele>
        <time>2026-05-10T08:30:24.000Z</time>
      </trkpt>
      <trkpt lat="45.85509" lon="3.54672">
        <ele>401.7</ele>
        <time>2026-05-10T08:30:25.000Z</time>
      </trkpt>
      <trkpt lat="45.85507" lon="3.54673">
        <ele>401.8</ele>
        <time>2026-05-10T08:30:26.000Z</time>
      </trkpt>
      <trkpt lat="45.85506" lon="3.54675">
        <ele>402</ele>
        <time>2026-05-10T08:30:27.000Z</time>
      </trkpt>
      <trkpt lat="45.85505" lon="3.54676">
        <ele>402.1</ele>
        <time>2026-05-10T08:30:28.000Z</time>
      </trkpt>
      <trkpt lat="45.85504" lon="3.54677">
        <ele>402.2</ele>
        <time>2026-05-10T08:30:29.000Z</time>
      </trkpt>
      <trkpt lat="45.85503" lon="3.54679">
        <ele>402.4</ele>
        <time>2026-05-10T08:30:30.000Z</time>
      </trkpt>
      <trkpt lat="45.85502" lon="3.5468">
        <ele>402.6</ele>
        <time>2026-05-10T08:30:31.000Z</time>
      </trkpt>
      <trkpt lat="45.85501" lon="3.54681">
        <ele>402.8</ele>
        <time>2026-05-10T08:30:32.000Z</time>
      </trkpt>
      <trkpt lat="45.85499" lon="3.54683">
        <ele>403</ele>
        <time>2026-05-10T08:30:33.000Z</time>
      </trkpt>
      <trkpt lat="45.85498" lon="3.54684">
        <ele>403.3</ele>
        <time>2026-05-10T08:30:34.000Z</time>
      </trkpt>
      <trkpt lat="45.85497" lon="3.54685">
        <ele>403.5</ele>
        <time>2026-05-10T08:30:35.000Z</time>
      </trkpt>
      <trkpt lat="45.85496" lon="3.54686">
        <ele>403.7</ele>
        <time>2026-05-10T08:30:36.000Z</time>
      </trkpt>
      <trkpt lat="45.85495" lon="3.54687">
        <ele>403.8</ele>
        <time>2026-05-10T08:30:37.000Z</time>
      </trkpt>
      <trkpt lat="45.85494" lon="3.54688">
        <ele>404</ele>
        <time>2026-05-10T08:30:38.000Z</time>
      </trkpt>
      <trkpt lat="45.85493" lon="3.5469">
        <ele>404.2</ele>
        <time>2026-05-10T08:30:39.000Z</time>
      </trkpt>
      <trkpt lat="45.85492" lon="3.54691">
        <ele>404.5</ele>
        <time>2026-05-10T08:30:40.000Z</time>
      </trkpt>
      <trkpt lat="45.85491" lon="3.54692">
        <ele>404.7</ele>
        <time>2026-05-10T08:30:41.000Z</time>
      </trkpt>
      <trkpt lat="45.8549" lon="3.54694">
        <ele>404.9</ele>
        <time>2026-05-10T08:30:42.000Z</time>
      </trkpt>
      <trkpt lat="45.85489" lon="3.54695">
        <ele>405</ele>
        <time>2026-05-10T08:30:43.000Z</time>
      </trkpt>
      <trkpt lat="45.85488" lon="3.54697">
        <ele>404.9</ele>
        <time>2026-05-10T08:30:44.000Z</time>
      </trkpt>
      <trkpt lat="45.85487" lon="3.54698">
        <ele>404.8</ele>
        <time>2026-05-10T08:30:45.000Z</time>
      </trkpt>
      <trkpt lat="45.85486" lon="3.547">
        <ele>404.7</ele>
        <time>2026-05-10T08:30:46.000Z</time>
      </trkpt>
      <trkpt lat="45.85486" lon="3.54702">
        <ele>404.7</ele>
        <time>2026-05-10T08:30:47.000Z</time>
      </trkpt>
      <trkpt lat="45.85485" lon="3.54704">
        <ele>404.7</ele>
        <time>2026-05-10T08:30:48.000Z</time>
      </trkpt>
      <trkpt lat="45.85485" lon="3.54705">
        <ele>404.6</ele>
        <time>2026-05-10T08:30:49.000Z</time>
      </trkpt>
      <trkpt lat="45.85484" lon="3.54706">
        <ele>404.5</ele>
        <time>2026-05-10T08:30:50.000Z</time>
      </trkpt>
      <trkpt lat="45.85482" lon="3.54707">
        <ele>404.3</ele>
        <time>2026-05-10T08:30:51.000Z</time>
      </trkpt>
      <trkpt lat="45.85482" lon="3.54708">
        <ele>404.2</ele>
        <time>2026-05-10T08:30:52.000Z</time>
      </trkpt>
      <trkpt lat="45.85481" lon="3.54708">
        <ele>404.1</ele>
        <time>2026-05-10T08:30:53.000Z</time>
      </trkpt>
      <trkpt lat="45.8548" lon="3.54709">
        <ele>404</ele>
        <time>2026-05-10T08:30:54.000Z</time>
      </trkpt>
      <trkpt lat="45.85479" lon="3.54709">
        <ele>403.8</ele>
        <time>2026-05-10T08:30:55.000Z</time>
      </trkpt>
      <trkpt lat="45.85478" lon="3.5471">
        <ele>403.6</ele>
        <time>2026-05-10T08:30:56.000Z</time>
      </trkpt>
      <trkpt lat="45.85477" lon="3.54711">
        <ele>403.4</ele>
        <time>2026-05-10T08:30:57.000Z</time>
      </trkpt>
      <trkpt lat="45.85476" lon="3.54712">
        <ele>403.3</ele>
        <time>2026-05-10T08:30:58.000Z</time>
      </trkpt>
      <trkpt lat="45.85475" lon="3.54713">
        <ele>403.1</ele>
        <time>2026-05-10T08:30:59.000Z</time>
      </trkpt>
      <trkpt lat="45.85474" lon="3.54714">
        <ele>403</ele>
        <time>2026-05-10T08:31:00.000Z</time>
      </trkpt>
      <trkpt lat="45.85473" lon="3.54715">
        <ele>402.8</ele>
        <time>2026-05-10T08:31:01.000Z</time>
      </trkpt>
      <trkpt lat="45.85471" lon="3.54715">
        <ele>402.6</ele>
        <time>2026-05-10T08:31:02.000Z</time>
      </trkpt>
      <trkpt lat="45.8547" lon="3.54716">
        <ele>402.6</ele>
        <time>2026-05-10T08:31:03.000Z</time>
      </trkpt>
      <trkpt lat="45.85469" lon="3.54717">
        <ele>402.5</ele>
        <time>2026-05-10T08:31:04.000Z</time>
      </trkpt>
      <trkpt lat="45.85468" lon="3.54718">
        <ele>402.5</ele>
        <time>2026-05-10T08:31:05.000Z</time>
      </trkpt>
      <trkpt lat="45.85467" lon="3.54719">
        <ele>402.4</ele>
        <time>2026-05-10T08:31:06.000Z</time>
      </trkpt>
      <trkpt lat="45.85467" lon="3.54719">
        <ele>402.4</ele>
        <time>2026-05-10T08:31:07.000Z</time>
      </trkpt>
      <trkpt lat="45.85464" lon="3.54717">
        <ele>402.1</ele>
        <time>2026-05-10T08:31:08.000Z</time>
      </trkpt>
      <trkpt lat="45.85464" lon="3.54716">
        <ele>402</ele>
        <time>2026-05-10T08:31:09.000Z</time>
      </trkpt>
      <trkpt lat="45.85464" lon="3.54715">
        <ele>401.9</ele>
        <time>2026-05-10T08:31:10.000Z</time>
      </trkpt>
      <trkpt lat="45.85463" lon="3.54714">
        <ele>401.8</ele>
        <time>2026-05-10T08:31:11.000Z</time>
      </trkpt>
      <trkpt lat="45.85463" lon="3.54713">
        <ele>401.6</ele>
        <time>2026-05-10T08:31:12.000Z</time>
      </trkpt>
      <trkpt lat="45.85462" lon="3.54712">
        <ele>401.4</ele>
        <time>2026-05-10T08:31:13.000Z</time>
      </trkpt>
      <trkpt lat="45.85461" lon="3.5471">
        <ele>401.2</ele>
        <time>2026-05-10T08:31:14.000Z</time>
      </trkpt>
      <trkpt lat="45.85461" lon="3.54708">
        <ele>401</ele>
        <time>2026-05-10T08:31:15.000Z</time>
      </trkpt>
      <trkpt lat="45.8546" lon="3.54707">
        <ele>400.8</ele>
        <time>2026-05-10T08:31:16.000Z</time>
      </trkpt>
      <trkpt lat="45.8546" lon="3.54706">
        <ele>400.7</ele>
        <time>2026-05-10T08:31:17.000Z</time>
      </trkpt>
      <trkpt lat="45.85459" lon="3.54705">
        <ele>400.6</ele>
        <time>2026-05-10T08:31:18.000Z</time>
      </trkpt>
      <trkpt lat="45.85459" lon="3.54704">
        <ele>400.4</ele>
        <time>2026-05-10T08:31:19.000Z</time>
      </trkpt>
      <trkpt lat="45.85458" lon="3.54702">
        <ele>400.2</ele>
        <time>2026-05-10T08:31:20.000Z</time>
      </trkpt>
      <trkpt lat="45.85457" lon="3.54702">
        <ele>400</ele>
        <time>2026-05-10T08:31:21.000Z</time>
      </trkpt>
      <trkpt lat="45.85456" lon="3.54702">
        <ele>399.8</ele>
        <time>2026-05-10T08:31:22.000Z</time>
      </trkpt>
      <trkpt lat="45.85455" lon="3.54703">
        <ele>399.7</ele>
        <time>2026-05-10T08:31:23.000Z</time>
      </trkpt>
      <trkpt lat="45.85454" lon="3.54702">
        <ele>399.5</ele>
        <time>2026-05-10T08:31:24.000Z</time>
      </trkpt>
      <trkpt lat="45.85453" lon="3.54702">
        <ele>399.4</ele>
        <time>2026-05-10T08:31:25.000Z</time>
      </trkpt>
      <trkpt lat="45.85453" lon="3.54701">
        <ele>399.3</ele>
        <time>2026-05-10T08:31:26.000Z</time>
      </trkpt>
      <trkpt lat="45.85453" lon="3.54701">
        <ele>399.2</ele>
        <time>2026-05-10T08:31:27.000Z</time>
      </trkpt>
      <trkpt lat="45.85452" lon="3.54701">
        <ele>399.1</ele>
        <time>2026-05-10T08:31:28.000Z</time>
      </trkpt>
      <trkpt lat="45.85452" lon="3.547">
        <ele>399.1</ele>
        <time>2026-05-10T08:31:29.000Z</time>
      </trkpt>
      <trkpt lat="45.85452" lon="3.547">
        <ele>399</ele>
        <time>2026-05-10T08:31:30.000Z</time>
      </trkpt>
      <trkpt lat="45.85452" lon="3.547">
        <ele>398.9</ele>
        <time>2026-05-10T08:31:31.000Z</time>
      </trkpt>
      <trkpt lat="45.85451" lon="3.547">
        <ele>398.8</ele>
        <time>2026-05-10T08:31:32.000Z</time>
      </trkpt>
      <trkpt lat="45.8545" lon="3.547">
        <ele>398.6</ele>
        <time>2026-05-10T08:31:33.000Z</time>
      </trkpt>
      <trkpt lat="45.85449" lon="3.547">
        <ele>398.5</ele>
        <time>2026-05-10T08:31:34.000Z</time>
      </trkpt>
      <trkpt lat="45.85448" lon="3.547">
        <ele>398.3</ele>
        <time>2026-05-10T08:31:35.000Z</time>
      </trkpt>
      <trkpt lat="45.85447" lon="3.54699">
        <ele>398.1</ele>
        <time>2026-05-10T08:31:36.000Z</time>
      </trkpt>
      <trkpt lat="45.85446" lon="3.547">
        <ele>398</ele>
        <time>2026-05-10T08:31:37.000Z</time>
      </trkpt>
      <trkpt lat="45.85445" lon="3.54702">
        <ele>398.1</ele>
        <time>2026-05-10T08:31:38.000Z</time>
      </trkpt>
      <trkpt lat="45.85442" lon="3.54702">
        <ele>397.7</ele>
        <time>2026-05-10T08:31:39.000Z</time>
      </trkpt>
      <trkpt lat="45.85441" lon="3.54703">
        <ele>397.5</ele>
        <time>2026-05-10T08:31:40.000Z</time>
      </trkpt>
      <trkpt lat="45.8544" lon="3.54704">
        <ele>397.5</ele>
        <time>2026-05-10T08:31:41.000Z</time>
      </trkpt>
      <trkpt lat="45.8544" lon="3.54704">
        <ele>397.6</ele>
        <time>2026-05-10T08:31:42.000Z</time>
      </trkpt>
      <trkpt lat="45.85439" lon="3.54705">
        <ele>397.6</ele>
        <time>2026-05-10T08:31:43.000Z</time>
      </trkpt>
      <trkpt lat="45.85438" lon="3.54706">
        <ele>397.5</ele>
        <time>2026-05-10T08:31:44.000Z</time>
      </trkpt>
      <trkpt lat="45.85437" lon="3.54708">
        <ele>397.5</ele>
        <time>2026-05-10T08:31:45.000Z</time>
      </trkpt>
      <trkpt lat="45.85436" lon="3.54709">
        <ele>397.6</ele>
        <time>2026-05-10T08:31:46.000Z</time>
      </trkpt>
      <trkpt lat="45.85435" lon="3.5471">
        <ele>397.6</ele>
        <time>2026-05-10T08:31:47.000Z</time>
      </trkpt>
      <trkpt lat="45.85434" lon="3.54713">
        <ele>397.7</ele>
        <time>2026-05-10T08:31:48.000Z</time>
      </trkpt>
      <trkpt lat="45.85433" lon="3.54714">
        <ele>397.7</ele>
        <time>2026-05-10T08:31:49.000Z</time>
      </trkpt>
      <trkpt lat="45.85432" lon="3.54715">
        <ele>397.8</ele>
        <time>2026-05-10T08:31:50.000Z</time>
      </trkpt>
      <trkpt lat="45.85432" lon="3.54716">
        <ele>397.7</ele>
        <time>2026-05-10T08:31:51.000Z</time>
      </trkpt>
      <trkpt lat="45.85431" lon="3.54716">
        <ele>397.7</ele>
        <time>2026-05-10T08:31:52.000Z</time>
      </trkpt>
      <trkpt lat="45.85432" lon="3.54719">
        <ele>398.2</ele>
        <time>2026-05-10T08:31:53.000Z</time>
      </trkpt>
      <trkpt lat="45.85431" lon="3.54721">
        <ele>398.4</ele>
        <time>2026-05-10T08:31:54.000Z</time>
      </trkpt>
      <trkpt lat="45.85431" lon="3.54723">
        <ele>398.6</ele>
        <time>2026-05-10T08:31:55.000Z</time>
      </trkpt>
      <trkpt lat="45.85432" lon="3.54724">
        <ele>398.9</ele>
        <time>2026-05-10T08:31:56.000Z</time>
      </trkpt>
      <trkpt lat="45.85431" lon="3.54725">
        <ele>398.9</ele>
        <time>2026-05-10T08:31:57.000Z</time>
      </trkpt>
      <trkpt lat="45.85431" lon="3.54725">
        <ele>398.9</ele>
        <time>2026-05-10T08:31:58.000Z</time>
      </trkpt>
      <trkpt lat="45.85431" lon="3.54726">
        <ele>399</ele>
        <time>2026-05-10T08:31:59.000Z</time>
      </trkpt>
      <trkpt lat="45.85431" lon="3.54727">
        <ele>399.1</ele>
        <time>2026-05-10T08:32:00.000Z</time>
      </trkpt>
      <trkpt lat="45.8543" lon="3.54729">
        <ele>399.1</ele>
        <time>2026-05-10T08:32:01.000Z</time>
      </trkpt>
      <trkpt lat="45.85429" lon="3.54729">
        <ele>399.1</ele>
        <time>2026-05-10T08:32:02.000Z</time>
      </trkpt>
      <trkpt lat="45.85429" lon="3.54731">
        <ele>399.2</ele>
        <time>2026-05-10T08:32:03.000Z</time>
      </trkpt>
      <trkpt lat="45.85428" lon="3.54733">
        <ele>399.3</ele>
        <time>2026-05-10T08:32:04.000Z</time>
      </trkpt>
      <trkpt lat="45.85428" lon="3.54733">
        <ele>399.3</ele>
        <time>2026-05-10T08:32:05.000Z</time>
      </trkpt>
      <trkpt lat="45.85428" lon="3.54734">
        <ele>399.3</ele>
        <time>2026-05-10T08:32:06.000Z</time>
      </trkpt>
      <trkpt lat="45.85427" lon="3.54736">
        <ele>399.4</ele>
        <time>2026-05-10T08:32:07.000Z</time>
      </trkpt>
      <trkpt lat="45.85427" lon="3.54737">
        <ele>399.6</ele>
        <time>2026-05-10T08:32:08.000Z</time>
      </trkpt>
      <trkpt lat="45.85426" lon="3.54738">
        <ele>399.6</ele>
        <time>2026-05-10T08:32:09.000Z</time>
      </trkpt>
      <trkpt lat="45.85426" lon="3.54739">
        <ele>399.7</ele>
        <time>2026-05-10T08:32:10.000Z</time>
      </trkpt>
      <trkpt lat="45.85426" lon="3.54741">
        <ele>399.8</ele>
        <time>2026-05-10T08:32:11.000Z</time>
      </trkpt>
      <trkpt lat="45.85425" lon="3.54743">
        <ele>400</ele>
        <time>2026-05-10T08:32:12.000Z</time>
      </trkpt>
      <trkpt lat="45.85425" lon="3.54744">
        <ele>400.2</ele>
        <time>2026-05-10T08:32:13.000Z</time>
      </trkpt>
      <trkpt lat="45.85425" lon="3.54746">
        <ele>400.3</ele>
        <time>2026-05-10T08:32:14.000Z</time>
      </trkpt>
      <trkpt lat="45.85426" lon="3.54747">
        <ele>400.6</ele>
        <time>2026-05-10T08:32:15.000Z</time>
      </trkpt>
      <trkpt lat="45.85426" lon="3.54749">
        <ele>400.8</ele>
        <time>2026-05-10T08:32:16.000Z</time>
      </trkpt>
      <trkpt lat="45.85426" lon="3.5475">
        <ele>401</ele>
        <time>2026-05-10T08:32:17.000Z</time>
      </trkpt>
      <trkpt lat="45.85426" lon="3.54751">
        <ele>401</ele>
        <time>2026-05-10T08:32:18.000Z</time>
      </trkpt>
      <trkpt lat="45.85425" lon="3.54751">
        <ele>401</ele>
        <time>2026-05-10T08:32:19.000Z</time>
      </trkpt>
      <trkpt lat="45.85425" lon="3.54752">
        <ele>400.9</ele>
        <time>2026-05-10T08:32:20.000Z</time>
      </trkpt>
      <trkpt lat="45.85425" lon="3.54754">
        <ele>401</ele>
        <time>2026-05-10T08:32:21.000Z</time>
      </trkpt>
      <trkpt lat="45.85424" lon="3.54755">
        <ele>400.9</ele>
        <time>2026-05-10T08:32:22.000Z</time>
      </trkpt>
      <trkpt lat="45.85424" lon="3.54756">
        <ele>400.8</ele>
        <time>2026-05-10T08:32:23.000Z</time>
      </trkpt>
      <trkpt lat="45.85423" lon="3.54757">
        <ele>400.8</ele>
        <time>2026-05-10T08:32:24.000Z</time>
      </trkpt>
      <trkpt lat="45.85423" lon="3.5476">
        <ele>400.8</ele>
        <time>2026-05-10T08:32:25.000Z</time>
      </trkpt>
      <trkpt lat="45.85422" lon="3.54762">
        <ele>400.7</ele>
        <time>2026-05-10T08:32:26.000Z</time>
      </trkpt>
      <trkpt lat="45.85421" lon="3.54764">
        <ele>400.6</ele>
        <time>2026-05-10T08:32:27.000Z</time>
      </trkpt>
      <trkpt lat="45.85421" lon="3.54765">
        <ele>400.6</ele>
        <time>2026-05-10T08:32:28.000Z</time>
      </trkpt>
      <trkpt lat="45.85421" lon="3.54766">
        <ele>400.6</ele>
        <time>2026-05-10T08:32:29.000Z</time>
      </trkpt>
      <trkpt lat="45.85421" lon="3.54767">
        <ele>400.6</ele>
        <time>2026-05-10T08:32:30.000Z</time>
      </trkpt>
      <trkpt lat="45.8542" lon="3.54767">
        <ele>400.5</ele>
        <time>2026-05-10T08:32:31.000Z</time>
      </trkpt>
      <trkpt lat="45.85418" lon="3.54765">
        <ele>400.2</ele>
        <time>2026-05-10T08:32:32.000Z</time>
      </trkpt>
      <trkpt lat="45.85418" lon="3.54765">
        <ele>400.1</ele>
        <time>2026-05-10T08:32:33.000Z</time>
      </trkpt>
      <trkpt lat="45.85417" lon="3.54767">
        <ele>400.1</ele>
        <time>2026-05-10T08:32:34.000Z</time>
      </trkpt>
      <trkpt lat="45.85417" lon="3.54768">
        <ele>400</ele>
        <time>2026-05-10T08:32:35.000Z</time>
      </trkpt>
      <trkpt lat="45.85417" lon="3.54769">
        <ele>400.1</ele>
        <time>2026-05-10T08:32:36.000Z</time>
      </trkpt>
      <trkpt lat="45.85417" lon="3.5477">
        <ele>400.1</ele>
        <time>2026-05-10T08:32:37.000Z</time>
      </trkpt>
      <trkpt lat="45.85418" lon="3.54771">
        <ele>400.3</ele>
        <time>2026-05-10T08:32:38.000Z</time>
      </trkpt>
      <trkpt lat="45.85419" lon="3.54773">
        <ele>400.4</ele>
        <time>2026-05-10T08:32:39.000Z</time>
      </trkpt>
      <trkpt lat="45.8542" lon="3.54774">
        <ele>400.5</ele>
        <time>2026-05-10T08:32:40.000Z</time>
      </trkpt>
      <trkpt lat="45.8542" lon="3.54775">
        <ele>400.6</ele>
        <time>2026-05-10T08:32:41.000Z</time>
      </trkpt>
      <trkpt lat="45.85421" lon="3.54775">
        <ele>400.8</ele>
        <time>2026-05-10T08:32:42.000Z</time>
      </trkpt>
      <trkpt lat="45.85422" lon="3.54776">
        <ele>400.9</ele>
        <time>2026-05-10T08:32:43.000Z</time>
      </trkpt>
      <trkpt lat="45.85422" lon="3.54777">
        <ele>401</ele>
        <time>2026-05-10T08:32:44.000Z</time>
      </trkpt>
      <trkpt lat="45.85423" lon="3.54777">
        <ele>401.1</ele>
        <time>2026-05-10T08:32:45.000Z</time>
      </trkpt>
      <trkpt lat="45.85424" lon="3.54777">
        <ele>401.3</ele>
        <time>2026-05-10T08:32:46.000Z</time>
      </trkpt>
      <trkpt lat="45.85425" lon="3.54778">
        <ele>401.6</ele>
        <time>2026-05-10T08:32:47.000Z</time>
      </trkpt>
      <trkpt lat="45.85426" lon="3.54778">
        <ele>401.7</ele>
        <time>2026-05-10T08:32:48.000Z</time>
      </trkpt>
      <trkpt lat="45.85427" lon="3.54778">
        <ele>401.9</ele>
        <time>2026-05-10T08:32:49.000Z</time>
      </trkpt>
      <trkpt lat="45.85428" lon="3.54779">
        <ele>402</ele>
        <time>2026-05-10T08:32:50.000Z</time>
      </trkpt>
      <trkpt lat="45.85429" lon="3.54778">
        <ele>402.2</ele>
        <time>2026-05-10T08:32:51.000Z</time>
      </trkpt>
      <trkpt lat="45.8543" lon="3.54778">
        <ele>402.4</ele>
        <time>2026-05-10T08:32:52.000Z</time>
      </trkpt>
      <trkpt lat="45.85431" lon="3.54778">
        <ele>402.6</ele>
        <time>2026-05-10T08:32:53.000Z</time>
      </trkpt>
      <trkpt lat="45.85432" lon="3.54777">
        <ele>402.7</ele>
        <time>2026-05-10T08:32:54.000Z</time>
      </trkpt>
      <trkpt lat="45.85432" lon="3.54777">
        <ele>402.8</ele>
        <time>2026-05-10T08:32:55.000Z</time>
      </trkpt>
      <trkpt lat="45.85433" lon="3.54777">
        <ele>402.9</ele>
        <time>2026-05-10T08:32:56.000Z</time>
      </trkpt>
      <trkpt lat="45.85435" lon="3.54776">
        <ele>403.2</ele>
        <time>2026-05-10T08:32:57.000Z</time>
      </trkpt>
      <trkpt lat="45.85436" lon="3.54777">
        <ele>403.4</ele>
        <time>2026-05-10T08:32:58.000Z</time>
      </trkpt>
      <trkpt lat="45.85436" lon="3.54777">
        <ele>403.5</ele>
        <time>2026-05-10T08:32:59.000Z</time>
      </trkpt>
      <trkpt lat="45.85438" lon="3.54777">
        <ele>403.7</ele>
        <time>2026-05-10T08:33:00.000Z</time>
      </trkpt>
      <trkpt lat="45.85439" lon="3.54777">
        <ele>403.9</ele>
        <time>2026-05-10T08:33:01.000Z</time>
      </trkpt>
      <trkpt lat="45.8544" lon="3.54777">
        <ele>404.2</ele>
        <time>2026-05-10T08:33:02.000Z</time>
      </trkpt>
      <trkpt lat="45.85441" lon="3.54777">
        <ele>404.4</ele>
        <time>2026-05-10T08:33:03.000Z</time>
      </trkpt>
      <trkpt lat="45.85442" lon="3.54777">
        <ele>404.5</ele>
        <time>2026-05-10T08:33:04.000Z</time>
      </trkpt>
      <trkpt lat="45.85443" lon="3.54777">
        <ele>404.7</ele>
        <time>2026-05-10T08:33:05.000Z</time>
      </trkpt>
      <trkpt lat="45.85445" lon="3.54777">
        <ele>405</ele>
        <time>2026-05-10T08:33:06.000Z</time>
      </trkpt>
      <trkpt lat="45.85446" lon="3.54777">
        <ele>405.1</ele>
        <time>2026-05-10T08:33:07.000Z</time>
      </trkpt>
      <trkpt lat="45.85447" lon="3.54777">
        <ele>405.2</ele>
        <time>2026-05-10T08:33:08.000Z</time>
      </trkpt>
      <trkpt lat="45.85449" lon="3.54777">
        <ele>405.4</ele>
        <time>2026-05-10T08:33:09.000Z</time>
      </trkpt>
      <trkpt lat="45.85449" lon="3.54777">
        <ele>405.5</ele>
        <time>2026-05-10T08:33:10.000Z</time>
      </trkpt>
      <trkpt lat="45.85451" lon="3.54777">
        <ele>405.6</ele>
        <time>2026-05-10T08:33:11.000Z</time>
      </trkpt>
      <trkpt lat="45.85451" lon="3.54776">
        <ele>405.6</ele>
        <time>2026-05-10T08:33:12.000Z</time>
      </trkpt>
      <trkpt lat="45.85452" lon="3.54776">
        <ele>405.7</ele>
        <time>2026-05-10T08:33:13.000Z</time>
      </trkpt>
      <trkpt lat="45.85453" lon="3.54775">
        <ele>405.8</ele>
        <time>2026-05-10T08:33:14.000Z</time>
      </trkpt>
      <trkpt lat="45.85454" lon="3.54775">
        <ele>405.9</ele>
        <time>2026-05-10T08:33:15.000Z</time>
      </trkpt>
      <trkpt lat="45.85455" lon="3.54775">
        <ele>405.9</ele>
        <time>2026-05-10T08:33:16.000Z</time>
      </trkpt>
      <trkpt lat="45.85456" lon="3.54775">
        <ele>406.1</ele>
        <time>2026-05-10T08:33:17.000Z</time>
      </trkpt>
      <trkpt lat="45.85458" lon="3.54774">
        <ele>406.3</ele>
        <time>2026-05-10T08:33:18.000Z</time>
      </trkpt>
      <trkpt lat="45.85459" lon="3.54774">
        <ele>406.5</ele>
        <time>2026-05-10T08:33:19.000Z</time>
      </trkpt>
      <trkpt lat="45.8546" lon="3.54775">
        <ele>406.6</ele>
        <time>2026-05-10T08:33:20.000Z</time>
      </trkpt>
      <trkpt lat="45.85461" lon="3.54775">
        <ele>406.6</ele>
        <time>2026-05-10T08:33:21.000Z</time>
      </trkpt>
      <trkpt lat="45.85461" lon="3.54774">
        <ele>406.6</ele>
        <time>2026-05-10T08:33:22.000Z</time>
      </trkpt>
      <trkpt lat="45.85462" lon="3.54774">
        <ele>406.8</ele>
        <time>2026-05-10T08:33:23.000Z</time>
      </trkpt>
      <trkpt lat="45.85463" lon="3.54774">
        <ele>406.9</ele>
        <time>2026-05-10T08:33:24.000Z</time>
      </trkpt>
      <trkpt lat="45.85464" lon="3.54774">
        <ele>407</ele>
        <time>2026-05-10T08:33:25.000Z</time>
      </trkpt>
      <trkpt lat="45.85465" lon="3.54774">
        <ele>407.2</ele>
        <time>2026-05-10T08:33:26.000Z</time>
      </trkpt>
      <trkpt lat="45.85467" lon="3.54774">
        <ele>407.4</ele>
        <time>2026-05-10T08:33:27.000Z</time>
      </trkpt>
      <trkpt lat="45.85468" lon="3.54774">
        <ele>407.5</ele>
        <time>2026-05-10T08:33:28.000Z</time>
      </trkpt>
      <trkpt lat="45.85469" lon="3.54775">
        <ele>407.7</ele>
        <time>2026-05-10T08:33:29.000Z</time>
      </trkpt>
      <trkpt lat="45.85471" lon="3.54775">
        <ele>407.8</ele>
        <time>2026-05-10T08:33:30.000Z</time>
      </trkpt>
      <trkpt lat="45.85472" lon="3.54775">
        <ele>407.9</ele>
        <time>2026-05-10T08:33:31.000Z</time>
      </trkpt>
      <trkpt lat="45.85473" lon="3.54775">
        <ele>408</ele>
        <time>2026-05-10T08:33:32.000Z</time>
      </trkpt>
      <trkpt lat="45.85473" lon="3.54777">
        <ele>408</ele>
        <time>2026-05-10T08:33:33.000Z</time>
      </trkpt>
      <trkpt lat="45.85473" lon="3.54777">
        <ele>408.1</ele>
        <time>2026-05-10T08:33:34.000Z</time>
      </trkpt>
      <trkpt lat="45.85474" lon="3.54777">
        <ele>408.1</ele>
        <time>2026-05-10T08:33:35.000Z</time>
      </trkpt>
      <trkpt lat="45.85476" lon="3.54777">
        <ele>408.3</ele>
        <time>2026-05-10T08:33:36.000Z</time>
      </trkpt>
      <trkpt lat="45.85477" lon="3.54776">
        <ele>408.4</ele>
        <time>2026-05-10T08:33:37.000Z</time>
      </trkpt>
      <trkpt lat="45.85479" lon="3.54777">
        <ele>408.5</ele>
        <time>2026-05-10T08:33:38.000Z</time>
      </trkpt>
      <trkpt lat="45.8548" lon="3.54776">
        <ele>408.5</ele>
        <time>2026-05-10T08:33:39.000Z</time>
      </trkpt>
      <trkpt lat="45.85481" lon="3.54776">
        <ele>408.6</ele>
        <time>2026-05-10T08:33:40.000Z</time>
      </trkpt>
      <trkpt lat="45.85482" lon="3.54776">
        <ele>408.7</ele>
        <time>2026-05-10T08:33:41.000Z</time>
      </trkpt>
      <trkpt lat="45.85483" lon="3.54776">
        <ele>408.8</ele>
        <time>2026-05-10T08:33:42.000Z</time>
      </trkpt>
      <trkpt lat="45.85484" lon="3.54775">
        <ele>408.8</ele>
        <time>2026-05-10T08:33:43.000Z</time>
      </trkpt>
      <trkpt lat="45.85486" lon="3.54775">
        <ele>408.9</ele>
        <time>2026-05-10T08:33:44.000Z</time>
      </trkpt>
      <trkpt lat="45.85487" lon="3.54774">
        <ele>409</ele>
        <time>2026-05-10T08:33:45.000Z</time>
      </trkpt>
      <trkpt lat="45.85488" lon="3.54774">
        <ele>409.1</ele>
        <time>2026-05-10T08:33:46.000Z</time>
      </trkpt>
      <trkpt lat="45.85489" lon="3.54774">
        <ele>409.1</ele>
        <time>2026-05-10T08:33:47.000Z</time>
      </trkpt>
      <trkpt lat="45.8549" lon="3.54773">
        <ele>409.2</ele>
        <time>2026-05-10T08:33:48.000Z</time>
      </trkpt>
      <trkpt lat="45.85491" lon="3.54773">
        <ele>409.2</ele>
        <time>2026-05-10T08:33:49.000Z</time>
      </trkpt>
      <trkpt lat="45.85492" lon="3.54772">
        <ele>409.3</ele>
        <time>2026-05-10T08:33:50.000Z</time>
      </trkpt>
      <trkpt lat="45.85493" lon="3.54772">
        <ele>409.3</ele>
        <time>2026-05-10T08:33:51.000Z</time>
      </trkpt>
      <trkpt lat="45.85494" lon="3.54771">
        <ele>409.4</ele>
        <time>2026-05-10T08:33:52.000Z</time>
      </trkpt>
      <trkpt lat="45.85495" lon="3.5477">
        <ele>409.4</ele>
        <time>2026-05-10T08:33:53.000Z</time>
      </trkpt>
      <trkpt lat="45.85496" lon="3.54769">
        <ele>409.5</ele>
        <time>2026-05-10T08:33:54.000Z</time>
      </trkpt>
      <trkpt lat="45.85497" lon="3.54769">
        <ele>409.5</ele>
        <time>2026-05-10T08:33:55.000Z</time>
      </trkpt>
      <trkpt lat="45.85498" lon="3.54769">
        <ele>409.6</ele>
        <time>2026-05-10T08:33:56.000Z</time>
      </trkpt>
      <trkpt lat="45.85499" lon="3.54769">
        <ele>409.6</ele>
        <time>2026-05-10T08:33:57.000Z</time>
      </trkpt>
      <trkpt lat="45.855" lon="3.54769">
        <ele>409.7</ele>
        <time>2026-05-10T08:33:58.000Z</time>
      </trkpt>
      <trkpt lat="45.85501" lon="3.54769">
        <ele>409.7</ele>
        <time>2026-05-10T08:33:59.000Z</time>
      </trkpt>
      <trkpt lat="45.85502" lon="3.54769">
        <ele>409.8</ele>
        <time>2026-05-10T08:34:00.000Z</time>
      </trkpt>
      <trkpt lat="45.85503" lon="3.54769">
        <ele>409.9</ele>
        <time>2026-05-10T08:34:01.000Z</time>
      </trkpt>
      <trkpt lat="45.85504" lon="3.5477">
        <ele>410</ele>
        <time>2026-05-10T08:34:02.000Z</time>
      </trkpt>
      <trkpt lat="45.85505" lon="3.5477">
        <ele>410.1</ele>
        <time>2026-05-10T08:34:03.000Z</time>
      </trkpt>
      <trkpt lat="45.85505" lon="3.54771">
        <ele>410.1</ele>
        <time>2026-05-10T08:34:04.000Z</time>
      </trkpt>
      <trkpt lat="45.85507" lon="3.54771">
        <ele>410.2</ele>
        <time>2026-05-10T08:34:05.000Z</time>
      </trkpt>
      <trkpt lat="45.85509" lon="3.54773">
        <ele>410.5</ele>
        <time>2026-05-10T08:34:06.000Z</time>
      </trkpt>
      <trkpt lat="45.8551" lon="3.54775">
        <ele>410.7</ele>
        <time>2026-05-10T08:34:07.000Z</time>
      </trkpt>
      <trkpt lat="45.85512" lon="3.54777">
        <ele>410.8</ele>
        <time>2026-05-10T08:34:08.000Z</time>
      </trkpt>
      <trkpt lat="45.85512" lon="3.54779">
        <ele>410.9</ele>
        <time>2026-05-10T08:34:09.000Z</time>
      </trkpt>
      <trkpt lat="45.85513" lon="3.5478">
        <ele>411</ele>
        <time>2026-05-10T08:34:10.000Z</time>
      </trkpt>
      <trkpt lat="45.85514" lon="3.54781">
        <ele>411</ele>
        <time>2026-05-10T08:34:11.000Z</time>
      </trkpt>
      <trkpt lat="45.85515" lon="3.54783">
        <ele>411.1</ele>
        <time>2026-05-10T08:34:12.000Z</time>
      </trkpt>
      <trkpt lat="45.85515" lon="3.54785">
        <ele>411.1</ele>
        <time>2026-05-10T08:34:13.000Z</time>
      </trkpt>
      <trkpt lat="45.85515" lon="3.54787">
        <ele>411.1</ele>
        <time>2026-05-10T08:34:14.000Z</time>
      </trkpt>
      <trkpt lat="45.85516" lon="3.54788">
        <ele>411.1</ele>
        <time>2026-05-10T08:34:15.000Z</time>
      </trkpt>
      <trkpt lat="45.85516" lon="3.5479">
        <ele>411.1</ele>
        <time>2026-05-10T08:34:16.000Z</time>
      </trkpt>
      <trkpt lat="45.85516" lon="3.54791">
        <ele>411.2</ele>
        <time>2026-05-10T08:34:17.000Z</time>
      </trkpt>
      <trkpt lat="45.85516" lon="3.54793">
        <ele>411.1</ele>
        <time>2026-05-10T08:34:18.000Z</time>
      </trkpt>
      <trkpt lat="45.85516" lon="3.54795">
        <ele>411.1</ele>
        <time>2026-05-10T08:34:19.000Z</time>
      </trkpt>
      <trkpt lat="45.85516" lon="3.54796">
        <ele>411.1</ele>
        <time>2026-05-10T08:34:20.000Z</time>
      </trkpt>
      <trkpt lat="45.85516" lon="3.54797">
        <ele>411.1</ele>
        <time>2026-05-10T08:34:21.000Z</time>
      </trkpt>
      <trkpt lat="45.85516" lon="3.54798">
        <ele>411.1</ele>
        <time>2026-05-10T08:34:22.000Z</time>
      </trkpt>
      <trkpt lat="45.85516" lon="3.548">
        <ele>411.1</ele>
        <time>2026-05-10T08:34:23.000Z</time>
      </trkpt>
      <trkpt lat="45.85516" lon="3.54801">
        <ele>411.1</ele>
        <time>2026-05-10T08:34:24.000Z</time>
      </trkpt>
      <trkpt lat="45.85516" lon="3.54802">
        <ele>411.1</ele>
        <time>2026-05-10T08:34:25.000Z</time>
      </trkpt>
      <trkpt lat="45.85515" lon="3.54805">
        <ele>411.1</ele>
        <time>2026-05-10T08:34:26.000Z</time>
      </trkpt>
      <trkpt lat="45.85515" lon="3.54807">
        <ele>411</ele>
        <time>2026-05-10T08:34:27.000Z</time>
      </trkpt>
      <trkpt lat="45.85514" lon="3.54807">
        <ele>410.9</ele>
        <time>2026-05-10T08:34:28.000Z</time>
      </trkpt>
      <trkpt lat="45.85513" lon="3.5481">
        <ele>410.7</ele>
        <time>2026-05-10T08:34:29.000Z</time>
      </trkpt>
      <trkpt lat="45.85512" lon="3.54811">
        <ele>410.6</ele>
        <time>2026-05-10T08:34:30.000Z</time>
      </trkpt>
      <trkpt lat="45.85512" lon="3.54814">
        <ele>410.4</ele>
        <time>2026-05-10T08:34:31.000Z</time>
      </trkpt>
      <trkpt lat="45.85511" lon="3.54816">
        <ele>410.2</ele>
        <time>2026-05-10T08:34:32.000Z</time>
      </trkpt>
      <trkpt lat="45.85511" lon="3.54816">
        <ele>410.2</ele>
        <time>2026-05-10T08:34:33.000Z</time>
      </trkpt>
      <trkpt lat="45.8551" lon="3.54818">
        <ele>410</ele>
        <time>2026-05-10T08:34:34.000Z</time>
      </trkpt>
      <trkpt lat="45.85509" lon="3.54818">
        <ele>409.9</ele>
        <time>2026-05-10T08:34:35.000Z</time>
      </trkpt>
      <trkpt lat="45.85508" lon="3.5482">
        <ele>409.7</ele>
        <time>2026-05-10T08:34:36.000Z</time>
      </trkpt>
      <trkpt lat="45.85507" lon="3.54821">
        <ele>409.5</ele>
        <time>2026-05-10T08:34:37.000Z</time>
      </trkpt>
      <trkpt lat="45.85506" lon="3.54823">
        <ele>409.3</ele>
        <time>2026-05-10T08:34:38.000Z</time>
      </trkpt>
      <trkpt lat="45.85505" lon="3.54824">
        <ele>409.1</ele>
        <time>2026-05-10T08:34:39.000Z</time>
      </trkpt>
      <trkpt lat="45.85504" lon="3.54826">
        <ele>408.9</ele>
        <time>2026-05-10T08:34:40.000Z</time>
      </trkpt>
      <trkpt lat="45.85503" lon="3.54828">
        <ele>408.7</ele>
        <time>2026-05-10T08:34:41.000Z</time>
      </trkpt>
      <trkpt lat="45.85502" lon="3.54828">
        <ele>408.5</ele>
        <time>2026-05-10T08:34:42.000Z</time>
      </trkpt>
      <trkpt lat="45.85501" lon="3.54828">
        <ele>408.4</ele>
        <time>2026-05-10T08:34:43.000Z</time>
      </trkpt>
      <trkpt lat="45.85499" lon="3.54828">
        <ele>408.3</ele>
        <time>2026-05-10T08:34:44.000Z</time>
      </trkpt>
      <trkpt lat="45.85498" lon="3.54829">
        <ele>408.2</ele>
        <time>2026-05-10T08:34:45.000Z</time>
      </trkpt>
      <trkpt lat="45.85497" lon="3.54829">
        <ele>408.1</ele>
        <time>2026-05-10T08:34:46.000Z</time>
      </trkpt>
      <trkpt lat="45.85495" lon="3.5483">
        <ele>407.9</ele>
        <time>2026-05-10T08:34:47.000Z</time>
      </trkpt>
      <trkpt lat="45.85494" lon="3.54831">
        <ele>407.7</ele>
        <time>2026-05-10T08:34:48.000Z</time>
      </trkpt>
      <trkpt lat="45.85493" lon="3.54832">
        <ele>407.6</ele>
        <time>2026-05-10T08:34:49.000Z</time>
      </trkpt>
      <trkpt lat="45.85492" lon="3.54833">
        <ele>407.5</ele>
        <time>2026-05-10T08:34:50.000Z</time>
      </trkpt>
      <trkpt lat="45.85491" lon="3.54834">
        <ele>407.3</ele>
        <time>2026-05-10T08:34:51.000Z</time>
      </trkpt>
      <trkpt lat="45.8549" lon="3.54835">
        <ele>407.1</ele>
        <time>2026-05-10T08:34:52.000Z</time>
      </trkpt>
      <trkpt lat="45.85489" lon="3.54836">
        <ele>406.9</ele>
        <time>2026-05-10T08:34:53.000Z</time>
      </trkpt>
      <trkpt lat="45.85488" lon="3.54837">
        <ele>406.8</ele>
        <time>2026-05-10T08:34:54.000Z</time>
      </trkpt>
      <trkpt lat="45.85487" lon="3.54838">
        <ele>406.6</ele>
        <time>2026-05-10T08:34:55.000Z</time>
      </trkpt>
      <trkpt lat="45.85486" lon="3.54839">
        <ele>406.4</ele>
        <time>2026-05-10T08:34:56.000Z</time>
      </trkpt>
      <trkpt lat="45.85485" lon="3.5484">
        <ele>406.2</ele>
        <time>2026-05-10T08:34:57.000Z</time>
      </trkpt>
      <trkpt lat="45.85484" lon="3.54841">
        <ele>405.9</ele>
        <time>2026-05-10T08:34:58.000Z</time>
      </trkpt>
      <trkpt lat="45.85483" lon="3.54842">
        <ele>405.7</ele>
        <time>2026-05-10T08:34:59.000Z</time>
      </trkpt>
      <trkpt lat="45.85481" lon="3.54843">
        <ele>405.4</ele>
        <time>2026-05-10T08:35:00.000Z</time>
      </trkpt>
      <trkpt lat="45.8548" lon="3.54844">
        <ele>405</ele>
        <time>2026-05-10T08:35:01.000Z</time>
      </trkpt>
      <trkpt lat="45.85479" lon="3.54845">
        <ele>404.8</ele>
        <time>2026-05-10T08:35:02.000Z</time>
      </trkpt>
      <trkpt lat="45.85478" lon="3.54846">
        <ele>404.4</ele>
        <time>2026-05-10T08:35:03.000Z</time>
      </trkpt>
      <trkpt lat="45.85476" lon="3.54847">
        <ele>404</ele>
        <time>2026-05-10T08:35:04.000Z</time>
      </trkpt>
      <trkpt lat="45.85475" lon="3.54848">
        <ele>403.8</ele>
        <time>2026-05-10T08:35:05.000Z</time>
      </trkpt>
      <trkpt lat="45.85474" lon="3.54849">
        <ele>403.4</ele>
        <time>2026-05-10T08:35:06.000Z</time>
      </trkpt>
      <trkpt lat="45.85473" lon="3.54849">
        <ele>403.2</ele>
        <time>2026-05-10T08:35:07.000Z</time>
      </trkpt>
      <trkpt lat="45.85472" lon="3.5485">
        <ele>402.9</ele>
        <time>2026-05-10T08:35:08.000Z</time>
      </trkpt>
      <trkpt lat="45.85471" lon="3.5485">
        <ele>402.9</ele>
        <time>2026-05-10T08:35:09.000Z</time>
      </trkpt>
      <trkpt lat="45.8547" lon="3.54851">
        <ele>402.7</ele>
        <time>2026-05-10T08:35:10.000Z</time>
      </trkpt>
      <trkpt lat="45.85469" lon="3.54852">
        <ele>402.5</ele>
        <time>2026-05-10T08:35:11.000Z</time>
      </trkpt>
      <trkpt lat="45.85468" lon="3.54852">
        <ele>402.4</ele>
        <time>2026-05-10T08:35:12.000Z</time>
      </trkpt>
      <trkpt lat="45.85468" lon="3.54852">
        <ele>402.3</ele>
        <time>2026-05-10T08:35:13.000Z</time>
      </trkpt>
      <trkpt lat="45.85467" lon="3.54853">
        <ele>402.1</ele>
        <time>2026-05-10T08:35:14.000Z</time>
      </trkpt>
      <trkpt lat="45.85466" lon="3.54853">
        <ele>402</ele>
        <time>2026-05-10T08:35:15.000Z</time>
      </trkpt>
      <trkpt lat="45.85465" lon="3.54853">
        <ele>401.9</ele>
        <time>2026-05-10T08:35:16.000Z</time>
      </trkpt>
      <trkpt lat="45.85463" lon="3.54854">
        <ele>401.7</ele>
        <time>2026-05-10T08:35:17.000Z</time>
      </trkpt>
      <trkpt lat="45.85462" lon="3.54855">
        <ele>401.5</ele>
        <time>2026-05-10T08:35:18.000Z</time>
      </trkpt>
      <trkpt lat="45.85461" lon="3.54855">
        <ele>401.3</ele>
        <time>2026-05-10T08:35:19.000Z</time>
      </trkpt>
      <trkpt lat="45.85459" lon="3.54856">
        <ele>401.1</ele>
        <time>2026-05-10T08:35:20.000Z</time>
      </trkpt>
      <trkpt lat="45.85458" lon="3.54857">
        <ele>400.9</ele>
        <time>2026-05-10T08:35:21.000Z</time>
      </trkpt>
      <trkpt lat="45.85457" lon="3.54857">
        <ele>400.8</ele>
        <time>2026-05-10T08:35:22.000Z</time>
      </trkpt>
      <trkpt lat="45.85457" lon="3.54857">
        <ele>400.8</ele>
        <time>2026-05-10T08:35:23.000Z</time>
      </trkpt>
      <trkpt lat="45.85456" lon="3.54857">
        <ele>400.6</ele>
        <time>2026-05-10T08:35:24.000Z</time>
      </trkpt>
      <trkpt lat="45.85454" lon="3.54857">
        <ele>400.6</ele>
        <time>2026-05-10T08:35:25.000Z</time>
      </trkpt>
      <trkpt lat="45.85454" lon="3.54857">
        <ele>400.5</ele>
        <time>2026-05-10T08:35:26.000Z</time>
      </trkpt>
      <trkpt lat="45.85453" lon="3.54857">
        <ele>400.4</ele>
        <time>2026-05-10T08:35:27.000Z</time>
      </trkpt>
      <trkpt lat="45.85452" lon="3.54857">
        <ele>400.4</ele>
        <time>2026-05-10T08:35:28.000Z</time>
      </trkpt>
      <trkpt lat="45.85451" lon="3.54858">
        <ele>400.2</ele>
        <time>2026-05-10T08:35:29.000Z</time>
      </trkpt>
      <trkpt lat="45.8545" lon="3.54858">
        <ele>400.1</ele>
        <time>2026-05-10T08:35:30.000Z</time>
      </trkpt>
      <trkpt lat="45.85448" lon="3.54858">
        <ele>400</ele>
        <time>2026-05-10T08:35:31.000Z</time>
      </trkpt>
      <trkpt lat="45.85447" lon="3.54858">
        <ele>399.8</ele>
        <time>2026-05-10T08:35:32.000Z</time>
      </trkpt>
      <trkpt lat="45.85445" lon="3.54858">
        <ele>399.7</ele>
        <time>2026-05-10T08:35:33.000Z</time>
      </trkpt>
      <trkpt lat="45.85443" lon="3.54858">
        <ele>399.6</ele>
        <time>2026-05-10T08:35:34.000Z</time>
      </trkpt>
      <trkpt lat="45.85442" lon="3.54858">
        <ele>399.5</ele>
        <time>2026-05-10T08:35:35.000Z</time>
      </trkpt>
      <trkpt lat="45.8544" lon="3.54859">
        <ele>399.4</ele>
        <time>2026-05-10T08:35:36.000Z</time>
      </trkpt>
      <trkpt lat="45.8544" lon="3.54858">
        <ele>399.5</ele>
        <time>2026-05-10T08:35:37.000Z</time>
      </trkpt>
      <trkpt lat="45.85439" lon="3.54858">
        <ele>399.4</ele>
        <time>2026-05-10T08:35:38.000Z</time>
      </trkpt>
      <trkpt lat="45.85438" lon="3.54858">
        <ele>399.3</ele>
        <time>2026-05-10T08:35:39.000Z</time>
      </trkpt>
      <trkpt lat="45.85437" lon="3.54859">
        <ele>399.2</ele>
        <time>2026-05-10T08:35:40.000Z</time>
      </trkpt>
      <trkpt lat="45.85436" lon="3.54859">
        <ele>399.1</ele>
        <time>2026-05-10T08:35:41.000Z</time>
      </trkpt>
      <trkpt lat="45.85436" lon="3.5486">
        <ele>398.9</ele>
        <time>2026-05-10T08:35:42.000Z</time>
      </trkpt>
      <trkpt lat="45.85436" lon="3.54861">
        <ele>398.7</ele>
        <time>2026-05-10T08:35:43.000Z</time>
      </trkpt>
      <trkpt lat="45.85436" lon="3.54862">
        <ele>398.5</ele>
        <time>2026-05-10T08:35:44.000Z</time>
      </trkpt>
      <trkpt lat="45.85436" lon="3.54863">
        <ele>398.4</ele>
        <time>2026-05-10T08:35:45.000Z</time>
      </trkpt>
      <trkpt lat="45.85436" lon="3.54864">
        <ele>398.2</ele>
        <time>2026-05-10T08:35:46.000Z</time>
      </trkpt>
      <trkpt lat="45.85436" lon="3.54866">
        <ele>398</ele>
        <time>2026-05-10T08:35:47.000Z</time>
      </trkpt>
      <trkpt lat="45.85436" lon="3.54867">
        <ele>397.8</ele>
        <time>2026-05-10T08:35:48.000Z</time>
      </trkpt>
      <trkpt lat="45.85436" lon="3.54869">
        <ele>397.5</ele>
        <time>2026-05-10T08:35:49.000Z</time>
      </trkpt>
      <trkpt lat="45.85435" lon="3.5487">
        <ele>397.2</ele>
        <time>2026-05-10T08:35:50.000Z</time>
      </trkpt>
      <trkpt lat="45.85435" lon="3.54871">
        <ele>397.1</ele>
        <time>2026-05-10T08:35:51.000Z</time>
      </trkpt>
      <trkpt lat="45.85436" lon="3.54873">
        <ele>396.9</ele>
        <time>2026-05-10T08:35:52.000Z</time>
      </trkpt>
      <trkpt lat="45.85435" lon="3.54874">
        <ele>396.7</ele>
        <time>2026-05-10T08:35:53.000Z</time>
      </trkpt>
      <trkpt lat="45.85436" lon="3.54876">
        <ele>396.4</ele>
        <time>2026-05-10T08:35:54.000Z</time>
      </trkpt>
      <trkpt lat="45.85436" lon="3.54877">
        <ele>396.2</ele>
        <time>2026-05-10T08:35:55.000Z</time>
      </trkpt>
      <trkpt lat="45.85437" lon="3.54878">
        <ele>396</ele>
        <time>2026-05-10T08:35:56.000Z</time>
      </trkpt>
      <trkpt lat="45.85437" lon="3.5488">
        <ele>395.7</ele>
        <time>2026-05-10T08:35:57.000Z</time>
      </trkpt>
      <trkpt lat="45.85437" lon="3.54882">
        <ele>395.5</ele>
        <time>2026-05-10T08:35:58.000Z</time>
      </trkpt>
      <trkpt lat="45.85438" lon="3.54883">
        <ele>395.1</ele>
        <time>2026-05-10T08:35:59.000Z</time>
      </trkpt>
      <trkpt lat="45.85439" lon="3.54885">
        <ele>394.9</ele>
        <time>2026-05-10T08:36:00.000Z</time>
      </trkpt>
      <trkpt lat="45.85439" lon="3.54887">
        <ele>394.5</ele>
        <time>2026-05-10T08:36:01.000Z</time>
      </trkpt>
      <trkpt lat="45.8544" lon="3.54887">
        <ele>394.4</ele>
        <time>2026-05-10T08:36:02.000Z</time>
      </trkpt>
      <trkpt lat="45.85441" lon="3.54889">
        <ele>394.2</ele>
        <time>2026-05-10T08:36:03.000Z</time>
      </trkpt>
      <trkpt lat="45.85442" lon="3.5489">
        <ele>393.9</ele>
        <time>2026-05-10T08:36:04.000Z</time>
      </trkpt>
      <trkpt lat="45.85443" lon="3.54891">
        <ele>393.7</ele>
        <time>2026-05-10T08:36:05.000Z</time>
      </trkpt>
      <trkpt lat="45.85443" lon="3.54892">
        <ele>393.5</ele>
        <time>2026-05-10T08:36:06.000Z</time>
      </trkpt>
      <trkpt lat="45.85444" lon="3.54893">
        <ele>393.3</ele>
        <time>2026-05-10T08:36:07.000Z</time>
      </trkpt>
      <trkpt lat="45.85445" lon="3.54894">
        <ele>393.2</ele>
        <time>2026-05-10T08:36:08.000Z</time>
      </trkpt>
      <trkpt lat="45.85446" lon="3.54895">
        <ele>393.1</ele>
        <time>2026-05-10T08:36:09.000Z</time>
      </trkpt>
      <trkpt lat="45.85446" lon="3.54895">
        <ele>393.2</ele>
        <time>2026-05-10T08:36:10.000Z</time>
      </trkpt>
      <trkpt lat="45.85447" lon="3.54895">
        <ele>393.4</ele>
        <time>2026-05-10T08:36:11.000Z</time>
      </trkpt>
      <trkpt lat="45.85448" lon="3.54895">
        <ele>393.5</ele>
        <time>2026-05-10T08:36:12.000Z</time>
      </trkpt>
      <trkpt lat="45.85449" lon="3.54894">
        <ele>393.8</ele>
        <time>2026-05-10T08:36:13.000Z</time>
      </trkpt>
      <trkpt lat="45.85451" lon="3.54894">
        <ele>394</ele>
        <time>2026-05-10T08:36:14.000Z</time>
      </trkpt>
      <trkpt lat="45.85452" lon="3.54893">
        <ele>394.3</ele>
        <time>2026-05-10T08:36:15.000Z</time>
      </trkpt>
      <trkpt lat="45.85453" lon="3.54894">
        <ele>394.4</ele>
        <time>2026-05-10T08:36:16.000Z</time>
      </trkpt>
      <trkpt lat="45.85454" lon="3.54893">
        <ele>394.7</ele>
        <time>2026-05-10T08:36:17.000Z</time>
      </trkpt>
      <trkpt lat="45.85455" lon="3.54892">
        <ele>394.9</ele>
        <time>2026-05-10T08:36:18.000Z</time>
      </trkpt>
      <trkpt lat="45.85457" lon="3.54892">
        <ele>395.1</ele>
        <time>2026-05-10T08:36:19.000Z</time>
      </trkpt>
      <trkpt lat="45.85458" lon="3.54891">
        <ele>395.4</ele>
        <time>2026-05-10T08:36:20.000Z</time>
      </trkpt>
      <trkpt lat="45.8546" lon="3.54889">
        <ele>395.7</ele>
        <time>2026-05-10T08:36:21.000Z</time>
      </trkpt>
      <trkpt lat="45.85462" lon="3.54889">
        <ele>395.9</ele>
        <time>2026-05-10T08:36:22.000Z</time>
      </trkpt>
      <trkpt lat="45.85463" lon="3.54888">
        <ele>396.2</ele>
        <time>2026-05-10T08:36:23.000Z</time>
      </trkpt>
      <trkpt lat="45.85465" lon="3.54887">
        <ele>396.4</ele>
        <time>2026-05-10T08:36:24.000Z</time>
      </trkpt>
      <trkpt lat="45.85466" lon="3.54887">
        <ele>396.7</ele>
        <time>2026-05-10T08:36:25.000Z</time>
      </trkpt>
      <trkpt lat="45.85467" lon="3.54887">
        <ele>396.8</ele>
        <time>2026-05-10T08:36:26.000Z</time>
      </trkpt>
      <trkpt lat="45.85469" lon="3.54887">
        <ele>396.9</ele>
        <time>2026-05-10T08:36:27.000Z</time>
      </trkpt>
      <trkpt lat="45.8547" lon="3.54886">
        <ele>397.2</ele>
        <time>2026-05-10T08:36:28.000Z</time>
      </trkpt>
      <trkpt lat="45.85471" lon="3.54886">
        <ele>397.3</ele>
        <time>2026-05-10T08:36:29.000Z</time>
      </trkpt>
      <trkpt lat="45.85472" lon="3.54886">
        <ele>397.4</ele>
        <time>2026-05-10T08:36:30.000Z</time>
      </trkpt>
      <trkpt lat="45.85473" lon="3.54886">
        <ele>397.6</ele>
        <time>2026-05-10T08:36:31.000Z</time>
      </trkpt>
      <trkpt lat="45.85474" lon="3.54886">
        <ele>397.7</ele>
        <time>2026-05-10T08:36:32.000Z</time>
      </trkpt>
      <trkpt lat="45.85474" lon="3.54886">
        <ele>397.7</ele>
        <time>2026-05-10T08:36:33.000Z</time>
      </trkpt>
      <trkpt lat="45.85476" lon="3.54886">
        <ele>397.9</ele>
        <time>2026-05-10T08:36:34.000Z</time>
      </trkpt>
      <trkpt lat="45.85477" lon="3.54886">
        <ele>398.1</ele>
        <time>2026-05-10T08:36:35.000Z</time>
      </trkpt>
      <trkpt lat="45.85479" lon="3.54886">
        <ele>398.3</ele>
        <time>2026-05-10T08:36:36.000Z</time>
      </trkpt>
      <trkpt lat="45.8548" lon="3.54887">
        <ele>398.5</ele>
        <time>2026-05-10T08:36:37.000Z</time>
      </trkpt>
      <trkpt lat="45.85481" lon="3.54886">
        <ele>398.7</ele>
        <time>2026-05-10T08:36:38.000Z</time>
      </trkpt>
      <trkpt lat="45.85482" lon="3.54886">
        <ele>398.9</ele>
        <time>2026-05-10T08:36:39.000Z</time>
      </trkpt>
      <trkpt lat="45.85483" lon="3.54886">
        <ele>399.1</ele>
        <time>2026-05-10T08:36:40.000Z</time>
      </trkpt>
      <trkpt lat="45.85484" lon="3.54885">
        <ele>399.3</ele>
        <time>2026-05-10T08:36:41.000Z</time>
      </trkpt>
      <trkpt lat="45.85484" lon="3.54885">
        <ele>399.4</ele>
        <time>2026-05-10T08:36:42.000Z</time>
      </trkpt>
      <trkpt lat="45.85485" lon="3.54885">
        <ele>399.6</ele>
        <time>2026-05-10T08:36:43.000Z</time>
      </trkpt>
      <trkpt lat="45.85486" lon="3.54884">
        <ele>399.9</ele>
        <time>2026-05-10T08:36:44.000Z</time>
      </trkpt>
      <trkpt lat="45.85487" lon="3.54884">
        <ele>400.1</ele>
        <time>2026-05-10T08:36:45.000Z</time>
      </trkpt>
      <trkpt lat="45.85488" lon="3.54883">
        <ele>400.3</ele>
        <time>2026-05-10T08:36:46.000Z</time>
      </trkpt>
      <trkpt lat="45.85489" lon="3.54883">
        <ele>400.5</ele>
        <time>2026-05-10T08:36:47.000Z</time>
      </trkpt>
      <trkpt lat="45.8549" lon="3.54883">
        <ele>400.7</ele>
        <time>2026-05-10T08:36:48.000Z</time>
      </trkpt>
      <trkpt lat="45.85491" lon="3.54883">
        <ele>400.9</ele>
        <time>2026-05-10T08:36:49.000Z</time>
      </trkpt>
      <trkpt lat="45.85493" lon="3.54883">
        <ele>401.1</ele>
        <time>2026-05-10T08:36:50.000Z</time>
      </trkpt>
      <trkpt lat="45.85494" lon="3.54883">
        <ele>401.3</ele>
        <time>2026-05-10T08:36:51.000Z</time>
      </trkpt>
      <trkpt lat="45.85495" lon="3.54883">
        <ele>401.4</ele>
        <time>2026-05-10T08:36:52.000Z</time>
      </trkpt>
      <trkpt lat="45.85496" lon="3.54882">
        <ele>401.7</ele>
        <time>2026-05-10T08:36:53.000Z</time>
      </trkpt>
      <trkpt lat="45.85497" lon="3.54882">
        <ele>401.9</ele>
        <time>2026-05-10T08:36:54.000Z</time>
      </trkpt>
      <trkpt lat="45.85496" lon="3.54882">
        <ele>402</ele>
        <time>2026-05-10T08:36:55.000Z</time>
      </trkpt>
      <trkpt lat="45.85498" lon="3.5488">
        <ele>402.5</ele>
        <time>2026-05-10T08:36:56.000Z</time>
      </trkpt>
      <trkpt lat="45.85499" lon="3.5488">
        <ele>402.8</ele>
        <time>2026-05-10T08:36:57.000Z</time>
      </trkpt>
      <trkpt lat="45.85499" lon="3.5488">
        <ele>402.9</ele>
        <time>2026-05-10T08:36:58.000Z</time>
      </trkpt>
      <trkpt lat="45.85501" lon="3.5488">
        <ele>403.1</ele>
        <time>2026-05-10T08:36:59.000Z</time>
      </trkpt>
      <trkpt lat="45.85501" lon="3.5488">
        <ele>403.2</ele>
        <time>2026-05-10T08:37:00.000Z</time>
      </trkpt>
      <trkpt lat="45.85502" lon="3.5488">
        <ele>403.3</ele>
        <time>2026-05-10T08:37:01.000Z</time>
      </trkpt>
      <trkpt lat="45.85503" lon="3.5488">
        <ele>403.5</ele>
        <time>2026-05-10T08:37:02.000Z</time>
      </trkpt>
      <trkpt lat="45.85503" lon="3.5488">
        <ele>403.5</ele>
        <time>2026-05-10T08:37:03.000Z</time>
      </trkpt>
      <trkpt lat="45.85504" lon="3.5488">
        <ele>403.7</ele>
        <time>2026-05-10T08:37:04.000Z</time>
      </trkpt>
      <trkpt lat="45.85505" lon="3.54879">
        <ele>404</ele>
        <time>2026-05-10T08:37:05.000Z</time>
      </trkpt>
      <trkpt lat="45.85506" lon="3.54878">
        <ele>404.4</ele>
        <time>2026-05-10T08:37:06.000Z</time>
      </trkpt>
      <trkpt lat="45.85507" lon="3.54878">
        <ele>404.6</ele>
        <time>2026-05-10T08:37:07.000Z</time>
      </trkpt>
      <trkpt lat="45.85507" lon="3.54878">
        <ele>404.8</ele>
        <time>2026-05-10T08:37:08.000Z</time>
      </trkpt>
      <trkpt lat="45.85508" lon="3.54877">
        <ele>405.2</ele>
        <time>2026-05-10T08:37:09.000Z</time>
      </trkpt>
      <trkpt lat="45.85509" lon="3.54876">
        <ele>405.3</ele>
        <time>2026-05-10T08:37:10.000Z</time>
      </trkpt>
      <trkpt lat="45.85509" lon="3.54876">
        <ele>405.4</ele>
        <time>2026-05-10T08:37:11.000Z</time>
      </trkpt>
      <trkpt lat="45.8551" lon="3.54876">
        <ele>405.5</ele>
        <time>2026-05-10T08:37:12.000Z</time>
      </trkpt>
      <trkpt lat="45.8551" lon="3.54876">
        <ele>405.7</ele>
        <time>2026-05-10T08:37:13.000Z</time>
      </trkpt>
      <trkpt lat="45.85511" lon="3.54875">
        <ele>405.9</ele>
        <time>2026-05-10T08:37:14.000Z</time>
      </trkpt>
      <trkpt lat="45.85511" lon="3.54874">
        <ele>406.2</ele>
        <time>2026-05-10T08:37:15.000Z</time>
      </trkpt>
      <trkpt lat="45.85512" lon="3.54874">
        <ele>406.4</ele>
        <time>2026-05-10T08:37:16.000Z</time>
      </trkpt>
      <trkpt lat="45.85513" lon="3.54874">
        <ele>406.5</ele>
        <time>2026-05-10T08:37:17.000Z</time>
      </trkpt>
      <trkpt lat="45.85513" lon="3.54874">
        <ele>406.6</ele>
        <time>2026-05-10T08:37:18.000Z</time>
      </trkpt>
      <trkpt lat="45.85514" lon="3.54874">
        <ele>406.8</ele>
        <time>2026-05-10T08:37:19.000Z</time>
      </trkpt>
      <trkpt lat="45.85514" lon="3.54874">
        <ele>406.9</ele>
        <time>2026-05-10T08:37:20.000Z</time>
      </trkpt>
      <trkpt lat="45.85515" lon="3.54874">
        <ele>407</ele>
        <time>2026-05-10T08:37:21.000Z</time>
      </trkpt>
      <trkpt lat="45.85516" lon="3.54874">
        <ele>407.1</ele>
        <time>2026-05-10T08:37:22.000Z</time>
      </trkpt>
      <trkpt lat="45.85517" lon="3.54874">
        <ele>407.2</ele>
        <time>2026-05-10T08:37:23.000Z</time>
      </trkpt>
      <trkpt lat="45.85517" lon="3.54874">
        <ele>407.3</ele>
        <time>2026-05-10T08:37:24.000Z</time>
      </trkpt>
      <trkpt lat="45.85518" lon="3.54874">
        <ele>407.5</ele>
        <time>2026-05-10T08:37:25.000Z</time>
      </trkpt>
      <trkpt lat="45.85519" lon="3.54874">
        <ele>407.6</ele>
        <time>2026-05-10T08:37:26.000Z</time>
      </trkpt>
      <trkpt lat="45.8552" lon="3.54874">
        <ele>407.8</ele>
        <time>2026-05-10T08:37:27.000Z</time>
      </trkpt>
      <trkpt lat="45.8552" lon="3.54874">
        <ele>407.9</ele>
        <time>2026-05-10T08:37:28.000Z</time>
      </trkpt>
      <trkpt lat="45.85521" lon="3.54874">
        <ele>408</ele>
        <time>2026-05-10T08:37:29.000Z</time>
      </trkpt>
      <trkpt lat="45.85521" lon="3.54874">
        <ele>408.1</ele>
        <time>2026-05-10T08:37:30.000Z</time>
      </trkpt>
      <trkpt lat="45.85521" lon="3.54874">
        <ele>408.1</ele>
        <time>2026-05-10T08:37:31.000Z</time>
      </trkpt>
      <trkpt lat="45.85522" lon="3.54874">
        <ele>408.2</ele>
        <time>2026-05-10T08:37:32.000Z</time>
      </trkpt>
      <trkpt lat="45.85522" lon="3.54874">
        <ele>408.2</ele>
        <time>2026-05-10T08:37:33.000Z</time>
      </trkpt>
      <trkpt lat="45.85521" lon="3.54874">
        <ele>408</ele>
        <time>2026-05-10T08:37:34.000Z</time>
      </trkpt>
      <trkpt lat="45.85521" lon="3.54874">
        <ele>408</ele>
        <time>2026-05-10T08:37:35.000Z</time>
      </trkpt>
      <trkpt lat="45.85521" lon="3.54874">
        <ele>408</ele>
        <time>2026-05-10T08:37:36.000Z</time>
      </trkpt>
      <trkpt lat="45.85521" lon="3.54874">
        <ele>407.9</ele>
        <time>2026-05-10T08:37:37.000Z</time>
      </trkpt>
      <trkpt lat="45.85522" lon="3.54874">
        <ele>408.1</ele>
        <time>2026-05-10T08:37:38.000Z</time>
      </trkpt>
      <trkpt lat="45.85523" lon="3.54874">
        <ele>408.3</ele>
        <time>2026-05-10T08:37:39.000Z</time>
      </trkpt>
      <trkpt lat="45.85524" lon="3.54874">
        <ele>408.6</ele>
        <time>2026-05-10T08:37:40.000Z</time>
      </trkpt>
      <trkpt lat="45.85524" lon="3.54873">
        <ele>408.7</ele>
        <time>2026-05-10T08:37:41.000Z</time>
      </trkpt>
      <trkpt lat="45.85525" lon="3.54873">
        <ele>408.9</ele>
        <time>2026-05-10T08:37:42.000Z</time>
      </trkpt>
      <trkpt lat="45.85525" lon="3.54873">
        <ele>409.1</ele>
        <time>2026-05-10T08:37:43.000Z</time>
      </trkpt>
      <trkpt lat="45.85526" lon="3.54872">
        <ele>409.3</ele>
        <time>2026-05-10T08:37:44.000Z</time>
      </trkpt>
      <trkpt lat="45.85526" lon="3.54872">
        <ele>409.4</ele>
        <time>2026-05-10T08:37:45.000Z</time>
      </trkpt>
      <trkpt lat="45.85527" lon="3.54871">
        <ele>409.7</ele>
        <time>2026-05-10T08:37:46.000Z</time>
      </trkpt>
      <trkpt lat="45.85527" lon="3.54869">
        <ele>410.2</ele>
        <time>2026-05-10T08:37:47.000Z</time>
      </trkpt>
      <trkpt lat="45.85528" lon="3.54868">
        <ele>410.6</ele>
        <time>2026-05-10T08:37:48.000Z</time>
      </trkpt>
      <trkpt lat="45.85529" lon="3.54866">
        <ele>411</ele>
        <time>2026-05-10T08:37:49.000Z</time>
      </trkpt>
      <trkpt lat="45.85529" lon="3.54864">
        <ele>411.4</ele>
        <time>2026-05-10T08:37:50.000Z</time>
      </trkpt>
      <trkpt lat="45.8553" lon="3.54863">
        <ele>411.7</ele>
        <time>2026-05-10T08:37:51.000Z</time>
      </trkpt>
      <trkpt lat="45.8553" lon="3.54862">
        <ele>412</ele>
        <time>2026-05-10T08:37:52.000Z</time>
      </trkpt>
      <trkpt lat="45.85531" lon="3.5486">
        <ele>412.1</ele>
        <time>2026-05-10T08:37:53.000Z</time>
      </trkpt>
      <trkpt lat="45.85532" lon="3.54859">
        <ele>412.1</ele>
        <time>2026-05-10T08:37:54.000Z</time>
      </trkpt>
      <trkpt lat="45.85532" lon="3.54858">
        <ele>412</ele>
        <time>2026-05-10T08:37:55.000Z</time>
      </trkpt>
      <trkpt lat="45.85532" lon="3.54857">
        <ele>412</ele>
        <time>2026-05-10T08:37:56.000Z</time>
      </trkpt>
      <trkpt lat="45.85533" lon="3.54856">
        <ele>412</ele>
        <time>2026-05-10T08:37:57.000Z</time>
      </trkpt>
      <trkpt lat="45.85533" lon="3.54856">
        <ele>412.1</ele>
        <time>2026-05-10T08:37:58.000Z</time>
      </trkpt>
      <trkpt lat="45.85534" lon="3.54856">
        <ele>412.1</ele>
        <time>2026-05-10T08:37:59.000Z</time>
      </trkpt>
      <trkpt lat="45.85535" lon="3.54856">
        <ele>412.1</ele>
        <time>2026-05-10T08:38:00.000Z</time>
      </trkpt>
      <trkpt lat="45.85536" lon="3.54856">
        <ele>412.1</ele>
        <time>2026-05-10T08:38:01.000Z</time>
      </trkpt>
      <trkpt lat="45.85536" lon="3.54855">
        <ele>412.2</ele>
        <time>2026-05-10T08:38:02.000Z</time>
      </trkpt>
      <trkpt lat="45.85537" lon="3.54854">
        <ele>412.1</ele>
        <time>2026-05-10T08:38:03.000Z</time>
      </trkpt>
      <trkpt lat="45.85537" lon="3.54853">
        <ele>412.1</ele>
        <time>2026-05-10T08:38:04.000Z</time>
      </trkpt>
      <trkpt lat="45.85537" lon="3.54851">
        <ele>412.1</ele>
        <time>2026-05-10T08:38:05.000Z</time>
      </trkpt>
      <trkpt lat="45.85538" lon="3.54851">
        <ele>412.1</ele>
        <time>2026-05-10T08:38:06.000Z</time>
      </trkpt>
      <trkpt lat="45.85538" lon="3.5485">
        <ele>412.1</ele>
        <time>2026-05-10T08:38:07.000Z</time>
      </trkpt>
      <trkpt lat="45.85539" lon="3.54848">
        <ele>412.1</ele>
        <time>2026-05-10T08:38:08.000Z</time>
      </trkpt>
      <trkpt lat="45.8554" lon="3.54847">
        <ele>412.1</ele>
        <time>2026-05-10T08:38:09.000Z</time>
      </trkpt>
      <trkpt lat="45.8554" lon="3.54845">
        <ele>412.1</ele>
        <time>2026-05-10T08:38:10.000Z</time>
      </trkpt>
      <trkpt lat="45.8554" lon="3.54843">
        <ele>412.1</ele>
        <time>2026-05-10T08:38:11.000Z</time>
      </trkpt>
      <trkpt lat="45.85541" lon="3.54842">
        <ele>412.1</ele>
        <time>2026-05-10T08:38:12.000Z</time>
      </trkpt>
      <trkpt lat="45.85542" lon="3.54841">
        <ele>412.1</ele>
        <time>2026-05-10T08:38:13.000Z</time>
      </trkpt>
      <trkpt lat="45.85543" lon="3.5484">
        <ele>412.2</ele>
        <time>2026-05-10T08:38:14.000Z</time>
      </trkpt>
      <trkpt lat="45.85543" lon="3.54839">
        <ele>412.2</ele>
        <time>2026-05-10T08:38:15.000Z</time>
      </trkpt>
      <trkpt lat="45.85544" lon="3.54837">
        <ele>412.2</ele>
        <time>2026-05-10T08:38:16.000Z</time>
      </trkpt>
      <trkpt lat="45.85545" lon="3.54837">
        <ele>412.3</ele>
        <time>2026-05-10T08:38:17.000Z</time>
      </trkpt>
      <trkpt lat="45.85545" lon="3.54837">
        <ele>412.3</ele>
        <time>2026-05-10T08:38:18.000Z</time>
      </trkpt>
      <trkpt lat="45.85546" lon="3.54837">
        <ele>412.4</ele>
        <time>2026-05-10T08:38:19.000Z</time>
      </trkpt>
      <trkpt lat="45.85548" lon="3.54837">
        <ele>412.5</ele>
        <time>2026-05-10T08:38:20.000Z</time>
      </trkpt>
      <trkpt lat="45.85549" lon="3.54837">
        <ele>412.5</ele>
        <time>2026-05-10T08:38:21.000Z</time>
      </trkpt>
      <trkpt lat="45.8555" lon="3.54838">
        <ele>412.6</ele>
        <time>2026-05-10T08:38:22.000Z</time>
      </trkpt>
      <trkpt lat="45.85551" lon="3.54839">
        <ele>412.7</ele>
        <time>2026-05-10T08:38:23.000Z</time>
      </trkpt>
      <trkpt lat="45.85551" lon="3.54839">
        <ele>412.7</ele>
        <time>2026-05-10T08:38:24.000Z</time>
      </trkpt>
      <trkpt lat="45.85552" lon="3.54838">
        <ele>412.8</ele>
        <time>2026-05-10T08:38:25.000Z</time>
      </trkpt>
      <trkpt lat="45.85554" lon="3.54838">
        <ele>412.9</ele>
        <time>2026-05-10T08:38:26.000Z</time>
      </trkpt>
      <trkpt lat="45.85555" lon="3.54838">
        <ele>412.9</ele>
        <time>2026-05-10T08:38:27.000Z</time>
      </trkpt>
      <trkpt lat="45.85556" lon="3.54838">
        <ele>413</ele>
        <time>2026-05-10T08:38:28.000Z</time>
      </trkpt>
      <trkpt lat="45.85557" lon="3.54838">
        <ele>413.1</ele>
        <time>2026-05-10T08:38:29.000Z</time>
      </trkpt>
      <trkpt lat="45.85558" lon="3.54838">
        <ele>413.2</ele>
        <time>2026-05-10T08:38:30.000Z</time>
      </trkpt>
      <trkpt lat="45.85559" lon="3.54838">
        <ele>413.2</ele>
        <time>2026-05-10T08:38:31.000Z</time>
      </trkpt>
      <trkpt lat="45.85561" lon="3.54837">
        <ele>413.3</ele>
        <time>2026-05-10T08:38:32.000Z</time>
      </trkpt>
      <trkpt lat="45.85562" lon="3.54837">
        <ele>413.4</ele>
        <time>2026-05-10T08:38:33.000Z</time>
      </trkpt>
      <trkpt lat="45.85562" lon="3.54836">
        <ele>413.5</ele>
        <time>2026-05-10T08:38:34.000Z</time>
      </trkpt>
      <trkpt lat="45.85563" lon="3.54835">
        <ele>413.5</ele>
        <time>2026-05-10T08:38:35.000Z</time>
      </trkpt>
      <trkpt lat="45.85563" lon="3.54834">
        <ele>413.6</ele>
        <time>2026-05-10T08:38:36.000Z</time>
      </trkpt>
      <trkpt lat="45.85563" lon="3.54832">
        <ele>413.6</ele>
        <time>2026-05-10T08:38:37.000Z</time>
      </trkpt>
      <trkpt lat="45.85563" lon="3.54831">
        <ele>413.6</ele>
        <time>2026-05-10T08:38:38.000Z</time>
      </trkpt>
      <trkpt lat="45.85564" lon="3.5483">
        <ele>413.7</ele>
        <time>2026-05-10T08:38:39.000Z</time>
      </trkpt>
      <trkpt lat="45.85563" lon="3.54827">
        <ele>413.7</ele>
        <time>2026-05-10T08:38:40.000Z</time>
      </trkpt>
      <trkpt lat="45.85563" lon="3.54826">
        <ele>413.8</ele>
        <time>2026-05-10T08:38:41.000Z</time>
      </trkpt>
      <trkpt lat="45.85562" lon="3.54825">
        <ele>413.8</ele>
        <time>2026-05-10T08:38:42.000Z</time>
      </trkpt>
      <trkpt lat="45.85562" lon="3.54823">
        <ele>413.8</ele>
        <time>2026-05-10T08:38:43.000Z</time>
      </trkpt>
      <trkpt lat="45.85561" lon="3.54822">
        <ele>413.8</ele>
        <time>2026-05-10T08:38:44.000Z</time>
      </trkpt>
      <trkpt lat="45.85561" lon="3.54821">
        <ele>413.8</ele>
        <time>2026-05-10T08:38:45.000Z</time>
      </trkpt>
      <trkpt lat="45.8556" lon="3.54819">
        <ele>413.8</ele>
        <time>2026-05-10T08:38:46.000Z</time>
      </trkpt>
      <trkpt lat="45.8556" lon="3.54817">
        <ele>413.9</ele>
        <time>2026-05-10T08:38:47.000Z</time>
      </trkpt>
      <trkpt lat="45.85559" lon="3.54816">
        <ele>413.9</ele>
        <time>2026-05-10T08:38:48.000Z</time>
      </trkpt>
      <trkpt lat="45.85559" lon="3.54814">
        <ele>413.9</ele>
        <time>2026-05-10T08:38:49.000Z</time>
      </trkpt>
      <trkpt lat="45.85559" lon="3.54812">
        <ele>414</ele>
        <time>2026-05-10T08:38:50.000Z</time>
      </trkpt>
      <trkpt lat="45.85558" lon="3.5481">
        <ele>414</ele>
        <time>2026-05-10T08:38:51.000Z</time>
      </trkpt>
      <trkpt lat="45.85558" lon="3.54808">
        <ele>414.1</ele>
        <time>2026-05-10T08:38:52.000Z</time>
      </trkpt>
      <trkpt lat="45.85558" lon="3.54806">
        <ele>414.2</ele>
        <time>2026-05-10T08:38:53.000Z</time>
      </trkpt>
      <trkpt lat="45.85557" lon="3.54805">
        <ele>414.1</ele>
        <time>2026-05-10T08:38:54.000Z</time>
      </trkpt>
      <trkpt lat="45.85557" lon="3.54803">
        <ele>414.1</ele>
        <time>2026-05-10T08:38:55.000Z</time>
      </trkpt>
      <trkpt lat="45.85556" lon="3.54801">
        <ele>414.1</ele>
        <time>2026-05-10T08:38:56.000Z</time>
      </trkpt>
      <trkpt lat="45.85556" lon="3.548">
        <ele>414</ele>
        <time>2026-05-10T08:38:57.000Z</time>
      </trkpt>
      <trkpt lat="45.85556" lon="3.54799">
        <ele>414</ele>
        <time>2026-05-10T08:38:58.000Z</time>
      </trkpt>
      <trkpt lat="45.85555" lon="3.54798">
        <ele>414</ele>
        <time>2026-05-10T08:38:59.000Z</time>
      </trkpt>
      <trkpt lat="45.85555" lon="3.54796">
        <ele>413.9</ele>
        <time>2026-05-10T08:39:00.000Z</time>
      </trkpt>
      <trkpt lat="45.85554" lon="3.54795">
        <ele>413.9</ele>
        <time>2026-05-10T08:39:01.000Z</time>
      </trkpt>
      <trkpt lat="45.85554" lon="3.54794">
        <ele>413.9</ele>
        <time>2026-05-10T08:39:02.000Z</time>
      </trkpt>
      <trkpt lat="45.85553" lon="3.54793">
        <ele>413.8</ele>
        <time>2026-05-10T08:39:03.000Z</time>
      </trkpt>
      <trkpt lat="45.85552" lon="3.54791">
        <ele>413.8</ele>
        <time>2026-05-10T08:39:04.000Z</time>
      </trkpt>
      <trkpt lat="45.85552" lon="3.5479">
        <ele>413.7</ele>
        <time>2026-05-10T08:39:05.000Z</time>
      </trkpt>
      <trkpt lat="45.85551" lon="3.54788">
        <ele>413.7</ele>
        <time>2026-05-10T08:39:06.000Z</time>
      </trkpt>
      <trkpt lat="45.8555" lon="3.54787">
        <ele>413.6</ele>
        <time>2026-05-10T08:39:07.000Z</time>
      </trkpt>
      <trkpt lat="45.8555" lon="3.54785">
        <ele>413.6</ele>
        <time>2026-05-10T08:39:08.000Z</time>
      </trkpt>
      <trkpt lat="45.85549" lon="3.54784">
        <ele>413.5</ele>
        <time>2026-05-10T08:39:09.000Z</time>
      </trkpt>
      <trkpt lat="45.85548" lon="3.54783">
        <ele>413.5</ele>
        <time>2026-05-10T08:39:10.000Z</time>
      </trkpt>
      <trkpt lat="45.85548" lon="3.54781">
        <ele>413.4</ele>
        <time>2026-05-10T08:39:11.000Z</time>
      </trkpt>
      <trkpt lat="45.85547" lon="3.5478">
        <ele>413.4</ele>
        <time>2026-05-10T08:39:12.000Z</time>
      </trkpt>
      <trkpt lat="45.85546" lon="3.54778">
        <ele>413.3</ele>
        <time>2026-05-10T08:39:13.000Z</time>
      </trkpt>
      <trkpt lat="45.85546" lon="3.54777">
        <ele>413.2</ele>
        <time>2026-05-10T08:39:14.000Z</time>
      </trkpt>
      <trkpt lat="45.85545" lon="3.54775">
        <ele>413.2</ele>
        <time>2026-05-10T08:39:15.000Z</time>
      </trkpt>
      <trkpt lat="45.85545" lon="3.54774">
        <ele>413.1</ele>
        <time>2026-05-10T08:39:16.000Z</time>
      </trkpt>
      <trkpt lat="45.85545" lon="3.54772">
        <ele>413</ele>
        <time>2026-05-10T08:39:17.000Z</time>
      </trkpt>
      <trkpt lat="45.85544" lon="3.54771">
        <ele>412.9</ele>
        <time>2026-05-10T08:39:18.000Z</time>
      </trkpt>
      <trkpt lat="45.85544" lon="3.54769">
        <ele>412.8</ele>
        <time>2026-05-10T08:39:19.000Z</time>
      </trkpt>
      <trkpt lat="45.85544" lon="3.54768">
        <ele>412.8</ele>
        <time>2026-05-10T08:39:20.000Z</time>
      </trkpt>
      <trkpt lat="45.85544" lon="3.54766">
        <ele>412.7</ele>
        <time>2026-05-10T08:39:21.000Z</time>
      </trkpt>
      <trkpt lat="45.85544" lon="3.54765">
        <ele>412.7</ele>
        <time>2026-05-10T08:39:22.000Z</time>
      </trkpt>
      <trkpt lat="45.85545" lon="3.54763">
        <ele>412.7</ele>
        <time>2026-05-10T08:39:23.000Z</time>
      </trkpt>
      <trkpt lat="45.85545" lon="3.54763">
        <ele>412.7</ele>
        <time>2026-05-10T08:39:24.000Z</time>
      </trkpt>
      <trkpt lat="45.85545" lon="3.54761">
        <ele>412.6</ele>
        <time>2026-05-10T08:39:25.000Z</time>
      </trkpt>
      <trkpt lat="45.85545" lon="3.54761">
        <ele>412.6</ele>
        <time>2026-05-10T08:39:26.000Z</time>
      </trkpt>
      <trkpt lat="45.85544" lon="3.54761">
        <ele>412.6</ele>
        <time>2026-05-10T08:39:27.000Z</time>
      </trkpt>
      <trkpt lat="45.85545" lon="3.5476">
        <ele>412.6</ele>
        <time>2026-05-10T08:39:28.000Z</time>
      </trkpt>
      <trkpt lat="45.85545" lon="3.54759">
        <ele>412.6</ele>
        <time>2026-05-10T08:39:29.000Z</time>
      </trkpt>
      <trkpt lat="45.85546" lon="3.54758">
        <ele>412.6</ele>
        <time>2026-05-10T08:39:30.000Z</time>
      </trkpt>
      <trkpt lat="45.85546" lon="3.54757">
        <ele>412.6</ele>
        <time>2026-05-10T08:39:31.000Z</time>
      </trkpt>
      <trkpt lat="45.85547" lon="3.54756">
        <ele>412.6</ele>
        <time>2026-05-10T08:39:32.000Z</time>
      </trkpt>
      <trkpt lat="45.85548" lon="3.54755">
        <ele>412.6</ele>
        <time>2026-05-10T08:39:33.000Z</time>
      </trkpt>
      <trkpt lat="45.85549" lon="3.54754">
        <ele>412.6</ele>
        <time>2026-05-10T08:39:34.000Z</time>
      </trkpt>
      <trkpt lat="45.8555" lon="3.54752">
        <ele>412.7</ele>
        <time>2026-05-10T08:39:35.000Z</time>
      </trkpt>
      <trkpt lat="45.85551" lon="3.54752">
        <ele>412.7</ele>
        <time>2026-05-10T08:39:36.000Z</time>
      </trkpt>
      <trkpt lat="45.85551" lon="3.54751">
        <ele>412.7</ele>
        <time>2026-05-10T08:39:37.000Z</time>
      </trkpt>
      <trkpt lat="45.85552" lon="3.5475">
        <ele>412.8</ele>
        <time>2026-05-10T08:39:38.000Z</time>
      </trkpt>
      <trkpt lat="45.85553" lon="3.5475">
        <ele>412.8</ele>
        <time>2026-05-10T08:39:39.000Z</time>
      </trkpt>
      <trkpt lat="45.85554" lon="3.54749">
        <ele>412.9</ele>
        <time>2026-05-10T08:39:40.000Z</time>
      </trkpt>
      <trkpt lat="45.85555" lon="3.54748">
        <ele>413</ele>
        <time>2026-05-10T08:39:41.000Z</time>
      </trkpt>
      <trkpt lat="45.85557" lon="3.54747">
        <ele>413.1</ele>
        <time>2026-05-10T08:39:42.000Z</time>
      </trkpt>
      <trkpt lat="45.85558" lon="3.54747">
        <ele>413.2</ele>
        <time>2026-05-10T08:39:43.000Z</time>
      </trkpt>
      <trkpt lat="45.85559" lon="3.54747">
        <ele>413.4</ele>
        <time>2026-05-10T08:39:44.000Z</time>
      </trkpt>
      <trkpt lat="45.8556" lon="3.54746">
        <ele>413.5</ele>
        <time>2026-05-10T08:39:45.000Z</time>
      </trkpt>
      <trkpt lat="45.85562" lon="3.54746">
        <ele>413.7</ele>
        <time>2026-05-10T08:39:46.000Z</time>
      </trkpt>
      <trkpt lat="45.85563" lon="3.54744">
        <ele>413.8</ele>
        <time>2026-05-10T08:39:47.000Z</time>
      </trkpt>
      <trkpt lat="45.85564" lon="3.54744">
        <ele>413.9</ele>
        <time>2026-05-10T08:39:48.000Z</time>
      </trkpt>
      <trkpt lat="45.85566" lon="3.54743">
        <ele>414.1</ele>
        <time>2026-05-10T08:39:49.000Z</time>
      </trkpt>
      <trkpt lat="45.85567" lon="3.54743">
        <ele>414.2</ele>
        <time>2026-05-10T08:39:50.000Z</time>
      </trkpt>
      <trkpt lat="45.85568" lon="3.54743">
        <ele>414.3</ele>
        <time>2026-05-10T08:39:51.000Z</time>
      </trkpt>
      <trkpt lat="45.85569" lon="3.54742">
        <ele>414.5</ele>
        <time>2026-05-10T08:39:52.000Z</time>
      </trkpt>
      <trkpt lat="45.85571" lon="3.54742">
        <ele>414.6</ele>
        <time>2026-05-10T08:39:53.000Z</time>
      </trkpt>
      <trkpt lat="45.85572" lon="3.54741">
        <ele>414.8</ele>
        <time>2026-05-10T08:39:54.000Z</time>
      </trkpt>
      <trkpt lat="45.85573" lon="3.5474">
        <ele>414.9</ele>
        <time>2026-05-10T08:39:55.000Z</time>
      </trkpt>
      <trkpt lat="45.85575" lon="3.5474">
        <ele>415.1</ele>
        <time>2026-05-10T08:39:56.000Z</time>
      </trkpt>
      <trkpt lat="45.85576" lon="3.54739">
        <ele>415.2</ele>
        <time>2026-05-10T08:39:57.000Z</time>
      </trkpt>
      <trkpt lat="45.85577" lon="3.54739">
        <ele>415.3</ele>
        <time>2026-05-10T08:39:58.000Z</time>
      </trkpt>
      <trkpt lat="45.85578" lon="3.54738">
        <ele>415.4</ele>
        <time>2026-05-10T08:39:59.000Z</time>
      </trkpt>
      <trkpt lat="45.85579" lon="3.54737">
        <ele>415.5</ele>
        <time>2026-05-10T08:40:00.000Z</time>
      </trkpt>
      <trkpt lat="45.8558" lon="3.54737">
        <ele>415.7</ele>
        <time>2026-05-10T08:40:01.000Z</time>
      </trkpt>
      <trkpt lat="45.85582" lon="3.54736">
        <ele>415.8</ele>
        <time>2026-05-10T08:40:02.000Z</time>
      </trkpt>
      <trkpt lat="45.85583" lon="3.54736">
        <ele>415.9</ele>
        <time>2026-05-10T08:40:03.000Z</time>
      </trkpt>
      <trkpt lat="45.85584" lon="3.54735">
        <ele>416.1</ele>
        <time>2026-05-10T08:40:04.000Z</time>
      </trkpt>
      <trkpt lat="45.85585" lon="3.54735">
        <ele>416.2</ele>
        <time>2026-05-10T08:40:05.000Z</time>
      </trkpt>
      <trkpt lat="45.85586" lon="3.54735">
        <ele>416.3</ele>
        <time>2026-05-10T08:40:06.000Z</time>
      </trkpt>
      <trkpt lat="45.85588" lon="3.54735">
        <ele>416.5</ele>
        <time>2026-05-10T08:40:07.000Z</time>
      </trkpt>
      <trkpt lat="45.85589" lon="3.54734">
        <ele>416.6</ele>
        <time>2026-05-10T08:40:08.000Z</time>
      </trkpt>
      <trkpt lat="45.85591" lon="3.54734">
        <ele>416.8</ele>
        <time>2026-05-10T08:40:09.000Z</time>
      </trkpt>
      <trkpt lat="45.85591" lon="3.54734">
        <ele>416.9</ele>
        <time>2026-05-10T08:40:10.000Z</time>
      </trkpt>
      <trkpt lat="45.85592" lon="3.54734">
        <ele>417</ele>
        <time>2026-05-10T08:40:11.000Z</time>
      </trkpt>
      <trkpt lat="45.85593" lon="3.54733">
        <ele>417</ele>
        <time>2026-05-10T08:40:12.000Z</time>
      </trkpt>
      <trkpt lat="45.85594" lon="3.54732">
        <ele>417.1</ele>
        <time>2026-05-10T08:40:13.000Z</time>
      </trkpt>
      <trkpt lat="45.85594" lon="3.54732">
        <ele>417.1</ele>
        <time>2026-05-10T08:40:14.000Z</time>
      </trkpt>
      <trkpt lat="45.85595" lon="3.54731">
        <ele>417.2</ele>
        <time>2026-05-10T08:40:15.000Z</time>
      </trkpt>
      <trkpt lat="45.85596" lon="3.54731">
        <ele>417.3</ele>
        <time>2026-05-10T08:40:16.000Z</time>
      </trkpt>
      <trkpt lat="45.85598" lon="3.54731">
        <ele>417.6</ele>
        <time>2026-05-10T08:40:17.000Z</time>
      </trkpt>
      <trkpt lat="45.85599" lon="3.5473">
        <ele>417.7</ele>
        <time>2026-05-10T08:40:18.000Z</time>
      </trkpt>
      <trkpt lat="45.85601" lon="3.5473">
        <ele>417.9</ele>
        <time>2026-05-10T08:40:19.000Z</time>
      </trkpt>
      <trkpt lat="45.85602" lon="3.5473">
        <ele>418</ele>
        <time>2026-05-10T08:40:20.000Z</time>
      </trkpt>
      <trkpt lat="45.85603" lon="3.5473">
        <ele>418.1</ele>
        <time>2026-05-10T08:40:21.000Z</time>
      </trkpt>
      <trkpt lat="45.85603" lon="3.54731">
        <ele>418.2</ele>
        <time>2026-05-10T08:40:22.000Z</time>
      </trkpt>
      <trkpt lat="45.85605" lon="3.54731">
        <ele>418.3</ele>
        <time>2026-05-10T08:40:23.000Z</time>
      </trkpt>
      <trkpt lat="45.85606" lon="3.54731">
        <ele>418.4</ele>
        <time>2026-05-10T08:40:24.000Z</time>
      </trkpt>
      <trkpt lat="45.85607" lon="3.54731">
        <ele>418.6</ele>
        <time>2026-05-10T08:40:25.000Z</time>
      </trkpt>
      <trkpt lat="45.85609" lon="3.54731">
        <ele>418.7</ele>
        <time>2026-05-10T08:40:26.000Z</time>
      </trkpt>
      <trkpt lat="45.85609" lon="3.54731">
        <ele>418.8</ele>
        <time>2026-05-10T08:40:27.000Z</time>
      </trkpt>
      <trkpt lat="45.85611" lon="3.54731">
        <ele>419</ele>
        <time>2026-05-10T08:40:28.000Z</time>
      </trkpt>
      <trkpt lat="45.85612" lon="3.54731">
        <ele>419.1</ele>
        <time>2026-05-10T08:40:29.000Z</time>
      </trkpt>
      <trkpt lat="45.85614" lon="3.54732">
        <ele>419.3</ele>
        <time>2026-05-10T08:40:30.000Z</time>
      </trkpt>
      <trkpt lat="45.85615" lon="3.54732">
        <ele>419.5</ele>
        <time>2026-05-10T08:40:31.000Z</time>
      </trkpt>
      <trkpt lat="45.85616" lon="3.54732">
        <ele>419.7</ele>
        <time>2026-05-10T08:40:32.000Z</time>
      </trkpt>
      <trkpt lat="45.85618" lon="3.54732">
        <ele>419.9</ele>
        <time>2026-05-10T08:40:33.000Z</time>
      </trkpt>
      <trkpt lat="45.85619" lon="3.54733">
        <ele>420.1</ele>
        <time>2026-05-10T08:40:34.000Z</time>
      </trkpt>
      <trkpt lat="45.8562" lon="3.54733">
        <ele>420.3</ele>
        <time>2026-05-10T08:40:35.000Z</time>
      </trkpt>
      <trkpt lat="45.85621" lon="3.54733">
        <ele>420.4</ele>
        <time>2026-05-10T08:40:36.000Z</time>
      </trkpt>
      <trkpt lat="45.85622" lon="3.54733">
        <ele>420.6</ele>
        <time>2026-05-10T08:40:37.000Z</time>
      </trkpt>
      <trkpt lat="45.85623" lon="3.54734">
        <ele>420.7</ele>
        <time>2026-05-10T08:40:38.000Z</time>
      </trkpt>
      <trkpt lat="45.85624" lon="3.54734">
        <ele>420.8</ele>
        <time>2026-05-10T08:40:39.000Z</time>
      </trkpt>
      <trkpt lat="45.85625" lon="3.54734">
        <ele>421</ele>
        <time>2026-05-10T08:40:40.000Z</time>
      </trkpt>
      <trkpt lat="45.85625" lon="3.54733">
        <ele>421</ele>
        <time>2026-05-10T08:40:41.000Z</time>
      </trkpt>
      <trkpt lat="45.85626" lon="3.54733">
        <ele>421.1</ele>
        <time>2026-05-10T08:40:42.000Z</time>
      </trkpt>
      <trkpt lat="45.85627" lon="3.54733">
        <ele>421.3</ele>
        <time>2026-05-10T08:40:43.000Z</time>
      </trkpt>
      <trkpt lat="45.85628" lon="3.54733">
        <ele>421.4</ele>
        <time>2026-05-10T08:40:44.000Z</time>
      </trkpt>
      <trkpt lat="45.85629" lon="3.54733">
        <ele>421.5</ele>
        <time>2026-05-10T08:40:45.000Z</time>
      </trkpt>
      <trkpt lat="45.85629" lon="3.54733">
        <ele>421.6</ele>
        <time>2026-05-10T08:40:46.000Z</time>
      </trkpt>
      <trkpt lat="45.8563" lon="3.54733">
        <ele>421.7</ele>
        <time>2026-05-10T08:40:47.000Z</time>
      </trkpt>
      <trkpt lat="45.85631" lon="3.54734">
        <ele>421.8</ele>
        <time>2026-05-10T08:40:48.000Z</time>
      </trkpt>
      <trkpt lat="45.85632" lon="3.54734">
        <ele>422</ele>
        <time>2026-05-10T08:40:49.000Z</time>
      </trkpt>
      <trkpt lat="45.85633" lon="3.54734">
        <ele>422.1</ele>
        <time>2026-05-10T08:40:50.000Z</time>
      </trkpt>
      <trkpt lat="45.85633" lon="3.54734">
        <ele>422.2</ele>
        <time>2026-05-10T08:40:51.000Z</time>
      </trkpt>
      <trkpt lat="45.85634" lon="3.54734">
        <ele>422.3</ele>
        <time>2026-05-10T08:40:52.000Z</time>
      </trkpt>
      <trkpt lat="45.85635" lon="3.54734">
        <ele>422.5</ele>
        <time>2026-05-10T08:40:53.000Z</time>
      </trkpt>
      <trkpt lat="45.85637" lon="3.54734">
        <ele>422.7</ele>
        <time>2026-05-10T08:40:54.000Z</time>
      </trkpt>
      <trkpt lat="45.85637" lon="3.54734">
        <ele>422.8</ele>
        <time>2026-05-10T08:40:55.000Z</time>
      </trkpt>
      <trkpt lat="45.85639" lon="3.54734">
        <ele>423</ele>
        <time>2026-05-10T08:40:56.000Z</time>
      </trkpt>
      <trkpt lat="45.8564" lon="3.54734">
        <ele>423.2</ele>
        <time>2026-05-10T08:40:57.000Z</time>
      </trkpt>
      <trkpt lat="45.85642" lon="3.54735">
        <ele>423.4</ele>
        <time>2026-05-10T08:40:58.000Z</time>
      </trkpt>
      <trkpt lat="45.85643" lon="3.54735">
        <ele>423.5</ele>
        <time>2026-05-10T08:40:59.000Z</time>
      </trkpt>
      <trkpt lat="45.85644" lon="3.54735">
        <ele>423.7</ele>
        <time>2026-05-10T08:41:00.000Z</time>
      </trkpt>
      <trkpt lat="45.85645" lon="3.54735">
        <ele>423.8</ele>
        <time>2026-05-10T08:41:01.000Z</time>
      </trkpt>
      <trkpt lat="45.85646" lon="3.54735">
        <ele>423.9</ele>
        <time>2026-05-10T08:41:02.000Z</time>
      </trkpt>
      <trkpt lat="45.85648" lon="3.54735">
        <ele>424.1</ele>
        <time>2026-05-10T08:41:03.000Z</time>
      </trkpt>
      <trkpt lat="45.85649" lon="3.54735">
        <ele>424.2</ele>
        <time>2026-05-10T08:41:04.000Z</time>
      </trkpt>
      <trkpt lat="45.8565" lon="3.54735">
        <ele>424.4</ele>
        <time>2026-05-10T08:41:05.000Z</time>
      </trkpt>
      <trkpt lat="45.85651" lon="3.54735">
        <ele>424.5</ele>
        <time>2026-05-10T08:41:06.000Z</time>
      </trkpt>
      <trkpt lat="45.85652" lon="3.54735">
        <ele>424.6</ele>
        <time>2026-05-10T08:41:07.000Z</time>
      </trkpt>
      <trkpt lat="45.85653" lon="3.54735">
        <ele>424.8</ele>
        <time>2026-05-10T08:41:08.000Z</time>
      </trkpt>
      <trkpt lat="45.85655" lon="3.54735">
        <ele>425</ele>
        <time>2026-05-10T08:41:09.000Z</time>
      </trkpt>
      <trkpt lat="45.85656" lon="3.54736">
        <ele>425.1</ele>
        <time>2026-05-10T08:41:10.000Z</time>
      </trkpt>
      <trkpt lat="45.85657" lon="3.54736">
        <ele>425.2</ele>
        <time>2026-05-10T08:41:11.000Z</time>
      </trkpt>
      <trkpt lat="45.85658" lon="3.54736">
        <ele>425.4</ele>
        <time>2026-05-10T08:41:12.000Z</time>
      </trkpt>
      <trkpt lat="45.85659" lon="3.54736">
        <ele>425.5</ele>
        <time>2026-05-10T08:41:13.000Z</time>
      </trkpt>
      <trkpt lat="45.8566" lon="3.54736">
        <ele>425.6</ele>
        <time>2026-05-10T08:41:14.000Z</time>
      </trkpt>
      <trkpt lat="45.8566" lon="3.54737">
        <ele>425.7</ele>
        <time>2026-05-10T08:41:15.000Z</time>
      </trkpt>
      <trkpt lat="45.85661" lon="3.54737">
        <ele>425.8</ele>
        <time>2026-05-10T08:41:16.000Z</time>
      </trkpt>
      <trkpt lat="45.85662" lon="3.54737">
        <ele>425.9</ele>
        <time>2026-05-10T08:41:17.000Z</time>
      </trkpt>
      <trkpt lat="45.85663" lon="3.54737">
        <ele>426</ele>
        <time>2026-05-10T08:41:18.000Z</time>
      </trkpt>
      <trkpt lat="45.85664" lon="3.54736">
        <ele>426.1</ele>
        <time>2026-05-10T08:41:19.000Z</time>
      </trkpt>
      <trkpt lat="45.85665" lon="3.54736">
        <ele>426.3</ele>
        <time>2026-05-10T08:41:20.000Z</time>
      </trkpt>
      <trkpt lat="45.85666" lon="3.54737">
        <ele>426.4</ele>
        <time>2026-05-10T08:41:21.000Z</time>
      </trkpt>
      <trkpt lat="45.85667" lon="3.54737">
        <ele>426.6</ele>
        <time>2026-05-10T08:41:22.000Z</time>
      </trkpt>
      <trkpt lat="45.85669" lon="3.54738">
        <ele>426.8</ele>
        <time>2026-05-10T08:41:23.000Z</time>
      </trkpt>
      <trkpt lat="45.85669" lon="3.54738">
        <ele>426.9</ele>
        <time>2026-05-10T08:41:24.000Z</time>
      </trkpt>
      <trkpt lat="45.8567" lon="3.54739">
        <ele>427</ele>
        <time>2026-05-10T08:41:25.000Z</time>
      </trkpt>
      <trkpt lat="45.85672" lon="3.54739">
        <ele>427.2</ele>
        <time>2026-05-10T08:41:26.000Z</time>
      </trkpt>
      <trkpt lat="45.85672" lon="3.54739">
        <ele>427.4</ele>
        <time>2026-05-10T08:41:27.000Z</time>
      </trkpt>
      <trkpt lat="45.85674" lon="3.54739">
        <ele>427.5</ele>
        <time>2026-05-10T08:41:28.000Z</time>
      </trkpt>
      <trkpt lat="45.85675" lon="3.54739">
        <ele>427.7</ele>
        <time>2026-05-10T08:41:29.000Z</time>
      </trkpt>
      <trkpt lat="45.85676" lon="3.5474">
        <ele>427.9</ele>
        <time>2026-05-10T08:41:30.000Z</time>
      </trkpt>
      <trkpt lat="45.85677" lon="3.54741">
        <ele>428.2</ele>
        <time>2026-05-10T08:41:31.000Z</time>
      </trkpt>
      <trkpt lat="45.85678" lon="3.54742">
        <ele>428.5</ele>
        <time>2026-05-10T08:41:32.000Z</time>
      </trkpt>
      <trkpt lat="45.85679" lon="3.54743">
        <ele>428.7</ele>
        <time>2026-05-10T08:41:33.000Z</time>
      </trkpt>
      <trkpt lat="45.85681" lon="3.54745">
        <ele>429</ele>
        <time>2026-05-10T08:41:34.000Z</time>
      </trkpt>
      <trkpt lat="45.85681" lon="3.54745">
        <ele>429.2</ele>
        <time>2026-05-10T08:41:35.000Z</time>
      </trkpt>
      <trkpt lat="45.85682" lon="3.54746">
        <ele>429.4</ele>
        <time>2026-05-10T08:41:36.000Z</time>
      </trkpt>
      <trkpt lat="45.85683" lon="3.54747">
        <ele>429.5</ele>
        <time>2026-05-10T08:41:37.000Z</time>
      </trkpt>
      <trkpt lat="45.85683" lon="3.54748">
        <ele>429.8</ele>
        <time>2026-05-10T08:41:38.000Z</time>
      </trkpt>
      <trkpt lat="45.85684" lon="3.5475">
        <ele>430.1</ele>
        <time>2026-05-10T08:41:39.000Z</time>
      </trkpt>
      <trkpt lat="45.85685" lon="3.54751">
        <ele>430.2</ele>
        <time>2026-05-10T08:41:40.000Z</time>
      </trkpt>
      <trkpt lat="45.85685" lon="3.54752">
        <ele>430.4</ele>
        <time>2026-05-10T08:41:41.000Z</time>
      </trkpt>
      <trkpt lat="45.85686" lon="3.54753">
        <ele>430.5</ele>
        <time>2026-05-10T08:41:42.000Z</time>
      </trkpt>
      <trkpt lat="45.85686" lon="3.54755">
        <ele>430.7</ele>
        <time>2026-05-10T08:41:43.000Z</time>
      </trkpt>
      <trkpt lat="45.85687" lon="3.54756">
        <ele>430.8</ele>
        <time>2026-05-10T08:41:44.000Z</time>
      </trkpt>
      <trkpt lat="45.85687" lon="3.54757">
        <ele>430.9</ele>
        <time>2026-05-10T08:41:45.000Z</time>
      </trkpt>
      <trkpt lat="45.85687" lon="3.54759">
        <ele>431</ele>
        <time>2026-05-10T08:41:46.000Z</time>
      </trkpt>
      <trkpt lat="45.85688" lon="3.5476">
        <ele>431.2</ele>
        <time>2026-05-10T08:41:47.000Z</time>
      </trkpt>
      <trkpt lat="45.85688" lon="3.54762">
        <ele>431.3</ele>
        <time>2026-05-10T08:41:48.000Z</time>
      </trkpt>
      <trkpt lat="45.85688" lon="3.54763">
        <ele>431.4</ele>
        <time>2026-05-10T08:41:49.000Z</time>
      </trkpt>
      <trkpt lat="45.85688" lon="3.54765">
        <ele>431.4</ele>
        <time>2026-05-10T08:41:50.000Z</time>
      </trkpt>
      <trkpt lat="45.85689" lon="3.54767">
        <ele>431.7</ele>
        <time>2026-05-10T08:41:51.000Z</time>
      </trkpt>
      <trkpt lat="45.8569" lon="3.54769">
        <ele>431.9</ele>
        <time>2026-05-10T08:41:52.000Z</time>
      </trkpt>
      <trkpt lat="45.85691" lon="3.5477">
        <ele>432</ele>
        <time>2026-05-10T08:41:53.000Z</time>
      </trkpt>
      <trkpt lat="45.85691" lon="3.54771">
        <ele>432.2</ele>
        <time>2026-05-10T08:41:54.000Z</time>
      </trkpt>
      <trkpt lat="45.85692" lon="3.54772">
        <ele>432.3</ele>
        <time>2026-05-10T08:41:55.000Z</time>
      </trkpt>
      <trkpt lat="45.85693" lon="3.54772">
        <ele>432.5</ele>
        <time>2026-05-10T08:41:56.000Z</time>
      </trkpt>
      <trkpt lat="45.85694" lon="3.54773">
        <ele>432.7</ele>
        <time>2026-05-10T08:41:57.000Z</time>
      </trkpt>
      <trkpt lat="45.85696" lon="3.54773">
        <ele>433</ele>
        <time>2026-05-10T08:41:58.000Z</time>
      </trkpt>
      <trkpt lat="45.85697" lon="3.54773">
        <ele>433.1</ele>
        <time>2026-05-10T08:41:59.000Z</time>
      </trkpt>
      <trkpt lat="45.85698" lon="3.54774">
        <ele>433.2</ele>
        <time>2026-05-10T08:42:00.000Z</time>
      </trkpt>
      <trkpt lat="45.85699" lon="3.54774">
        <ele>433.3</ele>
        <time>2026-05-10T08:42:01.000Z</time>
      </trkpt>
      <trkpt lat="45.857" lon="3.54774">
        <ele>433.4</ele>
        <time>2026-05-10T08:42:02.000Z</time>
      </trkpt>
      <trkpt lat="45.85699" lon="3.54774">
        <ele>433.4</ele>
        <time>2026-05-10T08:42:03.000Z</time>
      </trkpt>
      <trkpt lat="45.857" lon="3.54773">
        <ele>433.4</ele>
        <time>2026-05-10T08:42:04.000Z</time>
      </trkpt>
      <trkpt lat="45.857" lon="3.54773">
        <ele>433.4</ele>
        <time>2026-05-10T08:42:05.000Z</time>
      </trkpt>
      <trkpt lat="45.85699" lon="3.54773">
        <ele>433.4</ele>
        <time>2026-05-10T08:42:06.000Z</time>
      </trkpt>
      <trkpt lat="45.85699" lon="3.54773">
        <ele>433.3</ele>
        <time>2026-05-10T08:42:07.000Z</time>
      </trkpt>
      <trkpt lat="45.85699" lon="3.54773">
        <ele>433.3</ele>
        <time>2026-05-10T08:42:08.000Z</time>
      </trkpt>
      <trkpt lat="45.85699" lon="3.54773">
        <ele>433.3</ele>
        <time>2026-05-10T08:42:09.000Z</time>
      </trkpt>
      <trkpt lat="45.857" lon="3.54773">
        <ele>433.4</ele>
        <time>2026-05-10T08:42:10.000Z</time>
      </trkpt>
      <trkpt lat="45.857" lon="3.54772">
        <ele>433.4</ele>
        <time>2026-05-10T08:42:11.000Z</time>
      </trkpt>
      <trkpt lat="45.85701" lon="3.54771">
        <ele>433.4</ele>
        <time>2026-05-10T08:42:12.000Z</time>
      </trkpt>
      <trkpt lat="45.85701" lon="3.54771">
        <ele>433.4</ele>
        <time>2026-05-10T08:42:13.000Z</time>
      </trkpt>
      <trkpt lat="45.85701" lon="3.54771">
        <ele>433.5</ele>
        <time>2026-05-10T08:42:14.000Z</time>
      </trkpt>
      <trkpt lat="45.85702" lon="3.54771">
        <ele>433.5</ele>
        <time>2026-05-10T08:42:15.000Z</time>
      </trkpt>
      <trkpt lat="45.85702" lon="3.5477">
        <ele>433.6</ele>
        <time>2026-05-10T08:42:16.000Z</time>
      </trkpt>
      <trkpt lat="45.85703" lon="3.54769">
        <ele>433.6</ele>
        <time>2026-05-10T08:42:17.000Z</time>
      </trkpt>
      <trkpt lat="45.85704" lon="3.54768">
        <ele>433.7</ele>
        <time>2026-05-10T08:42:18.000Z</time>
      </trkpt>
      <trkpt lat="45.85705" lon="3.54767">
        <ele>433.7</ele>
        <time>2026-05-10T08:42:19.000Z</time>
      </trkpt>
      <trkpt lat="45.85706" lon="3.54765">
        <ele>433.8</ele>
        <time>2026-05-10T08:42:20.000Z</time>
      </trkpt>
      <trkpt lat="45.85707" lon="3.54764">
        <ele>433.9</ele>
        <time>2026-05-10T08:42:21.000Z</time>
      </trkpt>
      <trkpt lat="45.85708" lon="3.54763">
        <ele>434</ele>
        <time>2026-05-10T08:42:22.000Z</time>
      </trkpt>
      <trkpt lat="45.85709" lon="3.54763">
        <ele>434</ele>
        <time>2026-05-10T08:42:23.000Z</time>
      </trkpt>
      <trkpt lat="45.8571" lon="3.54762">
        <ele>434.1</ele>
        <time>2026-05-10T08:42:24.000Z</time>
      </trkpt>
      <trkpt lat="45.85712" lon="3.54761">
        <ele>434.3</ele>
        <time>2026-05-10T08:42:25.000Z</time>
      </trkpt>
      <trkpt lat="45.85713" lon="3.5476">
        <ele>434.4</ele>
        <time>2026-05-10T08:42:26.000Z</time>
      </trkpt>
      <trkpt lat="45.85714" lon="3.5476">
        <ele>434.5</ele>
        <time>2026-05-10T08:42:27.000Z</time>
      </trkpt>
      <trkpt lat="45.85715" lon="3.54759">
        <ele>434.5</ele>
        <time>2026-05-10T08:42:28.000Z</time>
      </trkpt>
      <trkpt lat="45.85716" lon="3.54759">
        <ele>434.7</ele>
        <time>2026-05-10T08:42:29.000Z</time>
      </trkpt>
      <trkpt lat="45.85717" lon="3.54759">
        <ele>434.8</ele>
        <time>2026-05-10T08:42:30.000Z</time>
      </trkpt>
      <trkpt lat="45.85718" lon="3.5476">
        <ele>434.9</ele>
        <time>2026-05-10T08:42:31.000Z</time>
      </trkpt>
      <trkpt lat="45.8572" lon="3.5476">
        <ele>435.1</ele>
        <time>2026-05-10T08:42:32.000Z</time>
      </trkpt>
      <trkpt lat="45.8572" lon="3.5476">
        <ele>435.2</ele>
        <time>2026-05-10T08:42:33.000Z</time>
      </trkpt>
      <trkpt lat="45.85721" lon="3.54761">
        <ele>435.2</ele>
        <time>2026-05-10T08:42:34.000Z</time>
      </trkpt>
      <trkpt lat="45.85722" lon="3.54762">
        <ele>435.4</ele>
        <time>2026-05-10T08:42:35.000Z</time>
      </trkpt>
      <trkpt lat="45.85723" lon="3.54763">
        <ele>435.6</ele>
        <time>2026-05-10T08:42:36.000Z</time>
      </trkpt>
      <trkpt lat="45.85724" lon="3.54764">
        <ele>435.9</ele>
        <time>2026-05-10T08:42:37.000Z</time>
      </trkpt>
      <trkpt lat="45.85725" lon="3.54765">
        <ele>436.1</ele>
        <time>2026-05-10T08:42:38.000Z</time>
      </trkpt>
      <trkpt lat="45.85725" lon="3.54766">
        <ele>436.2</ele>
        <time>2026-05-10T08:42:39.000Z</time>
      </trkpt>
      <trkpt lat="45.85726" lon="3.54768">
        <ele>436.4</ele>
        <time>2026-05-10T08:42:40.000Z</time>
      </trkpt>
      <trkpt lat="45.85727" lon="3.54769">
        <ele>436.6</ele>
        <time>2026-05-10T08:42:41.000Z</time>
      </trkpt>
      <trkpt lat="45.85727" lon="3.54771">
        <ele>436.8</ele>
        <time>2026-05-10T08:42:42.000Z</time>
      </trkpt>
      <trkpt lat="45.85728" lon="3.54772">
        <ele>436.9</ele>
        <time>2026-05-10T08:42:43.000Z</time>
      </trkpt>
      <trkpt lat="45.85728" lon="3.54773">
        <ele>437.1</ele>
        <time>2026-05-10T08:42:44.000Z</time>
      </trkpt>
      <trkpt lat="45.85728" lon="3.54775">
        <ele>437.2</ele>
        <time>2026-05-10T08:42:45.000Z</time>
      </trkpt>
      <trkpt lat="45.85729" lon="3.54776">
        <ele>437.3</ele>
        <time>2026-05-10T08:42:46.000Z</time>
      </trkpt>
      <trkpt lat="45.85729" lon="3.54778">
        <ele>437.4</ele>
        <time>2026-05-10T08:42:47.000Z</time>
      </trkpt>
      <trkpt lat="45.85729" lon="3.54779">
        <ele>437.4</ele>
        <time>2026-05-10T08:42:48.000Z</time>
      </trkpt>
      <trkpt lat="45.85729" lon="3.54781">
        <ele>437.5</ele>
        <time>2026-05-10T08:42:49.000Z</time>
      </trkpt>
      <trkpt lat="45.85729" lon="3.54782">
        <ele>437.5</ele>
        <time>2026-05-10T08:42:50.000Z</time>
      </trkpt>
      <trkpt lat="45.8573" lon="3.54784">
        <ele>437.6</ele>
        <time>2026-05-10T08:42:51.000Z</time>
      </trkpt>
      <trkpt lat="45.8573" lon="3.54786">
        <ele>437.7</ele>
        <time>2026-05-10T08:42:52.000Z</time>
      </trkpt>
      <trkpt lat="45.8573" lon="3.54788">
        <ele>437.7</ele>
        <time>2026-05-10T08:42:53.000Z</time>
      </trkpt>
      <trkpt lat="45.8573" lon="3.54789">
        <ele>437.7</ele>
        <time>2026-05-10T08:42:54.000Z</time>
      </trkpt>
      <trkpt lat="45.85731" lon="3.54791">
        <ele>437.8</ele>
        <time>2026-05-10T08:42:55.000Z</time>
      </trkpt>
      <trkpt lat="45.85731" lon="3.54792">
        <ele>437.8</ele>
        <time>2026-05-10T08:42:56.000Z</time>
      </trkpt>
      <trkpt lat="45.85731" lon="3.54794">
        <ele>437.8</ele>
        <time>2026-05-10T08:42:57.000Z</time>
      </trkpt>
      <trkpt lat="45.85731" lon="3.54795">
        <ele>437.9</ele>
        <time>2026-05-10T08:42:58.000Z</time>
      </trkpt>
      <trkpt lat="45.85731" lon="3.54796">
        <ele>437.9</ele>
        <time>2026-05-10T08:42:59.000Z</time>
      </trkpt>
      <trkpt lat="45.85731" lon="3.54797">
        <ele>437.9</ele>
        <time>2026-05-10T08:43:00.000Z</time>
      </trkpt>
      <trkpt lat="45.85732" lon="3.54799">
        <ele>438</ele>
        <time>2026-05-10T08:43:01.000Z</time>
      </trkpt>
      <trkpt lat="45.85733" lon="3.54801">
        <ele>438.2</ele>
        <time>2026-05-10T08:43:02.000Z</time>
      </trkpt>
      <trkpt lat="45.85733" lon="3.54803">
        <ele>438.3</ele>
        <time>2026-05-10T08:43:03.000Z</time>
      </trkpt>
      <trkpt lat="45.85733" lon="3.54805">
        <ele>438.4</ele>
        <time>2026-05-10T08:43:04.000Z</time>
      </trkpt>
      <trkpt lat="45.85733" lon="3.54806">
        <ele>438.4</ele>
        <time>2026-05-10T08:43:05.000Z</time>
      </trkpt>
      <trkpt lat="45.85734" lon="3.54808">
        <ele>438.4</ele>
        <time>2026-05-10T08:43:06.000Z</time>
      </trkpt>
      <trkpt lat="45.85735" lon="3.5481">
        <ele>438.6</ele>
        <time>2026-05-10T08:43:07.000Z</time>
      </trkpt>
      <trkpt lat="45.85736" lon="3.54811">
        <ele>438.8</ele>
        <time>2026-05-10T08:43:08.000Z</time>
      </trkpt>
      <trkpt lat="45.85736" lon="3.54813">
        <ele>438.9</ele>
        <time>2026-05-10T08:43:09.000Z</time>
      </trkpt>
      <trkpt lat="45.85736" lon="3.54814">
        <ele>438.9</ele>
        <time>2026-05-10T08:43:10.000Z</time>
      </trkpt>
      <trkpt lat="45.85737" lon="3.54816">
        <ele>439</ele>
        <time>2026-05-10T08:43:11.000Z</time>
      </trkpt>
      <trkpt lat="45.85738" lon="3.54817">
        <ele>439.1</ele>
        <time>2026-05-10T08:43:12.000Z</time>
      </trkpt>
      <trkpt lat="45.85738" lon="3.54818">
        <ele>439.3</ele>
        <time>2026-05-10T08:43:13.000Z</time>
      </trkpt>
      <trkpt lat="45.85739" lon="3.54819">
        <ele>439.5</ele>
        <time>2026-05-10T08:43:14.000Z</time>
      </trkpt>
      <trkpt lat="45.85741" lon="3.5482">
        <ele>439.8</ele>
        <time>2026-05-10T08:43:15.000Z</time>
      </trkpt>
      <trkpt lat="45.85741" lon="3.54821">
        <ele>439.9</ele>
        <time>2026-05-10T08:43:16.000Z</time>
      </trkpt>
      <trkpt lat="45.85742" lon="3.54822">
        <ele>440.1</ele>
        <time>2026-05-10T08:43:17.000Z</time>
      </trkpt>
      <trkpt lat="45.85743" lon="3.54823">
        <ele>440.4</ele>
        <time>2026-05-10T08:43:18.000Z</time>
      </trkpt>
      <trkpt lat="45.85745" lon="3.54824">
        <ele>440.7</ele>
        <time>2026-05-10T08:43:19.000Z</time>
      </trkpt>
      <trkpt lat="45.85746" lon="3.54825">
        <ele>441</ele>
        <time>2026-05-10T08:43:20.000Z</time>
      </trkpt>
      <trkpt lat="45.85747" lon="3.54826">
        <ele>441.3</ele>
        <time>2026-05-10T08:43:21.000Z</time>
      </trkpt>
      <trkpt lat="45.85748" lon="3.54827">
        <ele>441.5</ele>
        <time>2026-05-10T08:43:22.000Z</time>
      </trkpt>
      <trkpt lat="45.85748" lon="3.54828">
        <ele>441.5</ele>
        <time>2026-05-10T08:43:23.000Z</time>
      </trkpt>
      <trkpt lat="45.8575" lon="3.54829">
        <ele>441.9</ele>
        <time>2026-05-10T08:43:24.000Z</time>
      </trkpt>
      <trkpt lat="45.85751" lon="3.5483">
        <ele>442.2</ele>
        <time>2026-05-10T08:43:25.000Z</time>
      </trkpt>
      <trkpt lat="45.85752" lon="3.54831">
        <ele>442.4</ele>
        <time>2026-05-10T08:43:26.000Z</time>
      </trkpt>
      <trkpt lat="45.85753" lon="3.54833">
        <ele>442.6</ele>
        <time>2026-05-10T08:43:27.000Z</time>
      </trkpt>
      <trkpt lat="45.85753" lon="3.54833">
        <ele>442.7</ele>
        <time>2026-05-10T08:43:28.000Z</time>
      </trkpt>
      <trkpt lat="45.85754" lon="3.54835">
        <ele>442.9</ele>
        <time>2026-05-10T08:43:29.000Z</time>
      </trkpt>
      <trkpt lat="45.85755" lon="3.54836">
        <ele>443</ele>
        <time>2026-05-10T08:43:30.000Z</time>
      </trkpt>
      <trkpt lat="45.85756" lon="3.54837">
        <ele>443.2</ele>
        <time>2026-05-10T08:43:31.000Z</time>
      </trkpt>
      <trkpt lat="45.85757" lon="3.54838">
        <ele>443.3</ele>
        <time>2026-05-10T08:43:32.000Z</time>
      </trkpt>
      <trkpt lat="45.85757" lon="3.54839">
        <ele>443.3</ele>
        <time>2026-05-10T08:43:33.000Z</time>
      </trkpt>
      <trkpt lat="45.85758" lon="3.54841">
        <ele>443.4</ele>
        <time>2026-05-10T08:43:34.000Z</time>
      </trkpt>
      <trkpt lat="45.85759" lon="3.54842">
        <ele>443.6</ele>
        <time>2026-05-10T08:43:35.000Z</time>
      </trkpt>
      <trkpt lat="45.8576" lon="3.54843">
        <ele>443.7</ele>
        <time>2026-05-10T08:43:36.000Z</time>
      </trkpt>
      <trkpt lat="45.8576" lon="3.54845">
        <ele>443.7</ele>
        <time>2026-05-10T08:43:37.000Z</time>
      </trkpt>
      <trkpt lat="45.85761" lon="3.54846">
        <ele>443.9</ele>
        <time>2026-05-10T08:43:38.000Z</time>
      </trkpt>
      <trkpt lat="45.85762" lon="3.54847">
        <ele>444</ele>
        <time>2026-05-10T08:43:39.000Z</time>
      </trkpt>
      <trkpt lat="45.85762" lon="3.54848">
        <ele>444.2</ele>
        <time>2026-05-10T08:43:40.000Z</time>
      </trkpt>
      <trkpt lat="45.85763" lon="3.54849">
        <ele>444.3</ele>
        <time>2026-05-10T08:43:41.000Z</time>
      </trkpt>
      <trkpt lat="45.85764" lon="3.5485">
        <ele>444.4</ele>
        <time>2026-05-10T08:43:42.000Z</time>
      </trkpt>
      <trkpt lat="45.85765" lon="3.54851">
        <ele>444.5</ele>
        <time>2026-05-10T08:43:43.000Z</time>
      </trkpt>
      <trkpt lat="45.85765" lon="3.54853">
        <ele>444.6</ele>
        <time>2026-05-10T08:43:44.000Z</time>
      </trkpt>
      <trkpt lat="45.85766" lon="3.54854">
        <ele>444.7</ele>
        <time>2026-05-10T08:43:45.000Z</time>
      </trkpt>
      <trkpt lat="45.85767" lon="3.54855">
        <ele>444.8</ele>
        <time>2026-05-10T08:43:46.000Z</time>
      </trkpt>
      <trkpt lat="45.85767" lon="3.54856">
        <ele>444.9</ele>
        <time>2026-05-10T08:43:47.000Z</time>
      </trkpt>
      <trkpt lat="45.85768" lon="3.54857">
        <ele>445.1</ele>
        <time>2026-05-10T08:43:48.000Z</time>
      </trkpt>
      <trkpt lat="45.85769" lon="3.54859">
        <ele>445.1</ele>
        <time>2026-05-10T08:43:49.000Z</time>
      </trkpt>
      <trkpt lat="45.85769" lon="3.54861">
        <ele>445.1</ele>
        <time>2026-05-10T08:43:50.000Z</time>
      </trkpt>
      <trkpt lat="45.8577" lon="3.54862">
        <ele>445.2</ele>
        <time>2026-05-10T08:43:51.000Z</time>
      </trkpt>
      <trkpt lat="45.8577" lon="3.54864">
        <ele>445.3</ele>
        <time>2026-05-10T08:43:52.000Z</time>
      </trkpt>
      <trkpt lat="45.8577" lon="3.54866">
        <ele>445.4</ele>
        <time>2026-05-10T08:43:53.000Z</time>
      </trkpt>
      <trkpt lat="45.85771" lon="3.54868">
        <ele>445.5</ele>
        <time>2026-05-10T08:43:54.000Z</time>
      </trkpt>
      <trkpt lat="45.85772" lon="3.5487">
        <ele>445.7</ele>
        <time>2026-05-10T08:43:55.000Z</time>
      </trkpt>
      <trkpt lat="45.85772" lon="3.54872">
        <ele>445.9</ele>
        <time>2026-05-10T08:43:56.000Z</time>
      </trkpt>
      <trkpt lat="45.85773" lon="3.54873">
        <ele>446</ele>
        <time>2026-05-10T08:43:57.000Z</time>
      </trkpt>
      <trkpt lat="45.85774" lon="3.54874">
        <ele>446.2</ele>
        <time>2026-05-10T08:43:58.000Z</time>
      </trkpt>
      <trkpt lat="45.85775" lon="3.54875">
        <ele>446.4</ele>
        <time>2026-05-10T08:43:59.000Z</time>
      </trkpt>
      <trkpt lat="45.85775" lon="3.54877">
        <ele>446.5</ele>
        <time>2026-05-10T08:44:00.000Z</time>
      </trkpt>
      <trkpt lat="45.85776" lon="3.54877">
        <ele>446.7</ele>
        <time>2026-05-10T08:44:01.000Z</time>
      </trkpt>
      <trkpt lat="45.85776" lon="3.54878">
        <ele>446.7</ele>
        <time>2026-05-10T08:44:02.000Z</time>
      </trkpt>
      <trkpt lat="45.85777" lon="3.54879">
        <ele>446.9</ele>
        <time>2026-05-10T08:44:03.000Z</time>
      </trkpt>
      <trkpt lat="45.85778" lon="3.54879">
        <ele>447</ele>
        <time>2026-05-10T08:44:04.000Z</time>
      </trkpt>
      <trkpt lat="45.85779" lon="3.5488">
        <ele>447.2</ele>
        <time>2026-05-10T08:44:05.000Z</time>
      </trkpt>
      <trkpt lat="45.8578" lon="3.54881">
        <ele>447.5</ele>
        <time>2026-05-10T08:44:06.000Z</time>
      </trkpt>
      <trkpt lat="45.85782" lon="3.54881">
        <ele>447.8</ele>
        <time>2026-05-10T08:44:07.000Z</time>
      </trkpt>
      <trkpt lat="45.85783" lon="3.54882">
        <ele>448.1</ele>
        <time>2026-05-10T08:44:08.000Z</time>
      </trkpt>
      <trkpt lat="45.85785" lon="3.54882">
        <ele>448.4</ele>
        <time>2026-05-10T08:44:09.000Z</time>
      </trkpt>
      <trkpt lat="45.85786" lon="3.54882">
        <ele>448.7</ele>
        <time>2026-05-10T08:44:10.000Z</time>
      </trkpt>
      <trkpt lat="45.85787" lon="3.54882">
        <ele>448.8</ele>
        <time>2026-05-10T08:44:11.000Z</time>
      </trkpt>
      <trkpt lat="45.85788" lon="3.54882">
        <ele>449.1</ele>
        <time>2026-05-10T08:44:12.000Z</time>
      </trkpt>
      <trkpt lat="45.8579" lon="3.54883">
        <ele>449.3</ele>
        <time>2026-05-10T08:44:13.000Z</time>
      </trkpt>
      <trkpt lat="45.85791" lon="3.54883">
        <ele>449.6</ele>
        <time>2026-05-10T08:44:14.000Z</time>
      </trkpt>
      <trkpt lat="45.85792" lon="3.54883">
        <ele>449.8</ele>
        <time>2026-05-10T08:44:15.000Z</time>
      </trkpt>
      <trkpt lat="45.85793" lon="3.54883">
        <ele>450</ele>
        <time>2026-05-10T08:44:16.000Z</time>
      </trkpt>
      <trkpt lat="45.85795" lon="3.54883">
        <ele>450.3</ele>
        <time>2026-05-10T08:44:17.000Z</time>
      </trkpt>
      <trkpt lat="45.85796" lon="3.54883">
        <ele>450.6</ele>
        <time>2026-05-10T08:44:18.000Z</time>
      </trkpt>
      <trkpt lat="45.85798" lon="3.54883">
        <ele>450.9</ele>
        <time>2026-05-10T08:44:19.000Z</time>
      </trkpt>
      <trkpt lat="45.85799" lon="3.54883">
        <ele>451.2</ele>
        <time>2026-05-10T08:44:20.000Z</time>
      </trkpt>
      <trkpt lat="45.85801" lon="3.54883">
        <ele>451.5</ele>
        <time>2026-05-10T08:44:21.000Z</time>
      </trkpt>
      <trkpt lat="45.85802" lon="3.54882">
        <ele>451.8</ele>
        <time>2026-05-10T08:44:22.000Z</time>
      </trkpt>
      <trkpt lat="45.85803" lon="3.54882">
        <ele>452</ele>
        <time>2026-05-10T08:44:23.000Z</time>
      </trkpt>
      <trkpt lat="45.85804" lon="3.54882">
        <ele>452.2</ele>
        <time>2026-05-10T08:44:24.000Z</time>
      </trkpt>
      <trkpt lat="45.85805" lon="3.54882">
        <ele>452.5</ele>
        <time>2026-05-10T08:44:25.000Z</time>
      </trkpt>
      <trkpt lat="45.85806" lon="3.54882">
        <ele>452.6</ele>
        <time>2026-05-10T08:44:26.000Z</time>
      </trkpt>
      <trkpt lat="45.85808" lon="3.54881">
        <ele>452.7</ele>
        <time>2026-05-10T08:44:27.000Z</time>
      </trkpt>
      <trkpt lat="45.85809" lon="3.54881">
        <ele>452.9</ele>
        <time>2026-05-10T08:44:28.000Z</time>
      </trkpt>
      <trkpt lat="45.85811" lon="3.5488">
        <ele>453.1</ele>
        <time>2026-05-10T08:44:29.000Z</time>
      </trkpt>
      <trkpt lat="45.85812" lon="3.54879">
        <ele>453.2</ele>
        <time>2026-05-10T08:44:30.000Z</time>
      </trkpt>
      <trkpt lat="45.85813" lon="3.54879">
        <ele>453.4</ele>
        <time>2026-05-10T08:44:31.000Z</time>
      </trkpt>
      <trkpt lat="45.85814" lon="3.54878">
        <ele>453.5</ele>
        <time>2026-05-10T08:44:32.000Z</time>
      </trkpt>
      <trkpt lat="45.85815" lon="3.54878">
        <ele>453.6</ele>
        <time>2026-05-10T08:44:33.000Z</time>
      </trkpt>
      <trkpt lat="45.85816" lon="3.54877">
        <ele>453.7</ele>
        <time>2026-05-10T08:44:34.000Z</time>
      </trkpt>
      <trkpt lat="45.85817" lon="3.54877">
        <ele>453.8</ele>
        <time>2026-05-10T08:44:35.000Z</time>
      </trkpt>
      <trkpt lat="45.85817" lon="3.54877">
        <ele>453.9</ele>
        <time>2026-05-10T08:44:36.000Z</time>
      </trkpt>
      <trkpt lat="45.85818" lon="3.54877">
        <ele>454</ele>
        <time>2026-05-10T08:44:37.000Z</time>
      </trkpt>
      <trkpt lat="45.85819" lon="3.54876">
        <ele>454.1</ele>
        <time>2026-05-10T08:44:38.000Z</time>
      </trkpt>
      <trkpt lat="45.8582" lon="3.54876">
        <ele>454.3</ele>
        <time>2026-05-10T08:44:39.000Z</time>
      </trkpt>
      <trkpt lat="45.85822" lon="3.54875">
        <ele>454.4</ele>
        <time>2026-05-10T08:44:40.000Z</time>
      </trkpt>
      <trkpt lat="45.85823" lon="3.54875">
        <ele>454.6</ele>
        <time>2026-05-10T08:44:41.000Z</time>
      </trkpt>
      <trkpt lat="45.85824" lon="3.54874">
        <ele>454.7</ele>
        <time>2026-05-10T08:44:42.000Z</time>
      </trkpt>
      <trkpt lat="45.85825" lon="3.54874">
        <ele>454.8</ele>
        <time>2026-05-10T08:44:43.000Z</time>
      </trkpt>
      <trkpt lat="45.85826" lon="3.54874">
        <ele>455</ele>
        <time>2026-05-10T08:44:44.000Z</time>
      </trkpt>
      <trkpt lat="45.85827" lon="3.54873">
        <ele>455.1</ele>
        <time>2026-05-10T08:44:45.000Z</time>
      </trkpt>
      <trkpt lat="45.85828" lon="3.54873">
        <ele>455.3</ele>
        <time>2026-05-10T08:44:46.000Z</time>
      </trkpt>
      <trkpt lat="45.8583" lon="3.54872">
        <ele>455.5</ele>
        <time>2026-05-10T08:44:47.000Z</time>
      </trkpt>
      <trkpt lat="45.85831" lon="3.54872">
        <ele>455.7</ele>
        <time>2026-05-10T08:44:48.000Z</time>
      </trkpt>
      <trkpt lat="45.85832" lon="3.54871">
        <ele>455.8</ele>
        <time>2026-05-10T08:44:49.000Z</time>
      </trkpt>
      <trkpt lat="45.85834" lon="3.54871">
        <ele>456</ele>
        <time>2026-05-10T08:44:50.000Z</time>
      </trkpt>
      <trkpt lat="45.85835" lon="3.5487">
        <ele>456.1</ele>
        <time>2026-05-10T08:44:51.000Z</time>
      </trkpt>
      <trkpt lat="45.85836" lon="3.5487">
        <ele>456.2</ele>
        <time>2026-05-10T08:44:52.000Z</time>
      </trkpt>
      <trkpt lat="45.85837" lon="3.5487">
        <ele>456.4</ele>
        <time>2026-05-10T08:44:53.000Z</time>
      </trkpt>
      <trkpt lat="45.85837" lon="3.54869">
        <ele>456.5</ele>
        <time>2026-05-10T08:44:54.000Z</time>
      </trkpt>
      <trkpt lat="45.8584" lon="3.54869">
        <ele>456.7</ele>
        <time>2026-05-10T08:44:55.000Z</time>
      </trkpt>
      <trkpt lat="45.85841" lon="3.54869">
        <ele>456.8</ele>
        <time>2026-05-10T08:44:56.000Z</time>
      </trkpt>
      <trkpt lat="45.85842" lon="3.54869">
        <ele>456.9</ele>
        <time>2026-05-10T08:44:57.000Z</time>
      </trkpt>
      <trkpt lat="45.85843" lon="3.54869">
        <ele>457</ele>
        <time>2026-05-10T08:44:58.000Z</time>
      </trkpt>
      <trkpt lat="45.85844" lon="3.54869">
        <ele>457.1</ele>
        <time>2026-05-10T08:44:59.000Z</time>
      </trkpt>
      <trkpt lat="45.85846" lon="3.54869">
        <ele>457.3</ele>
        <time>2026-05-10T08:45:00.000Z</time>
      </trkpt>
      <trkpt lat="45.85847" lon="3.54869">
        <ele>457.4</ele>
        <time>2026-05-10T08:45:01.000Z</time>
      </trkpt>
      <trkpt lat="45.85848" lon="3.54868">
        <ele>457.6</ele>
        <time>2026-05-10T08:45:02.000Z</time>
      </trkpt>
      <trkpt lat="45.8585" lon="3.54868">
        <ele>457.7</ele>
        <time>2026-05-10T08:45:03.000Z</time>
      </trkpt>
      <trkpt lat="45.85851" lon="3.54868">
        <ele>457.8</ele>
        <time>2026-05-10T08:45:04.000Z</time>
      </trkpt>
      <trkpt lat="45.85851" lon="3.54868">
        <ele>457.9</ele>
        <time>2026-05-10T08:45:05.000Z</time>
      </trkpt>
      <trkpt lat="45.85852" lon="3.54867">
        <ele>458</ele>
        <time>2026-05-10T08:45:06.000Z</time>
      </trkpt>
      <trkpt lat="45.85853" lon="3.54866">
        <ele>458.2</ele>
        <time>2026-05-10T08:45:07.000Z</time>
      </trkpt>
      <trkpt lat="45.85854" lon="3.54865">
        <ele>458.3</ele>
        <time>2026-05-10T08:45:08.000Z</time>
      </trkpt>
      <trkpt lat="45.85856" lon="3.54864">
        <ele>458.5</ele>
        <time>2026-05-10T08:45:09.000Z</time>
      </trkpt>
      <trkpt lat="45.85857" lon="3.54864">
        <ele>458.6</ele>
        <time>2026-05-10T08:45:10.000Z</time>
      </trkpt>
      <trkpt lat="45.85858" lon="3.54863">
        <ele>458.7</ele>
        <time>2026-05-10T08:45:11.000Z</time>
      </trkpt>
      <trkpt lat="45.85859" lon="3.54862">
        <ele>458.8</ele>
        <time>2026-05-10T08:45:12.000Z</time>
      </trkpt>
      <trkpt lat="45.8586" lon="3.54861">
        <ele>458.9</ele>
        <time>2026-05-10T08:45:13.000Z</time>
      </trkpt>
      <trkpt lat="45.85862" lon="3.5486">
        <ele>459.1</ele>
        <time>2026-05-10T08:45:14.000Z</time>
      </trkpt>
      <trkpt lat="45.85863" lon="3.5486">
        <ele>459.3</ele>
        <time>2026-05-10T08:45:15.000Z</time>
      </trkpt>
      <trkpt lat="45.85864" lon="3.54859">
        <ele>459.4</ele>
        <time>2026-05-10T08:45:16.000Z</time>
      </trkpt>
      <trkpt lat="45.85865" lon="3.54858">
        <ele>459.6</ele>
        <time>2026-05-10T08:45:17.000Z</time>
      </trkpt>
      <trkpt lat="45.85866" lon="3.54856">
        <ele>459.7</ele>
        <time>2026-05-10T08:45:18.000Z</time>
      </trkpt>
      <trkpt lat="45.85866" lon="3.54855">
        <ele>459.8</ele>
        <time>2026-05-10T08:45:19.000Z</time>
      </trkpt>
      <trkpt lat="45.85868" lon="3.54855">
        <ele>460</ele>
        <time>2026-05-10T08:45:20.000Z</time>
      </trkpt>
      <trkpt lat="45.85869" lon="3.54854">
        <ele>460.2</ele>
        <time>2026-05-10T08:45:21.000Z</time>
      </trkpt>
      <trkpt lat="45.8587" lon="3.54853">
        <ele>460.3</ele>
        <time>2026-05-10T08:45:22.000Z</time>
      </trkpt>
      <trkpt lat="45.85871" lon="3.54852">
        <ele>460.5</ele>
        <time>2026-05-10T08:45:23.000Z</time>
      </trkpt>
      <trkpt lat="45.85872" lon="3.54852">
        <ele>460.7</ele>
        <time>2026-05-10T08:45:24.000Z</time>
      </trkpt>
      <trkpt lat="45.85873" lon="3.54851">
        <ele>460.8</ele>
        <time>2026-05-10T08:45:25.000Z</time>
      </trkpt>
      <trkpt lat="45.85874" lon="3.54849">
        <ele>461</ele>
        <time>2026-05-10T08:45:26.000Z</time>
      </trkpt>
      <trkpt lat="45.85875" lon="3.54849">
        <ele>461.2</ele>
        <time>2026-05-10T08:45:27.000Z</time>
      </trkpt>
      <trkpt lat="45.85877" lon="3.54848">
        <ele>461.4</ele>
        <time>2026-05-10T08:45:28.000Z</time>
      </trkpt>
      <trkpt lat="45.85878" lon="3.54848">
        <ele>461.6</ele>
        <time>2026-05-10T08:45:29.000Z</time>
      </trkpt>
      <trkpt lat="45.85879" lon="3.54847">
        <ele>461.8</ele>
        <time>2026-05-10T08:45:30.000Z</time>
      </trkpt>
      <trkpt lat="45.85881" lon="3.54847">
        <ele>462</ele>
        <time>2026-05-10T08:45:31.000Z</time>
      </trkpt>
      <trkpt lat="45.85882" lon="3.54847">
        <ele>462.2</ele>
        <time>2026-05-10T08:45:32.000Z</time>
      </trkpt>
      <trkpt lat="45.85883" lon="3.54846">
        <ele>462.3</ele>
        <time>2026-05-10T08:45:33.000Z</time>
      </trkpt>
      <trkpt lat="45.85885" lon="3.54846">
        <ele>462.5</ele>
        <time>2026-05-10T08:45:34.000Z</time>
      </trkpt>
      <trkpt lat="45.85886" lon="3.54845">
        <ele>462.8</ele>
        <time>2026-05-10T08:45:35.000Z</time>
      </trkpt>
      <trkpt lat="45.85887" lon="3.54844">
        <ele>463</ele>
        <time>2026-05-10T08:45:36.000Z</time>
      </trkpt>
      <trkpt lat="45.85889" lon="3.54844">
        <ele>463.3</ele>
        <time>2026-05-10T08:45:37.000Z</time>
      </trkpt>
      <trkpt lat="45.8589" lon="3.54843">
        <ele>463.4</ele>
        <time>2026-05-10T08:45:38.000Z</time>
      </trkpt>
      <trkpt lat="45.85892" lon="3.54842">
        <ele>463.6</ele>
        <time>2026-05-10T08:45:39.000Z</time>
      </trkpt>
      <trkpt lat="45.85893" lon="3.54841">
        <ele>463.7</ele>
        <time>2026-05-10T08:45:40.000Z</time>
      </trkpt>
      <trkpt lat="45.85894" lon="3.54841">
        <ele>463.8</ele>
        <time>2026-05-10T08:45:41.000Z</time>
      </trkpt>
      <trkpt lat="45.85896" lon="3.5484">
        <ele>463.9</ele>
        <time>2026-05-10T08:45:42.000Z</time>
      </trkpt>
      <trkpt lat="45.85897" lon="3.54839">
        <ele>464.1</ele>
        <time>2026-05-10T08:45:43.000Z</time>
      </trkpt>
      <trkpt lat="45.85898" lon="3.54839">
        <ele>464.2</ele>
        <time>2026-05-10T08:45:44.000Z</time>
      </trkpt>
      <trkpt lat="45.85899" lon="3.54838">
        <ele>464.3</ele>
        <time>2026-05-10T08:45:45.000Z</time>
      </trkpt>
      <trkpt lat="45.859" lon="3.54837">
        <ele>464.4</ele>
        <time>2026-05-10T08:45:46.000Z</time>
      </trkpt>
      <trkpt lat="45.85901" lon="3.54837">
        <ele>464.6</ele>
        <time>2026-05-10T08:45:47.000Z</time>
      </trkpt>
      <trkpt lat="45.85903" lon="3.54836">
        <ele>464.7</ele>
        <time>2026-05-10T08:45:48.000Z</time>
      </trkpt>
      <trkpt lat="45.85904" lon="3.54836">
        <ele>464.9</ele>
        <time>2026-05-10T08:45:49.000Z</time>
      </trkpt>
      <trkpt lat="45.85905" lon="3.54835">
        <ele>465</ele>
        <time>2026-05-10T08:45:50.000Z</time>
      </trkpt>
      <trkpt lat="45.85907" lon="3.54835">
        <ele>465.1</ele>
        <time>2026-05-10T08:45:51.000Z</time>
      </trkpt>
      <trkpt lat="45.85908" lon="3.54835">
        <ele>465.2</ele>
        <time>2026-05-10T08:45:52.000Z</time>
      </trkpt>
      <trkpt lat="45.85909" lon="3.54835">
        <ele>465.3</ele>
        <time>2026-05-10T08:45:53.000Z</time>
      </trkpt>
      <trkpt lat="45.8591" lon="3.54835">
        <ele>465.4</ele>
        <time>2026-05-10T08:45:54.000Z</time>
      </trkpt>
      <trkpt lat="45.85912" lon="3.54835">
        <ele>465.5</ele>
        <time>2026-05-10T08:45:55.000Z</time>
      </trkpt>
      <trkpt lat="45.85913" lon="3.54835">
        <ele>465.6</ele>
        <time>2026-05-10T08:45:56.000Z</time>
      </trkpt>
      <trkpt lat="45.85915" lon="3.54834">
        <ele>465.7</ele>
        <time>2026-05-10T08:45:57.000Z</time>
      </trkpt>
      <trkpt lat="45.85916" lon="3.54834">
        <ele>465.9</ele>
        <time>2026-05-10T08:45:58.000Z</time>
      </trkpt>
      <trkpt lat="45.85917" lon="3.54834">
        <ele>466</ele>
        <time>2026-05-10T08:45:59.000Z</time>
      </trkpt>
      <trkpt lat="45.85918" lon="3.54833">
        <ele>466.1</ele>
        <time>2026-05-10T08:46:00.000Z</time>
      </trkpt>
      <trkpt lat="45.85919" lon="3.54833">
        <ele>466.3</ele>
        <time>2026-05-10T08:46:01.000Z</time>
      </trkpt>
      <trkpt lat="45.8592" lon="3.54833">
        <ele>466.5</ele>
        <time>2026-05-10T08:46:02.000Z</time>
      </trkpt>
      <trkpt lat="45.85921" lon="3.54833">
        <ele>466.7</ele>
        <time>2026-05-10T08:46:03.000Z</time>
      </trkpt>
      <trkpt lat="45.85923" lon="3.54832">
        <ele>466.9</ele>
        <time>2026-05-10T08:46:04.000Z</time>
      </trkpt>
      <trkpt lat="45.85924" lon="3.54832">
        <ele>467.1</ele>
        <time>2026-05-10T08:46:05.000Z</time>
      </trkpt>
      <trkpt lat="45.85926" lon="3.54832">
        <ele>467.3</ele>
        <time>2026-05-10T08:46:06.000Z</time>
      </trkpt>
      <trkpt lat="45.85927" lon="3.54832">
        <ele>467.6</ele>
        <time>2026-05-10T08:46:07.000Z</time>
      </trkpt>
      <trkpt lat="45.85929" lon="3.54832">
        <ele>467.8</ele>
        <time>2026-05-10T08:46:08.000Z</time>
      </trkpt>
      <trkpt lat="45.85931" lon="3.54833">
        <ele>468</ele>
        <time>2026-05-10T08:46:09.000Z</time>
      </trkpt>
      <trkpt lat="45.85932" lon="3.54833">
        <ele>468.2</ele>
        <time>2026-05-10T08:46:10.000Z</time>
      </trkpt>
      <trkpt lat="45.85933" lon="3.54833">
        <ele>468.4</ele>
        <time>2026-05-10T08:46:11.000Z</time>
      </trkpt>
      <trkpt lat="45.85934" lon="3.54834">
        <ele>468.5</ele>
        <time>2026-05-10T08:46:12.000Z</time>
      </trkpt>
      <trkpt lat="45.85936" lon="3.54834">
        <ele>468.6</ele>
        <time>2026-05-10T08:46:13.000Z</time>
      </trkpt>
      <trkpt lat="45.85937" lon="3.54835">
        <ele>468.9</ele>
        <time>2026-05-10T08:46:14.000Z</time>
      </trkpt>
      <trkpt lat="45.85939" lon="3.54835">
        <ele>469.1</ele>
        <time>2026-05-10T08:46:15.000Z</time>
      </trkpt>
      <trkpt lat="45.8594" lon="3.54836">
        <ele>469.3</ele>
        <time>2026-05-10T08:46:16.000Z</time>
      </trkpt>
      <trkpt lat="45.85942" lon="3.54836">
        <ele>469.4</ele>
        <time>2026-05-10T08:46:17.000Z</time>
      </trkpt>
      <trkpt lat="45.85943" lon="3.54837">
        <ele>469.6</ele>
        <time>2026-05-10T08:46:18.000Z</time>
      </trkpt>
      <trkpt lat="45.85944" lon="3.54838">
        <ele>469.7</ele>
        <time>2026-05-10T08:46:19.000Z</time>
      </trkpt>
      <trkpt lat="45.85946" lon="3.54838">
        <ele>469.7</ele>
        <time>2026-05-10T08:46:20.000Z</time>
      </trkpt>
      <trkpt lat="45.85947" lon="3.54839">
        <ele>469.8</ele>
        <time>2026-05-10T08:46:21.000Z</time>
      </trkpt>
      <trkpt lat="45.85948" lon="3.54839">
        <ele>469.9</ele>
        <time>2026-05-10T08:46:22.000Z</time>
      </trkpt>
      <trkpt lat="45.8595" lon="3.5484">
        <ele>470</ele>
        <time>2026-05-10T08:46:23.000Z</time>
      </trkpt>
      <trkpt lat="45.85951" lon="3.5484">
        <ele>470.1</ele>
        <time>2026-05-10T08:46:24.000Z</time>
      </trkpt>
      <trkpt lat="45.85953" lon="3.54841">
        <ele>470.2</ele>
        <time>2026-05-10T08:46:25.000Z</time>
      </trkpt>
      <trkpt lat="45.85954" lon="3.54841">
        <ele>470.3</ele>
        <time>2026-05-10T08:46:26.000Z</time>
      </trkpt>
      <trkpt lat="45.85955" lon="3.54842">
        <ele>470.4</ele>
        <time>2026-05-10T08:46:27.000Z</time>
      </trkpt>
      <trkpt lat="45.85956" lon="3.54842">
        <ele>470.5</ele>
        <time>2026-05-10T08:46:28.000Z</time>
      </trkpt>
      <trkpt lat="45.85958" lon="3.54843">
        <ele>470.6</ele>
        <time>2026-05-10T08:46:29.000Z</time>
      </trkpt>
      <trkpt lat="45.85959" lon="3.54843">
        <ele>470.7</ele>
        <time>2026-05-10T08:46:30.000Z</time>
      </trkpt>
      <trkpt lat="45.8596" lon="3.54843">
        <ele>470.8</ele>
        <time>2026-05-10T08:46:31.000Z</time>
      </trkpt>
      <trkpt lat="45.85961" lon="3.54842">
        <ele>470.9</ele>
        <time>2026-05-10T08:46:32.000Z</time>
      </trkpt>
      <trkpt lat="45.85962" lon="3.54841">
        <ele>471.1</ele>
        <time>2026-05-10T08:46:33.000Z</time>
      </trkpt>
      <trkpt lat="45.85963" lon="3.54839">
        <ele>471.2</ele>
        <time>2026-05-10T08:46:34.000Z</time>
      </trkpt>
      <trkpt lat="45.85964" lon="3.54837">
        <ele>471.3</ele>
        <time>2026-05-10T08:46:35.000Z</time>
      </trkpt>
      <trkpt lat="45.85965" lon="3.54835">
        <ele>471.4</ele>
        <time>2026-05-10T08:46:36.000Z</time>
      </trkpt>
      <trkpt lat="45.85965" lon="3.54833">
        <ele>471.5</ele>
        <time>2026-05-10T08:46:37.000Z</time>
      </trkpt>
      <trkpt lat="45.85966" lon="3.54832">
        <ele>471.6</ele>
        <time>2026-05-10T08:46:38.000Z</time>
      </trkpt>
      <trkpt lat="45.85967" lon="3.5483">
        <ele>471.7</ele>
        <time>2026-05-10T08:46:39.000Z</time>
      </trkpt>
      <trkpt lat="45.85967" lon="3.54829">
        <ele>471.8</ele>
        <time>2026-05-10T08:46:40.000Z</time>
      </trkpt>
      <trkpt lat="45.85968" lon="3.54827">
        <ele>471.9</ele>
        <time>2026-05-10T08:46:41.000Z</time>
      </trkpt>
      <trkpt lat="45.85968" lon="3.54826">
        <ele>472</ele>
        <time>2026-05-10T08:46:42.000Z</time>
      </trkpt>
      <trkpt lat="45.85969" lon="3.54824">
        <ele>472</ele>
        <time>2026-05-10T08:46:43.000Z</time>
      </trkpt>
      <trkpt lat="45.85969" lon="3.54823">
        <ele>472.1</ele>
        <time>2026-05-10T08:46:44.000Z</time>
      </trkpt>
      <trkpt lat="45.8597" lon="3.54821">
        <ele>472.3</ele>
        <time>2026-05-10T08:46:45.000Z</time>
      </trkpt>
      <trkpt lat="45.85971" lon="3.54818">
        <ele>472.4</ele>
        <time>2026-05-10T08:46:46.000Z</time>
      </trkpt>
      <trkpt lat="45.85972" lon="3.54816">
        <ele>472.6</ele>
        <time>2026-05-10T08:46:47.000Z</time>
      </trkpt>
      <trkpt lat="45.85972" lon="3.54815">
        <ele>472.7</ele>
        <time>2026-05-10T08:46:48.000Z</time>
      </trkpt>
      <trkpt lat="45.85973" lon="3.54813">
        <ele>472.8</ele>
        <time>2026-05-10T08:46:49.000Z</time>
      </trkpt>
      <trkpt lat="45.85974" lon="3.54811">
        <ele>473</ele>
        <time>2026-05-10T08:46:50.000Z</time>
      </trkpt>
      <trkpt lat="45.85975" lon="3.54809">
        <ele>473.1</ele>
        <time>2026-05-10T08:46:51.000Z</time>
      </trkpt>
      <trkpt lat="45.85976" lon="3.54807">
        <ele>473.3</ele>
        <time>2026-05-10T08:46:52.000Z</time>
      </trkpt>
      <trkpt lat="45.85976" lon="3.54806">
        <ele>473.4</ele>
        <time>2026-05-10T08:46:53.000Z</time>
      </trkpt>
      <trkpt lat="45.85977" lon="3.54805">
        <ele>473.5</ele>
        <time>2026-05-10T08:46:54.000Z</time>
      </trkpt>
      <trkpt lat="45.85978" lon="3.54803">
        <ele>473.5</ele>
        <time>2026-05-10T08:46:55.000Z</time>
      </trkpt>
      <trkpt lat="45.85978" lon="3.54802">
        <ele>473.5</ele>
        <time>2026-05-10T08:46:56.000Z</time>
      </trkpt>
      <trkpt lat="45.85979" lon="3.54801">
        <ele>473.6</ele>
        <time>2026-05-10T08:46:57.000Z</time>
      </trkpt>
      <trkpt lat="45.85979" lon="3.54799">
        <ele>473.6</ele>
        <time>2026-05-10T08:46:58.000Z</time>
      </trkpt>
      <trkpt lat="45.8598" lon="3.54798">
        <ele>473.6</ele>
        <time>2026-05-10T08:46:59.000Z</time>
      </trkpt>
      <trkpt lat="45.8598" lon="3.54796">
        <ele>473.5</ele>
        <time>2026-05-10T08:47:00.000Z</time>
      </trkpt>
      <trkpt lat="45.85981" lon="3.54794">
        <ele>473.5</ele>
        <time>2026-05-10T08:47:01.000Z</time>
      </trkpt>
      <trkpt lat="45.85981" lon="3.54792">
        <ele>473.5</ele>
        <time>2026-05-10T08:47:02.000Z</time>
      </trkpt>
      <trkpt lat="45.85982" lon="3.5479">
        <ele>473.4</ele>
        <time>2026-05-10T08:47:03.000Z</time>
      </trkpt>
      <trkpt lat="45.85982" lon="3.54788">
        <ele>473.4</ele>
        <time>2026-05-10T08:47:04.000Z</time>
      </trkpt>
      <trkpt lat="45.85983" lon="3.54786">
        <ele>473.4</ele>
        <time>2026-05-10T08:47:05.000Z</time>
      </trkpt>
      <trkpt lat="45.85983" lon="3.54785">
        <ele>473.3</ele>
        <time>2026-05-10T08:47:06.000Z</time>
      </trkpt>
      <trkpt lat="45.85984" lon="3.54784">
        <ele>473.3</ele>
        <time>2026-05-10T08:47:07.000Z</time>
      </trkpt>
      <trkpt lat="45.85984" lon="3.54782">
        <ele>473.2</ele>
        <time>2026-05-10T08:47:08.000Z</time>
      </trkpt>
      <trkpt lat="45.85985" lon="3.54781">
        <ele>473.1</ele>
        <time>2026-05-10T08:47:09.000Z</time>
      </trkpt>
      <trkpt lat="45.85986" lon="3.54779">
        <ele>473.1</ele>
        <time>2026-05-10T08:47:10.000Z</time>
      </trkpt>
      <trkpt lat="45.85986" lon="3.54777">
        <ele>472.9</ele>
        <time>2026-05-10T08:47:11.000Z</time>
      </trkpt>
      <trkpt lat="45.85987" lon="3.54776">
        <ele>472.6</ele>
        <time>2026-05-10T08:47:12.000Z</time>
      </trkpt>
      <trkpt lat="45.85987" lon="3.54774">
        <ele>472.3</ele>
        <time>2026-05-10T08:47:13.000Z</time>
      </trkpt>
      <trkpt lat="45.85988" lon="3.54773">
        <ele>472</ele>
        <time>2026-05-10T08:47:14.000Z</time>
      </trkpt>
      <trkpt lat="45.85989" lon="3.54771">
        <ele>471.7</ele>
        <time>2026-05-10T08:47:15.000Z</time>
      </trkpt>
      <trkpt lat="45.85989" lon="3.54769">
        <ele>471.4</ele>
        <time>2026-05-10T08:47:16.000Z</time>
      </trkpt>
      <trkpt lat="45.8599" lon="3.54767">
        <ele>471.1</ele>
        <time>2026-05-10T08:47:17.000Z</time>
      </trkpt>
      <trkpt lat="45.85991" lon="3.54765">
        <ele>470.9</ele>
        <time>2026-05-10T08:47:18.000Z</time>
      </trkpt>
      <trkpt lat="45.85992" lon="3.54764">
        <ele>470.7</ele>
        <time>2026-05-10T08:47:19.000Z</time>
      </trkpt>
      <trkpt lat="45.85993" lon="3.54762">
        <ele>470.6</ele>
        <time>2026-05-10T08:47:20.000Z</time>
      </trkpt>
      <trkpt lat="45.85994" lon="3.54761">
        <ele>470.5</ele>
        <time>2026-05-10T08:47:21.000Z</time>
      </trkpt>
      <trkpt lat="45.85995" lon="3.5476">
        <ele>470.5</ele>
        <time>2026-05-10T08:47:22.000Z</time>
      </trkpt>
      <trkpt lat="45.85996" lon="3.54759">
        <ele>470.4</ele>
        <time>2026-05-10T08:47:23.000Z</time>
      </trkpt>
      <trkpt lat="45.85997" lon="3.54758">
        <ele>470.4</ele>
        <time>2026-05-10T08:47:24.000Z</time>
      </trkpt>
      <trkpt lat="45.85998" lon="3.54757">
        <ele>470.5</ele>
        <time>2026-05-10T08:47:25.000Z</time>
      </trkpt>
      <trkpt lat="45.85999" lon="3.54757">
        <ele>470.5</ele>
        <time>2026-05-10T08:47:26.000Z</time>
      </trkpt>
      <trkpt lat="45.86" lon="3.54756">
        <ele>470.6</ele>
        <time>2026-05-10T08:47:27.000Z</time>
      </trkpt>
      <trkpt lat="45.86001" lon="3.54755">
        <ele>470.5</ele>
        <time>2026-05-10T08:47:28.000Z</time>
      </trkpt>
      <trkpt lat="45.86003" lon="3.54754">
        <ele>470.3</ele>
        <time>2026-05-10T08:47:29.000Z</time>
      </trkpt>
      <trkpt lat="45.86004" lon="3.54754">
        <ele>470.2</ele>
        <time>2026-05-10T08:47:30.000Z</time>
      </trkpt>
      <trkpt lat="45.86005" lon="3.54754">
        <ele>470.1</ele>
        <time>2026-05-10T08:47:31.000Z</time>
      </trkpt>
      <trkpt lat="45.86007" lon="3.54753">
        <ele>470</ele>
        <time>2026-05-10T08:47:32.000Z</time>
      </trkpt>
      <trkpt lat="45.86008" lon="3.54753">
        <ele>469.8</ele>
        <time>2026-05-10T08:47:33.000Z</time>
      </trkpt>
      <trkpt lat="45.86009" lon="3.54753">
        <ele>469.8</ele>
        <time>2026-05-10T08:47:34.000Z</time>
      </trkpt>
      <trkpt lat="45.86011" lon="3.54753">
        <ele>469.6</ele>
        <time>2026-05-10T08:47:35.000Z</time>
      </trkpt>
      <trkpt lat="45.86012" lon="3.54752">
        <ele>469.5</ele>
        <time>2026-05-10T08:47:36.000Z</time>
      </trkpt>
      <trkpt lat="45.86014" lon="3.54752">
        <ele>469.4</ele>
        <time>2026-05-10T08:47:37.000Z</time>
      </trkpt>
      <trkpt lat="45.86015" lon="3.54752">
        <ele>469.2</ele>
        <time>2026-05-10T08:47:38.000Z</time>
      </trkpt>
      <trkpt lat="45.86017" lon="3.54751">
        <ele>469</ele>
        <time>2026-05-10T08:47:39.000Z</time>
      </trkpt>
      <trkpt lat="45.86018" lon="3.54751">
        <ele>468.9</ele>
        <time>2026-05-10T08:47:40.000Z</time>
      </trkpt>
      <trkpt lat="45.86019" lon="3.5475">
        <ele>468.7</ele>
        <time>2026-05-10T08:47:41.000Z</time>
      </trkpt>
      <trkpt lat="45.86021" lon="3.5475">
        <ele>468.4</ele>
        <time>2026-05-10T08:47:42.000Z</time>
      </trkpt>
      <trkpt lat="45.86022" lon="3.5475">
        <ele>468.3</ele>
        <time>2026-05-10T08:47:43.000Z</time>
      </trkpt>
      <trkpt lat="45.86022" lon="3.5475">
        <ele>468.2</ele>
        <time>2026-05-10T08:47:44.000Z</time>
      </trkpt>
      <trkpt lat="45.86023" lon="3.54749">
        <ele>468</ele>
        <time>2026-05-10T08:47:45.000Z</time>
      </trkpt>
      <trkpt lat="45.86024" lon="3.54749">
        <ele>467.9</ele>
        <time>2026-05-10T08:47:46.000Z</time>
      </trkpt>
      <trkpt lat="45.86025" lon="3.54749">
        <ele>467.8</ele>
        <time>2026-05-10T08:47:47.000Z</time>
      </trkpt>
      <trkpt lat="45.86026" lon="3.54749">
        <ele>467.8</ele>
        <time>2026-05-10T08:47:48.000Z</time>
      </trkpt>
      <trkpt lat="45.86028" lon="3.54749">
        <ele>467.7</ele>
        <time>2026-05-10T08:47:49.000Z</time>
      </trkpt>
      <trkpt lat="45.86029" lon="3.54749">
        <ele>467.6</ele>
        <time>2026-05-10T08:47:50.000Z</time>
      </trkpt>
      <trkpt lat="45.8603" lon="3.54749">
        <ele>467.5</ele>
        <time>2026-05-10T08:47:51.000Z</time>
      </trkpt>
      <trkpt lat="45.86032" lon="3.54749">
        <ele>467.4</ele>
        <time>2026-05-10T08:47:52.000Z</time>
      </trkpt>
      <trkpt lat="45.86033" lon="3.54748">
        <ele>467.3</ele>
        <time>2026-05-10T08:47:53.000Z</time>
      </trkpt>
      <trkpt lat="45.86035" lon="3.54748">
        <ele>467</ele>
        <time>2026-05-10T08:47:54.000Z</time>
      </trkpt>
      <trkpt lat="45.86036" lon="3.54747">
        <ele>466.8</ele>
        <time>2026-05-10T08:47:55.000Z</time>
      </trkpt>
      <trkpt lat="45.86038" lon="3.54746">
        <ele>466.4</ele>
        <time>2026-05-10T08:47:56.000Z</time>
      </trkpt>
      <trkpt lat="45.8604" lon="3.54745">
        <ele>465.9</ele>
        <time>2026-05-10T08:47:57.000Z</time>
      </trkpt>
      <trkpt lat="45.86042" lon="3.54744">
        <ele>465.5</ele>
        <time>2026-05-10T08:47:58.000Z</time>
      </trkpt>
      <trkpt lat="45.86044" lon="3.54744">
        <ele>465.1</ele>
        <time>2026-05-10T08:47:59.000Z</time>
      </trkpt>
      <trkpt lat="45.86045" lon="3.54743">
        <ele>464.8</ele>
        <time>2026-05-10T08:48:00.000Z</time>
      </trkpt>
      <trkpt lat="45.86046" lon="3.54742">
        <ele>464.4</ele>
        <time>2026-05-10T08:48:01.000Z</time>
      </trkpt>
      <trkpt lat="45.86048" lon="3.54741">
        <ele>464.1</ele>
        <time>2026-05-10T08:48:02.000Z</time>
      </trkpt>
      <trkpt lat="45.86049" lon="3.54741">
        <ele>463.8</ele>
        <time>2026-05-10T08:48:03.000Z</time>
      </trkpt>
      <trkpt lat="45.8605" lon="3.54741">
        <ele>463.7</ele>
        <time>2026-05-10T08:48:04.000Z</time>
      </trkpt>
      <trkpt lat="45.86051" lon="3.5474">
        <ele>463.6</ele>
        <time>2026-05-10T08:48:05.000Z</time>
      </trkpt>
      <trkpt lat="45.86052" lon="3.5474">
        <ele>463.5</ele>
        <time>2026-05-10T08:48:06.000Z</time>
      </trkpt>
      <trkpt lat="45.86052" lon="3.5474">
        <ele>463.5</ele>
        <time>2026-05-10T08:48:07.000Z</time>
      </trkpt>
      <trkpt lat="45.86053" lon="3.5474">
        <ele>463.5</ele>
        <time>2026-05-10T08:48:08.000Z</time>
      </trkpt>
      <trkpt lat="45.86054" lon="3.5474">
        <ele>463.5</ele>
        <time>2026-05-10T08:48:09.000Z</time>
      </trkpt>
      <trkpt lat="45.86056" lon="3.5474">
        <ele>463.5</ele>
        <time>2026-05-10T08:48:10.000Z</time>
      </trkpt>
      <trkpt lat="45.86058" lon="3.5474">
        <ele>463.7</ele>
        <time>2026-05-10T08:48:11.000Z</time>
      </trkpt>
      <trkpt lat="45.86059" lon="3.5474">
        <ele>463.8</ele>
        <time>2026-05-10T08:48:12.000Z</time>
      </trkpt>
      <trkpt lat="45.86061" lon="3.54739">
        <ele>463.7</ele>
        <time>2026-05-10T08:48:13.000Z</time>
      </trkpt>
      <trkpt lat="45.86062" lon="3.54738">
        <ele>463.7</ele>
        <time>2026-05-10T08:48:14.000Z</time>
      </trkpt>
      <trkpt lat="45.86063" lon="3.54738">
        <ele>463.7</ele>
        <time>2026-05-10T08:48:15.000Z</time>
      </trkpt>
      <trkpt lat="45.86065" lon="3.54737">
        <ele>463.7</ele>
        <time>2026-05-10T08:48:16.000Z</time>
      </trkpt>
      <trkpt lat="45.86067" lon="3.54737">
        <ele>463.8</ele>
        <time>2026-05-10T08:48:17.000Z</time>
      </trkpt>
      <trkpt lat="45.86068" lon="3.54736">
        <ele>464</ele>
        <time>2026-05-10T08:48:18.000Z</time>
      </trkpt>
      <trkpt lat="45.8607" lon="3.54736">
        <ele>464.2</ele>
        <time>2026-05-10T08:48:19.000Z</time>
      </trkpt>
      <trkpt lat="45.86071" lon="3.54736">
        <ele>464.4</ele>
        <time>2026-05-10T08:48:20.000Z</time>
      </trkpt>
      <trkpt lat="45.86073" lon="3.54735">
        <ele>464.6</ele>
        <time>2026-05-10T08:48:21.000Z</time>
      </trkpt>
      <trkpt lat="45.86074" lon="3.54735">
        <ele>464.7</ele>
        <time>2026-05-10T08:48:22.000Z</time>
      </trkpt>
      <trkpt lat="45.86075" lon="3.54735">
        <ele>464.7</ele>
        <time>2026-05-10T08:48:23.000Z</time>
      </trkpt>
      <trkpt lat="45.86076" lon="3.54734">
        <ele>464.8</ele>
        <time>2026-05-10T08:48:24.000Z</time>
      </trkpt>
      <trkpt lat="45.86077" lon="3.54734">
        <ele>464.8</ele>
        <time>2026-05-10T08:48:25.000Z</time>
      </trkpt>
      <trkpt lat="45.86078" lon="3.54733">
        <ele>464.9</ele>
        <time>2026-05-10T08:48:26.000Z</time>
      </trkpt>
      <trkpt lat="45.86079" lon="3.54733">
        <ele>464.9</ele>
        <time>2026-05-10T08:48:27.000Z</time>
      </trkpt>
      <trkpt lat="45.8608" lon="3.54732">
        <ele>464.8</ele>
        <time>2026-05-10T08:48:28.000Z</time>
      </trkpt>
      <trkpt lat="45.86082" lon="3.54731">
        <ele>464.9</ele>
        <time>2026-05-10T08:48:29.000Z</time>
      </trkpt>
      <trkpt lat="45.86083" lon="3.54731">
        <ele>464.9</ele>
        <time>2026-05-10T08:48:30.000Z</time>
      </trkpt>
      <trkpt lat="45.86084" lon="3.5473">
        <ele>464.8</ele>
        <time>2026-05-10T08:48:31.000Z</time>
      </trkpt>
      <trkpt lat="45.86085" lon="3.54729">
        <ele>464.6</ele>
        <time>2026-05-10T08:48:32.000Z</time>
      </trkpt>
      <trkpt lat="45.86087" lon="3.54728">
        <ele>464.2</ele>
        <time>2026-05-10T08:48:33.000Z</time>
      </trkpt>
      <trkpt lat="45.86088" lon="3.54727">
        <ele>464</ele>
        <time>2026-05-10T08:48:34.000Z</time>
      </trkpt>
      <trkpt lat="45.86089" lon="3.54726">
        <ele>463.7</ele>
        <time>2026-05-10T08:48:35.000Z</time>
      </trkpt>
      <trkpt lat="45.8609" lon="3.54726">
        <ele>463.5</ele>
        <time>2026-05-10T08:48:36.000Z</time>
      </trkpt>
      <trkpt lat="45.86091" lon="3.54725">
        <ele>463.4</ele>
        <time>2026-05-10T08:48:37.000Z</time>
      </trkpt>
      <trkpt lat="45.86092" lon="3.54724">
        <ele>463.2</ele>
        <time>2026-05-10T08:48:38.000Z</time>
      </trkpt>
      <trkpt lat="45.86093" lon="3.54724">
        <ele>463</ele>
        <time>2026-05-10T08:48:39.000Z</time>
      </trkpt>
      <trkpt lat="45.86094" lon="3.54723">
        <ele>462.8</ele>
        <time>2026-05-10T08:48:40.000Z</time>
      </trkpt>
      <trkpt lat="45.86095" lon="3.54723">
        <ele>462.7</ele>
        <time>2026-05-10T08:48:41.000Z</time>
      </trkpt>
      <trkpt lat="45.86096" lon="3.54722">
        <ele>462.4</ele>
        <time>2026-05-10T08:48:42.000Z</time>
      </trkpt>
      <trkpt lat="45.86098" lon="3.54721">
        <ele>462</ele>
        <time>2026-05-10T08:48:43.000Z</time>
      </trkpt>
      <trkpt lat="45.861" lon="3.5472">
        <ele>461.7</ele>
        <time>2026-05-10T08:48:44.000Z</time>
      </trkpt>
      <trkpt lat="45.86102" lon="3.54719">
        <ele>461.4</ele>
        <time>2026-05-10T08:48:45.000Z</time>
      </trkpt>
      <trkpt lat="45.86104" lon="3.54718">
        <ele>461.2</ele>
        <time>2026-05-10T08:48:46.000Z</time>
      </trkpt>
      <trkpt lat="45.86105" lon="3.54717">
        <ele>461</ele>
        <time>2026-05-10T08:48:47.000Z</time>
      </trkpt>
      <trkpt lat="45.86106" lon="3.54717">
        <ele>460.9</ele>
        <time>2026-05-10T08:48:48.000Z</time>
      </trkpt>
      <trkpt lat="45.86108" lon="3.54716">
        <ele>460.8</ele>
        <time>2026-05-10T08:48:49.000Z</time>
      </trkpt>
      <trkpt lat="45.86109" lon="3.54716">
        <ele>460.7</ele>
        <time>2026-05-10T08:48:50.000Z</time>
      </trkpt>
      <trkpt lat="45.8611" lon="3.54716">
        <ele>460.8</ele>
        <time>2026-05-10T08:48:51.000Z</time>
      </trkpt>
      <trkpt lat="45.86112" lon="3.54716">
        <ele>460.9</ele>
        <time>2026-05-10T08:48:52.000Z</time>
      </trkpt>
      <trkpt lat="45.86113" lon="3.54715">
        <ele>461</ele>
        <time>2026-05-10T08:48:53.000Z</time>
      </trkpt>
      <trkpt lat="45.86114" lon="3.54715">
        <ele>461.1</ele>
        <time>2026-05-10T08:48:54.000Z</time>
      </trkpt>
      <trkpt lat="45.86116" lon="3.54715">
        <ele>461.1</ele>
        <time>2026-05-10T08:48:55.000Z</time>
      </trkpt>
      <trkpt lat="45.86117" lon="3.54714">
        <ele>461.2</ele>
        <time>2026-05-10T08:48:56.000Z</time>
      </trkpt>
      <trkpt lat="45.86118" lon="3.54714">
        <ele>461.2</ele>
        <time>2026-05-10T08:48:57.000Z</time>
      </trkpt>
      <trkpt lat="45.86119" lon="3.54713">
        <ele>461.2</ele>
        <time>2026-05-10T08:48:58.000Z</time>
      </trkpt>
      <trkpt lat="45.8612" lon="3.54712">
        <ele>461.1</ele>
        <time>2026-05-10T08:48:59.000Z</time>
      </trkpt>
      <trkpt lat="45.86121" lon="3.54712">
        <ele>461</ele>
        <time>2026-05-10T08:49:00.000Z</time>
      </trkpt>
      <trkpt lat="45.86123" lon="3.54711">
        <ele>460.9</ele>
        <time>2026-05-10T08:49:01.000Z</time>
      </trkpt>
      <trkpt lat="45.86124" lon="3.5471">
        <ele>460.9</ele>
        <time>2026-05-10T08:49:02.000Z</time>
      </trkpt>
      <trkpt lat="45.86125" lon="3.54709">
        <ele>460.9</ele>
        <time>2026-05-10T08:49:03.000Z</time>
      </trkpt>
      <trkpt lat="45.86127" lon="3.54709">
        <ele>460.8</ele>
        <time>2026-05-10T08:49:04.000Z</time>
      </trkpt>
      <trkpt lat="45.86128" lon="3.54708">
        <ele>460.8</ele>
        <time>2026-05-10T08:49:05.000Z</time>
      </trkpt>
      <trkpt lat="45.86129" lon="3.54708">
        <ele>460.9</ele>
        <time>2026-05-10T08:49:06.000Z</time>
      </trkpt>
      <trkpt lat="45.8613" lon="3.54708">
        <ele>461</ele>
        <time>2026-05-10T08:49:07.000Z</time>
      </trkpt>
      <trkpt lat="45.8613" lon="3.54708">
        <ele>461</ele>
        <time>2026-05-10T08:49:08.000Z</time>
      </trkpt>
      <trkpt lat="45.86131" lon="3.54707">
        <ele>460.9</ele>
        <time>2026-05-10T08:49:09.000Z</time>
      </trkpt>
      <trkpt lat="45.86132" lon="3.54707">
        <ele>460.9</ele>
        <time>2026-05-10T08:49:10.000Z</time>
      </trkpt>
      <trkpt lat="45.86133" lon="3.54706">
        <ele>460.8</ele>
        <time>2026-05-10T08:49:11.000Z</time>
      </trkpt>
      <trkpt lat="45.86134" lon="3.54705">
        <ele>460.8</ele>
        <time>2026-05-10T08:49:12.000Z</time>
      </trkpt>
      <trkpt lat="45.86135" lon="3.54705">
        <ele>460.8</ele>
        <time>2026-05-10T08:49:13.000Z</time>
      </trkpt>
      <trkpt lat="45.86136" lon="3.54704">
        <ele>460.7</ele>
        <time>2026-05-10T08:49:14.000Z</time>
      </trkpt>
      <trkpt lat="45.86137" lon="3.54703">
        <ele>460.6</ele>
        <time>2026-05-10T08:49:15.000Z</time>
      </trkpt>
      <trkpt lat="45.86138" lon="3.54703">
        <ele>460.5</ele>
        <time>2026-05-10T08:49:16.000Z</time>
      </trkpt>
      <trkpt lat="45.8614" lon="3.54702">
        <ele>460.4</ele>
        <time>2026-05-10T08:49:17.000Z</time>
      </trkpt>
      <trkpt lat="45.86141" lon="3.54701">
        <ele>460.2</ele>
        <time>2026-05-10T08:49:18.000Z</time>
      </trkpt>
      <trkpt lat="45.86142" lon="3.547">
        <ele>460</ele>
        <time>2026-05-10T08:49:19.000Z</time>
      </trkpt>
      <trkpt lat="45.86144" lon="3.54699">
        <ele>459.8</ele>
        <time>2026-05-10T08:49:20.000Z</time>
      </trkpt>
      <trkpt lat="45.86145" lon="3.54698">
        <ele>459.6</ele>
        <time>2026-05-10T08:49:21.000Z</time>
      </trkpt>
      <trkpt lat="45.86146" lon="3.54697">
        <ele>459.5</ele>
        <time>2026-05-10T08:49:22.000Z</time>
      </trkpt>
      <trkpt lat="45.86148" lon="3.54697">
        <ele>459.5</ele>
        <time>2026-05-10T08:49:23.000Z</time>
      </trkpt>
      <trkpt lat="45.86149" lon="3.54696">
        <ele>459.4</ele>
        <time>2026-05-10T08:49:24.000Z</time>
      </trkpt>
      <trkpt lat="45.8615" lon="3.54696">
        <ele>459.3</ele>
        <time>2026-05-10T08:49:25.000Z</time>
      </trkpt>
      <trkpt lat="45.86152" lon="3.54695">
        <ele>459.2</ele>
        <time>2026-05-10T08:49:26.000Z</time>
      </trkpt>
      <trkpt lat="45.86153" lon="3.54694">
        <ele>459</ele>
        <time>2026-05-10T08:49:27.000Z</time>
      </trkpt>
      <trkpt lat="45.86154" lon="3.54694">
        <ele>458.9</ele>
        <time>2026-05-10T08:49:28.000Z</time>
      </trkpt>
      <trkpt lat="45.86156" lon="3.54693">
        <ele>458.9</ele>
        <time>2026-05-10T08:49:29.000Z</time>
      </trkpt>
      <trkpt lat="45.86158" lon="3.54692">
        <ele>458.9</ele>
        <time>2026-05-10T08:49:30.000Z</time>
      </trkpt>
      <trkpt lat="45.8616" lon="3.54691">
        <ele>458.8</ele>
        <time>2026-05-10T08:49:31.000Z</time>
      </trkpt>
      <trkpt lat="45.86161" lon="3.54689">
        <ele>458.6</ele>
        <time>2026-05-10T08:49:32.000Z</time>
      </trkpt>
      <trkpt lat="45.86162" lon="3.54688">
        <ele>458.4</ele>
        <time>2026-05-10T08:49:33.000Z</time>
      </trkpt>
      <trkpt lat="45.86163" lon="3.54686">
        <ele>458.2</ele>
        <time>2026-05-10T08:49:34.000Z</time>
      </trkpt>
      <trkpt lat="45.86164" lon="3.54684">
        <ele>458.1</ele>
        <time>2026-05-10T08:49:35.000Z</time>
      </trkpt>
      <trkpt lat="45.86165" lon="3.54682">
        <ele>458</ele>
        <time>2026-05-10T08:49:36.000Z</time>
      </trkpt>
      <trkpt lat="45.86166" lon="3.54681">
        <ele>457.8</ele>
        <time>2026-05-10T08:49:37.000Z</time>
      </trkpt>
      <trkpt lat="45.86166" lon="3.54679">
        <ele>457.6</ele>
        <time>2026-05-10T08:49:38.000Z</time>
      </trkpt>
      <trkpt lat="45.86166" lon="3.54677">
        <ele>457.4</ele>
        <time>2026-05-10T08:49:39.000Z</time>
      </trkpt>
      <trkpt lat="45.86167" lon="3.54676">
        <ele>457.3</ele>
        <time>2026-05-10T08:49:40.000Z</time>
      </trkpt>
      <trkpt lat="45.86167" lon="3.54674">
        <ele>457.2</ele>
        <time>2026-05-10T08:49:41.000Z</time>
      </trkpt>
      <trkpt lat="45.86168" lon="3.54672">
        <ele>456.9</ele>
        <time>2026-05-10T08:49:42.000Z</time>
      </trkpt>
      <trkpt lat="45.86168" lon="3.5467">
        <ele>456.7</ele>
        <time>2026-05-10T08:49:43.000Z</time>
      </trkpt>
      <trkpt lat="45.86168" lon="3.54668">
        <ele>456.4</ele>
        <time>2026-05-10T08:49:44.000Z</time>
      </trkpt>
      <trkpt lat="45.86168" lon="3.54666">
        <ele>456.3</ele>
        <time>2026-05-10T08:49:45.000Z</time>
      </trkpt>
      <trkpt lat="45.86169" lon="3.54664">
        <ele>456.4</ele>
        <time>2026-05-10T08:49:46.000Z</time>
      </trkpt>
      <trkpt lat="45.86169" lon="3.54662">
        <ele>456.4</ele>
        <time>2026-05-10T08:49:47.000Z</time>
      </trkpt>
      <trkpt lat="45.86169" lon="3.54661">
        <ele>456.4</ele>
        <time>2026-05-10T08:49:48.000Z</time>
      </trkpt>
      <trkpt lat="45.86169" lon="3.54659">
        <ele>456.4</ele>
        <time>2026-05-10T08:49:49.000Z</time>
      </trkpt>
      <trkpt lat="45.86169" lon="3.54656">
        <ele>456.5</ele>
        <time>2026-05-10T08:49:50.000Z</time>
      </trkpt>
      <trkpt lat="45.86169" lon="3.54655">
        <ele>456.5</ele>
        <time>2026-05-10T08:49:51.000Z</time>
      </trkpt>
      <trkpt lat="45.86169" lon="3.54653">
        <ele>456.5</ele>
        <time>2026-05-10T08:49:52.000Z</time>
      </trkpt>
      <trkpt lat="45.86168" lon="3.54651">
        <ele>456.4</ele>
        <time>2026-05-10T08:49:53.000Z</time>
      </trkpt>
      <trkpt lat="45.86168" lon="3.5465">
        <ele>456.4</ele>
        <time>2026-05-10T08:49:54.000Z</time>
      </trkpt>
      <trkpt lat="45.86167" lon="3.54648">
        <ele>456.2</ele>
        <time>2026-05-10T08:49:55.000Z</time>
      </trkpt>
      <trkpt lat="45.86167" lon="3.54646">
        <ele>456</ele>
        <time>2026-05-10T08:49:56.000Z</time>
      </trkpt>
      <trkpt lat="45.86166" lon="3.54644">
        <ele>455.9</ele>
        <time>2026-05-10T08:49:57.000Z</time>
      </trkpt>
      <trkpt lat="45.86165" lon="3.54642">
        <ele>455.7</ele>
        <time>2026-05-10T08:49:58.000Z</time>
      </trkpt>
      <trkpt lat="45.86164" lon="3.5464">
        <ele>455.6</ele>
        <time>2026-05-10T08:49:59.000Z</time>
      </trkpt>
      <trkpt lat="45.86163" lon="3.54639">
        <ele>455.5</ele>
        <time>2026-05-10T08:50:00.000Z</time>
      </trkpt>
      <trkpt lat="45.86162" lon="3.54638">
        <ele>455.5</ele>
        <time>2026-05-10T08:50:01.000Z</time>
      </trkpt>
      <trkpt lat="45.86161" lon="3.54636">
        <ele>455.7</ele>
        <time>2026-05-10T08:50:02.000Z</time>
      </trkpt>
      <trkpt lat="45.8616" lon="3.54635">
        <ele>455.7</ele>
        <time>2026-05-10T08:50:03.000Z</time>
      </trkpt>
      <trkpt lat="45.86159" lon="3.54634">
        <ele>455.6</ele>
        <time>2026-05-10T08:50:04.000Z</time>
      </trkpt>
      <trkpt lat="45.86157" lon="3.54633">
        <ele>455.6</ele>
        <time>2026-05-10T08:50:05.000Z</time>
      </trkpt>
      <trkpt lat="45.86156" lon="3.54632">
        <ele>455.5</ele>
        <time>2026-05-10T08:50:06.000Z</time>
      </trkpt>
      <trkpt lat="45.86154" lon="3.54631">
        <ele>455.3</ele>
        <time>2026-05-10T08:50:07.000Z</time>
      </trkpt>
      <trkpt lat="45.86153" lon="3.5463">
        <ele>455.2</ele>
        <time>2026-05-10T08:50:08.000Z</time>
      </trkpt>
      <trkpt lat="45.86152" lon="3.5463">
        <ele>455</ele>
        <time>2026-05-10T08:50:09.000Z</time>
      </trkpt>
      <trkpt lat="45.86151" lon="3.54629">
        <ele>454.8</ele>
        <time>2026-05-10T08:50:10.000Z</time>
      </trkpt>
      <trkpt lat="45.86149" lon="3.54628">
        <ele>454.6</ele>
        <time>2026-05-10T08:50:11.000Z</time>
      </trkpt>
      <trkpt lat="45.86148" lon="3.54627">
        <ele>454.4</ele>
        <time>2026-05-10T08:50:12.000Z</time>
      </trkpt>
      <trkpt lat="45.86147" lon="3.54627">
        <ele>454.2</ele>
        <time>2026-05-10T08:50:13.000Z</time>
      </trkpt>
      <trkpt lat="45.86146" lon="3.54626">
        <ele>454</ele>
        <time>2026-05-10T08:50:14.000Z</time>
      </trkpt>
      <trkpt lat="45.86144" lon="3.54625">
        <ele>453.8</ele>
        <time>2026-05-10T08:50:15.000Z</time>
      </trkpt>
      <trkpt lat="45.86143" lon="3.54624">
        <ele>453.5</ele>
        <time>2026-05-10T08:50:16.000Z</time>
      </trkpt>
      <trkpt lat="45.86142" lon="3.54623">
        <ele>453.3</ele>
        <time>2026-05-10T08:50:17.000Z</time>
      </trkpt>
      <trkpt lat="45.86141" lon="3.54622">
        <ele>453.1</ele>
        <time>2026-05-10T08:50:18.000Z</time>
      </trkpt>
      <trkpt lat="45.8614" lon="3.54621">
        <ele>452.9</ele>
        <time>2026-05-10T08:50:19.000Z</time>
      </trkpt>
      <trkpt lat="45.86139" lon="3.5462">
        <ele>452.7</ele>
        <time>2026-05-10T08:50:20.000Z</time>
      </trkpt>
      <trkpt lat="45.86138" lon="3.54619">
        <ele>452.4</ele>
        <time>2026-05-10T08:50:21.000Z</time>
      </trkpt>
      <trkpt lat="45.86137" lon="3.54618">
        <ele>452.1</ele>
        <time>2026-05-10T08:50:22.000Z</time>
      </trkpt>
      <trkpt lat="45.86136" lon="3.54617">
        <ele>451.7</ele>
        <time>2026-05-10T08:50:23.000Z</time>
      </trkpt>
      <trkpt lat="45.86134" lon="3.54616">
        <ele>451.4</ele>
        <time>2026-05-10T08:50:24.000Z</time>
      </trkpt>
      <trkpt lat="45.86133" lon="3.54615">
        <ele>451.1</ele>
        <time>2026-05-10T08:50:25.000Z</time>
      </trkpt>
      <trkpt lat="45.86132" lon="3.54613">
        <ele>450.7</ele>
        <time>2026-05-10T08:50:26.000Z</time>
      </trkpt>
      <trkpt lat="45.86131" lon="3.54612">
        <ele>450.3</ele>
        <time>2026-05-10T08:50:27.000Z</time>
      </trkpt>
      <trkpt lat="45.8613" lon="3.5461">
        <ele>450.1</ele>
        <time>2026-05-10T08:50:28.000Z</time>
      </trkpt>
      <trkpt lat="45.86128" lon="3.54609">
        <ele>450</ele>
        <time>2026-05-10T08:50:29.000Z</time>
      </trkpt>
      <trkpt lat="45.86127" lon="3.54608">
        <ele>449.8</ele>
        <time>2026-05-10T08:50:30.000Z</time>
      </trkpt>
      <trkpt lat="45.86126" lon="3.54606">
        <ele>449.7</ele>
        <time>2026-05-10T08:50:31.000Z</time>
      </trkpt>
      <trkpt lat="45.86125" lon="3.54604">
        <ele>449.6</ele>
        <time>2026-05-10T08:50:32.000Z</time>
      </trkpt>
      <trkpt lat="45.86124" lon="3.54603">
        <ele>449.5</ele>
        <time>2026-05-10T08:50:33.000Z</time>
      </trkpt>
      <trkpt lat="45.86123" lon="3.54602">
        <ele>449.4</ele>
        <time>2026-05-10T08:50:34.000Z</time>
      </trkpt>
      <trkpt lat="45.86122" lon="3.546">
        <ele>449.4</ele>
        <time>2026-05-10T08:50:35.000Z</time>
      </trkpt>
      <trkpt lat="45.86122" lon="3.54599">
        <ele>449.4</ele>
        <time>2026-05-10T08:50:36.000Z</time>
      </trkpt>
      <trkpt lat="45.86121" lon="3.54598">
        <ele>449.4</ele>
        <time>2026-05-10T08:50:37.000Z</time>
      </trkpt>
      <trkpt lat="45.8612" lon="3.54597">
        <ele>449.4</ele>
        <time>2026-05-10T08:50:38.000Z</time>
      </trkpt>
      <trkpt lat="45.8612" lon="3.54595">
        <ele>449.4</ele>
        <time>2026-05-10T08:50:39.000Z</time>
      </trkpt>
      <trkpt lat="45.86119" lon="3.54594">
        <ele>449.5</ele>
        <time>2026-05-10T08:50:40.000Z</time>
      </trkpt>
      <trkpt lat="45.86118" lon="3.54592">
        <ele>449.6</ele>
        <time>2026-05-10T08:50:41.000Z</time>
      </trkpt>
      <trkpt lat="45.86118" lon="3.54591">
        <ele>449.7</ele>
        <time>2026-05-10T08:50:42.000Z</time>
      </trkpt>
      <trkpt lat="45.86118" lon="3.54589">
        <ele>449.9</ele>
        <time>2026-05-10T08:50:43.000Z</time>
      </trkpt>
      <trkpt lat="45.86117" lon="3.54587">
        <ele>450</ele>
        <time>2026-05-10T08:50:44.000Z</time>
      </trkpt>
      <trkpt lat="45.86116" lon="3.54585">
        <ele>450.1</ele>
        <time>2026-05-10T08:50:45.000Z</time>
      </trkpt>
      <trkpt lat="45.86116" lon="3.54584">
        <ele>450.2</ele>
        <time>2026-05-10T08:50:46.000Z</time>
      </trkpt>
      <trkpt lat="45.86115" lon="3.54582">
        <ele>450.1</ele>
        <time>2026-05-10T08:50:47.000Z</time>
      </trkpt>
      <trkpt lat="45.86114" lon="3.5458">
        <ele>450</ele>
        <time>2026-05-10T08:50:48.000Z</time>
      </trkpt>
      <trkpt lat="45.86114" lon="3.54579">
        <ele>449.8</ele>
        <time>2026-05-10T08:50:49.000Z</time>
      </trkpt>
      <trkpt lat="45.86113" lon="3.54577">
        <ele>449.6</ele>
        <time>2026-05-10T08:50:50.000Z</time>
      </trkpt>
      <trkpt lat="45.86113" lon="3.54575">
        <ele>449.4</ele>
        <time>2026-05-10T08:50:51.000Z</time>
      </trkpt>
      <trkpt lat="45.86112" lon="3.54574">
        <ele>449.2</ele>
        <time>2026-05-10T08:50:52.000Z</time>
      </trkpt>
      <trkpt lat="45.86111" lon="3.54572">
        <ele>448.9</ele>
        <time>2026-05-10T08:50:53.000Z</time>
      </trkpt>
      <trkpt lat="45.8611" lon="3.5457">
        <ele>448.7</ele>
        <time>2026-05-10T08:50:54.000Z</time>
      </trkpt>
      <trkpt lat="45.86109" lon="3.54568">
        <ele>448.6</ele>
        <time>2026-05-10T08:50:55.000Z</time>
      </trkpt>
      <trkpt lat="45.86108" lon="3.54566">
        <ele>448.4</ele>
        <time>2026-05-10T08:50:56.000Z</time>
      </trkpt>
      <trkpt lat="45.86108" lon="3.54564">
        <ele>448.2</ele>
        <time>2026-05-10T08:50:57.000Z</time>
      </trkpt>
      <trkpt lat="45.86107" lon="3.54562">
        <ele>448.1</ele>
        <time>2026-05-10T08:50:58.000Z</time>
      </trkpt>
      <trkpt lat="45.86107" lon="3.54561">
        <ele>448</ele>
        <time>2026-05-10T08:50:59.000Z</time>
      </trkpt>
      <trkpt lat="45.86106" lon="3.54559">
        <ele>447.8</ele>
        <time>2026-05-10T08:51:00.000Z</time>
      </trkpt>
      <trkpt lat="45.86105" lon="3.54558">
        <ele>447.7</ele>
        <time>2026-05-10T08:51:01.000Z</time>
      </trkpt>
      <trkpt lat="45.86105" lon="3.54556">
        <ele>447.6</ele>
        <time>2026-05-10T08:51:02.000Z</time>
      </trkpt>
      <trkpt lat="45.86104" lon="3.54554">
        <ele>447.6</ele>
        <time>2026-05-10T08:51:03.000Z</time>
      </trkpt>
      <trkpt lat="45.86104" lon="3.54553">
        <ele>447.7</ele>
        <time>2026-05-10T08:51:04.000Z</time>
      </trkpt>
      <trkpt lat="45.86104" lon="3.54551">
        <ele>447.8</ele>
        <time>2026-05-10T08:51:05.000Z</time>
      </trkpt>
      <trkpt lat="45.86103" lon="3.54549">
        <ele>447.8</ele>
        <time>2026-05-10T08:51:06.000Z</time>
      </trkpt>
      <trkpt lat="45.86103" lon="3.54548">
        <ele>447.9</ele>
        <time>2026-05-10T08:51:07.000Z</time>
      </trkpt>
      <trkpt lat="45.86102" lon="3.54546">
        <ele>447.9</ele>
        <time>2026-05-10T08:51:08.000Z</time>
      </trkpt>
      <trkpt lat="45.86102" lon="3.54544">
        <ele>448</ele>
        <time>2026-05-10T08:51:09.000Z</time>
      </trkpt>
      <trkpt lat="45.86102" lon="3.54542">
        <ele>448.1</ele>
        <time>2026-05-10T08:51:10.000Z</time>
      </trkpt>
      <trkpt lat="45.86101" lon="3.54541">
        <ele>448.1</ele>
        <time>2026-05-10T08:51:11.000Z</time>
      </trkpt>
      <trkpt lat="45.86101" lon="3.54538">
        <ele>448.1</ele>
        <time>2026-05-10T08:51:12.000Z</time>
      </trkpt>
      <trkpt lat="45.861" lon="3.54536">
        <ele>448.1</ele>
        <time>2026-05-10T08:51:13.000Z</time>
      </trkpt>
      <trkpt lat="45.861" lon="3.54535">
        <ele>448.1</ele>
        <time>2026-05-10T08:51:14.000Z</time>
      </trkpt>
      <trkpt lat="45.86099" lon="3.54533">
        <ele>448.1</ele>
        <time>2026-05-10T08:51:15.000Z</time>
      </trkpt>
      <trkpt lat="45.86098" lon="3.54531">
        <ele>448</ele>
        <time>2026-05-10T08:51:16.000Z</time>
      </trkpt>
      <trkpt lat="45.86097" lon="3.54529">
        <ele>447.8</ele>
        <time>2026-05-10T08:51:17.000Z</time>
      </trkpt>
      <trkpt lat="45.86096" lon="3.54528">
        <ele>447.8</ele>
        <time>2026-05-10T08:51:18.000Z</time>
      </trkpt>
      <trkpt lat="45.86096" lon="3.54527">
        <ele>447.6</ele>
        <time>2026-05-10T08:51:19.000Z</time>
      </trkpt>
      <trkpt lat="45.86095" lon="3.54525">
        <ele>447.5</ele>
        <time>2026-05-10T08:51:20.000Z</time>
      </trkpt>
      <trkpt lat="45.86094" lon="3.54524">
        <ele>447.3</ele>
        <time>2026-05-10T08:51:21.000Z</time>
      </trkpt>
      <trkpt lat="45.86093" lon="3.54523">
        <ele>447.1</ele>
        <time>2026-05-10T08:51:22.000Z</time>
      </trkpt>
      <trkpt lat="45.86092" lon="3.54521">
        <ele>446.9</ele>
        <time>2026-05-10T08:51:23.000Z</time>
      </trkpt>
      <trkpt lat="45.86091" lon="3.5452">
        <ele>446.6</ele>
        <time>2026-05-10T08:51:24.000Z</time>
      </trkpt>
      <trkpt lat="45.8609" lon="3.54519">
        <ele>446.4</ele>
        <time>2026-05-10T08:51:25.000Z</time>
      </trkpt>
      <trkpt lat="45.86088" lon="3.54518">
        <ele>446.1</ele>
        <time>2026-05-10T08:51:26.000Z</time>
      </trkpt>
      <trkpt lat="45.86087" lon="3.54517">
        <ele>445.7</ele>
        <time>2026-05-10T08:51:27.000Z</time>
      </trkpt>
      <trkpt lat="45.86086" lon="3.54517">
        <ele>445.4</ele>
        <time>2026-05-10T08:51:28.000Z</time>
      </trkpt>
      <trkpt lat="45.86084" lon="3.54516">
        <ele>445.1</ele>
        <time>2026-05-10T08:51:29.000Z</time>
      </trkpt>
      <trkpt lat="45.86083" lon="3.54515">
        <ele>444.8</ele>
        <time>2026-05-10T08:51:30.000Z</time>
      </trkpt>
      <trkpt lat="45.86081" lon="3.54514">
        <ele>444.6</ele>
        <time>2026-05-10T08:51:31.000Z</time>
      </trkpt>
      <trkpt lat="45.8608" lon="3.54513">
        <ele>444.4</ele>
        <time>2026-05-10T08:51:32.000Z</time>
      </trkpt>
      <trkpt lat="45.86079" lon="3.54513">
        <ele>444.2</ele>
        <time>2026-05-10T08:51:33.000Z</time>
      </trkpt>
      <trkpt lat="45.86078" lon="3.54512">
        <ele>444</ele>
        <time>2026-05-10T08:51:34.000Z</time>
      </trkpt>
      <trkpt lat="45.86077" lon="3.54511">
        <ele>443.8</ele>
        <time>2026-05-10T08:51:35.000Z</time>
      </trkpt>
      <trkpt lat="45.86076" lon="3.5451">
        <ele>443.7</ele>
        <time>2026-05-10T08:51:36.000Z</time>
      </trkpt>
      <trkpt lat="45.86075" lon="3.54509">
        <ele>443.6</ele>
        <time>2026-05-10T08:51:37.000Z</time>
      </trkpt>
      <trkpt lat="45.86074" lon="3.54509">
        <ele>443.4</ele>
        <time>2026-05-10T08:51:38.000Z</time>
      </trkpt>
      <trkpt lat="45.86073" lon="3.54508">
        <ele>443.2</ele>
        <time>2026-05-10T08:51:39.000Z</time>
      </trkpt>
      <trkpt lat="45.86071" lon="3.54507">
        <ele>443</ele>
        <time>2026-05-10T08:51:40.000Z</time>
      </trkpt>
      <trkpt lat="45.8607" lon="3.54506">
        <ele>442.8</ele>
        <time>2026-05-10T08:51:41.000Z</time>
      </trkpt>
      <trkpt lat="45.86069" lon="3.54505">
        <ele>442.6</ele>
        <time>2026-05-10T08:51:42.000Z</time>
      </trkpt>
      <trkpt lat="45.86068" lon="3.54505">
        <ele>442.3</ele>
        <time>2026-05-10T08:51:43.000Z</time>
      </trkpt>
      <trkpt lat="45.86066" lon="3.54504">
        <ele>442.1</ele>
        <time>2026-05-10T08:51:44.000Z</time>
      </trkpt>
      <trkpt lat="45.86065" lon="3.54504">
        <ele>441.8</ele>
        <time>2026-05-10T08:51:45.000Z</time>
      </trkpt>
      <trkpt lat="45.86063" lon="3.54505">
        <ele>441.5</ele>
        <time>2026-05-10T08:51:46.000Z</time>
      </trkpt>
      <trkpt lat="45.86062" lon="3.54505">
        <ele>441.2</ele>
        <time>2026-05-10T08:51:47.000Z</time>
      </trkpt>
      <trkpt lat="45.86061" lon="3.54505">
        <ele>441</ele>
        <time>2026-05-10T08:51:48.000Z</time>
      </trkpt>
      <trkpt lat="45.86061" lon="3.54505">
        <ele>440.9</ele>
        <time>2026-05-10T08:51:49.000Z</time>
      </trkpt>
      <trkpt lat="45.8606" lon="3.54505">
        <ele>440.7</ele>
        <time>2026-05-10T08:51:50.000Z</time>
      </trkpt>
      <trkpt lat="45.86058" lon="3.54504">
        <ele>440.4</ele>
        <time>2026-05-10T08:51:51.000Z</time>
      </trkpt>
      <trkpt lat="45.86057" lon="3.54503">
        <ele>440.3</ele>
        <time>2026-05-10T08:51:52.000Z</time>
      </trkpt>
      <trkpt lat="45.86056" lon="3.54503">
        <ele>440</ele>
        <time>2026-05-10T08:51:53.000Z</time>
      </trkpt>
      <trkpt lat="45.86055" lon="3.54502">
        <ele>439.9</ele>
        <time>2026-05-10T08:51:54.000Z</time>
      </trkpt>
      <trkpt lat="45.86054" lon="3.54501">
        <ele>439.6</ele>
        <time>2026-05-10T08:51:55.000Z</time>
      </trkpt>
      <trkpt lat="45.86053" lon="3.54501">
        <ele>439.4</ele>
        <time>2026-05-10T08:51:56.000Z</time>
      </trkpt>
      <trkpt lat="45.86052" lon="3.545">
        <ele>439.2</ele>
        <time>2026-05-10T08:51:57.000Z</time>
      </trkpt>
      <trkpt lat="45.86051" lon="3.545">
        <ele>438.9</ele>
        <time>2026-05-10T08:51:58.000Z</time>
      </trkpt>
      <trkpt lat="45.8605" lon="3.54499">
        <ele>438.7</ele>
        <time>2026-05-10T08:51:59.000Z</time>
      </trkpt>
      <trkpt lat="45.86049" lon="3.54498">
        <ele>438.3</ele>
        <time>2026-05-10T08:52:00.000Z</time>
      </trkpt>
      <trkpt lat="45.86048" lon="3.54498">
        <ele>438.1</ele>
        <time>2026-05-10T08:52:01.000Z</time>
      </trkpt>
      <trkpt lat="45.86047" lon="3.54497">
        <ele>437.9</ele>
        <time>2026-05-10T08:52:02.000Z</time>
      </trkpt>
      <trkpt lat="45.86046" lon="3.54496">
        <ele>437.7</ele>
        <time>2026-05-10T08:52:03.000Z</time>
      </trkpt>
      <trkpt lat="45.86045" lon="3.54494">
        <ele>437.5</ele>
        <time>2026-05-10T08:52:04.000Z</time>
      </trkpt>
      <trkpt lat="45.86044" lon="3.54493">
        <ele>437.4</ele>
        <time>2026-05-10T08:52:05.000Z</time>
      </trkpt>
      <trkpt lat="45.86043" lon="3.54492">
        <ele>437.4</ele>
        <time>2026-05-10T08:52:06.000Z</time>
      </trkpt>
      <trkpt lat="45.86042" lon="3.54491">
        <ele>437.3</ele>
        <time>2026-05-10T08:52:07.000Z</time>
      </trkpt>
      <trkpt lat="45.86042" lon="3.54489">
        <ele>437.3</ele>
        <time>2026-05-10T08:52:08.000Z</time>
      </trkpt>
      <trkpt lat="45.86041" lon="3.54488">
        <ele>437.3</ele>
        <time>2026-05-10T08:52:09.000Z</time>
      </trkpt>
      <trkpt lat="45.86041" lon="3.54487">
        <ele>437.3</ele>
        <time>2026-05-10T08:52:10.000Z</time>
      </trkpt>
      <trkpt lat="45.8604" lon="3.54484">
        <ele>437.4</ele>
        <time>2026-05-10T08:52:11.000Z</time>
      </trkpt>
      <trkpt lat="45.86039" lon="3.54482">
        <ele>437.5</ele>
        <time>2026-05-10T08:52:12.000Z</time>
      </trkpt>
      <trkpt lat="45.86039" lon="3.54481">
        <ele>437.6</ele>
        <time>2026-05-10T08:52:13.000Z</time>
      </trkpt>
      <trkpt lat="45.86039" lon="3.54479">
        <ele>437.8</ele>
        <time>2026-05-10T08:52:14.000Z</time>
      </trkpt>
      <trkpt lat="45.86038" lon="3.54477">
        <ele>437.9</ele>
        <time>2026-05-10T08:52:15.000Z</time>
      </trkpt>
      <trkpt lat="45.86038" lon="3.54475">
        <ele>438.1</ele>
        <time>2026-05-10T08:52:16.000Z</time>
      </trkpt>
      <trkpt lat="45.86038" lon="3.54473">
        <ele>438.2</ele>
        <time>2026-05-10T08:52:17.000Z</time>
      </trkpt>
      <trkpt lat="45.86037" lon="3.54471">
        <ele>438.3</ele>
        <time>2026-05-10T08:52:18.000Z</time>
      </trkpt>
      <trkpt lat="45.86037" lon="3.54469">
        <ele>438.3</ele>
        <time>2026-05-10T08:52:19.000Z</time>
      </trkpt>
      <trkpt lat="45.86037" lon="3.54468">
        <ele>438.2</ele>
        <time>2026-05-10T08:52:20.000Z</time>
      </trkpt>
      <trkpt lat="45.86037" lon="3.54466">
        <ele>438.2</ele>
        <time>2026-05-10T08:52:21.000Z</time>
      </trkpt>
      <trkpt lat="45.86036" lon="3.54465">
        <ele>438.1</ele>
        <time>2026-05-10T08:52:22.000Z</time>
      </trkpt>
      <trkpt lat="45.86036" lon="3.54464">
        <ele>438.1</ele>
        <time>2026-05-10T08:52:23.000Z</time>
      </trkpt>
      <trkpt lat="45.86036" lon="3.54462">
        <ele>438.1</ele>
        <time>2026-05-10T08:52:24.000Z</time>
      </trkpt>
      <trkpt lat="45.86036" lon="3.5446">
        <ele>438</ele>
        <time>2026-05-10T08:52:25.000Z</time>
      </trkpt>
      <trkpt lat="45.86036" lon="3.54458">
        <ele>437.9</ele>
        <time>2026-05-10T08:52:26.000Z</time>
      </trkpt>
      <trkpt lat="45.86036" lon="3.54456">
        <ele>437.9</ele>
        <time>2026-05-10T08:52:27.000Z</time>
      </trkpt>
      <trkpt lat="45.86036" lon="3.54454">
        <ele>437.8</ele>
        <time>2026-05-10T08:52:28.000Z</time>
      </trkpt>
      <trkpt lat="45.86036" lon="3.54452">
        <ele>437.8</ele>
        <time>2026-05-10T08:52:29.000Z</time>
      </trkpt>
      <trkpt lat="45.86036" lon="3.5445">
        <ele>437.7</ele>
        <time>2026-05-10T08:52:30.000Z</time>
      </trkpt>
      <trkpt lat="45.86036" lon="3.54448">
        <ele>437.6</ele>
        <time>2026-05-10T08:52:31.000Z</time>
      </trkpt>
      <trkpt lat="45.86035" lon="3.54446">
        <ele>437.6</ele>
        <time>2026-05-10T08:52:32.000Z</time>
      </trkpt>
      <trkpt lat="45.86035" lon="3.54444">
        <ele>437.5</ele>
        <time>2026-05-10T08:52:33.000Z</time>
      </trkpt>
      <trkpt lat="45.86035" lon="3.54442">
        <ele>437.5</ele>
        <time>2026-05-10T08:52:34.000Z</time>
      </trkpt>
      <trkpt lat="45.86035" lon="3.54441">
        <ele>437.5</ele>
        <time>2026-05-10T08:52:35.000Z</time>
      </trkpt>
      <trkpt lat="45.86035" lon="3.54439">
        <ele>437.5</ele>
        <time>2026-05-10T08:52:36.000Z</time>
      </trkpt>
      <trkpt lat="45.86035" lon="3.54437">
        <ele>437.4</ele>
        <time>2026-05-10T08:52:37.000Z</time>
      </trkpt>
      <trkpt lat="45.86035" lon="3.54435">
        <ele>437.4</ele>
        <time>2026-05-10T08:52:38.000Z</time>
      </trkpt>
      <trkpt lat="45.86035" lon="3.54434">
        <ele>437.4</ele>
        <time>2026-05-10T08:52:39.000Z</time>
      </trkpt>
      <trkpt lat="45.86035" lon="3.54431">
        <ele>437.3</ele>
        <time>2026-05-10T08:52:40.000Z</time>
      </trkpt>
      <trkpt lat="45.86035" lon="3.54429">
        <ele>437.3</ele>
        <time>2026-05-10T08:52:41.000Z</time>
      </trkpt>
      <trkpt lat="45.86035" lon="3.54428">
        <ele>437.3</ele>
        <time>2026-05-10T08:52:42.000Z</time>
      </trkpt>
      <trkpt lat="45.86035" lon="3.54426">
        <ele>437.2</ele>
        <time>2026-05-10T08:52:43.000Z</time>
      </trkpt>
      <trkpt lat="45.86035" lon="3.54423">
        <ele>437.2</ele>
        <time>2026-05-10T08:52:44.000Z</time>
      </trkpt>
      <trkpt lat="45.86035" lon="3.54421">
        <ele>437.1</ele>
        <time>2026-05-10T08:52:45.000Z</time>
      </trkpt>
      <trkpt lat="45.86035" lon="3.54419">
        <ele>437.1</ele>
        <time>2026-05-10T08:52:46.000Z</time>
      </trkpt>
      <trkpt lat="45.86035" lon="3.54417">
        <ele>437</ele>
        <time>2026-05-10T08:52:47.000Z</time>
      </trkpt>
      <trkpt lat="45.86035" lon="3.54415">
        <ele>436.9</ele>
        <time>2026-05-10T08:52:48.000Z</time>
      </trkpt>
      <trkpt lat="45.86035" lon="3.54413">
        <ele>436.8</ele>
        <time>2026-05-10T08:52:49.000Z</time>
      </trkpt>
      <trkpt lat="45.86035" lon="3.54412">
        <ele>436.7</ele>
        <time>2026-05-10T08:52:50.000Z</time>
      </trkpt>
      <trkpt lat="45.86035" lon="3.5441">
        <ele>436.7</ele>
        <time>2026-05-10T08:52:51.000Z</time>
      </trkpt>
      <trkpt lat="45.86035" lon="3.54409">
        <ele>436.6</ele>
        <time>2026-05-10T08:52:52.000Z</time>
      </trkpt>
      <trkpt lat="45.86035" lon="3.54408">
        <ele>436.6</ele>
        <time>2026-05-10T08:52:53.000Z</time>
      </trkpt>
      <trkpt lat="45.86034" lon="3.54406">
        <ele>436.5</ele>
        <time>2026-05-10T08:52:54.000Z</time>
      </trkpt>
      <trkpt lat="45.86034" lon="3.54404">
        <ele>436.4</ele>
        <time>2026-05-10T08:52:55.000Z</time>
      </trkpt>
      <trkpt lat="45.86034" lon="3.54403">
        <ele>436.3</ele>
        <time>2026-05-10T08:52:56.000Z</time>
      </trkpt>
      <trkpt lat="45.86034" lon="3.544">
        <ele>436.2</ele>
        <time>2026-05-10T08:52:57.000Z</time>
      </trkpt>
      <trkpt lat="45.86034" lon="3.54398">
        <ele>436</ele>
        <time>2026-05-10T08:52:58.000Z</time>
      </trkpt>
      <trkpt lat="45.86034" lon="3.54396">
        <ele>435.9</ele>
        <time>2026-05-10T08:52:59.000Z</time>
      </trkpt>
      <trkpt lat="45.86034" lon="3.54393">
        <ele>435.8</ele>
        <time>2026-05-10T08:53:00.000Z</time>
      </trkpt>
      <trkpt lat="45.86033" lon="3.54391">
        <ele>435.7</ele>
        <time>2026-05-10T08:53:01.000Z</time>
      </trkpt>
      <trkpt lat="45.86033" lon="3.54389">
        <ele>435.5</ele>
        <time>2026-05-10T08:53:02.000Z</time>
      </trkpt>
      <trkpt lat="45.86033" lon="3.54386">
        <ele>435.4</ele>
        <time>2026-05-10T08:53:03.000Z</time>
      </trkpt>
      <trkpt lat="45.86033" lon="3.54384">
        <ele>435.1</ele>
        <time>2026-05-10T08:53:04.000Z</time>
      </trkpt>
      <trkpt lat="45.86033" lon="3.54382">
        <ele>435</ele>
        <time>2026-05-10T08:53:05.000Z</time>
      </trkpt>
      <trkpt lat="45.86033" lon="3.5438">
        <ele>434.8</ele>
        <time>2026-05-10T08:53:06.000Z</time>
      </trkpt>
      <trkpt lat="45.86033" lon="3.54378">
        <ele>434.6</ele>
        <time>2026-05-10T08:53:07.000Z</time>
      </trkpt>
      <trkpt lat="45.86033" lon="3.54376">
        <ele>434.4</ele>
        <time>2026-05-10T08:53:08.000Z</time>
      </trkpt>
      <trkpt lat="45.86033" lon="3.54374">
        <ele>434.3</ele>
        <time>2026-05-10T08:53:09.000Z</time>
      </trkpt>
      <trkpt lat="45.86034" lon="3.54373">
        <ele>434.2</ele>
        <time>2026-05-10T08:53:10.000Z</time>
      </trkpt>
      <trkpt lat="45.86034" lon="3.54371">
        <ele>434.1</ele>
        <time>2026-05-10T08:53:11.000Z</time>
      </trkpt>
      <trkpt lat="45.86034" lon="3.5437">
        <ele>434.1</ele>
        <time>2026-05-10T08:53:12.000Z</time>
      </trkpt>
      <trkpt lat="45.86034" lon="3.54368">
        <ele>434</ele>
        <time>2026-05-10T08:53:13.000Z</time>
      </trkpt>
      <trkpt lat="45.86035" lon="3.54366">
        <ele>433.8</ele>
        <time>2026-05-10T08:53:14.000Z</time>
      </trkpt>
      <trkpt lat="45.86035" lon="3.54364">
        <ele>433.7</ele>
        <time>2026-05-10T08:53:15.000Z</time>
      </trkpt>
      <trkpt lat="45.86035" lon="3.54362">
        <ele>433.7</ele>
        <time>2026-05-10T08:53:16.000Z</time>
      </trkpt>
      <trkpt lat="45.86036" lon="3.5436">
        <ele>433.7</ele>
        <time>2026-05-10T08:53:17.000Z</time>
      </trkpt>
      <trkpt lat="45.86037" lon="3.54358">
        <ele>433.8</ele>
        <time>2026-05-10T08:53:18.000Z</time>
      </trkpt>
      <trkpt lat="45.86037" lon="3.54356">
        <ele>433.8</ele>
        <time>2026-05-10T08:53:19.000Z</time>
      </trkpt>
      <trkpt lat="45.86038" lon="3.54354">
        <ele>433.9</ele>
        <time>2026-05-10T08:53:20.000Z</time>
      </trkpt>
      <trkpt lat="45.86039" lon="3.54352">
        <ele>434</ele>
        <time>2026-05-10T08:53:21.000Z</time>
      </trkpt>
      <trkpt lat="45.8604" lon="3.5435">
        <ele>434.1</ele>
        <time>2026-05-10T08:53:22.000Z</time>
      </trkpt>
      <trkpt lat="45.86041" lon="3.54349">
        <ele>434.3</ele>
        <time>2026-05-10T08:53:23.000Z</time>
      </trkpt>
      <trkpt lat="45.86041" lon="3.54347">
        <ele>434.3</ele>
        <time>2026-05-10T08:53:24.000Z</time>
      </trkpt>
      <trkpt lat="45.86041" lon="3.54346">
        <ele>434.4</ele>
        <time>2026-05-10T08:53:25.000Z</time>
      </trkpt>
      <trkpt lat="45.86042" lon="3.54344">
        <ele>434.4</ele>
        <time>2026-05-10T08:53:26.000Z</time>
      </trkpt>
      <trkpt lat="45.86042" lon="3.54342">
        <ele>434.4</ele>
        <time>2026-05-10T08:53:27.000Z</time>
      </trkpt>
      <trkpt lat="45.86043" lon="3.54341">
        <ele>434.5</ele>
        <time>2026-05-10T08:53:28.000Z</time>
      </trkpt>
      <trkpt lat="45.86043" lon="3.54339">
        <ele>434.6</ele>
        <time>2026-05-10T08:53:29.000Z</time>
      </trkpt>
      <trkpt lat="45.86044" lon="3.54337">
        <ele>434.7</ele>
        <time>2026-05-10T08:53:30.000Z</time>
      </trkpt>
      <trkpt lat="45.86044" lon="3.54335">
        <ele>434.8</ele>
        <time>2026-05-10T08:53:31.000Z</time>
      </trkpt>
      <trkpt lat="45.86045" lon="3.54334">
        <ele>435</ele>
        <time>2026-05-10T08:53:32.000Z</time>
      </trkpt>
      <trkpt lat="45.86046" lon="3.54332">
        <ele>435.1</ele>
        <time>2026-05-10T08:53:33.000Z</time>
      </trkpt>
      <trkpt lat="45.86047" lon="3.54331">
        <ele>435.2</ele>
        <time>2026-05-10T08:53:34.000Z</time>
      </trkpt>
      <trkpt lat="45.86047" lon="3.54329">
        <ele>435.4</ele>
        <time>2026-05-10T08:53:35.000Z</time>
      </trkpt>
      <trkpt lat="45.86048" lon="3.54328">
        <ele>435.6</ele>
        <time>2026-05-10T08:53:36.000Z</time>
      </trkpt>
      <trkpt lat="45.8605" lon="3.54326">
        <ele>435.8</ele>
        <time>2026-05-10T08:53:37.000Z</time>
      </trkpt>
      <trkpt lat="45.86051" lon="3.54324">
        <ele>436</ele>
        <time>2026-05-10T08:53:38.000Z</time>
      </trkpt>
      <trkpt lat="45.86052" lon="3.54322">
        <ele>436.1</ele>
        <time>2026-05-10T08:53:39.000Z</time>
      </trkpt>
      <trkpt lat="45.86053" lon="3.5432">
        <ele>436.3</ele>
        <time>2026-05-10T08:53:40.000Z</time>
      </trkpt>
      <trkpt lat="45.86054" lon="3.54318">
        <ele>436.4</ele>
        <time>2026-05-10T08:53:41.000Z</time>
      </trkpt>
      <trkpt lat="45.86055" lon="3.54316">
        <ele>436.5</ele>
        <time>2026-05-10T08:53:42.000Z</time>
      </trkpt>
      <trkpt lat="45.86056" lon="3.54315">
        <ele>436.7</ele>
        <time>2026-05-10T08:53:43.000Z</time>
      </trkpt>
      <trkpt lat="45.86057" lon="3.54313">
        <ele>436.6</ele>
        <time>2026-05-10T08:53:44.000Z</time>
      </trkpt>
      <trkpt lat="45.86058" lon="3.54312">
        <ele>436.6</ele>
        <time>2026-05-10T08:53:45.000Z</time>
      </trkpt>
      <trkpt lat="45.86059" lon="3.5431">
        <ele>436.5</ele>
        <time>2026-05-10T08:53:46.000Z</time>
      </trkpt>
      <trkpt lat="45.8606" lon="3.5431">
        <ele>436.5</ele>
        <time>2026-05-10T08:53:47.000Z</time>
      </trkpt>
      <trkpt lat="45.86061" lon="3.54309">
        <ele>436.5</ele>
        <time>2026-05-10T08:53:48.000Z</time>
      </trkpt>
      <trkpt lat="45.86061" lon="3.54308">
        <ele>436.6</ele>
        <time>2026-05-10T08:53:49.000Z</time>
      </trkpt>
      <trkpt lat="45.86062" lon="3.54307">
        <ele>436.6</ele>
        <time>2026-05-10T08:53:50.000Z</time>
      </trkpt>
      <trkpt lat="45.86063" lon="3.54307">
        <ele>436.6</ele>
        <time>2026-05-10T08:53:51.000Z</time>
      </trkpt>
      <trkpt lat="45.86064" lon="3.54307">
        <ele>436.6</ele>
        <time>2026-05-10T08:53:52.000Z</time>
      </trkpt>
      <trkpt lat="45.86065" lon="3.54306">
        <ele>436.7</ele>
        <time>2026-05-10T08:53:53.000Z</time>
      </trkpt>
      <trkpt lat="45.86066" lon="3.54306">
        <ele>436.8</ele>
        <time>2026-05-10T08:53:54.000Z</time>
      </trkpt>
      <trkpt lat="45.86067" lon="3.54305">
        <ele>436.8</ele>
        <time>2026-05-10T08:53:55.000Z</time>
      </trkpt>
      <trkpt lat="45.86068" lon="3.54304">
        <ele>436.8</ele>
        <time>2026-05-10T08:53:56.000Z</time>
      </trkpt>
      <trkpt lat="45.8607" lon="3.54304">
        <ele>436.9</ele>
        <time>2026-05-10T08:53:57.000Z</time>
      </trkpt>
      <trkpt lat="45.86071" lon="3.54303">
        <ele>436.9</ele>
        <time>2026-05-10T08:53:58.000Z</time>
      </trkpt>
      <trkpt lat="45.86073" lon="3.54302">
        <ele>437</ele>
        <time>2026-05-10T08:53:59.000Z</time>
      </trkpt>
      <trkpt lat="45.86074" lon="3.54302">
        <ele>437.1</ele>
        <time>2026-05-10T08:54:00.000Z</time>
      </trkpt>
      <trkpt lat="45.86075" lon="3.54301">
        <ele>437.1</ele>
        <time>2026-05-10T08:54:01.000Z</time>
      </trkpt>
      <trkpt lat="45.86076" lon="3.543">
        <ele>437.1</ele>
        <time>2026-05-10T08:54:02.000Z</time>
      </trkpt>
      <trkpt lat="45.86078" lon="3.54299">
        <ele>437.2</ele>
        <time>2026-05-10T08:54:03.000Z</time>
      </trkpt>
      <trkpt lat="45.86079" lon="3.54297">
        <ele>437.2</ele>
        <time>2026-05-10T08:54:04.000Z</time>
      </trkpt>
      <trkpt lat="45.8608" lon="3.54296">
        <ele>437.2</ele>
        <time>2026-05-10T08:54:05.000Z</time>
      </trkpt>
      <trkpt lat="45.8608" lon="3.54294">
        <ele>437.2</ele>
        <time>2026-05-10T08:54:06.000Z</time>
      </trkpt>
      <trkpt lat="45.86081" lon="3.54292">
        <ele>437.2</ele>
        <time>2026-05-10T08:54:07.000Z</time>
      </trkpt>
      <trkpt lat="45.86082" lon="3.54291">
        <ele>437.2</ele>
        <time>2026-05-10T08:54:08.000Z</time>
      </trkpt>
      <trkpt lat="45.86082" lon="3.5429">
        <ele>437.3</ele>
        <time>2026-05-10T08:54:09.000Z</time>
      </trkpt>
      <trkpt lat="45.86083" lon="3.54288">
        <ele>437.4</ele>
        <time>2026-05-10T08:54:10.000Z</time>
      </trkpt>
      <trkpt lat="45.86084" lon="3.54286">
        <ele>437.3</ele>
        <time>2026-05-10T08:54:11.000Z</time>
      </trkpt>
      <trkpt lat="45.86085" lon="3.54285">
        <ele>437.3</ele>
        <time>2026-05-10T08:54:12.000Z</time>
      </trkpt>
      <trkpt lat="45.86086" lon="3.54283">
        <ele>437.3</ele>
        <time>2026-05-10T08:54:13.000Z</time>
      </trkpt>
      <trkpt lat="45.86087" lon="3.54282">
        <ele>437.3</ele>
        <time>2026-05-10T08:54:14.000Z</time>
      </trkpt>
      <trkpt lat="45.86087" lon="3.5428">
        <ele>437.2</ele>
        <time>2026-05-10T08:54:15.000Z</time>
      </trkpt>
      <trkpt lat="45.86088" lon="3.54279">
        <ele>437.2</ele>
        <time>2026-05-10T08:54:16.000Z</time>
      </trkpt>
      <trkpt lat="45.86089" lon="3.54277">
        <ele>437.2</ele>
        <time>2026-05-10T08:54:17.000Z</time>
      </trkpt>
      <trkpt lat="45.8609" lon="3.54276">
        <ele>437.2</ele>
        <time>2026-05-10T08:54:18.000Z</time>
      </trkpt>
      <trkpt lat="45.8609" lon="3.54274">
        <ele>437.2</ele>
        <time>2026-05-10T08:54:19.000Z</time>
      </trkpt>
      <trkpt lat="45.86091" lon="3.54273">
        <ele>437.1</ele>
        <time>2026-05-10T08:54:20.000Z</time>
      </trkpt>
      <trkpt lat="45.86092" lon="3.54271">
        <ele>437.1</ele>
        <time>2026-05-10T08:54:21.000Z</time>
      </trkpt>
      <trkpt lat="45.86093" lon="3.5427">
        <ele>437.1</ele>
        <time>2026-05-10T08:54:22.000Z</time>
      </trkpt>
      <trkpt lat="45.86094" lon="3.54268">
        <ele>437.2</ele>
        <time>2026-05-10T08:54:23.000Z</time>
      </trkpt>
      <trkpt lat="45.86095" lon="3.54266">
        <ele>437.2</ele>
        <time>2026-05-10T08:54:24.000Z</time>
      </trkpt>
      <trkpt lat="45.86095" lon="3.54265">
        <ele>437.2</ele>
        <time>2026-05-10T08:54:25.000Z</time>
      </trkpt>
      <trkpt lat="45.86096" lon="3.54262">
        <ele>437.2</ele>
        <time>2026-05-10T08:54:26.000Z</time>
      </trkpt>
      <trkpt lat="45.86097" lon="3.5426">
        <ele>437.2</ele>
        <time>2026-05-10T08:54:27.000Z</time>
      </trkpt>
      <trkpt lat="45.86098" lon="3.54258">
        <ele>437.2</ele>
        <time>2026-05-10T08:54:28.000Z</time>
      </trkpt>
      <trkpt lat="45.86098" lon="3.54257">
        <ele>437.2</ele>
        <time>2026-05-10T08:54:29.000Z</time>
      </trkpt>
      <trkpt lat="45.86099" lon="3.54255">
        <ele>437.2</ele>
        <time>2026-05-10T08:54:30.000Z</time>
      </trkpt>
      <trkpt lat="45.861" lon="3.54253">
        <ele>437.2</ele>
        <time>2026-05-10T08:54:31.000Z</time>
      </trkpt>
      <trkpt lat="45.861" lon="3.5425">
        <ele>437.2</ele>
        <time>2026-05-10T08:54:32.000Z</time>
      </trkpt>
      <trkpt lat="45.861" lon="3.54248">
        <ele>437.2</ele>
        <time>2026-05-10T08:54:33.000Z</time>
      </trkpt>
      <trkpt lat="45.861" lon="3.54246">
        <ele>437.2</ele>
        <time>2026-05-10T08:54:34.000Z</time>
      </trkpt>
      <trkpt lat="45.861" lon="3.54244">
        <ele>437.1</ele>
        <time>2026-05-10T08:54:35.000Z</time>
      </trkpt>
      <trkpt lat="45.861" lon="3.54243">
        <ele>437.1</ele>
        <time>2026-05-10T08:54:36.000Z</time>
      </trkpt>
      <trkpt lat="45.861" lon="3.54241">
        <ele>437.1</ele>
        <time>2026-05-10T08:54:37.000Z</time>
      </trkpt>
      <trkpt lat="45.861" lon="3.54239">
        <ele>437</ele>
        <time>2026-05-10T08:54:38.000Z</time>
      </trkpt>
      <trkpt lat="45.86099" lon="3.54237">
        <ele>436.9</ele>
        <time>2026-05-10T08:54:39.000Z</time>
      </trkpt>
      <trkpt lat="45.86098" lon="3.54235">
        <ele>436.8</ele>
        <time>2026-05-10T08:54:40.000Z</time>
      </trkpt>
      <trkpt lat="45.86098" lon="3.54234">
        <ele>436.7</ele>
        <time>2026-05-10T08:54:41.000Z</time>
      </trkpt>
      <trkpt lat="45.86097" lon="3.54232">
        <ele>436.6</ele>
        <time>2026-05-10T08:54:42.000Z</time>
      </trkpt>
      <trkpt lat="45.86096" lon="3.54231">
        <ele>436.5</ele>
        <time>2026-05-10T08:54:43.000Z</time>
      </trkpt>
      <trkpt lat="45.86095" lon="3.5423">
        <ele>436.4</ele>
        <time>2026-05-10T08:54:44.000Z</time>
      </trkpt>
      <trkpt lat="45.86094" lon="3.54229">
        <ele>436.3</ele>
        <time>2026-05-10T08:54:45.000Z</time>
      </trkpt>
      <trkpt lat="45.86093" lon="3.54228">
        <ele>436.2</ele>
        <time>2026-05-10T08:54:46.000Z</time>
      </trkpt>
      <trkpt lat="45.86092" lon="3.54227">
        <ele>436.1</ele>
        <time>2026-05-10T08:54:47.000Z</time>
      </trkpt>
      <trkpt lat="45.86091" lon="3.54226">
        <ele>435.9</ele>
        <time>2026-05-10T08:54:48.000Z</time>
      </trkpt>
      <trkpt lat="45.8609" lon="3.54226">
        <ele>435.8</ele>
        <time>2026-05-10T08:54:49.000Z</time>
      </trkpt>
      <trkpt lat="45.86088" lon="3.54226">
        <ele>435.6</ele>
        <time>2026-05-10T08:54:50.000Z</time>
      </trkpt>
      <trkpt lat="45.86086" lon="3.54226">
        <ele>435.4</ele>
        <time>2026-05-10T08:54:51.000Z</time>
      </trkpt>
      <trkpt lat="45.86085" lon="3.54226">
        <ele>435.3</ele>
        <time>2026-05-10T08:54:52.000Z</time>
      </trkpt>
      <trkpt lat="45.86083" lon="3.54226">
        <ele>435</ele>
        <time>2026-05-10T08:54:53.000Z</time>
      </trkpt>
      <trkpt lat="45.86082" lon="3.54227">
        <ele>434.7</ele>
        <time>2026-05-10T08:54:54.000Z</time>
      </trkpt>
      <trkpt lat="45.8608" lon="3.54228">
        <ele>434.3</ele>
        <time>2026-05-10T08:54:55.000Z</time>
      </trkpt>
      <trkpt lat="45.86079" lon="3.54229">
        <ele>434</ele>
        <time>2026-05-10T08:54:56.000Z</time>
      </trkpt>
      <trkpt lat="45.86078" lon="3.5423">
        <ele>433.8</ele>
        <time>2026-05-10T08:54:57.000Z</time>
      </trkpt>
      <trkpt lat="45.86077" lon="3.54231">
        <ele>433.5</ele>
        <time>2026-05-10T08:54:58.000Z</time>
      </trkpt>
      <trkpt lat="45.86076" lon="3.54232">
        <ele>433.3</ele>
        <time>2026-05-10T08:54:59.000Z</time>
      </trkpt>
      <trkpt lat="45.86075" lon="3.54234">
        <ele>433.1</ele>
        <time>2026-05-10T08:55:00.000Z</time>
      </trkpt>
      <trkpt lat="45.86074" lon="3.54235">
        <ele>433</ele>
        <time>2026-05-10T08:55:01.000Z</time>
      </trkpt>
      <trkpt lat="45.86073" lon="3.54237">
        <ele>433</ele>
        <time>2026-05-10T08:55:02.000Z</time>
      </trkpt>
      <trkpt lat="45.86073" lon="3.54238">
        <ele>433</ele>
        <time>2026-05-10T08:55:03.000Z</time>
      </trkpt>
      <trkpt lat="45.86072" lon="3.5424">
        <ele>433</ele>
        <time>2026-05-10T08:55:04.000Z</time>
      </trkpt>
      <trkpt lat="45.86072" lon="3.54241">
        <ele>433.1</ele>
        <time>2026-05-10T08:55:05.000Z</time>
      </trkpt>
      <trkpt lat="45.86071" lon="3.54242">
        <ele>433.1</ele>
        <time>2026-05-10T08:55:06.000Z</time>
      </trkpt>
      <trkpt lat="45.86071" lon="3.54244">
        <ele>433.1</ele>
        <time>2026-05-10T08:55:07.000Z</time>
      </trkpt>
      <trkpt lat="45.8607" lon="3.54246">
        <ele>433.1</ele>
        <time>2026-05-10T08:55:08.000Z</time>
      </trkpt>
      <trkpt lat="45.8607" lon="3.54247">
        <ele>433.2</ele>
        <time>2026-05-10T08:55:09.000Z</time>
      </trkpt>
      <trkpt lat="45.86069" lon="3.54249">
        <ele>433.3</ele>
        <time>2026-05-10T08:55:10.000Z</time>
      </trkpt>
      <trkpt lat="45.86068" lon="3.54251">
        <ele>433.3</ele>
        <time>2026-05-10T08:55:11.000Z</time>
      </trkpt>
      <trkpt lat="45.86068" lon="3.54252">
        <ele>433.3</ele>
        <time>2026-05-10T08:55:12.000Z</time>
      </trkpt>
      <trkpt lat="45.86068" lon="3.54254">
        <ele>433.3</ele>
        <time>2026-05-10T08:55:13.000Z</time>
      </trkpt>
      <trkpt lat="45.86067" lon="3.54256">
        <ele>433.3</ele>
        <time>2026-05-10T08:55:14.000Z</time>
      </trkpt>
      <trkpt lat="45.86066" lon="3.54257">
        <ele>433.2</ele>
        <time>2026-05-10T08:55:15.000Z</time>
      </trkpt>
      <trkpt lat="45.86066" lon="3.54259">
        <ele>433.2</ele>
        <time>2026-05-10T08:55:16.000Z</time>
      </trkpt>
      <trkpt lat="45.86065" lon="3.54261">
        <ele>433.1</ele>
        <time>2026-05-10T08:55:17.000Z</time>
      </trkpt>
      <trkpt lat="45.86064" lon="3.54263">
        <ele>433</ele>
        <time>2026-05-10T08:55:18.000Z</time>
      </trkpt>
      <trkpt lat="45.86063" lon="3.54265">
        <ele>432.9</ele>
        <time>2026-05-10T08:55:19.000Z</time>
      </trkpt>
      <trkpt lat="45.86062" lon="3.54267">
        <ele>432.8</ele>
        <time>2026-05-10T08:55:20.000Z</time>
      </trkpt>
      <trkpt lat="45.86061" lon="3.54269">
        <ele>432.7</ele>
        <time>2026-05-10T08:55:21.000Z</time>
      </trkpt>
      <trkpt lat="45.8606" lon="3.54271">
        <ele>432.5</ele>
        <time>2026-05-10T08:55:22.000Z</time>
      </trkpt>
      <trkpt lat="45.86059" lon="3.54272">
        <ele>432.4</ele>
        <time>2026-05-10T08:55:23.000Z</time>
      </trkpt>
      <trkpt lat="45.86058" lon="3.54274">
        <ele>432.2</ele>
        <time>2026-05-10T08:55:24.000Z</time>
      </trkpt>
      <trkpt lat="45.86057" lon="3.54275">
        <ele>432.1</ele>
        <time>2026-05-10T08:55:25.000Z</time>
      </trkpt>
      <trkpt lat="45.86056" lon="3.54277">
        <ele>432</ele>
        <time>2026-05-10T08:55:26.000Z</time>
      </trkpt>
      <trkpt lat="45.86055" lon="3.54278">
        <ele>431.8</ele>
        <time>2026-05-10T08:55:27.000Z</time>
      </trkpt>
      <trkpt lat="45.86054" lon="3.5428">
        <ele>431.9</ele>
        <time>2026-05-10T08:55:28.000Z</time>
      </trkpt>
      <trkpt lat="45.86053" lon="3.54282">
        <ele>432.1</ele>
        <time>2026-05-10T08:55:29.000Z</time>
      </trkpt>
      <trkpt lat="45.86053" lon="3.54284">
        <ele>432.2</ele>
        <time>2026-05-10T08:55:30.000Z</time>
      </trkpt>
      <trkpt lat="45.86052" lon="3.54286">
        <ele>432.2</ele>
        <time>2026-05-10T08:55:31.000Z</time>
      </trkpt>
      <trkpt lat="45.86051" lon="3.54288">
        <ele>432.3</ele>
        <time>2026-05-10T08:55:32.000Z</time>
      </trkpt>
      <trkpt lat="45.86051" lon="3.54289">
        <ele>432.3</ele>
        <time>2026-05-10T08:55:33.000Z</time>
      </trkpt>
      <trkpt lat="45.8605" lon="3.54291">
        <ele>432.4</ele>
        <time>2026-05-10T08:55:34.000Z</time>
      </trkpt>
      <trkpt lat="45.86049" lon="3.54293">
        <ele>432.4</ele>
        <time>2026-05-10T08:55:35.000Z</time>
      </trkpt>
      <trkpt lat="45.86048" lon="3.54295">
        <ele>432.5</ele>
        <time>2026-05-10T08:55:36.000Z</time>
      </trkpt>
      <trkpt lat="45.86047" lon="3.54296">
        <ele>432.5</ele>
        <time>2026-05-10T08:55:37.000Z</time>
      </trkpt>
      <trkpt lat="45.86047" lon="3.54298">
        <ele>432.6</ele>
        <time>2026-05-10T08:55:38.000Z</time>
      </trkpt>
      <trkpt lat="45.86046" lon="3.543">
        <ele>432.6</ele>
        <time>2026-05-10T08:55:39.000Z</time>
      </trkpt>
      <trkpt lat="45.86045" lon="3.54301">
        <ele>432.7</ele>
        <time>2026-05-10T08:55:40.000Z</time>
      </trkpt>
      <trkpt lat="45.86045" lon="3.54303">
        <ele>432.8</ele>
        <time>2026-05-10T08:55:41.000Z</time>
      </trkpt>
      <trkpt lat="45.86044" lon="3.54304">
        <ele>432.9</ele>
        <time>2026-05-10T08:55:42.000Z</time>
      </trkpt>
      <trkpt lat="45.86043" lon="3.54306">
        <ele>432.9</ele>
        <time>2026-05-10T08:55:43.000Z</time>
      </trkpt>
      <trkpt lat="45.86043" lon="3.54308">
        <ele>432.9</ele>
        <time>2026-05-10T08:55:44.000Z</time>
      </trkpt>
      <trkpt lat="45.86042" lon="3.54309">
        <ele>432.8</ele>
        <time>2026-05-10T08:55:45.000Z</time>
      </trkpt>
      <trkpt lat="45.86041" lon="3.54311">
        <ele>432.7</ele>
        <time>2026-05-10T08:55:46.000Z</time>
      </trkpt>
      <trkpt lat="45.86041" lon="3.54313">
        <ele>432.7</ele>
        <time>2026-05-10T08:55:47.000Z</time>
      </trkpt>
      <trkpt lat="45.8604" lon="3.54315">
        <ele>432.5</ele>
        <time>2026-05-10T08:55:48.000Z</time>
      </trkpt>
      <trkpt lat="45.86039" lon="3.54316">
        <ele>432.4</ele>
        <time>2026-05-10T08:55:49.000Z</time>
      </trkpt>
      <trkpt lat="45.86038" lon="3.54318">
        <ele>432.3</ele>
        <time>2026-05-10T08:55:50.000Z</time>
      </trkpt>
      <trkpt lat="45.86038" lon="3.5432">
        <ele>432.2</ele>
        <time>2026-05-10T08:55:51.000Z</time>
      </trkpt>
      <trkpt lat="45.86037" lon="3.54322">
        <ele>432.1</ele>
        <time>2026-05-10T08:55:52.000Z</time>
      </trkpt>
      <trkpt lat="45.86036" lon="3.54324">
        <ele>432</ele>
        <time>2026-05-10T08:55:53.000Z</time>
      </trkpt>
      <trkpt lat="45.86035" lon="3.54326">
        <ele>431.9</ele>
        <time>2026-05-10T08:55:54.000Z</time>
      </trkpt>
      <trkpt lat="45.86035" lon="3.54328">
        <ele>431.7</ele>
        <time>2026-05-10T08:55:55.000Z</time>
      </trkpt>
      <trkpt lat="45.86034" lon="3.5433">
        <ele>431.6</ele>
        <time>2026-05-10T08:55:56.000Z</time>
      </trkpt>
      <trkpt lat="45.86033" lon="3.54331">
        <ele>431.4</ele>
        <time>2026-05-10T08:55:57.000Z</time>
      </trkpt>
      <trkpt lat="45.86032" lon="3.54333">
        <ele>431.3</ele>
        <time>2026-05-10T08:55:58.000Z</time>
      </trkpt>
      <trkpt lat="45.86032" lon="3.54335">
        <ele>431.2</ele>
        <time>2026-05-10T08:55:59.000Z</time>
      </trkpt>
      <trkpt lat="45.86031" lon="3.54337">
        <ele>431.2</ele>
        <time>2026-05-10T08:56:00.000Z</time>
      </trkpt>
      <trkpt lat="45.86031" lon="3.54339">
        <ele>431.1</ele>
        <time>2026-05-10T08:56:01.000Z</time>
      </trkpt>
      <trkpt lat="45.8603" lon="3.5434">
        <ele>431.1</ele>
        <time>2026-05-10T08:56:02.000Z</time>
      </trkpt>
      <trkpt lat="45.8603" lon="3.54342">
        <ele>431.1</ele>
        <time>2026-05-10T08:56:03.000Z</time>
      </trkpt>
      <trkpt lat="45.86029" lon="3.54344">
        <ele>431.1</ele>
        <time>2026-05-10T08:56:04.000Z</time>
      </trkpt>
      <trkpt lat="45.86029" lon="3.54346">
        <ele>431.2</ele>
        <time>2026-05-10T08:56:05.000Z</time>
      </trkpt>
      <trkpt lat="45.86028" lon="3.54348">
        <ele>431.2</ele>
        <time>2026-05-10T08:56:06.000Z</time>
      </trkpt>
      <trkpt lat="45.86028" lon="3.5435">
        <ele>431.2</ele>
        <time>2026-05-10T08:56:07.000Z</time>
      </trkpt>
      <trkpt lat="45.86028" lon="3.54352">
        <ele>431.3</ele>
        <time>2026-05-10T08:56:08.000Z</time>
      </trkpt>
      <trkpt lat="45.86028" lon="3.54353">
        <ele>431.3</ele>
        <time>2026-05-10T08:56:09.000Z</time>
      </trkpt>
      <trkpt lat="45.86027" lon="3.54354">
        <ele>431.4</ele>
        <time>2026-05-10T08:56:10.000Z</time>
      </trkpt>
      <trkpt lat="45.86027" lon="3.54356">
        <ele>431.5</ele>
        <time>2026-05-10T08:56:11.000Z</time>
      </trkpt>
      <trkpt lat="45.86027" lon="3.54358">
        <ele>431.6</ele>
        <time>2026-05-10T08:56:12.000Z</time>
      </trkpt>
      <trkpt lat="45.86027" lon="3.54359">
        <ele>431.7</ele>
        <time>2026-05-10T08:56:13.000Z</time>
      </trkpt>
      <trkpt lat="45.86027" lon="3.54361">
        <ele>431.7</ele>
        <time>2026-05-10T08:56:14.000Z</time>
      </trkpt>
      <trkpt lat="45.86026" lon="3.54363">
        <ele>431.8</ele>
        <time>2026-05-10T08:56:15.000Z</time>
      </trkpt>
      <trkpt lat="45.86026" lon="3.54364">
        <ele>431.9</ele>
        <time>2026-05-10T08:56:16.000Z</time>
      </trkpt>
      <trkpt lat="45.86026" lon="3.54366">
        <ele>432</ele>
        <time>2026-05-10T08:56:17.000Z</time>
      </trkpt>
      <trkpt lat="45.86025" lon="3.54368">
        <ele>432.1</ele>
        <time>2026-05-10T08:56:18.000Z</time>
      </trkpt>
      <trkpt lat="45.86024" lon="3.5437">
        <ele>432</ele>
        <time>2026-05-10T08:56:19.000Z</time>
      </trkpt>
      <trkpt lat="45.86024" lon="3.54372">
        <ele>432</ele>
        <time>2026-05-10T08:56:20.000Z</time>
      </trkpt>
      <trkpt lat="45.86023" lon="3.54374">
        <ele>432.1</ele>
        <time>2026-05-10T08:56:21.000Z</time>
      </trkpt>
      <trkpt lat="45.86023" lon="3.54377">
        <ele>432.1</ele>
        <time>2026-05-10T08:56:22.000Z</time>
      </trkpt>
      <trkpt lat="45.86022" lon="3.54379">
        <ele>432.1</ele>
        <time>2026-05-10T08:56:23.000Z</time>
      </trkpt>
      <trkpt lat="45.86021" lon="3.54382">
        <ele>432.1</ele>
        <time>2026-05-10T08:56:24.000Z</time>
      </trkpt>
      <trkpt lat="45.86021" lon="3.54384">
        <ele>432</ele>
        <time>2026-05-10T08:56:25.000Z</time>
      </trkpt>
      <trkpt lat="45.8602" lon="3.54386">
        <ele>432</ele>
        <time>2026-05-10T08:56:26.000Z</time>
      </trkpt>
      <trkpt lat="45.8602" lon="3.54387">
        <ele>432</ele>
        <time>2026-05-10T08:56:27.000Z</time>
      </trkpt>
      <trkpt lat="45.8602" lon="3.54389">
        <ele>432</ele>
        <time>2026-05-10T08:56:28.000Z</time>
      </trkpt>
      <trkpt lat="45.86019" lon="3.54391">
        <ele>431.9</ele>
        <time>2026-05-10T08:56:29.000Z</time>
      </trkpt>
      <trkpt lat="45.86018" lon="3.54393">
        <ele>431.7</ele>
        <time>2026-05-10T08:56:30.000Z</time>
      </trkpt>
      <trkpt lat="45.86018" lon="3.54395">
        <ele>431.6</ele>
        <time>2026-05-10T08:56:31.000Z</time>
      </trkpt>
      <trkpt lat="45.86018" lon="3.54397">
        <ele>431.6</ele>
        <time>2026-05-10T08:56:32.000Z</time>
      </trkpt>
      <trkpt lat="45.86017" lon="3.54399">
        <ele>431.5</ele>
        <time>2026-05-10T08:56:33.000Z</time>
      </trkpt>
      <trkpt lat="45.86017" lon="3.544">
        <ele>431.4</ele>
        <time>2026-05-10T08:56:34.000Z</time>
      </trkpt>
      <trkpt lat="45.86017" lon="3.54402">
        <ele>431.3</ele>
        <time>2026-05-10T08:56:35.000Z</time>
      </trkpt>
      <trkpt lat="45.86016" lon="3.54404">
        <ele>431.2</ele>
        <time>2026-05-10T08:56:36.000Z</time>
      </trkpt>
      <trkpt lat="45.86016" lon="3.54405">
        <ele>431.2</ele>
        <time>2026-05-10T08:56:37.000Z</time>
      </trkpt>
      <trkpt lat="45.86016" lon="3.54407">
        <ele>431.1</ele>
        <time>2026-05-10T08:56:38.000Z</time>
      </trkpt>
      <trkpt lat="45.86016" lon="3.54409">
        <ele>431</ele>
        <time>2026-05-10T08:56:39.000Z</time>
      </trkpt>
      <trkpt lat="45.86015" lon="3.54411">
        <ele>431</ele>
        <time>2026-05-10T08:56:40.000Z</time>
      </trkpt>
      <trkpt lat="45.86015" lon="3.54413">
        <ele>430.9</ele>
        <time>2026-05-10T08:56:41.000Z</time>
      </trkpt>
      <trkpt lat="45.86015" lon="3.54415">
        <ele>430.9</ele>
        <time>2026-05-10T08:56:42.000Z</time>
      </trkpt>
      <trkpt lat="45.86015" lon="3.54417">
        <ele>430.9</ele>
        <time>2026-05-10T08:56:43.000Z</time>
      </trkpt>
      <trkpt lat="45.86015" lon="3.54419">
        <ele>430.8</ele>
        <time>2026-05-10T08:56:44.000Z</time>
      </trkpt>
      <trkpt lat="45.86014" lon="3.54421">
        <ele>430.8</ele>
        <time>2026-05-10T08:56:45.000Z</time>
      </trkpt>
      <trkpt lat="45.86014" lon="3.54423">
        <ele>430.8</ele>
        <time>2026-05-10T08:56:46.000Z</time>
      </trkpt>
      <trkpt lat="45.86014" lon="3.54425">
        <ele>430.8</ele>
        <time>2026-05-10T08:56:47.000Z</time>
      </trkpt>
      <trkpt lat="45.86014" lon="3.54427">
        <ele>430.8</ele>
        <time>2026-05-10T08:56:48.000Z</time>
      </trkpt>
      <trkpt lat="45.86014" lon="3.54429">
        <ele>430.7</ele>
        <time>2026-05-10T08:56:49.000Z</time>
      </trkpt>
      <trkpt lat="45.86014" lon="3.54431">
        <ele>430.7</ele>
        <time>2026-05-10T08:56:50.000Z</time>
      </trkpt>
      <trkpt lat="45.86014" lon="3.54433">
        <ele>430.7</ele>
        <time>2026-05-10T08:56:51.000Z</time>
      </trkpt>
      <trkpt lat="45.86014" lon="3.54435">
        <ele>430.8</ele>
        <time>2026-05-10T08:56:52.000Z</time>
      </trkpt>
      <trkpt lat="45.86014" lon="3.54437">
        <ele>430.9</ele>
        <time>2026-05-10T08:56:53.000Z</time>
      </trkpt>
      <trkpt lat="45.86014" lon="3.5444">
        <ele>431</ele>
        <time>2026-05-10T08:56:54.000Z</time>
      </trkpt>
      <trkpt lat="45.86014" lon="3.54442">
        <ele>431</ele>
        <time>2026-05-10T08:56:55.000Z</time>
      </trkpt>
      <trkpt lat="45.86014" lon="3.54445">
        <ele>431.1</ele>
        <time>2026-05-10T08:56:56.000Z</time>
      </trkpt>
      <trkpt lat="45.86015" lon="3.54447">
        <ele>431.3</ele>
        <time>2026-05-10T08:56:57.000Z</time>
      </trkpt>
      <trkpt lat="45.86015" lon="3.54449">
        <ele>431.4</ele>
        <time>2026-05-10T08:56:58.000Z</time>
      </trkpt>
      <trkpt lat="45.86015" lon="3.54451">
        <ele>431.6</ele>
        <time>2026-05-10T08:56:59.000Z</time>
      </trkpt>
      <trkpt lat="45.86016" lon="3.54453">
        <ele>431.7</ele>
        <time>2026-05-10T08:57:00.000Z</time>
      </trkpt>
      <trkpt lat="45.86016" lon="3.54455">
        <ele>431.9</ele>
        <time>2026-05-10T08:57:01.000Z</time>
      </trkpt>
      <trkpt lat="45.86016" lon="3.54457">
        <ele>432</ele>
        <time>2026-05-10T08:57:02.000Z</time>
      </trkpt>
      <trkpt lat="45.86016" lon="3.54459">
        <ele>432.2</ele>
        <time>2026-05-10T08:57:03.000Z</time>
      </trkpt>
      <trkpt lat="45.86017" lon="3.54461">
        <ele>432.3</ele>
        <time>2026-05-10T08:57:04.000Z</time>
      </trkpt>
      <trkpt lat="45.86017" lon="3.54463">
        <ele>432.3</ele>
        <time>2026-05-10T08:57:05.000Z</time>
      </trkpt>
      <trkpt lat="45.86017" lon="3.54465">
        <ele>432.3</ele>
        <time>2026-05-10T08:57:06.000Z</time>
      </trkpt>
      <trkpt lat="45.86016" lon="3.54466">
        <ele>432.1</ele>
        <time>2026-05-10T08:57:07.000Z</time>
      </trkpt>
      <trkpt lat="45.86016" lon="3.54466">
        <ele>431.8</ele>
        <time>2026-05-10T08:57:08.000Z</time>
      </trkpt>
      <trkpt lat="45.86015" lon="3.54468">
        <ele>431.7</ele>
        <time>2026-05-10T08:57:09.000Z</time>
      </trkpt>
      <trkpt lat="45.86015" lon="3.54469">
        <ele>431.5</ele>
        <time>2026-05-10T08:57:10.000Z</time>
      </trkpt>
      <trkpt lat="45.86014" lon="3.5447">
        <ele>431.3</ele>
        <time>2026-05-10T08:57:11.000Z</time>
      </trkpt>
      <trkpt lat="45.86014" lon="3.54473">
        <ele>431.1</ele>
        <time>2026-05-10T08:57:12.000Z</time>
      </trkpt>
      <trkpt lat="45.86014" lon="3.54474">
        <ele>431</ele>
        <time>2026-05-10T08:57:13.000Z</time>
      </trkpt>
      <trkpt lat="45.86014" lon="3.54476">
        <ele>430.7</ele>
        <time>2026-05-10T08:57:14.000Z</time>
      </trkpt>
      <trkpt lat="45.86015" lon="3.54478">
        <ele>430.5</ele>
        <time>2026-05-10T08:57:15.000Z</time>
      </trkpt>
      <trkpt lat="45.86015" lon="3.5448">
        <ele>430.3</ele>
        <time>2026-05-10T08:57:16.000Z</time>
      </trkpt>
      <trkpt lat="45.86015" lon="3.54481">
        <ele>430.1</ele>
        <time>2026-05-10T08:57:17.000Z</time>
      </trkpt>
      <trkpt lat="45.86015" lon="3.54483">
        <ele>429.8</ele>
        <time>2026-05-10T08:57:18.000Z</time>
      </trkpt>
      <trkpt lat="45.86015" lon="3.54485">
        <ele>429.4</ele>
        <time>2026-05-10T08:57:19.000Z</time>
      </trkpt>
      <trkpt lat="45.86014" lon="3.54487">
        <ele>429.1</ele>
        <time>2026-05-10T08:57:20.000Z</time>
      </trkpt>
      <trkpt lat="45.86014" lon="3.54488">
        <ele>428.9</ele>
        <time>2026-05-10T08:57:21.000Z</time>
      </trkpt>
      <trkpt lat="45.86014" lon="3.5449">
        <ele>428.7</ele>
        <time>2026-05-10T08:57:22.000Z</time>
      </trkpt>
      <trkpt lat="45.86014" lon="3.54492">
        <ele>428.3</ele>
        <time>2026-05-10T08:57:23.000Z</time>
      </trkpt>
      <trkpt lat="45.86014" lon="3.54494">
        <ele>427.8</ele>
        <time>2026-05-10T08:57:24.000Z</time>
      </trkpt>
      <trkpt lat="45.86013" lon="3.54496">
        <ele>427.3</ele>
        <time>2026-05-10T08:57:25.000Z</time>
      </trkpt>
      <trkpt lat="45.86013" lon="3.54499">
        <ele>426.9</ele>
        <time>2026-05-10T08:57:26.000Z</time>
      </trkpt>
      <trkpt lat="45.86013" lon="3.54501">
        <ele>426.6</ele>
        <time>2026-05-10T08:57:27.000Z</time>
      </trkpt>
      <trkpt lat="45.86013" lon="3.54503">
        <ele>426.3</ele>
        <time>2026-05-10T08:57:28.000Z</time>
      </trkpt>
      <trkpt lat="45.86013" lon="3.54505">
        <ele>426.1</ele>
        <time>2026-05-10T08:57:29.000Z</time>
      </trkpt>
      <trkpt lat="45.86013" lon="3.54507">
        <ele>425.9</ele>
        <time>2026-05-10T08:57:30.000Z</time>
      </trkpt>
      <trkpt lat="45.86013" lon="3.5451">
        <ele>425.6</ele>
        <time>2026-05-10T08:57:31.000Z</time>
      </trkpt>
      <trkpt lat="45.86014" lon="3.54512">
        <ele>425.4</ele>
        <time>2026-05-10T08:57:32.000Z</time>
      </trkpt>
      <trkpt lat="45.86014" lon="3.54514">
        <ele>425.3</ele>
        <time>2026-05-10T08:57:33.000Z</time>
      </trkpt>
      <trkpt lat="45.86014" lon="3.54516">
        <ele>425.1</ele>
        <time>2026-05-10T08:57:34.000Z</time>
      </trkpt>
      <trkpt lat="45.86014" lon="3.54517">
        <ele>425</ele>
        <time>2026-05-10T08:57:35.000Z</time>
      </trkpt>
      <trkpt lat="45.86015" lon="3.54519">
        <ele>424.9</ele>
        <time>2026-05-10T08:57:36.000Z</time>
      </trkpt>
      <trkpt lat="45.86015" lon="3.5452">
        <ele>424.9</ele>
        <time>2026-05-10T08:57:37.000Z</time>
      </trkpt>
      <trkpt lat="45.86016" lon="3.54521">
        <ele>425.1</ele>
        <time>2026-05-10T08:57:38.000Z</time>
      </trkpt>
      <trkpt lat="45.86017" lon="3.54522">
        <ele>425.2</ele>
        <time>2026-05-10T08:57:39.000Z</time>
      </trkpt>
      <trkpt lat="45.86018" lon="3.54523">
        <ele>425.3</ele>
        <time>2026-05-10T08:57:40.000Z</time>
      </trkpt>
      <trkpt lat="45.86018" lon="3.54525">
        <ele>425.4</ele>
        <time>2026-05-10T08:57:41.000Z</time>
      </trkpt>
      <trkpt lat="45.86018" lon="3.54527">
        <ele>425.1</ele>
        <time>2026-05-10T08:57:42.000Z</time>
      </trkpt>
      <trkpt lat="45.86018" lon="3.54529">
        <ele>424.7</ele>
        <time>2026-05-10T08:57:43.000Z</time>
      </trkpt>
      <trkpt lat="45.86018" lon="3.54531">
        <ele>424.5</ele>
        <time>2026-05-10T08:57:44.000Z</time>
      </trkpt>
      <trkpt lat="45.86018" lon="3.54533">
        <ele>424.3</ele>
        <time>2026-05-10T08:57:45.000Z</time>
      </trkpt>
      <trkpt lat="45.86018" lon="3.54535">
        <ele>424.2</ele>
        <time>2026-05-10T08:57:46.000Z</time>
      </trkpt>
      <trkpt lat="45.86018" lon="3.54537">
        <ele>423.9</ele>
        <time>2026-05-10T08:57:47.000Z</time>
      </trkpt>
      <trkpt lat="45.86018" lon="3.54539">
        <ele>423.7</ele>
        <time>2026-05-10T08:57:48.000Z</time>
      </trkpt>
      <trkpt lat="45.86017" lon="3.5454">
        <ele>423.5</ele>
        <time>2026-05-10T08:57:49.000Z</time>
      </trkpt>
      <trkpt lat="45.86018" lon="3.54542">
        <ele>423.4</ele>
        <time>2026-05-10T08:57:50.000Z</time>
      </trkpt>
      <trkpt lat="45.86018" lon="3.54544">
        <ele>423.2</ele>
        <time>2026-05-10T08:57:51.000Z</time>
      </trkpt>
      <trkpt lat="45.86018" lon="3.54545">
        <ele>423.2</ele>
        <time>2026-05-10T08:57:52.000Z</time>
      </trkpt>
      <trkpt lat="45.86017" lon="3.54547">
        <ele>422.9</ele>
        <time>2026-05-10T08:57:53.000Z</time>
      </trkpt>
      <trkpt lat="45.86017" lon="3.54549">
        <ele>422.6</ele>
        <time>2026-05-10T08:57:54.000Z</time>
      </trkpt>
      <trkpt lat="45.86017" lon="3.54551">
        <ele>422.4</ele>
        <time>2026-05-10T08:57:55.000Z</time>
      </trkpt>
      <trkpt lat="45.86016" lon="3.54553">
        <ele>422</ele>
        <time>2026-05-10T08:57:56.000Z</time>
      </trkpt>
      <trkpt lat="45.86016" lon="3.54555">
        <ele>421.9</ele>
        <time>2026-05-10T08:57:57.000Z</time>
      </trkpt>
      <trkpt lat="45.86015" lon="3.54557">
        <ele>421.6</ele>
        <time>2026-05-10T08:57:58.000Z</time>
      </trkpt>
      <trkpt lat="45.86014" lon="3.5456">
        <ele>421.4</ele>
        <time>2026-05-10T08:57:59.000Z</time>
      </trkpt>
      <trkpt lat="45.86013" lon="3.54561">
        <ele>421.2</ele>
        <time>2026-05-10T08:58:00.000Z</time>
      </trkpt>
      <trkpt lat="45.86012" lon="3.54561">
        <ele>421</ele>
        <time>2026-05-10T08:58:01.000Z</time>
      </trkpt>
      <trkpt lat="45.86011" lon="3.5456">
        <ele>420.9</ele>
        <time>2026-05-10T08:58:02.000Z</time>
      </trkpt>
      <trkpt lat="45.8601" lon="3.5456">
        <ele>420.7</ele>
        <time>2026-05-10T08:58:03.000Z</time>
      </trkpt>
      <trkpt lat="45.86009" lon="3.54559">
        <ele>420.6</ele>
        <time>2026-05-10T08:58:04.000Z</time>
      </trkpt>
      <trkpt lat="45.86008" lon="3.54558">
        <ele>420.4</ele>
        <time>2026-05-10T08:58:05.000Z</time>
      </trkpt>
      <trkpt lat="45.86007" lon="3.54557">
        <ele>420.3</ele>
        <time>2026-05-10T08:58:06.000Z</time>
      </trkpt>
      <trkpt lat="45.86006" lon="3.54556">
        <ele>420</ele>
        <time>2026-05-10T08:58:07.000Z</time>
      </trkpt>
      <trkpt lat="45.86005" lon="3.54555">
        <ele>419.8</ele>
        <time>2026-05-10T08:58:08.000Z</time>
      </trkpt>
      <trkpt lat="45.86004" lon="3.54553">
        <ele>419.7</ele>
        <time>2026-05-10T08:58:09.000Z</time>
      </trkpt>
      <trkpt lat="45.86002" lon="3.54552">
        <ele>419.5</ele>
        <time>2026-05-10T08:58:10.000Z</time>
      </trkpt>
      <trkpt lat="45.86001" lon="3.54551">
        <ele>419.3</ele>
        <time>2026-05-10T08:58:11.000Z</time>
      </trkpt>
      <trkpt lat="45.86" lon="3.5455">
        <ele>419.1</ele>
        <time>2026-05-10T08:58:12.000Z</time>
      </trkpt>
      <trkpt lat="45.85999" lon="3.54549">
        <ele>418.9</ele>
        <time>2026-05-10T08:58:13.000Z</time>
      </trkpt>
      <trkpt lat="45.85998" lon="3.54547">
        <ele>418.8</ele>
        <time>2026-05-10T08:58:14.000Z</time>
      </trkpt>
      <trkpt lat="45.85998" lon="3.54546">
        <ele>418.7</ele>
        <time>2026-05-10T08:58:15.000Z</time>
      </trkpt>
      <trkpt lat="45.85997" lon="3.54544">
        <ele>418.5</ele>
        <time>2026-05-10T08:58:16.000Z</time>
      </trkpt>
      <trkpt lat="45.85996" lon="3.54542">
        <ele>418.4</ele>
        <time>2026-05-10T08:58:17.000Z</time>
      </trkpt>
      <trkpt lat="45.85995" lon="3.5454">
        <ele>418.3</ele>
        <time>2026-05-10T08:58:18.000Z</time>
      </trkpt>
      <trkpt lat="45.85994" lon="3.54538">
        <ele>418.1</ele>
        <time>2026-05-10T08:58:19.000Z</time>
      </trkpt>
      <trkpt lat="45.85993" lon="3.54536">
        <ele>418</ele>
        <time>2026-05-10T08:58:20.000Z</time>
      </trkpt>
      <trkpt lat="45.85992" lon="3.54534">
        <ele>417.8</ele>
        <time>2026-05-10T08:58:21.000Z</time>
      </trkpt>
      <trkpt lat="45.85991" lon="3.54532">
        <ele>417.7</ele>
        <time>2026-05-10T08:58:22.000Z</time>
      </trkpt>
      <trkpt lat="45.8599" lon="3.5453">
        <ele>417.6</ele>
        <time>2026-05-10T08:58:23.000Z</time>
      </trkpt>
      <trkpt lat="45.85989" lon="3.54528">
        <ele>417.5</ele>
        <time>2026-05-10T08:58:24.000Z</time>
      </trkpt>
      <trkpt lat="45.85989" lon="3.54526">
        <ele>417.4</ele>
        <time>2026-05-10T08:58:25.000Z</time>
      </trkpt>
      <trkpt lat="45.85988" lon="3.54525">
        <ele>417.4</ele>
        <time>2026-05-10T08:58:26.000Z</time>
      </trkpt>
      <trkpt lat="45.85988" lon="3.54523">
        <ele>417.5</ele>
        <time>2026-05-10T08:58:27.000Z</time>
      </trkpt>
      <trkpt lat="45.85987" lon="3.54521">
        <ele>417.5</ele>
        <time>2026-05-10T08:58:28.000Z</time>
      </trkpt>
      <trkpt lat="45.85987" lon="3.54519">
        <ele>417.4</ele>
        <time>2026-05-10T08:58:29.000Z</time>
      </trkpt>
      <trkpt lat="45.85987" lon="3.54517">
        <ele>417.5</ele>
        <time>2026-05-10T08:58:30.000Z</time>
      </trkpt>
      <trkpt lat="45.85988" lon="3.54516">
        <ele>417.7</ele>
        <time>2026-05-10T08:58:31.000Z</time>
      </trkpt>
      <trkpt lat="45.85987" lon="3.54514">
        <ele>417.7</ele>
        <time>2026-05-10T08:58:32.000Z</time>
      </trkpt>
      <trkpt lat="45.85987" lon="3.54512">
        <ele>417.7</ele>
        <time>2026-05-10T08:58:33.000Z</time>
      </trkpt>
      <trkpt lat="45.85987" lon="3.5451">
        <ele>417.8</ele>
        <time>2026-05-10T08:58:34.000Z</time>
      </trkpt>
      <trkpt lat="45.85986" lon="3.54507">
        <ele>417.8</ele>
        <time>2026-05-10T08:58:35.000Z</time>
      </trkpt>
      <trkpt lat="45.85986" lon="3.54505">
        <ele>417.7</ele>
        <time>2026-05-10T08:58:36.000Z</time>
      </trkpt>
      <trkpt lat="45.85985" lon="3.54503">
        <ele>417.7</ele>
        <time>2026-05-10T08:58:37.000Z</time>
      </trkpt>
      <trkpt lat="45.85985" lon="3.545">
        <ele>417.6</ele>
        <time>2026-05-10T08:58:38.000Z</time>
      </trkpt>
      <trkpt lat="45.85984" lon="3.54499">
        <ele>417.6</ele>
        <time>2026-05-10T08:58:39.000Z</time>
      </trkpt>
      <trkpt lat="45.85983" lon="3.54497">
        <ele>417.6</ele>
        <time>2026-05-10T08:58:40.000Z</time>
      </trkpt>
      <trkpt lat="45.85983" lon="3.54496">
        <ele>417.7</ele>
        <time>2026-05-10T08:58:41.000Z</time>
      </trkpt>
      <trkpt lat="45.85984" lon="3.54494">
        <ele>417.9</ele>
        <time>2026-05-10T08:58:42.000Z</time>
      </trkpt>
      <trkpt lat="45.85984" lon="3.54493">
        <ele>417.9</ele>
        <time>2026-05-10T08:58:43.000Z</time>
      </trkpt>
      <trkpt lat="45.85983" lon="3.54491">
        <ele>417.9</ele>
        <time>2026-05-10T08:58:44.000Z</time>
      </trkpt>
      <trkpt lat="45.85983" lon="3.5449">
        <ele>417.9</ele>
        <time>2026-05-10T08:58:45.000Z</time>
      </trkpt>
      <trkpt lat="45.85983" lon="3.54488">
        <ele>418</ele>
        <time>2026-05-10T08:58:46.000Z</time>
      </trkpt>
      <trkpt lat="45.85982" lon="3.54486">
        <ele>418</ele>
        <time>2026-05-10T08:58:47.000Z</time>
      </trkpt>
      <trkpt lat="45.85982" lon="3.54484">
        <ele>418</ele>
        <time>2026-05-10T08:58:48.000Z</time>
      </trkpt>
      <trkpt lat="45.85982" lon="3.54482">
        <ele>418.2</ele>
        <time>2026-05-10T08:58:49.000Z</time>
      </trkpt>
      <trkpt lat="45.85981" lon="3.54479">
        <ele>418.1</ele>
        <time>2026-05-10T08:58:50.000Z</time>
      </trkpt>
      <trkpt lat="45.8598" lon="3.54477">
        <ele>418</ele>
        <time>2026-05-10T08:58:51.000Z</time>
      </trkpt>
      <trkpt lat="45.85979" lon="3.54474">
        <ele>417.9</ele>
        <time>2026-05-10T08:58:52.000Z</time>
      </trkpt>
      <trkpt lat="45.85978" lon="3.54472">
        <ele>417.7</ele>
        <time>2026-05-10T08:58:53.000Z</time>
      </trkpt>
      <trkpt lat="45.85977" lon="3.5447">
        <ele>417.5</ele>
        <time>2026-05-10T08:58:54.000Z</time>
      </trkpt>
      <trkpt lat="45.85976" lon="3.54469">
        <ele>417.2</ele>
        <time>2026-05-10T08:58:55.000Z</time>
      </trkpt>
      <trkpt lat="45.85976" lon="3.54467">
        <ele>417.1</ele>
        <time>2026-05-10T08:58:56.000Z</time>
      </trkpt>
      <trkpt lat="45.85976" lon="3.54466">
        <ele>417.1</ele>
        <time>2026-05-10T08:58:57.000Z</time>
      </trkpt>
      <trkpt lat="45.85976" lon="3.54465">
        <ele>417.1</ele>
        <time>2026-05-10T08:58:58.000Z</time>
      </trkpt>
      <trkpt lat="45.85976" lon="3.54463">
        <ele>417.1</ele>
        <time>2026-05-10T08:58:59.000Z</time>
      </trkpt>
      <trkpt lat="45.85976" lon="3.54462">
        <ele>417.1</ele>
        <time>2026-05-10T08:59:00.000Z</time>
      </trkpt>
      <trkpt lat="45.85975" lon="3.5446">
        <ele>416.9</ele>
        <time>2026-05-10T08:59:01.000Z</time>
      </trkpt>
      <trkpt lat="45.85975" lon="3.54458">
        <ele>416.8</ele>
        <time>2026-05-10T08:59:02.000Z</time>
      </trkpt>
      <trkpt lat="45.85974" lon="3.54456">
        <ele>416.6</ele>
        <time>2026-05-10T08:59:03.000Z</time>
      </trkpt>
      <trkpt lat="45.85973" lon="3.54454">
        <ele>416.4</ele>
        <time>2026-05-10T08:59:04.000Z</time>
      </trkpt>
      <trkpt lat="45.85972" lon="3.54452">
        <ele>416</ele>
        <time>2026-05-10T08:59:05.000Z</time>
      </trkpt>
      <trkpt lat="45.85972" lon="3.54451">
        <ele>415.9</ele>
        <time>2026-05-10T08:59:06.000Z</time>
      </trkpt>
      <trkpt lat="45.85972" lon="3.54449">
        <ele>415.9</ele>
        <time>2026-05-10T08:59:07.000Z</time>
      </trkpt>
      <trkpt lat="45.85972" lon="3.54446">
        <ele>416</ele>
        <time>2026-05-10T08:59:08.000Z</time>
      </trkpt>
      <trkpt lat="45.85972" lon="3.54444">
        <ele>415.9</ele>
        <time>2026-05-10T08:59:09.000Z</time>
      </trkpt>
      <trkpt lat="45.85972" lon="3.54443">
        <ele>415.9</ele>
        <time>2026-05-10T08:59:10.000Z</time>
      </trkpt>
      <trkpt lat="45.85972" lon="3.54441">
        <ele>415.8</ele>
        <time>2026-05-10T08:59:11.000Z</time>
      </trkpt>
      <trkpt lat="45.85972" lon="3.54439">
        <ele>415.8</ele>
        <time>2026-05-10T08:59:12.000Z</time>
      </trkpt>
      <trkpt lat="45.85971" lon="3.54437">
        <ele>415.7</ele>
        <time>2026-05-10T08:59:13.000Z</time>
      </trkpt>
      <trkpt lat="45.85971" lon="3.54436">
        <ele>415.6</ele>
        <time>2026-05-10T08:59:14.000Z</time>
      </trkpt>
      <trkpt lat="45.8597" lon="3.54434">
        <ele>415.5</ele>
        <time>2026-05-10T08:59:15.000Z</time>
      </trkpt>
      <trkpt lat="45.8597" lon="3.54433">
        <ele>415.4</ele>
        <time>2026-05-10T08:59:16.000Z</time>
      </trkpt>
      <trkpt lat="45.85969" lon="3.54432">
        <ele>415.3</ele>
        <time>2026-05-10T08:59:17.000Z</time>
      </trkpt>
      <trkpt lat="45.85969" lon="3.5443">
        <ele>415.2</ele>
        <time>2026-05-10T08:59:18.000Z</time>
      </trkpt>
      <trkpt lat="45.8597" lon="3.54428">
        <ele>415.4</ele>
        <time>2026-05-10T08:59:19.000Z</time>
      </trkpt>
      <trkpt lat="45.85969" lon="3.54426">
        <ele>415.3</ele>
        <time>2026-05-10T08:59:20.000Z</time>
      </trkpt>
      <trkpt lat="45.85969" lon="3.54423">
        <ele>415.3</ele>
        <time>2026-05-10T08:59:21.000Z</time>
      </trkpt>
      <trkpt lat="45.85969" lon="3.54421">
        <ele>415.3</ele>
        <time>2026-05-10T08:59:22.000Z</time>
      </trkpt>
      <trkpt lat="45.85969" lon="3.54418">
        <ele>415.2</ele>
        <time>2026-05-10T08:59:23.000Z</time>
      </trkpt>
      <trkpt lat="45.85968" lon="3.54417">
        <ele>415.1</ele>
        <time>2026-05-10T08:59:24.000Z</time>
      </trkpt>
      <trkpt lat="45.85968" lon="3.54415">
        <ele>415.2</ele>
        <time>2026-05-10T08:59:25.000Z</time>
      </trkpt>
      <trkpt lat="45.85967" lon="3.54414">
        <ele>415.1</ele>
        <time>2026-05-10T08:59:26.000Z</time>
      </trkpt>
      <trkpt lat="45.85966" lon="3.54413">
        <ele>415</ele>
        <time>2026-05-10T08:59:27.000Z</time>
      </trkpt>
      <trkpt lat="45.85965" lon="3.54411">
        <ele>415</ele>
        <time>2026-05-10T08:59:28.000Z</time>
      </trkpt>
      <trkpt lat="45.85965" lon="3.5441">
        <ele>414.9</ele>
        <time>2026-05-10T08:59:29.000Z</time>
      </trkpt>
      <trkpt lat="45.85964" lon="3.54408">
        <ele>414.9</ele>
        <time>2026-05-10T08:59:30.000Z</time>
      </trkpt>
      <trkpt lat="45.85963" lon="3.54407">
        <ele>414.8</ele>
        <time>2026-05-10T08:59:31.000Z</time>
      </trkpt>
      <trkpt lat="45.85962" lon="3.54406">
        <ele>414.6</ele>
        <time>2026-05-10T08:59:32.000Z</time>
      </trkpt>
      <trkpt lat="45.85961" lon="3.54404">
        <ele>414.4</ele>
        <time>2026-05-10T08:59:33.000Z</time>
      </trkpt>
      <trkpt lat="45.8596" lon="3.54401">
        <ele>414.2</ele>
        <time>2026-05-10T08:59:34.000Z</time>
      </trkpt>
      <trkpt lat="45.85958" lon="3.544">
        <ele>413.9</ele>
        <time>2026-05-10T08:59:35.000Z</time>
      </trkpt>
      <trkpt lat="45.85957" lon="3.54398">
        <ele>413.7</ele>
        <time>2026-05-10T08:59:36.000Z</time>
      </trkpt>
      <trkpt lat="45.85956" lon="3.54396">
        <ele>413.4</ele>
        <time>2026-05-10T08:59:37.000Z</time>
      </trkpt>
      <trkpt lat="45.85955" lon="3.54394">
        <ele>413.2</ele>
        <time>2026-05-10T08:59:38.000Z</time>
      </trkpt>
      <trkpt lat="45.85954" lon="3.54392">
        <ele>413</ele>
        <time>2026-05-10T08:59:39.000Z</time>
      </trkpt>
      <trkpt lat="45.85953" lon="3.5439">
        <ele>412.6</ele>
        <time>2026-05-10T08:59:40.000Z</time>
      </trkpt>
      <trkpt lat="45.85952" lon="3.54389">
        <ele>412.5</ele>
        <time>2026-05-10T08:59:41.000Z</time>
      </trkpt>
      <trkpt lat="45.85951" lon="3.54387">
        <ele>412.3</ele>
        <time>2026-05-10T08:59:42.000Z</time>
      </trkpt>
      <trkpt lat="45.8595" lon="3.54385">
        <ele>412.1</ele>
        <time>2026-05-10T08:59:43.000Z</time>
      </trkpt>
      <trkpt lat="45.8595" lon="3.54384">
        <ele>412.1</ele>
        <time>2026-05-10T08:59:44.000Z</time>
      </trkpt>
      <trkpt lat="45.85949" lon="3.54382">
        <ele>412</ele>
        <time>2026-05-10T08:59:45.000Z</time>
      </trkpt>
      <trkpt lat="45.85949" lon="3.54381">
        <ele>411.9</ele>
        <time>2026-05-10T08:59:46.000Z</time>
      </trkpt>
      <trkpt lat="45.85948" lon="3.5438">
        <ele>411.8</ele>
        <time>2026-05-10T08:59:47.000Z</time>
      </trkpt>
      <trkpt lat="45.85948" lon="3.54378">
        <ele>411.8</ele>
        <time>2026-05-10T08:59:48.000Z</time>
      </trkpt>
      <trkpt lat="45.85947" lon="3.54377">
        <ele>411.7</ele>
        <time>2026-05-10T08:59:49.000Z</time>
      </trkpt>
      <trkpt lat="45.85947" lon="3.54376">
        <ele>411.7</ele>
        <time>2026-05-10T08:59:50.000Z</time>
      </trkpt>
      <trkpt lat="45.85946" lon="3.54374">
        <ele>411.6</ele>
        <time>2026-05-10T08:59:51.000Z</time>
      </trkpt>
      <trkpt lat="45.85946" lon="3.54373">
        <ele>411.5</ele>
        <time>2026-05-10T08:59:52.000Z</time>
      </trkpt>
      <trkpt lat="45.85945" lon="3.5437">
        <ele>411.5</ele>
        <time>2026-05-10T08:59:53.000Z</time>
      </trkpt>
      <trkpt lat="45.85945" lon="3.54368">
        <ele>411.7</ele>
        <time>2026-05-10T08:59:54.000Z</time>
      </trkpt>
      <trkpt lat="45.85944" lon="3.54365">
        <ele>411.7</ele>
        <time>2026-05-10T08:59:55.000Z</time>
      </trkpt>
      <trkpt lat="45.85944" lon="3.54363">
        <ele>411.8</ele>
        <time>2026-05-10T08:59:56.000Z</time>
      </trkpt>
      <trkpt lat="45.85945" lon="3.54361">
        <ele>412.1</ele>
        <time>2026-05-10T08:59:57.000Z</time>
      </trkpt>
      <trkpt lat="45.85945" lon="3.5436">
        <ele>412.3</ele>
        <time>2026-05-10T08:59:58.000Z</time>
      </trkpt>
      <trkpt lat="45.85946" lon="3.5436">
        <ele>412.5</ele>
        <time>2026-05-10T08:59:59.000Z</time>
      </trkpt>
      <trkpt lat="45.85946" lon="3.54359">
        <ele>412.4</ele>
        <time>2026-05-10T09:00:00.000Z</time>
      </trkpt>
      <trkpt lat="45.85945" lon="3.54359">
        <ele>412.4</ele>
        <time>2026-05-10T09:00:01.000Z</time>
      </trkpt>
      <trkpt lat="45.85945" lon="3.5436">
        <ele>412.3</ele>
        <time>2026-05-10T09:00:02.000Z</time>
      </trkpt>
      <trkpt lat="45.85945" lon="3.54361">
        <ele>412.1</ele>
        <time>2026-05-10T09:00:03.000Z</time>
      </trkpt>
      <trkpt lat="45.85945" lon="3.54363">
        <ele>411.9</ele>
        <time>2026-05-10T09:00:04.000Z</time>
      </trkpt>
      <trkpt lat="45.85944" lon="3.54364">
        <ele>411.7</ele>
        <time>2026-05-10T09:00:05.000Z</time>
      </trkpt>
      <trkpt lat="45.85943" lon="3.54366">
        <ele>411.6</ele>
        <time>2026-05-10T09:00:06.000Z</time>
      </trkpt>
      <trkpt lat="45.85943" lon="3.54368">
        <ele>411.4</ele>
        <time>2026-05-10T09:00:07.000Z</time>
      </trkpt>
      <trkpt lat="45.85942" lon="3.5437">
        <ele>411.2</ele>
        <time>2026-05-10T09:00:08.000Z</time>
      </trkpt>
      <trkpt lat="45.85942" lon="3.54372">
        <ele>411</ele>
        <time>2026-05-10T09:00:09.000Z</time>
      </trkpt>
      <trkpt lat="45.85942" lon="3.54373">
        <ele>410.8</ele>
        <time>2026-05-10T09:00:10.000Z</time>
      </trkpt>
      <trkpt lat="45.85942" lon="3.54375">
        <ele>410.7</ele>
        <time>2026-05-10T09:00:11.000Z</time>
      </trkpt>
      <trkpt lat="45.85941" lon="3.54377">
        <ele>410.5</ele>
        <time>2026-05-10T09:00:12.000Z</time>
      </trkpt>
      <trkpt lat="45.85941" lon="3.54379">
        <ele>410.3</ele>
        <time>2026-05-10T09:00:13.000Z</time>
      </trkpt>
      <trkpt lat="45.8594" lon="3.54381">
        <ele>410.1</ele>
        <time>2026-05-10T09:00:14.000Z</time>
      </trkpt>
      <trkpt lat="45.8594" lon="3.54382">
        <ele>409.9</ele>
        <time>2026-05-10T09:00:15.000Z</time>
      </trkpt>
      <trkpt lat="45.85939" lon="3.54384">
        <ele>409.6</ele>
        <time>2026-05-10T09:00:16.000Z</time>
      </trkpt>
      <trkpt lat="45.85939" lon="3.54386">
        <ele>409.4</ele>
        <time>2026-05-10T09:00:17.000Z</time>
      </trkpt>
      <trkpt lat="45.85938" lon="3.54388">
        <ele>409.2</ele>
        <time>2026-05-10T09:00:18.000Z</time>
      </trkpt>
      <trkpt lat="45.85938" lon="3.5439">
        <ele>409</ele>
        <time>2026-05-10T09:00:19.000Z</time>
      </trkpt>
      <trkpt lat="45.85937" lon="3.54392">
        <ele>408.9</ele>
        <time>2026-05-10T09:00:20.000Z</time>
      </trkpt>
      <trkpt lat="45.85937" lon="3.54395">
        <ele>408.8</ele>
        <time>2026-05-10T09:00:21.000Z</time>
      </trkpt>
      <trkpt lat="45.85937" lon="3.54396">
        <ele>408.7</ele>
        <time>2026-05-10T09:00:22.000Z</time>
      </trkpt>
      <trkpt lat="45.85937" lon="3.54399">
        <ele>408.6</ele>
        <time>2026-05-10T09:00:23.000Z</time>
      </trkpt>
      <trkpt lat="45.85936" lon="3.54401">
        <ele>408.4</ele>
        <time>2026-05-10T09:00:24.000Z</time>
      </trkpt>
      <trkpt lat="45.85936" lon="3.54402">
        <ele>408.3</ele>
        <time>2026-05-10T09:00:25.000Z</time>
      </trkpt>
      <trkpt lat="45.85936" lon="3.54404">
        <ele>408.2</ele>
        <time>2026-05-10T09:00:26.000Z</time>
      </trkpt>
      <trkpt lat="45.85935" lon="3.54406">
        <ele>408.1</ele>
        <time>2026-05-10T09:00:27.000Z</time>
      </trkpt>
      <trkpt lat="45.85935" lon="3.54408">
        <ele>407.9</ele>
        <time>2026-05-10T09:00:28.000Z</time>
      </trkpt>
      <trkpt lat="45.85935" lon="3.5441">
        <ele>407.8</ele>
        <time>2026-05-10T09:00:29.000Z</time>
      </trkpt>
      <trkpt lat="45.85934" lon="3.54412">
        <ele>407.6</ele>
        <time>2026-05-10T09:00:30.000Z</time>
      </trkpt>
      <trkpt lat="45.85934" lon="3.54414">
        <ele>407.5</ele>
        <time>2026-05-10T09:00:31.000Z</time>
      </trkpt>
      <trkpt lat="45.85934" lon="3.54416">
        <ele>407.3</ele>
        <time>2026-05-10T09:00:32.000Z</time>
      </trkpt>
      <trkpt lat="45.85933" lon="3.54418">
        <ele>407.2</ele>
        <time>2026-05-10T09:00:33.000Z</time>
      </trkpt>
      <trkpt lat="45.85933" lon="3.5442">
        <ele>407.1</ele>
        <time>2026-05-10T09:00:34.000Z</time>
      </trkpt>
      <trkpt lat="45.85933" lon="3.54421">
        <ele>406.9</ele>
        <time>2026-05-10T09:00:35.000Z</time>
      </trkpt>
      <trkpt lat="45.85933" lon="3.54423">
        <ele>406.8</ele>
        <time>2026-05-10T09:00:36.000Z</time>
      </trkpt>
      <trkpt lat="45.85933" lon="3.54425">
        <ele>406.7</ele>
        <time>2026-05-10T09:00:37.000Z</time>
      </trkpt>
      <trkpt lat="45.85932" lon="3.54427">
        <ele>406.6</ele>
        <time>2026-05-10T09:00:38.000Z</time>
      </trkpt>
      <trkpt lat="45.85932" lon="3.54429">
        <ele>406.4</ele>
        <time>2026-05-10T09:00:39.000Z</time>
      </trkpt>
      <trkpt lat="45.85932" lon="3.54431">
        <ele>406.3</ele>
        <time>2026-05-10T09:00:40.000Z</time>
      </trkpt>
      <trkpt lat="45.85931" lon="3.54432">
        <ele>406.1</ele>
        <time>2026-05-10T09:00:41.000Z</time>
      </trkpt>
      <trkpt lat="45.85931" lon="3.54434">
        <ele>406</ele>
        <time>2026-05-10T09:00:42.000Z</time>
      </trkpt>
      <trkpt lat="45.85931" lon="3.54436">
        <ele>405.9</ele>
        <time>2026-05-10T09:00:43.000Z</time>
      </trkpt>
      <trkpt lat="45.8593" lon="3.54438">
        <ele>405.7</ele>
        <time>2026-05-10T09:00:44.000Z</time>
      </trkpt>
      <trkpt lat="45.8593" lon="3.5444">
        <ele>405.5</ele>
        <time>2026-05-10T09:00:45.000Z</time>
      </trkpt>
      <trkpt lat="45.8593" lon="3.54442">
        <ele>405.4</ele>
        <time>2026-05-10T09:00:46.000Z</time>
      </trkpt>
      <trkpt lat="45.8593" lon="3.54444">
        <ele>405.3</ele>
        <time>2026-05-10T09:00:47.000Z</time>
      </trkpt>
      <trkpt lat="45.85929" lon="3.54445">
        <ele>405.2</ele>
        <time>2026-05-10T09:00:48.000Z</time>
      </trkpt>
      <trkpt lat="45.85929" lon="3.54447">
        <ele>405.1</ele>
        <time>2026-05-10T09:00:49.000Z</time>
      </trkpt>
      <trkpt lat="45.85929" lon="3.54449">
        <ele>405</ele>
        <time>2026-05-10T09:00:50.000Z</time>
      </trkpt>
      <trkpt lat="45.85929" lon="3.54452">
        <ele>404.9</ele>
        <time>2026-05-10T09:00:51.000Z</time>
      </trkpt>
      <trkpt lat="45.85929" lon="3.54454">
        <ele>404.8</ele>
        <time>2026-05-10T09:00:52.000Z</time>
      </trkpt>
      <trkpt lat="45.85929" lon="3.54456">
        <ele>404.7</ele>
        <time>2026-05-10T09:00:53.000Z</time>
      </trkpt>
      <trkpt lat="45.85928" lon="3.54458">
        <ele>404.5</ele>
        <time>2026-05-10T09:00:54.000Z</time>
      </trkpt>
      <trkpt lat="45.85928" lon="3.5446">
        <ele>404.4</ele>
        <time>2026-05-10T09:00:55.000Z</time>
      </trkpt>
      <trkpt lat="45.85927" lon="3.54462">
        <ele>404.2</ele>
        <time>2026-05-10T09:00:56.000Z</time>
      </trkpt>
      <trkpt lat="45.85927" lon="3.54464">
        <ele>404</ele>
        <time>2026-05-10T09:00:57.000Z</time>
      </trkpt>
      <trkpt lat="45.85926" lon="3.54467">
        <ele>403.8</ele>
        <time>2026-05-10T09:00:58.000Z</time>
      </trkpt>
      <trkpt lat="45.85926" lon="3.54469">
        <ele>403.7</ele>
        <time>2026-05-10T09:00:59.000Z</time>
      </trkpt>
      <trkpt lat="45.85925" lon="3.5447">
        <ele>403.6</ele>
        <time>2026-05-10T09:01:00.000Z</time>
      </trkpt>
      <trkpt lat="45.85925" lon="3.54472">
        <ele>403.4</ele>
        <time>2026-05-10T09:01:01.000Z</time>
      </trkpt>
      <trkpt lat="45.85924" lon="3.54474">
        <ele>403.4</ele>
        <time>2026-05-10T09:01:02.000Z</time>
      </trkpt>
      <trkpt lat="45.85923" lon="3.54476">
        <ele>403.3</ele>
        <time>2026-05-10T09:01:03.000Z</time>
      </trkpt>
      <trkpt lat="45.85922" lon="3.54478">
        <ele>403.2</ele>
        <time>2026-05-10T09:01:04.000Z</time>
      </trkpt>
      <trkpt lat="45.85922" lon="3.5448">
        <ele>403.1</ele>
        <time>2026-05-10T09:01:05.000Z</time>
      </trkpt>
      <trkpt lat="45.85921" lon="3.54482">
        <ele>403</ele>
        <time>2026-05-10T09:01:06.000Z</time>
      </trkpt>
      <trkpt lat="45.8592" lon="3.54484">
        <ele>402.9</ele>
        <time>2026-05-10T09:01:07.000Z</time>
      </trkpt>
      <trkpt lat="45.85919" lon="3.54485">
        <ele>402.8</ele>
        <time>2026-05-10T09:01:08.000Z</time>
      </trkpt>
      <trkpt lat="45.85918" lon="3.54487">
        <ele>402.7</ele>
        <time>2026-05-10T09:01:09.000Z</time>
      </trkpt>
      <trkpt lat="45.85916" lon="3.54489">
        <ele>402.6</ele>
        <time>2026-05-10T09:01:10.000Z</time>
      </trkpt>
      <trkpt lat="45.85915" lon="3.5449">
        <ele>402.7</ele>
        <time>2026-05-10T09:01:11.000Z</time>
      </trkpt>
      <trkpt lat="45.85914" lon="3.54491">
        <ele>402.7</ele>
        <time>2026-05-10T09:01:12.000Z</time>
      </trkpt>
      <trkpt lat="45.85912" lon="3.54491">
        <ele>402.8</ele>
        <time>2026-05-10T09:01:13.000Z</time>
      </trkpt>
      <trkpt lat="45.85911" lon="3.54492">
        <ele>402.9</ele>
        <time>2026-05-10T09:01:14.000Z</time>
      </trkpt>
      <trkpt lat="45.8591" lon="3.54493">
        <ele>403</ele>
        <time>2026-05-10T09:01:15.000Z</time>
      </trkpt>
      <trkpt lat="45.85909" lon="3.54493">
        <ele>403</ele>
        <time>2026-05-10T09:01:16.000Z</time>
      </trkpt>
      <trkpt lat="45.85907" lon="3.54493">
        <ele>403.1</ele>
        <time>2026-05-10T09:01:17.000Z</time>
      </trkpt>
      <trkpt lat="45.85906" lon="3.54493">
        <ele>403.2</ele>
        <time>2026-05-10T09:01:18.000Z</time>
      </trkpt>
      <trkpt lat="45.85904" lon="3.54493">
        <ele>403.2</ele>
        <time>2026-05-10T09:01:19.000Z</time>
      </trkpt>
      <trkpt lat="45.85902" lon="3.54493">
        <ele>403.3</ele>
        <time>2026-05-10T09:01:20.000Z</time>
      </trkpt>
      <trkpt lat="45.859" lon="3.54493">
        <ele>403.3</ele>
        <time>2026-05-10T09:01:21.000Z</time>
      </trkpt>
      <trkpt lat="45.85899" lon="3.54493">
        <ele>403.4</ele>
        <time>2026-05-10T09:01:22.000Z</time>
      </trkpt>
      <trkpt lat="45.85897" lon="3.54492">
        <ele>403.4</ele>
        <time>2026-05-10T09:01:23.000Z</time>
      </trkpt>
      <trkpt lat="45.85896" lon="3.54492">
        <ele>403.3</ele>
        <time>2026-05-10T09:01:24.000Z</time>
      </trkpt>
      <trkpt lat="45.85894" lon="3.54491">
        <ele>403.3</ele>
        <time>2026-05-10T09:01:25.000Z</time>
      </trkpt>
      <trkpt lat="45.85893" lon="3.54491">
        <ele>403.3</ele>
        <time>2026-05-10T09:01:26.000Z</time>
      </trkpt>
      <trkpt lat="45.85891" lon="3.5449">
        <ele>403.2</ele>
        <time>2026-05-10T09:01:27.000Z</time>
      </trkpt>
      <trkpt lat="45.8589" lon="3.5449">
        <ele>403.2</ele>
        <time>2026-05-10T09:01:28.000Z</time>
      </trkpt>
      <trkpt lat="45.85889" lon="3.5449">
        <ele>403.1</ele>
        <time>2026-05-10T09:01:29.000Z</time>
      </trkpt>
      <trkpt lat="45.85888" lon="3.54489">
        <ele>403.1</ele>
        <time>2026-05-10T09:01:30.000Z</time>
      </trkpt>
      <trkpt lat="45.85887" lon="3.54489">
        <ele>403</ele>
        <time>2026-05-10T09:01:31.000Z</time>
      </trkpt>
      <trkpt lat="45.85886" lon="3.54489">
        <ele>403</ele>
        <time>2026-05-10T09:01:32.000Z</time>
      </trkpt>
      <trkpt lat="45.85885" lon="3.54488">
        <ele>403</ele>
        <time>2026-05-10T09:01:33.000Z</time>
      </trkpt>
      <trkpt lat="45.85883" lon="3.54488">
        <ele>402.9</ele>
        <time>2026-05-10T09:01:34.000Z</time>
      </trkpt>
      <trkpt lat="45.85881" lon="3.54488">
        <ele>402.9</ele>
        <time>2026-05-10T09:01:35.000Z</time>
      </trkpt>
      <trkpt lat="45.8588" lon="3.54488">
        <ele>402.9</ele>
        <time>2026-05-10T09:01:36.000Z</time>
      </trkpt>
      <trkpt lat="45.85878" lon="3.54488">
        <ele>402.9</ele>
        <time>2026-05-10T09:01:37.000Z</time>
      </trkpt>
      <trkpt lat="45.85877" lon="3.54488">
        <ele>403</ele>
        <time>2026-05-10T09:01:38.000Z</time>
      </trkpt>
      <trkpt lat="45.85875" lon="3.54488">
        <ele>403</ele>
        <time>2026-05-10T09:01:39.000Z</time>
      </trkpt>
      <trkpt lat="45.85874" lon="3.54488">
        <ele>403</ele>
        <time>2026-05-10T09:01:40.000Z</time>
      </trkpt>
      <trkpt lat="45.85872" lon="3.54488">
        <ele>403.1</ele>
        <time>2026-05-10T09:01:41.000Z</time>
      </trkpt>
      <trkpt lat="45.85871" lon="3.54488">
        <ele>403.1</ele>
        <time>2026-05-10T09:01:42.000Z</time>
      </trkpt>
      <trkpt lat="45.8587" lon="3.54489">
        <ele>403.1</ele>
        <time>2026-05-10T09:01:43.000Z</time>
      </trkpt>
      <trkpt lat="45.85868" lon="3.54489">
        <ele>403.1</ele>
        <time>2026-05-10T09:01:44.000Z</time>
      </trkpt>
      <trkpt lat="45.85867" lon="3.54489">
        <ele>403.2</ele>
        <time>2026-05-10T09:01:45.000Z</time>
      </trkpt>
      <trkpt lat="45.85865" lon="3.54489">
        <ele>403.2</ele>
        <time>2026-05-10T09:01:46.000Z</time>
      </trkpt>
      <trkpt lat="45.85864" lon="3.54489">
        <ele>403.2</ele>
        <time>2026-05-10T09:01:47.000Z</time>
      </trkpt>
      <trkpt lat="45.85862" lon="3.5449">
        <ele>403.3</ele>
        <time>2026-05-10T09:01:48.000Z</time>
      </trkpt>
      <trkpt lat="45.8586" lon="3.5449">
        <ele>403.3</ele>
        <time>2026-05-10T09:01:49.000Z</time>
      </trkpt>
      <trkpt lat="45.85859" lon="3.54491">
        <ele>403.3</ele>
        <time>2026-05-10T09:01:50.000Z</time>
      </trkpt>
      <trkpt lat="45.85857" lon="3.54491">
        <ele>403.4</ele>
        <time>2026-05-10T09:01:51.000Z</time>
      </trkpt>
      <trkpt lat="45.85856" lon="3.54491">
        <ele>403.4</ele>
        <time>2026-05-10T09:01:52.000Z</time>
      </trkpt>
      <trkpt lat="45.85855" lon="3.54492">
        <ele>403.5</ele>
        <time>2026-05-10T09:01:53.000Z</time>
      </trkpt>
      <trkpt lat="45.85853" lon="3.54492">
        <ele>403.5</ele>
        <time>2026-05-10T09:01:54.000Z</time>
      </trkpt>
      <trkpt lat="45.85852" lon="3.54493">
        <ele>403.5</ele>
        <time>2026-05-10T09:01:55.000Z</time>
      </trkpt>
      <trkpt lat="45.85852" lon="3.54493">
        <ele>403.6</ele>
        <time>2026-05-10T09:01:56.000Z</time>
      </trkpt>
      <trkpt lat="45.85851" lon="3.54493">
        <ele>403.6</ele>
        <time>2026-05-10T09:01:57.000Z</time>
      </trkpt>
      <trkpt lat="45.8585" lon="3.54493">
        <ele>403.6</ele>
        <time>2026-05-10T09:01:58.000Z</time>
      </trkpt>
      <trkpt lat="45.85849" lon="3.54494">
        <ele>403.7</ele>
        <time>2026-05-10T09:01:59.000Z</time>
      </trkpt>
      <trkpt lat="45.85848" lon="3.54494">
        <ele>403.7</ele>
        <time>2026-05-10T09:02:00.000Z</time>
      </trkpt>
      <trkpt lat="45.85847" lon="3.54495">
        <ele>403.7</ele>
        <time>2026-05-10T09:02:01.000Z</time>
      </trkpt>
      <trkpt lat="45.85845" lon="3.54496">
        <ele>403.8</ele>
        <time>2026-05-10T09:02:02.000Z</time>
      </trkpt>
      <trkpt lat="45.85844" lon="3.54497">
        <ele>403.9</ele>
        <time>2026-05-10T09:02:03.000Z</time>
      </trkpt>
      <trkpt lat="45.85842" lon="3.54498">
        <ele>403.9</ele>
        <time>2026-05-10T09:02:04.000Z</time>
      </trkpt>
      <trkpt lat="45.85841" lon="3.545">
        <ele>404</ele>
        <time>2026-05-10T09:02:05.000Z</time>
      </trkpt>
      <trkpt lat="45.8584" lon="3.54501">
        <ele>404.2</ele>
        <time>2026-05-10T09:02:06.000Z</time>
      </trkpt>
      <trkpt lat="45.85839" lon="3.54501">
        <ele>404.3</ele>
        <time>2026-05-10T09:02:07.000Z</time>
      </trkpt>
      <trkpt lat="45.85838" lon="3.54502">
        <ele>404.6</ele>
        <time>2026-05-10T09:02:08.000Z</time>
      </trkpt>
      <trkpt lat="45.85837" lon="3.54503">
        <ele>404.7</ele>
        <time>2026-05-10T09:02:09.000Z</time>
      </trkpt>
      <trkpt lat="45.85836" lon="3.54504">
        <ele>405</ele>
        <time>2026-05-10T09:02:10.000Z</time>
      </trkpt>
      <trkpt lat="45.85835" lon="3.54505">
        <ele>405.3</ele>
        <time>2026-05-10T09:02:11.000Z</time>
      </trkpt>
      <trkpt lat="45.85833" lon="3.54506">
        <ele>405.5</ele>
        <time>2026-05-10T09:02:12.000Z</time>
      </trkpt>
      <trkpt lat="45.85832" lon="3.54507">
        <ele>405.7</ele>
        <time>2026-05-10T09:02:13.000Z</time>
      </trkpt>
      <trkpt lat="45.85831" lon="3.54508">
        <ele>405.9</ele>
        <time>2026-05-10T09:02:14.000Z</time>
      </trkpt>
      <trkpt lat="45.8583" lon="3.54509">
        <ele>406.1</ele>
        <time>2026-05-10T09:02:15.000Z</time>
      </trkpt>
      <trkpt lat="45.85829" lon="3.5451">
        <ele>406.2</ele>
        <time>2026-05-10T09:02:16.000Z</time>
      </trkpt>
      <trkpt lat="45.85827" lon="3.54511">
        <ele>406.4</ele>
        <time>2026-05-10T09:02:17.000Z</time>
      </trkpt>
      <trkpt lat="45.85826" lon="3.54512">
        <ele>406.5</ele>
        <time>2026-05-10T09:02:18.000Z</time>
      </trkpt>
      <trkpt lat="45.85825" lon="3.54513">
        <ele>406.7</ele>
        <time>2026-05-10T09:02:19.000Z</time>
      </trkpt>
      <trkpt lat="45.85824" lon="3.54515">
        <ele>406.9</ele>
        <time>2026-05-10T09:02:20.000Z</time>
      </trkpt>
      <trkpt lat="45.85823" lon="3.54516">
        <ele>406.9</ele>
        <time>2026-05-10T09:02:21.000Z</time>
      </trkpt>
      <trkpt lat="45.85822" lon="3.54517">
        <ele>407</ele>
        <time>2026-05-10T09:02:22.000Z</time>
      </trkpt>
      <trkpt lat="45.85821" lon="3.54518">
        <ele>407.1</ele>
        <time>2026-05-10T09:02:23.000Z</time>
      </trkpt>
      <trkpt lat="45.8582" lon="3.54519">
        <ele>407.2</ele>
        <time>2026-05-10T09:02:24.000Z</time>
      </trkpt>
      <trkpt lat="45.85819" lon="3.54521">
        <ele>407.2</ele>
        <time>2026-05-10T09:02:25.000Z</time>
      </trkpt>
      <trkpt lat="45.85818" lon="3.54522">
        <ele>407.3</ele>
        <time>2026-05-10T09:02:26.000Z</time>
      </trkpt>
      <trkpt lat="45.85817" lon="3.54524">
        <ele>407.4</ele>
        <time>2026-05-10T09:02:27.000Z</time>
      </trkpt>
      <trkpt lat="45.85815" lon="3.54525">
        <ele>407.4</ele>
        <time>2026-05-10T09:02:28.000Z</time>
      </trkpt>
      <trkpt lat="45.85814" lon="3.54526">
        <ele>407.4</ele>
        <time>2026-05-10T09:02:29.000Z</time>
      </trkpt>
      <trkpt lat="45.85813" lon="3.54528">
        <ele>407.4</ele>
        <time>2026-05-10T09:02:30.000Z</time>
      </trkpt>
      <trkpt lat="45.85813" lon="3.54529">
        <ele>407.5</ele>
        <time>2026-05-10T09:02:31.000Z</time>
      </trkpt>
      <trkpt lat="45.85812" lon="3.5453">
        <ele>407.6</ele>
        <time>2026-05-10T09:02:32.000Z</time>
      </trkpt>
      <trkpt lat="45.85811" lon="3.54532">
        <ele>407.7</ele>
        <time>2026-05-10T09:02:33.000Z</time>
      </trkpt>
      <trkpt lat="45.8581" lon="3.54534">
        <ele>408</ele>
        <time>2026-05-10T09:02:34.000Z</time>
      </trkpt>
      <trkpt lat="45.8581" lon="3.54536">
        <ele>408.2</ele>
        <time>2026-05-10T09:02:35.000Z</time>
      </trkpt>
      <trkpt lat="45.85809" lon="3.54538">
        <ele>408.3</ele>
        <time>2026-05-10T09:02:36.000Z</time>
      </trkpt>
      <trkpt lat="45.85808" lon="3.54539">
        <ele>408.4</ele>
        <time>2026-05-10T09:02:37.000Z</time>
      </trkpt>
      <trkpt lat="45.85807" lon="3.54541">
        <ele>408.6</ele>
        <time>2026-05-10T09:02:38.000Z</time>
      </trkpt>
      <trkpt lat="45.85806" lon="3.54543">
        <ele>408.7</ele>
        <time>2026-05-10T09:02:39.000Z</time>
      </trkpt>
      <trkpt lat="45.85805" lon="3.54544">
        <ele>408.8</ele>
        <time>2026-05-10T09:02:40.000Z</time>
      </trkpt>
      <trkpt lat="45.85804" lon="3.54545">
        <ele>408.8</ele>
        <time>2026-05-10T09:02:41.000Z</time>
      </trkpt>
      <trkpt lat="45.85803" lon="3.54546">
        <ele>408.9</ele>
        <time>2026-05-10T09:02:42.000Z</time>
      </trkpt>
      <trkpt lat="45.85803" lon="3.54547">
        <ele>408.9</ele>
        <time>2026-05-10T09:02:43.000Z</time>
      </trkpt>
      <trkpt lat="45.85802" lon="3.54548">
        <ele>409</ele>
        <time>2026-05-10T09:02:44.000Z</time>
      </trkpt>
      <trkpt lat="45.85801" lon="3.5455">
        <ele>409.1</ele>
        <time>2026-05-10T09:02:45.000Z</time>
      </trkpt>
      <trkpt lat="45.858" lon="3.54551">
        <ele>409.1</ele>
        <time>2026-05-10T09:02:46.000Z</time>
      </trkpt>
      <trkpt lat="45.85799" lon="3.54553">
        <ele>409.2</ele>
        <time>2026-05-10T09:02:47.000Z</time>
      </trkpt>
      <trkpt lat="45.85798" lon="3.54554">
        <ele>409.2</ele>
        <time>2026-05-10T09:02:48.000Z</time>
      </trkpt>
      <trkpt lat="45.85797" lon="3.54556">
        <ele>409.3</ele>
        <time>2026-05-10T09:02:49.000Z</time>
      </trkpt>
      <trkpt lat="45.85796" lon="3.54558">
        <ele>409.4</ele>
        <time>2026-05-10T09:02:50.000Z</time>
      </trkpt>
      <trkpt lat="45.85795" lon="3.54559">
        <ele>409.5</ele>
        <time>2026-05-10T09:02:51.000Z</time>
      </trkpt>
      <trkpt lat="45.85794" lon="3.54561">
        <ele>409.6</ele>
        <time>2026-05-10T09:02:52.000Z</time>
      </trkpt>
      <trkpt lat="45.85793" lon="3.54562">
        <ele>409.7</ele>
        <time>2026-05-10T09:02:53.000Z</time>
      </trkpt>
      <trkpt lat="45.85793" lon="3.54563">
        <ele>409.8</ele>
        <time>2026-05-10T09:02:54.000Z</time>
      </trkpt>
      <trkpt lat="45.85792" lon="3.54564">
        <ele>409.9</ele>
        <time>2026-05-10T09:02:55.000Z</time>
      </trkpt>
      <trkpt lat="45.85791" lon="3.54565">
        <ele>409.9</ele>
        <time>2026-05-10T09:02:56.000Z</time>
      </trkpt>
      <trkpt lat="45.85789" lon="3.54566">
        <ele>409.8</ele>
        <time>2026-05-10T09:02:57.000Z</time>
      </trkpt>
      <trkpt lat="45.85788" lon="3.54567">
        <ele>409.8</ele>
        <time>2026-05-10T09:02:58.000Z</time>
      </trkpt>
      <trkpt lat="45.85787" lon="3.54569">
        <ele>409.8</ele>
        <time>2026-05-10T09:02:59.000Z</time>
      </trkpt>
      <trkpt lat="45.85785" lon="3.5457">
        <ele>409.7</ele>
        <time>2026-05-10T09:03:00.000Z</time>
      </trkpt>
      <trkpt lat="45.85784" lon="3.54571">
        <ele>409.7</ele>
        <time>2026-05-10T09:03:01.000Z</time>
      </trkpt>
      <trkpt lat="45.85783" lon="3.54572">
        <ele>409.6</ele>
        <time>2026-05-10T09:03:02.000Z</time>
      </trkpt>
      <trkpt lat="45.85781" lon="3.54573">
        <ele>409.6</ele>
        <time>2026-05-10T09:03:03.000Z</time>
      </trkpt>
      <trkpt lat="45.8578" lon="3.54574">
        <ele>409.5</ele>
        <time>2026-05-10T09:03:04.000Z</time>
      </trkpt>
      <trkpt lat="45.85779" lon="3.54575">
        <ele>409.5</ele>
        <time>2026-05-10T09:03:05.000Z</time>
      </trkpt>
      <trkpt lat="45.85778" lon="3.54576">
        <ele>409.5</ele>
        <time>2026-05-10T09:03:06.000Z</time>
      </trkpt>
      <trkpt lat="45.85777" lon="3.54577">
        <ele>409.7</ele>
        <time>2026-05-10T09:03:07.000Z</time>
      </trkpt>
      <trkpt lat="45.85776" lon="3.54579">
        <ele>409.9</ele>
        <time>2026-05-10T09:03:08.000Z</time>
      </trkpt>
      <trkpt lat="45.85775" lon="3.5458">
        <ele>410.2</ele>
        <time>2026-05-10T09:03:09.000Z</time>
      </trkpt>
      <trkpt lat="45.85774" lon="3.54582">
        <ele>410.5</ele>
        <time>2026-05-10T09:03:10.000Z</time>
      </trkpt>
      <trkpt lat="45.85774" lon="3.54584">
        <ele>410.8</ele>
        <time>2026-05-10T09:03:11.000Z</time>
      </trkpt>
      <trkpt lat="45.85773" lon="3.54585">
        <ele>411.2</ele>
        <time>2026-05-10T09:03:12.000Z</time>
      </trkpt>
      <trkpt lat="45.85772" lon="3.54586">
        <ele>411.6</ele>
        <time>2026-05-10T09:03:13.000Z</time>
      </trkpt>
      <trkpt lat="45.85771" lon="3.54588">
        <ele>412</ele>
        <time>2026-05-10T09:03:14.000Z</time>
      </trkpt>
      <trkpt lat="45.85771" lon="3.54589">
        <ele>412.2</ele>
        <time>2026-05-10T09:03:15.000Z</time>
      </trkpt>
      <trkpt lat="45.8577" lon="3.54591">
        <ele>412.7</ele>
        <time>2026-05-10T09:03:16.000Z</time>
      </trkpt>
      <trkpt lat="45.85769" lon="3.54592">
        <ele>413</ele>
        <time>2026-05-10T09:03:17.000Z</time>
      </trkpt>
      <trkpt lat="45.85768" lon="3.54593">
        <ele>413.3</ele>
        <time>2026-05-10T09:03:18.000Z</time>
      </trkpt>
      <trkpt lat="45.85767" lon="3.54595">
        <ele>413.5</ele>
        <time>2026-05-10T09:03:19.000Z</time>
      </trkpt>
      <trkpt lat="45.85766" lon="3.54596">
        <ele>413.7</ele>
        <time>2026-05-10T09:03:20.000Z</time>
      </trkpt>
      <trkpt lat="45.85765" lon="3.54597">
        <ele>413.9</ele>
        <time>2026-05-10T09:03:21.000Z</time>
      </trkpt>
      <trkpt lat="45.85764" lon="3.54598">
        <ele>414.1</ele>
        <time>2026-05-10T09:03:22.000Z</time>
      </trkpt>
      <trkpt lat="45.85763" lon="3.54599">
        <ele>414.2</ele>
        <time>2026-05-10T09:03:23.000Z</time>
      </trkpt>
      <trkpt lat="45.85762" lon="3.54601">
        <ele>414.3</ele>
        <time>2026-05-10T09:03:24.000Z</time>
      </trkpt>
      <trkpt lat="45.85761" lon="3.54602">
        <ele>414.5</ele>
        <time>2026-05-10T09:03:25.000Z</time>
      </trkpt>
      <trkpt lat="45.8576" lon="3.54604">
        <ele>414.6</ele>
        <time>2026-05-10T09:03:26.000Z</time>
      </trkpt>
      <trkpt lat="45.85759" lon="3.54605">
        <ele>414.7</ele>
        <time>2026-05-10T09:03:27.000Z</time>
      </trkpt>
      <trkpt lat="45.85758" lon="3.54606">
        <ele>414.8</ele>
        <time>2026-05-10T09:03:28.000Z</time>
      </trkpt>
      <trkpt lat="45.85757" lon="3.54607">
        <ele>414.9</ele>
        <time>2026-05-10T09:03:29.000Z</time>
      </trkpt>
      <trkpt lat="45.85756" lon="3.54608">
        <ele>414.9</ele>
        <time>2026-05-10T09:03:30.000Z</time>
      </trkpt>
      <trkpt lat="45.85755" lon="3.5461">
        <ele>414.9</ele>
        <time>2026-05-10T09:03:31.000Z</time>
      </trkpt>
      <trkpt lat="45.85754" lon="3.5461">
        <ele>414.9</ele>
        <time>2026-05-10T09:03:32.000Z</time>
      </trkpt>
      <trkpt lat="45.85754" lon="3.54612">
        <ele>415</ele>
        <time>2026-05-10T09:03:33.000Z</time>
      </trkpt>
      <trkpt lat="45.85753" lon="3.54612">
        <ele>414.9</ele>
        <time>2026-05-10T09:03:34.000Z</time>
      </trkpt>
      <trkpt lat="45.85752" lon="3.54613">
        <ele>414.9</ele>
        <time>2026-05-10T09:03:35.000Z</time>
      </trkpt>
      <trkpt lat="45.85751" lon="3.54614">
        <ele>414.8</ele>
        <time>2026-05-10T09:03:36.000Z</time>
      </trkpt>
      <trkpt lat="45.8575" lon="3.54615">
        <ele>414.7</ele>
        <time>2026-05-10T09:03:37.000Z</time>
      </trkpt>
      <trkpt lat="45.85749" lon="3.54615">
        <ele>414.7</ele>
        <time>2026-05-10T09:03:38.000Z</time>
      </trkpt>
      <trkpt lat="45.85747" lon="3.54616">
        <ele>414.8</ele>
        <time>2026-05-10T09:03:39.000Z</time>
      </trkpt>
      <trkpt lat="45.85746" lon="3.54617">
        <ele>414.8</ele>
        <time>2026-05-10T09:03:40.000Z</time>
      </trkpt>
      <trkpt lat="45.85745" lon="3.54617">
        <ele>414.8</ele>
        <time>2026-05-10T09:03:41.000Z</time>
      </trkpt>
      <trkpt lat="45.85744" lon="3.54618">
        <ele>414.9</ele>
        <time>2026-05-10T09:03:42.000Z</time>
      </trkpt>
      <trkpt lat="45.85743" lon="3.54619">
        <ele>415</ele>
        <time>2026-05-10T09:03:43.000Z</time>
      </trkpt>
      <trkpt lat="45.85742" lon="3.5462">
        <ele>415.1</ele>
        <time>2026-05-10T09:03:44.000Z</time>
      </trkpt>
      <trkpt lat="45.8574" lon="3.54622">
        <ele>415.2</ele>
        <time>2026-05-10T09:03:45.000Z</time>
      </trkpt>
      <trkpt lat="45.85739" lon="3.54623">
        <ele>415.3</ele>
        <time>2026-05-10T09:03:46.000Z</time>
      </trkpt>
      <trkpt lat="45.85738" lon="3.54624">
        <ele>415.5</ele>
        <time>2026-05-10T09:03:47.000Z</time>
      </trkpt>
      <trkpt lat="45.85737" lon="3.54625">
        <ele>415.6</ele>
        <time>2026-05-10T09:03:48.000Z</time>
      </trkpt>
      <trkpt lat="45.85736" lon="3.54626">
        <ele>415.7</ele>
        <time>2026-05-10T09:03:49.000Z</time>
      </trkpt>
      <trkpt lat="45.85735" lon="3.54628">
        <ele>415.9</ele>
        <time>2026-05-10T09:03:50.000Z</time>
      </trkpt>
      <trkpt lat="45.85734" lon="3.54629">
        <ele>416</ele>
        <time>2026-05-10T09:03:51.000Z</time>
      </trkpt>
      <trkpt lat="45.85733" lon="3.5463">
        <ele>416.2</ele>
        <time>2026-05-10T09:03:52.000Z</time>
      </trkpt>
      <trkpt lat="45.85732" lon="3.54631">
        <ele>416.3</ele>
        <time>2026-05-10T09:03:53.000Z</time>
      </trkpt>
      <trkpt lat="45.85731" lon="3.54632">
        <ele>416.4</ele>
        <time>2026-05-10T09:03:54.000Z</time>
      </trkpt>
      <trkpt lat="45.8573" lon="3.54633">
        <ele>416.6</ele>
        <time>2026-05-10T09:03:55.000Z</time>
      </trkpt>
      <trkpt lat="45.85729" lon="3.54634">
        <ele>416.7</ele>
        <time>2026-05-10T09:03:56.000Z</time>
      </trkpt>
      <trkpt lat="45.85728" lon="3.54635">
        <ele>416.8</ele>
        <time>2026-05-10T09:03:57.000Z</time>
      </trkpt>
      <trkpt lat="45.85727" lon="3.54636">
        <ele>416.9</ele>
        <time>2026-05-10T09:03:58.000Z</time>
      </trkpt>
      <trkpt lat="45.85726" lon="3.54637">
        <ele>417.1</ele>
        <time>2026-05-10T09:03:59.000Z</time>
      </trkpt>
      <trkpt lat="45.85725" lon="3.54639">
        <ele>417.3</ele>
        <time>2026-05-10T09:04:00.000Z</time>
      </trkpt>
      <trkpt lat="45.85724" lon="3.5464">
        <ele>417.5</ele>
        <time>2026-05-10T09:04:01.000Z</time>
      </trkpt>
      <trkpt lat="45.85723" lon="3.54641">
        <ele>417.7</ele>
        <time>2026-05-10T09:04:02.000Z</time>
      </trkpt>
      <trkpt lat="45.85723" lon="3.54642">
        <ele>418</ele>
        <time>2026-05-10T09:04:03.000Z</time>
      </trkpt>
      <trkpt lat="45.85721" lon="3.54643">
        <ele>418.2</ele>
        <time>2026-05-10T09:04:04.000Z</time>
      </trkpt>
      <trkpt lat="45.85721" lon="3.54644">
        <ele>418.5</ele>
        <time>2026-05-10T09:04:05.000Z</time>
      </trkpt>
      <trkpt lat="45.8572" lon="3.54645">
        <ele>418.7</ele>
        <time>2026-05-10T09:04:06.000Z</time>
      </trkpt>
      <trkpt lat="45.85719" lon="3.54646">
        <ele>419</ele>
        <time>2026-05-10T09:04:07.000Z</time>
      </trkpt>
      <trkpt lat="45.85718" lon="3.54647">
        <ele>419.2</ele>
        <time>2026-05-10T09:04:08.000Z</time>
      </trkpt>
      <trkpt lat="45.85717" lon="3.54648">
        <ele>419.5</ele>
        <time>2026-05-10T09:04:09.000Z</time>
      </trkpt>
      <trkpt lat="45.85716" lon="3.54649">
        <ele>419.7</ele>
        <time>2026-05-10T09:04:10.000Z</time>
      </trkpt>
      <trkpt lat="45.85715" lon="3.5465">
        <ele>419.9</ele>
        <time>2026-05-10T09:04:11.000Z</time>
      </trkpt>
      <trkpt lat="45.85713" lon="3.54652">
        <ele>420.2</ele>
        <time>2026-05-10T09:04:12.000Z</time>
      </trkpt>
      <trkpt lat="45.85713" lon="3.54653">
        <ele>420.4</ele>
        <time>2026-05-10T09:04:13.000Z</time>
      </trkpt>
      <trkpt lat="45.85711" lon="3.54654">
        <ele>420.6</ele>
        <time>2026-05-10T09:04:14.000Z</time>
      </trkpt>
      <trkpt lat="45.8571" lon="3.54655">
        <ele>420.8</ele>
        <time>2026-05-10T09:04:15.000Z</time>
      </trkpt>
      <trkpt lat="45.8571" lon="3.54656">
        <ele>421</ele>
        <time>2026-05-10T09:04:16.000Z</time>
      </trkpt>
      <trkpt lat="45.85709" lon="3.54657">
        <ele>421.1</ele>
        <time>2026-05-10T09:04:17.000Z</time>
      </trkpt>
      <trkpt lat="45.85708" lon="3.54658">
        <ele>421.3</ele>
        <time>2026-05-10T09:04:18.000Z</time>
      </trkpt>
      <trkpt lat="45.85706" lon="3.5466">
        <ele>421.4</ele>
        <time>2026-05-10T09:04:19.000Z</time>
      </trkpt>
      <trkpt lat="45.85705" lon="3.54661">
        <ele>421.5</ele>
        <time>2026-05-10T09:04:20.000Z</time>
      </trkpt>
      <trkpt lat="45.85704" lon="3.54663">
        <ele>421.7</ele>
        <time>2026-05-10T09:04:21.000Z</time>
      </trkpt>
      <trkpt lat="45.85703" lon="3.54664">
        <ele>421.7</ele>
        <time>2026-05-10T09:04:22.000Z</time>
      </trkpt>
      <trkpt lat="45.85701" lon="3.54665">
        <ele>421.7</ele>
        <time>2026-05-10T09:04:23.000Z</time>
      </trkpt>
      <trkpt lat="45.85701" lon="3.54666">
        <ele>421.8</ele>
        <time>2026-05-10T09:04:24.000Z</time>
      </trkpt>
      <trkpt lat="45.857" lon="3.54667">
        <ele>421.8</ele>
        <time>2026-05-10T09:04:25.000Z</time>
      </trkpt>
      <trkpt lat="45.85699" lon="3.54667">
        <ele>421.8</ele>
        <time>2026-05-10T09:04:26.000Z</time>
      </trkpt>
      <trkpt lat="45.85698" lon="3.54668">
        <ele>421.8</ele>
        <time>2026-05-10T09:04:27.000Z</time>
      </trkpt>
      <trkpt lat="45.85697" lon="3.54669">
        <ele>421.8</ele>
        <time>2026-05-10T09:04:28.000Z</time>
      </trkpt>
      <trkpt lat="45.85695" lon="3.54671">
        <ele>421.8</ele>
        <time>2026-05-10T09:04:29.000Z</time>
      </trkpt>
      <trkpt lat="45.85694" lon="3.54672">
        <ele>421.9</ele>
        <time>2026-05-10T09:04:30.000Z</time>
      </trkpt>
      <trkpt lat="45.85693" lon="3.54673">
        <ele>422.1</ele>
        <time>2026-05-10T09:04:31.000Z</time>
      </trkpt>
      <trkpt lat="45.85692" lon="3.54675">
        <ele>422.4</ele>
        <time>2026-05-10T09:04:32.000Z</time>
      </trkpt>
      <trkpt lat="45.8569" lon="3.54676">
        <ele>422.6</ele>
        <time>2026-05-10T09:04:33.000Z</time>
      </trkpt>
      <trkpt lat="45.8569" lon="3.54677">
        <ele>422.7</ele>
        <time>2026-05-10T09:04:34.000Z</time>
      </trkpt>
      <trkpt lat="45.85689" lon="3.54677">
        <ele>422.8</ele>
        <time>2026-05-10T09:04:35.000Z</time>
      </trkpt>
      <trkpt lat="45.85688" lon="3.54678">
        <ele>422.9</ele>
        <time>2026-05-10T09:04:36.000Z</time>
      </trkpt>
      <trkpt lat="45.85687" lon="3.54679">
        <ele>423</ele>
        <time>2026-05-10T09:04:37.000Z</time>
      </trkpt>
      <trkpt lat="45.85686" lon="3.5468">
        <ele>423.1</ele>
        <time>2026-05-10T09:04:38.000Z</time>
      </trkpt>
      <trkpt lat="45.85685" lon="3.54681">
        <ele>423.2</ele>
        <time>2026-05-10T09:04:39.000Z</time>
      </trkpt>
      <trkpt lat="45.85684" lon="3.54682">
        <ele>423.3</ele>
        <time>2026-05-10T09:04:40.000Z</time>
      </trkpt>
      <trkpt lat="45.85683" lon="3.54683">
        <ele>423.4</ele>
        <time>2026-05-10T09:04:41.000Z</time>
      </trkpt>
      <trkpt lat="45.85682" lon="3.54683">
        <ele>423.5</ele>
        <time>2026-05-10T09:04:42.000Z</time>
      </trkpt>
      <trkpt lat="45.85681" lon="3.54684">
        <ele>423.5</ele>
        <time>2026-05-10T09:04:43.000Z</time>
      </trkpt>
      <trkpt lat="45.8568" lon="3.54684">
        <ele>423.5</ele>
        <time>2026-05-10T09:04:44.000Z</time>
      </trkpt>
      <trkpt lat="45.85679" lon="3.54684">
        <ele>423.5</ele>
        <time>2026-05-10T09:04:45.000Z</time>
      </trkpt>
      <trkpt lat="45.85678" lon="3.54684">
        <ele>423.4</ele>
        <time>2026-05-10T09:04:46.000Z</time>
      </trkpt>
      <trkpt lat="45.85677" lon="3.54684">
        <ele>423.3</ele>
        <time>2026-05-10T09:04:47.000Z</time>
      </trkpt>
      <trkpt lat="45.85675" lon="3.54683">
        <ele>423.2</ele>
        <time>2026-05-10T09:04:48.000Z</time>
      </trkpt>
      <trkpt lat="45.85673" lon="3.54683">
        <ele>423.1</ele>
        <time>2026-05-10T09:04:49.000Z</time>
      </trkpt>
      <trkpt lat="45.85672" lon="3.54683">
        <ele>423</ele>
        <time>2026-05-10T09:04:50.000Z</time>
      </trkpt>
      <trkpt lat="45.85671" lon="3.54682">
        <ele>422.8</ele>
        <time>2026-05-10T09:04:51.000Z</time>
      </trkpt>
      <trkpt lat="45.85669" lon="3.54681">
        <ele>422.7</ele>
        <time>2026-05-10T09:04:52.000Z</time>
      </trkpt>
      <trkpt lat="45.85668" lon="3.54681">
        <ele>422.6</ele>
        <time>2026-05-10T09:04:53.000Z</time>
      </trkpt>
      <trkpt lat="45.85667" lon="3.5468">
        <ele>422.4</ele>
        <time>2026-05-10T09:04:54.000Z</time>
      </trkpt>
      <trkpt lat="45.85665" lon="3.5468">
        <ele>422.3</ele>
        <time>2026-05-10T09:04:55.000Z</time>
      </trkpt>
      <trkpt lat="45.85664" lon="3.54679">
        <ele>422.1</ele>
        <time>2026-05-10T09:04:56.000Z</time>
      </trkpt>
      <trkpt lat="45.85662" lon="3.54678">
        <ele>421.8</ele>
        <time>2026-05-10T09:04:57.000Z</time>
      </trkpt>
      <trkpt lat="45.8566" lon="3.54677">
        <ele>421.6</ele>
        <time>2026-05-10T09:04:58.000Z</time>
      </trkpt>
      <trkpt lat="45.85659" lon="3.54677">
        <ele>421.4</ele>
        <time>2026-05-10T09:04:59.000Z</time>
      </trkpt>
      <trkpt lat="45.85657" lon="3.54676">
        <ele>421.2</ele>
        <time>2026-05-10T09:05:00.000Z</time>
      </trkpt>
      <trkpt lat="45.85656" lon="3.54676">
        <ele>421</ele>
        <time>2026-05-10T09:05:01.000Z</time>
      </trkpt>
      <trkpt lat="45.85655" lon="3.54675">
        <ele>420.9</ele>
        <time>2026-05-10T09:05:02.000Z</time>
      </trkpt>
      <trkpt lat="45.85653" lon="3.54675">
        <ele>420.8</ele>
        <time>2026-05-10T09:05:03.000Z</time>
      </trkpt>
      <trkpt lat="45.85652" lon="3.54676">
        <ele>420.8</ele>
        <time>2026-05-10T09:05:04.000Z</time>
      </trkpt>
      <trkpt lat="45.85651" lon="3.54676">
        <ele>420.7</ele>
        <time>2026-05-10T09:05:05.000Z</time>
      </trkpt>
      <trkpt lat="45.85649" lon="3.54676">
        <ele>420.6</ele>
        <time>2026-05-10T09:05:06.000Z</time>
      </trkpt>
      <trkpt lat="45.85648" lon="3.54677">
        <ele>420.5</ele>
        <time>2026-05-10T09:05:07.000Z</time>
      </trkpt>
      <trkpt lat="45.85647" lon="3.54677">
        <ele>420.4</ele>
        <time>2026-05-10T09:05:08.000Z</time>
      </trkpt>
      <trkpt lat="45.85645" lon="3.54677">
        <ele>420.3</ele>
        <time>2026-05-10T09:05:09.000Z</time>
      </trkpt>
      <trkpt lat="45.85643" lon="3.54678">
        <ele>420.2</ele>
        <time>2026-05-10T09:05:10.000Z</time>
      </trkpt>
      <trkpt lat="45.85642" lon="3.54678">
        <ele>420.1</ele>
        <time>2026-05-10T09:05:11.000Z</time>
      </trkpt>
      <trkpt lat="45.8564" lon="3.54678">
        <ele>420</ele>
        <time>2026-05-10T09:05:12.000Z</time>
      </trkpt>
      <trkpt lat="45.85639" lon="3.54679">
        <ele>419.9</ele>
        <time>2026-05-10T09:05:13.000Z</time>
      </trkpt>
      <trkpt lat="45.85638" lon="3.54679">
        <ele>419.9</ele>
        <time>2026-05-10T09:05:14.000Z</time>
      </trkpt>
      <trkpt lat="45.85637" lon="3.5468">
        <ele>419.8</ele>
        <time>2026-05-10T09:05:15.000Z</time>
      </trkpt>
      <trkpt lat="45.85636" lon="3.5468">
        <ele>419.8</ele>
        <time>2026-05-10T09:05:16.000Z</time>
      </trkpt>
      <trkpt lat="45.85635" lon="3.54681">
        <ele>419.8</ele>
        <time>2026-05-10T09:05:17.000Z</time>
      </trkpt>
      <trkpt lat="45.85633" lon="3.54682">
        <ele>419.8</ele>
        <time>2026-05-10T09:05:18.000Z</time>
      </trkpt>
      <trkpt lat="45.85632" lon="3.54683">
        <ele>419.8</ele>
        <time>2026-05-10T09:05:19.000Z</time>
      </trkpt>
      <trkpt lat="45.8563" lon="3.54684">
        <ele>419.8</ele>
        <time>2026-05-10T09:05:20.000Z</time>
      </trkpt>
      <trkpt lat="45.85629" lon="3.54685">
        <ele>419.8</ele>
        <time>2026-05-10T09:05:21.000Z</time>
      </trkpt>
      <trkpt lat="45.85627" lon="3.54685">
        <ele>419.8</ele>
        <time>2026-05-10T09:05:22.000Z</time>
      </trkpt>
      <trkpt lat="45.85626" lon="3.54686">
        <ele>419.8</ele>
        <time>2026-05-10T09:05:23.000Z</time>
      </trkpt>
      <trkpt lat="45.85624" lon="3.54687">
        <ele>419.8</ele>
        <time>2026-05-10T09:05:24.000Z</time>
      </trkpt>
      <trkpt lat="45.85623" lon="3.54688">
        <ele>419.8</ele>
        <time>2026-05-10T09:05:25.000Z</time>
      </trkpt>
      <trkpt lat="45.85621" lon="3.54689">
        <ele>419.8</ele>
        <time>2026-05-10T09:05:26.000Z</time>
      </trkpt>
      <trkpt lat="45.8562" lon="3.5469">
        <ele>419.9</ele>
        <time>2026-05-10T09:05:27.000Z</time>
      </trkpt>
      <trkpt lat="45.85619" lon="3.5469">
        <ele>419.9</ele>
        <time>2026-05-10T09:05:28.000Z</time>
      </trkpt>
      <trkpt lat="45.85617" lon="3.54691">
        <ele>419.9</ele>
        <time>2026-05-10T09:05:29.000Z</time>
      </trkpt>
      <trkpt lat="45.85616" lon="3.54692">
        <ele>419.9</ele>
        <time>2026-05-10T09:05:30.000Z</time>
      </trkpt>
      <trkpt lat="45.85615" lon="3.54692">
        <ele>419.9</ele>
        <time>2026-05-10T09:05:31.000Z</time>
      </trkpt>
      <trkpt lat="45.85613" lon="3.54693">
        <ele>419.9</ele>
        <time>2026-05-10T09:05:32.000Z</time>
      </trkpt>
      <trkpt lat="45.85612" lon="3.54694">
        <ele>419.9</ele>
        <time>2026-05-10T09:05:33.000Z</time>
      </trkpt>
      <trkpt lat="45.8561" lon="3.54694">
        <ele>420</ele>
        <time>2026-05-10T09:05:34.000Z</time>
      </trkpt>
      <trkpt lat="45.85609" lon="3.54695">
        <ele>420</ele>
        <time>2026-05-10T09:05:35.000Z</time>
      </trkpt>
      <trkpt lat="45.85608" lon="3.54695">
        <ele>420</ele>
        <time>2026-05-10T09:05:36.000Z</time>
      </trkpt>
      <trkpt lat="45.85606" lon="3.54695">
        <ele>420</ele>
        <time>2026-05-10T09:05:37.000Z</time>
      </trkpt>
      <trkpt lat="45.85605" lon="3.54694">
        <ele>419.9</ele>
        <time>2026-05-10T09:05:38.000Z</time>
      </trkpt>
      <trkpt lat="45.85604" lon="3.54693">
        <ele>419.9</ele>
        <time>2026-05-10T09:05:39.000Z</time>
      </trkpt>
      <trkpt lat="45.85603" lon="3.54692">
        <ele>419.7</ele>
        <time>2026-05-10T09:05:40.000Z</time>
      </trkpt>
      <trkpt lat="45.85603" lon="3.54691">
        <ele>419.5</ele>
        <time>2026-05-10T09:05:41.000Z</time>
      </trkpt>
      <trkpt lat="45.85602" lon="3.5469">
        <ele>419.3</ele>
        <time>2026-05-10T09:05:42.000Z</time>
      </trkpt>
      <trkpt lat="45.85601" lon="3.54689">
        <ele>419.1</ele>
        <time>2026-05-10T09:05:43.000Z</time>
      </trkpt>
      <trkpt lat="45.856" lon="3.54687">
        <ele>418.9</ele>
        <time>2026-05-10T09:05:44.000Z</time>
      </trkpt>
      <trkpt lat="45.85599" lon="3.54686">
        <ele>418.6</ele>
        <time>2026-05-10T09:05:45.000Z</time>
      </trkpt>
      <trkpt lat="45.85599" lon="3.54684">
        <ele>418.3</ele>
        <time>2026-05-10T09:05:46.000Z</time>
      </trkpt>
      <trkpt lat="45.85598" lon="3.54682">
        <ele>418.1</ele>
        <time>2026-05-10T09:05:47.000Z</time>
      </trkpt>
      <trkpt lat="45.85598" lon="3.54681">
        <ele>417.8</ele>
        <time>2026-05-10T09:05:48.000Z</time>
      </trkpt>
      <trkpt lat="45.85598" lon="3.54679">
        <ele>417.6</ele>
        <time>2026-05-10T09:05:49.000Z</time>
      </trkpt>
      <trkpt lat="45.85597" lon="3.54678">
        <ele>417.3</ele>
        <time>2026-05-10T09:05:50.000Z</time>
      </trkpt>
      <trkpt lat="45.85597" lon="3.54677">
        <ele>417.1</ele>
        <time>2026-05-10T09:05:51.000Z</time>
      </trkpt>
      <trkpt lat="45.85596" lon="3.54676">
        <ele>416.9</ele>
        <time>2026-05-10T09:05:52.000Z</time>
      </trkpt>
      <trkpt lat="45.85595" lon="3.54674">
        <ele>416.4</ele>
        <time>2026-05-10T09:05:53.000Z</time>
      </trkpt>
      <trkpt lat="45.85594" lon="3.54673">
        <ele>416.2</ele>
        <time>2026-05-10T09:05:54.000Z</time>
      </trkpt>
      <trkpt lat="45.85593" lon="3.54673">
        <ele>416.1</ele>
        <time>2026-05-10T09:05:55.000Z</time>
      </trkpt>
      <trkpt lat="45.85592" lon="3.54671">
        <ele>415.7</ele>
        <time>2026-05-10T09:05:56.000Z</time>
      </trkpt>
      <trkpt lat="45.85591" lon="3.54671">
        <ele>415.7</ele>
        <time>2026-05-10T09:05:57.000Z</time>
      </trkpt>
      <trkpt lat="45.85591" lon="3.54671">
        <ele>415.6</ele>
        <time>2026-05-10T09:05:58.000Z</time>
      </trkpt>
      <trkpt lat="45.85589" lon="3.54674">
        <ele>416</ele>
        <time>2026-05-10T09:05:59.000Z</time>
      </trkpt>
      <trkpt lat="45.85588" lon="3.54674">
        <ele>416</ele>
        <time>2026-05-10T09:06:00.000Z</time>
      </trkpt>
      <trkpt lat="45.85588" lon="3.54675">
        <ele>416.1</ele>
        <time>2026-05-10T09:06:01.000Z</time>
      </trkpt>
      <trkpt lat="45.85587" lon="3.54676">
        <ele>416.2</ele>
        <time>2026-05-10T09:06:02.000Z</time>
      </trkpt>
      <trkpt lat="45.85587" lon="3.54676">
        <ele>416.2</ele>
        <time>2026-05-10T09:06:03.000Z</time>
      </trkpt>
      <trkpt lat="45.85586" lon="3.54676">
        <ele>416.2</ele>
        <time>2026-05-10T09:06:04.000Z</time>
      </trkpt>
      <trkpt lat="45.85585" lon="3.54676">
        <ele>416</ele>
        <time>2026-05-10T09:06:05.000Z</time>
      </trkpt>
      <trkpt lat="45.85584" lon="3.54675">
        <ele>415.9</ele>
        <time>2026-05-10T09:06:06.000Z</time>
      </trkpt>
      <trkpt lat="45.85583" lon="3.54676">
        <ele>415.8</ele>
        <time>2026-05-10T09:06:07.000Z</time>
      </trkpt>
      <trkpt lat="45.85581" lon="3.54675">
        <ele>415.5</ele>
        <time>2026-05-10T09:06:08.000Z</time>
      </trkpt>
      <trkpt lat="45.8558" lon="3.54675">
        <ele>415</ele>
        <time>2026-05-10T09:06:09.000Z</time>
      </trkpt>
      <trkpt lat="45.85578" lon="3.54675">
        <ele>414.9</ele>
        <time>2026-05-10T09:06:10.000Z</time>
      </trkpt>
      <trkpt lat="45.85577" lon="3.54676">
        <ele>414.7</ele>
        <time>2026-05-10T09:06:11.000Z</time>
      </trkpt>
      <trkpt lat="45.85576" lon="3.54676">
        <ele>414.6</ele>
        <time>2026-05-10T09:06:12.000Z</time>
      </trkpt>
      <trkpt lat="45.85575" lon="3.54676">
        <ele>414.5</ele>
        <time>2026-05-10T09:06:13.000Z</time>
      </trkpt>
      <trkpt lat="45.85575" lon="3.54676">
        <ele>414.4</ele>
        <time>2026-05-10T09:06:14.000Z</time>
      </trkpt>
      <trkpt lat="45.85574" lon="3.54677">
        <ele>414.3</ele>
        <time>2026-05-10T09:06:15.000Z</time>
      </trkpt>
      <trkpt lat="45.85572" lon="3.54676">
        <ele>413.9</ele>
        <time>2026-05-10T09:06:16.000Z</time>
      </trkpt>
      <trkpt lat="45.85572" lon="3.54676">
        <ele>413.8</ele>
        <time>2026-05-10T09:06:17.000Z</time>
      </trkpt>
      <trkpt lat="45.85572" lon="3.54676">
        <ele>413.8</ele>
        <time>2026-05-10T09:06:18.000Z</time>
      </trkpt>
      <trkpt lat="45.85572" lon="3.54677">
        <ele>414</ele>
        <time>2026-05-10T09:06:19.000Z</time>
      </trkpt>
      <trkpt lat="45.85571" lon="3.54677">
        <ele>413.9</ele>
        <time>2026-05-10T09:06:20.000Z</time>
      </trkpt>
      <trkpt lat="45.85571" lon="3.54677">
        <ele>413.9</ele>
        <time>2026-05-10T09:06:21.000Z</time>
      </trkpt>
      <trkpt lat="45.85568" lon="3.54677">
        <ele>413.3</ele>
        <time>2026-05-10T09:06:22.000Z</time>
      </trkpt>
      <trkpt lat="45.85566" lon="3.54678">
        <ele>413.2</ele>
        <time>2026-05-10T09:06:23.000Z</time>
      </trkpt>
      <trkpt lat="45.85564" lon="3.54679">
        <ele>412.8</ele>
        <time>2026-05-10T09:06:24.000Z</time>
      </trkpt>
      <trkpt lat="45.85562" lon="3.5468">
        <ele>412.6</ele>
        <time>2026-05-10T09:06:25.000Z</time>
      </trkpt>
      <trkpt lat="45.85559" lon="3.54681">
        <ele>412.4</ele>
        <time>2026-05-10T09:06:26.000Z</time>
      </trkpt>
      <trkpt lat="45.85558" lon="3.54682">
        <ele>412.1</ele>
        <time>2026-05-10T09:06:27.000Z</time>
      </trkpt>
      <trkpt lat="45.85557" lon="3.54683">
        <ele>412</ele>
        <time>2026-05-10T09:06:28.000Z</time>
      </trkpt>
      <trkpt lat="45.85555" lon="3.54683">
        <ele>411.9</ele>
        <time>2026-05-10T09:06:29.000Z</time>
      </trkpt>
      <trkpt lat="45.85555" lon="3.54685">
        <ele>412.3</ele>
        <time>2026-05-10T09:06:30.000Z</time>
      </trkpt>
      <trkpt lat="45.85554" lon="3.54687">
        <ele>412.4</ele>
        <time>2026-05-10T09:06:31.000Z</time>
      </trkpt>
      <trkpt lat="45.85553" lon="3.54687">
        <ele>412.2</ele>
        <time>2026-05-10T09:06:32.000Z</time>
      </trkpt>
      <trkpt lat="45.85551" lon="3.54687">
        <ele>412</ele>
        <time>2026-05-10T09:06:33.000Z</time>
      </trkpt>
      <trkpt lat="45.85549" lon="3.54688">
        <ele>411.8</ele>
        <time>2026-05-10T09:06:34.000Z</time>
      </trkpt>
      <trkpt lat="45.85548" lon="3.54688">
        <ele>411.6</ele>
        <time>2026-05-10T09:06:35.000Z</time>
      </trkpt>
      <trkpt lat="45.85547" lon="3.54689">
        <ele>411.5</ele>
        <time>2026-05-10T09:06:36.000Z</time>
      </trkpt>
      <trkpt lat="45.85544" lon="3.54689">
        <ele>411.2</ele>
        <time>2026-05-10T09:06:37.000Z</time>
      </trkpt>
      <trkpt lat="45.85543" lon="3.5469">
        <ele>411.1</ele>
        <time>2026-05-10T09:06:38.000Z</time>
      </trkpt>
      <trkpt lat="45.85541" lon="3.5469">
        <ele>410.8</ele>
        <time>2026-05-10T09:06:39.000Z</time>
      </trkpt>
      <trkpt lat="45.8554" lon="3.54691">
        <ele>410.6</ele>
        <time>2026-05-10T09:06:40.000Z</time>
      </trkpt>
      <trkpt lat="45.85538" lon="3.54691">
        <ele>410.4</ele>
        <time>2026-05-10T09:06:41.000Z</time>
      </trkpt>
      <trkpt lat="45.85536" lon="3.54691">
        <ele>410.2</ele>
        <time>2026-05-10T09:06:42.000Z</time>
      </trkpt>
      <trkpt lat="45.85535" lon="3.54692">
        <ele>409.9</ele>
        <time>2026-05-10T09:06:43.000Z</time>
      </trkpt>
      <trkpt lat="45.85533" lon="3.54693">
        <ele>409.7</ele>
        <time>2026-05-10T09:06:44.000Z</time>
      </trkpt>
      <trkpt lat="45.85531" lon="3.54693">
        <ele>409.5</ele>
        <time>2026-05-10T09:06:45.000Z</time>
      </trkpt>
      <trkpt lat="45.8553" lon="3.54694">
        <ele>409.3</ele>
        <time>2026-05-10T09:06:46.000Z</time>
      </trkpt>
      <trkpt lat="45.85529" lon="3.54695">
        <ele>409.2</ele>
        <time>2026-05-10T09:06:47.000Z</time>
      </trkpt>
      <trkpt lat="45.85528" lon="3.54695">
        <ele>409</ele>
        <time>2026-05-10T09:06:48.000Z</time>
      </trkpt>
      <trkpt lat="45.85527" lon="3.54695">
        <ele>408.9</ele>
        <time>2026-05-10T09:06:49.000Z</time>
      </trkpt>
      <trkpt lat="45.85526" lon="3.54696">
        <ele>408.9</ele>
        <time>2026-05-10T09:06:50.000Z</time>
      </trkpt>
      <trkpt lat="45.85524" lon="3.54696">
        <ele>408.8</ele>
        <time>2026-05-10T09:06:51.000Z</time>
      </trkpt>
      <trkpt lat="45.85523" lon="3.54697">
        <ele>408.7</ele>
        <time>2026-05-10T09:06:52.000Z</time>
      </trkpt>
      <trkpt lat="45.85522" lon="3.54697">
        <ele>408.7</ele>
        <time>2026-05-10T09:06:53.000Z</time>
      </trkpt>
      <trkpt lat="45.8552" lon="3.54697">
        <ele>408.6</ele>
        <time>2026-05-10T09:06:54.000Z</time>
      </trkpt>
      <trkpt lat="45.85519" lon="3.54697">
        <ele>408.5</ele>
        <time>2026-05-10T09:06:55.000Z</time>
      </trkpt>
      <trkpt lat="45.85518" lon="3.54698">
        <ele>408.4</ele>
        <time>2026-05-10T09:06:56.000Z</time>
      </trkpt>
      <trkpt lat="45.85516" lon="3.54699">
        <ele>408.3</ele>
        <time>2026-05-10T09:06:57.000Z</time>
      </trkpt>
      <trkpt lat="45.85514" lon="3.54699">
        <ele>408.2</ele>
        <time>2026-05-10T09:06:58.000Z</time>
      </trkpt>
      <trkpt lat="45.85512" lon="3.54698">
        <ele>408</ele>
        <time>2026-05-10T09:06:59.000Z</time>
      </trkpt>
      <trkpt lat="45.8551" lon="3.54698">
        <ele>407.9</ele>
        <time>2026-05-10T09:07:00.000Z</time>
      </trkpt>
      <trkpt lat="45.85509" lon="3.54696">
        <ele>407.7</ele>
        <time>2026-05-10T09:07:01.000Z</time>
      </trkpt>
      <trkpt lat="45.85509" lon="3.54694">
        <ele>407.5</ele>
        <time>2026-05-10T09:07:02.000Z</time>
      </trkpt>
      <trkpt lat="45.85509" lon="3.54692">
        <ele>407</ele>
        <time>2026-05-10T09:07:03.000Z</time>
      </trkpt>
      <trkpt lat="45.8551" lon="3.5469">
        <ele>406.6</ele>
        <time>2026-05-10T09:07:04.000Z</time>
      </trkpt>
      <trkpt lat="45.85511" lon="3.54688">
        <ele>406.3</ele>
        <time>2026-05-10T09:07:05.000Z</time>
      </trkpt>
      <trkpt lat="45.85512" lon="3.54687">
        <ele>406.1</ele>
        <time>2026-05-10T09:07:06.000Z</time>
      </trkpt>
      <trkpt lat="45.85513" lon="3.54686">
        <ele>405.9</ele>
        <time>2026-05-10T09:07:07.000Z</time>
      </trkpt>
      <trkpt lat="45.85514" lon="3.54684">
        <ele>405.7</ele>
        <time>2026-05-10T09:07:08.000Z</time>
      </trkpt>
      <trkpt lat="45.85515" lon="3.54683">
        <ele>405.6</ele>
        <time>2026-05-10T09:07:09.000Z</time>
      </trkpt>
      <trkpt lat="45.85516" lon="3.54681">
        <ele>405.4</ele>
        <time>2026-05-10T09:07:10.000Z</time>
      </trkpt>
      <trkpt lat="45.85517" lon="3.5468">
        <ele>405.4</ele>
        <time>2026-05-10T09:07:11.000Z</time>
      </trkpt>
      <trkpt lat="45.85518" lon="3.54678">
        <ele>405.4</ele>
        <time>2026-05-10T09:07:12.000Z</time>
      </trkpt>
      <trkpt lat="45.85519" lon="3.54678">
        <ele>405.5</ele>
        <time>2026-05-10T09:07:13.000Z</time>
      </trkpt>
      <trkpt lat="45.85521" lon="3.54677">
        <ele>405.6</ele>
        <time>2026-05-10T09:07:14.000Z</time>
      </trkpt>
      <trkpt lat="45.85522" lon="3.54676">
        <ele>405.6</ele>
        <time>2026-05-10T09:07:15.000Z</time>
      </trkpt>
      <trkpt lat="45.85523" lon="3.54675">
        <ele>405.8</ele>
        <time>2026-05-10T09:07:16.000Z</time>
      </trkpt>
      <trkpt lat="45.85524" lon="3.54674">
        <ele>405.8</ele>
        <time>2026-05-10T09:07:17.000Z</time>
      </trkpt>
      <trkpt lat="45.85525" lon="3.54673">
        <ele>406</ele>
        <time>2026-05-10T09:07:18.000Z</time>
      </trkpt>
      <trkpt lat="45.85526" lon="3.54672">
        <ele>406.1</ele>
        <time>2026-05-10T09:07:19.000Z</time>
      </trkpt>
      <trkpt lat="45.85527" lon="3.54671">
        <ele>406.3</ele>
        <time>2026-05-10T09:07:20.000Z</time>
      </trkpt>
      <trkpt lat="45.85528" lon="3.54671">
        <ele>406.5</ele>
        <time>2026-05-10T09:07:21.000Z</time>
      </trkpt>
      <trkpt lat="45.8553" lon="3.5467">
        <ele>406.5</ele>
        <time>2026-05-10T09:07:22.000Z</time>
      </trkpt>
      <trkpt lat="45.85531" lon="3.54669">
        <ele>406.6</ele>
        <time>2026-05-10T09:07:23.000Z</time>
      </trkpt>
      <trkpt lat="45.85532" lon="3.54668">
        <ele>406.6</ele>
        <time>2026-05-10T09:07:24.000Z</time>
      </trkpt>
      <trkpt lat="45.85534" lon="3.54667">
        <ele>406.7</ele>
        <time>2026-05-10T09:07:25.000Z</time>
      </trkpt>
      <trkpt lat="45.85536" lon="3.54666">
        <ele>406.6</ele>
        <time>2026-05-10T09:07:26.000Z</time>
      </trkpt>
      <trkpt lat="45.85537" lon="3.54665">
        <ele>406.5</ele>
        <time>2026-05-10T09:07:27.000Z</time>
      </trkpt>
      <trkpt lat="45.85538" lon="3.54664">
        <ele>406.5</ele>
        <time>2026-05-10T09:07:28.000Z</time>
      </trkpt>
      <trkpt lat="45.85539" lon="3.54663">
        <ele>406.5</ele>
        <time>2026-05-10T09:07:29.000Z</time>
      </trkpt>
      <trkpt lat="45.8554" lon="3.54663">
        <ele>406.5</ele>
        <time>2026-05-10T09:07:30.000Z</time>
      </trkpt>
      <trkpt lat="45.85541" lon="3.54662">
        <ele>406.6</ele>
        <time>2026-05-10T09:07:31.000Z</time>
      </trkpt>
      <trkpt lat="45.85542" lon="3.54662">
        <ele>406.6</ele>
        <time>2026-05-10T09:07:32.000Z</time>
      </trkpt>
      <trkpt lat="45.85543" lon="3.54661">
        <ele>406.7</ele>
        <time>2026-05-10T09:07:33.000Z</time>
      </trkpt>
      <trkpt lat="45.85545" lon="3.5466">
        <ele>406.7</ele>
        <time>2026-05-10T09:07:34.000Z</time>
      </trkpt>
      <trkpt lat="45.85546" lon="3.54659">
        <ele>406.8</ele>
        <time>2026-05-10T09:07:35.000Z</time>
      </trkpt>
      <trkpt lat="45.85547" lon="3.54658">
        <ele>406.9</ele>
        <time>2026-05-10T09:07:36.000Z</time>
      </trkpt>
      <trkpt lat="45.85548" lon="3.54657">
        <ele>407</ele>
        <time>2026-05-10T09:07:37.000Z</time>
      </trkpt>
      <trkpt lat="45.85549" lon="3.54656">
        <ele>407</ele>
        <time>2026-05-10T09:07:38.000Z</time>
      </trkpt>
      <trkpt lat="45.85551" lon="3.54655">
        <ele>407.2</ele>
        <time>2026-05-10T09:07:39.000Z</time>
      </trkpt>
      <trkpt lat="45.85552" lon="3.54654">
        <ele>407.3</ele>
        <time>2026-05-10T09:07:40.000Z</time>
      </trkpt>
      <trkpt lat="45.85553" lon="3.54654">
        <ele>407.5</ele>
        <time>2026-05-10T09:07:41.000Z</time>
      </trkpt>
      <trkpt lat="45.85554" lon="3.54653">
        <ele>407.6</ele>
        <time>2026-05-10T09:07:42.000Z</time>
      </trkpt>
      <trkpt lat="45.85555" lon="3.54653">
        <ele>407.8</ele>
        <time>2026-05-10T09:07:43.000Z</time>
      </trkpt>
      <trkpt lat="45.85556" lon="3.54652">
        <ele>407.9</ele>
        <time>2026-05-10T09:07:44.000Z</time>
      </trkpt>
      <trkpt lat="45.85557" lon="3.54651">
        <ele>408</ele>
        <time>2026-05-10T09:07:45.000Z</time>
      </trkpt>
      <trkpt lat="45.85558" lon="3.54651">
        <ele>408.1</ele>
        <time>2026-05-10T09:07:46.000Z</time>
      </trkpt>
      <trkpt lat="45.85558" lon="3.5465">
        <ele>408.1</ele>
        <time>2026-05-10T09:07:47.000Z</time>
      </trkpt>
      <trkpt lat="45.85559" lon="3.54649">
        <ele>408.1</ele>
        <time>2026-05-10T09:07:48.000Z</time>
      </trkpt>
      <trkpt lat="45.8556" lon="3.54648">
        <ele>408.1</ele>
        <time>2026-05-10T09:07:49.000Z</time>
      </trkpt>
      <trkpt lat="45.85561" lon="3.54647">
        <ele>408.1</ele>
        <time>2026-05-10T09:07:50.000Z</time>
      </trkpt>
      <trkpt lat="45.85562" lon="3.54646">
        <ele>408.1</ele>
        <time>2026-05-10T09:07:51.000Z</time>
      </trkpt>
      <trkpt lat="45.85563" lon="3.54644">
        <ele>408.1</ele>
        <time>2026-05-10T09:07:52.000Z</time>
      </trkpt>
      <trkpt lat="45.85565" lon="3.54643">
        <ele>408.1</ele>
        <time>2026-05-10T09:07:53.000Z</time>
      </trkpt>
      <trkpt lat="45.85567" lon="3.54642">
        <ele>408.1</ele>
        <time>2026-05-10T09:07:54.000Z</time>
      </trkpt>
      <trkpt lat="45.85568" lon="3.5464">
        <ele>408.1</ele>
        <time>2026-05-10T09:07:55.000Z</time>
      </trkpt>
      <trkpt lat="45.85569" lon="3.54639">
        <ele>408</ele>
        <time>2026-05-10T09:07:56.000Z</time>
      </trkpt>
      <trkpt lat="45.85571" lon="3.54638">
        <ele>408</ele>
        <time>2026-05-10T09:07:57.000Z</time>
      </trkpt>
      <trkpt lat="45.85572" lon="3.54637">
        <ele>407.8</ele>
        <time>2026-05-10T09:07:58.000Z</time>
      </trkpt>
      <trkpt lat="45.85573" lon="3.54636">
        <ele>407.8</ele>
        <time>2026-05-10T09:07:59.000Z</time>
      </trkpt>
      <trkpt lat="45.85574" lon="3.54635">
        <ele>407.7</ele>
        <time>2026-05-10T09:08:00.000Z</time>
      </trkpt>
      <trkpt lat="45.85575" lon="3.54634">
        <ele>407.6</ele>
        <time>2026-05-10T09:08:01.000Z</time>
      </trkpt>
      <trkpt lat="45.85576" lon="3.54633">
        <ele>407.5</ele>
        <time>2026-05-10T09:08:02.000Z</time>
      </trkpt>
      <trkpt lat="45.85576" lon="3.54632">
        <ele>407.4</ele>
        <time>2026-05-10T09:08:03.000Z</time>
      </trkpt>
      <trkpt lat="45.85577" lon="3.54631">
        <ele>407.4</ele>
        <time>2026-05-10T09:08:04.000Z</time>
      </trkpt>
      <trkpt lat="45.85578" lon="3.54631">
        <ele>407.4</ele>
        <time>2026-05-10T09:08:05.000Z</time>
      </trkpt>
      <trkpt lat="45.85579" lon="3.54629">
        <ele>407.3</ele>
        <time>2026-05-10T09:08:06.000Z</time>
      </trkpt>
      <trkpt lat="45.8558" lon="3.54628">
        <ele>407.4</ele>
        <time>2026-05-10T09:08:07.000Z</time>
      </trkpt>
      <trkpt lat="45.85581" lon="3.54627">
        <ele>407.4</ele>
        <time>2026-05-10T09:08:08.000Z</time>
      </trkpt>
      <trkpt lat="45.85582" lon="3.54626">
        <ele>407.5</ele>
        <time>2026-05-10T09:08:09.000Z</time>
      </trkpt>
      <trkpt lat="45.85584" lon="3.54626">
        <ele>407.6</ele>
        <time>2026-05-10T09:08:10.000Z</time>
      </trkpt>
      <trkpt lat="45.85585" lon="3.54625">
        <ele>407.6</ele>
        <time>2026-05-10T09:08:11.000Z</time>
      </trkpt>
      <trkpt lat="45.85586" lon="3.54624">
        <ele>407.5</ele>
        <time>2026-05-10T09:08:12.000Z</time>
      </trkpt>
      <trkpt lat="45.85588" lon="3.54623">
        <ele>407.5</ele>
        <time>2026-05-10T09:08:13.000Z</time>
      </trkpt>
      <trkpt lat="45.85589" lon="3.54622">
        <ele>407.4</ele>
        <time>2026-05-10T09:08:14.000Z</time>
      </trkpt>
      <trkpt lat="45.8559" lon="3.54621">
        <ele>407.3</ele>
        <time>2026-05-10T09:08:15.000Z</time>
      </trkpt>
      <trkpt lat="45.8559" lon="3.5462">
        <ele>407.2</ele>
        <time>2026-05-10T09:08:16.000Z</time>
      </trkpt>
      <trkpt lat="45.85591" lon="3.54619">
        <ele>407.1</ele>
        <time>2026-05-10T09:08:17.000Z</time>
      </trkpt>
      <trkpt lat="45.85592" lon="3.54618">
        <ele>406.9</ele>
        <time>2026-05-10T09:08:18.000Z</time>
      </trkpt>
      <trkpt lat="45.85593" lon="3.54617">
        <ele>406.8</ele>
        <time>2026-05-10T09:08:19.000Z</time>
      </trkpt>
      <trkpt lat="45.85594" lon="3.54616">
        <ele>406.8</ele>
        <time>2026-05-10T09:08:20.000Z</time>
      </trkpt>
      <trkpt lat="45.85595" lon="3.54616">
        <ele>406.7</ele>
        <time>2026-05-10T09:08:21.000Z</time>
      </trkpt>
      <trkpt lat="45.85596" lon="3.54615">
        <ele>406.6</ele>
        <time>2026-05-10T09:08:22.000Z</time>
      </trkpt>
      <trkpt lat="45.85597" lon="3.54615">
        <ele>406.6</ele>
        <time>2026-05-10T09:08:23.000Z</time>
      </trkpt>
      <trkpt lat="45.85598" lon="3.54615">
        <ele>406.6</ele>
        <time>2026-05-10T09:08:24.000Z</time>
      </trkpt>
      <trkpt lat="45.85599" lon="3.54615">
        <ele>406.6</ele>
        <time>2026-05-10T09:08:25.000Z</time>
      </trkpt>
      <trkpt lat="45.85601" lon="3.54615">
        <ele>406.8</ele>
        <time>2026-05-10T09:08:26.000Z</time>
      </trkpt>
      <trkpt lat="45.85602" lon="3.54615">
        <ele>406.7</ele>
        <time>2026-05-10T09:08:27.000Z</time>
      </trkpt>
      <trkpt lat="45.85603" lon="3.54615">
        <ele>406.7</ele>
        <time>2026-05-10T09:08:28.000Z</time>
      </trkpt>
      <trkpt lat="45.85604" lon="3.54615">
        <ele>406.6</ele>
        <time>2026-05-10T09:08:29.000Z</time>
      </trkpt>
      <trkpt lat="45.85604" lon="3.54614">
        <ele>406.5</ele>
        <time>2026-05-10T09:08:30.000Z</time>
      </trkpt>
      <trkpt lat="45.85605" lon="3.54614">
        <ele>406.5</ele>
        <time>2026-05-10T09:08:31.000Z</time>
      </trkpt>
      <trkpt lat="45.85606" lon="3.54613">
        <ele>406.4</ele>
        <time>2026-05-10T09:08:32.000Z</time>
      </trkpt>
      <trkpt lat="45.85607" lon="3.54613">
        <ele>406.3</ele>
        <time>2026-05-10T09:08:33.000Z</time>
      </trkpt>
      <trkpt lat="45.85609" lon="3.54612">
        <ele>406.2</ele>
        <time>2026-05-10T09:08:34.000Z</time>
      </trkpt>
      <trkpt lat="45.8561" lon="3.54611">
        <ele>406</ele>
        <time>2026-05-10T09:08:35.000Z</time>
      </trkpt>
      <trkpt lat="45.85611" lon="3.5461">
        <ele>405.8</ele>
        <time>2026-05-10T09:08:36.000Z</time>
      </trkpt>
      <trkpt lat="45.85612" lon="3.5461">
        <ele>405.8</ele>
        <time>2026-05-10T09:08:37.000Z</time>
      </trkpt>
      <trkpt lat="45.85613" lon="3.54609">
        <ele>405.7</ele>
        <time>2026-05-10T09:08:38.000Z</time>
      </trkpt>
      <trkpt lat="45.85614" lon="3.54608">
        <ele>405.6</ele>
        <time>2026-05-10T09:08:39.000Z</time>
      </trkpt>
      <trkpt lat="45.85615" lon="3.54607">
        <ele>405.5</ele>
        <time>2026-05-10T09:08:40.000Z</time>
      </trkpt>
      <trkpt lat="45.85616" lon="3.54607">
        <ele>405.4</ele>
        <time>2026-05-10T09:08:41.000Z</time>
      </trkpt>
      <trkpt lat="45.85617" lon="3.54607">
        <ele>405.4</ele>
        <time>2026-05-10T09:08:42.000Z</time>
      </trkpt>
      <trkpt lat="45.85618" lon="3.54606">
        <ele>405.3</ele>
        <time>2026-05-10T09:08:43.000Z</time>
      </trkpt>
      <trkpt lat="45.85619" lon="3.54605">
        <ele>405.2</ele>
        <time>2026-05-10T09:08:44.000Z</time>
      </trkpt>
      <trkpt lat="45.8562" lon="3.54605">
        <ele>405.1</ele>
        <time>2026-05-10T09:08:45.000Z</time>
      </trkpt>
      <trkpt lat="45.85621" lon="3.54603">
        <ele>404.9</ele>
        <time>2026-05-10T09:08:46.000Z</time>
      </trkpt>
      <trkpt lat="45.85622" lon="3.54603">
        <ele>404.8</ele>
        <time>2026-05-10T09:08:47.000Z</time>
      </trkpt>
      <trkpt lat="45.85624" lon="3.54602">
        <ele>404.7</ele>
        <time>2026-05-10T09:08:48.000Z</time>
      </trkpt>
      <trkpt lat="45.85626" lon="3.546">
        <ele>404.5</ele>
        <time>2026-05-10T09:08:49.000Z</time>
      </trkpt>
      <trkpt lat="45.85627" lon="3.54599">
        <ele>404.4</ele>
        <time>2026-05-10T09:08:50.000Z</time>
      </trkpt>
      <trkpt lat="45.85628" lon="3.54599">
        <ele>404.3</ele>
        <time>2026-05-10T09:08:51.000Z</time>
      </trkpt>
      <trkpt lat="45.85629" lon="3.54598">
        <ele>404.2</ele>
        <time>2026-05-10T09:08:52.000Z</time>
      </trkpt>
      <trkpt lat="45.85631" lon="3.54597">
        <ele>404</ele>
        <time>2026-05-10T09:08:53.000Z</time>
      </trkpt>
      <trkpt lat="45.85632" lon="3.54597">
        <ele>404</ele>
        <time>2026-05-10T09:08:54.000Z</time>
      </trkpt>
      <trkpt lat="45.85633" lon="3.54596">
        <ele>403.8</ele>
        <time>2026-05-10T09:08:55.000Z</time>
      </trkpt>
      <trkpt lat="45.85634" lon="3.54595">
        <ele>403.7</ele>
        <time>2026-05-10T09:08:56.000Z</time>
      </trkpt>
      <trkpt lat="45.85635" lon="3.54594">
        <ele>403.6</ele>
        <time>2026-05-10T09:08:57.000Z</time>
      </trkpt>
      <trkpt lat="45.85636" lon="3.54594">
        <ele>403.4</ele>
        <time>2026-05-10T09:08:58.000Z</time>
      </trkpt>
      <trkpt lat="45.85637" lon="3.54592">
        <ele>403.2</ele>
        <time>2026-05-10T09:08:59.000Z</time>
      </trkpt>
      <trkpt lat="45.85638" lon="3.54592">
        <ele>403.1</ele>
        <time>2026-05-10T09:09:00.000Z</time>
      </trkpt>
      <trkpt lat="45.8564" lon="3.54591">
        <ele>403</ele>
        <time>2026-05-10T09:09:01.000Z</time>
      </trkpt>
      <trkpt lat="45.85641" lon="3.54591">
        <ele>402.9</ele>
        <time>2026-05-10T09:09:02.000Z</time>
      </trkpt>
      <trkpt lat="45.85642" lon="3.54589">
        <ele>402.6</ele>
        <time>2026-05-10T09:09:03.000Z</time>
      </trkpt>
      <trkpt lat="45.85644" lon="3.54589">
        <ele>402.5</ele>
        <time>2026-05-10T09:09:04.000Z</time>
      </trkpt>
      <trkpt lat="45.85645" lon="3.54588">
        <ele>402.4</ele>
        <time>2026-05-10T09:09:05.000Z</time>
      </trkpt>
      <trkpt lat="45.85645" lon="3.54588">
        <ele>402.3</ele>
        <time>2026-05-10T09:09:06.000Z</time>
      </trkpt>
      <trkpt lat="45.85646" lon="3.54588">
        <ele>402.3</ele>
        <time>2026-05-10T09:09:07.000Z</time>
      </trkpt>
      <trkpt lat="45.85648" lon="3.54587">
        <ele>402.2</ele>
        <time>2026-05-10T09:09:08.000Z</time>
      </trkpt>
      <trkpt lat="45.85649" lon="3.54587">
        <ele>402.2</ele>
        <time>2026-05-10T09:09:09.000Z</time>
      </trkpt>
      <trkpt lat="45.85651" lon="3.54586">
        <ele>402.2</ele>
        <time>2026-05-10T09:09:10.000Z</time>
      </trkpt>
      <trkpt lat="45.85652" lon="3.54586">
        <ele>402.2</ele>
        <time>2026-05-10T09:09:11.000Z</time>
      </trkpt>
      <trkpt lat="45.85653" lon="3.54586">
        <ele>402.2</ele>
        <time>2026-05-10T09:09:12.000Z</time>
      </trkpt>
      <trkpt lat="45.85655" lon="3.54586">
        <ele>402.1</ele>
        <time>2026-05-10T09:09:13.000Z</time>
      </trkpt>
      <trkpt lat="45.85656" lon="3.54585">
        <ele>402.1</ele>
        <time>2026-05-10T09:09:14.000Z</time>
      </trkpt>
      <trkpt lat="45.85657" lon="3.54585">
        <ele>402</ele>
        <time>2026-05-10T09:09:15.000Z</time>
      </trkpt>
      <trkpt lat="45.85658" lon="3.54584">
        <ele>401.9</ele>
        <time>2026-05-10T09:09:16.000Z</time>
      </trkpt>
      <trkpt lat="45.8566" lon="3.54584">
        <ele>401.9</ele>
        <time>2026-05-10T09:09:17.000Z</time>
      </trkpt>
      <trkpt lat="45.85661" lon="3.54584">
        <ele>401.8</ele>
        <time>2026-05-10T09:09:18.000Z</time>
      </trkpt>
      <trkpt lat="45.85662" lon="3.54583">
        <ele>401.8</ele>
        <time>2026-05-10T09:09:19.000Z</time>
      </trkpt>
      <trkpt lat="45.85663" lon="3.54583">
        <ele>401.8</ele>
        <time>2026-05-10T09:09:20.000Z</time>
      </trkpt>
      <trkpt lat="45.85664" lon="3.54583">
        <ele>401.8</ele>
        <time>2026-05-10T09:09:21.000Z</time>
      </trkpt>
      <trkpt lat="45.85664" lon="3.54583">
        <ele>401.8</ele>
        <time>2026-05-10T09:09:22.000Z</time>
      </trkpt>
      <trkpt lat="45.85665" lon="3.54583">
        <ele>401.8</ele>
        <time>2026-05-10T09:09:23.000Z</time>
      </trkpt>
      <trkpt lat="45.85667" lon="3.54582">
        <ele>401.7</ele>
        <time>2026-05-10T09:09:24.000Z</time>
      </trkpt>
      <trkpt lat="45.85668" lon="3.54582">
        <ele>401.6</ele>
        <time>2026-05-10T09:09:25.000Z</time>
      </trkpt>
      <trkpt lat="45.8567" lon="3.54581">
        <ele>401.6</ele>
        <time>2026-05-10T09:09:26.000Z</time>
      </trkpt>
      <trkpt lat="45.85671" lon="3.54581">
        <ele>401.6</ele>
        <time>2026-05-10T09:09:27.000Z</time>
      </trkpt>
      <trkpt lat="45.85673" lon="3.5458">
        <ele>401.5</ele>
        <time>2026-05-10T09:09:28.000Z</time>
      </trkpt>
      <trkpt lat="45.85675" lon="3.5458">
        <ele>401.5</ele>
        <time>2026-05-10T09:09:29.000Z</time>
      </trkpt>
      <trkpt lat="45.85676" lon="3.54579">
        <ele>401.4</ele>
        <time>2026-05-10T09:09:30.000Z</time>
      </trkpt>
      <trkpt lat="45.85677" lon="3.54578">
        <ele>401.3</ele>
        <time>2026-05-10T09:09:31.000Z</time>
      </trkpt>
      <trkpt lat="45.85678" lon="3.54578">
        <ele>401.3</ele>
        <time>2026-05-10T09:09:32.000Z</time>
      </trkpt>
      <trkpt lat="45.85679" lon="3.54577">
        <ele>401.2</ele>
        <time>2026-05-10T09:09:33.000Z</time>
      </trkpt>
      <trkpt lat="45.85681" lon="3.54577">
        <ele>401.2</ele>
        <time>2026-05-10T09:09:34.000Z</time>
      </trkpt>
      <trkpt lat="45.85682" lon="3.54576">
        <ele>401.1</ele>
        <time>2026-05-10T09:09:35.000Z</time>
      </trkpt>
      <trkpt lat="45.85683" lon="3.54575">
        <ele>401.1</ele>
        <time>2026-05-10T09:09:36.000Z</time>
      </trkpt>
      <trkpt lat="45.85685" lon="3.54574">
        <ele>401</ele>
        <time>2026-05-10T09:09:37.000Z</time>
      </trkpt>
      <trkpt lat="45.85686" lon="3.54574">
        <ele>401</ele>
        <time>2026-05-10T09:09:38.000Z</time>
      </trkpt>
      <trkpt lat="45.85688" lon="3.54573">
        <ele>400.9</ele>
        <time>2026-05-10T09:09:39.000Z</time>
      </trkpt>
      <trkpt lat="45.85689" lon="3.54571">
        <ele>400.8</ele>
        <time>2026-05-10T09:09:40.000Z</time>
      </trkpt>
      <trkpt lat="45.8569" lon="3.54571">
        <ele>400.8</ele>
        <time>2026-05-10T09:09:41.000Z</time>
      </trkpt>
      <trkpt lat="45.85691" lon="3.54569">
        <ele>400.7</ele>
        <time>2026-05-10T09:09:42.000Z</time>
      </trkpt>
      <trkpt lat="45.85692" lon="3.54569">
        <ele>400.7</ele>
        <time>2026-05-10T09:09:43.000Z</time>
      </trkpt>
      <trkpt lat="45.85693" lon="3.54568">
        <ele>400.6</ele>
        <time>2026-05-10T09:09:44.000Z</time>
      </trkpt>
      <trkpt lat="45.85694" lon="3.54567">
        <ele>400.6</ele>
        <time>2026-05-10T09:09:45.000Z</time>
      </trkpt>
      <trkpt lat="45.85695" lon="3.54566">
        <ele>400.5</ele>
        <time>2026-05-10T09:09:46.000Z</time>
      </trkpt>
      <trkpt lat="45.85696" lon="3.54565">
        <ele>400.5</ele>
        <time>2026-05-10T09:09:47.000Z</time>
      </trkpt>
      <trkpt lat="45.85697" lon="3.54564">
        <ele>400.5</ele>
        <time>2026-05-10T09:09:48.000Z</time>
      </trkpt>
      <trkpt lat="45.85698" lon="3.54563">
        <ele>400.4</ele>
        <time>2026-05-10T09:09:49.000Z</time>
      </trkpt>
      <trkpt lat="45.85699" lon="3.54561">
        <ele>400.3</ele>
        <time>2026-05-10T09:09:50.000Z</time>
      </trkpt>
      <trkpt lat="45.857" lon="3.54559">
        <ele>400.1</ele>
        <time>2026-05-10T09:09:51.000Z</time>
      </trkpt>
      <trkpt lat="45.85701" lon="3.54558">
        <ele>400</ele>
        <time>2026-05-10T09:09:52.000Z</time>
      </trkpt>
      <trkpt lat="45.85701" lon="3.54556">
        <ele>399.8</ele>
        <time>2026-05-10T09:09:53.000Z</time>
      </trkpt>
      <trkpt lat="45.85702" lon="3.54554">
        <ele>399.7</ele>
        <time>2026-05-10T09:09:54.000Z</time>
      </trkpt>
      <trkpt lat="45.85702" lon="3.54553">
        <ele>399.7</ele>
        <time>2026-05-10T09:09:55.000Z</time>
      </trkpt>
      <trkpt lat="45.85702" lon="3.54551">
        <ele>399.6</ele>
        <time>2026-05-10T09:09:56.000Z</time>
      </trkpt>
      <trkpt lat="45.85703" lon="3.5455">
        <ele>399.6</ele>
        <time>2026-05-10T09:09:57.000Z</time>
      </trkpt>
      <trkpt lat="45.85703" lon="3.54548">
        <ele>399.5</ele>
        <time>2026-05-10T09:09:58.000Z</time>
      </trkpt>
      <trkpt lat="45.85703" lon="3.54547">
        <ele>399.5</ele>
        <time>2026-05-10T09:09:59.000Z</time>
      </trkpt>
      <trkpt lat="45.85704" lon="3.54546">
        <ele>399.4</ele>
        <time>2026-05-10T09:10:00.000Z</time>
      </trkpt>
      <trkpt lat="45.85704" lon="3.54544">
        <ele>399.4</ele>
        <time>2026-05-10T09:10:01.000Z</time>
      </trkpt>
      <trkpt lat="45.85705" lon="3.54542">
        <ele>399.3</ele>
        <time>2026-05-10T09:10:02.000Z</time>
      </trkpt>
      <trkpt lat="45.85706" lon="3.54541">
        <ele>399.3</ele>
        <time>2026-05-10T09:10:03.000Z</time>
      </trkpt>
      <trkpt lat="45.85707" lon="3.54539">
        <ele>399.3</ele>
        <time>2026-05-10T09:10:04.000Z</time>
      </trkpt>
      <trkpt lat="45.85708" lon="3.54538">
        <ele>399.2</ele>
        <time>2026-05-10T09:10:05.000Z</time>
      </trkpt>
      <trkpt lat="45.85709" lon="3.54536">
        <ele>399.2</ele>
        <time>2026-05-10T09:10:06.000Z</time>
      </trkpt>
      <trkpt lat="45.8571" lon="3.54534">
        <ele>399.1</ele>
        <time>2026-05-10T09:10:07.000Z</time>
      </trkpt>
      <trkpt lat="45.85711" lon="3.54533">
        <ele>399</ele>
        <time>2026-05-10T09:10:08.000Z</time>
      </trkpt>
      <trkpt lat="45.85712" lon="3.54531">
        <ele>398.9</ele>
        <time>2026-05-10T09:10:09.000Z</time>
      </trkpt>
      <trkpt lat="45.85712" lon="3.5453">
        <ele>398.8</ele>
        <time>2026-05-10T09:10:10.000Z</time>
      </trkpt>
      <trkpt lat="45.85713" lon="3.54528">
        <ele>398.7</ele>
        <time>2026-05-10T09:10:11.000Z</time>
      </trkpt>
      <trkpt lat="45.85713" lon="3.54527">
        <ele>398.6</ele>
        <time>2026-05-10T09:10:12.000Z</time>
      </trkpt>
      <trkpt lat="45.85713" lon="3.54525">
        <ele>398.5</ele>
        <time>2026-05-10T09:10:13.000Z</time>
      </trkpt>
      <trkpt lat="45.85714" lon="3.54524">
        <ele>398.4</ele>
        <time>2026-05-10T09:10:14.000Z</time>
      </trkpt>
      <trkpt lat="45.85714" lon="3.54523">
        <ele>398.4</ele>
        <time>2026-05-10T09:10:15.000Z</time>
      </trkpt>
      <trkpt lat="45.85715" lon="3.54521">
        <ele>398.3</ele>
        <time>2026-05-10T09:10:16.000Z</time>
      </trkpt>
      <trkpt lat="45.85716" lon="3.54519">
        <ele>398.2</ele>
        <time>2026-05-10T09:10:17.000Z</time>
      </trkpt>
      <trkpt lat="45.85716" lon="3.54517">
        <ele>398.1</ele>
        <time>2026-05-10T09:10:18.000Z</time>
      </trkpt>
      <trkpt lat="45.85717" lon="3.54515">
        <ele>398.1</ele>
        <time>2026-05-10T09:10:19.000Z</time>
      </trkpt>
      <trkpt lat="45.85718" lon="3.54514">
        <ele>398.1</ele>
        <time>2026-05-10T09:10:20.000Z</time>
      </trkpt>
      <trkpt lat="45.85718" lon="3.54513">
        <ele>398.1</ele>
        <time>2026-05-10T09:10:21.000Z</time>
      </trkpt>
      <trkpt lat="45.85719" lon="3.54511">
        <ele>398.1</ele>
        <time>2026-05-10T09:10:22.000Z</time>
      </trkpt>
      <trkpt lat="45.8572" lon="3.5451">
        <ele>398.1</ele>
        <time>2026-05-10T09:10:23.000Z</time>
      </trkpt>
      <trkpt lat="45.8572" lon="3.54509">
        <ele>398.1</ele>
        <time>2026-05-10T09:10:24.000Z</time>
      </trkpt>
      <trkpt lat="45.85721" lon="3.54508">
        <ele>398.1</ele>
        <time>2026-05-10T09:10:25.000Z</time>
      </trkpt>
      <trkpt lat="45.85722" lon="3.54506">
        <ele>398.1</ele>
        <time>2026-05-10T09:10:26.000Z</time>
      </trkpt>
      <trkpt lat="45.85722" lon="3.54504">
        <ele>398.2</ele>
        <time>2026-05-10T09:10:27.000Z</time>
      </trkpt>
      <trkpt lat="45.85723" lon="3.54503">
        <ele>398.1</ele>
        <time>2026-05-10T09:10:28.000Z</time>
      </trkpt>
      <trkpt lat="45.85723" lon="3.54501">
        <ele>398.1</ele>
        <time>2026-05-10T09:10:29.000Z</time>
      </trkpt>
      <trkpt lat="45.85724" lon="3.54499">
        <ele>398</ele>
        <time>2026-05-10T09:10:30.000Z</time>
      </trkpt>
      <trkpt lat="45.85724" lon="3.54498">
        <ele>397.8</ele>
        <time>2026-05-10T09:10:31.000Z</time>
      </trkpt>
      <trkpt lat="45.85725" lon="3.54497">
        <ele>397.6</ele>
        <time>2026-05-10T09:10:32.000Z</time>
      </trkpt>
      <trkpt lat="45.85725" lon="3.54495">
        <ele>397.5</ele>
        <time>2026-05-10T09:10:33.000Z</time>
      </trkpt>
      <trkpt lat="45.85726" lon="3.54494">
        <ele>397.3</ele>
        <time>2026-05-10T09:10:34.000Z</time>
      </trkpt>
      <trkpt lat="45.85726" lon="3.54493">
        <ele>397.2</ele>
        <time>2026-05-10T09:10:35.000Z</time>
      </trkpt>
      <trkpt lat="45.85727" lon="3.54491">
        <ele>397</ele>
        <time>2026-05-10T09:10:36.000Z</time>
      </trkpt>
      <trkpt lat="45.85728" lon="3.5449">
        <ele>396.9</ele>
        <time>2026-05-10T09:10:37.000Z</time>
      </trkpt>
      <trkpt lat="45.85729" lon="3.54489">
        <ele>396.8</ele>
        <time>2026-05-10T09:10:38.000Z</time>
      </trkpt>
      <trkpt lat="45.8573" lon="3.54487">
        <ele>396.7</ele>
        <time>2026-05-10T09:10:39.000Z</time>
      </trkpt>
      <trkpt lat="45.85731" lon="3.54486">
        <ele>396.6</ele>
        <time>2026-05-10T09:10:40.000Z</time>
      </trkpt>
      <trkpt lat="45.85732" lon="3.54484">
        <ele>396.5</ele>
        <time>2026-05-10T09:10:41.000Z</time>
      </trkpt>
      <trkpt lat="45.85734" lon="3.54483">
        <ele>396.4</ele>
        <time>2026-05-10T09:10:42.000Z</time>
      </trkpt>
      <trkpt lat="45.85735" lon="3.54481">
        <ele>396.4</ele>
        <time>2026-05-10T09:10:43.000Z</time>
      </trkpt>
      <trkpt lat="45.85736" lon="3.54481">
        <ele>396.4</ele>
        <time>2026-05-10T09:10:44.000Z</time>
      </trkpt>
      <trkpt lat="45.85737" lon="3.5448">
        <ele>396.4</ele>
        <time>2026-05-10T09:10:45.000Z</time>
      </trkpt>
      <trkpt lat="45.85739" lon="3.54478">
        <ele>396.4</ele>
        <time>2026-05-10T09:10:46.000Z</time>
      </trkpt>
      <trkpt lat="45.8574" lon="3.54477">
        <ele>396.3</ele>
        <time>2026-05-10T09:10:47.000Z</time>
      </trkpt>
      <trkpt lat="45.85741" lon="3.54476">
        <ele>396.3</ele>
        <time>2026-05-10T09:10:48.000Z</time>
      </trkpt>
      <trkpt lat="45.85742" lon="3.54475">
        <ele>396.3</ele>
        <time>2026-05-10T09:10:49.000Z</time>
      </trkpt>
      <trkpt lat="45.85743" lon="3.54473">
        <ele>396.3</ele>
        <time>2026-05-10T09:10:50.000Z</time>
      </trkpt>
      <trkpt lat="45.85744" lon="3.54472">
        <ele>396.3</ele>
        <time>2026-05-10T09:10:51.000Z</time>
      </trkpt>
      <trkpt lat="45.85745" lon="3.54471">
        <ele>396.3</ele>
        <time>2026-05-10T09:10:52.000Z</time>
      </trkpt>
      <trkpt lat="45.85745" lon="3.54469">
        <ele>396.2</ele>
        <time>2026-05-10T09:10:53.000Z</time>
      </trkpt>
      <trkpt lat="45.85746" lon="3.54468">
        <ele>396.2</ele>
        <time>2026-05-10T09:10:54.000Z</time>
      </trkpt>
      <trkpt lat="45.85746" lon="3.54467">
        <ele>396.1</ele>
        <time>2026-05-10T09:10:55.000Z</time>
      </trkpt>
      <trkpt lat="45.85747" lon="3.54465">
        <ele>396.1</ele>
        <time>2026-05-10T09:10:56.000Z</time>
      </trkpt>
      <trkpt lat="45.85747" lon="3.54464">
        <ele>396.1</ele>
        <time>2026-05-10T09:10:57.000Z</time>
      </trkpt>
      <trkpt lat="45.85748" lon="3.54463">
        <ele>396</ele>
        <time>2026-05-10T09:10:58.000Z</time>
      </trkpt>
      <trkpt lat="45.85749" lon="3.54461">
        <ele>396.1</ele>
        <time>2026-05-10T09:10:59.000Z</time>
      </trkpt>
      <trkpt lat="45.8575" lon="3.5446">
        <ele>396.1</ele>
        <time>2026-05-10T09:11:00.000Z</time>
      </trkpt>
      <trkpt lat="45.8575" lon="3.54458">
        <ele>396</ele>
        <time>2026-05-10T09:11:01.000Z</time>
      </trkpt>
      <trkpt lat="45.85751" lon="3.54457">
        <ele>395.9</ele>
        <time>2026-05-10T09:11:02.000Z</time>
      </trkpt>
      <trkpt lat="45.85752" lon="3.54456">
        <ele>395.9</ele>
        <time>2026-05-10T09:11:03.000Z</time>
      </trkpt>
      <trkpt lat="45.85753" lon="3.54454">
        <ele>395.8</ele>
        <time>2026-05-10T09:11:04.000Z</time>
      </trkpt>
      <trkpt lat="45.85753" lon="3.54454">
        <ele>395.8</ele>
        <time>2026-05-10T09:11:05.000Z</time>
      </trkpt>
      <trkpt lat="45.85754" lon="3.54453">
        <ele>395.7</ele>
        <time>2026-05-10T09:11:06.000Z</time>
      </trkpt>
      <trkpt lat="45.85755" lon="3.54452">
        <ele>395.7</ele>
        <time>2026-05-10T09:11:07.000Z</time>
      </trkpt>
      <trkpt lat="45.85756" lon="3.5445">
        <ele>395.6</ele>
        <time>2026-05-10T09:11:08.000Z</time>
      </trkpt>
      <trkpt lat="45.85756" lon="3.54449">
        <ele>395.5</ele>
        <time>2026-05-10T09:11:09.000Z</time>
      </trkpt>
      <trkpt lat="45.85757" lon="3.54448">
        <ele>395.5</ele>
        <time>2026-05-10T09:11:10.000Z</time>
      </trkpt>
      <trkpt lat="45.85757" lon="3.54446">
        <ele>395.4</ele>
        <time>2026-05-10T09:11:11.000Z</time>
      </trkpt>
      <trkpt lat="45.85758" lon="3.54445">
        <ele>395.3</ele>
        <time>2026-05-10T09:11:12.000Z</time>
      </trkpt>
      <trkpt lat="45.85759" lon="3.54444">
        <ele>395.3</ele>
        <time>2026-05-10T09:11:13.000Z</time>
      </trkpt>
      <trkpt lat="45.8576" lon="3.54443">
        <ele>395.2</ele>
        <time>2026-05-10T09:11:14.000Z</time>
      </trkpt>
      <trkpt lat="45.85762" lon="3.54441">
        <ele>395.1</ele>
        <time>2026-05-10T09:11:15.000Z</time>
      </trkpt>
      <trkpt lat="45.85763" lon="3.5444">
        <ele>395</ele>
        <time>2026-05-10T09:11:16.000Z</time>
      </trkpt>
      <trkpt lat="45.85764" lon="3.54439">
        <ele>395</ele>
        <time>2026-05-10T09:11:17.000Z</time>
      </trkpt>
      <trkpt lat="45.85765" lon="3.54437">
        <ele>394.9</ele>
        <time>2026-05-10T09:11:18.000Z</time>
      </trkpt>
      <trkpt lat="45.85766" lon="3.54437">
        <ele>394.9</ele>
        <time>2026-05-10T09:11:19.000Z</time>
      </trkpt>
      <trkpt lat="45.85768" lon="3.54435">
        <ele>394.9</ele>
        <time>2026-05-10T09:11:20.000Z</time>
      </trkpt>
      <trkpt lat="45.85769" lon="3.54435">
        <ele>394.9</ele>
        <time>2026-05-10T09:11:21.000Z</time>
      </trkpt>
      <trkpt lat="45.8577" lon="3.54434">
        <ele>394.9</ele>
        <time>2026-05-10T09:11:22.000Z</time>
      </trkpt>
      <trkpt lat="45.85771" lon="3.54433">
        <ele>394.9</ele>
        <time>2026-05-10T09:11:23.000Z</time>
      </trkpt>
      <trkpt lat="45.85773" lon="3.54433">
        <ele>394.9</ele>
        <time>2026-05-10T09:11:24.000Z</time>
      </trkpt>
      <trkpt lat="45.85774" lon="3.54432">
        <ele>394.9</ele>
        <time>2026-05-10T09:11:25.000Z</time>
      </trkpt>
      <trkpt lat="45.85776" lon="3.5443">
        <ele>394.9</ele>
        <time>2026-05-10T09:11:26.000Z</time>
      </trkpt>
      <trkpt lat="45.85777" lon="3.5443">
        <ele>394.9</ele>
        <time>2026-05-10T09:11:27.000Z</time>
      </trkpt>
      <trkpt lat="45.85778" lon="3.54429">
        <ele>394.9</ele>
        <time>2026-05-10T09:11:28.000Z</time>
      </trkpt>
      <trkpt lat="45.8578" lon="3.54428">
        <ele>394.8</ele>
        <time>2026-05-10T09:11:29.000Z</time>
      </trkpt>
      <trkpt lat="45.85781" lon="3.54427">
        <ele>394.7</ele>
        <time>2026-05-10T09:11:30.000Z</time>
      </trkpt>
      <trkpt lat="45.85782" lon="3.54427">
        <ele>394.6</ele>
        <time>2026-05-10T09:11:31.000Z</time>
      </trkpt>
      <trkpt lat="45.85783" lon="3.54426">
        <ele>394.6</ele>
        <time>2026-05-10T09:11:32.000Z</time>
      </trkpt>
      <trkpt lat="45.85784" lon="3.54426">
        <ele>394.5</ele>
        <time>2026-05-10T09:11:33.000Z</time>
      </trkpt>
      <trkpt lat="45.85785" lon="3.54425">
        <ele>394.4</ele>
        <time>2026-05-10T09:11:34.000Z</time>
      </trkpt>
      <trkpt lat="45.85786" lon="3.54424">
        <ele>394.3</ele>
        <time>2026-05-10T09:11:35.000Z</time>
      </trkpt>
      <trkpt lat="45.85787" lon="3.54423">
        <ele>394.1</ele>
        <time>2026-05-10T09:11:36.000Z</time>
      </trkpt>
      <trkpt lat="45.85788" lon="3.54423">
        <ele>394</ele>
        <time>2026-05-10T09:11:37.000Z</time>
      </trkpt>
      <trkpt lat="45.8579" lon="3.54422">
        <ele>393.9</ele>
        <time>2026-05-10T09:11:38.000Z</time>
      </trkpt>
      <trkpt lat="45.85792" lon="3.54422">
        <ele>393.8</ele>
        <time>2026-05-10T09:11:39.000Z</time>
      </trkpt>
      <trkpt lat="45.85793" lon="3.54422">
        <ele>393.6</ele>
        <time>2026-05-10T09:11:40.000Z</time>
      </trkpt>
      <trkpt lat="45.85795" lon="3.54421">
        <ele>393.5</ele>
        <time>2026-05-10T09:11:41.000Z</time>
      </trkpt>
      <trkpt lat="45.85796" lon="3.54421">
        <ele>393.4</ele>
        <time>2026-05-10T09:11:42.000Z</time>
      </trkpt>
      <trkpt lat="45.85798" lon="3.54421">
        <ele>393.3</ele>
        <time>2026-05-10T09:11:43.000Z</time>
      </trkpt>
      <trkpt lat="45.85799" lon="3.5442">
        <ele>393.1</ele>
        <time>2026-05-10T09:11:44.000Z</time>
      </trkpt>
      <trkpt lat="45.858" lon="3.5442">
        <ele>393</ele>
        <time>2026-05-10T09:11:45.000Z</time>
      </trkpt>
      <trkpt lat="45.85801" lon="3.5442">
        <ele>392.9</ele>
        <time>2026-05-10T09:11:46.000Z</time>
      </trkpt>
      <trkpt lat="45.85802" lon="3.54419">
        <ele>392.7</ele>
        <time>2026-05-10T09:11:47.000Z</time>
      </trkpt>
      <trkpt lat="45.85804" lon="3.54419">
        <ele>392.6</ele>
        <time>2026-05-10T09:11:48.000Z</time>
      </trkpt>
      <trkpt lat="45.85806" lon="3.54419">
        <ele>392.4</ele>
        <time>2026-05-10T09:11:49.000Z</time>
      </trkpt>
      <trkpt lat="45.85807" lon="3.54419">
        <ele>392.4</ele>
        <time>2026-05-10T09:11:50.000Z</time>
      </trkpt>
      <trkpt lat="45.85808" lon="3.54418">
        <ele>392.3</ele>
        <time>2026-05-10T09:11:51.000Z</time>
      </trkpt>
      <trkpt lat="45.85809" lon="3.54418">
        <ele>392.1</ele>
        <time>2026-05-10T09:11:52.000Z</time>
      </trkpt>
      <trkpt lat="45.85811" lon="3.54418">
        <ele>392</ele>
        <time>2026-05-10T09:11:53.000Z</time>
      </trkpt>
      <trkpt lat="45.85812" lon="3.54417">
        <ele>391.9</ele>
        <time>2026-05-10T09:11:54.000Z</time>
      </trkpt>
      <trkpt lat="45.85813" lon="3.54417">
        <ele>391.7</ele>
        <time>2026-05-10T09:11:55.000Z</time>
      </trkpt>
      <trkpt lat="45.85814" lon="3.54416">
        <ele>391.6</ele>
        <time>2026-05-10T09:11:56.000Z</time>
      </trkpt>
      <trkpt lat="45.85815" lon="3.54416">
        <ele>391.6</ele>
        <time>2026-05-10T09:11:57.000Z</time>
      </trkpt>
      <trkpt lat="45.85816" lon="3.54416">
        <ele>391.5</ele>
        <time>2026-05-10T09:11:58.000Z</time>
      </trkpt>
      <trkpt lat="45.85818" lon="3.54416">
        <ele>391.4</ele>
        <time>2026-05-10T09:11:59.000Z</time>
      </trkpt>
      <trkpt lat="45.85818" lon="3.54415">
        <ele>391.4</ele>
        <time>2026-05-10T09:12:00.000Z</time>
      </trkpt>
      <trkpt lat="45.85819" lon="3.54415">
        <ele>391.3</ele>
        <time>2026-05-10T09:12:01.000Z</time>
      </trkpt>
      <trkpt lat="45.8582" lon="3.54415">
        <ele>391.3</ele>
        <time>2026-05-10T09:12:02.000Z</time>
      </trkpt>
      <trkpt lat="45.85822" lon="3.54415">
        <ele>391.2</ele>
        <time>2026-05-10T09:12:03.000Z</time>
      </trkpt>
      <trkpt lat="45.85823" lon="3.54415">
        <ele>391.2</ele>
        <time>2026-05-10T09:12:04.000Z</time>
      </trkpt>
      <trkpt lat="45.85824" lon="3.54415">
        <ele>391.1</ele>
        <time>2026-05-10T09:12:05.000Z</time>
      </trkpt>
      <trkpt lat="45.85826" lon="3.54415">
        <ele>391.1</ele>
        <time>2026-05-10T09:12:06.000Z</time>
      </trkpt>
      <trkpt lat="45.85827" lon="3.54416">
        <ele>391.1</ele>
        <time>2026-05-10T09:12:07.000Z</time>
      </trkpt>
      <trkpt lat="45.85828" lon="3.54416">
        <ele>391.1</ele>
        <time>2026-05-10T09:12:08.000Z</time>
      </trkpt>
      <trkpt lat="45.85829" lon="3.54416">
        <ele>391.1</ele>
        <time>2026-05-10T09:12:09.000Z</time>
      </trkpt>
      <trkpt lat="45.85831" lon="3.54416">
        <ele>391.1</ele>
        <time>2026-05-10T09:12:10.000Z</time>
      </trkpt>
      <trkpt lat="45.85832" lon="3.54416">
        <ele>391</ele>
        <time>2026-05-10T09:12:11.000Z</time>
      </trkpt>
      <trkpt lat="45.85833" lon="3.54416">
        <ele>391</ele>
        <time>2026-05-10T09:12:12.000Z</time>
      </trkpt>
      <trkpt lat="45.85834" lon="3.54416">
        <ele>391</ele>
        <time>2026-05-10T09:12:13.000Z</time>
      </trkpt>
      <trkpt lat="45.85835" lon="3.54417">
        <ele>391</ele>
        <time>2026-05-10T09:12:14.000Z</time>
      </trkpt>
      <trkpt lat="45.85836" lon="3.54417">
        <ele>391.1</ele>
        <time>2026-05-10T09:12:15.000Z</time>
      </trkpt>
      <trkpt lat="45.85838" lon="3.54418">
        <ele>391.3</ele>
        <time>2026-05-10T09:12:16.000Z</time>
      </trkpt>
      <trkpt lat="45.85839" lon="3.54418">
        <ele>391.4</ele>
        <time>2026-05-10T09:12:17.000Z</time>
      </trkpt>
      <trkpt lat="45.8584" lon="3.54419">
        <ele>391.5</ele>
        <time>2026-05-10T09:12:18.000Z</time>
      </trkpt>
      <trkpt lat="45.85842" lon="3.54419">
        <ele>391.6</ele>
        <time>2026-05-10T09:12:19.000Z</time>
      </trkpt>
      <trkpt lat="45.85843" lon="3.54419">
        <ele>391.6</ele>
        <time>2026-05-10T09:12:20.000Z</time>
      </trkpt>
      <trkpt lat="45.85845" lon="3.54419">
        <ele>391.7</ele>
        <time>2026-05-10T09:12:21.000Z</time>
      </trkpt>
      <trkpt lat="45.85846" lon="3.5442">
        <ele>391.7</ele>
        <time>2026-05-10T09:12:22.000Z</time>
      </trkpt>
      <trkpt lat="45.85847" lon="3.5442">
        <ele>391.7</ele>
        <time>2026-05-10T09:12:23.000Z</time>
      </trkpt>
      <trkpt lat="45.85848" lon="3.5442">
        <ele>391.8</ele>
        <time>2026-05-10T09:12:24.000Z</time>
      </trkpt>
      <trkpt lat="45.85849" lon="3.5442">
        <ele>391.8</ele>
        <time>2026-05-10T09:12:25.000Z</time>
      </trkpt>
      <trkpt lat="45.85851" lon="3.5442">
        <ele>391.9</ele>
        <time>2026-05-10T09:12:26.000Z</time>
      </trkpt>
      <trkpt lat="45.85852" lon="3.5442">
        <ele>391.9</ele>
        <time>2026-05-10T09:12:27.000Z</time>
      </trkpt>
      <trkpt lat="45.85853" lon="3.5442">
        <ele>391.9</ele>
        <time>2026-05-10T09:12:28.000Z</time>
      </trkpt>
      <trkpt lat="45.85854" lon="3.5442">
        <ele>391.8</ele>
        <time>2026-05-10T09:12:29.000Z</time>
      </trkpt>
      <trkpt lat="45.85855" lon="3.54419">
        <ele>391.6</ele>
        <time>2026-05-10T09:12:30.000Z</time>
      </trkpt>
      <trkpt lat="45.85856" lon="3.54418">
        <ele>391.3</ele>
        <time>2026-05-10T09:12:31.000Z</time>
      </trkpt>
      <trkpt lat="45.85857" lon="3.54416">
        <ele>391</ele>
        <time>2026-05-10T09:12:32.000Z</time>
      </trkpt>
      <trkpt lat="45.85858" lon="3.54414">
        <ele>391</ele>
        <time>2026-05-10T09:12:33.000Z</time>
      </trkpt>
      <trkpt lat="45.85859" lon="3.54412">
        <ele>391</ele>
        <time>2026-05-10T09:12:34.000Z</time>
      </trkpt>
      <trkpt lat="45.85859" lon="3.54411">
        <ele>391</ele>
        <time>2026-05-10T09:12:35.000Z</time>
      </trkpt>
      <trkpt lat="45.85859" lon="3.54409">
        <ele>390.9</ele>
        <time>2026-05-10T09:12:36.000Z</time>
      </trkpt>
      <trkpt lat="45.85859" lon="3.54408">
        <ele>390.9</ele>
        <time>2026-05-10T09:12:37.000Z</time>
      </trkpt>
      <trkpt lat="45.85859" lon="3.54406">
        <ele>390.9</ele>
        <time>2026-05-10T09:12:38.000Z</time>
      </trkpt>
      <trkpt lat="45.85859" lon="3.54404">
        <ele>390.9</ele>
        <time>2026-05-10T09:12:39.000Z</time>
      </trkpt>
      <trkpt lat="45.85858" lon="3.54403">
        <ele>390.8</ele>
        <time>2026-05-10T09:12:40.000Z</time>
      </trkpt>
      <trkpt lat="45.85858" lon="3.54401">
        <ele>390.8</ele>
        <time>2026-05-10T09:12:41.000Z</time>
      </trkpt>
      <trkpt lat="45.85857" lon="3.544">
        <ele>390.7</ele>
        <time>2026-05-10T09:12:42.000Z</time>
      </trkpt>
      <trkpt lat="45.85857" lon="3.54399">
        <ele>390.7</ele>
        <time>2026-05-10T09:12:43.000Z</time>
      </trkpt>
      <trkpt lat="45.85856" lon="3.54398">
        <ele>390.6</ele>
        <time>2026-05-10T09:12:44.000Z</time>
      </trkpt>
      <trkpt lat="45.85856" lon="3.54396">
        <ele>390.6</ele>
        <time>2026-05-10T09:12:45.000Z</time>
      </trkpt>
      <trkpt lat="45.85855" lon="3.54395">
        <ele>390.5</ele>
        <time>2026-05-10T09:12:46.000Z</time>
      </trkpt>
      <trkpt lat="45.85855" lon="3.54394">
        <ele>390.4</ele>
        <time>2026-05-10T09:12:47.000Z</time>
      </trkpt>
      <trkpt lat="45.85854" lon="3.54392">
        <ele>390.3</ele>
        <time>2026-05-10T09:12:48.000Z</time>
      </trkpt>
      <trkpt lat="45.85853" lon="3.54391">
        <ele>390.2</ele>
        <time>2026-05-10T09:12:49.000Z</time>
      </trkpt>
      <trkpt lat="45.85853" lon="3.5439">
        <ele>390.1</ele>
        <time>2026-05-10T09:12:50.000Z</time>
      </trkpt>
      <trkpt lat="45.85852" lon="3.54388">
        <ele>390.1</ele>
        <time>2026-05-10T09:12:51.000Z</time>
      </trkpt>
      <trkpt lat="45.85851" lon="3.54387">
        <ele>390.1</ele>
        <time>2026-05-10T09:12:52.000Z</time>
      </trkpt>
      <trkpt lat="45.8585" lon="3.54385">
        <ele>390.1</ele>
        <time>2026-05-10T09:12:53.000Z</time>
      </trkpt>
      <trkpt lat="45.85848" lon="3.54383">
        <ele>390.1</ele>
        <time>2026-05-10T09:12:54.000Z</time>
      </trkpt>
      <trkpt lat="45.85847" lon="3.54382">
        <ele>390</ele>
        <time>2026-05-10T09:12:55.000Z</time>
      </trkpt>
      <trkpt lat="45.85846" lon="3.5438">
        <ele>389.9</ele>
        <time>2026-05-10T09:12:56.000Z</time>
      </trkpt>
      <trkpt lat="45.85845" lon="3.54378">
        <ele>389.9</ele>
        <time>2026-05-10T09:12:57.000Z</time>
      </trkpt>
      <trkpt lat="45.85844" lon="3.54377">
        <ele>389.8</ele>
        <time>2026-05-10T09:12:58.000Z</time>
      </trkpt>
      <trkpt lat="45.85843" lon="3.54375">
        <ele>389.7</ele>
        <time>2026-05-10T09:12:59.000Z</time>
      </trkpt>
      <trkpt lat="45.85842" lon="3.54374">
        <ele>389.6</ele>
        <time>2026-05-10T09:13:00.000Z</time>
      </trkpt>
      <trkpt lat="45.85841" lon="3.54372">
        <ele>389.4</ele>
        <time>2026-05-10T09:13:01.000Z</time>
      </trkpt>
      <trkpt lat="45.8584" lon="3.54371">
        <ele>389.3</ele>
        <time>2026-05-10T09:13:02.000Z</time>
      </trkpt>
      <trkpt lat="45.85839" lon="3.5437">
        <ele>389.2</ele>
        <time>2026-05-10T09:13:03.000Z</time>
      </trkpt>
      <trkpt lat="45.85839" lon="3.54369">
        <ele>389.1</ele>
        <time>2026-05-10T09:13:04.000Z</time>
      </trkpt>
      <trkpt lat="45.85838" lon="3.54369">
        <ele>389</ele>
        <time>2026-05-10T09:13:05.000Z</time>
      </trkpt>
      <trkpt lat="45.85837" lon="3.54368">
        <ele>388.8</ele>
        <time>2026-05-10T09:13:06.000Z</time>
      </trkpt>
      <trkpt lat="45.85836" lon="3.54367">
        <ele>388.6</ele>
        <time>2026-05-10T09:13:07.000Z</time>
      </trkpt>
      <trkpt lat="45.85835" lon="3.54366">
        <ele>388.4</ele>
        <time>2026-05-10T09:13:08.000Z</time>
      </trkpt>
      <trkpt lat="45.85834" lon="3.54365">
        <ele>388.2</ele>
        <time>2026-05-10T09:13:09.000Z</time>
      </trkpt>
      <trkpt lat="45.85833" lon="3.54363">
        <ele>388</ele>
        <time>2026-05-10T09:13:10.000Z</time>
      </trkpt>
      <trkpt lat="45.85832" lon="3.54362">
        <ele>387.8</ele>
        <time>2026-05-10T09:13:11.000Z</time>
      </trkpt>
      <trkpt lat="45.85831" lon="3.5436">
        <ele>387.7</ele>
        <time>2026-05-10T09:13:12.000Z</time>
      </trkpt>
      <trkpt lat="45.85829" lon="3.54358">
        <ele>387.6</ele>
        <time>2026-05-10T09:13:13.000Z</time>
      </trkpt>
      <trkpt lat="45.85828" lon="3.54357">
        <ele>387.4</ele>
        <time>2026-05-10T09:13:14.000Z</time>
      </trkpt>
      <trkpt lat="45.85827" lon="3.54355">
        <ele>387.3</ele>
        <time>2026-05-10T09:13:15.000Z</time>
      </trkpt>
      <trkpt lat="45.85826" lon="3.54354">
        <ele>387.2</ele>
        <time>2026-05-10T09:13:16.000Z</time>
      </trkpt>
      <trkpt lat="45.85825" lon="3.54353">
        <ele>387.1</ele>
        <time>2026-05-10T09:13:17.000Z</time>
      </trkpt>
      <trkpt lat="45.85823" lon="3.54352">
        <ele>386.9</ele>
        <time>2026-05-10T09:13:18.000Z</time>
      </trkpt>
      <trkpt lat="45.85822" lon="3.5435">
        <ele>386.8</ele>
        <time>2026-05-10T09:13:19.000Z</time>
      </trkpt>
      <trkpt lat="45.85821" lon="3.54349">
        <ele>386.7</ele>
        <time>2026-05-10T09:13:20.000Z</time>
      </trkpt>
      <trkpt lat="45.8582" lon="3.54347">
        <ele>386.6</ele>
        <time>2026-05-10T09:13:21.000Z</time>
      </trkpt>
      <trkpt lat="45.85819" lon="3.54346">
        <ele>386.5</ele>
        <time>2026-05-10T09:13:22.000Z</time>
      </trkpt>
      <trkpt lat="45.85819" lon="3.54344">
        <ele>386.4</ele>
        <time>2026-05-10T09:13:23.000Z</time>
      </trkpt>
      <trkpt lat="45.85818" lon="3.54342">
        <ele>386.3</ele>
        <time>2026-05-10T09:13:24.000Z</time>
      </trkpt>
      <trkpt lat="45.85817" lon="3.54341">
        <ele>386.2</ele>
        <time>2026-05-10T09:13:25.000Z</time>
      </trkpt>
      <trkpt lat="45.85816" lon="3.54339">
        <ele>386.1</ele>
        <time>2026-05-10T09:13:26.000Z</time>
      </trkpt>
      <trkpt lat="45.85815" lon="3.54337">
        <ele>386</ele>
        <time>2026-05-10T09:13:27.000Z</time>
      </trkpt>
      <trkpt lat="45.85814" lon="3.54336">
        <ele>385.9</ele>
        <time>2026-05-10T09:13:28.000Z</time>
      </trkpt>
      <trkpt lat="45.85813" lon="3.54334">
        <ele>385.8</ele>
        <time>2026-05-10T09:13:29.000Z</time>
      </trkpt>
      <trkpt lat="45.85812" lon="3.54332">
        <ele>385.7</ele>
        <time>2026-05-10T09:13:30.000Z</time>
      </trkpt>
      <trkpt lat="45.85812" lon="3.54331">
        <ele>385.7</ele>
        <time>2026-05-10T09:13:31.000Z</time>
      </trkpt>
      <trkpt lat="45.85811" lon="3.54329">
        <ele>385.6</ele>
        <time>2026-05-10T09:13:32.000Z</time>
      </trkpt>
      <trkpt lat="45.8581" lon="3.54327">
        <ele>385.5</ele>
        <time>2026-05-10T09:13:33.000Z</time>
      </trkpt>
      <trkpt lat="45.8581" lon="3.54325">
        <ele>385.4</ele>
        <time>2026-05-10T09:13:34.000Z</time>
      </trkpt>
      <trkpt lat="45.85809" lon="3.54324">
        <ele>385.4</ele>
        <time>2026-05-10T09:13:35.000Z</time>
      </trkpt>
      <trkpt lat="45.85808" lon="3.54322">
        <ele>385.3</ele>
        <time>2026-05-10T09:13:36.000Z</time>
      </trkpt>
      <trkpt lat="45.85809" lon="3.5432">
        <ele>385.3</ele>
        <time>2026-05-10T09:13:37.000Z</time>
      </trkpt>
      <trkpt lat="45.85809" lon="3.54318">
        <ele>385.3</ele>
        <time>2026-05-10T09:13:38.000Z</time>
      </trkpt>
      <trkpt lat="45.85808" lon="3.54316">
        <ele>385.3</ele>
        <time>2026-05-10T09:13:39.000Z</time>
      </trkpt>
      <trkpt lat="45.85808" lon="3.54314">
        <ele>385.2</ele>
        <time>2026-05-10T09:13:40.000Z</time>
      </trkpt>
      <trkpt lat="45.85808" lon="3.54313">
        <ele>385.2</ele>
        <time>2026-05-10T09:13:41.000Z</time>
      </trkpt>
      <trkpt lat="45.85808" lon="3.54311">
        <ele>385.2</ele>
        <time>2026-05-10T09:13:42.000Z</time>
      </trkpt>
      <trkpt lat="45.85807" lon="3.54309">
        <ele>385.1</ele>
        <time>2026-05-10T09:13:43.000Z</time>
      </trkpt>
      <trkpt lat="45.85806" lon="3.54307">
        <ele>385.1</ele>
        <time>2026-05-10T09:13:44.000Z</time>
      </trkpt>
      <trkpt lat="45.85806" lon="3.54305">
        <ele>385</ele>
        <time>2026-05-10T09:13:45.000Z</time>
      </trkpt>
      <trkpt lat="45.85805" lon="3.54303">
        <ele>385</ele>
        <time>2026-05-10T09:13:46.000Z</time>
      </trkpt>
      <trkpt lat="45.85805" lon="3.54301">
        <ele>385</ele>
        <time>2026-05-10T09:13:47.000Z</time>
      </trkpt>
      <trkpt lat="45.85804" lon="3.543">
        <ele>384.9</ele>
        <time>2026-05-10T09:13:48.000Z</time>
      </trkpt>
      <trkpt lat="45.85804" lon="3.54298">
        <ele>384.9</ele>
        <time>2026-05-10T09:13:49.000Z</time>
      </trkpt>
      <trkpt lat="45.85804" lon="3.54297">
        <ele>384.8</ele>
        <time>2026-05-10T09:13:50.000Z</time>
      </trkpt>
      <trkpt lat="45.85803" lon="3.54296">
        <ele>384.6</ele>
        <time>2026-05-10T09:13:51.000Z</time>
      </trkpt>
      <trkpt lat="45.85802" lon="3.54294">
        <ele>384.5</ele>
        <time>2026-05-10T09:13:52.000Z</time>
      </trkpt>
      <trkpt lat="45.85802" lon="3.54293">
        <ele>384.4</ele>
        <time>2026-05-10T09:13:53.000Z</time>
      </trkpt>
      <trkpt lat="45.85801" lon="3.54291">
        <ele>384.3</ele>
        <time>2026-05-10T09:13:54.000Z</time>
      </trkpt>
      <trkpt lat="45.85801" lon="3.54289">
        <ele>384.2</ele>
        <time>2026-05-10T09:13:55.000Z</time>
      </trkpt>
      <trkpt lat="45.858" lon="3.54287">
        <ele>384.1</ele>
        <time>2026-05-10T09:13:56.000Z</time>
      </trkpt>
      <trkpt lat="45.85799" lon="3.54285">
        <ele>383.9</ele>
        <time>2026-05-10T09:13:57.000Z</time>
      </trkpt>
      <trkpt lat="45.85798" lon="3.54283">
        <ele>383.8</ele>
        <time>2026-05-10T09:13:58.000Z</time>
      </trkpt>
      <trkpt lat="45.85797" lon="3.54282">
        <ele>383.6</ele>
        <time>2026-05-10T09:13:59.000Z</time>
      </trkpt>
      <trkpt lat="45.85797" lon="3.5428">
        <ele>383.5</ele>
        <time>2026-05-10T09:14:00.000Z</time>
      </trkpt>
      <trkpt lat="45.85796" lon="3.54278">
        <ele>383.3</ele>
        <time>2026-05-10T09:14:01.000Z</time>
      </trkpt>
      <trkpt lat="45.85796" lon="3.54277">
        <ele>383.3</ele>
        <time>2026-05-10T09:14:02.000Z</time>
      </trkpt>
      <trkpt lat="45.85795" lon="3.54275">
        <ele>383.3</ele>
        <time>2026-05-10T09:14:03.000Z</time>
      </trkpt>
      <trkpt lat="45.85794" lon="3.54273">
        <ele>383.2</ele>
        <time>2026-05-10T09:14:04.000Z</time>
      </trkpt>
      <trkpt lat="45.85794" lon="3.54271">
        <ele>383.2</ele>
        <time>2026-05-10T09:14:05.000Z</time>
      </trkpt>
      <trkpt lat="45.85793" lon="3.5427">
        <ele>383.1</ele>
        <time>2026-05-10T09:14:06.000Z</time>
      </trkpt>
      <trkpt lat="45.85792" lon="3.54268">
        <ele>383</ele>
        <time>2026-05-10T09:14:07.000Z</time>
      </trkpt>
      <trkpt lat="45.85792" lon="3.54267">
        <ele>383</ele>
        <time>2026-05-10T09:14:08.000Z</time>
      </trkpt>
      <trkpt lat="45.85791" lon="3.54265">
        <ele>382.9</ele>
        <time>2026-05-10T09:14:09.000Z</time>
      </trkpt>
      <trkpt lat="45.8579" lon="3.54263">
        <ele>383</ele>
        <time>2026-05-10T09:14:10.000Z</time>
      </trkpt>
      <trkpt lat="45.8579" lon="3.54262">
        <ele>382.9</ele>
        <time>2026-05-10T09:14:11.000Z</time>
      </trkpt>
      <trkpt lat="45.85789" lon="3.5426">
        <ele>382.9</ele>
        <time>2026-05-10T09:14:12.000Z</time>
      </trkpt>
      <trkpt lat="45.85788" lon="3.54259">
        <ele>382.9</ele>
        <time>2026-05-10T09:14:13.000Z</time>
      </trkpt>
      <trkpt lat="45.85788" lon="3.54257">
        <ele>382.9</ele>
        <time>2026-05-10T09:14:14.000Z</time>
      </trkpt>
      <trkpt lat="45.85788" lon="3.54256">
        <ele>382.9</ele>
        <time>2026-05-10T09:14:15.000Z</time>
      </trkpt>
      <trkpt lat="45.85787" lon="3.54254">
        <ele>383</ele>
        <time>2026-05-10T09:14:16.000Z</time>
      </trkpt>
      <trkpt lat="45.85787" lon="3.54251">
        <ele>383.1</ele>
        <time>2026-05-10T09:14:17.000Z</time>
      </trkpt>
      <trkpt lat="45.85786" lon="3.54249">
        <ele>383</ele>
        <time>2026-05-10T09:14:18.000Z</time>
      </trkpt>
      <trkpt lat="45.85785" lon="3.54247">
        <ele>382.9</ele>
        <time>2026-05-10T09:14:19.000Z</time>
      </trkpt>
      <trkpt lat="45.85785" lon="3.54246">
        <ele>382.9</ele>
        <time>2026-05-10T09:14:20.000Z</time>
      </trkpt>
      <trkpt lat="45.85784" lon="3.54244">
        <ele>382.8</ele>
        <time>2026-05-10T09:14:21.000Z</time>
      </trkpt>
      <trkpt lat="45.85784" lon="3.54243">
        <ele>382.8</ele>
        <time>2026-05-10T09:14:22.000Z</time>
      </trkpt>
      <trkpt lat="45.85784" lon="3.54241">
        <ele>383</ele>
        <time>2026-05-10T09:14:23.000Z</time>
      </trkpt>
      <trkpt lat="45.85784" lon="3.54239">
        <ele>382.9</ele>
        <time>2026-05-10T09:14:24.000Z</time>
      </trkpt>
      <trkpt lat="45.85783" lon="3.54238">
        <ele>382.9</ele>
        <time>2026-05-10T09:14:25.000Z</time>
      </trkpt>
      <trkpt lat="45.85783" lon="3.54236">
        <ele>382.9</ele>
        <time>2026-05-10T09:14:26.000Z</time>
      </trkpt>
      <trkpt lat="45.85783" lon="3.54235">
        <ele>382.9</ele>
        <time>2026-05-10T09:14:27.000Z</time>
      </trkpt>
      <trkpt lat="45.85782" lon="3.54233">
        <ele>382.8</ele>
        <time>2026-05-10T09:14:28.000Z</time>
      </trkpt>
      <trkpt lat="45.85782" lon="3.54231">
        <ele>382.8</ele>
        <time>2026-05-10T09:14:29.000Z</time>
      </trkpt>
      <trkpt lat="45.85782" lon="3.5423">
        <ele>382.8</ele>
        <time>2026-05-10T09:14:30.000Z</time>
      </trkpt>
      <trkpt lat="45.85781" lon="3.54228">
        <ele>382.8</ele>
        <time>2026-05-10T09:14:31.000Z</time>
      </trkpt>
      <trkpt lat="45.85781" lon="3.54226">
        <ele>382.7</ele>
        <time>2026-05-10T09:14:32.000Z</time>
      </trkpt>
      <trkpt lat="45.8578" lon="3.54223">
        <ele>382.7</ele>
        <time>2026-05-10T09:14:33.000Z</time>
      </trkpt>
      <trkpt lat="45.8578" lon="3.54221">
        <ele>382.6</ele>
        <time>2026-05-10T09:14:34.000Z</time>
      </trkpt>
      <trkpt lat="45.8578" lon="3.5422">
        <ele>382.5</ele>
        <time>2026-05-10T09:14:35.000Z</time>
      </trkpt>
      <trkpt lat="45.8578" lon="3.54219">
        <ele>382.5</ele>
        <time>2026-05-10T09:14:36.000Z</time>
      </trkpt>
      <trkpt lat="45.8578" lon="3.54217">
        <ele>382.5</ele>
        <time>2026-05-10T09:14:37.000Z</time>
      </trkpt>
      <trkpt lat="45.85779" lon="3.54216">
        <ele>382.4</ele>
        <time>2026-05-10T09:14:38.000Z</time>
      </trkpt>
      <trkpt lat="45.85779" lon="3.54214">
        <ele>382.3</ele>
        <time>2026-05-10T09:14:39.000Z</time>
      </trkpt>
      <trkpt lat="45.85779" lon="3.54213">
        <ele>382.2</ele>
        <time>2026-05-10T09:14:40.000Z</time>
      </trkpt>
      <trkpt lat="45.85778" lon="3.54211">
        <ele>382.1</ele>
        <time>2026-05-10T09:14:41.000Z</time>
      </trkpt>
      <trkpt lat="45.85778" lon="3.54209">
        <ele>382</ele>
        <time>2026-05-10T09:14:42.000Z</time>
      </trkpt>
      <trkpt lat="45.85778" lon="3.54207">
        <ele>381.9</ele>
        <time>2026-05-10T09:14:43.000Z</time>
      </trkpt>
      <trkpt lat="45.85777" lon="3.54205">
        <ele>381.8</ele>
        <time>2026-05-10T09:14:44.000Z</time>
      </trkpt>
      <trkpt lat="45.85777" lon="3.54203">
        <ele>381.7</ele>
        <time>2026-05-10T09:14:45.000Z</time>
      </trkpt>
      <trkpt lat="45.85777" lon="3.54201">
        <ele>381.6</ele>
        <time>2026-05-10T09:14:46.000Z</time>
      </trkpt>
      <trkpt lat="45.85776" lon="3.54198">
        <ele>381.6</ele>
        <time>2026-05-10T09:14:47.000Z</time>
      </trkpt>
      <trkpt lat="45.85776" lon="3.54196">
        <ele>381.5</ele>
        <time>2026-05-10T09:14:48.000Z</time>
      </trkpt>
      <trkpt lat="45.85776" lon="3.54195">
        <ele>381.5</ele>
        <time>2026-05-10T09:14:49.000Z</time>
      </trkpt>
      <trkpt lat="45.85776" lon="3.54193">
        <ele>381.5</ele>
        <time>2026-05-10T09:14:50.000Z</time>
      </trkpt>
      <trkpt lat="45.85776" lon="3.54191">
        <ele>381.5</ele>
        <time>2026-05-10T09:14:51.000Z</time>
      </trkpt>
      <trkpt lat="45.85777" lon="3.54189">
        <ele>381.5</ele>
        <time>2026-05-10T09:14:52.000Z</time>
      </trkpt>
      <trkpt lat="45.85777" lon="3.54187">
        <ele>381.4</ele>
        <time>2026-05-10T09:14:53.000Z</time>
      </trkpt>
      <trkpt lat="45.85777" lon="3.54185">
        <ele>381.4</ele>
        <time>2026-05-10T09:14:54.000Z</time>
      </trkpt>
      <trkpt lat="45.85777" lon="3.54183">
        <ele>381.3</ele>
        <time>2026-05-10T09:14:55.000Z</time>
      </trkpt>
      <trkpt lat="45.85777" lon="3.54181">
        <ele>381.3</ele>
        <time>2026-05-10T09:14:56.000Z</time>
      </trkpt>
      <trkpt lat="45.85777" lon="3.5418">
        <ele>381.3</ele>
        <time>2026-05-10T09:14:57.000Z</time>
      </trkpt>
      <trkpt lat="45.85777" lon="3.54177">
        <ele>381.2</ele>
        <time>2026-05-10T09:14:58.000Z</time>
      </trkpt>
      <trkpt lat="45.85777" lon="3.54175">
        <ele>381.2</ele>
        <time>2026-05-10T09:14:59.000Z</time>
      </trkpt>
      <trkpt lat="45.85778" lon="3.54173">
        <ele>381.3</ele>
        <time>2026-05-10T09:15:00.000Z</time>
      </trkpt>
      <trkpt lat="45.85779" lon="3.54171">
        <ele>381.3</ele>
        <time>2026-05-10T09:15:01.000Z</time>
      </trkpt>
      <trkpt lat="45.85779" lon="3.54169">
        <ele>381.2</ele>
        <time>2026-05-10T09:15:02.000Z</time>
      </trkpt>
      <trkpt lat="45.85779" lon="3.54167">
        <ele>381.2</ele>
        <time>2026-05-10T09:15:03.000Z</time>
      </trkpt>
      <trkpt lat="45.8578" lon="3.54165">
        <ele>381</ele>
        <time>2026-05-10T09:15:04.000Z</time>
      </trkpt>
      <trkpt lat="45.85781" lon="3.54163">
        <ele>380.9</ele>
        <time>2026-05-10T09:15:05.000Z</time>
      </trkpt>
      <trkpt lat="45.85782" lon="3.54162">
        <ele>380.8</ele>
        <time>2026-05-10T09:15:06.000Z</time>
      </trkpt>
      <trkpt lat="45.85783" lon="3.5416">
        <ele>380.6</ele>
        <time>2026-05-10T09:15:07.000Z</time>
      </trkpt>
      <trkpt lat="45.85783" lon="3.54159">
        <ele>380.5</ele>
        <time>2026-05-10T09:15:08.000Z</time>
      </trkpt>
      <trkpt lat="45.85783" lon="3.54157">
        <ele>380.3</ele>
        <time>2026-05-10T09:15:09.000Z</time>
      </trkpt>
      <trkpt lat="45.85784" lon="3.54156">
        <ele>380.2</ele>
        <time>2026-05-10T09:15:10.000Z</time>
      </trkpt>
      <trkpt lat="45.85785" lon="3.54154">
        <ele>380.1</ele>
        <time>2026-05-10T09:15:11.000Z</time>
      </trkpt>
      <trkpt lat="45.85785" lon="3.54153">
        <ele>379.9</ele>
        <time>2026-05-10T09:15:12.000Z</time>
      </trkpt>
      <trkpt lat="45.85786" lon="3.5415">
        <ele>379.7</ele>
        <time>2026-05-10T09:15:13.000Z</time>
      </trkpt>
      <trkpt lat="45.85786" lon="3.54149">
        <ele>379.5</ele>
        <time>2026-05-10T09:15:14.000Z</time>
      </trkpt>
      <trkpt lat="45.85786" lon="3.54149">
        <ele>379.4</ele>
        <time>2026-05-10T09:15:15.000Z</time>
      </trkpt>
      <trkpt lat="45.85786" lon="3.54148">
        <ele>379.3</ele>
        <time>2026-05-10T09:15:16.000Z</time>
      </trkpt>
      <trkpt lat="45.85786" lon="3.54147">
        <ele>379.2</ele>
        <time>2026-05-10T09:15:17.000Z</time>
      </trkpt>
      <trkpt lat="45.85786" lon="3.54146">
        <ele>379.1</ele>
        <time>2026-05-10T09:15:18.000Z</time>
      </trkpt>
      <trkpt lat="45.85786" lon="3.54145">
        <ele>379</ele>
        <time>2026-05-10T09:15:19.000Z</time>
      </trkpt>
      <trkpt lat="45.85787" lon="3.54143">
        <ele>378.8</ele>
        <time>2026-05-10T09:15:20.000Z</time>
      </trkpt>
      <trkpt lat="45.85787" lon="3.54142">
        <ele>378.7</ele>
        <time>2026-05-10T09:15:21.000Z</time>
      </trkpt>
      <trkpt lat="45.85788" lon="3.5414">
        <ele>378.6</ele>
        <time>2026-05-10T09:15:22.000Z</time>
      </trkpt>
      <trkpt lat="45.85788" lon="3.54138">
        <ele>378.5</ele>
        <time>2026-05-10T09:15:23.000Z</time>
      </trkpt>
      <trkpt lat="45.85789" lon="3.54136">
        <ele>378.5</ele>
        <time>2026-05-10T09:15:24.000Z</time>
      </trkpt>
      <trkpt lat="45.85791" lon="3.54136">
        <ele>378.7</ele>
        <time>2026-05-10T09:15:25.000Z</time>
      </trkpt>
      <trkpt lat="45.85792" lon="3.54135">
        <ele>378.7</ele>
        <time>2026-05-10T09:15:26.000Z</time>
      </trkpt>
      <trkpt lat="45.85793" lon="3.54134">
        <ele>378.8</ele>
        <time>2026-05-10T09:15:27.000Z</time>
      </trkpt>
      <trkpt lat="45.85794" lon="3.54132">
        <ele>378.8</ele>
        <time>2026-05-10T09:15:28.000Z</time>
      </trkpt>
      <trkpt lat="45.85794" lon="3.54131">
        <ele>378.8</ele>
        <time>2026-05-10T09:15:29.000Z</time>
      </trkpt>
      <trkpt lat="45.85795" lon="3.5413">
        <ele>378.9</ele>
        <time>2026-05-10T09:15:30.000Z</time>
      </trkpt>
      <trkpt lat="45.85796" lon="3.54129">
        <ele>378.9</ele>
        <time>2026-05-10T09:15:31.000Z</time>
      </trkpt>
      <trkpt lat="45.85796" lon="3.54128">
        <ele>378.9</ele>
        <time>2026-05-10T09:15:32.000Z</time>
      </trkpt>
      <trkpt lat="45.85797" lon="3.54127">
        <ele>378.9</ele>
        <time>2026-05-10T09:15:33.000Z</time>
      </trkpt>
      <trkpt lat="45.85798" lon="3.54126">
        <ele>378.9</ele>
        <time>2026-05-10T09:15:34.000Z</time>
      </trkpt>
      <trkpt lat="45.85799" lon="3.54124">
        <ele>378.9</ele>
        <time>2026-05-10T09:15:35.000Z</time>
      </trkpt>
      <trkpt lat="45.858" lon="3.54123">
        <ele>379</ele>
        <time>2026-05-10T09:15:36.000Z</time>
      </trkpt>
      <trkpt lat="45.85801" lon="3.54121">
        <ele>379</ele>
        <time>2026-05-10T09:15:37.000Z</time>
      </trkpt>
      <trkpt lat="45.85802" lon="3.54119">
        <ele>379.1</ele>
        <time>2026-05-10T09:15:38.000Z</time>
      </trkpt>
      <trkpt lat="45.85803" lon="3.54118">
        <ele>379.1</ele>
        <time>2026-05-10T09:15:39.000Z</time>
      </trkpt>
      <trkpt lat="45.85805" lon="3.54116">
        <ele>379.2</ele>
        <time>2026-05-10T09:15:40.000Z</time>
      </trkpt>
      <trkpt lat="45.85806" lon="3.54115">
        <ele>379.3</ele>
        <time>2026-05-10T09:15:41.000Z</time>
      </trkpt>
      <trkpt lat="45.85807" lon="3.54113">
        <ele>379.3</ele>
        <time>2026-05-10T09:15:42.000Z</time>
      </trkpt>
      <trkpt lat="45.85808" lon="3.54112">
        <ele>379.2</ele>
        <time>2026-05-10T09:15:43.000Z</time>
      </trkpt>
      <trkpt lat="45.85808" lon="3.54112">
        <ele>379.3</ele>
        <time>2026-05-10T09:15:44.000Z</time>
      </trkpt>
      <trkpt lat="45.85809" lon="3.54112">
        <ele>379.3</ele>
        <time>2026-05-10T09:15:45.000Z</time>
      </trkpt>
      <trkpt lat="45.8581" lon="3.54111">
        <ele>379.3</ele>
        <time>2026-05-10T09:15:46.000Z</time>
      </trkpt>
      <trkpt lat="45.85811" lon="3.5411">
        <ele>379.3</ele>
        <time>2026-05-10T09:15:47.000Z</time>
      </trkpt>
      <trkpt lat="45.85812" lon="3.5411">
        <ele>379.2</ele>
        <time>2026-05-10T09:15:48.000Z</time>
      </trkpt>
      <trkpt lat="45.85813" lon="3.54109">
        <ele>379.1</ele>
        <time>2026-05-10T09:15:49.000Z</time>
      </trkpt>
      <trkpt lat="45.85814" lon="3.54108">
        <ele>379.1</ele>
        <time>2026-05-10T09:15:50.000Z</time>
      </trkpt>
      <trkpt lat="45.85815" lon="3.54107">
        <ele>379</ele>
        <time>2026-05-10T09:15:51.000Z</time>
      </trkpt>
      <trkpt lat="45.85816" lon="3.54106">
        <ele>379</ele>
        <time>2026-05-10T09:15:52.000Z</time>
      </trkpt>
      <trkpt lat="45.85817" lon="3.54105">
        <ele>378.9</ele>
        <time>2026-05-10T09:15:53.000Z</time>
      </trkpt>
      <trkpt lat="45.85819" lon="3.54104">
        <ele>378.9</ele>
        <time>2026-05-10T09:15:54.000Z</time>
      </trkpt>
      <trkpt lat="45.8582" lon="3.54103">
        <ele>378.8</ele>
        <time>2026-05-10T09:15:55.000Z</time>
      </trkpt>
      <trkpt lat="45.85821" lon="3.54102">
        <ele>378.7</ele>
        <time>2026-05-10T09:15:56.000Z</time>
      </trkpt>
      <trkpt lat="45.85822" lon="3.54101">
        <ele>378.7</ele>
        <time>2026-05-10T09:15:57.000Z</time>
      </trkpt>
      <trkpt lat="45.85823" lon="3.541">
        <ele>378.6</ele>
        <time>2026-05-10T09:15:58.000Z</time>
      </trkpt>
      <trkpt lat="45.85824" lon="3.54099">
        <ele>378.6</ele>
        <time>2026-05-10T09:15:59.000Z</time>
      </trkpt>
      <trkpt lat="45.85825" lon="3.54098">
        <ele>378.5</ele>
        <time>2026-05-10T09:16:00.000Z</time>
      </trkpt>
      <trkpt lat="45.85827" lon="3.54096">
        <ele>378.3</ele>
        <time>2026-05-10T09:16:01.000Z</time>
      </trkpt>
      <trkpt lat="45.85827" lon="3.54095">
        <ele>378.2</ele>
        <time>2026-05-10T09:16:02.000Z</time>
      </trkpt>
      <trkpt lat="45.85828" lon="3.54094">
        <ele>378.1</ele>
        <time>2026-05-10T09:16:03.000Z</time>
      </trkpt>
      <trkpt lat="45.85829" lon="3.54093">
        <ele>378.1</ele>
        <time>2026-05-10T09:16:04.000Z</time>
      </trkpt>
      <trkpt lat="45.8583" lon="3.54091">
        <ele>378</ele>
        <time>2026-05-10T09:16:05.000Z</time>
      </trkpt>
      <trkpt lat="45.85832" lon="3.5409">
        <ele>377.9</ele>
        <time>2026-05-10T09:16:06.000Z</time>
      </trkpt>
      <trkpt lat="45.85833" lon="3.54089">
        <ele>377.8</ele>
        <time>2026-05-10T09:16:07.000Z</time>
      </trkpt>
      <trkpt lat="45.85834" lon="3.54087">
        <ele>377.6</ele>
        <time>2026-05-10T09:16:08.000Z</time>
      </trkpt>
      <trkpt lat="45.85835" lon="3.54086">
        <ele>377.4</ele>
        <time>2026-05-10T09:16:09.000Z</time>
      </trkpt>
      <trkpt lat="45.85837" lon="3.54084">
        <ele>377.2</ele>
        <time>2026-05-10T09:16:10.000Z</time>
      </trkpt>
      <trkpt lat="45.85838" lon="3.54083">
        <ele>377.1</ele>
        <time>2026-05-10T09:16:11.000Z</time>
      </trkpt>
      <trkpt lat="45.85838" lon="3.54081">
        <ele>377</ele>
        <time>2026-05-10T09:16:12.000Z</time>
      </trkpt>
      <trkpt lat="45.8584" lon="3.5408">
        <ele>376.9</ele>
        <time>2026-05-10T09:16:13.000Z</time>
      </trkpt>
      <trkpt lat="45.8584" lon="3.54078">
        <ele>376.7</ele>
        <time>2026-05-10T09:16:14.000Z</time>
      </trkpt>
      <trkpt lat="45.85841" lon="3.54077">
        <ele>376.6</ele>
        <time>2026-05-10T09:16:15.000Z</time>
      </trkpt>
      <trkpt lat="45.85842" lon="3.54076">
        <ele>376.6</ele>
        <time>2026-05-10T09:16:16.000Z</time>
      </trkpt>
      <trkpt lat="45.85843" lon="3.54075">
        <ele>376.5</ele>
        <time>2026-05-10T09:16:17.000Z</time>
      </trkpt>
      <trkpt lat="45.85844" lon="3.54074">
        <ele>376.5</ele>
        <time>2026-05-10T09:16:18.000Z</time>
      </trkpt>
      <trkpt lat="45.85845" lon="3.54073">
        <ele>376.4</ele>
        <time>2026-05-10T09:16:19.000Z</time>
      </trkpt>
      <trkpt lat="45.85846" lon="3.54072">
        <ele>376.4</ele>
        <time>2026-05-10T09:16:20.000Z</time>
      </trkpt>
      <trkpt lat="45.85847" lon="3.54071">
        <ele>376.4</ele>
        <time>2026-05-10T09:16:21.000Z</time>
      </trkpt>
      <trkpt lat="45.85848" lon="3.5407">
        <ele>376.3</ele>
        <time>2026-05-10T09:16:22.000Z</time>
      </trkpt>
      <trkpt lat="45.8585" lon="3.54068">
        <ele>376.3</ele>
        <time>2026-05-10T09:16:23.000Z</time>
      </trkpt>
      <trkpt lat="45.85851" lon="3.54067">
        <ele>376.2</ele>
        <time>2026-05-10T09:16:24.000Z</time>
      </trkpt>
      <trkpt lat="45.85852" lon="3.54066">
        <ele>376.2</ele>
        <time>2026-05-10T09:16:25.000Z</time>
      </trkpt>
      <trkpt lat="45.85853" lon="3.54065">
        <ele>376.2</ele>
        <time>2026-05-10T09:16:26.000Z</time>
      </trkpt>
      <trkpt lat="45.85854" lon="3.54064">
        <ele>376.2</ele>
        <time>2026-05-10T09:16:27.000Z</time>
      </trkpt>
      <trkpt lat="45.85854" lon="3.54063">
        <ele>376.1</ele>
        <time>2026-05-10T09:16:28.000Z</time>
      </trkpt>
      <trkpt lat="45.85855" lon="3.54063">
        <ele>376.1</ele>
        <time>2026-05-10T09:16:29.000Z</time>
      </trkpt>
      <trkpt lat="45.85856" lon="3.54062">
        <ele>376.1</ele>
        <time>2026-05-10T09:16:30.000Z</time>
      </trkpt>
      <trkpt lat="45.85857" lon="3.54061">
        <ele>376.1</ele>
        <time>2026-05-10T09:16:31.000Z</time>
      </trkpt>
      <trkpt lat="45.85858" lon="3.5406">
        <ele>376.1</ele>
        <time>2026-05-10T09:16:32.000Z</time>
      </trkpt>
      <trkpt lat="45.85859" lon="3.54059">
        <ele>376.1</ele>
        <time>2026-05-10T09:16:33.000Z</time>
      </trkpt>
      <trkpt lat="45.8586" lon="3.54058">
        <ele>376.1</ele>
        <time>2026-05-10T09:16:34.000Z</time>
      </trkpt>
      <trkpt lat="45.85861" lon="3.54057">
        <ele>376.1</ele>
        <time>2026-05-10T09:16:35.000Z</time>
      </trkpt>
      <trkpt lat="45.85862" lon="3.54057">
        <ele>376.2</ele>
        <time>2026-05-10T09:16:36.000Z</time>
      </trkpt>
      <trkpt lat="45.85863" lon="3.54056">
        <ele>376.3</ele>
        <time>2026-05-10T09:16:37.000Z</time>
      </trkpt>
      <trkpt lat="45.85865" lon="3.54055">
        <ele>376.3</ele>
        <time>2026-05-10T09:16:38.000Z</time>
      </trkpt>
      <trkpt lat="45.85866" lon="3.54054">
        <ele>376.4</ele>
        <time>2026-05-10T09:16:39.000Z</time>
      </trkpt>
      <trkpt lat="45.85867" lon="3.54053">
        <ele>376.4</ele>
        <time>2026-05-10T09:16:40.000Z</time>
      </trkpt>
      <trkpt lat="45.85868" lon="3.54051">
        <ele>376.5</ele>
        <time>2026-05-10T09:16:41.000Z</time>
      </trkpt>
      <trkpt lat="45.85869" lon="3.5405">
        <ele>376.5</ele>
        <time>2026-05-10T09:16:42.000Z</time>
      </trkpt>
      <trkpt lat="45.8587" lon="3.54048">
        <ele>376.4</ele>
        <time>2026-05-10T09:16:43.000Z</time>
      </trkpt>
      <trkpt lat="45.85871" lon="3.54047">
        <ele>376.4</ele>
        <time>2026-05-10T09:16:44.000Z</time>
      </trkpt>
      <trkpt lat="45.85872" lon="3.54046">
        <ele>376.4</ele>
        <time>2026-05-10T09:16:45.000Z</time>
      </trkpt>
      <trkpt lat="45.85873" lon="3.54045">
        <ele>376.4</ele>
        <time>2026-05-10T09:16:46.000Z</time>
      </trkpt>
      <trkpt lat="45.85874" lon="3.54044">
        <ele>376.4</ele>
        <time>2026-05-10T09:16:47.000Z</time>
      </trkpt>
      <trkpt lat="45.85875" lon="3.54043">
        <ele>376.3</ele>
        <time>2026-05-10T09:16:48.000Z</time>
      </trkpt>
      <trkpt lat="45.85876" lon="3.54042">
        <ele>376.3</ele>
        <time>2026-05-10T09:16:49.000Z</time>
      </trkpt>
      <trkpt lat="45.85877" lon="3.5404">
        <ele>376.2</ele>
        <time>2026-05-10T09:16:50.000Z</time>
      </trkpt>
      <trkpt lat="45.85878" lon="3.54039">
        <ele>376.1</ele>
        <time>2026-05-10T09:16:51.000Z</time>
      </trkpt>
      <trkpt lat="45.85878" lon="3.54038">
        <ele>376</ele>
        <time>2026-05-10T09:16:52.000Z</time>
      </trkpt>
      <trkpt lat="45.85879" lon="3.54036">
        <ele>375.9</ele>
        <time>2026-05-10T09:16:53.000Z</time>
      </trkpt>
      <trkpt lat="45.8588" lon="3.54035">
        <ele>375.8</ele>
        <time>2026-05-10T09:16:54.000Z</time>
      </trkpt>
      <trkpt lat="45.85881" lon="3.54034">
        <ele>375.7</ele>
        <time>2026-05-10T09:16:55.000Z</time>
      </trkpt>
      <trkpt lat="45.85882" lon="3.54032">
        <ele>375.5</ele>
        <time>2026-05-10T09:16:56.000Z</time>
      </trkpt>
      <trkpt lat="45.85883" lon="3.54031">
        <ele>375.4</ele>
        <time>2026-05-10T09:16:57.000Z</time>
      </trkpt>
      <trkpt lat="45.85884" lon="3.5403">
        <ele>375.2</ele>
        <time>2026-05-10T09:16:58.000Z</time>
      </trkpt>
      <trkpt lat="45.85885" lon="3.54028">
        <ele>375.1</ele>
        <time>2026-05-10T09:16:59.000Z</time>
      </trkpt>
      <trkpt lat="45.85886" lon="3.54027">
        <ele>374.9</ele>
        <time>2026-05-10T09:17:00.000Z</time>
      </trkpt>
      <trkpt lat="45.85887" lon="3.54025">
        <ele>374.9</ele>
        <time>2026-05-10T09:17:01.000Z</time>
      </trkpt>
      <trkpt lat="45.85888" lon="3.54024">
        <ele>374.8</ele>
        <time>2026-05-10T09:17:02.000Z</time>
      </trkpt>
      <trkpt lat="45.85889" lon="3.54022">
        <ele>374.8</ele>
        <time>2026-05-10T09:17:03.000Z</time>
      </trkpt>
      <trkpt lat="45.85889" lon="3.54021">
        <ele>374.8</ele>
        <time>2026-05-10T09:17:04.000Z</time>
      </trkpt>
      <trkpt lat="45.8589" lon="3.5402">
        <ele>374.8</ele>
        <time>2026-05-10T09:17:05.000Z</time>
      </trkpt>
      <trkpt lat="45.8589" lon="3.54019">
        <ele>374.8</ele>
        <time>2026-05-10T09:17:06.000Z</time>
      </trkpt>
      <trkpt lat="45.85891" lon="3.54018">
        <ele>374.8</ele>
        <time>2026-05-10T09:17:07.000Z</time>
      </trkpt>
      <trkpt lat="45.85892" lon="3.54017">
        <ele>374.8</ele>
        <time>2026-05-10T09:17:08.000Z</time>
      </trkpt>
      <trkpt lat="45.85892" lon="3.54015">
        <ele>374.8</ele>
        <time>2026-05-10T09:17:09.000Z</time>
      </trkpt>
      <trkpt lat="45.85894" lon="3.54014">
        <ele>374.9</ele>
        <time>2026-05-10T09:17:10.000Z</time>
      </trkpt>
      <trkpt lat="45.85895" lon="3.54013">
        <ele>374.9</ele>
        <time>2026-05-10T09:17:11.000Z</time>
      </trkpt>
      <trkpt lat="45.85896" lon="3.54012">
        <ele>374.9</ele>
        <time>2026-05-10T09:17:12.000Z</time>
      </trkpt>
      <trkpt lat="45.85897" lon="3.5401">
        <ele>374.8</ele>
        <time>2026-05-10T09:17:13.000Z</time>
      </trkpt>
      <trkpt lat="45.85898" lon="3.54009">
        <ele>374.8</ele>
        <time>2026-05-10T09:17:14.000Z</time>
      </trkpt>
      <trkpt lat="45.85899" lon="3.54008">
        <ele>374.7</ele>
        <time>2026-05-10T09:17:15.000Z</time>
      </trkpt>
      <trkpt lat="45.859" lon="3.54006">
        <ele>374.6</ele>
        <time>2026-05-10T09:17:16.000Z</time>
      </trkpt>
      <trkpt lat="45.85901" lon="3.54005">
        <ele>374.5</ele>
        <time>2026-05-10T09:17:17.000Z</time>
      </trkpt>
      <trkpt lat="45.85902" lon="3.54003">
        <ele>374.3</ele>
        <time>2026-05-10T09:17:18.000Z</time>
      </trkpt>
      <trkpt lat="45.85903" lon="3.54002">
        <ele>374.2</ele>
        <time>2026-05-10T09:17:19.000Z</time>
      </trkpt>
      <trkpt lat="45.85904" lon="3.54">
        <ele>374</ele>
        <time>2026-05-10T09:17:20.000Z</time>
      </trkpt>
      <trkpt lat="45.85905" lon="3.53998">
        <ele>373.9</ele>
        <time>2026-05-10T09:17:21.000Z</time>
      </trkpt>
      <trkpt lat="45.85905" lon="3.53996">
        <ele>373.8</ele>
        <time>2026-05-10T09:17:22.000Z</time>
      </trkpt>
      <trkpt lat="45.85906" lon="3.53994">
        <ele>373.7</ele>
        <time>2026-05-10T09:17:23.000Z</time>
      </trkpt>
      <trkpt lat="45.85907" lon="3.53993">
        <ele>373.7</ele>
        <time>2026-05-10T09:17:24.000Z</time>
      </trkpt>
      <trkpt lat="45.85908" lon="3.53992">
        <ele>373.6</ele>
        <time>2026-05-10T09:17:25.000Z</time>
      </trkpt>
      <trkpt lat="45.85909" lon="3.53991">
        <ele>373.6</ele>
        <time>2026-05-10T09:17:26.000Z</time>
      </trkpt>
      <trkpt lat="45.8591" lon="3.53989">
        <ele>373.5</ele>
        <time>2026-05-10T09:17:27.000Z</time>
      </trkpt>
      <trkpt lat="45.85911" lon="3.53988">
        <ele>373.5</ele>
        <time>2026-05-10T09:17:28.000Z</time>
      </trkpt>
      <trkpt lat="45.85912" lon="3.53986">
        <ele>373.4</ele>
        <time>2026-05-10T09:17:29.000Z</time>
      </trkpt>
      <trkpt lat="45.85912" lon="3.53984">
        <ele>373.4</ele>
        <time>2026-05-10T09:17:30.000Z</time>
      </trkpt>
      <trkpt lat="45.85913" lon="3.53983">
        <ele>373.3</ele>
        <time>2026-05-10T09:17:31.000Z</time>
      </trkpt>
      <trkpt lat="45.85913" lon="3.53981">
        <ele>373.2</ele>
        <time>2026-05-10T09:17:32.000Z</time>
      </trkpt>
      <trkpt lat="45.85913" lon="3.5398">
        <ele>373.2</ele>
        <time>2026-05-10T09:17:33.000Z</time>
      </trkpt>
      <trkpt lat="45.85914" lon="3.53978">
        <ele>373.1</ele>
        <time>2026-05-10T09:17:34.000Z</time>
      </trkpt>
      <trkpt lat="45.85914" lon="3.53976">
        <ele>373.1</ele>
        <time>2026-05-10T09:17:35.000Z</time>
      </trkpt>
      <trkpt lat="45.85915" lon="3.53975">
        <ele>373</ele>
        <time>2026-05-10T09:17:36.000Z</time>
      </trkpt>
      <trkpt lat="45.85915" lon="3.53973">
        <ele>373</ele>
        <time>2026-05-10T09:17:37.000Z</time>
      </trkpt>
      <trkpt lat="45.85916" lon="3.53972">
        <ele>373</ele>
        <time>2026-05-10T09:17:38.000Z</time>
      </trkpt>
      <trkpt lat="45.85916" lon="3.5397">
        <ele>372.9</ele>
        <time>2026-05-10T09:17:39.000Z</time>
      </trkpt>
      <trkpt lat="45.85917" lon="3.53968">
        <ele>372.9</ele>
        <time>2026-05-10T09:17:40.000Z</time>
      </trkpt>
      <trkpt lat="45.85917" lon="3.53967">
        <ele>372.9</ele>
        <time>2026-05-10T09:17:41.000Z</time>
      </trkpt>
      <trkpt lat="45.85918" lon="3.53964">
        <ele>372.8</ele>
        <time>2026-05-10T09:17:42.000Z</time>
      </trkpt>
      <trkpt lat="45.85918" lon="3.53962">
        <ele>372.8</ele>
        <time>2026-05-10T09:17:43.000Z</time>
      </trkpt>
      <trkpt lat="45.85918" lon="3.5396">
        <ele>372.7</ele>
        <time>2026-05-10T09:17:44.000Z</time>
      </trkpt>
      <trkpt lat="45.85918" lon="3.53958">
        <ele>372.6</ele>
        <time>2026-05-10T09:17:45.000Z</time>
      </trkpt>
      <trkpt lat="45.85918" lon="3.53956">
        <ele>372.5</ele>
        <time>2026-05-10T09:17:46.000Z</time>
      </trkpt>
      <trkpt lat="45.85917" lon="3.53954">
        <ele>372.4</ele>
        <time>2026-05-10T09:17:47.000Z</time>
      </trkpt>
      <trkpt lat="45.85916" lon="3.53953">
        <ele>372.3</ele>
        <time>2026-05-10T09:17:48.000Z</time>
      </trkpt>
      <trkpt lat="45.85915" lon="3.53951">
        <ele>372.2</ele>
        <time>2026-05-10T09:17:49.000Z</time>
      </trkpt>
      <trkpt lat="45.85914" lon="3.5395">
        <ele>372.1</ele>
        <time>2026-05-10T09:17:50.000Z</time>
      </trkpt>
      <trkpt lat="45.85913" lon="3.53949">
        <ele>372</ele>
        <time>2026-05-10T09:17:51.000Z</time>
      </trkpt>
      <trkpt lat="45.85911" lon="3.53949">
        <ele>371.9</ele>
        <time>2026-05-10T09:17:52.000Z</time>
      </trkpt>
      <trkpt lat="45.8591" lon="3.53948">
        <ele>371.9</ele>
        <time>2026-05-10T09:17:53.000Z</time>
      </trkpt>
      <trkpt lat="45.85908" lon="3.53948">
        <ele>371.8</ele>
        <time>2026-05-10T09:17:54.000Z</time>
      </trkpt>
      <trkpt lat="45.85907" lon="3.53949">
        <ele>371.8</ele>
        <time>2026-05-10T09:17:55.000Z</time>
      </trkpt>
      <trkpt lat="45.85905" lon="3.53949">
        <ele>371.8</ele>
        <time>2026-05-10T09:17:56.000Z</time>
      </trkpt>
      <trkpt lat="45.85904" lon="3.53949">
        <ele>371.7</ele>
        <time>2026-05-10T09:17:57.000Z</time>
      </trkpt>
      <trkpt lat="45.85903" lon="3.5395">
        <ele>371.7</ele>
        <time>2026-05-10T09:17:58.000Z</time>
      </trkpt>
      <trkpt lat="45.85902" lon="3.5395">
        <ele>371.7</ele>
        <time>2026-05-10T09:17:59.000Z</time>
      </trkpt>
      <trkpt lat="45.85901" lon="3.5395">
        <ele>371.6</ele>
        <time>2026-05-10T09:18:00.000Z</time>
      </trkpt>
      <trkpt lat="45.859" lon="3.5395">
        <ele>371.6</ele>
        <time>2026-05-10T09:18:01.000Z</time>
      </trkpt>
      <trkpt lat="45.85898" lon="3.5395">
        <ele>371.5</ele>
        <time>2026-05-10T09:18:02.000Z</time>
      </trkpt>
      <trkpt lat="45.85897" lon="3.53951">
        <ele>371.5</ele>
        <time>2026-05-10T09:18:03.000Z</time>
      </trkpt>
      <trkpt lat="45.85896" lon="3.53951">
        <ele>371.5</ele>
        <time>2026-05-10T09:18:04.000Z</time>
      </trkpt>
      <trkpt lat="45.85895" lon="3.53951">
        <ele>371.5</ele>
        <time>2026-05-10T09:18:05.000Z</time>
      </trkpt>
      <trkpt lat="45.85893" lon="3.53952">
        <ele>371.4</ele>
        <time>2026-05-10T09:18:06.000Z</time>
      </trkpt>
      <trkpt lat="45.85892" lon="3.53953">
        <ele>371.4</ele>
        <time>2026-05-10T09:18:07.000Z</time>
      </trkpt>
      <trkpt lat="45.85891" lon="3.53953">
        <ele>371.4</ele>
        <time>2026-05-10T09:18:08.000Z</time>
      </trkpt>
      <trkpt lat="45.85889" lon="3.53954">
        <ele>371.3</ele>
        <time>2026-05-10T09:18:09.000Z</time>
      </trkpt>
      <trkpt lat="45.85887" lon="3.53955">
        <ele>371.3</ele>
        <time>2026-05-10T09:18:10.000Z</time>
      </trkpt>
      <trkpt lat="45.85886" lon="3.53956">
        <ele>371.3</ele>
        <time>2026-05-10T09:18:11.000Z</time>
      </trkpt>
      <trkpt lat="45.85885" lon="3.53956">
        <ele>371.2</ele>
        <time>2026-05-10T09:18:12.000Z</time>
      </trkpt>
      <trkpt lat="45.85883" lon="3.53957">
        <ele>371.2</ele>
        <time>2026-05-10T09:18:13.000Z</time>
      </trkpt>
      <trkpt lat="45.85882" lon="3.53957">
        <ele>371.1</ele>
        <time>2026-05-10T09:18:14.000Z</time>
      </trkpt>
      <trkpt lat="45.85881" lon="3.53958">
        <ele>371</ele>
        <time>2026-05-10T09:18:15.000Z</time>
      </trkpt>
      <trkpt lat="45.85879" lon="3.53959">
        <ele>371</ele>
        <time>2026-05-10T09:18:16.000Z</time>
      </trkpt>
      <trkpt lat="45.85878" lon="3.53959">
        <ele>370.9</ele>
        <time>2026-05-10T09:18:17.000Z</time>
      </trkpt>
      <trkpt lat="45.85877" lon="3.53959">
        <ele>370.9</ele>
        <time>2026-05-10T09:18:18.000Z</time>
      </trkpt>
      <trkpt lat="45.85875" lon="3.53959">
        <ele>370.8</ele>
        <time>2026-05-10T09:18:19.000Z</time>
      </trkpt>
      <trkpt lat="45.85874" lon="3.53959">
        <ele>370.7</ele>
        <time>2026-05-10T09:18:20.000Z</time>
      </trkpt>
      <trkpt lat="45.85872" lon="3.5396">
        <ele>370.6</ele>
        <time>2026-05-10T09:18:21.000Z</time>
      </trkpt>
      <trkpt lat="45.8587" lon="3.5396">
        <ele>370.5</ele>
        <time>2026-05-10T09:18:22.000Z</time>
      </trkpt>
      <trkpt lat="45.85869" lon="3.53961">
        <ele>370.4</ele>
        <time>2026-05-10T09:18:23.000Z</time>
      </trkpt>
      <trkpt lat="45.85868" lon="3.53961">
        <ele>370.4</ele>
        <time>2026-05-10T09:18:24.000Z</time>
      </trkpt>
      <trkpt lat="45.85867" lon="3.53961">
        <ele>370.3</ele>
        <time>2026-05-10T09:18:25.000Z</time>
      </trkpt>
      <trkpt lat="45.85866" lon="3.53961">
        <ele>370.3</ele>
        <time>2026-05-10T09:18:26.000Z</time>
      </trkpt>
      <trkpt lat="45.85865" lon="3.53961">
        <ele>370.2</ele>
        <time>2026-05-10T09:18:27.000Z</time>
      </trkpt>
      <trkpt lat="45.85864" lon="3.53961">
        <ele>370.1</ele>
        <time>2026-05-10T09:18:28.000Z</time>
      </trkpt>
      <trkpt lat="45.85862" lon="3.53961">
        <ele>370.1</ele>
        <time>2026-05-10T09:18:29.000Z</time>
      </trkpt>
      <trkpt lat="45.85861" lon="3.53962">
        <ele>370</ele>
        <time>2026-05-10T09:18:30.000Z</time>
      </trkpt>
      <trkpt lat="45.8586" lon="3.53961">
        <ele>369.8</ele>
        <time>2026-05-10T09:18:31.000Z</time>
      </trkpt>
      <trkpt lat="45.85859" lon="3.53961">
        <ele>369.7</ele>
        <time>2026-05-10T09:18:32.000Z</time>
      </trkpt>
      <trkpt lat="45.85858" lon="3.53961">
        <ele>369.5</ele>
        <time>2026-05-10T09:18:33.000Z</time>
      </trkpt>
      <trkpt lat="45.85857" lon="3.5396">
        <ele>369.3</ele>
        <time>2026-05-10T09:18:34.000Z</time>
      </trkpt>
      <trkpt lat="45.85855" lon="3.5396">
        <ele>369</ele>
        <time>2026-05-10T09:18:35.000Z</time>
      </trkpt>
      <trkpt lat="45.85854" lon="3.5396">
        <ele>368.9</ele>
        <time>2026-05-10T09:18:36.000Z</time>
      </trkpt>
      <trkpt lat="45.85854" lon="3.53959">
        <ele>368.8</ele>
        <time>2026-05-10T09:18:37.000Z</time>
      </trkpt>
      <trkpt lat="45.85853" lon="3.53959">
        <ele>368.6</ele>
        <time>2026-05-10T09:18:38.000Z</time>
      </trkpt>
      <trkpt lat="45.85852" lon="3.53959">
        <ele>368.5</ele>
        <time>2026-05-10T09:18:39.000Z</time>
      </trkpt>
      <trkpt lat="45.85851" lon="3.53958">
        <ele>368.4</ele>
        <time>2026-05-10T09:18:40.000Z</time>
      </trkpt>
      <trkpt lat="45.8585" lon="3.53958">
        <ele>368.2</ele>
        <time>2026-05-10T09:18:41.000Z</time>
      </trkpt>
      <trkpt lat="45.85848" lon="3.53957">
        <ele>368</ele>
        <time>2026-05-10T09:18:42.000Z</time>
      </trkpt>
      <trkpt lat="45.85847" lon="3.53956">
        <ele>367.8</ele>
        <time>2026-05-10T09:18:43.000Z</time>
      </trkpt>
      <trkpt lat="45.85845" lon="3.53956">
        <ele>367.6</ele>
        <time>2026-05-10T09:18:44.000Z</time>
      </trkpt>
      <trkpt lat="45.85844" lon="3.53955">
        <ele>367.5</ele>
        <time>2026-05-10T09:18:45.000Z</time>
      </trkpt>
      <trkpt lat="45.85843" lon="3.53954">
        <ele>367.3</ele>
        <time>2026-05-10T09:18:46.000Z</time>
      </trkpt>
      <trkpt lat="45.85841" lon="3.53953">
        <ele>367.2</ele>
        <time>2026-05-10T09:18:47.000Z</time>
      </trkpt>
      <trkpt lat="45.8584" lon="3.53952">
        <ele>367.1</ele>
        <time>2026-05-10T09:18:48.000Z</time>
      </trkpt>
      <trkpt lat="45.85838" lon="3.5395">
        <ele>366.9</ele>
        <time>2026-05-10T09:18:49.000Z</time>
      </trkpt>
      <trkpt lat="45.85836" lon="3.53949">
        <ele>366.9</ele>
        <time>2026-05-10T09:18:50.000Z</time>
      </trkpt>
      <trkpt lat="45.85835" lon="3.53948">
        <ele>366.8</ele>
        <time>2026-05-10T09:18:51.000Z</time>
      </trkpt>
      <trkpt lat="45.85834" lon="3.53947">
        <ele>366.8</ele>
        <time>2026-05-10T09:18:52.000Z</time>
      </trkpt>
      <trkpt lat="45.85833" lon="3.53946">
        <ele>366.7</ele>
        <time>2026-05-10T09:18:53.000Z</time>
      </trkpt>
      <trkpt lat="45.85832" lon="3.53945">
        <ele>366.5</ele>
        <time>2026-05-10T09:18:54.000Z</time>
      </trkpt>
      <trkpt lat="45.85831" lon="3.53945">
        <ele>366.2</ele>
        <time>2026-05-10T09:18:55.000Z</time>
      </trkpt>
      <trkpt lat="45.8583" lon="3.53944">
        <ele>366.1</ele>
        <time>2026-05-10T09:18:56.000Z</time>
      </trkpt>
      <trkpt lat="45.85828" lon="3.53943">
        <ele>365.9</ele>
        <time>2026-05-10T09:18:57.000Z</time>
      </trkpt>
      <trkpt lat="45.85827" lon="3.53942">
        <ele>365.8</ele>
        <time>2026-05-10T09:18:58.000Z</time>
      </trkpt>
      <trkpt lat="45.85826" lon="3.5394">
        <ele>365.8</ele>
        <time>2026-05-10T09:18:59.000Z</time>
      </trkpt>
      <trkpt lat="45.85826" lon="3.53939">
        <ele>365.9</ele>
        <time>2026-05-10T09:19:00.000Z</time>
      </trkpt>
      <trkpt lat="45.85824" lon="3.53937">
        <ele>365.8</ele>
        <time>2026-05-10T09:19:01.000Z</time>
      </trkpt>
      <trkpt lat="45.85823" lon="3.53936">
        <ele>365.7</ele>
        <time>2026-05-10T09:19:02.000Z</time>
      </trkpt>
      <trkpt lat="45.85822" lon="3.53935">
        <ele>365.6</ele>
        <time>2026-05-10T09:19:03.000Z</time>
      </trkpt>
      <trkpt lat="45.85821" lon="3.53934">
        <ele>365.5</ele>
        <time>2026-05-10T09:19:04.000Z</time>
      </trkpt>
      <trkpt lat="45.8582" lon="3.53934">
        <ele>365.4</ele>
        <time>2026-05-10T09:19:05.000Z</time>
      </trkpt>
      <trkpt lat="45.85819" lon="3.53933">
        <ele>365.3</ele>
        <time>2026-05-10T09:19:06.000Z</time>
      </trkpt>
      <trkpt lat="45.85818" lon="3.53932">
        <ele>365.3</ele>
        <time>2026-05-10T09:19:07.000Z</time>
      </trkpt>
      <trkpt lat="45.85817" lon="3.53931">
        <ele>365.2</ele>
        <time>2026-05-10T09:19:08.000Z</time>
      </trkpt>
      <trkpt lat="45.85816" lon="3.5393">
        <ele>365.1</ele>
        <time>2026-05-10T09:19:09.000Z</time>
      </trkpt>
      <trkpt lat="45.85815" lon="3.53929">
        <ele>365.1</ele>
        <time>2026-05-10T09:19:10.000Z</time>
      </trkpt>
      <trkpt lat="45.85814" lon="3.53928">
        <ele>365.1</ele>
        <time>2026-05-10T09:19:11.000Z</time>
      </trkpt>
      <trkpt lat="45.85813" lon="3.53927">
        <ele>365.2</ele>
        <time>2026-05-10T09:19:12.000Z</time>
      </trkpt>
      <trkpt lat="45.85812" lon="3.53926">
        <ele>365.2</ele>
        <time>2026-05-10T09:19:13.000Z</time>
      </trkpt>
      <trkpt lat="45.85812" lon="3.53925">
        <ele>365.3</ele>
        <time>2026-05-10T09:19:14.000Z</time>
      </trkpt>
      <trkpt lat="45.85811" lon="3.53924">
        <ele>365.3</ele>
        <time>2026-05-10T09:19:15.000Z</time>
      </trkpt>
      <trkpt lat="45.85809" lon="3.53923">
        <ele>365.2</ele>
        <time>2026-05-10T09:19:16.000Z</time>
      </trkpt>
      <trkpt lat="45.85808" lon="3.53923">
        <ele>365.1</ele>
        <time>2026-05-10T09:19:17.000Z</time>
      </trkpt>
      <trkpt lat="45.85807" lon="3.53922">
        <ele>365</ele>
        <time>2026-05-10T09:19:18.000Z</time>
      </trkpt>
      <trkpt lat="45.85805" lon="3.53921">
        <ele>365</ele>
        <time>2026-05-10T09:19:19.000Z</time>
      </trkpt>
      <trkpt lat="45.85804" lon="3.5392">
        <ele>364.9</ele>
        <time>2026-05-10T09:19:20.000Z</time>
      </trkpt>
      <trkpt lat="45.85803" lon="3.53919">
        <ele>364.9</ele>
        <time>2026-05-10T09:19:21.000Z</time>
      </trkpt>
      <trkpt lat="45.85801" lon="3.53918">
        <ele>364.9</ele>
        <time>2026-05-10T09:19:22.000Z</time>
      </trkpt>
      <trkpt lat="45.858" lon="3.53917">
        <ele>364.8</ele>
        <time>2026-05-10T09:19:23.000Z</time>
      </trkpt>
      <trkpt lat="45.85799" lon="3.53917">
        <ele>364.8</ele>
        <time>2026-05-10T09:19:24.000Z</time>
      </trkpt>
      <trkpt lat="45.85797" lon="3.53916">
        <ele>364.7</ele>
        <time>2026-05-10T09:19:25.000Z</time>
      </trkpt>
      <trkpt lat="45.85796" lon="3.53915">
        <ele>364.6</ele>
        <time>2026-05-10T09:19:26.000Z</time>
      </trkpt>
      <trkpt lat="45.85794" lon="3.53915">
        <ele>364.4</ele>
        <time>2026-05-10T09:19:27.000Z</time>
      </trkpt>
      <trkpt lat="45.85793" lon="3.53914">
        <ele>364.3</ele>
        <time>2026-05-10T09:19:28.000Z</time>
      </trkpt>
      <trkpt lat="45.85792" lon="3.53914">
        <ele>364.2</ele>
        <time>2026-05-10T09:19:29.000Z</time>
      </trkpt>
      <trkpt lat="45.85791" lon="3.53913">
        <ele>364.2</ele>
        <time>2026-05-10T09:19:30.000Z</time>
      </trkpt>
      <trkpt lat="45.85791" lon="3.53913">
        <ele>364.1</ele>
        <time>2026-05-10T09:19:31.000Z</time>
      </trkpt>
      <trkpt lat="45.85789" lon="3.53913">
        <ele>363.9</ele>
        <time>2026-05-10T09:19:32.000Z</time>
      </trkpt>
      <trkpt lat="45.85788" lon="3.53913">
        <ele>363.8</ele>
        <time>2026-05-10T09:19:33.000Z</time>
      </trkpt>
      <trkpt lat="45.85787" lon="3.53912">
        <ele>363.6</ele>
        <time>2026-05-10T09:19:34.000Z</time>
      </trkpt>
      <trkpt lat="45.85786" lon="3.53912">
        <ele>363.5</ele>
        <time>2026-05-10T09:19:35.000Z</time>
      </trkpt>
      <trkpt lat="45.85784" lon="3.53911">
        <ele>363.2</ele>
        <time>2026-05-10T09:19:36.000Z</time>
      </trkpt>
      <trkpt lat="45.85782" lon="3.53911">
        <ele>363.1</ele>
        <time>2026-05-10T09:19:37.000Z</time>
      </trkpt>
      <trkpt lat="45.85781" lon="3.5391">
        <ele>362.9</ele>
        <time>2026-05-10T09:19:38.000Z</time>
      </trkpt>
      <trkpt lat="45.85779" lon="3.5391">
        <ele>362.7</ele>
        <time>2026-05-10T09:19:39.000Z</time>
      </trkpt>
      <trkpt lat="45.85777" lon="3.5391">
        <ele>362.5</ele>
        <time>2026-05-10T09:19:40.000Z</time>
      </trkpt>
      <trkpt lat="45.85776" lon="3.53909">
        <ele>362.6</ele>
        <time>2026-05-10T09:19:41.000Z</time>
      </trkpt>
      <trkpt lat="45.85774" lon="3.53909">
        <ele>362.6</ele>
        <time>2026-05-10T09:19:42.000Z</time>
      </trkpt>
      <trkpt lat="45.85773" lon="3.53909">
        <ele>362.6</ele>
        <time>2026-05-10T09:19:43.000Z</time>
      </trkpt>
      <trkpt lat="45.85772" lon="3.53909">
        <ele>362.6</ele>
        <time>2026-05-10T09:19:44.000Z</time>
      </trkpt>
      <trkpt lat="45.85771" lon="3.53909">
        <ele>362.6</ele>
        <time>2026-05-10T09:19:45.000Z</time>
      </trkpt>
      <trkpt lat="45.8577" lon="3.53908">
        <ele>362.6</ele>
        <time>2026-05-10T09:19:46.000Z</time>
      </trkpt>
      <trkpt lat="45.85768" lon="3.53908">
        <ele>362.7</ele>
        <time>2026-05-10T09:19:47.000Z</time>
      </trkpt>
      <trkpt lat="45.85767" lon="3.53908">
        <ele>362.7</ele>
        <time>2026-05-10T09:19:48.000Z</time>
      </trkpt>
      <trkpt lat="45.85766" lon="3.53907">
        <ele>362.7</ele>
        <time>2026-05-10T09:19:49.000Z</time>
      </trkpt>
      <trkpt lat="45.85765" lon="3.53907">
        <ele>362.9</ele>
        <time>2026-05-10T09:19:50.000Z</time>
      </trkpt>
      <trkpt lat="45.85764" lon="3.53906">
        <ele>362.9</ele>
        <time>2026-05-10T09:19:51.000Z</time>
      </trkpt>
      <trkpt lat="45.85762" lon="3.53907">
        <ele>362.8</ele>
        <time>2026-05-10T09:19:52.000Z</time>
      </trkpt>
      <trkpt lat="45.85761" lon="3.53906">
        <ele>362.8</ele>
        <time>2026-05-10T09:19:53.000Z</time>
      </trkpt>
      <trkpt lat="45.85759" lon="3.53906">
        <ele>362.8</ele>
        <time>2026-05-10T09:19:54.000Z</time>
      </trkpt>
      <trkpt lat="45.85758" lon="3.53906">
        <ele>362.7</ele>
        <time>2026-05-10T09:19:55.000Z</time>
      </trkpt>
      <trkpt lat="45.85756" lon="3.53906">
        <ele>362.7</ele>
        <time>2026-05-10T09:19:56.000Z</time>
      </trkpt>
      <trkpt lat="45.85754" lon="3.53906">
        <ele>362.6</ele>
        <time>2026-05-10T09:19:57.000Z</time>
      </trkpt>
      <trkpt lat="45.85753" lon="3.53906">
        <ele>362.6</ele>
        <time>2026-05-10T09:19:58.000Z</time>
      </trkpt>
      <trkpt lat="45.85751" lon="3.53907">
        <ele>362.5</ele>
        <time>2026-05-10T09:19:59.000Z</time>
      </trkpt>
      <trkpt lat="45.8575" lon="3.53907">
        <ele>362.4</ele>
        <time>2026-05-10T09:20:00.000Z</time>
      </trkpt>
      <trkpt lat="45.85749" lon="3.53907">
        <ele>362.4</ele>
        <time>2026-05-10T09:20:01.000Z</time>
      </trkpt>
      <trkpt lat="45.85748" lon="3.53907">
        <ele>362.4</ele>
        <time>2026-05-10T09:20:02.000Z</time>
      </trkpt>
      <trkpt lat="45.85746" lon="3.53907">
        <ele>362.3</ele>
        <time>2026-05-10T09:20:03.000Z</time>
      </trkpt>
      <trkpt lat="45.85745" lon="3.53906">
        <ele>362.3</ele>
        <time>2026-05-10T09:20:04.000Z</time>
      </trkpt>
      <trkpt lat="45.85744" lon="3.53906">
        <ele>362.3</ele>
        <time>2026-05-10T09:20:05.000Z</time>
      </trkpt>
      <trkpt lat="45.85743" lon="3.53906">
        <ele>362.3</ele>
        <time>2026-05-10T09:20:06.000Z</time>
      </trkpt>
      <trkpt lat="45.85741" lon="3.53906">
        <ele>362.3</ele>
        <time>2026-05-10T09:20:07.000Z</time>
      </trkpt>
      <trkpt lat="45.85739" lon="3.53905">
        <ele>362.3</ele>
        <time>2026-05-10T09:20:08.000Z</time>
      </trkpt>
      <trkpt lat="45.85739" lon="3.53905">
        <ele>362.2</ele>
        <time>2026-05-10T09:20:09.000Z</time>
      </trkpt>
      <trkpt lat="45.85737" lon="3.53905">
        <ele>362.2</ele>
        <time>2026-05-10T09:20:10.000Z</time>
      </trkpt>
      <trkpt lat="45.85736" lon="3.53904">
        <ele>362.2</ele>
        <time>2026-05-10T09:20:11.000Z</time>
      </trkpt>
      <trkpt lat="45.85735" lon="3.53903">
        <ele>362.2</ele>
        <time>2026-05-10T09:20:12.000Z</time>
      </trkpt>
      <trkpt lat="45.85734" lon="3.53903">
        <ele>362.1</ele>
        <time>2026-05-10T09:20:13.000Z</time>
      </trkpt>
      <trkpt lat="45.85733" lon="3.53902">
        <ele>362.1</ele>
        <time>2026-05-10T09:20:14.000Z</time>
      </trkpt>
      <trkpt lat="45.85732" lon="3.53901">
        <ele>362.1</ele>
        <time>2026-05-10T09:20:15.000Z</time>
      </trkpt>
      <trkpt lat="45.8573" lon="3.539">
        <ele>362</ele>
        <time>2026-05-10T09:20:16.000Z</time>
      </trkpt>
      <trkpt lat="45.85729" lon="3.53899">
        <ele>361.9</ele>
        <time>2026-05-10T09:20:17.000Z</time>
      </trkpt>
      <trkpt lat="45.85728" lon="3.53898">
        <ele>361.8</ele>
        <time>2026-05-10T09:20:18.000Z</time>
      </trkpt>
      <trkpt lat="45.85727" lon="3.53897">
        <ele>361.7</ele>
        <time>2026-05-10T09:20:19.000Z</time>
      </trkpt>
      <trkpt lat="45.85726" lon="3.53895">
        <ele>361.6</ele>
        <time>2026-05-10T09:20:20.000Z</time>
      </trkpt>
      <trkpt lat="45.85725" lon="3.53894">
        <ele>361.4</ele>
        <time>2026-05-10T09:20:21.000Z</time>
      </trkpt>
      <trkpt lat="45.85724" lon="3.53892">
        <ele>361.3</ele>
        <time>2026-05-10T09:20:22.000Z</time>
      </trkpt>
      <trkpt lat="45.85722" lon="3.53891">
        <ele>361.1</ele>
        <time>2026-05-10T09:20:23.000Z</time>
      </trkpt>
      <trkpt lat="45.85721" lon="3.53889">
        <ele>360.8</ele>
        <time>2026-05-10T09:20:24.000Z</time>
      </trkpt>
      <trkpt lat="45.8572" lon="3.53888">
        <ele>360.7</ele>
        <time>2026-05-10T09:20:25.000Z</time>
      </trkpt>
      <trkpt lat="45.85719" lon="3.53886">
        <ele>360.7</ele>
        <time>2026-05-10T09:20:26.000Z</time>
      </trkpt>
      <trkpt lat="45.85719" lon="3.53885">
        <ele>360.7</ele>
        <time>2026-05-10T09:20:27.000Z</time>
      </trkpt>
      <trkpt lat="45.85718" lon="3.53884">
        <ele>360.7</ele>
        <time>2026-05-10T09:20:28.000Z</time>
      </trkpt>
      <trkpt lat="45.85717" lon="3.53883">
        <ele>360.7</ele>
        <time>2026-05-10T09:20:29.000Z</time>
      </trkpt>
      <trkpt lat="45.85716" lon="3.53882">
        <ele>360.7</ele>
        <time>2026-05-10T09:20:30.000Z</time>
      </trkpt>
      <trkpt lat="45.85716" lon="3.53881">
        <ele>360.8</ele>
        <time>2026-05-10T09:20:31.000Z</time>
      </trkpt>
      <trkpt lat="45.85715" lon="3.53879">
        <ele>360.8</ele>
        <time>2026-05-10T09:20:32.000Z</time>
      </trkpt>
      <trkpt lat="45.85714" lon="3.53878">
        <ele>360.8</ele>
        <time>2026-05-10T09:20:33.000Z</time>
      </trkpt>
      <trkpt lat="45.85713" lon="3.53876">
        <ele>360.9</ele>
        <time>2026-05-10T09:20:34.000Z</time>
      </trkpt>
      <trkpt lat="45.85713" lon="3.53875">
        <ele>361</ele>
        <time>2026-05-10T09:20:35.000Z</time>
      </trkpt>
      <trkpt lat="45.85712" lon="3.53873">
        <ele>361.1</ele>
        <time>2026-05-10T09:20:36.000Z</time>
      </trkpt>
      <trkpt lat="45.85711" lon="3.53871">
        <ele>361.1</ele>
        <time>2026-05-10T09:20:37.000Z</time>
      </trkpt>
      <trkpt lat="45.8571" lon="3.5387">
        <ele>361.1</ele>
        <time>2026-05-10T09:20:38.000Z</time>
      </trkpt>
      <trkpt lat="45.85709" lon="3.53868">
        <ele>361.1</ele>
        <time>2026-05-10T09:20:39.000Z</time>
      </trkpt>
      <trkpt lat="45.85708" lon="3.53867">
        <ele>361.1</ele>
        <time>2026-05-10T09:20:40.000Z</time>
      </trkpt>
      <trkpt lat="45.85707" lon="3.53866">
        <ele>361.1</ele>
        <time>2026-05-10T09:20:41.000Z</time>
      </trkpt>
      <trkpt lat="45.85706" lon="3.53864">
        <ele>361.1</ele>
        <time>2026-05-10T09:20:42.000Z</time>
      </trkpt>
      <trkpt lat="45.85705" lon="3.53863">
        <ele>361.1</ele>
        <time>2026-05-10T09:20:43.000Z</time>
      </trkpt>
      <trkpt lat="45.85704" lon="3.53862">
        <ele>361</ele>
        <time>2026-05-10T09:20:44.000Z</time>
      </trkpt>
      <trkpt lat="45.85703" lon="3.5386">
        <ele>360.9</ele>
        <time>2026-05-10T09:20:45.000Z</time>
      </trkpt>
      <trkpt lat="45.85702" lon="3.53859">
        <ele>360.7</ele>
        <time>2026-05-10T09:20:46.000Z</time>
      </trkpt>
      <trkpt lat="45.85701" lon="3.53858">
        <ele>360.5</ele>
        <time>2026-05-10T09:20:47.000Z</time>
      </trkpt>
      <trkpt lat="45.857" lon="3.53857">
        <ele>360.3</ele>
        <time>2026-05-10T09:20:48.000Z</time>
      </trkpt>
      <trkpt lat="45.85699" lon="3.53856">
        <ele>360</ele>
        <time>2026-05-10T09:20:49.000Z</time>
      </trkpt>
      <trkpt lat="45.85698" lon="3.53854">
        <ele>359.8</ele>
        <time>2026-05-10T09:20:50.000Z</time>
      </trkpt>
      <trkpt lat="45.85696" lon="3.53852">
        <ele>359.5</ele>
        <time>2026-05-10T09:20:51.000Z</time>
      </trkpt>
      <trkpt lat="45.85695" lon="3.53851">
        <ele>359.2</ele>
        <time>2026-05-10T09:20:52.000Z</time>
      </trkpt>
      <trkpt lat="45.85694" lon="3.53849">
        <ele>359</ele>
        <time>2026-05-10T09:20:53.000Z</time>
      </trkpt>
      <trkpt lat="45.85693" lon="3.53848">
        <ele>358.9</ele>
        <time>2026-05-10T09:20:54.000Z</time>
      </trkpt>
      <trkpt lat="45.85692" lon="3.53846">
        <ele>358.8</ele>
        <time>2026-05-10T09:20:55.000Z</time>
      </trkpt>
      <trkpt lat="45.85691" lon="3.53844">
        <ele>358.8</ele>
        <time>2026-05-10T09:20:56.000Z</time>
      </trkpt>
      <trkpt lat="45.8569" lon="3.53843">
        <ele>358.7</ele>
        <time>2026-05-10T09:20:57.000Z</time>
      </trkpt>
      <trkpt lat="45.85689" lon="3.53842">
        <ele>358.6</ele>
        <time>2026-05-10T09:20:58.000Z</time>
      </trkpt>
      <trkpt lat="45.85688" lon="3.5384">
        <ele>358.6</ele>
        <time>2026-05-10T09:20:59.000Z</time>
      </trkpt>
      <trkpt lat="45.85688" lon="3.53839">
        <ele>358.5</ele>
        <time>2026-05-10T09:21:00.000Z</time>
      </trkpt>
      <trkpt lat="45.85687" lon="3.53837">
        <ele>358.4</ele>
        <time>2026-05-10T09:21:01.000Z</time>
      </trkpt>
      <trkpt lat="45.85686" lon="3.53836">
        <ele>358.4</ele>
        <time>2026-05-10T09:21:02.000Z</time>
      </trkpt>
      <trkpt lat="45.85686" lon="3.53835">
        <ele>358.4</ele>
        <time>2026-05-10T09:21:03.000Z</time>
      </trkpt>
      <trkpt lat="45.85685" lon="3.53833">
        <ele>358.3</ele>
        <time>2026-05-10T09:21:04.000Z</time>
      </trkpt>
      <trkpt lat="45.85684" lon="3.53831">
        <ele>358.3</ele>
        <time>2026-05-10T09:21:05.000Z</time>
      </trkpt>
      <trkpt lat="45.85683" lon="3.5383">
        <ele>358.3</ele>
        <time>2026-05-10T09:21:06.000Z</time>
      </trkpt>
      <trkpt lat="45.85683" lon="3.53829">
        <ele>358.3</ele>
        <time>2026-05-10T09:21:07.000Z</time>
      </trkpt>
      <trkpt lat="45.85682" lon="3.53827">
        <ele>358.3</ele>
        <time>2026-05-10T09:21:08.000Z</time>
      </trkpt>
      <trkpt lat="45.85681" lon="3.53825">
        <ele>358.2</ele>
        <time>2026-05-10T09:21:09.000Z</time>
      </trkpt>
      <trkpt lat="45.85681" lon="3.53823">
        <ele>358.2</ele>
        <time>2026-05-10T09:21:10.000Z</time>
      </trkpt>
      <trkpt lat="45.8568" lon="3.53822">
        <ele>358.1</ele>
        <time>2026-05-10T09:21:11.000Z</time>
      </trkpt>
      <trkpt lat="45.8568" lon="3.5382">
        <ele>358.1</ele>
        <time>2026-05-10T09:21:12.000Z</time>
      </trkpt>
      <trkpt lat="45.85679" lon="3.53818">
        <ele>358.1</ele>
        <time>2026-05-10T09:21:13.000Z</time>
      </trkpt>
      <trkpt lat="45.85679" lon="3.53817">
        <ele>358</ele>
        <time>2026-05-10T09:21:14.000Z</time>
      </trkpt>
      <trkpt lat="45.85679" lon="3.53816">
        <ele>358</ele>
        <time>2026-05-10T09:21:15.000Z</time>
      </trkpt>
      <trkpt lat="45.85679" lon="3.53814">
        <ele>357.9</ele>
        <time>2026-05-10T09:21:16.000Z</time>
      </trkpt>
      <trkpt lat="45.85678" lon="3.53812">
        <ele>357.8</ele>
        <time>2026-05-10T09:21:17.000Z</time>
      </trkpt>
      <trkpt lat="45.85678" lon="3.5381">
        <ele>357.7</ele>
        <time>2026-05-10T09:21:18.000Z</time>
      </trkpt>
      <trkpt lat="45.85677" lon="3.53808">
        <ele>357.6</ele>
        <time>2026-05-10T09:21:19.000Z</time>
      </trkpt>
      <trkpt lat="45.85677" lon="3.53806">
        <ele>357.5</ele>
        <time>2026-05-10T09:21:20.000Z</time>
      </trkpt>
      <trkpt lat="45.85676" lon="3.53804">
        <ele>357.2</ele>
        <time>2026-05-10T09:21:21.000Z</time>
      </trkpt>
      <trkpt lat="45.85676" lon="3.53802">
        <ele>356.9</ele>
        <time>2026-05-10T09:21:22.000Z</time>
      </trkpt>
      <trkpt lat="45.85676" lon="3.53801">
        <ele>356.6</ele>
        <time>2026-05-10T09:21:23.000Z</time>
      </trkpt>
      <trkpt lat="45.85676" lon="3.53799">
        <ele>356.4</ele>
        <time>2026-05-10T09:21:24.000Z</time>
      </trkpt>
      <trkpt lat="45.85676" lon="3.53797">
        <ele>356.2</ele>
        <time>2026-05-10T09:21:25.000Z</time>
      </trkpt>
      <trkpt lat="45.85676" lon="3.53796">
        <ele>356.1</ele>
        <time>2026-05-10T09:21:26.000Z</time>
      </trkpt>
      <trkpt lat="45.85677" lon="3.53794">
        <ele>356</ele>
        <time>2026-05-10T09:21:27.000Z</time>
      </trkpt>
      <trkpt lat="45.85677" lon="3.53792">
        <ele>355.8</ele>
        <time>2026-05-10T09:21:28.000Z</time>
      </trkpt>
      <trkpt lat="45.85677" lon="3.5379">
        <ele>355.6</ele>
        <time>2026-05-10T09:21:29.000Z</time>
      </trkpt>
      <trkpt lat="45.85677" lon="3.53789">
        <ele>355.4</ele>
        <time>2026-05-10T09:21:30.000Z</time>
      </trkpt>
      <trkpt lat="45.85678" lon="3.53787">
        <ele>355.2</ele>
        <time>2026-05-10T09:21:31.000Z</time>
      </trkpt>
      <trkpt lat="45.85678" lon="3.53785">
        <ele>355</ele>
        <time>2026-05-10T09:21:32.000Z</time>
      </trkpt>
      <trkpt lat="45.85679" lon="3.53783">
        <ele>354.9</ele>
        <time>2026-05-10T09:21:33.000Z</time>
      </trkpt>
      <trkpt lat="45.85679" lon="3.53782">
        <ele>354.8</ele>
        <time>2026-05-10T09:21:34.000Z</time>
      </trkpt>
      <trkpt lat="45.85679" lon="3.53781">
        <ele>354.8</ele>
        <time>2026-05-10T09:21:35.000Z</time>
      </trkpt>
      <trkpt lat="45.8568" lon="3.5378">
        <ele>354.7</ele>
        <time>2026-05-10T09:21:36.000Z</time>
      </trkpt>
      <trkpt lat="45.8568" lon="3.53778">
        <ele>354.6</ele>
        <time>2026-05-10T09:21:37.000Z</time>
      </trkpt>
      <trkpt lat="45.85681" lon="3.53777">
        <ele>354.5</ele>
        <time>2026-05-10T09:21:38.000Z</time>
      </trkpt>
      <trkpt lat="45.85682" lon="3.53775">
        <ele>354.5</ele>
        <time>2026-05-10T09:21:39.000Z</time>
      </trkpt>
      <trkpt lat="45.85683" lon="3.53773">
        <ele>354.6</ele>
        <time>2026-05-10T09:21:40.000Z</time>
      </trkpt>
      <trkpt lat="45.85683" lon="3.53772">
        <ele>354.6</ele>
        <time>2026-05-10T09:21:41.000Z</time>
      </trkpt>
      <trkpt lat="45.85684" lon="3.5377">
        <ele>354.6</ele>
        <time>2026-05-10T09:21:42.000Z</time>
      </trkpt>
      <trkpt lat="45.85685" lon="3.53768">
        <ele>354.6</ele>
        <time>2026-05-10T09:21:43.000Z</time>
      </trkpt>
      <trkpt lat="45.85685" lon="3.53766">
        <ele>354.6</ele>
        <time>2026-05-10T09:21:44.000Z</time>
      </trkpt>
      <trkpt lat="45.85686" lon="3.53764">
        <ele>354.6</ele>
        <time>2026-05-10T09:21:45.000Z</time>
      </trkpt>
      <trkpt lat="45.85686" lon="3.53762">
        <ele>354.7</ele>
        <time>2026-05-10T09:21:46.000Z</time>
      </trkpt>
      <trkpt lat="45.85687" lon="3.5376">
        <ele>354.7</ele>
        <time>2026-05-10T09:21:47.000Z</time>
      </trkpt>
      <trkpt lat="45.85688" lon="3.53759">
        <ele>354.8</ele>
        <time>2026-05-10T09:21:48.000Z</time>
      </trkpt>
      <trkpt lat="45.85689" lon="3.53757">
        <ele>354.9</ele>
        <time>2026-05-10T09:21:49.000Z</time>
      </trkpt>
      <trkpt lat="45.85689" lon="3.53756">
        <ele>355</ele>
        <time>2026-05-10T09:21:50.000Z</time>
      </trkpt>
      <trkpt lat="45.8569" lon="3.53754">
        <ele>355.1</ele>
        <time>2026-05-10T09:21:51.000Z</time>
      </trkpt>
      <trkpt lat="45.85691" lon="3.53753">
        <ele>355.1</ele>
        <time>2026-05-10T09:21:52.000Z</time>
      </trkpt>
      <trkpt lat="45.85691" lon="3.53751">
        <ele>355.2</ele>
        <time>2026-05-10T09:21:53.000Z</time>
      </trkpt>
      <trkpt lat="45.85692" lon="3.53749">
        <ele>355.3</ele>
        <time>2026-05-10T09:21:54.000Z</time>
      </trkpt>
      <trkpt lat="45.85692" lon="3.53748">
        <ele>355.3</ele>
        <time>2026-05-10T09:21:55.000Z</time>
      </trkpt>
      <trkpt lat="45.85692" lon="3.53745">
        <ele>355.3</ele>
        <time>2026-05-10T09:21:56.000Z</time>
      </trkpt>
      <trkpt lat="45.85693" lon="3.53743">
        <ele>355.3</ele>
        <time>2026-05-10T09:21:57.000Z</time>
      </trkpt>
      <trkpt lat="45.85693" lon="3.53741">
        <ele>355.4</ele>
        <time>2026-05-10T09:21:58.000Z</time>
      </trkpt>
      <trkpt lat="45.85694" lon="3.53739">
        <ele>355.4</ele>
        <time>2026-05-10T09:21:59.000Z</time>
      </trkpt>
      <trkpt lat="45.85694" lon="3.53737">
        <ele>355.5</ele>
        <time>2026-05-10T09:22:00.000Z</time>
      </trkpt>
      <trkpt lat="45.85695" lon="3.53735">
        <ele>355.5</ele>
        <time>2026-05-10T09:22:01.000Z</time>
      </trkpt>
      <trkpt lat="45.85695" lon="3.53734">
        <ele>355.6</ele>
        <time>2026-05-10T09:22:02.000Z</time>
      </trkpt>
      <trkpt lat="45.85695" lon="3.53733">
        <ele>355.6</ele>
        <time>2026-05-10T09:22:03.000Z</time>
      </trkpt>
      <trkpt lat="45.85695" lon="3.53731">
        <ele>355.5</ele>
        <time>2026-05-10T09:22:04.000Z</time>
      </trkpt>
      <trkpt lat="45.85696" lon="3.5373">
        <ele>355.6</ele>
        <time>2026-05-10T09:22:05.000Z</time>
      </trkpt>
      <trkpt lat="45.85696" lon="3.53728">
        <ele>355.6</ele>
        <time>2026-05-10T09:22:06.000Z</time>
      </trkpt>
      <trkpt lat="45.85696" lon="3.53726">
        <ele>355.6</ele>
        <time>2026-05-10T09:22:07.000Z</time>
      </trkpt>
      <trkpt lat="45.85697" lon="3.53724">
        <ele>355.6</ele>
        <time>2026-05-10T09:22:08.000Z</time>
      </trkpt>
      <trkpt lat="45.85697" lon="3.53722">
        <ele>355.5</ele>
        <time>2026-05-10T09:22:09.000Z</time>
      </trkpt>
      <trkpt lat="45.85697" lon="3.5372">
        <ele>355.4</ele>
        <time>2026-05-10T09:22:10.000Z</time>
      </trkpt>
      <trkpt lat="45.85697" lon="3.53718">
        <ele>355.4</ele>
        <time>2026-05-10T09:22:11.000Z</time>
      </trkpt>
      <trkpt lat="45.85697" lon="3.53717">
        <ele>355.3</ele>
        <time>2026-05-10T09:22:12.000Z</time>
      </trkpt>
      <trkpt lat="45.85697" lon="3.53716">
        <ele>355.3</ele>
        <time>2026-05-10T09:22:13.000Z</time>
      </trkpt>
      <trkpt lat="45.85697" lon="3.53714">
        <ele>355.2</ele>
        <time>2026-05-10T09:22:14.000Z</time>
      </trkpt>
      <trkpt lat="45.85697" lon="3.53712">
        <ele>355.2</ele>
        <time>2026-05-10T09:22:15.000Z</time>
      </trkpt>
      <trkpt lat="45.85697" lon="3.53711">
        <ele>355.2</ele>
        <time>2026-05-10T09:22:16.000Z</time>
      </trkpt>
      <trkpt lat="45.85697" lon="3.53709">
        <ele>355.1</ele>
        <time>2026-05-10T09:22:17.000Z</time>
      </trkpt>
      <trkpt lat="45.85697" lon="3.53708">
        <ele>355.1</ele>
        <time>2026-05-10T09:22:18.000Z</time>
      </trkpt>
      <trkpt lat="45.85698" lon="3.53706">
        <ele>355.1</ele>
        <time>2026-05-10T09:22:19.000Z</time>
      </trkpt>
      <trkpt lat="45.85698" lon="3.53705">
        <ele>355.1</ele>
        <time>2026-05-10T09:22:20.000Z</time>
      </trkpt>
      <trkpt lat="45.85698" lon="3.53703">
        <ele>355</ele>
        <time>2026-05-10T09:22:21.000Z</time>
      </trkpt>
      <trkpt lat="45.85698" lon="3.53701">
        <ele>354.9</ele>
        <time>2026-05-10T09:22:22.000Z</time>
      </trkpt>
      <trkpt lat="45.85698" lon="3.53699">
        <ele>354.9</ele>
        <time>2026-05-10T09:22:23.000Z</time>
      </trkpt>
      <trkpt lat="45.85698" lon="3.53697">
        <ele>354.9</ele>
        <time>2026-05-10T09:22:24.000Z</time>
      </trkpt>
      <trkpt lat="45.85698" lon="3.53696">
        <ele>354.8</ele>
        <time>2026-05-10T09:22:25.000Z</time>
      </trkpt>
      <trkpt lat="45.85698" lon="3.53695">
        <ele>354.8</ele>
        <time>2026-05-10T09:22:26.000Z</time>
      </trkpt>
      <trkpt lat="45.85698" lon="3.53693">
        <ele>354.7</ele>
        <time>2026-05-10T09:22:27.000Z</time>
      </trkpt>
      <trkpt lat="45.85699" lon="3.53691">
        <ele>354.6</ele>
        <time>2026-05-10T09:22:28.000Z</time>
      </trkpt>
      <trkpt lat="45.85699" lon="3.53689">
        <ele>354.4</ele>
        <time>2026-05-10T09:22:29.000Z</time>
      </trkpt>
      <trkpt lat="45.85699" lon="3.53687">
        <ele>354.3</ele>
        <time>2026-05-10T09:22:30.000Z</time>
      </trkpt>
      <trkpt lat="45.85699" lon="3.53686">
        <ele>354.1</ele>
        <time>2026-05-10T09:22:31.000Z</time>
      </trkpt>
      <trkpt lat="45.857" lon="3.53684">
        <ele>354</ele>
        <time>2026-05-10T09:22:32.000Z</time>
      </trkpt>
      <trkpt lat="45.857" lon="3.53681">
        <ele>353.8</ele>
        <time>2026-05-10T09:22:33.000Z</time>
      </trkpt>
      <trkpt lat="45.857" lon="3.53679">
        <ele>353.7</ele>
        <time>2026-05-10T09:22:34.000Z</time>
      </trkpt>
      <trkpt lat="45.857" lon="3.53677">
        <ele>353.5</ele>
        <time>2026-05-10T09:22:35.000Z</time>
      </trkpt>
      <trkpt lat="45.857" lon="3.53675">
        <ele>353.3</ele>
        <time>2026-05-10T09:22:36.000Z</time>
      </trkpt>
      <trkpt lat="45.857" lon="3.53673">
        <ele>353.1</ele>
        <time>2026-05-10T09:22:37.000Z</time>
      </trkpt>
      <trkpt lat="45.85701" lon="3.53671">
        <ele>353</ele>
        <time>2026-05-10T09:22:38.000Z</time>
      </trkpt>
      <trkpt lat="45.85701" lon="3.53669">
        <ele>352.8</ele>
        <time>2026-05-10T09:22:39.000Z</time>
      </trkpt>
      <trkpt lat="45.85701" lon="3.53667">
        <ele>352.7</ele>
        <time>2026-05-10T09:22:40.000Z</time>
      </trkpt>
      <trkpt lat="45.85701" lon="3.53665">
        <ele>352.5</ele>
        <time>2026-05-10T09:22:41.000Z</time>
      </trkpt>
      <trkpt lat="45.85702" lon="3.53663">
        <ele>352.3</ele>
        <time>2026-05-10T09:22:42.000Z</time>
      </trkpt>
      <trkpt lat="45.85702" lon="3.53661">
        <ele>352.1</ele>
        <time>2026-05-10T09:22:43.000Z</time>
      </trkpt>
      <trkpt lat="45.85703" lon="3.5366">
        <ele>351.9</ele>
        <time>2026-05-10T09:22:44.000Z</time>
      </trkpt>
      <trkpt lat="45.85703" lon="3.53658">
        <ele>351.8</ele>
        <time>2026-05-10T09:22:45.000Z</time>
      </trkpt>
      <trkpt lat="45.85704" lon="3.53656">
        <ele>351.6</ele>
        <time>2026-05-10T09:22:46.000Z</time>
      </trkpt>
      <trkpt lat="45.85704" lon="3.53654">
        <ele>351.5</ele>
        <time>2026-05-10T09:22:47.000Z</time>
      </trkpt>
      <trkpt lat="45.85705" lon="3.53652">
        <ele>351.4</ele>
        <time>2026-05-10T09:22:48.000Z</time>
      </trkpt>
      <trkpt lat="45.85705" lon="3.53651">
        <ele>351.4</ele>
        <time>2026-05-10T09:22:49.000Z</time>
      </trkpt>
      <trkpt lat="45.85706" lon="3.5365">
        <ele>351.4</ele>
        <time>2026-05-10T09:22:50.000Z</time>
      </trkpt>
      <trkpt lat="45.85707" lon="3.53648">
        <ele>351.2</ele>
        <time>2026-05-10T09:22:51.000Z</time>
      </trkpt>
      <trkpt lat="45.85707" lon="3.53645">
        <ele>351</ele>
        <time>2026-05-10T09:22:52.000Z</time>
      </trkpt>
      <trkpt lat="45.85708" lon="3.53643">
        <ele>350.8</ele>
        <time>2026-05-10T09:22:53.000Z</time>
      </trkpt>
      <trkpt lat="45.85708" lon="3.53641">
        <ele>350.6</ele>
        <time>2026-05-10T09:22:54.000Z</time>
      </trkpt>
      <trkpt lat="45.85709" lon="3.53639">
        <ele>350.5</ele>
        <time>2026-05-10T09:22:55.000Z</time>
      </trkpt>
      <trkpt lat="45.85709" lon="3.53637">
        <ele>350.5</ele>
        <time>2026-05-10T09:22:56.000Z</time>
      </trkpt>
      <trkpt lat="45.8571" lon="3.53636">
        <ele>350.5</ele>
        <time>2026-05-10T09:22:57.000Z</time>
      </trkpt>
      <trkpt lat="45.8571" lon="3.53634">
        <ele>350.5</ele>
        <time>2026-05-10T09:22:58.000Z</time>
      </trkpt>
      <trkpt lat="45.85711" lon="3.53633">
        <ele>350.5</ele>
        <time>2026-05-10T09:22:59.000Z</time>
      </trkpt>
      <trkpt lat="45.85711" lon="3.53631">
        <ele>350.4</ele>
        <time>2026-05-10T09:23:00.000Z</time>
      </trkpt>
      <trkpt lat="45.85712" lon="3.53629">
        <ele>350.4</ele>
        <time>2026-05-10T09:23:01.000Z</time>
      </trkpt>
      <trkpt lat="45.85713" lon="3.53628">
        <ele>350.4</ele>
        <time>2026-05-10T09:23:02.000Z</time>
      </trkpt>
      <trkpt lat="45.85714" lon="3.53626">
        <ele>350.5</ele>
        <time>2026-05-10T09:23:03.000Z</time>
      </trkpt>
      <trkpt lat="45.85714" lon="3.53624">
        <ele>350.4</ele>
        <time>2026-05-10T09:23:04.000Z</time>
      </trkpt>
      <trkpt lat="45.85715" lon="3.53622">
        <ele>350.5</ele>
        <time>2026-05-10T09:23:05.000Z</time>
      </trkpt>
      <trkpt lat="45.85716" lon="3.5362">
        <ele>350.5</ele>
        <time>2026-05-10T09:23:06.000Z</time>
      </trkpt>
      <trkpt lat="45.85717" lon="3.53618">
        <ele>350.6</ele>
        <time>2026-05-10T09:23:07.000Z</time>
      </trkpt>
      <trkpt lat="45.85718" lon="3.53617">
        <ele>350.5</ele>
        <time>2026-05-10T09:23:08.000Z</time>
      </trkpt>
      <trkpt lat="45.85719" lon="3.53615">
        <ele>350.6</ele>
        <time>2026-05-10T09:23:09.000Z</time>
      </trkpt>
      <trkpt lat="45.8572" lon="3.53613">
        <ele>350.6</ele>
        <time>2026-05-10T09:23:10.000Z</time>
      </trkpt>
      <trkpt lat="45.85721" lon="3.53612">
        <ele>350.7</ele>
        <time>2026-05-10T09:23:11.000Z</time>
      </trkpt>
      <trkpt lat="45.85721" lon="3.53612">
        <ele>350.8</ele>
        <time>2026-05-10T09:23:12.000Z</time>
      </trkpt>
      <trkpt lat="45.85722" lon="3.53611">
        <ele>350.9</ele>
        <time>2026-05-10T09:23:13.000Z</time>
      </trkpt>
      <trkpt lat="45.85723" lon="3.5361">
        <ele>350.9</ele>
        <time>2026-05-10T09:23:14.000Z</time>
      </trkpt>
      <trkpt lat="45.85724" lon="3.53608">
        <ele>350.9</ele>
        <time>2026-05-10T09:23:15.000Z</time>
      </trkpt>
      <trkpt lat="45.85725" lon="3.53607">
        <ele>350.8</ele>
        <time>2026-05-10T09:23:16.000Z</time>
      </trkpt>
      <trkpt lat="45.85725" lon="3.53606">
        <ele>350.8</ele>
        <time>2026-05-10T09:23:17.000Z</time>
      </trkpt>
      <trkpt lat="45.85726" lon="3.53605">
        <ele>350.7</ele>
        <time>2026-05-10T09:23:18.000Z</time>
      </trkpt>
      <trkpt lat="45.85727" lon="3.53604">
        <ele>350.6</ele>
        <time>2026-05-10T09:23:19.000Z</time>
      </trkpt>
      <trkpt lat="45.85728" lon="3.53602">
        <ele>350.5</ele>
        <time>2026-05-10T09:23:20.000Z</time>
      </trkpt>
      <trkpt lat="45.85729" lon="3.536">
        <ele>350.4</ele>
        <time>2026-05-10T09:23:21.000Z</time>
      </trkpt>
      <trkpt lat="45.8573" lon="3.53599">
        <ele>350.4</ele>
        <time>2026-05-10T09:23:22.000Z</time>
      </trkpt>
      <trkpt lat="45.85731" lon="3.53598">
        <ele>350.3</ele>
        <time>2026-05-10T09:23:23.000Z</time>
      </trkpt>
      <trkpt lat="45.85732" lon="3.53596">
        <ele>350.2</ele>
        <time>2026-05-10T09:23:24.000Z</time>
      </trkpt>
      <trkpt lat="45.85733" lon="3.53594">
        <ele>350</ele>
        <time>2026-05-10T09:23:25.000Z</time>
      </trkpt>
      <trkpt lat="45.85734" lon="3.53592">
        <ele>349.8</ele>
        <time>2026-05-10T09:23:26.000Z</time>
      </trkpt>
      <trkpt lat="45.85735" lon="3.5359">
        <ele>349.5</ele>
        <time>2026-05-10T09:23:27.000Z</time>
      </trkpt>
      <trkpt lat="45.85736" lon="3.53588">
        <ele>349.3</ele>
        <time>2026-05-10T09:23:28.000Z</time>
      </trkpt>
      <trkpt lat="45.85736" lon="3.53586">
        <ele>349</ele>
        <time>2026-05-10T09:23:29.000Z</time>
      </trkpt>
      <trkpt lat="45.85737" lon="3.53584">
        <ele>348.7</ele>
        <time>2026-05-10T09:23:30.000Z</time>
      </trkpt>
      <trkpt lat="45.85736" lon="3.53582">
        <ele>348.6</ele>
        <time>2026-05-10T09:23:31.000Z</time>
      </trkpt>
      <trkpt lat="45.85736" lon="3.53581">
        <ele>348.7</ele>
        <time>2026-05-10T09:23:32.000Z</time>
      </trkpt>
      <trkpt lat="45.85735" lon="3.53579">
        <ele>348.6</ele>
        <time>2026-05-10T09:23:33.000Z</time>
      </trkpt>
      <trkpt lat="45.85735" lon="3.53578">
        <ele>348.6</ele>
        <time>2026-05-10T09:23:34.000Z</time>
      </trkpt>
      <trkpt lat="45.85734" lon="3.53577">
        <ele>348.7</ele>
        <time>2026-05-10T09:23:35.000Z</time>
      </trkpt>
      <trkpt lat="45.85733" lon="3.53576">
        <ele>348.7</ele>
        <time>2026-05-10T09:23:36.000Z</time>
      </trkpt>
      <trkpt lat="45.85732" lon="3.53575">
        <ele>348.6</ele>
        <time>2026-05-10T09:23:37.000Z</time>
      </trkpt>
      <trkpt lat="45.85731" lon="3.53575">
        <ele>348.6</ele>
        <time>2026-05-10T09:23:38.000Z</time>
      </trkpt>
      <trkpt lat="45.85729" lon="3.53574">
        <ele>348.5</ele>
        <time>2026-05-10T09:23:39.000Z</time>
      </trkpt>
      <trkpt lat="45.85727" lon="3.53573">
        <ele>348.3</ele>
        <time>2026-05-10T09:23:40.000Z</time>
      </trkpt>
      <trkpt lat="45.85726" lon="3.53574">
        <ele>348.1</ele>
        <time>2026-05-10T09:23:41.000Z</time>
      </trkpt>
      <trkpt lat="45.85724" lon="3.53574">
        <ele>347.9</ele>
        <time>2026-05-10T09:23:42.000Z</time>
      </trkpt>
      <trkpt lat="45.85723" lon="3.53575">
        <ele>347.7</ele>
        <time>2026-05-10T09:23:43.000Z</time>
      </trkpt>
      <trkpt lat="45.85722" lon="3.53576">
        <ele>347.4</ele>
        <time>2026-05-10T09:23:44.000Z</time>
      </trkpt>
      <trkpt lat="45.85721" lon="3.53577">
        <ele>347.4</ele>
        <time>2026-05-10T09:23:45.000Z</time>
      </trkpt>
      <trkpt lat="45.85719" lon="3.53578">
        <ele>347.3</ele>
        <time>2026-05-10T09:23:46.000Z</time>
      </trkpt>
      <trkpt lat="45.85718" lon="3.53579">
        <ele>347.2</ele>
        <time>2026-05-10T09:23:47.000Z</time>
      </trkpt>
      <trkpt lat="45.85717" lon="3.5358">
        <ele>347.1</ele>
        <time>2026-05-10T09:23:48.000Z</time>
      </trkpt>
      <trkpt lat="45.85715" lon="3.53581">
        <ele>347</ele>
        <time>2026-05-10T09:23:49.000Z</time>
      </trkpt>
      <trkpt lat="45.85714" lon="3.53583">
        <ele>346.8</ele>
        <time>2026-05-10T09:23:50.000Z</time>
      </trkpt>
      <trkpt lat="45.85713" lon="3.53584">
        <ele>346.7</ele>
        <time>2026-05-10T09:23:51.000Z</time>
      </trkpt>
      <trkpt lat="45.85712" lon="3.53585">
        <ele>346.8</ele>
        <time>2026-05-10T09:23:52.000Z</time>
      </trkpt>
      <trkpt lat="45.85711" lon="3.53586">
        <ele>346.9</ele>
        <time>2026-05-10T09:23:53.000Z</time>
      </trkpt>
      <trkpt lat="45.8571" lon="3.53587">
        <ele>346.9</ele>
        <time>2026-05-10T09:23:54.000Z</time>
      </trkpt>
      <trkpt lat="45.85709" lon="3.53588">
        <ele>347</ele>
        <time>2026-05-10T09:23:55.000Z</time>
      </trkpt>
      <trkpt lat="45.85708" lon="3.53589">
        <ele>347</ele>
        <time>2026-05-10T09:23:56.000Z</time>
      </trkpt>
      <trkpt lat="45.85707" lon="3.5359">
        <ele>347</ele>
        <time>2026-05-10T09:23:57.000Z</time>
      </trkpt>
      <trkpt lat="45.85706" lon="3.53591">
        <ele>347</ele>
        <time>2026-05-10T09:23:58.000Z</time>
      </trkpt>
      <trkpt lat="45.85705" lon="3.53592">
        <ele>346.9</ele>
        <time>2026-05-10T09:23:59.000Z</time>
      </trkpt>
      <trkpt lat="45.85704" lon="3.53593">
        <ele>346.8</ele>
        <time>2026-05-10T09:24:00.000Z</time>
      </trkpt>
      <trkpt lat="45.85703" lon="3.53595">
        <ele>346.6</ele>
        <time>2026-05-10T09:24:01.000Z</time>
      </trkpt>
      <trkpt lat="45.85702" lon="3.53596">
        <ele>346.4</ele>
        <time>2026-05-10T09:24:02.000Z</time>
      </trkpt>
      <trkpt lat="45.85701" lon="3.53598">
        <ele>346.2</ele>
        <time>2026-05-10T09:24:03.000Z</time>
      </trkpt>
      <trkpt lat="45.857" lon="3.53599">
        <ele>345.9</ele>
        <time>2026-05-10T09:24:04.000Z</time>
      </trkpt>
      <trkpt lat="45.85699" lon="3.536">
        <ele>345.6</ele>
        <time>2026-05-10T09:24:05.000Z</time>
      </trkpt>
      <trkpt lat="45.85697" lon="3.53602">
        <ele>345.2</ele>
        <time>2026-05-10T09:24:06.000Z</time>
      </trkpt>
      <trkpt lat="45.85696" lon="3.53603">
        <ele>344.8</ele>
        <time>2026-05-10T09:24:07.000Z</time>
      </trkpt>
      <trkpt lat="45.85695" lon="3.53604">
        <ele>344.4</ele>
        <time>2026-05-10T09:24:08.000Z</time>
      </trkpt>
      <trkpt lat="45.85694" lon="3.53605">
        <ele>344.2</ele>
        <time>2026-05-10T09:24:09.000Z</time>
      </trkpt>
      <trkpt lat="45.85693" lon="3.53606">
        <ele>344.2</ele>
        <time>2026-05-10T09:24:10.000Z</time>
      </trkpt>
      <trkpt lat="45.85692" lon="3.53607">
        <ele>344.2</ele>
        <time>2026-05-10T09:24:11.000Z</time>
      </trkpt>
      <trkpt lat="45.85691" lon="3.53609">
        <ele>344.2</ele>
        <time>2026-05-10T09:24:12.000Z</time>
      </trkpt>
      <trkpt lat="45.8569" lon="3.5361">
        <ele>344.1</ele>
        <time>2026-05-10T09:24:13.000Z</time>
      </trkpt>
      <trkpt lat="45.8569" lon="3.53611">
        <ele>344.1</ele>
        <time>2026-05-10T09:24:14.000Z</time>
      </trkpt>
      <trkpt lat="45.85689" lon="3.53613">
        <ele>344.3</ele>
        <time>2026-05-10T09:24:15.000Z</time>
      </trkpt>
      <trkpt lat="45.85688" lon="3.53614">
        <ele>344.5</ele>
        <time>2026-05-10T09:24:16.000Z</time>
      </trkpt>
      <trkpt lat="45.85687" lon="3.53615">
        <ele>344.7</ele>
        <time>2026-05-10T09:24:17.000Z</time>
      </trkpt>
      <trkpt lat="45.85686" lon="3.53616">
        <ele>344.9</ele>
        <time>2026-05-10T09:24:18.000Z</time>
      </trkpt>
      <trkpt lat="45.85685" lon="3.53618">
        <ele>345.1</ele>
        <time>2026-05-10T09:24:19.000Z</time>
      </trkpt>
      <trkpt lat="45.85684" lon="3.53619">
        <ele>345.2</ele>
        <time>2026-05-10T09:24:20.000Z</time>
      </trkpt>
      <trkpt lat="45.85683" lon="3.5362">
        <ele>345.3</ele>
        <time>2026-05-10T09:24:21.000Z</time>
      </trkpt>
      <trkpt lat="45.85682" lon="3.53622">
        <ele>345.3</ele>
        <time>2026-05-10T09:24:22.000Z</time>
      </trkpt>
      <trkpt lat="45.85681" lon="3.53623">
        <ele>345.3</ele>
        <time>2026-05-10T09:24:23.000Z</time>
      </trkpt>
      <trkpt lat="45.8568" lon="3.53625">
        <ele>345.3</ele>
        <time>2026-05-10T09:24:24.000Z</time>
      </trkpt>
      <trkpt lat="45.85679" lon="3.53626">
        <ele>345.3</ele>
        <time>2026-05-10T09:24:25.000Z</time>
      </trkpt>
      <trkpt lat="45.85678" lon="3.53627">
        <ele>345.2</ele>
        <time>2026-05-10T09:24:26.000Z</time>
      </trkpt>
      <trkpt lat="45.85677" lon="3.53629">
        <ele>345.1</ele>
        <time>2026-05-10T09:24:27.000Z</time>
      </trkpt>
      <trkpt lat="45.85676" lon="3.5363">
        <ele>345</ele>
        <time>2026-05-10T09:24:28.000Z</time>
      </trkpt>
      <trkpt lat="45.85675" lon="3.53631">
        <ele>344.8</ele>
        <time>2026-05-10T09:24:29.000Z</time>
      </trkpt>
      <trkpt lat="45.85674" lon="3.53633">
        <ele>344.6</ele>
        <time>2026-05-10T09:24:30.000Z</time>
      </trkpt>
      <trkpt lat="45.85673" lon="3.53634">
        <ele>344.5</ele>
        <time>2026-05-10T09:24:31.000Z</time>
      </trkpt>
      <trkpt lat="45.85672" lon="3.53635">
        <ele>344.2</ele>
        <time>2026-05-10T09:24:32.000Z</time>
      </trkpt>
      <trkpt lat="45.85671" lon="3.53636">
        <ele>344</ele>
        <time>2026-05-10T09:24:33.000Z</time>
      </trkpt>
      <trkpt lat="45.8567" lon="3.53637">
        <ele>343.7</ele>
        <time>2026-05-10T09:24:34.000Z</time>
      </trkpt>
      <trkpt lat="45.85669" lon="3.53639">
        <ele>343.3</ele>
        <time>2026-05-10T09:24:35.000Z</time>
      </trkpt>
      <trkpt lat="45.85668" lon="3.5364">
        <ele>343.1</ele>
        <time>2026-05-10T09:24:36.000Z</time>
      </trkpt>
      <trkpt lat="45.85667" lon="3.53641">
        <ele>342.8</ele>
        <time>2026-05-10T09:24:37.000Z</time>
      </trkpt>
      <trkpt lat="45.85666" lon="3.53643">
        <ele>342.7</ele>
        <time>2026-05-10T09:24:38.000Z</time>
      </trkpt>
      <trkpt lat="45.85666" lon="3.53645">
        <ele>342.7</ele>
        <time>2026-05-10T09:24:39.000Z</time>
      </trkpt>
      <trkpt lat="45.85665" lon="3.53646">
        <ele>342.7</ele>
        <time>2026-05-10T09:24:40.000Z</time>
      </trkpt>
      <trkpt lat="45.85664" lon="3.53647">
        <ele>342.8</ele>
        <time>2026-05-10T09:24:41.000Z</time>
      </trkpt>
      <trkpt lat="45.85664" lon="3.53648">
        <ele>342.8</ele>
        <time>2026-05-10T09:24:42.000Z</time>
      </trkpt>
      <trkpt lat="45.85663" lon="3.5365">
        <ele>342.8</ele>
        <time>2026-05-10T09:24:43.000Z</time>
      </trkpt>
      <trkpt lat="45.85662" lon="3.53651">
        <ele>342.8</ele>
        <time>2026-05-10T09:24:44.000Z</time>
      </trkpt>
      <trkpt lat="45.85661" lon="3.53653">
        <ele>342.8</ele>
        <time>2026-05-10T09:24:45.000Z</time>
      </trkpt>
      <trkpt lat="45.85659" lon="3.53655">
        <ele>342.7</ele>
        <time>2026-05-10T09:24:46.000Z</time>
      </trkpt>
      <trkpt lat="45.85658" lon="3.53657">
        <ele>342.6</ele>
        <time>2026-05-10T09:24:47.000Z</time>
      </trkpt>
      <trkpt lat="45.85657" lon="3.53659">
        <ele>342.4</ele>
        <time>2026-05-10T09:24:48.000Z</time>
      </trkpt>
      <trkpt lat="45.85656" lon="3.5366">
        <ele>342.2</ele>
        <time>2026-05-10T09:24:49.000Z</time>
      </trkpt>
      <trkpt lat="45.85655" lon="3.53661">
        <ele>342</ele>
        <time>2026-05-10T09:24:50.000Z</time>
      </trkpt>
      <trkpt lat="45.85655" lon="3.53662">
        <ele>341.9</ele>
        <time>2026-05-10T09:24:51.000Z</time>
      </trkpt>
      <trkpt lat="45.85654" lon="3.53663">
        <ele>341.8</ele>
        <time>2026-05-10T09:24:52.000Z</time>
      </trkpt>
      <trkpt lat="45.85653" lon="3.53665">
        <ele>341.6</ele>
        <time>2026-05-10T09:24:53.000Z</time>
      </trkpt>
      <trkpt lat="45.85652" lon="3.53666">
        <ele>341.2</ele>
        <time>2026-05-10T09:24:54.000Z</time>
      </trkpt>
      <trkpt lat="45.85651" lon="3.53668">
        <ele>341.1</ele>
        <time>2026-05-10T09:24:55.000Z</time>
      </trkpt>
      <trkpt lat="45.8565" lon="3.53669">
        <ele>341.1</ele>
        <time>2026-05-10T09:24:56.000Z</time>
      </trkpt>
      <trkpt lat="45.85649" lon="3.5367">
        <ele>341.1</ele>
        <time>2026-05-10T09:24:57.000Z</time>
      </trkpt>
      <trkpt lat="45.85648" lon="3.53672">
        <ele>341</ele>
        <time>2026-05-10T09:24:58.000Z</time>
      </trkpt>
      <trkpt lat="45.85647" lon="3.53673">
        <ele>341</ele>
        <time>2026-05-10T09:24:59.000Z</time>
      </trkpt>
      <trkpt lat="45.85646" lon="3.53675">
        <ele>340.9</ele>
        <time>2026-05-10T09:25:00.000Z</time>
      </trkpt>
      <trkpt lat="45.85645" lon="3.53676">
        <ele>340.7</ele>
        <time>2026-05-10T09:25:01.000Z</time>
      </trkpt>
      <trkpt lat="45.85644" lon="3.53678">
        <ele>340.6</ele>
        <time>2026-05-10T09:25:02.000Z</time>
      </trkpt>
      <trkpt lat="45.85643" lon="3.53679">
        <ele>340.4</ele>
        <time>2026-05-10T09:25:03.000Z</time>
      </trkpt>
      <trkpt lat="45.85642" lon="3.5368">
        <ele>340.2</ele>
        <time>2026-05-10T09:25:04.000Z</time>
      </trkpt>
      <trkpt lat="45.85641" lon="3.53682">
        <ele>340</ele>
        <time>2026-05-10T09:25:05.000Z</time>
      </trkpt>
      <trkpt lat="45.8564" lon="3.53683">
        <ele>339.8</ele>
        <time>2026-05-10T09:25:06.000Z</time>
      </trkpt>
      <trkpt lat="45.8564" lon="3.53684">
        <ele>339.5</ele>
        <time>2026-05-10T09:25:07.000Z</time>
      </trkpt>
      <trkpt lat="45.85638" lon="3.53685">
        <ele>339.4</ele>
        <time>2026-05-10T09:25:08.000Z</time>
      </trkpt>
      <trkpt lat="45.85637" lon="3.53687">
        <ele>339.4</ele>
        <time>2026-05-10T09:25:09.000Z</time>
      </trkpt>
      <trkpt lat="45.85636" lon="3.53688">
        <ele>339.3</ele>
        <time>2026-05-10T09:25:10.000Z</time>
      </trkpt>
      <trkpt lat="45.85635" lon="3.53689">
        <ele>339.2</ele>
        <time>2026-05-10T09:25:11.000Z</time>
      </trkpt>
      <trkpt lat="45.85634" lon="3.53691">
        <ele>339.1</ele>
        <time>2026-05-10T09:25:12.000Z</time>
      </trkpt>
      <trkpt lat="45.85633" lon="3.53692">
        <ele>339</ele>
        <time>2026-05-10T09:25:13.000Z</time>
      </trkpt>
      <trkpt lat="45.85631" lon="3.53693">
        <ele>338.8</ele>
        <time>2026-05-10T09:25:14.000Z</time>
      </trkpt>
      <trkpt lat="45.8563" lon="3.53695">
        <ele>338.6</ele>
        <time>2026-05-10T09:25:15.000Z</time>
      </trkpt>
      <trkpt lat="45.85629" lon="3.53696">
        <ele>338.7</ele>
        <time>2026-05-10T09:25:16.000Z</time>
      </trkpt>
      <trkpt lat="45.85628" lon="3.53697">
        <ele>338.7</ele>
        <time>2026-05-10T09:25:17.000Z</time>
      </trkpt>
      <trkpt lat="45.85627" lon="3.53698">
        <ele>338.7</ele>
        <time>2026-05-10T09:25:18.000Z</time>
      </trkpt>
      <trkpt lat="45.85626" lon="3.53699">
        <ele>338.7</ele>
        <time>2026-05-10T09:25:19.000Z</time>
      </trkpt>
      <trkpt lat="45.85625" lon="3.537">
        <ele>338.7</ele>
        <time>2026-05-10T09:25:20.000Z</time>
      </trkpt>
      <trkpt lat="45.85624" lon="3.53702">
        <ele>338.6</ele>
        <time>2026-05-10T09:25:21.000Z</time>
      </trkpt>
      <trkpt lat="45.85622" lon="3.53703">
        <ele>338.6</ele>
        <time>2026-05-10T09:25:22.000Z</time>
      </trkpt>
      <trkpt lat="45.85621" lon="3.53704">
        <ele>338.5</ele>
        <time>2026-05-10T09:25:23.000Z</time>
      </trkpt>
      <trkpt lat="45.8562" lon="3.53705">
        <ele>338.4</ele>
        <time>2026-05-10T09:25:24.000Z</time>
      </trkpt>
      <trkpt lat="45.85619" lon="3.53706">
        <ele>338.3</ele>
        <time>2026-05-10T09:25:25.000Z</time>
      </trkpt>
      <trkpt lat="45.85618" lon="3.53707">
        <ele>338.2</ele>
        <time>2026-05-10T09:25:26.000Z</time>
      </trkpt>
      <trkpt lat="45.85617" lon="3.53708">
        <ele>338.1</ele>
        <time>2026-05-10T09:25:27.000Z</time>
      </trkpt>
      <trkpt lat="45.85616" lon="3.53709">
        <ele>338</ele>
        <time>2026-05-10T09:25:28.000Z</time>
      </trkpt>
      <trkpt lat="45.85614" lon="3.5371">
        <ele>337.8</ele>
        <time>2026-05-10T09:25:29.000Z</time>
      </trkpt>
      <trkpt lat="45.85613" lon="3.53711">
        <ele>337.7</ele>
        <time>2026-05-10T09:25:30.000Z</time>
      </trkpt>
      <trkpt lat="45.85612" lon="3.53712">
        <ele>337.5</ele>
        <time>2026-05-10T09:25:31.000Z</time>
      </trkpt>
      <trkpt lat="45.85611" lon="3.53713">
        <ele>337.5</ele>
        <time>2026-05-10T09:25:32.000Z</time>
      </trkpt>
      <trkpt lat="45.85609" lon="3.53714">
        <ele>337.5</ele>
        <time>2026-05-10T09:25:33.000Z</time>
      </trkpt>
      <trkpt lat="45.85608" lon="3.53714">
        <ele>337.6</ele>
        <time>2026-05-10T09:25:34.000Z</time>
      </trkpt>
      <trkpt lat="45.85607" lon="3.53715">
        <ele>337.7</ele>
        <time>2026-05-10T09:25:35.000Z</time>
      </trkpt>
      <trkpt lat="45.85606" lon="3.53715">
        <ele>337.8</ele>
        <time>2026-05-10T09:25:36.000Z</time>
      </trkpt>
      <trkpt lat="45.85604" lon="3.53715">
        <ele>338</ele>
        <time>2026-05-10T09:25:37.000Z</time>
      </trkpt>
      <trkpt lat="45.85602" lon="3.53715">
        <ele>338.2</ele>
        <time>2026-05-10T09:25:38.000Z</time>
      </trkpt>
      <trkpt lat="45.85601" lon="3.53715">
        <ele>338.4</ele>
        <time>2026-05-10T09:25:39.000Z</time>
      </trkpt>
      <trkpt lat="45.85599" lon="3.53715">
        <ele>338.7</ele>
        <time>2026-05-10T09:25:40.000Z</time>
      </trkpt>
      <trkpt lat="45.85597" lon="3.53715">
        <ele>338.9</ele>
        <time>2026-05-10T09:25:41.000Z</time>
      </trkpt>
      <trkpt lat="45.85596" lon="3.53715">
        <ele>339</ele>
        <time>2026-05-10T09:25:42.000Z</time>
      </trkpt>
      <trkpt lat="45.85594" lon="3.53716">
        <ele>339</ele>
        <time>2026-05-10T09:25:43.000Z</time>
      </trkpt>
      <trkpt lat="45.85593" lon="3.53716">
        <ele>339</ele>
        <time>2026-05-10T09:25:44.000Z</time>
      </trkpt>
      <trkpt lat="45.85592" lon="3.53717">
        <ele>338.9</ele>
        <time>2026-05-10T09:25:45.000Z</time>
      </trkpt>
      <trkpt lat="45.85591" lon="3.53717">
        <ele>338.9</ele>
        <time>2026-05-10T09:25:46.000Z</time>
      </trkpt>
      <trkpt lat="45.8559" lon="3.53718">
        <ele>338.8</ele>
        <time>2026-05-10T09:25:47.000Z</time>
      </trkpt>
      <trkpt lat="45.85588" lon="3.53719">
        <ele>338.6</ele>
        <time>2026-05-10T09:25:48.000Z</time>
      </trkpt>
      <trkpt lat="45.85587" lon="3.5372">
        <ele>338.4</ele>
        <time>2026-05-10T09:25:49.000Z</time>
      </trkpt>
      <trkpt lat="45.85586" lon="3.53721">
        <ele>338.3</ele>
        <time>2026-05-10T09:25:50.000Z</time>
      </trkpt>
      <trkpt lat="45.85585" lon="3.53722">
        <ele>338.1</ele>
        <time>2026-05-10T09:25:51.000Z</time>
      </trkpt>
      <trkpt lat="45.85584" lon="3.53722">
        <ele>338</ele>
        <time>2026-05-10T09:25:52.000Z</time>
      </trkpt>
      <trkpt lat="45.85583" lon="3.53723">
        <ele>337.9</ele>
        <time>2026-05-10T09:25:53.000Z</time>
      </trkpt>
      <trkpt lat="45.85582" lon="3.53724">
        <ele>338.1</ele>
        <time>2026-05-10T09:25:54.000Z</time>
      </trkpt>
      <trkpt lat="45.8558" lon="3.53726">
        <ele>338.1</ele>
        <time>2026-05-10T09:25:55.000Z</time>
      </trkpt>
      <trkpt lat="45.85579" lon="3.53727">
        <ele>338.1</ele>
        <time>2026-05-10T09:25:56.000Z</time>
      </trkpt>
      <trkpt lat="45.85578" lon="3.53729">
        <ele>338</ele>
        <time>2026-05-10T09:25:57.000Z</time>
      </trkpt>
      <trkpt lat="45.85577" lon="3.5373">
        <ele>338</ele>
        <time>2026-05-10T09:25:58.000Z</time>
      </trkpt>
      <trkpt lat="45.85576" lon="3.5373">
        <ele>338</ele>
        <time>2026-05-10T09:25:59.000Z</time>
      </trkpt>
      <trkpt lat="45.85575" lon="3.53731">
        <ele>338.1</ele>
        <time>2026-05-10T09:26:00.000Z</time>
      </trkpt>
      <trkpt lat="45.85574" lon="3.53732">
        <ele>338</ele>
        <time>2026-05-10T09:26:01.000Z</time>
      </trkpt>
      <trkpt lat="45.85574" lon="3.53732">
        <ele>338.1</ele>
        <time>2026-05-10T09:26:02.000Z</time>
      </trkpt>
      <trkpt lat="45.85573" lon="3.53733">
        <ele>338.1</ele>
        <time>2026-05-10T09:26:03.000Z</time>
      </trkpt>
      <trkpt lat="45.85572" lon="3.53733">
        <ele>338.2</ele>
        <time>2026-05-10T09:26:04.000Z</time>
      </trkpt>
      <trkpt lat="45.85571" lon="3.53733">
        <ele>338.3</ele>
        <time>2026-05-10T09:26:05.000Z</time>
      </trkpt>
      <trkpt lat="45.8557" lon="3.53733">
        <ele>338.4</ele>
        <time>2026-05-10T09:26:06.000Z</time>
      </trkpt>
      <trkpt lat="45.85568" lon="3.53734">
        <ele>338.5</ele>
        <time>2026-05-10T09:26:07.000Z</time>
      </trkpt>
      <trkpt lat="45.85566" lon="3.53735">
        <ele>338.5</ele>
        <time>2026-05-10T09:26:08.000Z</time>
      </trkpt>
      <trkpt lat="45.85565" lon="3.53736">
        <ele>338.4</ele>
        <time>2026-05-10T09:26:09.000Z</time>
      </trkpt>
      <trkpt lat="45.85563" lon="3.53737">
        <ele>338.4</ele>
        <time>2026-05-10T09:26:10.000Z</time>
      </trkpt>
      <trkpt lat="45.85562" lon="3.53738">
        <ele>338.3</ele>
        <time>2026-05-10T09:26:11.000Z</time>
      </trkpt>
      <trkpt lat="45.8556" lon="3.53738">
        <ele>338.2</ele>
        <time>2026-05-10T09:26:12.000Z</time>
      </trkpt>
      <trkpt lat="45.85559" lon="3.53739">
        <ele>338.2</ele>
        <time>2026-05-10T09:26:13.000Z</time>
      </trkpt>
      <trkpt lat="45.85558" lon="3.5374">
        <ele>338.1</ele>
        <time>2026-05-10T09:26:14.000Z</time>
      </trkpt>
      <trkpt lat="45.85557" lon="3.5374">
        <ele>338</ele>
        <time>2026-05-10T09:26:15.000Z</time>
      </trkpt>
      <trkpt lat="45.85556" lon="3.53741">
        <ele>337.9</ele>
        <time>2026-05-10T09:26:16.000Z</time>
      </trkpt>
      <trkpt lat="45.85556" lon="3.53741">
        <ele>337.8</ele>
        <time>2026-05-10T09:26:17.000Z</time>
      </trkpt>
      <trkpt lat="45.85554" lon="3.53742">
        <ele>337.5</ele>
        <time>2026-05-10T09:26:18.000Z</time>
      </trkpt>
      <trkpt lat="45.85553" lon="3.53744">
        <ele>337.2</ele>
        <time>2026-05-10T09:26:19.000Z</time>
      </trkpt>
      <trkpt lat="45.85552" lon="3.53745">
        <ele>336.8</ele>
        <time>2026-05-10T09:26:20.000Z</time>
      </trkpt>
      <trkpt lat="45.85551" lon="3.53746">
        <ele>336.4</ele>
        <time>2026-05-10T09:26:21.000Z</time>
      </trkpt>
      <trkpt lat="45.85549" lon="3.53747">
        <ele>336.1</ele>
        <time>2026-05-10T09:26:22.000Z</time>
      </trkpt>
      <trkpt lat="45.85548" lon="3.53748">
        <ele>335.8</ele>
        <time>2026-05-10T09:26:23.000Z</time>
      </trkpt>
      <trkpt lat="45.85547" lon="3.53749">
        <ele>335.7</ele>
        <time>2026-05-10T09:26:24.000Z</time>
      </trkpt>
      <trkpt lat="45.85546" lon="3.5375">
        <ele>335.5</ele>
        <time>2026-05-10T09:26:25.000Z</time>
      </trkpt>
      <trkpt lat="45.85545" lon="3.5375">
        <ele>335.4</ele>
        <time>2026-05-10T09:26:26.000Z</time>
      </trkpt>
      <trkpt lat="45.85544" lon="3.53751">
        <ele>335.3</ele>
        <time>2026-05-10T09:26:27.000Z</time>
      </trkpt>
      <trkpt lat="45.85543" lon="3.53751">
        <ele>335.3</ele>
        <time>2026-05-10T09:26:28.000Z</time>
      </trkpt>
      <trkpt lat="45.85543" lon="3.53751">
        <ele>335.3</ele>
        <time>2026-05-10T09:26:29.000Z</time>
      </trkpt>
      <trkpt lat="45.85542" lon="3.53751">
        <ele>335.3</ele>
        <time>2026-05-10T09:26:30.000Z</time>
      </trkpt>
      <trkpt lat="45.85541" lon="3.53752">
        <ele>335.2</ele>
        <time>2026-05-10T09:26:31.000Z</time>
      </trkpt>
      <trkpt lat="45.85539" lon="3.53753">
        <ele>335.2</ele>
        <time>2026-05-10T09:26:32.000Z</time>
      </trkpt>
      <trkpt lat="45.85538" lon="3.53754">
        <ele>335.1</ele>
        <time>2026-05-10T09:26:33.000Z</time>
      </trkpt>
      <trkpt lat="45.85536" lon="3.53754">
        <ele>335.1</ele>
        <time>2026-05-10T09:26:34.000Z</time>
      </trkpt>
      <trkpt lat="45.85535" lon="3.53755">
        <ele>335</ele>
        <time>2026-05-10T09:26:35.000Z</time>
      </trkpt>
      <trkpt lat="45.85533" lon="3.53755">
        <ele>335</ele>
        <time>2026-05-10T09:26:36.000Z</time>
      </trkpt>
      <trkpt lat="45.85532" lon="3.53756">
        <ele>335</ele>
        <time>2026-05-10T09:26:37.000Z</time>
      </trkpt>
      <trkpt lat="45.85531" lon="3.53756">
        <ele>335</ele>
        <time>2026-05-10T09:26:38.000Z</time>
      </trkpt>
      <trkpt lat="45.8553" lon="3.53756">
        <ele>335</ele>
        <time>2026-05-10T09:26:39.000Z</time>
      </trkpt>
      <trkpt lat="45.85529" lon="3.53757">
        <ele>335</ele>
        <time>2026-05-10T09:26:40.000Z</time>
      </trkpt>
      <trkpt lat="45.85528" lon="3.53757">
        <ele>335</ele>
        <time>2026-05-10T09:26:41.000Z</time>
      </trkpt>
      <trkpt lat="45.85527" lon="3.53757">
        <ele>335.1</ele>
        <time>2026-05-10T09:26:42.000Z</time>
      </trkpt>
      <trkpt lat="45.85525" lon="3.53758">
        <ele>335.2</ele>
        <time>2026-05-10T09:26:43.000Z</time>
      </trkpt>
      <trkpt lat="45.85524" lon="3.53759">
        <ele>335.1</ele>
        <time>2026-05-10T09:26:44.000Z</time>
      </trkpt>
      <trkpt lat="45.85522" lon="3.53759">
        <ele>335.1</ele>
        <time>2026-05-10T09:26:45.000Z</time>
      </trkpt>
      <trkpt lat="45.85521" lon="3.5376">
        <ele>335</ele>
        <time>2026-05-10T09:26:46.000Z</time>
      </trkpt>
      <trkpt lat="45.8552" lon="3.53761">
        <ele>335</ele>
        <time>2026-05-10T09:26:47.000Z</time>
      </trkpt>
      <trkpt lat="45.85519" lon="3.53762">
        <ele>334.8</ele>
        <time>2026-05-10T09:26:48.000Z</time>
      </trkpt>
      <trkpt lat="45.85517" lon="3.53763">
        <ele>334.7</ele>
        <time>2026-05-10T09:26:49.000Z</time>
      </trkpt>
      <trkpt lat="45.85516" lon="3.53764">
        <ele>334.6</ele>
        <time>2026-05-10T09:26:50.000Z</time>
      </trkpt>
      <trkpt lat="45.85515" lon="3.53765">
        <ele>334.5</ele>
        <time>2026-05-10T09:26:51.000Z</time>
      </trkpt>
      <trkpt lat="45.85514" lon="3.53766">
        <ele>334.3</ele>
        <time>2026-05-10T09:26:52.000Z</time>
      </trkpt>
      <trkpt lat="45.85512" lon="3.53767">
        <ele>334.1</ele>
        <time>2026-05-10T09:26:53.000Z</time>
      </trkpt>
      <trkpt lat="45.85511" lon="3.53768">
        <ele>333.9</ele>
        <time>2026-05-10T09:26:54.000Z</time>
      </trkpt>
      <trkpt lat="45.8551" lon="3.53768">
        <ele>333.9</ele>
        <time>2026-05-10T09:26:55.000Z</time>
      </trkpt>
      <trkpt lat="45.85509" lon="3.53769">
        <ele>333.8</ele>
        <time>2026-05-10T09:26:56.000Z</time>
      </trkpt>
      <trkpt lat="45.85507" lon="3.53769">
        <ele>333.7</ele>
        <time>2026-05-10T09:26:57.000Z</time>
      </trkpt>
      <trkpt lat="45.85506" lon="3.5377">
        <ele>333.5</ele>
        <time>2026-05-10T09:26:58.000Z</time>
      </trkpt>
      <trkpt lat="45.85504" lon="3.5377">
        <ele>333.3</ele>
        <time>2026-05-10T09:26:59.000Z</time>
      </trkpt>
      <trkpt lat="45.85503" lon="3.53771">
        <ele>333.1</ele>
        <time>2026-05-10T09:27:00.000Z</time>
      </trkpt>
      <trkpt lat="45.85502" lon="3.53772">
        <ele>333</ele>
        <time>2026-05-10T09:27:01.000Z</time>
      </trkpt>
      <trkpt lat="45.855" lon="3.53773">
        <ele>332.6</ele>
        <time>2026-05-10T09:27:02.000Z</time>
      </trkpt>
      <trkpt lat="45.85499" lon="3.53774">
        <ele>332.4</ele>
        <time>2026-05-10T09:27:03.000Z</time>
      </trkpt>
      <trkpt lat="45.85498" lon="3.53775">
        <ele>332.1</ele>
        <time>2026-05-10T09:27:04.000Z</time>
      </trkpt>
      <trkpt lat="45.85496" lon="3.53776">
        <ele>331.8</ele>
        <time>2026-05-10T09:27:05.000Z</time>
      </trkpt>
      <trkpt lat="45.85495" lon="3.53776">
        <ele>331.6</ele>
        <time>2026-05-10T09:27:06.000Z</time>
      </trkpt>
      <trkpt lat="45.85493" lon="3.53777">
        <ele>331.4</ele>
        <time>2026-05-10T09:27:07.000Z</time>
      </trkpt>
      <trkpt lat="45.85492" lon="3.53778">
        <ele>331.2</ele>
        <time>2026-05-10T09:27:08.000Z</time>
      </trkpt>
      <trkpt lat="45.85491" lon="3.53779">
        <ele>331.1</ele>
        <time>2026-05-10T09:27:09.000Z</time>
      </trkpt>
      <trkpt lat="45.8549" lon="3.5378">
        <ele>331</ele>
        <time>2026-05-10T09:27:10.000Z</time>
      </trkpt>
      <trkpt lat="45.85489" lon="3.5378">
        <ele>330.9</ele>
        <time>2026-05-10T09:27:11.000Z</time>
      </trkpt>
      <trkpt lat="45.85487" lon="3.5378">
        <ele>330.9</ele>
        <time>2026-05-10T09:27:12.000Z</time>
      </trkpt>
      <trkpt lat="45.85486" lon="3.53781">
        <ele>330.9</ele>
        <time>2026-05-10T09:27:13.000Z</time>
      </trkpt>
      <trkpt lat="45.85485" lon="3.53782">
        <ele>330.8</ele>
        <time>2026-05-10T09:27:14.000Z</time>
      </trkpt>
      <trkpt lat="45.85483" lon="3.53782">
        <ele>330.8</ele>
        <time>2026-05-10T09:27:15.000Z</time>
      </trkpt>
      <trkpt lat="45.85482" lon="3.53783">
        <ele>330.7</ele>
        <time>2026-05-10T09:27:16.000Z</time>
      </trkpt>
      <trkpt lat="45.85481" lon="3.53783">
        <ele>330.7</ele>
        <time>2026-05-10T09:27:17.000Z</time>
      </trkpt>
      <trkpt lat="45.8548" lon="3.53784">
        <ele>330.6</ele>
        <time>2026-05-10T09:27:18.000Z</time>
      </trkpt>
      <trkpt lat="45.85479" lon="3.53784">
        <ele>330.6</ele>
        <time>2026-05-10T09:27:19.000Z</time>
      </trkpt>
      <trkpt lat="45.85477" lon="3.53785">
        <ele>330.5</ele>
        <time>2026-05-10T09:27:20.000Z</time>
      </trkpt>
      <trkpt lat="45.85476" lon="3.53786">
        <ele>330.4</ele>
        <time>2026-05-10T09:27:21.000Z</time>
      </trkpt>
      <trkpt lat="45.85475" lon="3.53786">
        <ele>330.4</ele>
        <time>2026-05-10T09:27:22.000Z</time>
      </trkpt>
      <trkpt lat="45.85473" lon="3.53787">
        <ele>330.3</ele>
        <time>2026-05-10T09:27:23.000Z</time>
      </trkpt>
      <trkpt lat="45.85472" lon="3.53788">
        <ele>330.3</ele>
        <time>2026-05-10T09:27:24.000Z</time>
      </trkpt>
      <trkpt lat="45.8547" lon="3.53788">
        <ele>330.4</ele>
        <time>2026-05-10T09:27:25.000Z</time>
      </trkpt>
      <trkpt lat="45.85469" lon="3.53788">
        <ele>330.4</ele>
        <time>2026-05-10T09:27:26.000Z</time>
      </trkpt>
      <trkpt lat="45.85468" lon="3.53789">
        <ele>330.4</ele>
        <time>2026-05-10T09:27:27.000Z</time>
      </trkpt>
      <trkpt lat="45.85466" lon="3.53789">
        <ele>330.4</ele>
        <time>2026-05-10T09:27:28.000Z</time>
      </trkpt>
      <trkpt lat="45.85465" lon="3.5379">
        <ele>330.4</ele>
        <time>2026-05-10T09:27:29.000Z</time>
      </trkpt>
      <trkpt lat="45.85464" lon="3.5379">
        <ele>330.4</ele>
        <time>2026-05-10T09:27:30.000Z</time>
      </trkpt>
      <trkpt lat="45.85463" lon="3.5379">
        <ele>330.4</ele>
        <time>2026-05-10T09:27:31.000Z</time>
      </trkpt>
      <trkpt lat="45.85462" lon="3.53791">
        <ele>330.4</ele>
        <time>2026-05-10T09:27:32.000Z</time>
      </trkpt>
      <trkpt lat="45.85461" lon="3.53792">
        <ele>330.3</ele>
        <time>2026-05-10T09:27:33.000Z</time>
      </trkpt>
      <trkpt lat="45.8546" lon="3.53792">
        <ele>330.3</ele>
        <time>2026-05-10T09:27:34.000Z</time>
      </trkpt>
      <trkpt lat="45.85458" lon="3.53793">
        <ele>330.2</ele>
        <time>2026-05-10T09:27:35.000Z</time>
      </trkpt>
      <trkpt lat="45.85457" lon="3.53793">
        <ele>330.2</ele>
        <time>2026-05-10T09:27:36.000Z</time>
      </trkpt>
      <trkpt lat="45.85456" lon="3.53794">
        <ele>330.1</ele>
        <time>2026-05-10T09:27:37.000Z</time>
      </trkpt>
      <trkpt lat="45.85454" lon="3.53794">
        <ele>330</ele>
        <time>2026-05-10T09:27:38.000Z</time>
      </trkpt>
      <trkpt lat="45.85453" lon="3.53795">
        <ele>329.9</ele>
        <time>2026-05-10T09:27:39.000Z</time>
      </trkpt>
      <trkpt lat="45.85452" lon="3.53796">
        <ele>329.8</ele>
        <time>2026-05-10T09:27:40.000Z</time>
      </trkpt>
      <trkpt lat="45.8545" lon="3.53796">
        <ele>329.7</ele>
        <time>2026-05-10T09:27:41.000Z</time>
      </trkpt>
      <trkpt lat="45.85449" lon="3.53797">
        <ele>329.6</ele>
        <time>2026-05-10T09:27:42.000Z</time>
      </trkpt>
      <trkpt lat="45.85447" lon="3.53798">
        <ele>329.4</ele>
        <time>2026-05-10T09:27:43.000Z</time>
      </trkpt>
      <trkpt lat="45.85446" lon="3.53798">
        <ele>329.3</ele>
        <time>2026-05-10T09:27:44.000Z</time>
      </trkpt>
      <trkpt lat="45.85445" lon="3.53799">
        <ele>329.2</ele>
        <time>2026-05-10T09:27:45.000Z</time>
      </trkpt>
      <trkpt lat="45.85443" lon="3.53799">
        <ele>329</ele>
        <time>2026-05-10T09:27:46.000Z</time>
      </trkpt>
      <trkpt lat="45.85442" lon="3.538">
        <ele>328.8</ele>
        <time>2026-05-10T09:27:47.000Z</time>
      </trkpt>
      <trkpt lat="45.85441" lon="3.53801">
        <ele>328.6</ele>
        <time>2026-05-10T09:27:48.000Z</time>
      </trkpt>
      <trkpt lat="45.8544" lon="3.53801">
        <ele>328.3</ele>
        <time>2026-05-10T09:27:49.000Z</time>
      </trkpt>
      <trkpt lat="45.85438" lon="3.53802">
        <ele>328.1</ele>
        <time>2026-05-10T09:27:50.000Z</time>
      </trkpt>
      <trkpt lat="45.85436" lon="3.53802">
        <ele>327.9</ele>
        <time>2026-05-10T09:27:51.000Z</time>
      </trkpt>
      <trkpt lat="45.85435" lon="3.53803">
        <ele>327.6</ele>
        <time>2026-05-10T09:27:52.000Z</time>
      </trkpt>
      <trkpt lat="45.85433" lon="3.53803">
        <ele>327.4</ele>
        <time>2026-05-10T09:27:53.000Z</time>
      </trkpt>
      <trkpt lat="45.85432" lon="3.53804">
        <ele>327.2</ele>
        <time>2026-05-10T09:27:54.000Z</time>
      </trkpt>
      <trkpt lat="45.85431" lon="3.53804">
        <ele>327</ele>
        <time>2026-05-10T09:27:55.000Z</time>
      </trkpt>
      <trkpt lat="45.8543" lon="3.53805">
        <ele>326.9</ele>
        <time>2026-05-10T09:27:56.000Z</time>
      </trkpt>
      <trkpt lat="45.85428" lon="3.53805">
        <ele>326.7</ele>
        <time>2026-05-10T09:27:57.000Z</time>
      </trkpt>
      <trkpt lat="45.85427" lon="3.53805">
        <ele>326.5</ele>
        <time>2026-05-10T09:27:58.000Z</time>
      </trkpt>
      <trkpt lat="45.85425" lon="3.53806">
        <ele>326.3</ele>
        <time>2026-05-10T09:27:59.000Z</time>
      </trkpt>
      <trkpt lat="45.85424" lon="3.53806">
        <ele>326.2</ele>
        <time>2026-05-10T09:28:00.000Z</time>
      </trkpt>
      <trkpt lat="45.85423" lon="3.53806">
        <ele>326.1</ele>
        <time>2026-05-10T09:28:01.000Z</time>
      </trkpt>
      <trkpt lat="45.85421" lon="3.53807">
        <ele>326.1</ele>
        <time>2026-05-10T09:28:02.000Z</time>
      </trkpt>
      <trkpt lat="45.8542" lon="3.53807">
        <ele>326</ele>
        <time>2026-05-10T09:28:03.000Z</time>
      </trkpt>
      <trkpt lat="45.85419" lon="3.53807">
        <ele>325.9</ele>
        <time>2026-05-10T09:28:04.000Z</time>
      </trkpt>
      <trkpt lat="45.85418" lon="3.53807">
        <ele>325.9</ele>
        <time>2026-05-10T09:28:05.000Z</time>
      </trkpt>
      <trkpt lat="45.85416" lon="3.53808">
        <ele>325.9</ele>
        <time>2026-05-10T09:28:06.000Z</time>
      </trkpt>
      <trkpt lat="45.85415" lon="3.53808">
        <ele>325.9</ele>
        <time>2026-05-10T09:28:07.000Z</time>
      </trkpt>
      <trkpt lat="45.85414" lon="3.53808">
        <ele>325.9</ele>
        <time>2026-05-10T09:28:08.000Z</time>
      </trkpt>
      <trkpt lat="45.85413" lon="3.53808">
        <ele>325.9</ele>
        <time>2026-05-10T09:28:09.000Z</time>
      </trkpt>
      <trkpt lat="45.85411" lon="3.53809">
        <ele>325.9</ele>
        <time>2026-05-10T09:28:10.000Z</time>
      </trkpt>
      <trkpt lat="45.8541" lon="3.53809">
        <ele>325.9</ele>
        <time>2026-05-10T09:28:11.000Z</time>
      </trkpt>
      <trkpt lat="45.85409" lon="3.53809">
        <ele>325.9</ele>
        <time>2026-05-10T09:28:12.000Z</time>
      </trkpt>
      <trkpt lat="45.85408" lon="3.53809">
        <ele>325.9</ele>
        <time>2026-05-10T09:28:13.000Z</time>
      </trkpt>
      <trkpt lat="45.85406" lon="3.53809">
        <ele>325.9</ele>
        <time>2026-05-10T09:28:14.000Z</time>
      </trkpt>
      <trkpt lat="45.85405" lon="3.5381">
        <ele>325.9</ele>
        <time>2026-05-10T09:28:15.000Z</time>
      </trkpt>
      <trkpt lat="45.85404" lon="3.5381">
        <ele>326</ele>
        <time>2026-05-10T09:28:16.000Z</time>
      </trkpt>
      <trkpt lat="45.85403" lon="3.5381">
        <ele>325.9</ele>
        <time>2026-05-10T09:28:17.000Z</time>
      </trkpt>
      <trkpt lat="45.85401" lon="3.53811">
        <ele>325.9</ele>
        <time>2026-05-10T09:28:18.000Z</time>
      </trkpt>
      <trkpt lat="45.854" lon="3.53811">
        <ele>325.8</ele>
        <time>2026-05-10T09:28:19.000Z</time>
      </trkpt>
      <trkpt lat="45.85398" lon="3.53812">
        <ele>325.8</ele>
        <time>2026-05-10T09:28:20.000Z</time>
      </trkpt>
      <trkpt lat="45.85396" lon="3.53813">
        <ele>325.7</ele>
        <time>2026-05-10T09:28:21.000Z</time>
      </trkpt>
      <trkpt lat="45.85395" lon="3.53813">
        <ele>325.6</ele>
        <time>2026-05-10T09:28:22.000Z</time>
      </trkpt>
      <trkpt lat="45.85394" lon="3.53813">
        <ele>325.6</ele>
        <time>2026-05-10T09:28:23.000Z</time>
      </trkpt>
      <trkpt lat="45.85393" lon="3.53814">
        <ele>325.5</ele>
        <time>2026-05-10T09:28:24.000Z</time>
      </trkpt>
      <trkpt lat="45.85392" lon="3.53814">
        <ele>325.5</ele>
        <time>2026-05-10T09:28:25.000Z</time>
      </trkpt>
      <trkpt lat="45.85391" lon="3.53814">
        <ele>325.5</ele>
        <time>2026-05-10T09:28:26.000Z</time>
      </trkpt>
      <trkpt lat="45.8539" lon="3.53814">
        <ele>325.6</ele>
        <time>2026-05-10T09:28:27.000Z</time>
      </trkpt>
      <trkpt lat="45.85388" lon="3.53814">
        <ele>325.5</ele>
        <time>2026-05-10T09:28:28.000Z</time>
      </trkpt>
      <trkpt lat="45.85387" lon="3.53814">
        <ele>325.5</ele>
        <time>2026-05-10T09:28:29.000Z</time>
      </trkpt>
      <trkpt lat="45.85386" lon="3.53814">
        <ele>325.5</ele>
        <time>2026-05-10T09:28:30.000Z</time>
      </trkpt>
      <trkpt lat="45.85385" lon="3.53814">
        <ele>325.4</ele>
        <time>2026-05-10T09:28:31.000Z</time>
      </trkpt>
      <trkpt lat="45.85384" lon="3.53815">
        <ele>325.3</ele>
        <time>2026-05-10T09:28:32.000Z</time>
      </trkpt>
      <trkpt lat="45.85382" lon="3.53816">
        <ele>325.2</ele>
        <time>2026-05-10T09:28:33.000Z</time>
      </trkpt>
      <trkpt lat="45.8538" lon="3.53816">
        <ele>325.2</ele>
        <time>2026-05-10T09:28:34.000Z</time>
      </trkpt>
      <trkpt lat="45.85379" lon="3.53816">
        <ele>325.2</ele>
        <time>2026-05-10T09:28:35.000Z</time>
      </trkpt>
      <trkpt lat="45.85378" lon="3.53816">
        <ele>325.1</ele>
        <time>2026-05-10T09:28:36.000Z</time>
      </trkpt>
      <trkpt lat="45.85376" lon="3.53816">
        <ele>325</ele>
        <time>2026-05-10T09:28:37.000Z</time>
      </trkpt>
      <trkpt lat="45.85375" lon="3.53817">
        <ele>325</ele>
        <time>2026-05-10T09:28:38.000Z</time>
      </trkpt>
      <trkpt lat="45.85373" lon="3.53817">
        <ele>324.9</ele>
        <time>2026-05-10T09:28:39.000Z</time>
      </trkpt>
      <trkpt lat="45.85372" lon="3.53818">
        <ele>324.8</ele>
        <time>2026-05-10T09:28:40.000Z</time>
      </trkpt>
      <trkpt lat="45.85371" lon="3.53818">
        <ele>324.7</ele>
        <time>2026-05-10T09:28:41.000Z</time>
      </trkpt>
      <trkpt lat="45.8537" lon="3.53818">
        <ele>324.7</ele>
        <time>2026-05-10T09:28:42.000Z</time>
      </trkpt>
      <trkpt lat="45.85369" lon="3.53819">
        <ele>324.7</ele>
        <time>2026-05-10T09:28:43.000Z</time>
      </trkpt>
      <trkpt lat="45.85368" lon="3.53819">
        <ele>324.6</ele>
        <time>2026-05-10T09:28:44.000Z</time>
      </trkpt>
      <trkpt lat="45.85366" lon="3.53819">
        <ele>324.5</ele>
        <time>2026-05-10T09:28:45.000Z</time>
      </trkpt>
      <trkpt lat="45.85365" lon="3.5382">
        <ele>324.5</ele>
        <time>2026-05-10T09:28:46.000Z</time>
      </trkpt>
      <trkpt lat="45.85363" lon="3.5382">
        <ele>324.4</ele>
        <time>2026-05-10T09:28:47.000Z</time>
      </trkpt>
      <trkpt lat="45.85362" lon="3.5382">
        <ele>324.3</ele>
        <time>2026-05-10T09:28:48.000Z</time>
      </trkpt>
      <trkpt lat="45.85361" lon="3.53821">
        <ele>324.2</ele>
        <time>2026-05-10T09:28:49.000Z</time>
      </trkpt>
      <trkpt lat="45.85359" lon="3.53821">
        <ele>324</ele>
        <time>2026-05-10T09:28:50.000Z</time>
      </trkpt>
      <trkpt lat="45.85358" lon="3.53822">
        <ele>323.8</ele>
        <time>2026-05-10T09:28:51.000Z</time>
      </trkpt>
      <trkpt lat="45.85357" lon="3.53822">
        <ele>323.7</ele>
        <time>2026-05-10T09:28:52.000Z</time>
      </trkpt>
      <trkpt lat="45.85355" lon="3.53822">
        <ele>323.5</ele>
        <time>2026-05-10T09:28:53.000Z</time>
      </trkpt>
      <trkpt lat="45.85354" lon="3.53822">
        <ele>323.4</ele>
        <time>2026-05-10T09:28:54.000Z</time>
      </trkpt>
      <trkpt lat="45.85353" lon="3.53822">
        <ele>323.3</ele>
        <time>2026-05-10T09:28:55.000Z</time>
      </trkpt>
      <trkpt lat="45.85352" lon="3.53822">
        <ele>323.2</ele>
        <time>2026-05-10T09:28:56.000Z</time>
      </trkpt>
      <trkpt lat="45.85351" lon="3.53822">
        <ele>323.2</ele>
        <time>2026-05-10T09:28:57.000Z</time>
      </trkpt>
      <trkpt lat="45.8535" lon="3.53822">
        <ele>323.1</ele>
        <time>2026-05-10T09:28:58.000Z</time>
      </trkpt>
      <trkpt lat="45.85349" lon="3.53822">
        <ele>322.9</ele>
        <time>2026-05-10T09:28:59.000Z</time>
      </trkpt>
      <trkpt lat="45.85348" lon="3.53823">
        <ele>322.8</ele>
        <time>2026-05-10T09:29:00.000Z</time>
      </trkpt>
      <trkpt lat="45.85346" lon="3.53823">
        <ele>322.6</ele>
        <time>2026-05-10T09:29:01.000Z</time>
      </trkpt>
      <trkpt lat="45.85345" lon="3.53824">
        <ele>322.3</ele>
        <time>2026-05-10T09:29:02.000Z</time>
      </trkpt>
      <trkpt lat="45.85343" lon="3.53824">
        <ele>322.1</ele>
        <time>2026-05-10T09:29:03.000Z</time>
      </trkpt>
      <trkpt lat="45.85341" lon="3.53824">
        <ele>321.9</ele>
        <time>2026-05-10T09:29:04.000Z</time>
      </trkpt>
      <trkpt lat="45.85339" lon="3.53825">
        <ele>321.7</ele>
        <time>2026-05-10T09:29:05.000Z</time>
      </trkpt>
      <trkpt lat="45.85337" lon="3.53825">
        <ele>321.5</ele>
        <time>2026-05-10T09:29:06.000Z</time>
      </trkpt>
      <trkpt lat="45.85336" lon="3.53826">
        <ele>321.3</ele>
        <time>2026-05-10T09:29:07.000Z</time>
      </trkpt>
      <trkpt lat="45.85334" lon="3.53826">
        <ele>321.2</ele>
        <time>2026-05-10T09:29:08.000Z</time>
      </trkpt>
      <trkpt lat="45.85333" lon="3.53826">
        <ele>321.1</ele>
        <time>2026-05-10T09:29:09.000Z</time>
      </trkpt>
      <trkpt lat="45.85332" lon="3.53826">
        <ele>321</ele>
        <time>2026-05-10T09:29:10.000Z</time>
      </trkpt>
      <trkpt lat="45.85331" lon="3.53826">
        <ele>320.9</ele>
        <time>2026-05-10T09:29:11.000Z</time>
      </trkpt>
      <trkpt lat="45.8533" lon="3.53826">
        <ele>320.8</ele>
        <time>2026-05-10T09:29:12.000Z</time>
      </trkpt>
      <trkpt lat="45.85328" lon="3.53826">
        <ele>320.8</ele>
        <time>2026-05-10T09:29:13.000Z</time>
      </trkpt>
      <trkpt lat="45.85327" lon="3.53825">
        <ele>320.8</ele>
        <time>2026-05-10T09:29:14.000Z</time>
      </trkpt>
      <trkpt lat="45.85326" lon="3.53824">
        <ele>320.8</ele>
        <time>2026-05-10T09:29:15.000Z</time>
      </trkpt>
      <trkpt lat="45.85325" lon="3.53824">
        <ele>320.8</ele>
        <time>2026-05-10T09:29:16.000Z</time>
      </trkpt>
      <trkpt lat="45.85324" lon="3.53824">
        <ele>320.7</ele>
        <time>2026-05-10T09:29:17.000Z</time>
      </trkpt>
      <trkpt lat="45.85323" lon="3.53823">
        <ele>320.6</ele>
        <time>2026-05-10T09:29:18.000Z</time>
      </trkpt>
      <trkpt lat="45.85321" lon="3.53822">
        <ele>320.6</ele>
        <time>2026-05-10T09:29:19.000Z</time>
      </trkpt>
      <trkpt lat="45.8532" lon="3.53822">
        <ele>320.5</ele>
        <time>2026-05-10T09:29:20.000Z</time>
      </trkpt>
      <trkpt lat="45.85318" lon="3.53822">
        <ele>320.5</ele>
        <time>2026-05-10T09:29:21.000Z</time>
      </trkpt>
      <trkpt lat="45.85317" lon="3.53821">
        <ele>320.3</ele>
        <time>2026-05-10T09:29:22.000Z</time>
      </trkpt>
      <trkpt lat="45.85315" lon="3.53821">
        <ele>320.3</ele>
        <time>2026-05-10T09:29:23.000Z</time>
      </trkpt>
      <trkpt lat="45.85314" lon="3.53821">
        <ele>320.2</ele>
        <time>2026-05-10T09:29:24.000Z</time>
      </trkpt>
      <trkpt lat="45.85313" lon="3.5382">
        <ele>320.1</ele>
        <time>2026-05-10T09:29:25.000Z</time>
      </trkpt>
      <trkpt lat="45.85311" lon="3.5382">
        <ele>320</ele>
        <time>2026-05-10T09:29:26.000Z</time>
      </trkpt>
      <trkpt lat="45.8531" lon="3.5382">
        <ele>319.9</ele>
        <time>2026-05-10T09:29:27.000Z</time>
      </trkpt>
      <trkpt lat="45.85309" lon="3.53819">
        <ele>319.8</ele>
        <time>2026-05-10T09:29:28.000Z</time>
      </trkpt>
      <trkpt lat="45.85308" lon="3.53819">
        <ele>319.8</ele>
        <time>2026-05-10T09:29:29.000Z</time>
      </trkpt>
      <trkpt lat="45.85307" lon="3.53818">
        <ele>319.6</ele>
        <time>2026-05-10T09:29:30.000Z</time>
      </trkpt>
      <trkpt lat="45.85305" lon="3.53818">
        <ele>319.5</ele>
        <time>2026-05-10T09:29:31.000Z</time>
      </trkpt>
      <trkpt lat="45.85304" lon="3.53818">
        <ele>319.4</ele>
        <time>2026-05-10T09:29:32.000Z</time>
      </trkpt>
      <trkpt lat="45.85302" lon="3.53818">
        <ele>319.3</ele>
        <time>2026-05-10T09:29:33.000Z</time>
      </trkpt>
      <trkpt lat="45.85301" lon="3.53818">
        <ele>319.2</ele>
        <time>2026-05-10T09:29:34.000Z</time>
      </trkpt>
      <trkpt lat="45.853" lon="3.53818">
        <ele>319.2</ele>
        <time>2026-05-10T09:29:35.000Z</time>
      </trkpt>
      <trkpt lat="45.85299" lon="3.53817">
        <ele>319.1</ele>
        <time>2026-05-10T09:29:36.000Z</time>
      </trkpt>
      <trkpt lat="45.85297" lon="3.53817">
        <ele>319</ele>
        <time>2026-05-10T09:29:37.000Z</time>
      </trkpt>
      <trkpt lat="45.85295" lon="3.53816">
        <ele>318.9</ele>
        <time>2026-05-10T09:29:38.000Z</time>
      </trkpt>
      <trkpt lat="45.85293" lon="3.53815">
        <ele>318.8</ele>
        <time>2026-05-10T09:29:39.000Z</time>
      </trkpt>
      <trkpt lat="45.85292" lon="3.53814">
        <ele>318.7</ele>
        <time>2026-05-10T09:29:40.000Z</time>
      </trkpt>
      <trkpt lat="45.85291" lon="3.53814">
        <ele>318.7</ele>
        <time>2026-05-10T09:29:41.000Z</time>
      </trkpt>
      <trkpt lat="45.8529" lon="3.53813">
        <ele>318.6</ele>
        <time>2026-05-10T09:29:42.000Z</time>
      </trkpt>
      <trkpt lat="45.85288" lon="3.53813">
        <ele>318.5</ele>
        <time>2026-05-10T09:29:43.000Z</time>
      </trkpt>
      <trkpt lat="45.85287" lon="3.53812">
        <ele>318.4</ele>
        <time>2026-05-10T09:29:44.000Z</time>
      </trkpt>
      <trkpt lat="45.85286" lon="3.53812">
        <ele>318.3</ele>
        <time>2026-05-10T09:29:45.000Z</time>
      </trkpt>
      <trkpt lat="45.85284" lon="3.53811">
        <ele>318.3</ele>
        <time>2026-05-10T09:29:46.000Z</time>
      </trkpt>
      <trkpt lat="45.85283" lon="3.53811">
        <ele>318.2</ele>
        <time>2026-05-10T09:29:47.000Z</time>
      </trkpt>
      <trkpt lat="45.85282" lon="3.53811">
        <ele>318.1</ele>
        <time>2026-05-10T09:29:48.000Z</time>
      </trkpt>
      <trkpt lat="45.85281" lon="3.5381">
        <ele>318</ele>
        <time>2026-05-10T09:29:49.000Z</time>
      </trkpt>
      <trkpt lat="45.85279" lon="3.5381">
        <ele>318</ele>
        <time>2026-05-10T09:29:50.000Z</time>
      </trkpt>
      <trkpt lat="45.85278" lon="3.53809">
        <ele>317.9</ele>
        <time>2026-05-10T09:29:51.000Z</time>
      </trkpt>
      <trkpt lat="45.85276" lon="3.53809">
        <ele>317.8</ele>
        <time>2026-05-10T09:29:52.000Z</time>
      </trkpt>
      <trkpt lat="45.85275" lon="3.53808">
        <ele>317.7</ele>
        <time>2026-05-10T09:29:53.000Z</time>
      </trkpt>
      <trkpt lat="45.85274" lon="3.53808">
        <ele>317.6</ele>
        <time>2026-05-10T09:29:54.000Z</time>
      </trkpt>
      <trkpt lat="45.85272" lon="3.53807">
        <ele>317.5</ele>
        <time>2026-05-10T09:29:55.000Z</time>
      </trkpt>
      <trkpt lat="45.85271" lon="3.53807">
        <ele>317.4</ele>
        <time>2026-05-10T09:29:56.000Z</time>
      </trkpt>
      <trkpt lat="45.8527" lon="3.53807">
        <ele>317.4</ele>
        <time>2026-05-10T09:29:57.000Z</time>
      </trkpt>
      <trkpt lat="45.85268" lon="3.53807">
        <ele>317.3</ele>
        <time>2026-05-10T09:29:58.000Z</time>
      </trkpt>
      <trkpt lat="45.85267" lon="3.53807">
        <ele>317.2</ele>
        <time>2026-05-10T09:29:59.000Z</time>
      </trkpt>
      <trkpt lat="45.85266" lon="3.53806">
        <ele>317.1</ele>
        <time>2026-05-10T09:30:00.000Z</time>
      </trkpt>
      <trkpt lat="45.85264" lon="3.53806">
        <ele>317</ele>
        <time>2026-05-10T09:30:01.000Z</time>
      </trkpt>
      <trkpt lat="45.85263" lon="3.53806">
        <ele>316.9</ele>
        <time>2026-05-10T09:30:02.000Z</time>
      </trkpt>
      <trkpt lat="45.85262" lon="3.53805">
        <ele>316.8</ele>
        <time>2026-05-10T09:30:03.000Z</time>
      </trkpt>
      <trkpt lat="45.85261" lon="3.53805">
        <ele>316.7</ele>
        <time>2026-05-10T09:30:04.000Z</time>
      </trkpt>
      <trkpt lat="45.8526" lon="3.53804">
        <ele>316.6</ele>
        <time>2026-05-10T09:30:05.000Z</time>
      </trkpt>
      <trkpt lat="45.85258" lon="3.53804">
        <ele>316.5</ele>
        <time>2026-05-10T09:30:06.000Z</time>
      </trkpt>
      <trkpt lat="45.85257" lon="3.53803">
        <ele>316.4</ele>
        <time>2026-05-10T09:30:07.000Z</time>
      </trkpt>
      <trkpt lat="45.85256" lon="3.53803">
        <ele>316.3</ele>
        <time>2026-05-10T09:30:08.000Z</time>
      </trkpt>
      <trkpt lat="45.85254" lon="3.53802">
        <ele>316.2</ele>
        <time>2026-05-10T09:30:09.000Z</time>
      </trkpt>
      <trkpt lat="45.85253" lon="3.53802">
        <ele>316.1</ele>
        <time>2026-05-10T09:30:10.000Z</time>
      </trkpt>
      <trkpt lat="45.85251" lon="3.53802">
        <ele>316</ele>
        <time>2026-05-10T09:30:11.000Z</time>
      </trkpt>
      <trkpt lat="45.8525" lon="3.53802">
        <ele>315.8</ele>
        <time>2026-05-10T09:30:12.000Z</time>
      </trkpt>
      <trkpt lat="45.85249" lon="3.53801">
        <ele>315.8</ele>
        <time>2026-05-10T09:30:13.000Z</time>
      </trkpt>
      <trkpt lat="45.85247" lon="3.53801">
        <ele>315.7</ele>
        <time>2026-05-10T09:30:14.000Z</time>
      </trkpt>
      <trkpt lat="45.85246" lon="3.53801">
        <ele>315.6</ele>
        <time>2026-05-10T09:30:15.000Z</time>
      </trkpt>
      <trkpt lat="45.85245" lon="3.53801">
        <ele>315.5</ele>
        <time>2026-05-10T09:30:16.000Z</time>
      </trkpt>
      <trkpt lat="45.85243" lon="3.538">
        <ele>315.4</ele>
        <time>2026-05-10T09:30:17.000Z</time>
      </trkpt>
      <trkpt lat="45.85242" lon="3.538">
        <ele>315.3</ele>
        <time>2026-05-10T09:30:18.000Z</time>
      </trkpt>
      <trkpt lat="45.85241" lon="3.53799">
        <ele>315.2</ele>
        <time>2026-05-10T09:30:19.000Z</time>
      </trkpt>
      <trkpt lat="45.8524" lon="3.53799">
        <ele>315.1</ele>
        <time>2026-05-10T09:30:20.000Z</time>
      </trkpt>
      <trkpt lat="45.85239" lon="3.53799">
        <ele>315.1</ele>
        <time>2026-05-10T09:30:21.000Z</time>
      </trkpt>
      <trkpt lat="45.85238" lon="3.53798">
        <ele>315</ele>
        <time>2026-05-10T09:30:22.000Z</time>
      </trkpt>
      <trkpt lat="45.85236" lon="3.53798">
        <ele>314.9</ele>
        <time>2026-05-10T09:30:23.000Z</time>
      </trkpt>
      <trkpt lat="45.85235" lon="3.53798">
        <ele>314.8</ele>
        <time>2026-05-10T09:30:24.000Z</time>
      </trkpt>
      <trkpt lat="45.85233" lon="3.53798">
        <ele>314.7</ele>
        <time>2026-05-10T09:30:25.000Z</time>
      </trkpt>
      <trkpt lat="45.85232" lon="3.53798">
        <ele>314.6</ele>
        <time>2026-05-10T09:30:26.000Z</time>
      </trkpt>
      <trkpt lat="45.85231" lon="3.53798">
        <ele>314.5</ele>
        <time>2026-05-10T09:30:27.000Z</time>
      </trkpt>
      <trkpt lat="45.85229" lon="3.53797">
        <ele>314.4</ele>
        <time>2026-05-10T09:30:28.000Z</time>
      </trkpt>
      <trkpt lat="45.85227" lon="3.53797">
        <ele>314.3</ele>
        <time>2026-05-10T09:30:29.000Z</time>
      </trkpt>
      <trkpt lat="45.85226" lon="3.53797">
        <ele>314.2</ele>
        <time>2026-05-10T09:30:30.000Z</time>
      </trkpt>
      <trkpt lat="45.85224" lon="3.53796">
        <ele>314.1</ele>
        <time>2026-05-10T09:30:31.000Z</time>
      </trkpt>
      <trkpt lat="45.85223" lon="3.53796">
        <ele>314</ele>
        <time>2026-05-10T09:30:32.000Z</time>
      </trkpt>
      <trkpt lat="45.85222" lon="3.53796">
        <ele>314</ele>
        <time>2026-05-10T09:30:33.000Z</time>
      </trkpt>
      <trkpt lat="45.85221" lon="3.53795">
        <ele>313.9</ele>
        <time>2026-05-10T09:30:34.000Z</time>
      </trkpt>
      <trkpt lat="45.8522" lon="3.53795">
        <ele>313.8</ele>
        <time>2026-05-10T09:30:35.000Z</time>
      </trkpt>
      <trkpt lat="45.85218" lon="3.53794">
        <ele>313.7</ele>
        <time>2026-05-10T09:30:36.000Z</time>
      </trkpt>
      <trkpt lat="45.85217" lon="3.53794">
        <ele>313.6</ele>
        <time>2026-05-10T09:30:37.000Z</time>
      </trkpt>
      <trkpt lat="45.85216" lon="3.53794">
        <ele>313.4</ele>
        <time>2026-05-10T09:30:38.000Z</time>
      </trkpt>
      <trkpt lat="45.85214" lon="3.53793">
        <ele>313.2</ele>
        <time>2026-05-10T09:30:39.000Z</time>
      </trkpt>
      <trkpt lat="45.85212" lon="3.53793">
        <ele>313.1</ele>
        <time>2026-05-10T09:30:40.000Z</time>
      </trkpt>
      <trkpt lat="45.85211" lon="3.53793">
        <ele>313</ele>
        <time>2026-05-10T09:30:41.000Z</time>
      </trkpt>
      <trkpt lat="45.85209" lon="3.53792">
        <ele>312.9</ele>
        <time>2026-05-10T09:30:42.000Z</time>
      </trkpt>
      <trkpt lat="45.85208" lon="3.53792">
        <ele>312.8</ele>
        <time>2026-05-10T09:30:43.000Z</time>
      </trkpt>
      <trkpt lat="45.85207" lon="3.53792">
        <ele>312.7</ele>
        <time>2026-05-10T09:30:44.000Z</time>
      </trkpt>
      <trkpt lat="45.85206" lon="3.53791">
        <ele>312.6</ele>
        <time>2026-05-10T09:30:45.000Z</time>
      </trkpt>
      <trkpt lat="45.85205" lon="3.53791">
        <ele>312.4</ele>
        <time>2026-05-10T09:30:46.000Z</time>
      </trkpt>
      <trkpt lat="45.85204" lon="3.53791">
        <ele>312.3</ele>
        <time>2026-05-10T09:30:47.000Z</time>
      </trkpt>
      <trkpt lat="45.85202" lon="3.5379">
        <ele>312.2</ele>
        <time>2026-05-10T09:30:48.000Z</time>
      </trkpt>
      <trkpt lat="45.85201" lon="3.5379">
        <ele>312.1</ele>
        <time>2026-05-10T09:30:49.000Z</time>
      </trkpt>
      <trkpt lat="45.852" lon="3.5379">
        <ele>311.9</ele>
        <time>2026-05-10T09:30:50.000Z</time>
      </trkpt>
      <trkpt lat="45.85199" lon="3.5379">
        <ele>311.8</ele>
        <time>2026-05-10T09:30:51.000Z</time>
      </trkpt>
      <trkpt lat="45.85197" lon="3.5379">
        <ele>311.7</ele>
        <time>2026-05-10T09:30:52.000Z</time>
      </trkpt>
      <trkpt lat="45.85196" lon="3.5379">
        <ele>311.6</ele>
        <time>2026-05-10T09:30:53.000Z</time>
      </trkpt>
      <trkpt lat="45.85195" lon="3.5379">
        <ele>311.5</ele>
        <time>2026-05-10T09:30:54.000Z</time>
      </trkpt>
      <trkpt lat="45.85194" lon="3.53789">
        <ele>311.4</ele>
        <time>2026-05-10T09:30:55.000Z</time>
      </trkpt>
      <trkpt lat="45.85192" lon="3.53789">
        <ele>311.3</ele>
        <time>2026-05-10T09:30:56.000Z</time>
      </trkpt>
      <trkpt lat="45.85191" lon="3.53789">
        <ele>311.2</ele>
        <time>2026-05-10T09:30:57.000Z</time>
      </trkpt>
      <trkpt lat="45.85189" lon="3.53789">
        <ele>311.2</ele>
        <time>2026-05-10T09:30:58.000Z</time>
      </trkpt>
      <trkpt lat="45.85188" lon="3.53789">
        <ele>311.1</ele>
        <time>2026-05-10T09:30:59.000Z</time>
      </trkpt>
      <trkpt lat="45.85187" lon="3.53789">
        <ele>311</ele>
        <time>2026-05-10T09:31:00.000Z</time>
      </trkpt>
      <trkpt lat="45.85185" lon="3.53788">
        <ele>311</ele>
        <time>2026-05-10T09:31:01.000Z</time>
      </trkpt>
      <trkpt lat="45.85184" lon="3.53788">
        <ele>310.9</ele>
        <time>2026-05-10T09:31:02.000Z</time>
      </trkpt>
      <trkpt lat="45.85183" lon="3.53788">
        <ele>310.9</ele>
        <time>2026-05-10T09:31:03.000Z</time>
      </trkpt>
      <trkpt lat="45.85182" lon="3.53789">
        <ele>310.8</ele>
        <time>2026-05-10T09:31:04.000Z</time>
      </trkpt>
      <trkpt lat="45.85181" lon="3.53789">
        <ele>310.8</ele>
        <time>2026-05-10T09:31:05.000Z</time>
      </trkpt>
      <trkpt lat="45.8518" lon="3.53789">
        <ele>310.7</ele>
        <time>2026-05-10T09:31:06.000Z</time>
      </trkpt>
      <trkpt lat="45.85179" lon="3.53789">
        <ele>310.7</ele>
        <time>2026-05-10T09:31:07.000Z</time>
      </trkpt>
      <trkpt lat="45.85177" lon="3.53789">
        <ele>310.7</ele>
        <time>2026-05-10T09:31:08.000Z</time>
      </trkpt>
      <trkpt lat="45.85176" lon="3.53789">
        <ele>310.6</ele>
        <time>2026-05-10T09:31:09.000Z</time>
      </trkpt>
      <trkpt lat="45.85175" lon="3.5379">
        <ele>310.6</ele>
        <time>2026-05-10T09:31:10.000Z</time>
      </trkpt>
      <trkpt lat="45.85174" lon="3.5379">
        <ele>310.6</ele>
        <time>2026-05-10T09:31:11.000Z</time>
      </trkpt>
      <trkpt lat="45.85172" lon="3.53791">
        <ele>310.6</ele>
        <time>2026-05-10T09:31:12.000Z</time>
      </trkpt>
      <trkpt lat="45.85171" lon="3.53791">
        <ele>310.6</ele>
        <time>2026-05-10T09:31:13.000Z</time>
      </trkpt>
      <trkpt lat="45.85169" lon="3.53792">
        <ele>310.6</ele>
        <time>2026-05-10T09:31:14.000Z</time>
      </trkpt>
      <trkpt lat="45.85168" lon="3.53792">
        <ele>310.5</ele>
        <time>2026-05-10T09:31:15.000Z</time>
      </trkpt>
      <trkpt lat="45.85167" lon="3.53792">
        <ele>310.5</ele>
        <time>2026-05-10T09:31:16.000Z</time>
      </trkpt>
      <trkpt lat="45.85165" lon="3.53792">
        <ele>310.5</ele>
        <time>2026-05-10T09:31:17.000Z</time>
      </trkpt>
      <trkpt lat="45.85164" lon="3.53792">
        <ele>310.5</ele>
        <time>2026-05-10T09:31:18.000Z</time>
      </trkpt>
      <trkpt lat="45.85163" lon="3.53792">
        <ele>310.5</ele>
        <time>2026-05-10T09:31:19.000Z</time>
      </trkpt>
      <trkpt lat="45.85161" lon="3.53792">
        <ele>310.5</ele>
        <time>2026-05-10T09:31:20.000Z</time>
      </trkpt>
      <trkpt lat="45.8516" lon="3.53793">
        <ele>310.5</ele>
        <time>2026-05-10T09:31:21.000Z</time>
      </trkpt>
      <trkpt lat="45.85158" lon="3.53793">
        <ele>310.5</ele>
        <time>2026-05-10T09:31:22.000Z</time>
      </trkpt>
      <trkpt lat="45.85157" lon="3.53793">
        <ele>310.5</ele>
        <time>2026-05-10T09:31:23.000Z</time>
      </trkpt>
      <trkpt lat="45.85155" lon="3.53794">
        <ele>310.5</ele>
        <time>2026-05-10T09:31:24.000Z</time>
      </trkpt>
      <trkpt lat="45.85154" lon="3.53794">
        <ele>310.5</ele>
        <time>2026-05-10T09:31:25.000Z</time>
      </trkpt>
      <trkpt lat="45.85153" lon="3.53794">
        <ele>310.4</ele>
        <time>2026-05-10T09:31:26.000Z</time>
      </trkpt>
      <trkpt lat="45.85151" lon="3.53794">
        <ele>310.5</ele>
        <time>2026-05-10T09:31:27.000Z</time>
      </trkpt>
      <trkpt lat="45.8515" lon="3.53795">
        <ele>310.5</ele>
        <time>2026-05-10T09:31:28.000Z</time>
      </trkpt>
      <trkpt lat="45.85149" lon="3.53795">
        <ele>310.5</ele>
        <time>2026-05-10T09:31:29.000Z</time>
      </trkpt>
      <trkpt lat="45.85148" lon="3.53795">
        <ele>310.4</ele>
        <time>2026-05-10T09:31:30.000Z</time>
      </trkpt>
      <trkpt lat="45.85147" lon="3.53795">
        <ele>310.4</ele>
        <time>2026-05-10T09:31:31.000Z</time>
      </trkpt>
      <trkpt lat="45.85146" lon="3.53795">
        <ele>310.4</ele>
        <time>2026-05-10T09:31:32.000Z</time>
      </trkpt>
      <trkpt lat="45.85144" lon="3.53795">
        <ele>310.4</ele>
        <time>2026-05-10T09:31:33.000Z</time>
      </trkpt>
      <trkpt lat="45.85143" lon="3.53795">
        <ele>310.4</ele>
        <time>2026-05-10T09:31:34.000Z</time>
      </trkpt>
      <trkpt lat="45.85142" lon="3.53796">
        <ele>310.3</ele>
        <time>2026-05-10T09:31:35.000Z</time>
      </trkpt>
      <trkpt lat="45.8514" lon="3.53796">
        <ele>310.3</ele>
        <time>2026-05-10T09:31:36.000Z</time>
      </trkpt>
      <trkpt lat="45.85139" lon="3.53797">
        <ele>310.4</ele>
        <time>2026-05-10T09:31:37.000Z</time>
      </trkpt>
      <trkpt lat="45.85138" lon="3.53797">
        <ele>310.3</ele>
        <time>2026-05-10T09:31:38.000Z</time>
      </trkpt>
      <trkpt lat="45.85136" lon="3.53798">
        <ele>310.3</ele>
        <time>2026-05-10T09:31:39.000Z</time>
      </trkpt>
      <trkpt lat="45.85135" lon="3.53798">
        <ele>310.2</ele>
        <time>2026-05-10T09:31:40.000Z</time>
      </trkpt>
      <trkpt lat="45.85133" lon="3.53799">
        <ele>310.2</ele>
        <time>2026-05-10T09:31:41.000Z</time>
      </trkpt>
      <trkpt lat="45.85132" lon="3.53799">
        <ele>310.1</ele>
        <time>2026-05-10T09:31:42.000Z</time>
      </trkpt>
      <trkpt lat="45.85131" lon="3.538">
        <ele>310.1</ele>
        <time>2026-05-10T09:31:43.000Z</time>
      </trkpt>
      <trkpt lat="45.8513" lon="3.53801">
        <ele>310</ele>
        <time>2026-05-10T09:31:44.000Z</time>
      </trkpt>
      <trkpt lat="45.85129" lon="3.53801">
        <ele>310</ele>
        <time>2026-05-10T09:31:45.000Z</time>
      </trkpt>
      <trkpt lat="45.85127" lon="3.53802">
        <ele>310</ele>
        <time>2026-05-10T09:31:46.000Z</time>
      </trkpt>
      <trkpt lat="45.85126" lon="3.53803">
        <ele>310</ele>
        <time>2026-05-10T09:31:47.000Z</time>
      </trkpt>
      <trkpt lat="45.85125" lon="3.53804">
        <ele>309.9</ele>
        <time>2026-05-10T09:31:48.000Z</time>
      </trkpt>
      <trkpt lat="45.85124" lon="3.53805">
        <ele>309.9</ele>
        <time>2026-05-10T09:31:49.000Z</time>
      </trkpt>
      <trkpt lat="45.85123" lon="3.53806">
        <ele>309.8</ele>
        <time>2026-05-10T09:31:50.000Z</time>
      </trkpt>
      <trkpt lat="45.85122" lon="3.53807">
        <ele>309.7</ele>
        <time>2026-05-10T09:31:51.000Z</time>
      </trkpt>
      <trkpt lat="45.8512" lon="3.53807">
        <ele>309.6</ele>
        <time>2026-05-10T09:31:52.000Z</time>
      </trkpt>
      <trkpt lat="45.85119" lon="3.53808">
        <ele>309.4</ele>
        <time>2026-05-10T09:31:53.000Z</time>
      </trkpt>
      <trkpt lat="45.85118" lon="3.53809">
        <ele>309.3</ele>
        <time>2026-05-10T09:31:54.000Z</time>
      </trkpt>
      <trkpt lat="45.85117" lon="3.5381">
        <ele>309.2</ele>
        <time>2026-05-10T09:31:55.000Z</time>
      </trkpt>
      <trkpt lat="45.85116" lon="3.53811">
        <ele>309</ele>
        <time>2026-05-10T09:31:56.000Z</time>
      </trkpt>
      <trkpt lat="45.85115" lon="3.53812">
        <ele>308.9</ele>
        <time>2026-05-10T09:31:57.000Z</time>
      </trkpt>
      <trkpt lat="45.85114" lon="3.53813">
        <ele>308.8</ele>
        <time>2026-05-10T09:31:58.000Z</time>
      </trkpt>
      <trkpt lat="45.85113" lon="3.53813">
        <ele>308.6</ele>
        <time>2026-05-10T09:31:59.000Z</time>
      </trkpt>
      <trkpt lat="45.85112" lon="3.53814">
        <ele>308.5</ele>
        <time>2026-05-10T09:32:00.000Z</time>
      </trkpt>
      <trkpt lat="45.85111" lon="3.53814">
        <ele>308.4</ele>
        <time>2026-05-10T09:32:01.000Z</time>
      </trkpt>
      <trkpt lat="45.8511" lon="3.53815">
        <ele>308.3</ele>
        <time>2026-05-10T09:32:02.000Z</time>
      </trkpt>
      <trkpt lat="45.85108" lon="3.53816">
        <ele>308.3</ele>
        <time>2026-05-10T09:32:03.000Z</time>
      </trkpt>
      <trkpt lat="45.85106" lon="3.53817">
        <ele>308.2</ele>
        <time>2026-05-10T09:32:04.000Z</time>
      </trkpt>
      <trkpt lat="45.85105" lon="3.53818">
        <ele>308.2</ele>
        <time>2026-05-10T09:32:05.000Z</time>
      </trkpt>
      <trkpt lat="45.85104" lon="3.53818">
        <ele>308.2</ele>
        <time>2026-05-10T09:32:06.000Z</time>
      </trkpt>
      <trkpt lat="45.85103" lon="3.53819">
        <ele>308.2</ele>
        <time>2026-05-10T09:32:07.000Z</time>
      </trkpt>
      <trkpt lat="45.85102" lon="3.5382">
        <ele>308.2</ele>
        <time>2026-05-10T09:32:08.000Z</time>
      </trkpt>
      <trkpt lat="45.85101" lon="3.5382">
        <ele>308.2</ele>
        <time>2026-05-10T09:32:09.000Z</time>
      </trkpt>
      <trkpt lat="45.851" lon="3.53821">
        <ele>308.2</ele>
        <time>2026-05-10T09:32:10.000Z</time>
      </trkpt>
      <trkpt lat="45.85099" lon="3.53821">
        <ele>308.2</ele>
        <time>2026-05-10T09:32:11.000Z</time>
      </trkpt>
      <trkpt lat="45.85098" lon="3.53822">
        <ele>308.3</ele>
        <time>2026-05-10T09:32:12.000Z</time>
      </trkpt>
      <trkpt lat="45.85096" lon="3.53823">
        <ele>308.3</ele>
        <time>2026-05-10T09:32:13.000Z</time>
      </trkpt>
      <trkpt lat="45.85095" lon="3.53823">
        <ele>308.4</ele>
        <time>2026-05-10T09:32:14.000Z</time>
      </trkpt>
      <trkpt lat="45.85095" lon="3.53824">
        <ele>308.4</ele>
        <time>2026-05-10T09:32:15.000Z</time>
      </trkpt>
      <trkpt lat="45.85094" lon="3.53824">
        <ele>308.5</ele>
        <time>2026-05-10T09:32:16.000Z</time>
      </trkpt>
      <trkpt lat="45.85093" lon="3.53825">
        <ele>308.6</ele>
        <time>2026-05-10T09:32:17.000Z</time>
      </trkpt>
      <trkpt lat="45.85092" lon="3.53826">
        <ele>308.7</ele>
        <time>2026-05-10T09:32:18.000Z</time>
      </trkpt>
      <trkpt lat="45.85091" lon="3.53827">
        <ele>308.8</ele>
        <time>2026-05-10T09:32:19.000Z</time>
      </trkpt>
      <trkpt lat="45.85089" lon="3.53828">
        <ele>309</ele>
        <time>2026-05-10T09:32:20.000Z</time>
      </trkpt>
      <trkpt lat="45.85088" lon="3.53828">
        <ele>309.1</ele>
        <time>2026-05-10T09:32:21.000Z</time>
      </trkpt>
      <trkpt lat="45.85087" lon="3.53829">
        <ele>309.3</ele>
        <time>2026-05-10T09:32:22.000Z</time>
      </trkpt>
      <trkpt lat="45.85086" lon="3.5383">
        <ele>309.5</ele>
        <time>2026-05-10T09:32:23.000Z</time>
      </trkpt>
      <trkpt lat="45.85084" lon="3.53831">
        <ele>309.6</ele>
        <time>2026-05-10T09:32:24.000Z</time>
      </trkpt>
      <trkpt lat="45.85083" lon="3.53832">
        <ele>309.8</ele>
        <time>2026-05-10T09:32:25.000Z</time>
      </trkpt>
      <trkpt lat="45.85082" lon="3.53832">
        <ele>309.9</ele>
        <time>2026-05-10T09:32:26.000Z</time>
      </trkpt>
      <trkpt lat="45.85081" lon="3.53833">
        <ele>310</ele>
        <time>2026-05-10T09:32:27.000Z</time>
      </trkpt>
      <trkpt lat="45.8508" lon="3.53834">
        <ele>310</ele>
        <time>2026-05-10T09:32:28.000Z</time>
      </trkpt>
      <trkpt lat="45.85079" lon="3.53834">
        <ele>310</ele>
        <time>2026-05-10T09:32:29.000Z</time>
      </trkpt>
      <trkpt lat="45.85078" lon="3.53834">
        <ele>310</ele>
        <time>2026-05-10T09:32:30.000Z</time>
      </trkpt>
      <trkpt lat="45.85077" lon="3.53835">
        <ele>310</ele>
        <time>2026-05-10T09:32:31.000Z</time>
      </trkpt>
      <trkpt lat="45.85075" lon="3.53835">
        <ele>309.9</ele>
        <time>2026-05-10T09:32:32.000Z</time>
      </trkpt>
      <trkpt lat="45.85074" lon="3.53836">
        <ele>309.9</ele>
        <time>2026-05-10T09:32:33.000Z</time>
      </trkpt>
      <trkpt lat="45.85073" lon="3.53836">
        <ele>309.9</ele>
        <time>2026-05-10T09:32:34.000Z</time>
      </trkpt>
      <trkpt lat="45.85071" lon="3.53837">
        <ele>309.9</ele>
        <time>2026-05-10T09:32:35.000Z</time>
      </trkpt>
      <trkpt lat="45.8507" lon="3.53837">
        <ele>309.9</ele>
        <time>2026-05-10T09:32:36.000Z</time>
      </trkpt>
      <trkpt lat="45.85069" lon="3.53838">
        <ele>309.9</ele>
        <time>2026-05-10T09:32:37.000Z</time>
      </trkpt>
      <trkpt lat="45.85068" lon="3.53838">
        <ele>309.8</ele>
        <time>2026-05-10T09:32:38.000Z</time>
      </trkpt>
      <trkpt lat="45.85067" lon="3.53838">
        <ele>309.8</ele>
        <time>2026-05-10T09:32:39.000Z</time>
      </trkpt>
      <trkpt lat="45.85065" lon="3.53838">
        <ele>309.8</ele>
        <time>2026-05-10T09:32:40.000Z</time>
      </trkpt>
      <trkpt lat="45.85064" lon="3.53838">
        <ele>309.8</ele>
        <time>2026-05-10T09:32:41.000Z</time>
      </trkpt>
      <trkpt lat="45.85063" lon="3.53839">
        <ele>309.8</ele>
        <time>2026-05-10T09:32:42.000Z</time>
      </trkpt>
      <trkpt lat="45.85062" lon="3.53838">
        <ele>309.8</ele>
        <time>2026-05-10T09:32:43.000Z</time>
      </trkpt>
      <trkpt lat="45.8506" lon="3.53838">
        <ele>309.8</ele>
        <time>2026-05-10T09:32:44.000Z</time>
      </trkpt>
      <trkpt lat="45.85059" lon="3.53838">
        <ele>309.8</ele>
        <time>2026-05-10T09:32:45.000Z</time>
      </trkpt>
      <trkpt lat="45.85057" lon="3.53839">
        <ele>309.8</ele>
        <time>2026-05-10T09:32:46.000Z</time>
      </trkpt>
      <trkpt lat="45.85056" lon="3.53839">
        <ele>309.8</ele>
        <time>2026-05-10T09:32:47.000Z</time>
      </trkpt>
      <trkpt lat="45.85055" lon="3.53838">
        <ele>309.8</ele>
        <time>2026-05-10T09:32:48.000Z</time>
      </trkpt>
      <trkpt lat="45.85053" lon="3.53838">
        <ele>309.8</ele>
        <time>2026-05-10T09:32:49.000Z</time>
      </trkpt>
      <trkpt lat="45.85052" lon="3.53838">
        <ele>309.7</ele>
        <time>2026-05-10T09:32:50.000Z</time>
      </trkpt>
      <trkpt lat="45.85051" lon="3.53838">
        <ele>309.7</ele>
        <time>2026-05-10T09:32:51.000Z</time>
      </trkpt>
      <trkpt lat="45.85049" lon="3.53837">
        <ele>309.7</ele>
        <time>2026-05-10T09:32:52.000Z</time>
      </trkpt>
      <trkpt lat="45.85048" lon="3.53836">
        <ele>309.6</ele>
        <time>2026-05-10T09:32:53.000Z</time>
      </trkpt>
      <trkpt lat="45.85047" lon="3.53836">
        <ele>309.6</ele>
        <time>2026-05-10T09:32:54.000Z</time>
      </trkpt>
      <trkpt lat="45.85045" lon="3.53835">
        <ele>309.6</ele>
        <time>2026-05-10T09:32:55.000Z</time>
      </trkpt>
      <trkpt lat="45.85044" lon="3.53834">
        <ele>309.6</ele>
        <time>2026-05-10T09:32:56.000Z</time>
      </trkpt>
      <trkpt lat="45.85043" lon="3.53833">
        <ele>309.5</ele>
        <time>2026-05-10T09:32:57.000Z</time>
      </trkpt>
      <trkpt lat="45.85042" lon="3.53832">
        <ele>309.4</ele>
        <time>2026-05-10T09:32:58.000Z</time>
      </trkpt>
      <trkpt lat="45.85041" lon="3.5383">
        <ele>309.3</ele>
        <time>2026-05-10T09:32:59.000Z</time>
      </trkpt>
      <trkpt lat="45.8504" lon="3.53828">
        <ele>309.2</ele>
        <time>2026-05-10T09:33:00.000Z</time>
      </trkpt>
      <trkpt lat="45.8504" lon="3.53826">
        <ele>309.1</ele>
        <time>2026-05-10T09:33:01.000Z</time>
      </trkpt>
      <trkpt lat="45.85039" lon="3.53825">
        <ele>309</ele>
        <time>2026-05-10T09:33:02.000Z</time>
      </trkpt>
      <trkpt lat="45.85039" lon="3.53823">
        <ele>308.9</ele>
        <time>2026-05-10T09:33:03.000Z</time>
      </trkpt>
      <trkpt lat="45.85038" lon="3.53821">
        <ele>308.8</ele>
        <time>2026-05-10T09:33:04.000Z</time>
      </trkpt>
      <trkpt lat="45.85038" lon="3.5382">
        <ele>308.7</ele>
        <time>2026-05-10T09:33:05.000Z</time>
      </trkpt>
      <trkpt lat="45.85037" lon="3.53818">
        <ele>308.6</ele>
        <time>2026-05-10T09:33:06.000Z</time>
      </trkpt>
      <trkpt lat="45.85036" lon="3.53816">
        <ele>308.5</ele>
        <time>2026-05-10T09:33:07.000Z</time>
      </trkpt>
      <trkpt lat="45.85035" lon="3.53814">
        <ele>308.4</ele>
        <time>2026-05-10T09:33:08.000Z</time>
      </trkpt>
      <trkpt lat="45.85035" lon="3.53813">
        <ele>308.3</ele>
        <time>2026-05-10T09:33:09.000Z</time>
      </trkpt>
      <trkpt lat="45.85033" lon="3.53811">
        <ele>308.2</ele>
        <time>2026-05-10T09:33:10.000Z</time>
      </trkpt>
      <trkpt lat="45.85032" lon="3.5381">
        <ele>308.2</ele>
        <time>2026-05-10T09:33:11.000Z</time>
      </trkpt>
      <trkpt lat="45.85031" lon="3.53809">
        <ele>308.1</ele>
        <time>2026-05-10T09:33:12.000Z</time>
      </trkpt>
      <trkpt lat="45.8503" lon="3.53807">
        <ele>308.1</ele>
        <time>2026-05-10T09:33:13.000Z</time>
      </trkpt>
      <trkpt lat="45.85029" lon="3.53806">
        <ele>308</ele>
        <time>2026-05-10T09:33:14.000Z</time>
      </trkpt>
      <trkpt lat="45.85028" lon="3.53804">
        <ele>308</ele>
        <time>2026-05-10T09:33:15.000Z</time>
      </trkpt>
      <trkpt lat="45.85027" lon="3.53804">
        <ele>308</ele>
        <time>2026-05-10T09:33:16.000Z</time>
      </trkpt>
      <trkpt lat="45.85026" lon="3.53803">
        <ele>308.1</ele>
        <time>2026-05-10T09:33:17.000Z</time>
      </trkpt>
      <trkpt lat="45.85025" lon="3.53802">
        <ele>308.1</ele>
        <time>2026-05-10T09:33:18.000Z</time>
      </trkpt>
      <trkpt lat="45.85024" lon="3.53802">
        <ele>308.1</ele>
        <time>2026-05-10T09:33:19.000Z</time>
      </trkpt>
      <trkpt lat="45.85022" lon="3.53802">
        <ele>308.2</ele>
        <time>2026-05-10T09:33:20.000Z</time>
      </trkpt>
      <trkpt lat="45.85021" lon="3.53802">
        <ele>308.2</ele>
        <time>2026-05-10T09:33:21.000Z</time>
      </trkpt>
      <trkpt lat="45.8502" lon="3.53802">
        <ele>308.3</ele>
        <time>2026-05-10T09:33:22.000Z</time>
      </trkpt>
      <trkpt lat="45.85018" lon="3.53802">
        <ele>308.3</ele>
        <time>2026-05-10T09:33:23.000Z</time>
      </trkpt>
      <trkpt lat="45.85017" lon="3.53802">
        <ele>308.4</ele>
        <time>2026-05-10T09:33:24.000Z</time>
      </trkpt>
      <trkpt lat="45.85015" lon="3.53803">
        <ele>308.4</ele>
        <time>2026-05-10T09:33:25.000Z</time>
      </trkpt>
      <trkpt lat="45.85014" lon="3.53803">
        <ele>308.5</ele>
        <time>2026-05-10T09:33:26.000Z</time>
      </trkpt>
      <trkpt lat="45.85013" lon="3.53803">
        <ele>308.5</ele>
        <time>2026-05-10T09:33:27.000Z</time>
      </trkpt>
      <trkpt lat="45.85012" lon="3.53803">
        <ele>308.5</ele>
        <time>2026-05-10T09:33:28.000Z</time>
      </trkpt>
      <trkpt lat="45.85011" lon="3.53803">
        <ele>308.6</ele>
        <time>2026-05-10T09:33:29.000Z</time>
      </trkpt>
      <trkpt lat="45.85009" lon="3.53803">
        <ele>308.6</ele>
        <time>2026-05-10T09:33:30.000Z</time>
      </trkpt>
      <trkpt lat="45.85008" lon="3.53802">
        <ele>308.6</ele>
        <time>2026-05-10T09:33:31.000Z</time>
      </trkpt>
      <trkpt lat="45.85007" lon="3.53802">
        <ele>308.6</ele>
        <time>2026-05-10T09:33:32.000Z</time>
      </trkpt>
      <trkpt lat="45.85006" lon="3.53801">
        <ele>308.7</ele>
        <time>2026-05-10T09:33:33.000Z</time>
      </trkpt>
      <trkpt lat="45.85005" lon="3.538">
        <ele>308.7</ele>
        <time>2026-05-10T09:33:34.000Z</time>
      </trkpt>
      <trkpt lat="45.85004" lon="3.538">
        <ele>308.7</ele>
        <time>2026-05-10T09:33:35.000Z</time>
      </trkpt>
      <trkpt lat="45.85003" lon="3.53799">
        <ele>308.7</ele>
        <time>2026-05-10T09:33:36.000Z</time>
      </trkpt>
      <trkpt lat="45.85002" lon="3.53798">
        <ele>308.7</ele>
        <time>2026-05-10T09:33:37.000Z</time>
      </trkpt>
      <trkpt lat="45.85001" lon="3.53796">
        <ele>308.7</ele>
        <time>2026-05-10T09:33:38.000Z</time>
      </trkpt>
      <trkpt lat="45.85" lon="3.53795">
        <ele>308.6</ele>
        <time>2026-05-10T09:33:39.000Z</time>
      </trkpt>
      <trkpt lat="45.84998" lon="3.53793">
        <ele>308.6</ele>
        <time>2026-05-10T09:33:40.000Z</time>
      </trkpt>
      <trkpt lat="45.84998" lon="3.53791">
        <ele>308.5</ele>
        <time>2026-05-10T09:33:41.000Z</time>
      </trkpt>
      <trkpt lat="45.84997" lon="3.53789">
        <ele>308.5</ele>
        <time>2026-05-10T09:33:42.000Z</time>
      </trkpt>
      <trkpt lat="45.84996" lon="3.53788">
        <ele>308.4</ele>
        <time>2026-05-10T09:33:43.000Z</time>
      </trkpt>
      <trkpt lat="45.84996" lon="3.53786">
        <ele>308.4</ele>
        <time>2026-05-10T09:33:44.000Z</time>
      </trkpt>
      <trkpt lat="45.84995" lon="3.53784">
        <ele>308.4</ele>
        <time>2026-05-10T09:33:45.000Z</time>
      </trkpt>
      <trkpt lat="45.84995" lon="3.53783">
        <ele>308.3</ele>
        <time>2026-05-10T09:33:46.000Z</time>
      </trkpt>
      <trkpt lat="45.84994" lon="3.53781">
        <ele>308.3</ele>
        <time>2026-05-10T09:33:47.000Z</time>
      </trkpt>
      <trkpt lat="45.84993" lon="3.53779">
        <ele>308.3</ele>
        <time>2026-05-10T09:33:48.000Z</time>
      </trkpt>
      <trkpt lat="45.84993" lon="3.53777">
        <ele>308.3</ele>
        <time>2026-05-10T09:33:49.000Z</time>
      </trkpt>
      <trkpt lat="45.84992" lon="3.53775">
        <ele>308.3</ele>
        <time>2026-05-10T09:33:50.000Z</time>
      </trkpt>
      <trkpt lat="45.84991" lon="3.53774">
        <ele>308.3</ele>
        <time>2026-05-10T09:33:51.000Z</time>
      </trkpt>
      <trkpt lat="45.84991" lon="3.53772">
        <ele>308.3</ele>
        <time>2026-05-10T09:33:52.000Z</time>
      </trkpt>
      <trkpt lat="45.8499" lon="3.5377">
        <ele>308.3</ele>
        <time>2026-05-10T09:33:53.000Z</time>
      </trkpt>
      <trkpt lat="45.8499" lon="3.53769">
        <ele>308.2</ele>
        <time>2026-05-10T09:33:54.000Z</time>
      </trkpt>
      <trkpt lat="45.8499" lon="3.53767">
        <ele>308.2</ele>
        <time>2026-05-10T09:33:55.000Z</time>
      </trkpt>
      <trkpt lat="45.84989" lon="3.53765">
        <ele>308.2</ele>
        <time>2026-05-10T09:33:56.000Z</time>
      </trkpt>
      <trkpt lat="45.84989" lon="3.53763">
        <ele>308.2</ele>
        <time>2026-05-10T09:33:57.000Z</time>
      </trkpt>
      <trkpt lat="45.84988" lon="3.53761">
        <ele>308.2</ele>
        <time>2026-05-10T09:33:58.000Z</time>
      </trkpt>
      <trkpt lat="45.84988" lon="3.53759">
        <ele>308.1</ele>
        <time>2026-05-10T09:33:59.000Z</time>
      </trkpt>
      <trkpt lat="45.84988" lon="3.53758">
        <ele>308.1</ele>
        <time>2026-05-10T09:34:00.000Z</time>
      </trkpt>
      <trkpt lat="45.84987" lon="3.53756">
        <ele>308.1</ele>
        <time>2026-05-10T09:34:01.000Z</time>
      </trkpt>
      <trkpt lat="45.84987" lon="3.53755">
        <ele>308.1</ele>
        <time>2026-05-10T09:34:02.000Z</time>
      </trkpt>
      <trkpt lat="45.84987" lon="3.53753">
        <ele>308.1</ele>
        <time>2026-05-10T09:34:03.000Z</time>
      </trkpt>
      <trkpt lat="45.84986" lon="3.53751">
        <ele>308</ele>
        <time>2026-05-10T09:34:04.000Z</time>
      </trkpt>
      <trkpt lat="45.84985" lon="3.53749">
        <ele>308</ele>
        <time>2026-05-10T09:34:05.000Z</time>
      </trkpt>
      <trkpt lat="45.84985" lon="3.53747">
        <ele>308</ele>
        <time>2026-05-10T09:34:06.000Z</time>
      </trkpt>
      <trkpt lat="45.84984" lon="3.53745">
        <ele>308</ele>
        <time>2026-05-10T09:34:07.000Z</time>
      </trkpt>
      <trkpt lat="45.84983" lon="3.53743">
        <ele>308</ele>
        <time>2026-05-10T09:34:08.000Z</time>
      </trkpt>
      <trkpt lat="45.84982" lon="3.53741">
        <ele>308</ele>
        <time>2026-05-10T09:34:09.000Z</time>
      </trkpt>
      <trkpt lat="45.84982" lon="3.53738">
        <ele>308</ele>
        <time>2026-05-10T09:34:10.000Z</time>
      </trkpt>
      <trkpt lat="45.84981" lon="3.53736">
        <ele>308</ele>
        <time>2026-05-10T09:34:11.000Z</time>
      </trkpt>
      <trkpt lat="45.8498" lon="3.53734">
        <ele>308</ele>
        <time>2026-05-10T09:34:12.000Z</time>
      </trkpt>
      <trkpt lat="45.8498" lon="3.53733">
        <ele>308</ele>
        <time>2026-05-10T09:34:13.000Z</time>
      </trkpt>
      <trkpt lat="45.84979" lon="3.53732">
        <ele>308</ele>
        <time>2026-05-10T09:34:14.000Z</time>
      </trkpt>
      <trkpt lat="45.84979" lon="3.53731">
        <ele>308</ele>
        <time>2026-05-10T09:34:15.000Z</time>
      </trkpt>
      <trkpt lat="45.84979" lon="3.53729">
        <ele>308</ele>
        <time>2026-05-10T09:34:16.000Z</time>
      </trkpt>
      <trkpt lat="45.84979" lon="3.53727">
        <ele>308</ele>
        <time>2026-05-10T09:34:17.000Z</time>
      </trkpt>
      <trkpt lat="45.84979" lon="3.53725">
        <ele>308</ele>
        <time>2026-05-10T09:34:18.000Z</time>
      </trkpt>
      <trkpt lat="45.84978" lon="3.53724">
        <ele>308</ele>
        <time>2026-05-10T09:34:19.000Z</time>
      </trkpt>
      <trkpt lat="45.84977" lon="3.53722">
        <ele>308</ele>
        <time>2026-05-10T09:34:20.000Z</time>
      </trkpt>
      <trkpt lat="45.84977" lon="3.5372">
        <ele>308</ele>
        <time>2026-05-10T09:34:21.000Z</time>
      </trkpt>
      <trkpt lat="45.84976" lon="3.53718">
        <ele>308</ele>
        <time>2026-05-10T09:34:22.000Z</time>
      </trkpt>
      <trkpt lat="45.84975" lon="3.53717">
        <ele>308</ele>
        <time>2026-05-10T09:34:23.000Z</time>
      </trkpt>
      <trkpt lat="45.84975" lon="3.53715">
        <ele>308</ele>
        <time>2026-05-10T09:34:24.000Z</time>
      </trkpt>
      <trkpt lat="45.84974" lon="3.53714">
        <ele>308</ele>
        <time>2026-05-10T09:34:25.000Z</time>
      </trkpt>
      <trkpt lat="45.84974" lon="3.53712">
        <ele>308</ele>
        <time>2026-05-10T09:34:26.000Z</time>
      </trkpt>
      <trkpt lat="45.84973" lon="3.5371">
        <ele>308</ele>
        <time>2026-05-10T09:34:27.000Z</time>
      </trkpt>
      <trkpt lat="45.84973" lon="3.53709">
        <ele>308</ele>
        <time>2026-05-10T09:34:28.000Z</time>
      </trkpt>
      <trkpt lat="45.84973" lon="3.53707">
        <ele>308</ele>
        <time>2026-05-10T09:34:29.000Z</time>
      </trkpt>
      <trkpt lat="45.84972" lon="3.53705">
        <ele>308</ele>
        <time>2026-05-10T09:34:30.000Z</time>
      </trkpt>
      <trkpt lat="45.84971" lon="3.53703">
        <ele>308</ele>
        <time>2026-05-10T09:34:31.000Z</time>
      </trkpt>
      <trkpt lat="45.84971" lon="3.53701">
        <ele>308</ele>
        <time>2026-05-10T09:34:32.000Z</time>
      </trkpt>
      <trkpt lat="45.8497" lon="3.53699">
        <ele>308</ele>
        <time>2026-05-10T09:34:33.000Z</time>
      </trkpt>
      <trkpt lat="45.84969" lon="3.53697">
        <ele>308</ele>
        <time>2026-05-10T09:34:34.000Z</time>
      </trkpt>
      <trkpt lat="45.84969" lon="3.53695">
        <ele>308</ele>
        <time>2026-05-10T09:34:35.000Z</time>
      </trkpt>
      <trkpt lat="45.84968" lon="3.53693">
        <ele>308</ele>
        <time>2026-05-10T09:34:36.000Z</time>
      </trkpt>
      <trkpt lat="45.84968" lon="3.53692">
        <ele>307.9</ele>
        <time>2026-05-10T09:34:37.000Z</time>
      </trkpt>
      <trkpt lat="45.84968" lon="3.5369">
        <ele>307.9</ele>
        <time>2026-05-10T09:34:38.000Z</time>
      </trkpt>
      <trkpt lat="45.84967" lon="3.53688">
        <ele>307.8</ele>
        <time>2026-05-10T09:34:39.000Z</time>
      </trkpt>
      <trkpt lat="45.84967" lon="3.53686">
        <ele>307.8</ele>
        <time>2026-05-10T09:34:40.000Z</time>
      </trkpt>
      <trkpt lat="45.84966" lon="3.53685">
        <ele>307.7</ele>
        <time>2026-05-10T09:34:41.000Z</time>
      </trkpt>
      <trkpt lat="45.84966" lon="3.53683">
        <ele>307.7</ele>
        <time>2026-05-10T09:34:42.000Z</time>
      </trkpt>
      <trkpt lat="45.84965" lon="3.53682">
        <ele>307.7</ele>
        <time>2026-05-10T09:34:43.000Z</time>
      </trkpt>
      <trkpt lat="45.84965" lon="3.5368">
        <ele>307.6</ele>
        <time>2026-05-10T09:34:44.000Z</time>
      </trkpt>
      <trkpt lat="45.84964" lon="3.53678">
        <ele>307.6</ele>
        <time>2026-05-10T09:34:45.000Z</time>
      </trkpt>
      <trkpt lat="45.84963" lon="3.53676">
        <ele>307.5</ele>
        <time>2026-05-10T09:34:46.000Z</time>
      </trkpt>
      <trkpt lat="45.84963" lon="3.53674">
        <ele>307.5</ele>
        <time>2026-05-10T09:34:47.000Z</time>
      </trkpt>
      <trkpt lat="45.84962" lon="3.53672">
        <ele>307.5</ele>
        <time>2026-05-10T09:34:48.000Z</time>
      </trkpt>
      <trkpt lat="45.84961" lon="3.53671">
        <ele>307.5</ele>
        <time>2026-05-10T09:34:49.000Z</time>
      </trkpt>
      <trkpt lat="45.8496" lon="3.53669">
        <ele>307.5</ele>
        <time>2026-05-10T09:34:50.000Z</time>
      </trkpt>
      <trkpt lat="45.84959" lon="3.53667">
        <ele>307.5</ele>
        <time>2026-05-10T09:34:51.000Z</time>
      </trkpt>
      <trkpt lat="45.84959" lon="3.53665">
        <ele>307.5</ele>
        <time>2026-05-10T09:34:52.000Z</time>
      </trkpt>
      <trkpt lat="45.84958" lon="3.53663">
        <ele>307.4</ele>
        <time>2026-05-10T09:34:53.000Z</time>
      </trkpt>
      <trkpt lat="45.84958" lon="3.53661">
        <ele>307.4</ele>
        <time>2026-05-10T09:34:54.000Z</time>
      </trkpt>
      <trkpt lat="45.84957" lon="3.53659">
        <ele>307.4</ele>
        <time>2026-05-10T09:34:55.000Z</time>
      </trkpt>
      <trkpt lat="45.84956" lon="3.53657">
        <ele>307.4</ele>
        <time>2026-05-10T09:34:56.000Z</time>
      </trkpt>
      <trkpt lat="45.84956" lon="3.53655">
        <ele>307.3</ele>
        <time>2026-05-10T09:34:57.000Z</time>
      </trkpt>
      <trkpt lat="45.84956" lon="3.53653">
        <ele>307.3</ele>
        <time>2026-05-10T09:34:58.000Z</time>
      </trkpt>
      <trkpt lat="45.84955" lon="3.53651">
        <ele>307.3</ele>
        <time>2026-05-10T09:34:59.000Z</time>
      </trkpt>
      <trkpt lat="45.84955" lon="3.5365">
        <ele>307.2</ele>
        <time>2026-05-10T09:35:00.000Z</time>
      </trkpt>
      <trkpt lat="45.84954" lon="3.53648">
        <ele>307.2</ele>
        <time>2026-05-10T09:35:01.000Z</time>
      </trkpt>
      <trkpt lat="45.84954" lon="3.53646">
        <ele>307.2</ele>
        <time>2026-05-10T09:35:02.000Z</time>
      </trkpt>
      <trkpt lat="45.84953" lon="3.53645">
        <ele>307.1</ele>
        <time>2026-05-10T09:35:03.000Z</time>
      </trkpt>
      <trkpt lat="45.84953" lon="3.53643">
        <ele>307.1</ele>
        <time>2026-05-10T09:35:04.000Z</time>
      </trkpt>
      <trkpt lat="45.84952" lon="3.53642">
        <ele>307.1</ele>
        <time>2026-05-10T09:35:05.000Z</time>
      </trkpt>
      <trkpt lat="45.84952" lon="3.5364">
        <ele>307</ele>
        <time>2026-05-10T09:35:06.000Z</time>
      </trkpt>
      <trkpt lat="45.84952" lon="3.53638">
        <ele>307</ele>
        <time>2026-05-10T09:35:07.000Z</time>
      </trkpt>
      <trkpt lat="45.84951" lon="3.53636">
        <ele>307</ele>
        <time>2026-05-10T09:35:08.000Z</time>
      </trkpt>
      <trkpt lat="45.84951" lon="3.53634">
        <ele>307</ele>
        <time>2026-05-10T09:35:09.000Z</time>
      </trkpt>
      <trkpt lat="45.8495" lon="3.53632">
        <ele>307</ele>
        <time>2026-05-10T09:35:10.000Z</time>
      </trkpt>
      <trkpt lat="45.84949" lon="3.5363">
        <ele>307</ele>
        <time>2026-05-10T09:35:11.000Z</time>
      </trkpt>
      <trkpt lat="45.84948" lon="3.53629">
        <ele>307</ele>
        <time>2026-05-10T09:35:12.000Z</time>
      </trkpt>
      <trkpt lat="45.84948" lon="3.53627">
        <ele>307</ele>
        <time>2026-05-10T09:35:13.000Z</time>
      </trkpt>
      <trkpt lat="45.84948" lon="3.53625">
        <ele>307</ele>
        <time>2026-05-10T09:35:14.000Z</time>
      </trkpt>
      <trkpt lat="45.84947" lon="3.53623">
        <ele>307</ele>
        <time>2026-05-10T09:35:15.000Z</time>
      </trkpt>
      <trkpt lat="45.84947" lon="3.53622">
        <ele>307</ele>
        <time>2026-05-10T09:35:16.000Z</time>
      </trkpt>
      <trkpt lat="45.84946" lon="3.5362">
        <ele>307</ele>
        <time>2026-05-10T09:35:17.000Z</time>
      </trkpt>
      <trkpt lat="45.84946" lon="3.53618">
        <ele>307</ele>
        <time>2026-05-10T09:35:18.000Z</time>
      </trkpt>
      <trkpt lat="45.84945" lon="3.53616">
        <ele>307</ele>
        <time>2026-05-10T09:35:19.000Z</time>
      </trkpt>
      <trkpt lat="45.84945" lon="3.53614">
        <ele>307</ele>
        <time>2026-05-10T09:35:20.000Z</time>
      </trkpt>
      <trkpt lat="45.84944" lon="3.53613">
        <ele>307</ele>
        <time>2026-05-10T09:35:21.000Z</time>
      </trkpt>
      <trkpt lat="45.84944" lon="3.53611">
        <ele>307</ele>
        <time>2026-05-10T09:35:22.000Z</time>
      </trkpt>
      <trkpt lat="45.84943" lon="3.53609">
        <ele>307</ele>
        <time>2026-05-10T09:35:23.000Z</time>
      </trkpt>
      <trkpt lat="45.84943" lon="3.53607">
        <ele>307.1</ele>
        <time>2026-05-10T09:35:24.000Z</time>
      </trkpt>
      <trkpt lat="45.84942" lon="3.53606">
        <ele>307.1</ele>
        <time>2026-05-10T09:35:25.000Z</time>
      </trkpt>
      <trkpt lat="45.84942" lon="3.53604">
        <ele>307.1</ele>
        <time>2026-05-10T09:35:26.000Z</time>
      </trkpt>
      <trkpt lat="45.84941" lon="3.53602">
        <ele>307.1</ele>
        <time>2026-05-10T09:35:27.000Z</time>
      </trkpt>
      <trkpt lat="45.84941" lon="3.53601">
        <ele>307.1</ele>
        <time>2026-05-10T09:35:28.000Z</time>
      </trkpt>
      <trkpt lat="45.8494" lon="3.53599">
        <ele>307.2</ele>
        <time>2026-05-10T09:35:29.000Z</time>
      </trkpt>
      <trkpt lat="45.84939" lon="3.53597">
        <ele>307.2</ele>
        <time>2026-05-10T09:35:30.000Z</time>
      </trkpt>
      <trkpt lat="45.84939" lon="3.53595">
        <ele>307.2</ele>
        <time>2026-05-10T09:35:31.000Z</time>
      </trkpt>
      <trkpt lat="45.84938" lon="3.53593">
        <ele>307.2</ele>
        <time>2026-05-10T09:35:32.000Z</time>
      </trkpt>
      <trkpt lat="45.84937" lon="3.53591">
        <ele>307.3</ele>
        <time>2026-05-10T09:35:33.000Z</time>
      </trkpt>
      <trkpt lat="45.84937" lon="3.53589">
        <ele>307.3</ele>
        <time>2026-05-10T09:35:34.000Z</time>
      </trkpt>
      <trkpt lat="45.84936" lon="3.53588">
        <ele>307.3</ele>
        <time>2026-05-10T09:35:35.000Z</time>
      </trkpt>
      <trkpt lat="45.84936" lon="3.53587">
        <ele>307.3</ele>
        <time>2026-05-10T09:35:36.000Z</time>
      </trkpt>
      <trkpt lat="45.84936" lon="3.53585">
        <ele>307.3</ele>
        <time>2026-05-10T09:35:37.000Z</time>
      </trkpt>
      <trkpt lat="45.84935" lon="3.53583">
        <ele>307.3</ele>
        <time>2026-05-10T09:35:38.000Z</time>
      </trkpt>
      <trkpt lat="45.84935" lon="3.53581">
        <ele>307.4</ele>
        <time>2026-05-10T09:35:39.000Z</time>
      </trkpt>
      <trkpt lat="45.84934" lon="3.5358">
        <ele>307.4</ele>
        <time>2026-05-10T09:35:40.000Z</time>
      </trkpt>
      <trkpt lat="45.84934" lon="3.53577">
        <ele>307.4</ele>
        <time>2026-05-10T09:35:41.000Z</time>
      </trkpt>
      <trkpt lat="45.84933" lon="3.53575">
        <ele>307.4</ele>
        <time>2026-05-10T09:35:42.000Z</time>
      </trkpt>
      <trkpt lat="45.84932" lon="3.53574">
        <ele>307.4</ele>
        <time>2026-05-10T09:35:43.000Z</time>
      </trkpt>
      <trkpt lat="45.84932" lon="3.53572">
        <ele>307.5</ele>
        <time>2026-05-10T09:35:44.000Z</time>
      </trkpt>
      <trkpt lat="45.84931" lon="3.53571">
        <ele>307.5</ele>
        <time>2026-05-10T09:35:45.000Z</time>
      </trkpt>
      <trkpt lat="45.84931" lon="3.53569">
        <ele>307.5</ele>
        <time>2026-05-10T09:35:46.000Z</time>
      </trkpt>
      <trkpt lat="45.84931" lon="3.53568">
        <ele>307.5</ele>
        <time>2026-05-10T09:35:47.000Z</time>
      </trkpt>
      <trkpt lat="45.8493" lon="3.53567">
        <ele>307.5</ele>
        <time>2026-05-10T09:35:48.000Z</time>
      </trkpt>
      <trkpt lat="45.8493" lon="3.53564">
        <ele>307.5</ele>
        <time>2026-05-10T09:35:49.000Z</time>
      </trkpt>
      <trkpt lat="45.84929" lon="3.53562">
        <ele>307.5</ele>
        <time>2026-05-10T09:35:50.000Z</time>
      </trkpt>
      <trkpt lat="45.84929" lon="3.5356">
        <ele>307.6</ele>
        <time>2026-05-10T09:35:51.000Z</time>
      </trkpt>
      <trkpt lat="45.84929" lon="3.53558">
        <ele>307.6</ele>
        <time>2026-05-10T09:35:52.000Z</time>
      </trkpt>
      <trkpt lat="45.84929" lon="3.53557">
        <ele>307.6</ele>
        <time>2026-05-10T09:35:53.000Z</time>
      </trkpt>
      <trkpt lat="45.84928" lon="3.53555">
        <ele>307.6</ele>
        <time>2026-05-10T09:35:54.000Z</time>
      </trkpt>
      <trkpt lat="45.84928" lon="3.53553">
        <ele>307.6</ele>
        <time>2026-05-10T09:35:55.000Z</time>
      </trkpt>
      <trkpt lat="45.84928" lon="3.53552">
        <ele>307.6</ele>
        <time>2026-05-10T09:35:56.000Z</time>
      </trkpt>
      <trkpt lat="45.84927" lon="3.53551">
        <ele>307.6</ele>
        <time>2026-05-10T09:35:57.000Z</time>
      </trkpt>
      <trkpt lat="45.84927" lon="3.5355">
        <ele>307.6</ele>
        <time>2026-05-10T09:35:58.000Z</time>
      </trkpt>
      <trkpt lat="45.84927" lon="3.53548">
        <ele>307.6</ele>
        <time>2026-05-10T09:35:59.000Z</time>
      </trkpt>
      <trkpt lat="45.84926" lon="3.53546">
        <ele>307.7</ele>
        <time>2026-05-10T09:36:00.000Z</time>
      </trkpt>
      <trkpt lat="45.84926" lon="3.53544">
        <ele>307.7</ele>
        <time>2026-05-10T09:36:01.000Z</time>
      </trkpt>
      <trkpt lat="45.84925" lon="3.53543">
        <ele>307.7</ele>
        <time>2026-05-10T09:36:02.000Z</time>
      </trkpt>
      <trkpt lat="45.84925" lon="3.53541">
        <ele>307.7</ele>
        <time>2026-05-10T09:36:03.000Z</time>
      </trkpt>
      <trkpt lat="45.84924" lon="3.5354">
        <ele>307.7</ele>
        <time>2026-05-10T09:36:04.000Z</time>
      </trkpt>
      <trkpt lat="45.84924" lon="3.53538">
        <ele>307.7</ele>
        <time>2026-05-10T09:36:05.000Z</time>
      </trkpt>
      <trkpt lat="45.84923" lon="3.53537">
        <ele>307.8</ele>
        <time>2026-05-10T09:36:06.000Z</time>
      </trkpt>
      <trkpt lat="45.84923" lon="3.53535">
        <ele>307.8</ele>
        <time>2026-05-10T09:36:07.000Z</time>
      </trkpt>
      <trkpt lat="45.84923" lon="3.53534">
        <ele>307.8</ele>
        <time>2026-05-10T09:36:08.000Z</time>
      </trkpt>
      <trkpt lat="45.84922" lon="3.53533">
        <ele>307.8</ele>
        <time>2026-05-10T09:36:09.000Z</time>
      </trkpt>
      <trkpt lat="45.84922" lon="3.53531">
        <ele>307.8</ele>
        <time>2026-05-10T09:36:10.000Z</time>
      </trkpt>
      <trkpt lat="45.84922" lon="3.5353">
        <ele>307.8</ele>
        <time>2026-05-10T09:36:11.000Z</time>
      </trkpt>
      <trkpt lat="45.84922" lon="3.53528">
        <ele>307.8</ele>
        <time>2026-05-10T09:36:12.000Z</time>
      </trkpt>
      <trkpt lat="45.84921" lon="3.53527">
        <ele>307.8</ele>
        <time>2026-05-10T09:36:13.000Z</time>
      </trkpt>
      <trkpt lat="45.84921" lon="3.53526">
        <ele>307.8</ele>
        <time>2026-05-10T09:36:14.000Z</time>
      </trkpt>
      <trkpt lat="45.84921" lon="3.53524">
        <ele>307.9</ele>
        <time>2026-05-10T09:36:15.000Z</time>
      </trkpt>
      <trkpt lat="45.8492" lon="3.53523">
        <ele>307.9</ele>
        <time>2026-05-10T09:36:16.000Z</time>
      </trkpt>
      <trkpt lat="45.8492" lon="3.53521">
        <ele>307.9</ele>
        <time>2026-05-10T09:36:17.000Z</time>
      </trkpt>
      <trkpt lat="45.84919" lon="3.5352">
        <ele>307.9</ele>
        <time>2026-05-10T09:36:18.000Z</time>
      </trkpt>
      <trkpt lat="45.84919" lon="3.53518">
        <ele>307.9</ele>
        <time>2026-05-10T09:36:19.000Z</time>
      </trkpt>
      <trkpt lat="45.84919" lon="3.53517">
        <ele>307.9</ele>
        <time>2026-05-10T09:36:20.000Z</time>
      </trkpt>
      <trkpt lat="45.84918" lon="3.53515">
        <ele>307.9</ele>
        <time>2026-05-10T09:36:21.000Z</time>
      </trkpt>
      <trkpt lat="45.84918" lon="3.53513">
        <ele>308</ele>
        <time>2026-05-10T09:36:22.000Z</time>
      </trkpt>
      <trkpt lat="45.84917" lon="3.53511">
        <ele>308</ele>
        <time>2026-05-10T09:36:23.000Z</time>
      </trkpt>
      <trkpt lat="45.84917" lon="3.53509">
        <ele>308</ele>
        <time>2026-05-10T09:36:24.000Z</time>
      </trkpt>
      <trkpt lat="45.84916" lon="3.53507">
        <ele>308</ele>
        <time>2026-05-10T09:36:25.000Z</time>
      </trkpt>
      <trkpt lat="45.84915" lon="3.53505">
        <ele>308</ele>
        <time>2026-05-10T09:36:26.000Z</time>
      </trkpt>
      <trkpt lat="45.84914" lon="3.53504">
        <ele>308</ele>
        <time>2026-05-10T09:36:27.000Z</time>
      </trkpt>
      <trkpt lat="45.84914" lon="3.53503">
        <ele>308</ele>
        <time>2026-05-10T09:36:28.000Z</time>
      </trkpt>
      <trkpt lat="45.84913" lon="3.53501">
        <ele>308</ele>
        <time>2026-05-10T09:36:29.000Z</time>
      </trkpt>
      <trkpt lat="45.84913" lon="3.535">
        <ele>308</ele>
        <time>2026-05-10T09:36:30.000Z</time>
      </trkpt>
      <trkpt lat="45.84912" lon="3.53499">
        <ele>308</ele>
        <time>2026-05-10T09:36:31.000Z</time>
      </trkpt>
      <trkpt lat="45.84911" lon="3.53497">
        <ele>308</ele>
        <time>2026-05-10T09:36:32.000Z</time>
      </trkpt>
      <trkpt lat="45.8491" lon="3.53495">
        <ele>308</ele>
        <time>2026-05-10T09:36:33.000Z</time>
      </trkpt>
      <trkpt lat="45.8491" lon="3.53493">
        <ele>308</ele>
        <time>2026-05-10T09:36:34.000Z</time>
      </trkpt>
      <trkpt lat="45.84909" lon="3.53492">
        <ele>308</ele>
        <time>2026-05-10T09:36:35.000Z</time>
      </trkpt>
      <trkpt lat="45.84908" lon="3.5349">
        <ele>308</ele>
        <time>2026-05-10T09:36:36.000Z</time>
      </trkpt>
      <trkpt lat="45.84907" lon="3.53488">
        <ele>308</ele>
        <time>2026-05-10T09:36:37.000Z</time>
      </trkpt>
      <trkpt lat="45.84907" lon="3.53486">
        <ele>308</ele>
        <time>2026-05-10T09:36:38.000Z</time>
      </trkpt>
      <trkpt lat="45.84906" lon="3.53485">
        <ele>308</ele>
        <time>2026-05-10T09:36:39.000Z</time>
      </trkpt>
      <trkpt lat="45.84906" lon="3.53483">
        <ele>308</ele>
        <time>2026-05-10T09:36:40.000Z</time>
      </trkpt>
      <trkpt lat="45.84905" lon="3.53481">
        <ele>308</ele>
        <time>2026-05-10T09:36:41.000Z</time>
      </trkpt>
      <trkpt lat="45.84904" lon="3.53479">
        <ele>308</ele>
        <time>2026-05-10T09:36:42.000Z</time>
      </trkpt>
      <trkpt lat="45.84904" lon="3.53478">
        <ele>308</ele>
        <time>2026-05-10T09:36:43.000Z</time>
      </trkpt>
      <trkpt lat="45.84904" lon="3.53476">
        <ele>308</ele>
        <time>2026-05-10T09:36:44.000Z</time>
      </trkpt>
      <trkpt lat="45.84903" lon="3.53474">
        <ele>308</ele>
        <time>2026-05-10T09:36:45.000Z</time>
      </trkpt>
      <trkpt lat="45.84902" lon="3.53473">
        <ele>308</ele>
        <time>2026-05-10T09:36:46.000Z</time>
      </trkpt>
      <trkpt lat="45.84902" lon="3.53471">
        <ele>308</ele>
        <time>2026-05-10T09:36:47.000Z</time>
      </trkpt>
      <trkpt lat="45.84901" lon="3.5347">
        <ele>307.9</ele>
        <time>2026-05-10T09:36:48.000Z</time>
      </trkpt>
      <trkpt lat="45.84901" lon="3.53468">
        <ele>307.9</ele>
        <time>2026-05-10T09:36:49.000Z</time>
      </trkpt>
      <trkpt lat="45.849" lon="3.53467">
        <ele>307.9</ele>
        <time>2026-05-10T09:36:50.000Z</time>
      </trkpt>
      <trkpt lat="45.84899" lon="3.53465">
        <ele>307.8</ele>
        <time>2026-05-10T09:36:51.000Z</time>
      </trkpt>
      <trkpt lat="45.84898" lon="3.53464">
        <ele>307.8</ele>
        <time>2026-05-10T09:36:52.000Z</time>
      </trkpt>
      <trkpt lat="45.84897" lon="3.53462">
        <ele>307.7</ele>
        <time>2026-05-10T09:36:53.000Z</time>
      </trkpt>
      <trkpt lat="45.84897" lon="3.53461">
        <ele>307.7</ele>
        <time>2026-05-10T09:36:54.000Z</time>
      </trkpt>
      <trkpt lat="45.84896" lon="3.53459">
        <ele>307.6</ele>
        <time>2026-05-10T09:36:55.000Z</time>
      </trkpt>
      <trkpt lat="45.84896" lon="3.53457">
        <ele>307.6</ele>
        <time>2026-05-10T09:36:56.000Z</time>
      </trkpt>
      <trkpt lat="45.84896" lon="3.53456">
        <ele>307.5</ele>
        <time>2026-05-10T09:36:57.000Z</time>
      </trkpt>
      <trkpt lat="45.84895" lon="3.53454">
        <ele>307.5</ele>
        <time>2026-05-10T09:36:58.000Z</time>
      </trkpt>
      <trkpt lat="45.84895" lon="3.53451">
        <ele>307.4</ele>
        <time>2026-05-10T09:36:59.000Z</time>
      </trkpt>
      <trkpt lat="45.84895" lon="3.53449">
        <ele>307.3</ele>
        <time>2026-05-10T09:37:00.000Z</time>
      </trkpt>
      <trkpt lat="45.84894" lon="3.53447">
        <ele>307.3</ele>
        <time>2026-05-10T09:37:01.000Z</time>
      </trkpt>
      <trkpt lat="45.84894" lon="3.53445">
        <ele>307.2</ele>
        <time>2026-05-10T09:37:02.000Z</time>
      </trkpt>
      <trkpt lat="45.84894" lon="3.53443">
        <ele>307.1</ele>
        <time>2026-05-10T09:37:03.000Z</time>
      </trkpt>
      <trkpt lat="45.84893" lon="3.53441">
        <ele>307.1</ele>
        <time>2026-05-10T09:37:04.000Z</time>
      </trkpt>
      <trkpt lat="45.84893" lon="3.5344">
        <ele>307.1</ele>
        <time>2026-05-10T09:37:05.000Z</time>
      </trkpt>
      <trkpt lat="45.84892" lon="3.53438">
        <ele>307.1</ele>
        <time>2026-05-10T09:37:06.000Z</time>
      </trkpt>
      <trkpt lat="45.84891" lon="3.53436">
        <ele>307</ele>
        <time>2026-05-10T09:37:07.000Z</time>
      </trkpt>
      <trkpt lat="45.84891" lon="3.53434">
        <ele>307</ele>
        <time>2026-05-10T09:37:08.000Z</time>
      </trkpt>
      <trkpt lat="45.84891" lon="3.53433">
        <ele>307</ele>
        <time>2026-05-10T09:37:09.000Z</time>
      </trkpt>
      <trkpt lat="45.8489" lon="3.53431">
        <ele>307</ele>
        <time>2026-05-10T09:37:10.000Z</time>
      </trkpt>
      <trkpt lat="45.8489" lon="3.5343">
        <ele>307</ele>
        <time>2026-05-10T09:37:11.000Z</time>
      </trkpt>
      <trkpt lat="45.84889" lon="3.53428">
        <ele>307</ele>
        <time>2026-05-10T09:37:12.000Z</time>
      </trkpt>
      <trkpt lat="45.84889" lon="3.53427">
        <ele>307</ele>
        <time>2026-05-10T09:37:13.000Z</time>
      </trkpt>
      <trkpt lat="45.84889" lon="3.53425">
        <ele>307</ele>
        <time>2026-05-10T09:37:14.000Z</time>
      </trkpt>
      <trkpt lat="45.84888" lon="3.53423">
        <ele>307</ele>
        <time>2026-05-10T09:37:15.000Z</time>
      </trkpt>
      <trkpt lat="45.84888" lon="3.53421">
        <ele>307.1</ele>
        <time>2026-05-10T09:37:16.000Z</time>
      </trkpt>
      <trkpt lat="45.84887" lon="3.5342">
        <ele>307.1</ele>
        <time>2026-05-10T09:37:17.000Z</time>
      </trkpt>
      <trkpt lat="45.84886" lon="3.53418">
        <ele>307.1</ele>
        <time>2026-05-10T09:37:18.000Z</time>
      </trkpt>
      <trkpt lat="45.84886" lon="3.53417">
        <ele>307.1</ele>
        <time>2026-05-10T09:37:19.000Z</time>
      </trkpt>
      <trkpt lat="45.84885" lon="3.53416">
        <ele>307.1</ele>
        <time>2026-05-10T09:37:20.000Z</time>
      </trkpt>
      <trkpt lat="45.84885" lon="3.53414">
        <ele>307.1</ele>
        <time>2026-05-10T09:37:21.000Z</time>
      </trkpt>
      <trkpt lat="45.84884" lon="3.53412">
        <ele>307</ele>
        <time>2026-05-10T09:37:22.000Z</time>
      </trkpt>
      <trkpt lat="45.84884" lon="3.53411">
        <ele>307</ele>
        <time>2026-05-10T09:37:23.000Z</time>
      </trkpt>
      <trkpt lat="45.84883" lon="3.53409">
        <ele>306.9</ele>
        <time>2026-05-10T09:37:24.000Z</time>
      </trkpt>
      <trkpt lat="45.84883" lon="3.53407">
        <ele>306.9</ele>
        <time>2026-05-10T09:37:25.000Z</time>
      </trkpt>
      <trkpt lat="45.84882" lon="3.53406">
        <ele>306.8</ele>
        <time>2026-05-10T09:37:26.000Z</time>
      </trkpt>
      <trkpt lat="45.84882" lon="3.53404">
        <ele>306.8</ele>
        <time>2026-05-10T09:37:27.000Z</time>
      </trkpt>
      <trkpt lat="45.84881" lon="3.53403">
        <ele>306.8</ele>
        <time>2026-05-10T09:37:28.000Z</time>
      </trkpt>
      <trkpt lat="45.84881" lon="3.53401">
        <ele>306.7</ele>
        <time>2026-05-10T09:37:29.000Z</time>
      </trkpt>
      <trkpt lat="45.8488" lon="3.534">
        <ele>306.7</ele>
        <time>2026-05-10T09:37:30.000Z</time>
      </trkpt>
      <trkpt lat="45.8488" lon="3.53398">
        <ele>306.6</ele>
        <time>2026-05-10T09:37:31.000Z</time>
      </trkpt>
      <trkpt lat="45.8488" lon="3.53396">
        <ele>306.6</ele>
        <time>2026-05-10T09:37:32.000Z</time>
      </trkpt>
      <trkpt lat="45.84879" lon="3.53394">
        <ele>306.5</ele>
        <time>2026-05-10T09:37:33.000Z</time>
      </trkpt>
      <trkpt lat="45.84879" lon="3.53392">
        <ele>306.5</ele>
        <time>2026-05-10T09:37:34.000Z</time>
      </trkpt>
      <trkpt lat="45.84879" lon="3.5339">
        <ele>306.4</ele>
        <time>2026-05-10T09:37:35.000Z</time>
      </trkpt>
      <trkpt lat="45.84878" lon="3.53388">
        <ele>306.4</ele>
        <time>2026-05-10T09:37:36.000Z</time>
      </trkpt>
      <trkpt lat="45.84878" lon="3.53387">
        <ele>306.4</ele>
        <time>2026-05-10T09:37:37.000Z</time>
      </trkpt>
      <trkpt lat="45.84877" lon="3.53386">
        <ele>306.4</ele>
        <time>2026-05-10T09:37:38.000Z</time>
      </trkpt>
      <trkpt lat="45.84877" lon="3.53384">
        <ele>306.4</ele>
        <time>2026-05-10T09:37:39.000Z</time>
      </trkpt>
      <trkpt lat="45.84876" lon="3.53383">
        <ele>306.4</ele>
        <time>2026-05-10T09:37:40.000Z</time>
      </trkpt>
      <trkpt lat="45.84875" lon="3.53382">
        <ele>306.4</ele>
        <time>2026-05-10T09:37:41.000Z</time>
      </trkpt>
      <trkpt lat="45.84875" lon="3.5338">
        <ele>306.3</ele>
        <time>2026-05-10T09:37:42.000Z</time>
      </trkpt>
      <trkpt lat="45.84874" lon="3.53378">
        <ele>306.3</ele>
        <time>2026-05-10T09:37:43.000Z</time>
      </trkpt>
      <trkpt lat="45.84873" lon="3.53376">
        <ele>306.3</ele>
        <time>2026-05-10T09:37:44.000Z</time>
      </trkpt>
      <trkpt lat="45.84872" lon="3.53374">
        <ele>306.3</ele>
        <time>2026-05-10T09:37:45.000Z</time>
      </trkpt>
      <trkpt lat="45.84872" lon="3.53372">
        <ele>306.2</ele>
        <time>2026-05-10T09:37:46.000Z</time>
      </trkpt>
      <trkpt lat="45.84871" lon="3.5337">
        <ele>306.2</ele>
        <time>2026-05-10T09:37:47.000Z</time>
      </trkpt>
      <trkpt lat="45.84871" lon="3.53368">
        <ele>306.2</ele>
        <time>2026-05-10T09:37:48.000Z</time>
      </trkpt>
      <trkpt lat="45.84871" lon="3.53366">
        <ele>306.1</ele>
        <time>2026-05-10T09:37:49.000Z</time>
      </trkpt>
      <trkpt lat="45.8487" lon="3.53364">
        <ele>306.1</ele>
        <time>2026-05-10T09:37:50.000Z</time>
      </trkpt>
      <trkpt lat="45.8487" lon="3.53362">
        <ele>306</ele>
        <time>2026-05-10T09:37:51.000Z</time>
      </trkpt>
      <trkpt lat="45.8487" lon="3.5336">
        <ele>306</ele>
        <time>2026-05-10T09:37:52.000Z</time>
      </trkpt>
      <trkpt lat="45.84869" lon="3.53358">
        <ele>306</ele>
        <time>2026-05-10T09:37:53.000Z</time>
      </trkpt>
      <trkpt lat="45.84869" lon="3.53356">
        <ele>306</ele>
        <time>2026-05-10T09:37:54.000Z</time>
      </trkpt>
      <trkpt lat="45.84868" lon="3.53355">
        <ele>306</ele>
        <time>2026-05-10T09:37:55.000Z</time>
      </trkpt>
      <trkpt lat="45.84868" lon="3.53353">
        <ele>306</ele>
        <time>2026-05-10T09:37:56.000Z</time>
      </trkpt>
      <trkpt lat="45.84867" lon="3.53351">
        <ele>306</ele>
        <time>2026-05-10T09:37:57.000Z</time>
      </trkpt>
      <trkpt lat="45.84867" lon="3.5335">
        <ele>306</ele>
        <time>2026-05-10T09:37:58.000Z</time>
      </trkpt>
      <trkpt lat="45.84866" lon="3.53348">
        <ele>306</ele>
        <time>2026-05-10T09:37:59.000Z</time>
      </trkpt>
      <trkpt lat="45.84866" lon="3.53347">
        <ele>306</ele>
        <time>2026-05-10T09:38:00.000Z</time>
      </trkpt>
      <trkpt lat="45.84865" lon="3.53345">
        <ele>306</ele>
        <time>2026-05-10T09:38:01.000Z</time>
      </trkpt>
      <trkpt lat="45.84864" lon="3.53343">
        <ele>306</ele>
        <time>2026-05-10T09:38:02.000Z</time>
      </trkpt>
      <trkpt lat="45.84864" lon="3.53341">
        <ele>306</ele>
        <time>2026-05-10T09:38:03.000Z</time>
      </trkpt>
      <trkpt lat="45.84863" lon="3.5334">
        <ele>306</ele>
        <time>2026-05-10T09:38:04.000Z</time>
      </trkpt>
      <trkpt lat="45.84863" lon="3.53338">
        <ele>306</ele>
        <time>2026-05-10T09:38:05.000Z</time>
      </trkpt>
      <trkpt lat="45.84862" lon="3.53337">
        <ele>306</ele>
        <time>2026-05-10T09:38:06.000Z</time>
      </trkpt>
      <trkpt lat="45.84861" lon="3.53335">
        <ele>306</ele>
        <time>2026-05-10T09:38:07.000Z</time>
      </trkpt>
      <trkpt lat="45.84861" lon="3.53333">
        <ele>306</ele>
        <time>2026-05-10T09:38:08.000Z</time>
      </trkpt>
      <trkpt lat="45.8486" lon="3.53332">
        <ele>306</ele>
        <time>2026-05-10T09:38:09.000Z</time>
      </trkpt>
      <trkpt lat="45.8486" lon="3.53331">
        <ele>306</ele>
        <time>2026-05-10T09:38:10.000Z</time>
      </trkpt>
      <trkpt lat="45.8486" lon="3.53328">
        <ele>306</ele>
        <time>2026-05-10T09:38:11.000Z</time>
      </trkpt>
      <trkpt lat="45.84859" lon="3.53327">
        <ele>306.1</ele>
        <time>2026-05-10T09:38:12.000Z</time>
      </trkpt>
      <trkpt lat="45.84858" lon="3.53325">
        <ele>306.1</ele>
        <time>2026-05-10T09:38:13.000Z</time>
      </trkpt>
      <trkpt lat="45.84858" lon="3.53324">
        <ele>306.1</ele>
        <time>2026-05-10T09:38:14.000Z</time>
      </trkpt>
      <trkpt lat="45.84857" lon="3.53322">
        <ele>306.1</ele>
        <time>2026-05-10T09:38:15.000Z</time>
      </trkpt>
      <trkpt lat="45.84857" lon="3.5332">
        <ele>306.1</ele>
        <time>2026-05-10T09:38:16.000Z</time>
      </trkpt>
      <trkpt lat="45.84856" lon="3.53318">
        <ele>306.1</ele>
        <time>2026-05-10T09:38:17.000Z</time>
      </trkpt>
      <trkpt lat="45.84856" lon="3.53316">
        <ele>306.1</ele>
        <time>2026-05-10T09:38:18.000Z</time>
      </trkpt>
      <trkpt lat="45.84855" lon="3.53315">
        <ele>306.1</ele>
        <time>2026-05-10T09:38:19.000Z</time>
      </trkpt>
      <trkpt lat="45.84855" lon="3.53313">
        <ele>306.1</ele>
        <time>2026-05-10T09:38:20.000Z</time>
      </trkpt>
      <trkpt lat="45.84855" lon="3.53311">
        <ele>306</ele>
        <time>2026-05-10T09:38:21.000Z</time>
      </trkpt>
      <trkpt lat="45.84854" lon="3.53309">
        <ele>306</ele>
        <time>2026-05-10T09:38:22.000Z</time>
      </trkpt>
      <trkpt lat="45.84854" lon="3.53308">
        <ele>306</ele>
        <time>2026-05-10T09:38:23.000Z</time>
      </trkpt>
      <trkpt lat="45.84853" lon="3.53306">
        <ele>306</ele>
        <time>2026-05-10T09:38:24.000Z</time>
      </trkpt>
      <trkpt lat="45.84853" lon="3.53304">
        <ele>306</ele>
        <time>2026-05-10T09:38:25.000Z</time>
      </trkpt>
      <trkpt lat="45.84852" lon="3.53302">
        <ele>306</ele>
        <time>2026-05-10T09:38:26.000Z</time>
      </trkpt>
      <trkpt lat="45.84851" lon="3.53301">
        <ele>306</ele>
        <time>2026-05-10T09:38:27.000Z</time>
      </trkpt>
      <trkpt lat="45.84851" lon="3.533">
        <ele>306</ele>
        <time>2026-05-10T09:38:28.000Z</time>
      </trkpt>
      <trkpt lat="45.84851" lon="3.53298">
        <ele>306</ele>
        <time>2026-05-10T09:38:29.000Z</time>
      </trkpt>
      <trkpt lat="45.8485" lon="3.53296">
        <ele>306</ele>
        <time>2026-05-10T09:38:30.000Z</time>
      </trkpt>
      <trkpt lat="45.84849" lon="3.53294">
        <ele>306</ele>
        <time>2026-05-10T09:38:31.000Z</time>
      </trkpt>
      <trkpt lat="45.84848" lon="3.53292">
        <ele>306</ele>
        <time>2026-05-10T09:38:32.000Z</time>
      </trkpt>
      <trkpt lat="45.84848" lon="3.5329">
        <ele>306</ele>
        <time>2026-05-10T09:38:33.000Z</time>
      </trkpt>
      <trkpt lat="45.84847" lon="3.53288">
        <ele>306</ele>
        <time>2026-05-10T09:38:34.000Z</time>
      </trkpt>
      <trkpt lat="45.84847" lon="3.53286">
        <ele>306</ele>
        <time>2026-05-10T09:38:35.000Z</time>
      </trkpt>
      <trkpt lat="45.84846" lon="3.53284">
        <ele>306</ele>
        <time>2026-05-10T09:38:36.000Z</time>
      </trkpt>
      <trkpt lat="45.84846" lon="3.53283">
        <ele>306</ele>
        <time>2026-05-10T09:38:37.000Z</time>
      </trkpt>
      <trkpt lat="45.84846" lon="3.53281">
        <ele>306</ele>
        <time>2026-05-10T09:38:38.000Z</time>
      </trkpt>
      <trkpt lat="45.84845" lon="3.5328">
        <ele>306</ele>
        <time>2026-05-10T09:38:39.000Z</time>
      </trkpt>
      <trkpt lat="45.84845" lon="3.53279">
        <ele>306</ele>
        <time>2026-05-10T09:38:40.000Z</time>
      </trkpt>
      <trkpt lat="45.84845" lon="3.53277">
        <ele>306</ele>
        <time>2026-05-10T09:38:41.000Z</time>
      </trkpt>
      <trkpt lat="45.84844" lon="3.53276">
        <ele>306</ele>
        <time>2026-05-10T09:38:42.000Z</time>
      </trkpt>
      <trkpt lat="45.84844" lon="3.53274">
        <ele>306</ele>
        <time>2026-05-10T09:38:43.000Z</time>
      </trkpt>
      <trkpt lat="45.84843" lon="3.53273">
        <ele>305.9</ele>
        <time>2026-05-10T09:38:44.000Z</time>
      </trkpt>
      <trkpt lat="45.84843" lon="3.53271">
        <ele>305.9</ele>
        <time>2026-05-10T09:38:45.000Z</time>
      </trkpt>
      <trkpt lat="45.84842" lon="3.53269">
        <ele>305.9</ele>
        <time>2026-05-10T09:38:46.000Z</time>
      </trkpt>
      <trkpt lat="45.84842" lon="3.53268">
        <ele>305.9</ele>
        <time>2026-05-10T09:38:47.000Z</time>
      </trkpt>
      <trkpt lat="45.84841" lon="3.53266">
        <ele>305.9</ele>
        <time>2026-05-10T09:38:48.000Z</time>
      </trkpt>
      <trkpt lat="45.84841" lon="3.53264">
        <ele>305.9</ele>
        <time>2026-05-10T09:38:49.000Z</time>
      </trkpt>
      <trkpt lat="45.8484" lon="3.53262">
        <ele>305.9</ele>
        <time>2026-05-10T09:38:50.000Z</time>
      </trkpt>
      <trkpt lat="45.84839" lon="3.5326">
        <ele>305.9</ele>
        <time>2026-05-10T09:38:51.000Z</time>
      </trkpt>
      <trkpt lat="45.84838" lon="3.53258">
        <ele>305.9</ele>
        <time>2026-05-10T09:38:52.000Z</time>
      </trkpt>
      <trkpt lat="45.84837" lon="3.53256">
        <ele>305.9</ele>
        <time>2026-05-10T09:38:53.000Z</time>
      </trkpt>
      <trkpt lat="45.84837" lon="3.53254">
        <ele>305.9</ele>
        <time>2026-05-10T09:38:54.000Z</time>
      </trkpt>
      <trkpt lat="45.84836" lon="3.53251">
        <ele>305.9</ele>
        <time>2026-05-10T09:38:55.000Z</time>
      </trkpt>
      <trkpt lat="45.84836" lon="3.5325">
        <ele>305.9</ele>
        <time>2026-05-10T09:38:56.000Z</time>
      </trkpt>
      <trkpt lat="45.84835" lon="3.53248">
        <ele>305.9</ele>
        <time>2026-05-10T09:38:57.000Z</time>
      </trkpt>
      <trkpt lat="45.84834" lon="3.53246">
        <ele>306</ele>
        <time>2026-05-10T09:38:58.000Z</time>
      </trkpt>
      <trkpt lat="45.84834" lon="3.53244">
        <ele>306</ele>
        <time>2026-05-10T09:38:59.000Z</time>
      </trkpt>
      <trkpt lat="45.84834" lon="3.53243">
        <ele>306</ele>
        <time>2026-05-10T09:39:00.000Z</time>
      </trkpt>
      <trkpt lat="45.84833" lon="3.53241">
        <ele>306</ele>
        <time>2026-05-10T09:39:01.000Z</time>
      </trkpt>
      <trkpt lat="45.84833" lon="3.53239">
        <ele>306</ele>
        <time>2026-05-10T09:39:02.000Z</time>
      </trkpt>
      <trkpt lat="45.84832" lon="3.53236">
        <ele>306</ele>
        <time>2026-05-10T09:39:03.000Z</time>
      </trkpt>
      <trkpt lat="45.84832" lon="3.53235">
        <ele>306</ele>
        <time>2026-05-10T09:39:04.000Z</time>
      </trkpt>
      <trkpt lat="45.84831" lon="3.53233">
        <ele>306</ele>
        <time>2026-05-10T09:39:05.000Z</time>
      </trkpt>
      <trkpt lat="45.84831" lon="3.53232">
        <ele>306</ele>
        <time>2026-05-10T09:39:06.000Z</time>
      </trkpt>
      <trkpt lat="45.8483" lon="3.53231">
        <ele>306</ele>
        <time>2026-05-10T09:39:07.000Z</time>
      </trkpt>
      <trkpt lat="45.8483" lon="3.53229">
        <ele>306</ele>
        <time>2026-05-10T09:39:08.000Z</time>
      </trkpt>
      <trkpt lat="45.8483" lon="3.53228">
        <ele>306</ele>
        <time>2026-05-10T09:39:09.000Z</time>
      </trkpt>
      <trkpt lat="45.8483" lon="3.53226">
        <ele>306</ele>
        <time>2026-05-10T09:39:10.000Z</time>
      </trkpt>
      <trkpt lat="45.84829" lon="3.53224">
        <ele>306</ele>
        <time>2026-05-10T09:39:11.000Z</time>
      </trkpt>
      <trkpt lat="45.84829" lon="3.53222">
        <ele>306</ele>
        <time>2026-05-10T09:39:12.000Z</time>
      </trkpt>
      <trkpt lat="45.84828" lon="3.5322">
        <ele>306</ele>
        <time>2026-05-10T09:39:13.000Z</time>
      </trkpt>
      <trkpt lat="45.84827" lon="3.53218">
        <ele>306</ele>
        <time>2026-05-10T09:39:14.000Z</time>
      </trkpt>
      <trkpt lat="45.84827" lon="3.53216">
        <ele>306</ele>
        <time>2026-05-10T09:39:15.000Z</time>
      </trkpt>
      <trkpt lat="45.84826" lon="3.53215">
        <ele>306</ele>
        <time>2026-05-10T09:39:16.000Z</time>
      </trkpt>
      <trkpt lat="45.84826" lon="3.53213">
        <ele>306</ele>
        <time>2026-05-10T09:39:17.000Z</time>
      </trkpt>
      <trkpt lat="45.84825" lon="3.53212">
        <ele>306</ele>
        <time>2026-05-10T09:39:18.000Z</time>
      </trkpt>
      <trkpt lat="45.84825" lon="3.53211">
        <ele>306</ele>
        <time>2026-05-10T09:39:19.000Z</time>
      </trkpt>
      <trkpt lat="45.84825" lon="3.53209">
        <ele>306</ele>
        <time>2026-05-10T09:39:20.000Z</time>
      </trkpt>
      <trkpt lat="45.84824" lon="3.53207">
        <ele>306</ele>
        <time>2026-05-10T09:39:21.000Z</time>
      </trkpt>
      <trkpt lat="45.84824" lon="3.53205">
        <ele>306</ele>
        <time>2026-05-10T09:39:22.000Z</time>
      </trkpt>
      <trkpt lat="45.84823" lon="3.53203">
        <ele>306</ele>
        <time>2026-05-10T09:39:23.000Z</time>
      </trkpt>
      <trkpt lat="45.84822" lon="3.53201">
        <ele>306</ele>
        <time>2026-05-10T09:39:24.000Z</time>
      </trkpt>
      <trkpt lat="45.84822" lon="3.53199">
        <ele>306</ele>
        <time>2026-05-10T09:39:25.000Z</time>
      </trkpt>
      <trkpt lat="45.84822" lon="3.53198">
        <ele>306</ele>
        <time>2026-05-10T09:39:26.000Z</time>
      </trkpt>
      <trkpt lat="45.84821" lon="3.53197">
        <ele>306</ele>
        <time>2026-05-10T09:39:27.000Z</time>
      </trkpt>
      <trkpt lat="45.84821" lon="3.53196">
        <ele>306</ele>
        <time>2026-05-10T09:39:28.000Z</time>
      </trkpt>
      <trkpt lat="45.8482" lon="3.53194">
        <ele>306</ele>
        <time>2026-05-10T09:39:29.000Z</time>
      </trkpt>
      <trkpt lat="45.8482" lon="3.53192">
        <ele>306</ele>
        <time>2026-05-10T09:39:30.000Z</time>
      </trkpt>
      <trkpt lat="45.84819" lon="3.5319">
        <ele>305.9</ele>
        <time>2026-05-10T09:39:31.000Z</time>
      </trkpt>
      <trkpt lat="45.84819" lon="3.53188">
        <ele>305.9</ele>
        <time>2026-05-10T09:39:32.000Z</time>
      </trkpt>
      <trkpt lat="45.84818" lon="3.53186">
        <ele>305.9</ele>
        <time>2026-05-10T09:39:33.000Z</time>
      </trkpt>
      <trkpt lat="45.84818" lon="3.53184">
        <ele>305.8</ele>
        <time>2026-05-10T09:39:34.000Z</time>
      </trkpt>
      <trkpt lat="45.84817" lon="3.53182">
        <ele>305.8</ele>
        <time>2026-05-10T09:39:35.000Z</time>
      </trkpt>
      <trkpt lat="45.84817" lon="3.53181">
        <ele>305.8</ele>
        <time>2026-05-10T09:39:36.000Z</time>
      </trkpt>
      <trkpt lat="45.84816" lon="3.5318">
        <ele>305.8</ele>
        <time>2026-05-10T09:39:37.000Z</time>
      </trkpt>
      <trkpt lat="45.84816" lon="3.53179">
        <ele>305.8</ele>
        <time>2026-05-10T09:39:38.000Z</time>
      </trkpt>
      <trkpt lat="45.84816" lon="3.53178">
        <ele>305.8</ele>
        <time>2026-05-10T09:39:39.000Z</time>
      </trkpt>
      <trkpt lat="45.84815" lon="3.53177">
        <ele>305.8</ele>
        <time>2026-05-10T09:39:40.000Z</time>
      </trkpt>
      <trkpt lat="45.84815" lon="3.53175">
        <ele>305.8</ele>
        <time>2026-05-10T09:39:41.000Z</time>
      </trkpt>
      <trkpt lat="45.84814" lon="3.53172">
        <ele>305.8</ele>
        <time>2026-05-10T09:39:42.000Z</time>
      </trkpt>
      <trkpt lat="45.84813" lon="3.53171">
        <ele>305.8</ele>
        <time>2026-05-10T09:39:43.000Z</time>
      </trkpt>
      <trkpt lat="45.84813" lon="3.53169">
        <ele>305.8</ele>
        <time>2026-05-10T09:39:44.000Z</time>
      </trkpt>
      <trkpt lat="45.84812" lon="3.53167">
        <ele>305.8</ele>
        <time>2026-05-10T09:39:45.000Z</time>
      </trkpt>
      <trkpt lat="45.84812" lon="3.53165">
        <ele>305.8</ele>
        <time>2026-05-10T09:39:46.000Z</time>
      </trkpt>
      <trkpt lat="45.84811" lon="3.53163">
        <ele>305.8</ele>
        <time>2026-05-10T09:39:47.000Z</time>
      </trkpt>
      <trkpt lat="45.84811" lon="3.53162">
        <ele>305.8</ele>
        <time>2026-05-10T09:39:48.000Z</time>
      </trkpt>
      <trkpt lat="45.8481" lon="3.5316">
        <ele>305.9</ele>
        <time>2026-05-10T09:39:49.000Z</time>
      </trkpt>
      <trkpt lat="45.84809" lon="3.53158">
        <ele>305.9</ele>
        <time>2026-05-10T09:39:50.000Z</time>
      </trkpt>
      <trkpt lat="45.84809" lon="3.53156">
        <ele>305.9</ele>
        <time>2026-05-10T09:39:51.000Z</time>
      </trkpt>
      <trkpt lat="45.84809" lon="3.53155">
        <ele>305.9</ele>
        <time>2026-05-10T09:39:52.000Z</time>
      </trkpt>
      <trkpt lat="45.84808" lon="3.53153">
        <ele>306</ele>
        <time>2026-05-10T09:39:53.000Z</time>
      </trkpt>
      <trkpt lat="45.84808" lon="3.53152">
        <ele>306</ele>
        <time>2026-05-10T09:39:54.000Z</time>
      </trkpt>
      <trkpt lat="45.84807" lon="3.5315">
        <ele>306</ele>
        <time>2026-05-10T09:39:55.000Z</time>
      </trkpt>
      <trkpt lat="45.84807" lon="3.53149">
        <ele>306</ele>
        <time>2026-05-10T09:39:56.000Z</time>
      </trkpt>
      <trkpt lat="45.84806" lon="3.53148">
        <ele>306</ele>
        <time>2026-05-10T09:39:57.000Z</time>
      </trkpt>
      <trkpt lat="45.84805" lon="3.53146">
        <ele>306</ele>
        <time>2026-05-10T09:39:58.000Z</time>
      </trkpt>
      <trkpt lat="45.84805" lon="3.53144">
        <ele>306</ele>
        <time>2026-05-10T09:39:59.000Z</time>
      </trkpt>
      <trkpt lat="45.84804" lon="3.53142">
        <ele>306</ele>
        <time>2026-05-10T09:40:00.000Z</time>
      </trkpt>
      <trkpt lat="45.84803" lon="3.5314">
        <ele>306</ele>
        <time>2026-05-10T09:40:01.000Z</time>
      </trkpt>
      <trkpt lat="45.84803" lon="3.53139">
        <ele>306</ele>
        <time>2026-05-10T09:40:02.000Z</time>
      </trkpt>
      <trkpt lat="45.84802" lon="3.53137">
        <ele>306</ele>
        <time>2026-05-10T09:40:03.000Z</time>
      </trkpt>
      <trkpt lat="45.84802" lon="3.53136">
        <ele>306</ele>
        <time>2026-05-10T09:40:04.000Z</time>
      </trkpt>
      <trkpt lat="45.84801" lon="3.53134">
        <ele>306</ele>
        <time>2026-05-10T09:40:05.000Z</time>
      </trkpt>
      <trkpt lat="45.84801" lon="3.53133">
        <ele>306</ele>
        <time>2026-05-10T09:40:06.000Z</time>
      </trkpt>
      <trkpt lat="45.84801" lon="3.53131">
        <ele>306</ele>
        <time>2026-05-10T09:40:07.000Z</time>
      </trkpt>
      <trkpt lat="45.848" lon="3.53129">
        <ele>306</ele>
        <time>2026-05-10T09:40:08.000Z</time>
      </trkpt>
      <trkpt lat="45.84799" lon="3.53127">
        <ele>306</ele>
        <time>2026-05-10T09:40:09.000Z</time>
      </trkpt>
      <trkpt lat="45.84799" lon="3.53126">
        <ele>306</ele>
        <time>2026-05-10T09:40:10.000Z</time>
      </trkpt>
      <trkpt lat="45.84798" lon="3.53124">
        <ele>306</ele>
        <time>2026-05-10T09:40:11.000Z</time>
      </trkpt>
      <trkpt lat="45.84798" lon="3.53122">
        <ele>306</ele>
        <time>2026-05-10T09:40:12.000Z</time>
      </trkpt>
      <trkpt lat="45.84797" lon="3.53121">
        <ele>306</ele>
        <time>2026-05-10T09:40:13.000Z</time>
      </trkpt>
      <trkpt lat="45.84797" lon="3.53119">
        <ele>306</ele>
        <time>2026-05-10T09:40:14.000Z</time>
      </trkpt>
      <trkpt lat="45.84796" lon="3.53118">
        <ele>306</ele>
        <time>2026-05-10T09:40:15.000Z</time>
      </trkpt>
      <trkpt lat="45.84796" lon="3.53116">
        <ele>306</ele>
        <time>2026-05-10T09:40:16.000Z</time>
      </trkpt>
      <trkpt lat="45.84795" lon="3.53114">
        <ele>306</ele>
        <time>2026-05-10T09:40:17.000Z</time>
      </trkpt>
      <trkpt lat="45.84794" lon="3.53112">
        <ele>306</ele>
        <time>2026-05-10T09:40:18.000Z</time>
      </trkpt>
      <trkpt lat="45.84794" lon="3.5311">
        <ele>306</ele>
        <time>2026-05-10T09:40:19.000Z</time>
      </trkpt>
      <trkpt lat="45.84794" lon="3.53109">
        <ele>306</ele>
        <time>2026-05-10T09:40:20.000Z</time>
      </trkpt>
      <trkpt lat="45.84793" lon="3.53108">
        <ele>306</ele>
        <time>2026-05-10T09:40:21.000Z</time>
      </trkpt>
      <trkpt lat="45.84793" lon="3.53106">
        <ele>306</ele>
        <time>2026-05-10T09:40:22.000Z</time>
      </trkpt>
      <trkpt lat="45.84792" lon="3.53105">
        <ele>306</ele>
        <time>2026-05-10T09:40:23.000Z</time>
      </trkpt>
      <trkpt lat="45.84791" lon="3.53103">
        <ele>306</ele>
        <time>2026-05-10T09:40:24.000Z</time>
      </trkpt>
      <trkpt lat="45.84791" lon="3.53101">
        <ele>306</ele>
        <time>2026-05-10T09:40:25.000Z</time>
      </trkpt>
      <trkpt lat="45.8479" lon="3.53099">
        <ele>306</ele>
        <time>2026-05-10T09:40:26.000Z</time>
      </trkpt>
      <trkpt lat="45.8479" lon="3.53097">
        <ele>306</ele>
        <time>2026-05-10T09:40:27.000Z</time>
      </trkpt>
      <trkpt lat="45.84789" lon="3.53096">
        <ele>306</ele>
        <time>2026-05-10T09:40:28.000Z</time>
      </trkpt>
      <trkpt lat="45.84789" lon="3.53094">
        <ele>306</ele>
        <time>2026-05-10T09:40:29.000Z</time>
      </trkpt>
      <trkpt lat="45.84789" lon="3.53092">
        <ele>306</ele>
        <time>2026-05-10T09:40:30.000Z</time>
      </trkpt>
      <trkpt lat="45.84788" lon="3.53091">
        <ele>306</ele>
        <time>2026-05-10T09:40:31.000Z</time>
      </trkpt>
      <trkpt lat="45.84788" lon="3.53089">
        <ele>306</ele>
        <time>2026-05-10T09:40:32.000Z</time>
      </trkpt>
      <trkpt lat="45.84788" lon="3.53087">
        <ele>306</ele>
        <time>2026-05-10T09:40:33.000Z</time>
      </trkpt>
      <trkpt lat="45.84787" lon="3.53085">
        <ele>306</ele>
        <time>2026-05-10T09:40:34.000Z</time>
      </trkpt>
      <trkpt lat="45.84787" lon="3.53082">
        <ele>306</ele>
        <time>2026-05-10T09:40:35.000Z</time>
      </trkpt>
      <trkpt lat="45.84786" lon="3.53081">
        <ele>306</ele>
        <time>2026-05-10T09:40:36.000Z</time>
      </trkpt>
      <trkpt lat="45.84785" lon="3.53079">
        <ele>306</ele>
        <time>2026-05-10T09:40:37.000Z</time>
      </trkpt>
      <trkpt lat="45.84785" lon="3.53078">
        <ele>306</ele>
        <time>2026-05-10T09:40:38.000Z</time>
      </trkpt>
      <trkpt lat="45.84784" lon="3.53076">
        <ele>306</ele>
        <time>2026-05-10T09:40:39.000Z</time>
      </trkpt>
      <trkpt lat="45.84784" lon="3.53075">
        <ele>306</ele>
        <time>2026-05-10T09:40:40.000Z</time>
      </trkpt>
      <trkpt lat="45.84783" lon="3.53073">
        <ele>306</ele>
        <time>2026-05-10T09:40:41.000Z</time>
      </trkpt>
      <trkpt lat="45.84783" lon="3.53072">
        <ele>306</ele>
        <time>2026-05-10T09:40:42.000Z</time>
      </trkpt>
      <trkpt lat="45.84782" lon="3.5307">
        <ele>306</ele>
        <time>2026-05-10T09:40:43.000Z</time>
      </trkpt>
      <trkpt lat="45.84782" lon="3.53068">
        <ele>306</ele>
        <time>2026-05-10T09:40:44.000Z</time>
      </trkpt>
      <trkpt lat="45.84781" lon="3.53067">
        <ele>306</ele>
        <time>2026-05-10T09:40:45.000Z</time>
      </trkpt>
      <trkpt lat="45.84781" lon="3.53065">
        <ele>306</ele>
        <time>2026-05-10T09:40:46.000Z</time>
      </trkpt>
      <trkpt lat="45.8478" lon="3.53065">
        <ele>306</ele>
        <time>2026-05-10T09:40:47.000Z</time>
      </trkpt>
      <trkpt lat="45.8478" lon="3.53064">
        <ele>306</ele>
        <time>2026-05-10T09:40:48.000Z</time>
      </trkpt>
      <trkpt lat="45.8478" lon="3.53062">
        <ele>306</ele>
        <time>2026-05-10T09:40:49.000Z</time>
      </trkpt>
      <trkpt lat="45.84779" lon="3.5306">
        <ele>306</ele>
        <time>2026-05-10T09:40:50.000Z</time>
      </trkpt>
      <trkpt lat="45.84779" lon="3.53058">
        <ele>306</ele>
        <time>2026-05-10T09:40:51.000Z</time>
      </trkpt>
      <trkpt lat="45.84778" lon="3.53056">
        <ele>306</ele>
        <time>2026-05-10T09:40:52.000Z</time>
      </trkpt>
      <trkpt lat="45.84778" lon="3.53055">
        <ele>306</ele>
        <time>2026-05-10T09:40:53.000Z</time>
      </trkpt>
      <trkpt lat="45.84777" lon="3.53053">
        <ele>306</ele>
        <time>2026-05-10T09:40:54.000Z</time>
      </trkpt>
      <trkpt lat="45.84777" lon="3.53052">
        <ele>306</ele>
        <time>2026-05-10T09:40:55.000Z</time>
      </trkpt>
      <trkpt lat="45.84776" lon="3.5305">
        <ele>306</ele>
        <time>2026-05-10T09:40:56.000Z</time>
      </trkpt>
      <trkpt lat="45.84776" lon="3.53048">
        <ele>306</ele>
        <time>2026-05-10T09:40:57.000Z</time>
      </trkpt>
      <trkpt lat="45.84775" lon="3.53047">
        <ele>306.1</ele>
        <time>2026-05-10T09:40:58.000Z</time>
      </trkpt>
      <trkpt lat="45.84775" lon="3.53045">
        <ele>306.1</ele>
        <time>2026-05-10T09:40:59.000Z</time>
      </trkpt>
      <trkpt lat="45.84774" lon="3.53043">
        <ele>306.1</ele>
        <time>2026-05-10T09:41:00.000Z</time>
      </trkpt>
      <trkpt lat="45.84774" lon="3.53042">
        <ele>306.1</ele>
        <time>2026-05-10T09:41:01.000Z</time>
      </trkpt>
      <trkpt lat="45.84773" lon="3.5304">
        <ele>306.1</ele>
        <time>2026-05-10T09:41:02.000Z</time>
      </trkpt>
      <trkpt lat="45.84773" lon="3.53038">
        <ele>306.1</ele>
        <time>2026-05-10T09:41:03.000Z</time>
      </trkpt>
      <trkpt lat="45.84772" lon="3.53037">
        <ele>306.1</ele>
        <time>2026-05-10T09:41:04.000Z</time>
      </trkpt>
      <trkpt lat="45.84772" lon="3.53035">
        <ele>306.1</ele>
        <time>2026-05-10T09:41:05.000Z</time>
      </trkpt>
      <trkpt lat="45.84771" lon="3.53034">
        <ele>306</ele>
        <time>2026-05-10T09:41:06.000Z</time>
      </trkpt>
      <trkpt lat="45.84771" lon="3.53032">
        <ele>306</ele>
        <time>2026-05-10T09:41:07.000Z</time>
      </trkpt>
      <trkpt lat="45.8477" lon="3.5303">
        <ele>306</ele>
        <time>2026-05-10T09:41:08.000Z</time>
      </trkpt>
      <trkpt lat="45.8477" lon="3.53028">
        <ele>306</ele>
        <time>2026-05-10T09:41:09.000Z</time>
      </trkpt>
      <trkpt lat="45.84769" lon="3.53026">
        <ele>306</ele>
        <time>2026-05-10T09:41:10.000Z</time>
      </trkpt>
      <trkpt lat="45.84769" lon="3.53025">
        <ele>306</ele>
        <time>2026-05-10T09:41:11.000Z</time>
      </trkpt>
      <trkpt lat="45.84769" lon="3.53023">
        <ele>306</ele>
        <time>2026-05-10T09:41:12.000Z</time>
      </trkpt>
      <trkpt lat="45.84768" lon="3.53021">
        <ele>306</ele>
        <time>2026-05-10T09:41:13.000Z</time>
      </trkpt>
      <trkpt lat="45.84768" lon="3.5302">
        <ele>306</ele>
        <time>2026-05-10T09:41:14.000Z</time>
      </trkpt>
      <trkpt lat="45.84767" lon="3.53018">
        <ele>306</ele>
        <time>2026-05-10T09:41:15.000Z</time>
      </trkpt>
      <trkpt lat="45.84767" lon="3.53016">
        <ele>306</ele>
        <time>2026-05-10T09:41:16.000Z</time>
      </trkpt>
      <trkpt lat="45.84766" lon="3.53014">
        <ele>306</ele>
        <time>2026-05-10T09:41:17.000Z</time>
      </trkpt>
      <trkpt lat="45.84766" lon="3.53013">
        <ele>306</ele>
        <time>2026-05-10T09:41:18.000Z</time>
      </trkpt>
      <trkpt lat="45.84765" lon="3.53011">
        <ele>306</ele>
        <time>2026-05-10T09:41:19.000Z</time>
      </trkpt>
      <trkpt lat="45.84765" lon="3.5301">
        <ele>306</ele>
        <time>2026-05-10T09:41:20.000Z</time>
      </trkpt>
      <trkpt lat="45.84764" lon="3.53008">
        <ele>306</ele>
        <time>2026-05-10T09:41:21.000Z</time>
      </trkpt>
      <trkpt lat="45.84764" lon="3.53006">
        <ele>306</ele>
        <time>2026-05-10T09:41:22.000Z</time>
      </trkpt>
      <trkpt lat="45.84763" lon="3.53004">
        <ele>306</ele>
        <time>2026-05-10T09:41:23.000Z</time>
      </trkpt>
      <trkpt lat="45.84763" lon="3.53003">
        <ele>306</ele>
        <time>2026-05-10T09:41:24.000Z</time>
      </trkpt>
      <trkpt lat="45.84762" lon="3.53001">
        <ele>306</ele>
        <time>2026-05-10T09:41:25.000Z</time>
      </trkpt>
      <trkpt lat="45.84761" lon="3.52999">
        <ele>306</ele>
        <time>2026-05-10T09:41:26.000Z</time>
      </trkpt>
      <trkpt lat="45.84761" lon="3.52998">
        <ele>306</ele>
        <time>2026-05-10T09:41:27.000Z</time>
      </trkpt>
      <trkpt lat="45.84761" lon="3.52996">
        <ele>306</ele>
        <time>2026-05-10T09:41:28.000Z</time>
      </trkpt>
      <trkpt lat="45.8476" lon="3.52995">
        <ele>305.9</ele>
        <time>2026-05-10T09:41:29.000Z</time>
      </trkpt>
      <trkpt lat="45.84759" lon="3.52994">
        <ele>305.9</ele>
        <time>2026-05-10T09:41:30.000Z</time>
      </trkpt>
      <trkpt lat="45.84759" lon="3.52992">
        <ele>305.9</ele>
        <time>2026-05-10T09:41:31.000Z</time>
      </trkpt>
      <trkpt lat="45.84758" lon="3.52991">
        <ele>305.9</ele>
        <time>2026-05-10T09:41:32.000Z</time>
      </trkpt>
      <trkpt lat="45.84757" lon="3.52989">
        <ele>305.9</ele>
        <time>2026-05-10T09:41:33.000Z</time>
      </trkpt>
      <trkpt lat="45.84757" lon="3.52987">
        <ele>305.9</ele>
        <time>2026-05-10T09:41:34.000Z</time>
      </trkpt>
      <trkpt lat="45.84756" lon="3.52986">
        <ele>305.9</ele>
        <time>2026-05-10T09:41:35.000Z</time>
      </trkpt>
      <trkpt lat="45.84756" lon="3.52984">
        <ele>305.9</ele>
        <time>2026-05-10T09:41:36.000Z</time>
      </trkpt>
      <trkpt lat="45.84755" lon="3.52982">
        <ele>305.9</ele>
        <time>2026-05-10T09:41:37.000Z</time>
      </trkpt>
      <trkpt lat="45.84755" lon="3.52981">
        <ele>305.9</ele>
        <time>2026-05-10T09:41:38.000Z</time>
      </trkpt>
      <trkpt lat="45.84754" lon="3.5298">
        <ele>305.9</ele>
        <time>2026-05-10T09:41:39.000Z</time>
      </trkpt>
      <trkpt lat="45.84754" lon="3.52978">
        <ele>305.9</ele>
        <time>2026-05-10T09:41:40.000Z</time>
      </trkpt>
      <trkpt lat="45.84754" lon="3.52977">
        <ele>305.9</ele>
        <time>2026-05-10T09:41:41.000Z</time>
      </trkpt>
      <trkpt lat="45.84753" lon="3.52976">
        <ele>305.9</ele>
        <time>2026-05-10T09:41:42.000Z</time>
      </trkpt>
      <trkpt lat="45.84753" lon="3.52975">
        <ele>305.9</ele>
        <time>2026-05-10T09:41:43.000Z</time>
      </trkpt>
      <trkpt lat="45.84752" lon="3.52973">
        <ele>305.9</ele>
        <time>2026-05-10T09:41:44.000Z</time>
      </trkpt>
      <trkpt lat="45.84752" lon="3.52971">
        <ele>305.9</ele>
        <time>2026-05-10T09:41:45.000Z</time>
      </trkpt>
      <trkpt lat="45.84751" lon="3.52969">
        <ele>305.9</ele>
        <time>2026-05-10T09:41:46.000Z</time>
      </trkpt>
      <trkpt lat="45.84751" lon="3.52967">
        <ele>306</ele>
        <time>2026-05-10T09:41:47.000Z</time>
      </trkpt>
      <trkpt lat="45.84751" lon="3.52964">
        <ele>306</ele>
        <time>2026-05-10T09:41:48.000Z</time>
      </trkpt>
      <trkpt lat="45.8475" lon="3.52962">
        <ele>306</ele>
        <time>2026-05-10T09:41:49.000Z</time>
      </trkpt>
      <trkpt lat="45.8475" lon="3.5296">
        <ele>306</ele>
        <time>2026-05-10T09:41:50.000Z</time>
      </trkpt>
      <trkpt lat="45.84749" lon="3.52958">
        <ele>306</ele>
        <time>2026-05-10T09:41:51.000Z</time>
      </trkpt>
      <trkpt lat="45.84749" lon="3.52956">
        <ele>306</ele>
        <time>2026-05-10T09:41:52.000Z</time>
      </trkpt>
      <trkpt lat="45.84748" lon="3.52954">
        <ele>306</ele>
        <time>2026-05-10T09:41:53.000Z</time>
      </trkpt>
      <trkpt lat="45.84748" lon="3.52952">
        <ele>306</ele>
        <time>2026-05-10T09:41:54.000Z</time>
      </trkpt>
      <trkpt lat="45.84747" lon="3.5295">
        <ele>306</ele>
        <time>2026-05-10T09:41:55.000Z</time>
      </trkpt>
      <trkpt lat="45.84747" lon="3.52948">
        <ele>306</ele>
        <time>2026-05-10T09:41:56.000Z</time>
      </trkpt>
      <trkpt lat="45.84746" lon="3.52946">
        <ele>306</ele>
        <time>2026-05-10T09:41:57.000Z</time>
      </trkpt>
      <trkpt lat="45.84746" lon="3.52944">
        <ele>306</ele>
        <time>2026-05-10T09:41:58.000Z</time>
      </trkpt>
      <trkpt lat="45.84745" lon="3.52943">
        <ele>305.9</ele>
        <time>2026-05-10T09:41:59.000Z</time>
      </trkpt>
      <trkpt lat="45.84745" lon="3.5294">
        <ele>305.9</ele>
        <time>2026-05-10T09:42:00.000Z</time>
      </trkpt>
      <trkpt lat="45.84744" lon="3.52939">
        <ele>305.8</ele>
        <time>2026-05-10T09:42:01.000Z</time>
      </trkpt>
      <trkpt lat="45.84744" lon="3.52937">
        <ele>305.8</ele>
        <time>2026-05-10T09:42:02.000Z</time>
      </trkpt>
      <trkpt lat="45.84743" lon="3.52935">
        <ele>305.7</ele>
        <time>2026-05-10T09:42:03.000Z</time>
      </trkpt>
      <trkpt lat="45.84743" lon="3.52933">
        <ele>305.7</ele>
        <time>2026-05-10T09:42:04.000Z</time>
      </trkpt>
      <trkpt lat="45.84742" lon="3.52932">
        <ele>305.7</ele>
        <time>2026-05-10T09:42:05.000Z</time>
      </trkpt>
      <trkpt lat="45.84742" lon="3.52931">
        <ele>305.7</ele>
        <time>2026-05-10T09:42:06.000Z</time>
      </trkpt>
      <trkpt lat="45.84741" lon="3.52929">
        <ele>305.6</ele>
        <time>2026-05-10T09:42:07.000Z</time>
      </trkpt>
      <trkpt lat="45.84741" lon="3.52928">
        <ele>305.6</ele>
        <time>2026-05-10T09:42:08.000Z</time>
      </trkpt>
      <trkpt lat="45.8474" lon="3.52926">
        <ele>305.6</ele>
        <time>2026-05-10T09:42:09.000Z</time>
      </trkpt>
      <trkpt lat="45.8474" lon="3.52924">
        <ele>305.5</ele>
        <time>2026-05-10T09:42:10.000Z</time>
      </trkpt>
      <trkpt lat="45.84739" lon="3.52922">
        <ele>305.5</ele>
        <time>2026-05-10T09:42:11.000Z</time>
      </trkpt>
      <trkpt lat="45.84739" lon="3.52921">
        <ele>305.5</ele>
        <time>2026-05-10T09:42:12.000Z</time>
      </trkpt>
      <trkpt lat="45.84738" lon="3.52919">
        <ele>305.5</ele>
        <time>2026-05-10T09:42:13.000Z</time>
      </trkpt>
      <trkpt lat="45.84738" lon="3.52917">
        <ele>305.4</ele>
        <time>2026-05-10T09:42:14.000Z</time>
      </trkpt>
      <trkpt lat="45.84738" lon="3.52915">
        <ele>305.4</ele>
        <time>2026-05-10T09:42:15.000Z</time>
      </trkpt>
      <trkpt lat="45.84738" lon="3.52913">
        <ele>305.4</ele>
        <time>2026-05-10T09:42:16.000Z</time>
      </trkpt>
      <trkpt lat="45.84738" lon="3.52912">
        <ele>305.4</ele>
        <time>2026-05-10T09:42:17.000Z</time>
      </trkpt>
      <trkpt lat="45.84737" lon="3.5291">
        <ele>305.5</ele>
        <time>2026-05-10T09:42:18.000Z</time>
      </trkpt>
      <trkpt lat="45.84737" lon="3.52908">
        <ele>305.5</ele>
        <time>2026-05-10T09:42:19.000Z</time>
      </trkpt>
      <trkpt lat="45.84736" lon="3.52906">
        <ele>305.5</ele>
        <time>2026-05-10T09:42:20.000Z</time>
      </trkpt>
      <trkpt lat="45.84736" lon="3.52904">
        <ele>305.5</ele>
        <time>2026-05-10T09:42:21.000Z</time>
      </trkpt>
      <trkpt lat="45.84735" lon="3.52902">
        <ele>305.5</ele>
        <time>2026-05-10T09:42:22.000Z</time>
      </trkpt>
      <trkpt lat="45.84735" lon="3.529">
        <ele>305.6</ele>
        <time>2026-05-10T09:42:23.000Z</time>
      </trkpt>
      <trkpt lat="45.84734" lon="3.52898">
        <ele>305.6</ele>
        <time>2026-05-10T09:42:24.000Z</time>
      </trkpt>
      <trkpt lat="45.84733" lon="3.52897">
        <ele>305.6</ele>
        <time>2026-05-10T09:42:25.000Z</time>
      </trkpt>
      <trkpt lat="45.84732" lon="3.52896">
        <ele>305.6</ele>
        <time>2026-05-10T09:42:26.000Z</time>
      </trkpt>
      <trkpt lat="45.84732" lon="3.52895">
        <ele>305.7</ele>
        <time>2026-05-10T09:42:27.000Z</time>
      </trkpt>
      <trkpt lat="45.84731" lon="3.52893">
        <ele>305.7</ele>
        <time>2026-05-10T09:42:28.000Z</time>
      </trkpt>
      <trkpt lat="45.8473" lon="3.52892">
        <ele>305.7</ele>
        <time>2026-05-10T09:42:29.000Z</time>
      </trkpt>
      <trkpt lat="45.8473" lon="3.52891">
        <ele>305.7</ele>
        <time>2026-05-10T09:42:30.000Z</time>
      </trkpt>
      <trkpt lat="45.84729" lon="3.52889">
        <ele>305.8</ele>
        <time>2026-05-10T09:42:31.000Z</time>
      </trkpt>
      <trkpt lat="45.84728" lon="3.52887">
        <ele>305.7</ele>
        <time>2026-05-10T09:42:32.000Z</time>
      </trkpt>
      <trkpt lat="45.84728" lon="3.52886">
        <ele>305.7</ele>
        <time>2026-05-10T09:42:33.000Z</time>
      </trkpt>
      <trkpt lat="45.84727" lon="3.52884">
        <ele>305.7</ele>
        <time>2026-05-10T09:42:34.000Z</time>
      </trkpt>
      <trkpt lat="45.84726" lon="3.52883">
        <ele>305.7</ele>
        <time>2026-05-10T09:42:35.000Z</time>
      </trkpt>
      <trkpt lat="45.84726" lon="3.52881">
        <ele>305.6</ele>
        <time>2026-05-10T09:42:36.000Z</time>
      </trkpt>
      <trkpt lat="45.84726" lon="3.5288">
        <ele>305.6</ele>
        <time>2026-05-10T09:42:37.000Z</time>
      </trkpt>
      <trkpt lat="45.84725" lon="3.52879">
        <ele>305.6</ele>
        <time>2026-05-10T09:42:38.000Z</time>
      </trkpt>
      <trkpt lat="45.84725" lon="3.52878">
        <ele>305.5</ele>
        <time>2026-05-10T09:42:39.000Z</time>
      </trkpt>
      <trkpt lat="45.84724" lon="3.52877">
        <ele>305.5</ele>
        <time>2026-05-10T09:42:40.000Z</time>
      </trkpt>
      <trkpt lat="45.84724" lon="3.52875">
        <ele>305.5</ele>
        <time>2026-05-10T09:42:41.000Z</time>
      </trkpt>
      <trkpt lat="45.84723" lon="3.52874">
        <ele>305.4</ele>
        <time>2026-05-10T09:42:42.000Z</time>
      </trkpt>
      <trkpt lat="45.84722" lon="3.52872">
        <ele>305.4</ele>
        <time>2026-05-10T09:42:43.000Z</time>
      </trkpt>
      <trkpt lat="45.84722" lon="3.5287">
        <ele>305.3</ele>
        <time>2026-05-10T09:42:44.000Z</time>
      </trkpt>
      <trkpt lat="45.84722" lon="3.52868">
        <ele>305.3</ele>
        <time>2026-05-10T09:42:45.000Z</time>
      </trkpt>
      <trkpt lat="45.84721" lon="3.52867">
        <ele>305.2</ele>
        <time>2026-05-10T09:42:46.000Z</time>
      </trkpt>
      <trkpt lat="45.84721" lon="3.52864">
        <ele>305.1</ele>
        <time>2026-05-10T09:42:47.000Z</time>
      </trkpt>
      <trkpt lat="45.84721" lon="3.52863">
        <ele>305.1</ele>
        <time>2026-05-10T09:42:48.000Z</time>
      </trkpt>
      <trkpt lat="45.84721" lon="3.52862">
        <ele>305.1</ele>
        <time>2026-05-10T09:42:49.000Z</time>
      </trkpt>
      <trkpt lat="45.8472" lon="3.5286">
        <ele>305.1</ele>
        <time>2026-05-10T09:42:50.000Z</time>
      </trkpt>
      <trkpt lat="45.8472" lon="3.52859">
        <ele>305.1</ele>
        <time>2026-05-10T09:42:51.000Z</time>
      </trkpt>
      <trkpt lat="45.84719" lon="3.52858">
        <ele>305.1</ele>
        <time>2026-05-10T09:42:52.000Z</time>
      </trkpt>
      <trkpt lat="45.84719" lon="3.52855">
        <ele>305.1</ele>
        <time>2026-05-10T09:42:53.000Z</time>
      </trkpt>
      <trkpt lat="45.84718" lon="3.52854">
        <ele>305.2</ele>
        <time>2026-05-10T09:42:54.000Z</time>
      </trkpt>
      <trkpt lat="45.84717" lon="3.52852">
        <ele>305.2</ele>
        <time>2026-05-10T09:42:55.000Z</time>
      </trkpt>
      <trkpt lat="45.84717" lon="3.5285">
        <ele>305.2</ele>
        <time>2026-05-10T09:42:56.000Z</time>
      </trkpt>
      <trkpt lat="45.84716" lon="3.52849">
        <ele>305.2</ele>
        <time>2026-05-10T09:42:57.000Z</time>
      </trkpt>
      <trkpt lat="45.84716" lon="3.52847">
        <ele>305.2</ele>
        <time>2026-05-10T09:42:58.000Z</time>
      </trkpt>
      <trkpt lat="45.84715" lon="3.52845">
        <ele>305.3</ele>
        <time>2026-05-10T09:42:59.000Z</time>
      </trkpt>
      <trkpt lat="45.84715" lon="3.52843">
        <ele>305.3</ele>
        <time>2026-05-10T09:43:00.000Z</time>
      </trkpt>
      <trkpt lat="45.84715" lon="3.52841">
        <ele>305.3</ele>
        <time>2026-05-10T09:43:01.000Z</time>
      </trkpt>
      <trkpt lat="45.84714" lon="3.5284">
        <ele>305.3</ele>
        <time>2026-05-10T09:43:02.000Z</time>
      </trkpt>
      <trkpt lat="45.84714" lon="3.52838">
        <ele>305.3</ele>
        <time>2026-05-10T09:43:03.000Z</time>
      </trkpt>
      <trkpt lat="45.84713" lon="3.52837">
        <ele>305.3</ele>
        <time>2026-05-10T09:43:04.000Z</time>
      </trkpt>
      <trkpt lat="45.84713" lon="3.52835">
        <ele>305.3</ele>
        <time>2026-05-10T09:43:05.000Z</time>
      </trkpt>
      <trkpt lat="45.84713" lon="3.52833">
        <ele>305.4</ele>
        <time>2026-05-10T09:43:06.000Z</time>
      </trkpt>
      <trkpt lat="45.84712" lon="3.52832">
        <ele>305.4</ele>
        <time>2026-05-10T09:43:07.000Z</time>
      </trkpt>
      <trkpt lat="45.84711" lon="3.5283">
        <ele>305.4</ele>
        <time>2026-05-10T09:43:08.000Z</time>
      </trkpt>
      <trkpt lat="45.84711" lon="3.52828">
        <ele>305.4</ele>
        <time>2026-05-10T09:43:09.000Z</time>
      </trkpt>
      <trkpt lat="45.8471" lon="3.52826">
        <ele>305.4</ele>
        <time>2026-05-10T09:43:10.000Z</time>
      </trkpt>
      <trkpt lat="45.8471" lon="3.52825">
        <ele>305.5</ele>
        <time>2026-05-10T09:43:11.000Z</time>
      </trkpt>
      <trkpt lat="45.84709" lon="3.52823">
        <ele>305.5</ele>
        <time>2026-05-10T09:43:12.000Z</time>
      </trkpt>
      <trkpt lat="45.84709" lon="3.52822">
        <ele>305.5</ele>
        <time>2026-05-10T09:43:13.000Z</time>
      </trkpt>
      <trkpt lat="45.84709" lon="3.5282">
        <ele>305.5</ele>
        <time>2026-05-10T09:43:14.000Z</time>
      </trkpt>
      <trkpt lat="45.84708" lon="3.52818">
        <ele>305.5</ele>
        <time>2026-05-10T09:43:15.000Z</time>
      </trkpt>
      <trkpt lat="45.84707" lon="3.52817">
        <ele>305.5</ele>
        <time>2026-05-10T09:43:16.000Z</time>
      </trkpt>
      <trkpt lat="45.84707" lon="3.52816">
        <ele>305.6</ele>
        <time>2026-05-10T09:43:17.000Z</time>
      </trkpt>
      <trkpt lat="45.84706" lon="3.52814">
        <ele>305.6</ele>
        <time>2026-05-10T09:43:18.000Z</time>
      </trkpt>
      <trkpt lat="45.84705" lon="3.52813">
        <ele>305.6</ele>
        <time>2026-05-10T09:43:19.000Z</time>
      </trkpt>
      <trkpt lat="45.84704" lon="3.52811">
        <ele>305.6</ele>
        <time>2026-05-10T09:43:20.000Z</time>
      </trkpt>
      <trkpt lat="45.84704" lon="3.5281">
        <ele>305.7</ele>
        <time>2026-05-10T09:43:21.000Z</time>
      </trkpt>
      <trkpt lat="45.84703" lon="3.52808">
        <ele>305.7</ele>
        <time>2026-05-10T09:43:22.000Z</time>
      </trkpt>
      <trkpt lat="45.84703" lon="3.52806">
        <ele>305.7</ele>
        <time>2026-05-10T09:43:23.000Z</time>
      </trkpt>
      <trkpt lat="45.84702" lon="3.52804">
        <ele>305.7</ele>
        <time>2026-05-10T09:43:24.000Z</time>
      </trkpt>
      <trkpt lat="45.84702" lon="3.52802">
        <ele>305.7</ele>
        <time>2026-05-10T09:43:25.000Z</time>
      </trkpt>
      <trkpt lat="45.84701" lon="3.528">
        <ele>305.8</ele>
        <time>2026-05-10T09:43:26.000Z</time>
      </trkpt>
      <trkpt lat="45.847" lon="3.52799">
        <ele>305.8</ele>
        <time>2026-05-10T09:43:27.000Z</time>
      </trkpt>
      <trkpt lat="45.847" lon="3.52797">
        <ele>305.8</ele>
        <time>2026-05-10T09:43:28.000Z</time>
      </trkpt>
      <trkpt lat="45.84699" lon="3.52795">
        <ele>305.8</ele>
        <time>2026-05-10T09:43:29.000Z</time>
      </trkpt>
      <trkpt lat="45.84699" lon="3.52794">
        <ele>305.9</ele>
        <time>2026-05-10T09:43:30.000Z</time>
      </trkpt>
      <trkpt lat="45.84698" lon="3.52792">
        <ele>305.9</ele>
        <time>2026-05-10T09:43:31.000Z</time>
      </trkpt>
      <trkpt lat="45.84697" lon="3.5279">
        <ele>305.9</ele>
        <time>2026-05-10T09:43:32.000Z</time>
      </trkpt>
      <trkpt lat="45.84696" lon="3.52788">
        <ele>305.9</ele>
        <time>2026-05-10T09:43:33.000Z</time>
      </trkpt>
      <trkpt lat="45.84696" lon="3.52786">
        <ele>306</ele>
        <time>2026-05-10T09:43:34.000Z</time>
      </trkpt>
      <trkpt lat="45.84695" lon="3.52784">
        <ele>306</ele>
        <time>2026-05-10T09:43:35.000Z</time>
      </trkpt>
      <trkpt lat="45.84694" lon="3.52783">
        <ele>306</ele>
        <time>2026-05-10T09:43:36.000Z</time>
      </trkpt>
      <trkpt lat="45.84694" lon="3.52781">
        <ele>306</ele>
        <time>2026-05-10T09:43:37.000Z</time>
      </trkpt>
      <trkpt lat="45.84693" lon="3.52779">
        <ele>306</ele>
        <time>2026-05-10T09:43:38.000Z</time>
      </trkpt>
      <trkpt lat="45.84693" lon="3.52778">
        <ele>306</ele>
        <time>2026-05-10T09:43:39.000Z</time>
      </trkpt>
      <trkpt lat="45.84693" lon="3.52776">
        <ele>305.9</ele>
        <time>2026-05-10T09:43:40.000Z</time>
      </trkpt>
      <trkpt lat="45.84693" lon="3.52774">
        <ele>305.8</ele>
        <time>2026-05-10T09:43:41.000Z</time>
      </trkpt>
      <trkpt lat="45.84692" lon="3.52772">
        <ele>305.8</ele>
        <time>2026-05-10T09:43:42.000Z</time>
      </trkpt>
      <trkpt lat="45.84692" lon="3.5277">
        <ele>305.7</ele>
        <time>2026-05-10T09:43:43.000Z</time>
      </trkpt>
      <trkpt lat="45.84692" lon="3.52768">
        <ele>305.7</ele>
        <time>2026-05-10T09:43:44.000Z</time>
      </trkpt>
      <trkpt lat="45.84691" lon="3.52767">
        <ele>305.6</ele>
        <time>2026-05-10T09:43:45.000Z</time>
      </trkpt>
      <trkpt lat="45.84691" lon="3.52765">
        <ele>305.6</ele>
        <time>2026-05-10T09:43:46.000Z</time>
      </trkpt>
      <trkpt lat="45.8469" lon="3.52763">
        <ele>305.5</ele>
        <time>2026-05-10T09:43:47.000Z</time>
      </trkpt>
      <trkpt lat="45.84689" lon="3.52762">
        <ele>305.4</ele>
        <time>2026-05-10T09:43:48.000Z</time>
      </trkpt>
      <trkpt lat="45.84689" lon="3.5276">
        <ele>305.4</ele>
        <time>2026-05-10T09:43:49.000Z</time>
      </trkpt>
      <trkpt lat="45.84688" lon="3.52758">
        <ele>305.3</ele>
        <time>2026-05-10T09:43:50.000Z</time>
      </trkpt>
      <trkpt lat="45.84688" lon="3.52757">
        <ele>305.2</ele>
        <time>2026-05-10T09:43:51.000Z</time>
      </trkpt>
      <trkpt lat="45.84687" lon="3.52755">
        <ele>305.2</ele>
        <time>2026-05-10T09:43:52.000Z</time>
      </trkpt>
      <trkpt lat="45.84687" lon="3.52753">
        <ele>305.1</ele>
        <time>2026-05-10T09:43:53.000Z</time>
      </trkpt>
      <trkpt lat="45.84686" lon="3.52752">
        <ele>305.1</ele>
        <time>2026-05-10T09:43:54.000Z</time>
      </trkpt>
      <trkpt lat="45.84686" lon="3.52751">
        <ele>305</ele>
        <time>2026-05-10T09:43:55.000Z</time>
      </trkpt>
      <trkpt lat="45.84685" lon="3.52749">
        <ele>305</ele>
        <time>2026-05-10T09:43:56.000Z</time>
      </trkpt>
      <trkpt lat="45.84685" lon="3.52748">
        <ele>305</ele>
        <time>2026-05-10T09:43:57.000Z</time>
      </trkpt>
      <trkpt lat="45.84684" lon="3.52746">
        <ele>305</ele>
        <time>2026-05-10T09:43:58.000Z</time>
      </trkpt>
      <trkpt lat="45.84684" lon="3.52744">
        <ele>305</ele>
        <time>2026-05-10T09:43:59.000Z</time>
      </trkpt>
      <trkpt lat="45.84683" lon="3.52742">
        <ele>305</ele>
        <time>2026-05-10T09:44:00.000Z</time>
      </trkpt>
      <trkpt lat="45.84683" lon="3.5274">
        <ele>305</ele>
        <time>2026-05-10T09:44:01.000Z</time>
      </trkpt>
      <trkpt lat="45.84682" lon="3.52738">
        <ele>305</ele>
        <time>2026-05-10T09:44:02.000Z</time>
      </trkpt>
      <trkpt lat="45.84682" lon="3.52736">
        <ele>305</ele>
        <time>2026-05-10T09:44:03.000Z</time>
      </trkpt>
      <trkpt lat="45.84681" lon="3.52734">
        <ele>305</ele>
        <time>2026-05-10T09:44:04.000Z</time>
      </trkpt>
      <trkpt lat="45.84681" lon="3.52732">
        <ele>305</ele>
        <time>2026-05-10T09:44:05.000Z</time>
      </trkpt>
      <trkpt lat="45.84681" lon="3.52731">
        <ele>305</ele>
        <time>2026-05-10T09:44:06.000Z</time>
      </trkpt>
      <trkpt lat="45.8468" lon="3.52729">
        <ele>305</ele>
        <time>2026-05-10T09:44:07.000Z</time>
      </trkpt>
      <trkpt lat="45.8468" lon="3.52728">
        <ele>305</ele>
        <time>2026-05-10T09:44:08.000Z</time>
      </trkpt>
      <trkpt lat="45.8468" lon="3.52726">
        <ele>305</ele>
        <time>2026-05-10T09:44:09.000Z</time>
      </trkpt>
      <trkpt lat="45.8468" lon="3.52724">
        <ele>305</ele>
        <time>2026-05-10T09:44:10.000Z</time>
      </trkpt>
      <trkpt lat="45.84679" lon="3.52722">
        <ele>305</ele>
        <time>2026-05-10T09:44:11.000Z</time>
      </trkpt>
      <trkpt lat="45.84678" lon="3.5272">
        <ele>305</ele>
        <time>2026-05-10T09:44:12.000Z</time>
      </trkpt>
      <trkpt lat="45.84678" lon="3.52719">
        <ele>305</ele>
        <time>2026-05-10T09:44:13.000Z</time>
      </trkpt>
      <trkpt lat="45.84677" lon="3.52717">
        <ele>305</ele>
        <time>2026-05-10T09:44:14.000Z</time>
      </trkpt>
      <trkpt lat="45.84677" lon="3.52715">
        <ele>305</ele>
        <time>2026-05-10T09:44:15.000Z</time>
      </trkpt>
      <trkpt lat="45.84677" lon="3.52714">
        <ele>305</ele>
        <time>2026-05-10T09:44:16.000Z</time>
      </trkpt>
      <trkpt lat="45.84676" lon="3.52713">
        <ele>305</ele>
        <time>2026-05-10T09:44:17.000Z</time>
      </trkpt>
      <trkpt lat="45.84675" lon="3.52711">
        <ele>305</ele>
        <time>2026-05-10T09:44:18.000Z</time>
      </trkpt>
      <trkpt lat="45.84675" lon="3.5271">
        <ele>305</ele>
        <time>2026-05-10T09:44:19.000Z</time>
      </trkpt>
      <trkpt lat="45.84674" lon="3.52708">
        <ele>305</ele>
        <time>2026-05-10T09:44:20.000Z</time>
      </trkpt>
      <trkpt lat="45.84673" lon="3.52707">
        <ele>305</ele>
        <time>2026-05-10T09:44:21.000Z</time>
      </trkpt>
      <trkpt lat="45.84673" lon="3.52705">
        <ele>305</ele>
        <time>2026-05-10T09:44:22.000Z</time>
      </trkpt>
      <trkpt lat="45.84672" lon="3.52704">
        <ele>305</ele>
        <time>2026-05-10T09:44:23.000Z</time>
      </trkpt>
      <trkpt lat="45.84671" lon="3.52702">
        <ele>305</ele>
        <time>2026-05-10T09:44:24.000Z</time>
      </trkpt>
      <trkpt lat="45.84671" lon="3.52701">
        <ele>305</ele>
        <time>2026-05-10T09:44:25.000Z</time>
      </trkpt>
      <trkpt lat="45.8467" lon="3.52699">
        <ele>305</ele>
        <time>2026-05-10T09:44:26.000Z</time>
      </trkpt>
      <trkpt lat="45.8467" lon="3.52697">
        <ele>305</ele>
        <time>2026-05-10T09:44:27.000Z</time>
      </trkpt>
      <trkpt lat="45.84669" lon="3.52696">
        <ele>305</ele>
        <time>2026-05-10T09:44:28.000Z</time>
      </trkpt>
      <trkpt lat="45.84669" lon="3.52694">
        <ele>305</ele>
        <time>2026-05-10T09:44:29.000Z</time>
      </trkpt>
      <trkpt lat="45.84669" lon="3.52693">
        <ele>304.9</ele>
        <time>2026-05-10T09:44:30.000Z</time>
      </trkpt>
      <trkpt lat="45.84668" lon="3.52691">
        <ele>304.9</ele>
        <time>2026-05-10T09:44:31.000Z</time>
      </trkpt>
      <trkpt lat="45.84668" lon="3.5269">
        <ele>304.8</ele>
        <time>2026-05-10T09:44:32.000Z</time>
      </trkpt>
      <trkpt lat="45.84667" lon="3.52688">
        <ele>304.8</ele>
        <time>2026-05-10T09:44:33.000Z</time>
      </trkpt>
      <trkpt lat="45.84667" lon="3.52687">
        <ele>304.7</ele>
        <time>2026-05-10T09:44:34.000Z</time>
      </trkpt>
      <trkpt lat="45.84667" lon="3.52685">
        <ele>304.7</ele>
        <time>2026-05-10T09:44:35.000Z</time>
      </trkpt>
      <trkpt lat="45.84666" lon="3.52683">
        <ele>304.6</ele>
        <time>2026-05-10T09:44:36.000Z</time>
      </trkpt>
      <trkpt lat="45.84666" lon="3.52681">
        <ele>304.5</ele>
        <time>2026-05-10T09:44:37.000Z</time>
      </trkpt>
      <trkpt lat="45.84665" lon="3.52679">
        <ele>304.5</ele>
        <time>2026-05-10T09:44:38.000Z</time>
      </trkpt>
      <trkpt lat="45.84665" lon="3.52677">
        <ele>304.4</ele>
        <time>2026-05-10T09:44:39.000Z</time>
      </trkpt>
      <trkpt lat="45.84664" lon="3.52676">
        <ele>304.4</ele>
        <time>2026-05-10T09:44:40.000Z</time>
      </trkpt>
      <trkpt lat="45.84664" lon="3.52675">
        <ele>304.4</ele>
        <time>2026-05-10T09:44:41.000Z</time>
      </trkpt>
      <trkpt lat="45.84664" lon="3.52674">
        <ele>304.3</ele>
        <time>2026-05-10T09:44:42.000Z</time>
      </trkpt>
      <trkpt lat="45.84663" lon="3.52672">
        <ele>304.3</ele>
        <time>2026-05-10T09:44:43.000Z</time>
      </trkpt>
      <trkpt lat="45.84662" lon="3.5267">
        <ele>304.3</ele>
        <time>2026-05-10T09:44:44.000Z</time>
      </trkpt>
      <trkpt lat="45.84662" lon="3.52668">
        <ele>304.2</ele>
        <time>2026-05-10T09:44:45.000Z</time>
      </trkpt>
      <trkpt lat="45.84661" lon="3.52666">
        <ele>304.2</ele>
        <time>2026-05-10T09:44:46.000Z</time>
      </trkpt>
      <trkpt lat="45.8466" lon="3.52665">
        <ele>304.2</ele>
        <time>2026-05-10T09:44:47.000Z</time>
      </trkpt>
      <trkpt lat="45.8466" lon="3.52663">
        <ele>304.2</ele>
        <time>2026-05-10T09:44:48.000Z</time>
      </trkpt>
      <trkpt lat="45.84659" lon="3.52662">
        <ele>304.2</ele>
        <time>2026-05-10T09:44:49.000Z</time>
      </trkpt>
      <trkpt lat="45.84658" lon="3.52661">
        <ele>304.2</ele>
        <time>2026-05-10T09:44:50.000Z</time>
      </trkpt>
      <trkpt lat="45.84658" lon="3.52659">
        <ele>304.2</ele>
        <time>2026-05-10T09:44:51.000Z</time>
      </trkpt>
      <trkpt lat="45.84657" lon="3.52658">
        <ele>304.2</ele>
        <time>2026-05-10T09:44:52.000Z</time>
      </trkpt>
      <trkpt lat="45.84656" lon="3.52656">
        <ele>304.2</ele>
        <time>2026-05-10T09:44:53.000Z</time>
      </trkpt>
      <trkpt lat="45.84655" lon="3.52655">
        <ele>304.2</ele>
        <time>2026-05-10T09:44:54.000Z</time>
      </trkpt>
      <trkpt lat="45.84654" lon="3.52653">
        <ele>304.2</ele>
        <time>2026-05-10T09:44:55.000Z</time>
      </trkpt>
      <trkpt lat="45.84654" lon="3.52651">
        <ele>304.2</ele>
        <time>2026-05-10T09:44:56.000Z</time>
      </trkpt>
      <trkpt lat="45.84653" lon="3.52649">
        <ele>304.2</ele>
        <time>2026-05-10T09:44:57.000Z</time>
      </trkpt>
      <trkpt lat="45.84653" lon="3.52648">
        <ele>304.2</ele>
        <time>2026-05-10T09:44:58.000Z</time>
      </trkpt>
      <trkpt lat="45.84652" lon="3.52646">
        <ele>304.1</ele>
        <time>2026-05-10T09:44:59.000Z</time>
      </trkpt>
      <trkpt lat="45.84652" lon="3.52645">
        <ele>304.1</ele>
        <time>2026-05-10T09:45:00.000Z</time>
      </trkpt>
      <trkpt lat="45.84652" lon="3.52642">
        <ele>304.1</ele>
        <time>2026-05-10T09:45:01.000Z</time>
      </trkpt>
      <trkpt lat="45.84652" lon="3.5264">
        <ele>304</ele>
        <time>2026-05-10T09:45:02.000Z</time>
      </trkpt>
      <trkpt lat="45.84651" lon="3.52637">
        <ele>304</ele>
        <time>2026-05-10T09:45:03.000Z</time>
      </trkpt>
      <trkpt lat="45.84651" lon="3.52636">
        <ele>304</ele>
        <time>2026-05-10T09:45:04.000Z</time>
      </trkpt>
      <trkpt lat="45.8465" lon="3.52634">
        <ele>304</ele>
        <time>2026-05-10T09:45:05.000Z</time>
      </trkpt>
      <trkpt lat="45.84649" lon="3.52632">
        <ele>304</ele>
        <time>2026-05-10T09:45:06.000Z</time>
      </trkpt>
      <trkpt lat="45.84648" lon="3.5263">
        <ele>304</ele>
        <time>2026-05-10T09:45:07.000Z</time>
      </trkpt>
      <trkpt lat="45.84648" lon="3.52629">
        <ele>304</ele>
        <time>2026-05-10T09:45:08.000Z</time>
      </trkpt>
      <trkpt lat="45.84647" lon="3.52628">
        <ele>304</ele>
        <time>2026-05-10T09:45:09.000Z</time>
      </trkpt>
      <trkpt lat="45.84646" lon="3.52626">
        <ele>304</ele>
        <time>2026-05-10T09:45:10.000Z</time>
      </trkpt>
      <trkpt lat="45.84646" lon="3.52624">
        <ele>304</ele>
        <time>2026-05-10T09:45:11.000Z</time>
      </trkpt>
      <trkpt lat="45.84645" lon="3.52623">
        <ele>304</ele>
        <time>2026-05-10T09:45:12.000Z</time>
      </trkpt>
      <trkpt lat="45.84644" lon="3.52621">
        <ele>304</ele>
        <time>2026-05-10T09:45:13.000Z</time>
      </trkpt>
      <trkpt lat="45.84644" lon="3.5262">
        <ele>304</ele>
        <time>2026-05-10T09:45:14.000Z</time>
      </trkpt>
      <trkpt lat="45.84643" lon="3.52618">
        <ele>304</ele>
        <time>2026-05-10T09:45:15.000Z</time>
      </trkpt>
      <trkpt lat="45.84642" lon="3.52616">
        <ele>304</ele>
        <time>2026-05-10T09:45:16.000Z</time>
      </trkpt>
      <trkpt lat="45.84642" lon="3.52615">
        <ele>304</ele>
        <time>2026-05-10T09:45:17.000Z</time>
      </trkpt>
      <trkpt lat="45.84641" lon="3.52613">
        <ele>304</ele>
        <time>2026-05-10T09:45:18.000Z</time>
      </trkpt>
      <trkpt lat="45.8464" lon="3.52612">
        <ele>304</ele>
        <time>2026-05-10T09:45:19.000Z</time>
      </trkpt>
      <trkpt lat="45.8464" lon="3.5261">
        <ele>304</ele>
        <time>2026-05-10T09:45:20.000Z</time>
      </trkpt>
      <trkpt lat="45.84639" lon="3.52608">
        <ele>304</ele>
        <time>2026-05-10T09:45:21.000Z</time>
      </trkpt>
      <trkpt lat="45.84639" lon="3.52606">
        <ele>304</ele>
        <time>2026-05-10T09:45:22.000Z</time>
      </trkpt>
      <trkpt lat="45.84639" lon="3.52605">
        <ele>304</ele>
        <time>2026-05-10T09:45:23.000Z</time>
      </trkpt>
      <trkpt lat="45.84639" lon="3.52603">
        <ele>304</ele>
        <time>2026-05-10T09:45:24.000Z</time>
      </trkpt>
      <trkpt lat="45.84638" lon="3.52601">
        <ele>304</ele>
        <time>2026-05-10T09:45:25.000Z</time>
      </trkpt>
      <trkpt lat="45.84638" lon="3.52599">
        <ele>304</ele>
        <time>2026-05-10T09:45:26.000Z</time>
      </trkpt>
      <trkpt lat="45.84637" lon="3.52597">
        <ele>304</ele>
        <time>2026-05-10T09:45:27.000Z</time>
      </trkpt>
      <trkpt lat="45.84637" lon="3.52595">
        <ele>304</ele>
        <time>2026-05-10T09:45:28.000Z</time>
      </trkpt>
      <trkpt lat="45.84636" lon="3.52593">
        <ele>304</ele>
        <time>2026-05-10T09:45:29.000Z</time>
      </trkpt>
      <trkpt lat="45.84636" lon="3.52592">
        <ele>304</ele>
        <time>2026-05-10T09:45:30.000Z</time>
      </trkpt>
      <trkpt lat="45.84635" lon="3.5259">
        <ele>304</ele>
        <time>2026-05-10T09:45:31.000Z</time>
      </trkpt>
      <trkpt lat="45.84635" lon="3.52589">
        <ele>304</ele>
        <time>2026-05-10T09:45:32.000Z</time>
      </trkpt>
      <trkpt lat="45.84635" lon="3.52587">
        <ele>304</ele>
        <time>2026-05-10T09:45:33.000Z</time>
      </trkpt>
      <trkpt lat="45.84634" lon="3.52586">
        <ele>304</ele>
        <time>2026-05-10T09:45:34.000Z</time>
      </trkpt>
      <trkpt lat="45.84634" lon="3.52584">
        <ele>304</ele>
        <time>2026-05-10T09:45:35.000Z</time>
      </trkpt>
      <trkpt lat="45.84633" lon="3.52583">
        <ele>304</ele>
        <time>2026-05-10T09:45:36.000Z</time>
      </trkpt>
      <trkpt lat="45.84633" lon="3.52581">
        <ele>303.9</ele>
        <time>2026-05-10T09:45:37.000Z</time>
      </trkpt>
      <trkpt lat="45.84632" lon="3.5258">
        <ele>303.9</ele>
        <time>2026-05-10T09:45:38.000Z</time>
      </trkpt>
      <trkpt lat="45.84632" lon="3.52578">
        <ele>303.9</ele>
        <time>2026-05-10T09:45:39.000Z</time>
      </trkpt>
      <trkpt lat="45.84631" lon="3.52577">
        <ele>303.8</ele>
        <time>2026-05-10T09:45:40.000Z</time>
      </trkpt>
      <trkpt lat="45.84631" lon="3.52575">
        <ele>303.8</ele>
        <time>2026-05-10T09:45:41.000Z</time>
      </trkpt>
      <trkpt lat="45.8463" lon="3.52573">
        <ele>303.8</ele>
        <time>2026-05-10T09:45:42.000Z</time>
      </trkpt>
      <trkpt lat="45.84629" lon="3.52572">
        <ele>303.7</ele>
        <time>2026-05-10T09:45:43.000Z</time>
      </trkpt>
      <trkpt lat="45.84629" lon="3.5257">
        <ele>303.7</ele>
        <time>2026-05-10T09:45:44.000Z</time>
      </trkpt>
      <trkpt lat="45.84628" lon="3.52568">
        <ele>303.7</ele>
        <time>2026-05-10T09:45:45.000Z</time>
      </trkpt>
      <trkpt lat="45.84628" lon="3.52566">
        <ele>303.6</ele>
        <time>2026-05-10T09:45:46.000Z</time>
      </trkpt>
      <trkpt lat="45.84627" lon="3.52564">
        <ele>303.6</ele>
        <time>2026-05-10T09:45:47.000Z</time>
      </trkpt>
      <trkpt lat="45.84627" lon="3.52562">
        <ele>303.6</ele>
        <time>2026-05-10T09:45:48.000Z</time>
      </trkpt>
      <trkpt lat="45.84626" lon="3.5256">
        <ele>303.5</ele>
        <time>2026-05-10T09:45:49.000Z</time>
      </trkpt>
      <trkpt lat="45.84626" lon="3.52559">
        <ele>303.5</ele>
        <time>2026-05-10T09:45:50.000Z</time>
      </trkpt>
      <trkpt lat="45.84626" lon="3.52558">
        <ele>303.5</ele>
        <time>2026-05-10T09:45:51.000Z</time>
      </trkpt>
      <trkpt lat="45.84625" lon="3.52556">
        <ele>303.5</ele>
        <time>2026-05-10T09:45:52.000Z</time>
      </trkpt>
      <trkpt lat="45.84624" lon="3.52555">
        <ele>303.5</ele>
        <time>2026-05-10T09:45:53.000Z</time>
      </trkpt>
      <trkpt lat="45.84624" lon="3.52554">
        <ele>303.5</ele>
        <time>2026-05-10T09:45:54.000Z</time>
      </trkpt>
      <trkpt lat="45.84623" lon="3.52553">
        <ele>303.6</ele>
        <time>2026-05-10T09:45:55.000Z</time>
      </trkpt>
      <trkpt lat="45.84623" lon="3.52551">
        <ele>303.6</ele>
        <time>2026-05-10T09:45:56.000Z</time>
      </trkpt>
      <trkpt lat="45.84622" lon="3.52549">
        <ele>303.6</ele>
        <time>2026-05-10T09:45:57.000Z</time>
      </trkpt>
      <trkpt lat="45.84621" lon="3.52548">
        <ele>303.6</ele>
        <time>2026-05-10T09:45:58.000Z</time>
      </trkpt>
      <trkpt lat="45.84621" lon="3.52546">
        <ele>303.7</ele>
        <time>2026-05-10T09:45:59.000Z</time>
      </trkpt>
      <trkpt lat="45.8462" lon="3.52545">
        <ele>303.7</ele>
        <time>2026-05-10T09:46:00.000Z</time>
      </trkpt>
      <trkpt lat="45.8462" lon="3.52543">
        <ele>303.7</ele>
        <time>2026-05-10T09:46:01.000Z</time>
      </trkpt>
      <trkpt lat="45.84619" lon="3.52541">
        <ele>303.7</ele>
        <time>2026-05-10T09:46:02.000Z</time>
      </trkpt>
      <trkpt lat="45.84619" lon="3.5254">
        <ele>303.7</ele>
        <time>2026-05-10T09:46:03.000Z</time>
      </trkpt>
      <trkpt lat="45.84619" lon="3.52538">
        <ele>303.7</ele>
        <time>2026-05-10T09:46:04.000Z</time>
      </trkpt>
      <trkpt lat="45.84618" lon="3.52537">
        <ele>303.7</ele>
        <time>2026-05-10T09:46:05.000Z</time>
      </trkpt>
      <trkpt lat="45.84618" lon="3.52535">
        <ele>303.7</ele>
        <time>2026-05-10T09:46:06.000Z</time>
      </trkpt>
      <trkpt lat="45.84618" lon="3.52532">
        <ele>303.8</ele>
        <time>2026-05-10T09:46:07.000Z</time>
      </trkpt>
      <trkpt lat="45.84618" lon="3.52531">
        <ele>303.8</ele>
        <time>2026-05-10T09:46:08.000Z</time>
      </trkpt>
      <trkpt lat="45.84617" lon="3.52529">
        <ele>303.8</ele>
        <time>2026-05-10T09:46:09.000Z</time>
      </trkpt>
      <trkpt lat="45.84617" lon="3.52528">
        <ele>303.8</ele>
        <time>2026-05-10T09:46:10.000Z</time>
      </trkpt>
      <trkpt lat="45.84617" lon="3.52526">
        <ele>303.7</ele>
        <time>2026-05-10T09:46:11.000Z</time>
      </trkpt>
      <trkpt lat="45.84616" lon="3.52524">
        <ele>303.7</ele>
        <time>2026-05-10T09:46:12.000Z</time>
      </trkpt>
      <trkpt lat="45.84616" lon="3.52522">
        <ele>303.7</ele>
        <time>2026-05-10T09:46:13.000Z</time>
      </trkpt>
      <trkpt lat="45.84616" lon="3.52521">
        <ele>303.6</ele>
        <time>2026-05-10T09:46:14.000Z</time>
      </trkpt>
      <trkpt lat="45.84615" lon="3.52519">
        <ele>303.6</ele>
        <time>2026-05-10T09:46:15.000Z</time>
      </trkpt>
      <trkpt lat="45.84615" lon="3.52517">
        <ele>303.5</ele>
        <time>2026-05-10T09:46:16.000Z</time>
      </trkpt>
      <trkpt lat="45.84614" lon="3.52515">
        <ele>303.5</ele>
        <time>2026-05-10T09:46:17.000Z</time>
      </trkpt>
      <trkpt lat="45.84614" lon="3.52514">
        <ele>303.4</ele>
        <time>2026-05-10T09:46:18.000Z</time>
      </trkpt>
      <trkpt lat="45.84613" lon="3.52512">
        <ele>303.4</ele>
        <time>2026-05-10T09:46:19.000Z</time>
      </trkpt>
      <trkpt lat="45.84613" lon="3.5251">
        <ele>303.4</ele>
        <time>2026-05-10T09:46:20.000Z</time>
      </trkpt>
      <trkpt lat="45.84612" lon="3.52509">
        <ele>303.3</ele>
        <time>2026-05-10T09:46:21.000Z</time>
      </trkpt>
      <trkpt lat="45.84612" lon="3.52508">
        <ele>303.3</ele>
        <time>2026-05-10T09:46:22.000Z</time>
      </trkpt>
      <trkpt lat="45.84611" lon="3.52506">
        <ele>303.2</ele>
        <time>2026-05-10T09:46:23.000Z</time>
      </trkpt>
      <trkpt lat="45.8461" lon="3.52504">
        <ele>303.1</ele>
        <time>2026-05-10T09:46:24.000Z</time>
      </trkpt>
      <trkpt lat="45.84609" lon="3.52502">
        <ele>303.1</ele>
        <time>2026-05-10T09:46:25.000Z</time>
      </trkpt>
      <trkpt lat="45.84609" lon="3.525">
        <ele>303</ele>
        <time>2026-05-10T09:46:26.000Z</time>
      </trkpt>
      <trkpt lat="45.84608" lon="3.52498">
        <ele>303</ele>
        <time>2026-05-10T09:46:27.000Z</time>
      </trkpt>
      <trkpt lat="45.84607" lon="3.52497">
        <ele>303</ele>
        <time>2026-05-10T09:46:28.000Z</time>
      </trkpt>
      <trkpt lat="45.84607" lon="3.52495">
        <ele>303</ele>
        <time>2026-05-10T09:46:29.000Z</time>
      </trkpt>
      <trkpt lat="45.84606" lon="3.52494">
        <ele>303</ele>
        <time>2026-05-10T09:46:30.000Z</time>
      </trkpt>
      <trkpt lat="45.84606" lon="3.52492">
        <ele>303</ele>
        <time>2026-05-10T09:46:31.000Z</time>
      </trkpt>
      <trkpt lat="45.84605" lon="3.5249">
        <ele>303</ele>
        <time>2026-05-10T09:46:32.000Z</time>
      </trkpt>
      <trkpt lat="45.84605" lon="3.52489">
        <ele>303</ele>
        <time>2026-05-10T09:46:33.000Z</time>
      </trkpt>
      <trkpt lat="45.84604" lon="3.52487">
        <ele>303</ele>
        <time>2026-05-10T09:46:34.000Z</time>
      </trkpt>
      <trkpt lat="45.84604" lon="3.52486">
        <ele>303</ele>
        <time>2026-05-10T09:46:35.000Z</time>
      </trkpt>
      <trkpt lat="45.84603" lon="3.52485">
        <ele>303</ele>
        <time>2026-05-10T09:46:36.000Z</time>
      </trkpt>
      <trkpt lat="45.84603" lon="3.52483">
        <ele>303</ele>
        <time>2026-05-10T09:46:37.000Z</time>
      </trkpt>
      <trkpt lat="45.84602" lon="3.52482">
        <ele>303</ele>
        <time>2026-05-10T09:46:38.000Z</time>
      </trkpt>
      <trkpt lat="45.84602" lon="3.5248">
        <ele>303</ele>
        <time>2026-05-10T09:46:39.000Z</time>
      </trkpt>
      <trkpt lat="45.84601" lon="3.52479">
        <ele>303</ele>
        <time>2026-05-10T09:46:40.000Z</time>
      </trkpt>
      <trkpt lat="45.846" lon="3.52477">
        <ele>303</ele>
        <time>2026-05-10T09:46:41.000Z</time>
      </trkpt>
      <trkpt lat="45.846" lon="3.52476">
        <ele>303</ele>
        <time>2026-05-10T09:46:42.000Z</time>
      </trkpt>
      <trkpt lat="45.84599" lon="3.52474">
        <ele>303</ele>
        <time>2026-05-10T09:46:43.000Z</time>
      </trkpt>
      <trkpt lat="45.84599" lon="3.52472">
        <ele>303</ele>
        <time>2026-05-10T09:46:44.000Z</time>
      </trkpt>
      <trkpt lat="45.84598" lon="3.5247">
        <ele>303</ele>
        <time>2026-05-10T09:46:45.000Z</time>
      </trkpt>
      <trkpt lat="45.84597" lon="3.52469">
        <ele>303</ele>
        <time>2026-05-10T09:46:46.000Z</time>
      </trkpt>
      <trkpt lat="45.84597" lon="3.52467">
        <ele>303</ele>
        <time>2026-05-10T09:46:47.000Z</time>
      </trkpt>
      <trkpt lat="45.84597" lon="3.52465">
        <ele>303</ele>
        <time>2026-05-10T09:46:48.000Z</time>
      </trkpt>
      <trkpt lat="45.84596" lon="3.52463">
        <ele>303</ele>
        <time>2026-05-10T09:46:49.000Z</time>
      </trkpt>
      <trkpt lat="45.84596" lon="3.52462">
        <ele>303</ele>
        <time>2026-05-10T09:46:50.000Z</time>
      </trkpt>
      <trkpt lat="45.84595" lon="3.5246">
        <ele>303</ele>
        <time>2026-05-10T09:46:51.000Z</time>
      </trkpt>
      <trkpt lat="45.84595" lon="3.52459">
        <ele>303</ele>
        <time>2026-05-10T09:46:52.000Z</time>
      </trkpt>
      <trkpt lat="45.84595" lon="3.52457">
        <ele>303</ele>
        <time>2026-05-10T09:46:53.000Z</time>
      </trkpt>
      <trkpt lat="45.84594" lon="3.52455">
        <ele>303</ele>
        <time>2026-05-10T09:46:54.000Z</time>
      </trkpt>
      <trkpt lat="45.84594" lon="3.52453">
        <ele>303</ele>
        <time>2026-05-10T09:46:55.000Z</time>
      </trkpt>
      <trkpt lat="45.84593" lon="3.52452">
        <ele>303</ele>
        <time>2026-05-10T09:46:56.000Z</time>
      </trkpt>
      <trkpt lat="45.84593" lon="3.5245">
        <ele>303</ele>
        <time>2026-05-10T09:46:57.000Z</time>
      </trkpt>
      <trkpt lat="45.84592" lon="3.52449">
        <ele>303</ele>
        <time>2026-05-10T09:46:58.000Z</time>
      </trkpt>
      <trkpt lat="45.84592" lon="3.52447">
        <ele>303</ele>
        <time>2026-05-10T09:46:59.000Z</time>
      </trkpt>
      <trkpt lat="45.84591" lon="3.52446">
        <ele>303</ele>
        <time>2026-05-10T09:47:00.000Z</time>
      </trkpt>
      <trkpt lat="45.84591" lon="3.52444">
        <ele>303</ele>
        <time>2026-05-10T09:47:01.000Z</time>
      </trkpt>
      <trkpt lat="45.8459" lon="3.52443">
        <ele>303</ele>
        <time>2026-05-10T09:47:02.000Z</time>
      </trkpt>
      <trkpt lat="45.8459" lon="3.52442">
        <ele>303</ele>
        <time>2026-05-10T09:47:03.000Z</time>
      </trkpt>
      <trkpt lat="45.84589" lon="3.5244">
        <ele>303</ele>
        <time>2026-05-10T09:47:04.000Z</time>
      </trkpt>
      <trkpt lat="45.84589" lon="3.52439">
        <ele>303</ele>
        <time>2026-05-10T09:47:05.000Z</time>
      </trkpt>
      <trkpt lat="45.84588" lon="3.52437">
        <ele>303</ele>
        <time>2026-05-10T09:47:06.000Z</time>
      </trkpt>
      <trkpt lat="45.84588" lon="3.52435">
        <ele>303</ele>
        <time>2026-05-10T09:47:07.000Z</time>
      </trkpt>
      <trkpt lat="45.84587" lon="3.52433">
        <ele>303</ele>
        <time>2026-05-10T09:47:08.000Z</time>
      </trkpt>
      <trkpt lat="45.84586" lon="3.52431">
        <ele>303</ele>
        <time>2026-05-10T09:47:09.000Z</time>
      </trkpt>
      <trkpt lat="45.84586" lon="3.52429">
        <ele>303</ele>
        <time>2026-05-10T09:47:10.000Z</time>
      </trkpt>
      <trkpt lat="45.84585" lon="3.52428">
        <ele>303</ele>
        <time>2026-05-10T09:47:11.000Z</time>
      </trkpt>
      <trkpt lat="45.84585" lon="3.52427">
        <ele>303</ele>
        <time>2026-05-10T09:47:12.000Z</time>
      </trkpt>
      <trkpt lat="45.84584" lon="3.52426">
        <ele>303</ele>
        <time>2026-05-10T09:47:13.000Z</time>
      </trkpt>
      <trkpt lat="45.84584" lon="3.52424">
        <ele>303</ele>
        <time>2026-05-10T09:47:14.000Z</time>
      </trkpt>
      <trkpt lat="45.84583" lon="3.52423">
        <ele>303</ele>
        <time>2026-05-10T09:47:15.000Z</time>
      </trkpt>
      <trkpt lat="45.84583" lon="3.52421">
        <ele>303</ele>
        <time>2026-05-10T09:47:16.000Z</time>
      </trkpt>
      <trkpt lat="45.84582" lon="3.52419">
        <ele>303</ele>
        <time>2026-05-10T09:47:17.000Z</time>
      </trkpt>
      <trkpt lat="45.84581" lon="3.52417">
        <ele>303.1</ele>
        <time>2026-05-10T09:47:18.000Z</time>
      </trkpt>
      <trkpt lat="45.84581" lon="3.52416">
        <ele>303.1</ele>
        <time>2026-05-10T09:47:19.000Z</time>
      </trkpt>
      <trkpt lat="45.8458" lon="3.52415">
        <ele>303.2</ele>
        <time>2026-05-10T09:47:20.000Z</time>
      </trkpt>
      <trkpt lat="45.8458" lon="3.52414">
        <ele>303.2</ele>
        <time>2026-05-10T09:47:21.000Z</time>
      </trkpt>
      <trkpt lat="45.84579" lon="3.52412">
        <ele>303.3</ele>
        <time>2026-05-10T09:47:22.000Z</time>
      </trkpt>
      <trkpt lat="45.84579" lon="3.52411">
        <ele>303.3</ele>
        <time>2026-05-10T09:47:23.000Z</time>
      </trkpt>
      <trkpt lat="45.84578" lon="3.52409">
        <ele>303.3</ele>
        <time>2026-05-10T09:47:24.000Z</time>
      </trkpt>
      <trkpt lat="45.84578" lon="3.52408">
        <ele>303.4</ele>
        <time>2026-05-10T09:47:25.000Z</time>
      </trkpt>
      <trkpt lat="45.84577" lon="3.52406">
        <ele>303.4</ele>
        <time>2026-05-10T09:47:26.000Z</time>
      </trkpt>
      <trkpt lat="45.84577" lon="3.52405">
        <ele>303.5</ele>
        <time>2026-05-10T09:47:27.000Z</time>
      </trkpt>
      <trkpt lat="45.84577" lon="3.52403">
        <ele>303.5</ele>
        <time>2026-05-10T09:47:28.000Z</time>
      </trkpt>
      <trkpt lat="45.84577" lon="3.52402">
        <ele>303.5</ele>
        <time>2026-05-10T09:47:29.000Z</time>
      </trkpt>
      <trkpt lat="45.84576" lon="3.524">
        <ele>303.5</ele>
        <time>2026-05-10T09:47:30.000Z</time>
      </trkpt>
      <trkpt lat="45.84576" lon="3.52399">
        <ele>303.6</ele>
        <time>2026-05-10T09:47:31.000Z</time>
      </trkpt>
      <trkpt lat="45.84575" lon="3.52397">
        <ele>303.6</ele>
        <time>2026-05-10T09:47:32.000Z</time>
      </trkpt>
      <trkpt lat="45.84575" lon="3.52395">
        <ele>303.6</ele>
        <time>2026-05-10T09:47:33.000Z</time>
      </trkpt>
      <trkpt lat="45.84574" lon="3.52394">
        <ele>303.6</ele>
        <time>2026-05-10T09:47:34.000Z</time>
      </trkpt>
      <trkpt lat="45.84573" lon="3.52392">
        <ele>303.6</ele>
        <time>2026-05-10T09:47:35.000Z</time>
      </trkpt>
      <trkpt lat="45.84573" lon="3.52391">
        <ele>303.6</ele>
        <time>2026-05-10T09:47:36.000Z</time>
      </trkpt>
      <trkpt lat="45.84572" lon="3.52389">
        <ele>303.6</ele>
        <time>2026-05-10T09:47:37.000Z</time>
      </trkpt>
      <trkpt lat="45.84572" lon="3.52388">
        <ele>303.6</ele>
        <time>2026-05-10T09:47:38.000Z</time>
      </trkpt>
      <trkpt lat="45.84571" lon="3.52387">
        <ele>303.5</ele>
        <time>2026-05-10T09:47:39.000Z</time>
      </trkpt>
      <trkpt lat="45.8457" lon="3.52385">
        <ele>303.5</ele>
        <time>2026-05-10T09:47:40.000Z</time>
      </trkpt>
      <trkpt lat="45.8457" lon="3.52384">
        <ele>303.4</ele>
        <time>2026-05-10T09:47:41.000Z</time>
      </trkpt>
      <trkpt lat="45.84569" lon="3.52382">
        <ele>303.4</ele>
        <time>2026-05-10T09:47:42.000Z</time>
      </trkpt>
      <trkpt lat="45.84569" lon="3.5238">
        <ele>303.3</ele>
        <time>2026-05-10T09:47:43.000Z</time>
      </trkpt>
      <trkpt lat="45.84568" lon="3.52379">
        <ele>303.3</ele>
        <time>2026-05-10T09:47:44.000Z</time>
      </trkpt>
      <trkpt lat="45.84568" lon="3.52377">
        <ele>303.2</ele>
        <time>2026-05-10T09:47:45.000Z</time>
      </trkpt>
      <trkpt lat="45.84567" lon="3.52375">
        <ele>303.2</ele>
        <time>2026-05-10T09:47:46.000Z</time>
      </trkpt>
      <trkpt lat="45.84567" lon="3.52373">
        <ele>303.2</ele>
        <time>2026-05-10T09:47:47.000Z</time>
      </trkpt>
      <trkpt lat="45.84566" lon="3.52372">
        <ele>303.1</ele>
        <time>2026-05-10T09:47:48.000Z</time>
      </trkpt>
      <trkpt lat="45.84565" lon="3.5237">
        <ele>303.1</ele>
        <time>2026-05-10T09:47:49.000Z</time>
      </trkpt>
      <trkpt lat="45.84565" lon="3.52369">
        <ele>303.1</ele>
        <time>2026-05-10T09:47:50.000Z</time>
      </trkpt>
      <trkpt lat="45.84564" lon="3.52367">
        <ele>303.1</ele>
        <time>2026-05-10T09:47:51.000Z</time>
      </trkpt>
      <trkpt lat="45.84564" lon="3.52366">
        <ele>303.1</ele>
        <time>2026-05-10T09:47:52.000Z</time>
      </trkpt>
      <trkpt lat="45.84563" lon="3.52365">
        <ele>303</ele>
        <time>2026-05-10T09:47:53.000Z</time>
      </trkpt>
      <trkpt lat="45.84562" lon="3.52364">
        <ele>303</ele>
        <time>2026-05-10T09:47:54.000Z</time>
      </trkpt>
      <trkpt lat="45.84561" lon="3.52362">
        <ele>303</ele>
        <time>2026-05-10T09:47:55.000Z</time>
      </trkpt>
      <trkpt lat="45.84561" lon="3.5236">
        <ele>303</ele>
        <time>2026-05-10T09:47:56.000Z</time>
      </trkpt>
      <trkpt lat="45.8456" lon="3.52359">
        <ele>303</ele>
        <time>2026-05-10T09:47:57.000Z</time>
      </trkpt>
      <trkpt lat="45.8456" lon="3.52357">
        <ele>303</ele>
        <time>2026-05-10T09:47:58.000Z</time>
      </trkpt>
      <trkpt lat="45.8456" lon="3.52355">
        <ele>303</ele>
        <time>2026-05-10T09:47:59.000Z</time>
      </trkpt>
      <trkpt lat="45.8456" lon="3.52354">
        <ele>303</ele>
        <time>2026-05-10T09:48:00.000Z</time>
      </trkpt>
      <trkpt lat="45.84559" lon="3.52352">
        <ele>303</ele>
        <time>2026-05-10T09:48:01.000Z</time>
      </trkpt>
      <trkpt lat="45.84558" lon="3.5235">
        <ele>303</ele>
        <time>2026-05-10T09:48:02.000Z</time>
      </trkpt>
      <trkpt lat="45.84558" lon="3.52349">
        <ele>303</ele>
        <time>2026-05-10T09:48:03.000Z</time>
      </trkpt>
      <trkpt lat="45.84558" lon="3.52347">
        <ele>303</ele>
        <time>2026-05-10T09:48:04.000Z</time>
      </trkpt>
      <trkpt lat="45.84558" lon="3.52347">
        <ele>303</ele>
        <time>2026-05-10T09:48:05.000Z</time>
      </trkpt>
      <trkpt lat="45.84557" lon="3.52345">
        <ele>303</ele>
        <time>2026-05-10T09:48:06.000Z</time>
      </trkpt>
      <trkpt lat="45.84557" lon="3.52343">
        <ele>303</ele>
        <time>2026-05-10T09:48:07.000Z</time>
      </trkpt>
      <trkpt lat="45.84556" lon="3.52341">
        <ele>303</ele>
        <time>2026-05-10T09:48:08.000Z</time>
      </trkpt>
      <trkpt lat="45.84555" lon="3.52338">
        <ele>303</ele>
        <time>2026-05-10T09:48:09.000Z</time>
      </trkpt>
      <trkpt lat="45.84555" lon="3.52337">
        <ele>303</ele>
        <time>2026-05-10T09:48:10.000Z</time>
      </trkpt>
      <trkpt lat="45.84554" lon="3.52335">
        <ele>303</ele>
        <time>2026-05-10T09:48:11.000Z</time>
      </trkpt>
      <trkpt lat="45.84553" lon="3.52334">
        <ele>303</ele>
        <time>2026-05-10T09:48:12.000Z</time>
      </trkpt>
      <trkpt lat="45.84553" lon="3.52332">
        <ele>303</ele>
        <time>2026-05-10T09:48:13.000Z</time>
      </trkpt>
      <trkpt lat="45.84552" lon="3.52331">
        <ele>303</ele>
        <time>2026-05-10T09:48:14.000Z</time>
      </trkpt>
      <trkpt lat="45.84551" lon="3.52329">
        <ele>303</ele>
        <time>2026-05-10T09:48:15.000Z</time>
      </trkpt>
      <trkpt lat="45.8455" lon="3.52326">
        <ele>303</ele>
        <time>2026-05-10T09:48:16.000Z</time>
      </trkpt>
      <trkpt lat="45.8455" lon="3.52325">
        <ele>303</ele>
        <time>2026-05-10T09:48:17.000Z</time>
      </trkpt>
      <trkpt lat="45.84549" lon="3.52323">
        <ele>303</ele>
        <time>2026-05-10T09:48:18.000Z</time>
      </trkpt>
      <trkpt lat="45.84548" lon="3.52322">
        <ele>303</ele>
        <time>2026-05-10T09:48:19.000Z</time>
      </trkpt>
      <trkpt lat="45.84548" lon="3.52321">
        <ele>303</ele>
        <time>2026-05-10T09:48:20.000Z</time>
      </trkpt>
      <trkpt lat="45.84547" lon="3.52319">
        <ele>303</ele>
        <time>2026-05-10T09:48:21.000Z</time>
      </trkpt>
      <trkpt lat="45.84547" lon="3.52317">
        <ele>303</ele>
        <time>2026-05-10T09:48:22.000Z</time>
      </trkpt>
      <trkpt lat="45.84547" lon="3.52315">
        <ele>303</ele>
        <time>2026-05-10T09:48:23.000Z</time>
      </trkpt>
      <trkpt lat="45.84546" lon="3.52313">
        <ele>303</ele>
        <time>2026-05-10T09:48:24.000Z</time>
      </trkpt>
      <trkpt lat="45.84545" lon="3.52311">
        <ele>303</ele>
        <time>2026-05-10T09:48:25.000Z</time>
      </trkpt>
      <trkpt lat="45.84545" lon="3.5231">
        <ele>303</ele>
        <time>2026-05-10T09:48:26.000Z</time>
      </trkpt>
      <trkpt lat="45.84545" lon="3.52309">
        <ele>303</ele>
        <time>2026-05-10T09:48:27.000Z</time>
      </trkpt>
      <trkpt lat="45.84544" lon="3.52308">
        <ele>303</ele>
        <time>2026-05-10T09:48:28.000Z</time>
      </trkpt>
      <trkpt lat="45.84544" lon="3.52306">
        <ele>303</ele>
        <time>2026-05-10T09:48:29.000Z</time>
      </trkpt>
      <trkpt lat="45.84544" lon="3.52305">
        <ele>303</ele>
        <time>2026-05-10T09:48:30.000Z</time>
      </trkpt>
      <trkpt lat="45.84544" lon="3.52304">
        <ele>303</ele>
        <time>2026-05-10T09:48:31.000Z</time>
      </trkpt>
      <trkpt lat="45.84543" lon="3.52303">
        <ele>303</ele>
        <time>2026-05-10T09:48:32.000Z</time>
      </trkpt>
      <trkpt lat="45.84543" lon="3.52301">
        <ele>303</ele>
        <time>2026-05-10T09:48:33.000Z</time>
      </trkpt>
      <trkpt lat="45.84543" lon="3.523">
        <ele>303</ele>
        <time>2026-05-10T09:48:34.000Z</time>
      </trkpt>
      <trkpt lat="45.84542" lon="3.52298">
        <ele>303</ele>
        <time>2026-05-10T09:48:35.000Z</time>
      </trkpt>
      <trkpt lat="45.84542" lon="3.52296">
        <ele>303</ele>
        <time>2026-05-10T09:48:36.000Z</time>
      </trkpt>
      <trkpt lat="45.84541" lon="3.52295">
        <ele>303</ele>
        <time>2026-05-10T09:48:37.000Z</time>
      </trkpt>
      <trkpt lat="45.84541" lon="3.52293">
        <ele>303</ele>
        <time>2026-05-10T09:48:38.000Z</time>
      </trkpt>
      <trkpt lat="45.8454" lon="3.52292">
        <ele>303</ele>
        <time>2026-05-10T09:48:39.000Z</time>
      </trkpt>
      <trkpt lat="45.8454" lon="3.5229">
        <ele>303</ele>
        <time>2026-05-10T09:48:40.000Z</time>
      </trkpt>
      <trkpt lat="45.84539" lon="3.52289">
        <ele>303</ele>
        <time>2026-05-10T09:48:41.000Z</time>
      </trkpt>
      <trkpt lat="45.84539" lon="3.52288">
        <ele>303</ele>
        <time>2026-05-10T09:48:42.000Z</time>
      </trkpt>
      <trkpt lat="45.84538" lon="3.52286">
        <ele>303</ele>
        <time>2026-05-10T09:48:43.000Z</time>
      </trkpt>
      <trkpt lat="45.84538" lon="3.52285">
        <ele>303</ele>
        <time>2026-05-10T09:48:44.000Z</time>
      </trkpt>
      <trkpt lat="45.84538" lon="3.52283">
        <ele>303</ele>
        <time>2026-05-10T09:48:45.000Z</time>
      </trkpt>
      <trkpt lat="45.84537" lon="3.52282">
        <ele>303</ele>
        <time>2026-05-10T09:48:46.000Z</time>
      </trkpt>
      <trkpt lat="45.84537" lon="3.5228">
        <ele>303</ele>
        <time>2026-05-10T09:48:47.000Z</time>
      </trkpt>
      <trkpt lat="45.84536" lon="3.52279">
        <ele>303</ele>
        <time>2026-05-10T09:48:48.000Z</time>
      </trkpt>
      <trkpt lat="45.84536" lon="3.52277">
        <ele>303</ele>
        <time>2026-05-10T09:48:49.000Z</time>
      </trkpt>
      <trkpt lat="45.84535" lon="3.52275">
        <ele>302.9</ele>
        <time>2026-05-10T09:48:50.000Z</time>
      </trkpt>
      <trkpt lat="45.84535" lon="3.52273">
        <ele>302.8</ele>
        <time>2026-05-10T09:48:51.000Z</time>
      </trkpt>
      <trkpt lat="45.84534" lon="3.52272">
        <ele>302.8</ele>
        <time>2026-05-10T09:48:52.000Z</time>
      </trkpt>
      <trkpt lat="45.84534" lon="3.52271">
        <ele>302.8</ele>
        <time>2026-05-10T09:48:53.000Z</time>
      </trkpt>
      <trkpt lat="45.84533" lon="3.5227">
        <ele>302.7</ele>
        <time>2026-05-10T09:48:54.000Z</time>
      </trkpt>
      <trkpt lat="45.84533" lon="3.52268">
        <ele>302.7</ele>
        <time>2026-05-10T09:48:55.000Z</time>
      </trkpt>
      <trkpt lat="45.84532" lon="3.52267">
        <ele>302.6</ele>
        <time>2026-05-10T09:48:56.000Z</time>
      </trkpt>
      <trkpt lat="45.84532" lon="3.52265">
        <ele>302.5</ele>
        <time>2026-05-10T09:48:57.000Z</time>
      </trkpt>
      <trkpt lat="45.84531" lon="3.52263">
        <ele>302.5</ele>
        <time>2026-05-10T09:48:58.000Z</time>
      </trkpt>
      <trkpt lat="45.84531" lon="3.52261">
        <ele>302.4</ele>
        <time>2026-05-10T09:48:59.000Z</time>
      </trkpt>
      <trkpt lat="45.84531" lon="3.5226">
        <ele>302.4</ele>
        <time>2026-05-10T09:49:00.000Z</time>
      </trkpt>
      <trkpt lat="45.8453" lon="3.52258">
        <ele>302.3</ele>
        <time>2026-05-10T09:49:01.000Z</time>
      </trkpt>
      <trkpt lat="45.8453" lon="3.52256">
        <ele>302.2</ele>
        <time>2026-05-10T09:49:02.000Z</time>
      </trkpt>
      <trkpt lat="45.84529" lon="3.52255">
        <ele>302.2</ele>
        <time>2026-05-10T09:49:03.000Z</time>
      </trkpt>
      <trkpt lat="45.84528" lon="3.52254">
        <ele>302.1</ele>
        <time>2026-05-10T09:49:04.000Z</time>
      </trkpt>
      <trkpt lat="45.84528" lon="3.52252">
        <ele>302.1</ele>
        <time>2026-05-10T09:49:05.000Z</time>
      </trkpt>
      <trkpt lat="45.84527" lon="3.52251">
        <ele>302</ele>
        <time>2026-05-10T09:49:06.000Z</time>
      </trkpt>
      <trkpt lat="45.84526" lon="3.52249">
        <ele>302</ele>
        <time>2026-05-10T09:49:07.000Z</time>
      </trkpt>
      <trkpt lat="45.84526" lon="3.52248">
        <ele>302.1</ele>
        <time>2026-05-10T09:49:08.000Z</time>
      </trkpt>
      <trkpt lat="45.84525" lon="3.52246">
        <ele>302.1</ele>
        <time>2026-05-10T09:49:09.000Z</time>
      </trkpt>
      <trkpt lat="45.84525" lon="3.52245">
        <ele>302.1</ele>
        <time>2026-05-10T09:49:10.000Z</time>
      </trkpt>
      <trkpt lat="45.84524" lon="3.52243">
        <ele>302.1</ele>
        <time>2026-05-10T09:49:11.000Z</time>
      </trkpt>
      <trkpt lat="45.84524" lon="3.5224">
        <ele>302.1</ele>
        <time>2026-05-10T09:49:12.000Z</time>
      </trkpt>
      <trkpt lat="45.84523" lon="3.52238">
        <ele>302.1</ele>
        <time>2026-05-10T09:49:13.000Z</time>
      </trkpt>
      <trkpt lat="45.84523" lon="3.52237">
        <ele>302.1</ele>
        <time>2026-05-10T09:49:14.000Z</time>
      </trkpt>
      <trkpt lat="45.84523" lon="3.52235">
        <ele>302.1</ele>
        <time>2026-05-10T09:49:15.000Z</time>
      </trkpt>
      <trkpt lat="45.84522" lon="3.52234">
        <ele>302.1</ele>
        <time>2026-05-10T09:49:16.000Z</time>
      </trkpt>
      <trkpt lat="45.84522" lon="3.52233">
        <ele>302.1</ele>
        <time>2026-05-10T09:49:17.000Z</time>
      </trkpt>
      <trkpt lat="45.84522" lon="3.5223">
        <ele>302.1</ele>
        <time>2026-05-10T09:49:18.000Z</time>
      </trkpt>
      <trkpt lat="45.84521" lon="3.52229">
        <ele>302.1</ele>
        <time>2026-05-10T09:49:19.000Z</time>
      </trkpt>
      <trkpt lat="45.8452" lon="3.52227">
        <ele>302</ele>
        <time>2026-05-10T09:49:20.000Z</time>
      </trkpt>
      <trkpt lat="45.8452" lon="3.52226">
        <ele>302</ele>
        <time>2026-05-10T09:49:21.000Z</time>
      </trkpt>
      <trkpt lat="45.84519" lon="3.52224">
        <ele>302</ele>
        <time>2026-05-10T09:49:22.000Z</time>
      </trkpt>
      <trkpt lat="45.84519" lon="3.52223">
        <ele>302</ele>
        <time>2026-05-10T09:49:23.000Z</time>
      </trkpt>
      <trkpt lat="45.84518" lon="3.52222">
        <ele>302</ele>
        <time>2026-05-10T09:49:24.000Z</time>
      </trkpt>
      <trkpt lat="45.84518" lon="3.5222">
        <ele>302</ele>
        <time>2026-05-10T09:49:25.000Z</time>
      </trkpt>
      <trkpt lat="45.84518" lon="3.52219">
        <ele>302</ele>
        <time>2026-05-10T09:49:26.000Z</time>
      </trkpt>
      <trkpt lat="45.84518" lon="3.52217">
        <ele>302</ele>
        <time>2026-05-10T09:49:27.000Z</time>
      </trkpt>
      <trkpt lat="45.84517" lon="3.52215">
        <ele>302</ele>
        <time>2026-05-10T09:49:28.000Z</time>
      </trkpt>
      <trkpt lat="45.84516" lon="3.52213">
        <ele>302</ele>
        <time>2026-05-10T09:49:29.000Z</time>
      </trkpt>
      <trkpt lat="45.84516" lon="3.52212">
        <ele>302</ele>
        <time>2026-05-10T09:49:30.000Z</time>
      </trkpt>
      <trkpt lat="45.84515" lon="3.5221">
        <ele>302</ele>
        <time>2026-05-10T09:49:31.000Z</time>
      </trkpt>
      <trkpt lat="45.84515" lon="3.52209">
        <ele>302</ele>
        <time>2026-05-10T09:49:32.000Z</time>
      </trkpt>
      <trkpt lat="45.84514" lon="3.52208">
        <ele>302</ele>
        <time>2026-05-10T09:49:33.000Z</time>
      </trkpt>
      <trkpt lat="45.84514" lon="3.52206">
        <ele>302</ele>
        <time>2026-05-10T09:49:34.000Z</time>
      </trkpt>
      <trkpt lat="45.84513" lon="3.52205">
        <ele>302</ele>
        <time>2026-05-10T09:49:35.000Z</time>
      </trkpt>
      <trkpt lat="45.84513" lon="3.52203">
        <ele>302</ele>
        <time>2026-05-10T09:49:36.000Z</time>
      </trkpt>
      <trkpt lat="45.84513" lon="3.52202">
        <ele>302</ele>
        <time>2026-05-10T09:49:37.000Z</time>
      </trkpt>
      <trkpt lat="45.84514" lon="3.52201">
        <ele>302</ele>
        <time>2026-05-10T09:49:38.000Z</time>
      </trkpt>
      <trkpt lat="45.84514" lon="3.522">
        <ele>302</ele>
        <time>2026-05-10T09:49:39.000Z</time>
      </trkpt>
      <trkpt lat="45.84515" lon="3.52199">
        <ele>302</ele>
        <time>2026-05-10T09:49:40.000Z</time>
      </trkpt>
      <trkpt lat="45.84516" lon="3.52198">
        <ele>302</ele>
        <time>2026-05-10T09:49:41.000Z</time>
      </trkpt>
      <trkpt lat="45.84517" lon="3.52197">
        <ele>302</ele>
        <time>2026-05-10T09:49:42.000Z</time>
      </trkpt>
      <trkpt lat="45.84518" lon="3.52195">
        <ele>302</ele>
        <time>2026-05-10T09:49:43.000Z</time>
      </trkpt>
      <trkpt lat="45.8452" lon="3.52194">
        <ele>302</ele>
        <time>2026-05-10T09:49:44.000Z</time>
      </trkpt>
      <trkpt lat="45.84521" lon="3.52193">
        <ele>302</ele>
        <time>2026-05-10T09:49:45.000Z</time>
      </trkpt>
      <trkpt lat="45.84522" lon="3.52191">
        <ele>302</ele>
        <time>2026-05-10T09:49:46.000Z</time>
      </trkpt>
      <trkpt lat="45.84523" lon="3.5219">
        <ele>302</ele>
        <time>2026-05-10T09:49:47.000Z</time>
      </trkpt>
      <trkpt lat="45.84524" lon="3.52189">
        <ele>302</ele>
        <time>2026-05-10T09:49:48.000Z</time>
      </trkpt>
      <trkpt lat="45.84525" lon="3.52188">
        <ele>302</ele>
        <time>2026-05-10T09:49:49.000Z</time>
      </trkpt>
      <trkpt lat="45.84527" lon="3.52187">
        <ele>302</ele>
        <time>2026-05-10T09:49:50.000Z</time>
      </trkpt>
      <trkpt lat="45.84528" lon="3.52187">
        <ele>302</ele>
        <time>2026-05-10T09:49:51.000Z</time>
      </trkpt>
      <trkpt lat="45.84529" lon="3.52186">
        <ele>302</ele>
        <time>2026-05-10T09:49:52.000Z</time>
      </trkpt>
      <trkpt lat="45.8453" lon="3.52185">
        <ele>302</ele>
        <time>2026-05-10T09:49:53.000Z</time>
      </trkpt>
      <trkpt lat="45.84532" lon="3.52184">
        <ele>302</ele>
        <time>2026-05-10T09:49:54.000Z</time>
      </trkpt>
      <trkpt lat="45.84533" lon="3.52183">
        <ele>302</ele>
        <time>2026-05-10T09:49:55.000Z</time>
      </trkpt>
      <trkpt lat="45.84534" lon="3.52182">
        <ele>302</ele>
        <time>2026-05-10T09:49:56.000Z</time>
      </trkpt>
      <trkpt lat="45.84535" lon="3.52182">
        <ele>302</ele>
        <time>2026-05-10T09:49:57.000Z</time>
      </trkpt>
      <trkpt lat="45.84536" lon="3.52181">
        <ele>302</ele>
        <time>2026-05-10T09:49:58.000Z</time>
      </trkpt>
      <trkpt lat="45.84537" lon="3.5218">
        <ele>302</ele>
        <time>2026-05-10T09:49:59.000Z</time>
      </trkpt>
      <trkpt lat="45.84539" lon="3.52179">
        <ele>302</ele>
        <time>2026-05-10T09:50:00.000Z</time>
      </trkpt>
      <trkpt lat="45.8454" lon="3.52179">
        <ele>302</ele>
        <time>2026-05-10T09:50:01.000Z</time>
      </trkpt>
      <trkpt lat="45.84541" lon="3.52178">
        <ele>302</ele>
        <time>2026-05-10T09:50:02.000Z</time>
      </trkpt>
      <trkpt lat="45.84542" lon="3.52177">
        <ele>302</ele>
        <time>2026-05-10T09:50:03.000Z</time>
      </trkpt>
      <trkpt lat="45.84543" lon="3.52176">
        <ele>302</ele>
        <time>2026-05-10T09:50:04.000Z</time>
      </trkpt>
      <trkpt lat="45.84544" lon="3.52175">
        <ele>302</ele>
        <time>2026-05-10T09:50:05.000Z</time>
      </trkpt>
      <trkpt lat="45.84545" lon="3.52174">
        <ele>302</ele>
        <time>2026-05-10T09:50:06.000Z</time>
      </trkpt>
      <trkpt lat="45.84546" lon="3.52173">
        <ele>302</ele>
        <time>2026-05-10T09:50:07.000Z</time>
      </trkpt>
      <trkpt lat="45.84546" lon="3.52172">
        <ele>302</ele>
        <time>2026-05-10T09:50:08.000Z</time>
      </trkpt>
      <trkpt lat="45.84548" lon="3.52172">
        <ele>302</ele>
        <time>2026-05-10T09:50:09.000Z</time>
      </trkpt>
      <trkpt lat="45.84548" lon="3.52171">
        <ele>302</ele>
        <time>2026-05-10T09:50:10.000Z</time>
      </trkpt>
      <trkpt lat="45.84549" lon="3.5217">
        <ele>302</ele>
        <time>2026-05-10T09:50:11.000Z</time>
      </trkpt>
      <trkpt lat="45.8455" lon="3.52169">
        <ele>302</ele>
        <time>2026-05-10T09:50:12.000Z</time>
      </trkpt>
      <trkpt lat="45.84551" lon="3.52168">
        <ele>302</ele>
        <time>2026-05-10T09:50:13.000Z</time>
      </trkpt>
      <trkpt lat="45.84552" lon="3.52167">
        <ele>302</ele>
        <time>2026-05-10T09:50:14.000Z</time>
      </trkpt>
      <trkpt lat="45.84553" lon="3.52166">
        <ele>302</ele>
        <time>2026-05-10T09:50:15.000Z</time>
      </trkpt>
      <trkpt lat="45.84555" lon="3.52165">
        <ele>301.9</ele>
        <time>2026-05-10T09:50:16.000Z</time>
      </trkpt>
      <trkpt lat="45.84556" lon="3.52164">
        <ele>301.9</ele>
        <time>2026-05-10T09:50:17.000Z</time>
      </trkpt>
      <trkpt lat="45.84557" lon="3.52163">
        <ele>301.8</ele>
        <time>2026-05-10T09:50:18.000Z</time>
      </trkpt>
      <trkpt lat="45.84558" lon="3.52162">
        <ele>301.8</ele>
        <time>2026-05-10T09:50:19.000Z</time>
      </trkpt>
      <trkpt lat="45.84558" lon="3.52161">
        <ele>301.7</ele>
        <time>2026-05-10T09:50:20.000Z</time>
      </trkpt>
      <trkpt lat="45.84559" lon="3.5216">
        <ele>301.7</ele>
        <time>2026-05-10T09:50:21.000Z</time>
      </trkpt>
      <trkpt lat="45.8456" lon="3.52159">
        <ele>301.6</ele>
        <time>2026-05-10T09:50:22.000Z</time>
      </trkpt>
      <trkpt lat="45.84561" lon="3.52158">
        <ele>301.5</ele>
        <time>2026-05-10T09:50:23.000Z</time>
      </trkpt>
      <trkpt lat="45.84562" lon="3.52156">
        <ele>301.5</ele>
        <time>2026-05-10T09:50:24.000Z</time>
      </trkpt>
      <trkpt lat="45.84563" lon="3.52156">
        <ele>301.4</ele>
        <time>2026-05-10T09:50:25.000Z</time>
      </trkpt>
      <trkpt lat="45.84565" lon="3.52154">
        <ele>301.3</ele>
        <time>2026-05-10T09:50:26.000Z</time>
      </trkpt>
      <trkpt lat="45.84567" lon="3.52153">
        <ele>301.3</ele>
        <time>2026-05-10T09:50:27.000Z</time>
      </trkpt>
      <trkpt lat="45.84568" lon="3.52153">
        <ele>301.3</ele>
        <time>2026-05-10T09:50:28.000Z</time>
      </trkpt>
      <trkpt lat="45.84569" lon="3.52153">
        <ele>301.3</ele>
        <time>2026-05-10T09:50:29.000Z</time>
      </trkpt>
      <trkpt lat="45.8457" lon="3.52153">
        <ele>301.2</ele>
        <time>2026-05-10T09:50:30.000Z</time>
      </trkpt>
      <trkpt lat="45.84571" lon="3.52153">
        <ele>301.2</ele>
        <time>2026-05-10T09:50:31.000Z</time>
      </trkpt>
      <trkpt lat="45.84572" lon="3.52153">
        <ele>301.2</ele>
        <time>2026-05-10T09:50:32.000Z</time>
      </trkpt>
      <trkpt lat="45.84573" lon="3.52152">
        <ele>301.2</ele>
        <time>2026-05-10T09:50:33.000Z</time>
      </trkpt>
      <trkpt lat="45.84574" lon="3.52152">
        <ele>301.2</ele>
        <time>2026-05-10T09:50:34.000Z</time>
      </trkpt>
      <trkpt lat="45.84575" lon="3.52151">
        <ele>301.1</ele>
        <time>2026-05-10T09:50:35.000Z</time>
      </trkpt>
      <trkpt lat="45.84577" lon="3.52151">
        <ele>301.1</ele>
        <time>2026-05-10T09:50:36.000Z</time>
      </trkpt>
      <trkpt lat="45.84578" lon="3.5215">
        <ele>301.1</ele>
        <time>2026-05-10T09:50:37.000Z</time>
      </trkpt>
      <trkpt lat="45.84579" lon="3.5215">
        <ele>301.1</ele>
        <time>2026-05-10T09:50:38.000Z</time>
      </trkpt>
      <trkpt lat="45.8458" lon="3.52149">
        <ele>301</ele>
        <time>2026-05-10T09:50:39.000Z</time>
      </trkpt>
      <trkpt lat="45.84581" lon="3.52149">
        <ele>301</ele>
        <time>2026-05-10T09:50:40.000Z</time>
      </trkpt>
      <trkpt lat="45.84583" lon="3.52148">
        <ele>301</ele>
        <time>2026-05-10T09:50:41.000Z</time>
      </trkpt>
      <trkpt lat="45.84584" lon="3.52147">
        <ele>301</ele>
        <time>2026-05-10T09:50:42.000Z</time>
      </trkpt>
      <trkpt lat="45.84585" lon="3.52146">
        <ele>301</ele>
        <time>2026-05-10T09:50:43.000Z</time>
      </trkpt>
      <trkpt lat="45.84586" lon="3.52145">
        <ele>301</ele>
        <time>2026-05-10T09:50:44.000Z</time>
      </trkpt>
      <trkpt lat="45.84587" lon="3.52144">
        <ele>301</ele>
        <time>2026-05-10T09:50:45.000Z</time>
      </trkpt>
      <trkpt lat="45.84589" lon="3.52143">
        <ele>301</ele>
        <time>2026-05-10T09:50:46.000Z</time>
      </trkpt>
      <trkpt lat="45.8459" lon="3.52142">
        <ele>301</ele>
        <time>2026-05-10T09:50:47.000Z</time>
      </trkpt>
      <trkpt lat="45.84591" lon="3.52141">
        <ele>301</ele>
        <time>2026-05-10T09:50:48.000Z</time>
      </trkpt>
      <trkpt lat="45.84592" lon="3.5214">
        <ele>301</ele>
        <time>2026-05-10T09:50:49.000Z</time>
      </trkpt>
      <trkpt lat="45.84593" lon="3.5214">
        <ele>301</ele>
        <time>2026-05-10T09:50:50.000Z</time>
      </trkpt>
      <trkpt lat="45.84594" lon="3.52139">
        <ele>301</ele>
        <time>2026-05-10T09:50:51.000Z</time>
      </trkpt>
      <trkpt lat="45.84595" lon="3.52138">
        <ele>301</ele>
        <time>2026-05-10T09:50:52.000Z</time>
      </trkpt>
      <trkpt lat="45.84596" lon="3.52137">
        <ele>301</ele>
        <time>2026-05-10T09:50:53.000Z</time>
      </trkpt>
      <trkpt lat="45.84598" lon="3.52136">
        <ele>301</ele>
        <time>2026-05-10T09:50:54.000Z</time>
      </trkpt>
      <trkpt lat="45.84599" lon="3.52135">
        <ele>301</ele>
        <time>2026-05-10T09:50:55.000Z</time>
      </trkpt>
      <trkpt lat="45.846" lon="3.52134">
        <ele>301</ele>
        <time>2026-05-10T09:50:56.000Z</time>
      </trkpt>
      <trkpt lat="45.84601" lon="3.52133">
        <ele>301</ele>
        <time>2026-05-10T09:50:57.000Z</time>
      </trkpt>
      <trkpt lat="45.84601" lon="3.52132">
        <ele>301</ele>
        <time>2026-05-10T09:50:58.000Z</time>
      </trkpt>
      <trkpt lat="45.84602" lon="3.52132">
        <ele>301</ele>
        <time>2026-05-10T09:50:59.000Z</time>
      </trkpt>
      <trkpt lat="45.84603" lon="3.52131">
        <ele>301</ele>
        <time>2026-05-10T09:51:00.000Z</time>
      </trkpt>
      <trkpt lat="45.84604" lon="3.5213">
        <ele>301</ele>
        <time>2026-05-10T09:51:01.000Z</time>
      </trkpt>
      <trkpt lat="45.84605" lon="3.52128">
        <ele>301</ele>
        <time>2026-05-10T09:51:02.000Z</time>
      </trkpt>
      <trkpt lat="45.84606" lon="3.52127">
        <ele>301</ele>
        <time>2026-05-10T09:51:03.000Z</time>
      </trkpt>
      <trkpt lat="45.84607" lon="3.52126">
        <ele>301</ele>
        <time>2026-05-10T09:51:04.000Z</time>
      </trkpt>
      <trkpt lat="45.84609" lon="3.52125">
        <ele>301</ele>
        <time>2026-05-10T09:51:05.000Z</time>
      </trkpt>
      <trkpt lat="45.8461" lon="3.52124">
        <ele>301</ele>
        <time>2026-05-10T09:51:06.000Z</time>
      </trkpt>
      <trkpt lat="45.84611" lon="3.52123">
        <ele>301</ele>
        <time>2026-05-10T09:51:07.000Z</time>
      </trkpt>
      <trkpt lat="45.84612" lon="3.52123">
        <ele>301</ele>
        <time>2026-05-10T09:51:08.000Z</time>
      </trkpt>
      <trkpt lat="45.84613" lon="3.52123">
        <ele>301</ele>
        <time>2026-05-10T09:51:09.000Z</time>
      </trkpt>
      <trkpt lat="45.84614" lon="3.52122">
        <ele>301</ele>
        <time>2026-05-10T09:51:10.000Z</time>
      </trkpt>
      <trkpt lat="45.84615" lon="3.52122">
        <ele>301</ele>
        <time>2026-05-10T09:51:11.000Z</time>
      </trkpt>
      <trkpt lat="45.84616" lon="3.52121">
        <ele>301</ele>
        <time>2026-05-10T09:51:12.000Z</time>
      </trkpt>
      <trkpt lat="45.84617" lon="3.5212">
        <ele>301</ele>
        <time>2026-05-10T09:51:13.000Z</time>
      </trkpt>
      <trkpt lat="45.84619" lon="3.5212">
        <ele>301</ele>
        <time>2026-05-10T09:51:14.000Z</time>
      </trkpt>
      <trkpt lat="45.8462" lon="3.52119">
        <ele>301</ele>
        <time>2026-05-10T09:51:15.000Z</time>
      </trkpt>
      <trkpt lat="45.84621" lon="3.52118">
        <ele>301</ele>
        <time>2026-05-10T09:51:16.000Z</time>
      </trkpt>
      <trkpt lat="45.84622" lon="3.52118">
        <ele>301</ele>
        <time>2026-05-10T09:51:17.000Z</time>
      </trkpt>
      <trkpt lat="45.84623" lon="3.52117">
        <ele>301</ele>
        <time>2026-05-10T09:51:18.000Z</time>
      </trkpt>
      <trkpt lat="45.84624" lon="3.52117">
        <ele>301</ele>
        <time>2026-05-10T09:51:19.000Z</time>
      </trkpt>
      <trkpt lat="45.84625" lon="3.52116">
        <ele>301</ele>
        <time>2026-05-10T09:51:20.000Z</time>
      </trkpt>
      <trkpt lat="45.84626" lon="3.52116">
        <ele>301</ele>
        <time>2026-05-10T09:51:21.000Z</time>
      </trkpt>
      <trkpt lat="45.84627" lon="3.52115">
        <ele>301</ele>
        <time>2026-05-10T09:51:22.000Z</time>
      </trkpt>
      <trkpt lat="45.84628" lon="3.52115">
        <ele>301</ele>
        <time>2026-05-10T09:51:23.000Z</time>
      </trkpt>
      <trkpt lat="45.84631" lon="3.52114">
        <ele>301</ele>
        <time>2026-05-10T09:51:24.000Z</time>
      </trkpt>
      <trkpt lat="45.84632" lon="3.52113">
        <ele>301</ele>
        <time>2026-05-10T09:51:25.000Z</time>
      </trkpt>
      <trkpt lat="45.84633" lon="3.52113">
        <ele>301</ele>
        <time>2026-05-10T09:51:26.000Z</time>
        <extensions>
          <visugpx:TrkExtension xmlns:visugpx="https://www.visugpx.com/editgpx/">
            <visugpx:node>4</visugpx:node>
            </visugpx:TrkExtension>
        </extensions>
      </trkpt>
    </trkseg>
  </trk>
</gpx>